<?xml version='1.0' encoding='UTF-8'?><gpx version="1.1" creator="JPX - https://github.com/jenetics/jpx" xmlns="http://www.topografix.com/GPX/1/1"><trk><trkseg><trkpt lat="44.2117857" lon="12.014647"><ele>35.0</ele><time>2026-04-06T09:53:53.05Z</time></trkpt><trkpt lat="44.211724" lon="12.0146131"><ele>35.0</ele><time>2026-04-06T09:53:59.071Z</time></trkpt><trkpt lat="44.211592" lon="12.0144278"><ele>35.0</ele><time>2026-04-06T09:54:01.011Z</time></trkpt><trkpt lat="44.2115249" lon="12.0143103"><ele>35.0</ele><time>2026-04-06T09:54:02.009Z</time></trkpt><trkpt lat="44.2114647" lon="12.0141897"><ele>34.33333333333333</ele><time>2026-04-06T09:54:03.008Z</time></trkpt><trkpt lat="44.2113913" lon="12.0140244"><ele>33.666666666666664</ele><time>2026-04-06T09:54:04.008Z</time></trkpt><trkpt lat="44.2113055" lon="12.0138413"><ele>33.0</ele><time>2026-04-06T09:54:05.006Z</time></trkpt><trkpt lat="44.2112165" lon="12.0136431"><ele>33.0</ele><time>2026-04-06T09:54:06.007Z</time></trkpt><trkpt lat="44.2111275" lon="12.0134283"><ele>33.0</ele><time>2026-04-06T09:54:07.009Z</time></trkpt><trkpt lat="44.2110451" lon="12.013195"><ele>33.0</ele><time>2026-04-06T09:54:08.007Z</time></trkpt><trkpt lat="44.2109672" lon="12.0129574"><ele>33.0</ele><time>2026-04-06T09:54:09.008Z</time></trkpt><trkpt lat="44.2109032" lon="12.0127306"><ele>33.0</ele><time>2026-04-06T09:54:10.007Z</time></trkpt><trkpt lat="44.2108455" lon="12.0125242"><ele>33.0</ele><time>2026-04-06T09:54:11.007Z</time></trkpt><trkpt lat="44.2107935" lon="12.0123355"><ele>33.0</ele><time>2026-04-06T09:54:12.011Z</time></trkpt><trkpt lat="44.2107463" lon="12.0121594"><ele>33.0</ele><time>2026-04-06T09:54:13.007Z</time></trkpt><trkpt lat="44.2107032" lon="12.0119861"><ele>33.0</ele><time>2026-04-06T09:54:14.01Z</time></trkpt><trkpt lat="44.2106522" lon="12.0118016"><ele>33.0</ele><time>2026-04-06T09:54:15.01Z</time></trkpt><trkpt lat="44.2105985" lon="12.0116002"><ele>33.666666666666664</ele><time>2026-04-06T09:54:16.015Z</time></trkpt><trkpt lat="44.2105432" lon="12.0113927"><ele>34.33333333333333</ele><time>2026-04-06T09:54:17.009Z</time></trkpt><trkpt lat="44.2104889" lon="12.0111877"><ele>35.0</ele><time>2026-04-06T09:54:18.007Z</time></trkpt><trkpt lat="44.2104421" lon="12.0110017"><ele>35.0</ele><time>2026-04-06T09:54:19.008Z</time></trkpt><trkpt lat="44.2103978" lon="12.0108292"><ele>35.0</ele><time>2026-04-06T09:54:20.008Z</time></trkpt><trkpt lat="44.2103634" lon="12.0106776"><ele>35.0</ele><time>2026-04-06T09:54:21.008Z</time></trkpt><trkpt lat="44.2103335" lon="12.0105353"><ele>35.0</ele><time>2026-04-06T09:54:22.009Z</time></trkpt><trkpt lat="44.2103121" lon="12.0104054"><ele>35.0</ele><time>2026-04-06T09:54:23.011Z</time></trkpt><trkpt lat="44.2102937" lon="12.0102907"><ele>35.2</ele><time>2026-04-06T09:54:24.007Z</time></trkpt><trkpt lat="44.2102811" lon="12.0101908"><ele>35.4</ele><time>2026-04-06T09:54:25.01Z</time></trkpt><trkpt lat="44.2102693" lon="12.0100499"><ele>35.6</ele><time>2026-04-06T09:54:27.006Z</time></trkpt><trkpt lat="44.2102596" lon="12.0099541"><ele>35.8</ele><time>2026-04-06T09:54:32.008Z</time></trkpt><trkpt lat="44.2101893" lon="12.009781"><ele>36.0</ele><time>2026-04-06T09:55:45.009Z</time></trkpt><trkpt lat="44.2101143" lon="12.009704"><ele>36.0</ele><time>2026-04-06T09:55:46.009Z</time></trkpt><trkpt lat="44.2100346" lon="12.0096762"><ele>36.0</ele><time>2026-04-06T09:55:47.007Z</time></trkpt><trkpt lat="44.2099374" lon="12.0096982"><ele>36.0</ele><time>2026-04-06T09:55:48.008Z</time></trkpt><trkpt lat="44.2098159" lon="12.0097727"><ele>36.0</ele><time>2026-04-06T09:55:49.008Z</time></trkpt><trkpt lat="44.2096682" lon="12.009884"><ele>36.0</ele><time>2026-04-06T09:55:50.009Z</time></trkpt><trkpt lat="44.2095192" lon="12.0099882"><ele>36.0</ele><time>2026-04-06T09:55:51.009Z</time></trkpt><trkpt lat="44.2093633" lon="12.0100892"><ele>36.0</ele><time>2026-04-06T09:55:52.007Z</time></trkpt><trkpt lat="44.2091965" lon="12.0101915"><ele>35.333333333333336</ele><time>2026-04-06T09:55:53.008Z</time></trkpt><trkpt lat="44.209023" lon="12.0102935"><ele>34.66666666666667</ele><time>2026-04-06T09:55:54.007Z</time></trkpt><trkpt lat="44.2088428" lon="12.0103968"><ele>34.0</ele><time>2026-04-06T09:55:55.008Z</time></trkpt><trkpt lat="44.2086511" lon="12.0105096"><ele>32.0</ele><time>2026-04-06T09:55:56.011Z</time></trkpt><trkpt lat="44.2084494" lon="12.0106343"><ele>30.0</ele><time>2026-04-06T09:55:57.007Z</time></trkpt><trkpt lat="44.2082359" lon="12.0107614"><ele>29.0</ele><time>2026-04-06T09:55:58.01Z</time></trkpt><trkpt lat="44.2080167" lon="12.0108908"><ele>28.0</ele><time>2026-04-06T09:55:59.006Z</time></trkpt><trkpt lat="44.2077913" lon="12.0110213"><ele>28.0</ele><time>2026-04-06T09:56:00.007Z</time></trkpt><trkpt lat="44.2075663" lon="12.0111517"><ele>28.0</ele><time>2026-04-06T09:56:01.01Z</time></trkpt><trkpt lat="44.2073435" lon="12.0112805"><ele>28.0</ele><time>2026-04-06T09:56:02.008Z</time></trkpt><trkpt lat="44.207123" lon="12.0114094"><ele>28.0</ele><time>2026-04-06T09:56:03.01Z</time></trkpt><trkpt lat="44.2069042" lon="12.0115366"><ele>28.0</ele><time>2026-04-06T09:56:04.007Z</time></trkpt><trkpt lat="44.20669" lon="12.0116618"><ele>28.0</ele><time>2026-04-06T09:56:05.007Z</time></trkpt><trkpt lat="44.2064874" lon="12.0117807"><ele>28.0</ele><time>2026-04-06T09:56:06.009Z</time></trkpt><trkpt lat="44.2062983" lon="12.0118942"><ele>28.0</ele><time>2026-04-06T09:56:07.008Z</time></trkpt><trkpt lat="44.2061255" lon="12.0119957"><ele>28.0</ele><time>2026-04-06T09:56:08.008Z</time></trkpt><trkpt lat="44.2059748" lon="12.0120819"><ele>28.0</ele><time>2026-04-06T09:56:09.01Z</time></trkpt><trkpt lat="44.2058482" lon="12.0121615"><ele>28.0</ele><time>2026-04-06T09:56:10.008Z</time></trkpt><trkpt lat="44.2057446" lon="12.012257"><ele>28.0</ele><time>2026-04-06T09:56:11.008Z</time></trkpt><trkpt lat="44.2056651" lon="12.0123732"><ele>28.0</ele><time>2026-04-06T09:56:12.01Z</time></trkpt><trkpt lat="44.2056112" lon="12.0125121"><ele>28.0</ele><time>2026-04-06T09:56:13.008Z</time></trkpt><trkpt lat="44.2055792" lon="12.012673"><ele>28.0</ele><time>2026-04-06T09:56:14.007Z</time></trkpt><trkpt lat="44.2055867" lon="12.0128531"><ele>28.0</ele><time>2026-04-06T09:56:15.009Z</time></trkpt><trkpt lat="44.2056224" lon="12.0130427"><ele>28.0</ele><time>2026-04-06T09:56:16.007Z</time></trkpt><trkpt lat="44.2056996" lon="12.0132563"><ele>28.0</ele><time>2026-04-06T09:56:17.007Z</time></trkpt><trkpt lat="44.205806" lon="12.0134917"><ele>28.0</ele><time>2026-04-06T09:56:18.006Z</time></trkpt><trkpt lat="44.2059168" lon="12.0137192"><ele>28.0</ele><time>2026-04-06T09:56:19.008Z</time></trkpt><trkpt lat="44.2060161" lon="12.0139308"><ele>28.0</ele><time>2026-04-06T09:56:20.01Z</time></trkpt><trkpt lat="44.2060931" lon="12.0141329"><ele>28.0</ele><time>2026-04-06T09:56:21.009Z</time></trkpt><trkpt lat="44.2061414" lon="12.0143331"><ele>28.0</ele><time>2026-04-06T09:56:22.009Z</time></trkpt><trkpt lat="44.206164" lon="12.0145272"><ele>28.75</ele><time>2026-04-06T09:56:23.008Z</time></trkpt><trkpt lat="44.2061582" lon="12.0147079"><ele>29.5</ele><time>2026-04-06T09:56:24.009Z</time></trkpt><trkpt lat="44.2061289" lon="12.014873"><ele>30.25</ele><time>2026-04-06T09:56:25.009Z</time></trkpt><trkpt lat="44.2060803" lon="12.0150256"><ele>31.0</ele><time>2026-04-06T09:56:26.007Z</time></trkpt><trkpt lat="44.2060239" lon="12.0151687"><ele>31.666666666666668</ele><time>2026-04-06T09:56:27.008Z</time></trkpt><trkpt lat="44.2059652" lon="12.0152982"><ele>32.333333333333336</ele><time>2026-04-06T09:56:28.01Z</time></trkpt><trkpt lat="44.2059114" lon="12.0154057"><ele>33.0</ele><time>2026-04-06T09:56:29.008Z</time></trkpt><trkpt lat="44.2058648" lon="12.0154963"><ele>33.666666666666664</ele><time>2026-04-06T09:56:30.008Z</time></trkpt><trkpt lat="44.2058226" lon="12.015578"><ele>34.33333333333333</ele><time>2026-04-06T09:56:31.008Z</time></trkpt><trkpt lat="44.2057829" lon="12.0156603"><ele>35.0</ele><time>2026-04-06T09:56:32.008Z</time></trkpt><trkpt lat="44.2057287" lon="12.0157321"><ele>35.2</ele><time>2026-04-06T09:56:33.01Z</time></trkpt><trkpt lat="44.2056587" lon="12.0157884"><ele>35.4</ele><time>2026-04-06T09:56:34.007Z</time></trkpt><trkpt lat="44.2055788" lon="12.0158216"><ele>35.6</ele><time>2026-04-06T09:56:35.008Z</time></trkpt><trkpt lat="44.2054865" lon="12.0158224"><ele>35.8</ele><time>2026-04-06T09:56:36.009Z</time></trkpt><trkpt lat="44.2053812" lon="12.0157803"><ele>36.0</ele><time>2026-04-06T09:56:37.007Z</time></trkpt><trkpt lat="44.2052564" lon="12.0156661"><ele>36.0</ele><time>2026-04-06T09:56:38.008Z</time></trkpt><trkpt lat="44.2051388" lon="12.0155522"><ele>36.0</ele><time>2026-04-06T09:56:39.008Z</time></trkpt><trkpt lat="44.2050193" lon="12.0154501"><ele>36.0</ele><time>2026-04-06T09:56:40.005Z</time></trkpt><trkpt lat="44.204894" lon="12.0153474"><ele>36.0</ele><time>2026-04-06T09:56:41.007Z</time></trkpt><trkpt lat="44.2047663" lon="12.015247"><ele>36.0</ele><time>2026-04-06T09:56:42.006Z</time></trkpt><trkpt lat="44.2046369" lon="12.0151479"><ele>36.0</ele><time>2026-04-06T09:56:43.006Z</time></trkpt><trkpt lat="44.2044948" lon="12.0150365"><ele>36.0</ele><time>2026-04-06T09:56:44.006Z</time></trkpt><trkpt lat="44.2043257" lon="12.0149146"><ele>36.333333333333336</ele><time>2026-04-06T09:56:45.007Z</time></trkpt><trkpt lat="44.2041353" lon="12.0147747"><ele>36.66666666666667</ele><time>2026-04-06T09:56:46.006Z</time></trkpt><trkpt lat="44.2039379" lon="12.0146211"><ele>37.0</ele><time>2026-04-06T09:56:47.007Z</time></trkpt><trkpt lat="44.2037498" lon="12.0144608"><ele>37.0</ele><time>2026-04-06T09:56:48.007Z</time></trkpt><trkpt lat="44.2035794" lon="12.0143231"><ele>37.0</ele><time>2026-04-06T09:56:49.007Z</time></trkpt><trkpt lat="44.2034245" lon="12.0142178"><ele>37.0</ele><time>2026-04-06T09:56:50.008Z</time></trkpt><trkpt lat="44.2032803" lon="12.0141575"><ele>36.75</ele><time>2026-04-06T09:56:51.007Z</time></trkpt><trkpt lat="44.2031426" lon="12.014158"><ele>36.5</ele><time>2026-04-06T09:56:52.006Z</time></trkpt><trkpt lat="44.2030057" lon="12.0142117"><ele>36.25</ele><time>2026-04-06T09:56:53.007Z</time></trkpt><trkpt lat="44.2028686" lon="12.0142998"><ele>36.0</ele><time>2026-04-06T09:56:54.007Z</time></trkpt><trkpt lat="44.202731" lon="12.0144067"><ele>36.0</ele><time>2026-04-06T09:56:55.008Z</time></trkpt><trkpt lat="44.2025904" lon="12.0145044"><ele>36.0</ele><time>2026-04-06T09:56:56.006Z</time></trkpt><trkpt lat="44.2024517" lon="12.0145722"><ele>36.0</ele><time>2026-04-06T09:56:57.01Z</time></trkpt><trkpt lat="44.2023154" lon="12.0146143"><ele>36.0</ele><time>2026-04-06T09:56:58.007Z</time></trkpt><trkpt lat="44.202179" lon="12.0146596"><ele>36.333333333333336</ele><time>2026-04-06T09:56:59.009Z</time></trkpt><trkpt lat="44.202044" lon="12.0147252"><ele>36.66666666666667</ele><time>2026-04-06T09:57:00.007Z</time></trkpt><trkpt lat="44.2019091" lon="12.0148266"><ele>37.0</ele><time>2026-04-06T09:57:01.007Z</time></trkpt><trkpt lat="44.2017787" lon="12.0149613"><ele>37.0</ele><time>2026-04-06T09:57:02.007Z</time></trkpt><trkpt lat="44.2016587" lon="12.0151265"><ele>37.0</ele><time>2026-04-06T09:57:03.007Z</time></trkpt><trkpt lat="44.2015511" lon="12.0153136"><ele>37.0</ele><time>2026-04-06T09:57:04.008Z</time></trkpt><trkpt lat="44.2014602" lon="12.0155083"><ele>37.0</ele><time>2026-04-06T09:57:05.007Z</time></trkpt><trkpt lat="44.2013828" lon="12.0156933"><ele>37.0</ele><time>2026-04-06T09:57:06.007Z</time></trkpt><trkpt lat="44.2013156" lon="12.015854"><ele>37.0</ele><time>2026-04-06T09:57:07.007Z</time></trkpt><trkpt lat="44.201249" lon="12.0159886"><ele>37.0</ele><time>2026-04-06T09:57:08.007Z</time></trkpt><trkpt lat="44.2011811" lon="12.0160816"><ele>37.0</ele><time>2026-04-06T09:57:09.008Z</time></trkpt><trkpt lat="44.2011265" lon="12.0161481"><ele>37.0</ele><time>2026-04-06T09:57:10.007Z</time></trkpt><trkpt lat="44.2010584" lon="12.0162137"><ele>37.0</ele><time>2026-04-06T09:57:12.008Z</time></trkpt><trkpt lat="44.20103" lon="12.01633"><ele>37.0</ele><time>2026-04-06T09:57:23.005Z</time></trkpt><trkpt lat="44.2010333" lon="12.0164917"><ele>37.0</ele><time>2026-04-06T09:57:24.007Z</time></trkpt><trkpt lat="44.2010517" lon="12.0166833"><ele>36.66666666666667</ele><time>2026-04-06T09:57:25.007Z</time></trkpt><trkpt lat="44.2010783" lon="12.0169017"><ele>36.333333333333336</ele><time>2026-04-06T09:57:26.006Z</time></trkpt><trkpt lat="44.2011017" lon="12.0171433"><ele>36.0</ele><time>2026-04-06T09:57:27.006Z</time></trkpt><trkpt lat="44.2011083" lon="12.0173767"><ele>36.0</ele><time>2026-04-06T09:57:28.007Z</time></trkpt><trkpt lat="44.2011" lon="12.0175833"><ele>36.0</ele><time>2026-04-06T09:57:29.008Z</time></trkpt><trkpt lat="44.20107" lon="12.01776"><ele>36.0</ele><time>2026-04-06T09:57:30.007Z</time></trkpt><trkpt lat="44.2010233" lon="12.0179117"><ele>36.0</ele><time>2026-04-06T09:57:31.008Z</time></trkpt><trkpt lat="44.2009633" lon="12.0180383"><ele>36.0</ele><time>2026-04-06T09:57:32.006Z</time></trkpt><trkpt lat="44.2009117" lon="12.0181633"><ele>36.0</ele><time>2026-04-06T09:57:33.009Z</time></trkpt><trkpt lat="44.2008867" lon="12.0182883"><ele>36.0</ele><time>2026-04-06T09:57:34.007Z</time></trkpt><trkpt lat="44.2008833" lon="12.0184183"><ele>36.0</ele><time>2026-04-06T09:57:35.006Z</time></trkpt><trkpt lat="44.2009333" lon="12.0185433"><ele>36.0</ele><time>2026-04-06T09:57:36.007Z</time></trkpt><trkpt lat="44.2009667" lon="12.018685"><ele>36.0</ele><time>2026-04-06T09:57:37.008Z</time></trkpt><trkpt lat="44.2009817" lon="12.01886"><ele>36.0</ele><time>2026-04-06T09:57:38.008Z</time></trkpt><trkpt lat="44.2009733" lon="12.0190767"><ele>36.0</ele><time>2026-04-06T09:57:39.009Z</time></trkpt><trkpt lat="44.2009533" lon="12.01932"><ele>36.333333333333336</ele><time>2026-04-06T09:57:40.008Z</time></trkpt><trkpt lat="44.2009267" lon="12.0195933"><ele>36.66666666666667</ele><time>2026-04-06T09:57:41.008Z</time></trkpt><trkpt lat="44.2009" lon="12.0198867"><ele>37.0</ele><time>2026-04-06T09:57:42.006Z</time></trkpt><trkpt lat="44.20087" lon="12.0201767"><ele>37.0</ele><time>2026-04-06T09:57:43.008Z</time></trkpt><trkpt lat="44.200835" lon="12.0204533"><ele>37.0</ele><time>2026-04-06T09:57:44.007Z</time></trkpt><trkpt lat="44.200815" lon="12.0206983"><ele>37.0</ele><time>2026-04-06T09:57:45.01Z</time></trkpt><trkpt lat="44.2007935" lon="12.02092"><ele>37.0</ele><time>2026-04-06T09:57:46.007Z</time></trkpt><trkpt lat="44.2007844" lon="12.0211303"><ele>37.0</ele><time>2026-04-06T09:57:47.007Z</time></trkpt><trkpt lat="44.2007696" lon="12.0213263"><ele>37.0</ele><time>2026-04-06T09:57:48.008Z</time></trkpt><trkpt lat="44.2007518" lon="12.0215033"><ele>37.0</ele><time>2026-04-06T09:57:49.008Z</time></trkpt><trkpt lat="44.2007389" lon="12.0216591"><ele>37.16666666666667</ele><time>2026-04-06T09:57:50.007Z</time></trkpt><trkpt lat="44.2007231" lon="12.0217983"><ele>37.333333333333336</ele><time>2026-04-06T09:57:51.006Z</time></trkpt><trkpt lat="44.2006984" lon="12.0219226"><ele>37.5</ele><time>2026-04-06T09:57:52.008Z</time></trkpt><trkpt lat="44.2006568" lon="12.0220268"><ele>37.666666666666664</ele><time>2026-04-06T09:57:53.008Z</time></trkpt><trkpt lat="44.2006137" lon="12.0221168"><ele>37.83333333333333</ele><time>2026-04-06T09:57:54.008Z</time></trkpt><trkpt lat="44.2005767" lon="12.0222086"><ele>38.0</ele><time>2026-04-06T09:57:55.008Z</time></trkpt><trkpt lat="44.200556" lon="12.0223092"><ele>38.166666666666664</ele><time>2026-04-06T09:57:56.01Z</time></trkpt><trkpt lat="44.2005594" lon="12.0224138"><ele>38.33333333333333</ele><time>2026-04-06T09:57:57.007Z</time></trkpt><trkpt lat="44.200587" lon="12.0225157"><ele>38.5</ele><time>2026-04-06T09:57:58.007Z</time></trkpt><trkpt lat="44.2006195" lon="12.0226243"><ele>38.666666666666664</ele><time>2026-04-06T09:57:59.006Z</time></trkpt><trkpt lat="44.2006432" lon="12.0227481"><ele>38.833333333333336</ele><time>2026-04-06T09:58:00.008Z</time></trkpt><trkpt lat="44.2006501" lon="12.0228966"><ele>39.0</ele><time>2026-04-06T09:58:01.007Z</time></trkpt><trkpt lat="44.2006412" lon="12.0230751"><ele>39.0</ele><time>2026-04-06T09:58:02.008Z</time></trkpt><trkpt lat="44.2006257" lon="12.0232829"><ele>39.0</ele><time>2026-04-06T09:58:03.008Z</time></trkpt><trkpt lat="44.2006042" lon="12.0235102"><ele>39.0</ele><time>2026-04-06T09:58:04.007Z</time></trkpt><trkpt lat="44.2005816" lon="12.0237386"><ele>38.333333333333336</ele><time>2026-04-06T09:58:05.008Z</time></trkpt><trkpt lat="44.2005629" lon="12.0239705"><ele>37.66666666666667</ele><time>2026-04-06T09:58:06.014Z</time></trkpt><trkpt lat="44.2005415" lon="12.0242228"><ele>37.0</ele><time>2026-04-06T09:58:07.009Z</time></trkpt><trkpt lat="44.2005183" lon="12.0245093"><ele>35.0</ele><time>2026-04-06T09:58:08.006Z</time></trkpt><trkpt lat="44.2004857" lon="12.0248233"><ele>33.0</ele><time>2026-04-06T09:58:09.007Z</time></trkpt><trkpt lat="44.2004579" lon="12.0251589"><ele>30.5</ele><time>2026-04-06T09:58:10.008Z</time></trkpt><trkpt lat="44.2004298" lon="12.0255092"><ele>28.0</ele><time>2026-04-06T09:58:11.007Z</time></trkpt><trkpt lat="44.2004153" lon="12.0258696"><ele>28.0</ele><time>2026-04-06T09:58:12.008Z</time></trkpt><trkpt lat="44.200407" lon="12.0262172"><ele>28.0</ele><time>2026-04-06T09:58:13.007Z</time></trkpt><trkpt lat="44.2004155" lon="12.0265366"><ele>27.666666666666668</ele><time>2026-04-06T09:58:14.006Z</time></trkpt><trkpt lat="44.2004272" lon="12.0268287"><ele>27.333333333333336</ele><time>2026-04-06T09:58:15.007Z</time></trkpt><trkpt lat="44.2004511" lon="12.027095"><ele>27.0</ele><time>2026-04-06T09:58:16.006Z</time></trkpt><trkpt lat="44.2004791" lon="12.0273436"><ele>27.0</ele><time>2026-04-06T09:58:17.008Z</time></trkpt><trkpt lat="44.2005067" lon="12.0275746"><ele>27.0</ele><time>2026-04-06T09:58:18.011Z</time></trkpt><trkpt lat="44.2005296" lon="12.0277973"><ele>27.0</ele><time>2026-04-06T09:58:19.009Z</time></trkpt><trkpt lat="44.2005527" lon="12.028011"><ele>27.0</ele><time>2026-04-06T09:58:20.008Z</time></trkpt><trkpt lat="44.200576" lon="12.0282147"><ele>27.0</ele><time>2026-04-06T09:58:21.008Z</time></trkpt><trkpt lat="44.2005979" lon="12.0284064"><ele>27.0</ele><time>2026-04-06T09:58:22.007Z</time></trkpt><trkpt lat="44.2006163" lon="12.0285814"><ele>27.0</ele><time>2026-04-06T09:58:23.007Z</time></trkpt><trkpt lat="44.2006317" lon="12.0287419"><ele>27.25</ele><time>2026-04-06T09:58:24.009Z</time></trkpt><trkpt lat="44.2006199" lon="12.0288917"><ele>27.5</ele><time>2026-04-06T09:58:25.006Z</time></trkpt><trkpt lat="44.2005824" lon="12.0290355"><ele>27.75</ele><time>2026-04-06T09:58:26.011Z</time></trkpt><trkpt lat="44.2005174" lon="12.0291684"><ele>28.0</ele><time>2026-04-06T09:58:27.007Z</time></trkpt><trkpt lat="44.2004232" lon="12.0292962"><ele>30.0</ele><time>2026-04-06T09:58:28.006Z</time></trkpt><trkpt lat="44.2003054" lon="12.029412"><ele>32.0</ele><time>2026-04-06T09:58:29.006Z</time></trkpt><trkpt lat="44.2001639" lon="12.0295098"><ele>34.0</ele><time>2026-04-06T09:58:30.007Z</time></trkpt><trkpt lat="44.2000011" lon="12.0295955"><ele>34.0</ele><time>2026-04-06T09:58:31.008Z</time></trkpt><trkpt lat="44.1998218" lon="12.0296723"><ele>34.0</ele><time>2026-04-06T09:58:32.009Z</time></trkpt><trkpt lat="44.1996272" lon="12.0297427"><ele>34.0</ele><time>2026-04-06T09:58:33.008Z</time></trkpt><trkpt lat="44.1994155" lon="12.0298113"><ele>34.0</ele><time>2026-04-06T09:58:34.006Z</time></trkpt><trkpt lat="44.1991905" lon="12.0298708"><ele>34.0</ele><time>2026-04-06T09:58:35.007Z</time></trkpt><trkpt lat="44.1989781" lon="12.0299182"><ele>34.0</ele><time>2026-04-06T09:58:36.008Z</time></trkpt><trkpt lat="44.1987874" lon="12.0299592"><ele>35.0</ele><time>2026-04-06T09:58:37.008Z</time></trkpt><trkpt lat="44.1986227" lon="12.0299953"><ele>36.0</ele><time>2026-04-06T09:58:38.007Z</time></trkpt><trkpt lat="44.1984753" lon="12.0300276"><ele>37.0</ele><time>2026-04-06T09:58:39.007Z</time></trkpt><trkpt lat="44.1983414" lon="12.030057"><ele>37.0</ele><time>2026-04-06T09:58:40.007Z</time></trkpt><trkpt lat="44.1982198" lon="12.0300848"><ele>37.0</ele><time>2026-04-06T09:58:41.007Z</time></trkpt><trkpt lat="44.1981043" lon="12.0301102"><ele>37.0</ele><time>2026-04-06T09:58:42.006Z</time></trkpt><trkpt lat="44.1979963" lon="12.0301348"><ele>37.0</ele><time>2026-04-06T09:58:43.009Z</time></trkpt><trkpt lat="44.1978952" lon="12.0301581"><ele>37.2</ele><time>2026-04-06T09:58:44.007Z</time></trkpt><trkpt lat="44.1977988" lon="12.0301796"><ele>37.400000000000006</ele><time>2026-04-06T09:58:45.007Z</time></trkpt><trkpt lat="44.1976994" lon="12.0302037"><ele>37.599999999999994</ele><time>2026-04-06T09:58:46.008Z</time></trkpt><trkpt lat="44.1975973" lon="12.0302298"><ele>37.8</ele><time>2026-04-06T09:58:47.008Z</time></trkpt><trkpt lat="44.1974915" lon="12.030255"><ele>38.0</ele><time>2026-04-06T09:58:48.008Z</time></trkpt><trkpt lat="44.1973806" lon="12.0302831"><ele>38.0</ele><time>2026-04-06T09:58:49.008Z</time></trkpt><trkpt lat="44.1972619" lon="12.0303204"><ele>38.0</ele><time>2026-04-06T09:58:50.007Z</time></trkpt><trkpt lat="44.1971403" lon="12.0303729"><ele>38.0</ele><time>2026-04-06T09:58:51.008Z</time></trkpt><trkpt lat="44.1970209" lon="12.0304347"><ele>38.0</ele><time>2026-04-06T09:58:52.008Z</time></trkpt><trkpt lat="44.1969035" lon="12.0304978"><ele>38.0</ele><time>2026-04-06T09:58:53.008Z</time></trkpt><trkpt lat="44.1967937" lon="12.0305604"><ele>38.0</ele><time>2026-04-06T09:58:54.009Z</time></trkpt><trkpt lat="44.1966915" lon="12.0306183"><ele>38.0</ele><time>2026-04-06T09:58:55.009Z</time></trkpt><trkpt lat="44.196601" lon="12.0306695"><ele>38.0</ele><time>2026-04-06T09:58:56.007Z</time></trkpt><trkpt lat="44.1965125" lon="12.0307121"><ele>38.0</ele><time>2026-04-06T09:58:57.007Z</time></trkpt><trkpt lat="44.1964305" lon="12.0307494"><ele>37.6</ele><time>2026-04-06T09:58:58.007Z</time></trkpt><trkpt lat="44.1963511" lon="12.0307853"><ele>37.199999999999996</ele><time>2026-04-06T09:58:59.006Z</time></trkpt><trkpt lat="44.1962702" lon="12.0308143"><ele>36.8</ele><time>2026-04-06T09:59:00.007Z</time></trkpt><trkpt lat="44.1961822" lon="12.0308353"><ele>36.4</ele><time>2026-04-06T09:59:01.007Z</time></trkpt><trkpt lat="44.1960766" lon="12.0308464"><ele>36.0</ele><time>2026-04-06T09:59:02.007Z</time></trkpt><trkpt lat="44.1959529" lon="12.0308513"><ele>37.666666666666664</ele><time>2026-04-06T09:59:03.007Z</time></trkpt><trkpt lat="44.1958069" lon="12.0308549"><ele>39.33333333333333</ele><time>2026-04-06T09:59:04.008Z</time></trkpt><trkpt lat="44.1956323" lon="12.0308657"><ele>41.0</ele><time>2026-04-06T09:59:05.008Z</time></trkpt><trkpt lat="44.1954411" lon="12.0308856"><ele>41.33333333333333</ele><time>2026-04-06T09:59:06.006Z</time></trkpt><trkpt lat="44.1952475" lon="12.0309049"><ele>41.666666666666664</ele><time>2026-04-06T09:59:07.008Z</time></trkpt><trkpt lat="44.1950603" lon="12.0309213"><ele>42.0</ele><time>2026-04-06T09:59:08.007Z</time></trkpt><trkpt lat="44.1948861" lon="12.0309418"><ele>41.666666666666664</ele><time>2026-04-06T09:59:09.011Z</time></trkpt><trkpt lat="44.1947145" lon="12.0309688"><ele>41.33333333333333</ele><time>2026-04-06T09:59:10.008Z</time></trkpt><trkpt lat="44.1945282" lon="12.0310113"><ele>41.0</ele><time>2026-04-06T09:59:11.009Z</time></trkpt><trkpt lat="44.1943326" lon="12.0310744"><ele>41.0</ele><time>2026-04-06T09:59:12.006Z</time></trkpt><trkpt lat="44.1941264" lon="12.031147"><ele>41.0</ele><time>2026-04-06T09:59:13.008Z</time></trkpt><trkpt lat="44.1939131" lon="12.0312247"><ele>41.0</ele><time>2026-04-06T09:59:14.008Z</time></trkpt><trkpt lat="44.1936986" lon="12.031305"><ele>41.0</ele><time>2026-04-06T09:59:15.009Z</time></trkpt><trkpt lat="44.1934858" lon="12.0313817"><ele>41.0</ele><time>2026-04-06T09:59:16.012Z</time></trkpt><trkpt lat="44.1932783" lon="12.0314584"><ele>41.0</ele><time>2026-04-06T09:59:17.008Z</time></trkpt><trkpt lat="44.1930783" lon="12.0315312"><ele>41.0</ele><time>2026-04-06T09:59:18.008Z</time></trkpt><trkpt lat="44.1928869" lon="12.0316"><ele>41.0</ele><time>2026-04-06T09:59:19.009Z</time></trkpt><trkpt lat="44.1927002" lon="12.0316663"><ele>41.0</ele><time>2026-04-06T09:59:20.008Z</time></trkpt><trkpt lat="44.1925197" lon="12.0317298"><ele>40.666666666666664</ele><time>2026-04-06T09:59:21.009Z</time></trkpt><trkpt lat="44.1923417" lon="12.0317919"><ele>40.333333333333336</ele><time>2026-04-06T09:59:22.008Z</time></trkpt><trkpt lat="44.1921638" lon="12.0318561"><ele>40.0</ele><time>2026-04-06T09:59:23.008Z</time></trkpt><trkpt lat="44.1919834" lon="12.0319232"><ele>40.0</ele><time>2026-04-06T09:59:24.007Z</time></trkpt><trkpt lat="44.1918006" lon="12.0319926"><ele>40.0</ele><time>2026-04-06T09:59:25.008Z</time></trkpt><trkpt lat="44.1916133" lon="12.0320583"><ele>40.0</ele><time>2026-04-06T09:59:26.008Z</time></trkpt><trkpt lat="44.191425" lon="12.0321267"><ele>39.66666666666667</ele><time>2026-04-06T09:59:27.008Z</time></trkpt><trkpt lat="44.19124" lon="12.032195"><ele>39.333333333333336</ele><time>2026-04-06T09:59:28.009Z</time></trkpt><trkpt lat="44.19106" lon="12.0322667"><ele>39.0</ele><time>2026-04-06T09:59:29.007Z</time></trkpt><trkpt lat="44.1908867" lon="12.0323483"><ele>39.0</ele><time>2026-04-06T09:59:30.006Z</time></trkpt><trkpt lat="44.190725" lon="12.0324467"><ele>39.0</ele><time>2026-04-06T09:59:31.007Z</time></trkpt><trkpt lat="44.190575" lon="12.0325617"><ele>39.0</ele><time>2026-04-06T09:59:32.007Z</time></trkpt><trkpt lat="44.1904267" lon="12.0326933"><ele>40.666666666666664</ele><time>2026-04-06T09:59:33.009Z</time></trkpt><trkpt lat="44.1902717" lon="12.0328317"><ele>42.33333333333333</ele><time>2026-04-06T09:59:34.007Z</time></trkpt><trkpt lat="44.1901167" lon="12.0329683"><ele>44.0</ele><time>2026-04-06T09:59:35.01Z</time></trkpt><trkpt lat="44.1899667" lon="12.0331133"><ele>44.0</ele><time>2026-04-06T09:59:36.007Z</time></trkpt><trkpt lat="44.1898117" lon="12.0332617"><ele>44.0</ele><time>2026-04-06T09:59:37.01Z</time></trkpt><trkpt lat="44.1896583" lon="12.0334"><ele>44.0</ele><time>2026-04-06T09:59:38.007Z</time></trkpt><trkpt lat="44.1895083" lon="12.0335367"><ele>44.0</ele><time>2026-04-06T09:59:39.007Z</time></trkpt><trkpt lat="44.1893583" lon="12.03368"><ele>44.0</ele><time>2026-04-06T09:59:40.008Z</time></trkpt><trkpt lat="44.189205" lon="12.0338233"><ele>44.0</ele><time>2026-04-06T09:59:41.008Z</time></trkpt><trkpt lat="44.1890583" lon="12.03397"><ele>44.0</ele><time>2026-04-06T09:59:42.008Z</time></trkpt><trkpt lat="44.1889117" lon="12.0341117"><ele>44.0</ele><time>2026-04-06T09:59:43.008Z</time></trkpt><trkpt lat="44.188765" lon="12.0342533"><ele>44.0</ele><time>2026-04-06T09:59:44.009Z</time></trkpt><trkpt lat="44.1886233" lon="12.0343733"><ele>44.0</ele><time>2026-04-06T09:59:45.011Z</time></trkpt><trkpt lat="44.1884933" lon="12.0344733"><ele>44.0</ele><time>2026-04-06T09:59:46.007Z</time></trkpt><trkpt lat="44.1883767" lon="12.034565"><ele>44.0</ele><time>2026-04-06T09:59:47.007Z</time></trkpt><trkpt lat="44.188275" lon="12.03465"><ele>44.0</ele><time>2026-04-06T09:59:48.008Z</time></trkpt><trkpt lat="44.1881883" lon="12.0347233"><ele>44.0</ele><time>2026-04-06T09:59:49.007Z</time></trkpt><trkpt lat="44.1881033" lon="12.0348"><ele>44.0</ele><time>2026-04-06T09:59:50.006Z</time></trkpt><trkpt lat="44.1880067" lon="12.0348867"><ele>44.0</ele><time>2026-04-06T09:59:51.008Z</time></trkpt><trkpt lat="44.18788" lon="12.0349833"><ele>44.0</ele><time>2026-04-06T09:59:52.007Z</time></trkpt><trkpt lat="44.1877333" lon="12.0350517"><ele>44.666666666666664</ele><time>2026-04-06T09:59:53.006Z</time></trkpt><trkpt lat="44.18759" lon="12.0351017"><ele>45.333333333333336</ele><time>2026-04-06T09:59:54.009Z</time></trkpt><trkpt lat="44.1874367" lon="12.0351483"><ele>46.0</ele><time>2026-04-06T09:59:55.008Z</time></trkpt><trkpt lat="44.187285" lon="12.0352183"><ele>46.0</ele><time>2026-04-06T09:59:56.009Z</time></trkpt><trkpt lat="44.1871317" lon="12.03528"><ele>46.0</ele><time>2026-04-06T09:59:57.008Z</time></trkpt><trkpt lat="44.1869817" lon="12.0353367"><ele>46.0</ele><time>2026-04-06T09:59:58.006Z</time></trkpt><trkpt lat="44.1868267" lon="12.035395"><ele>46.0</ele><time>2026-04-06T09:59:59.007Z</time></trkpt><trkpt lat="44.1866733" lon="12.0354467"><ele>46.0</ele><time>2026-04-06T10:00:00.008Z</time></trkpt><trkpt lat="44.1865233" lon="12.035475"><ele>46.0</ele><time>2026-04-06T10:00:01.008Z</time></trkpt><trkpt lat="44.18637" lon="12.0354867"><ele>45.333333333333336</ele><time>2026-04-06T10:00:02.011Z</time></trkpt><trkpt lat="44.1862167" lon="12.0354867"><ele>44.666666666666664</ele><time>2026-04-06T10:00:03.011Z</time></trkpt><trkpt lat="44.1860633" lon="12.03548"><ele>44.0</ele><time>2026-04-06T10:00:04.008Z</time></trkpt><trkpt lat="44.1859083" lon="12.03545"><ele>44.0</ele><time>2026-04-06T10:00:05.008Z</time></trkpt><trkpt lat="44.1857517" lon="12.0353933"><ele>44.0</ele><time>2026-04-06T10:00:06.007Z</time></trkpt><trkpt lat="44.18559" lon="12.0353183"><ele>44.0</ele><time>2026-04-06T10:00:07.01Z</time></trkpt><trkpt lat="44.185425" lon="12.0352267"><ele>44.666666666666664</ele><time>2026-04-06T10:00:08.006Z</time></trkpt><trkpt lat="44.1852617" lon="12.035125"><ele>45.333333333333336</ele><time>2026-04-06T10:00:09.009Z</time></trkpt><trkpt lat="44.1851033" lon="12.0350217"><ele>46.0</ele><time>2026-04-06T10:00:10.008Z</time></trkpt><trkpt lat="44.1849467" lon="12.0349367"><ele>46.333333333333336</ele><time>2026-04-06T10:00:11.006Z</time></trkpt><trkpt lat="44.1847983" lon="12.0348417"><ele>46.666666666666664</ele><time>2026-04-06T10:00:12.006Z</time></trkpt><trkpt lat="44.1846483" lon="12.0347533"><ele>47.0</ele><time>2026-04-06T10:00:13.007Z</time></trkpt><trkpt lat="44.1844983" lon="12.03466"><ele>47.0</ele><time>2026-04-06T10:00:14.006Z</time></trkpt><trkpt lat="44.1843483" lon="12.0345733"><ele>47.0</ele><time>2026-04-06T10:00:15.007Z</time></trkpt><trkpt lat="44.1842" lon="12.0344733"><ele>47.0</ele><time>2026-04-06T10:00:16.008Z</time></trkpt><trkpt lat="44.1840617" lon="12.0343783"><ele>47.25</ele><time>2026-04-06T10:00:17.007Z</time></trkpt><trkpt lat="44.1839317" lon="12.0343017"><ele>47.5</ele><time>2026-04-06T10:00:18.011Z</time></trkpt><trkpt lat="44.1838033" lon="12.0342383"><ele>47.75</ele><time>2026-04-06T10:00:19.007Z</time></trkpt><trkpt lat="44.1836917" lon="12.03418"><ele>48.0</ele><time>2026-04-06T10:00:20.008Z</time></trkpt><trkpt lat="44.1835967" lon="12.0341233"><ele>48.0</ele><time>2026-04-06T10:00:21.005Z</time></trkpt><trkpt lat="44.1835117" lon="12.0340733"><ele>48.0</ele><time>2026-04-06T10:00:22.007Z</time></trkpt><trkpt lat="44.1834317" lon="12.0340317"><ele>48.0</ele><time>2026-04-06T10:00:23.006Z</time></trkpt><trkpt lat="44.1833533" lon="12.03398"><ele>48.0</ele><time>2026-04-06T10:00:24.007Z</time></trkpt><trkpt lat="44.18327" lon="12.03391"><ele>48.0</ele><time>2026-04-06T10:00:25.008Z</time></trkpt><trkpt lat="44.1831683" lon="12.0338267"><ele>47.666666666666664</ele><time>2026-04-06T10:00:26.006Z</time></trkpt><trkpt lat="44.1830417" lon="12.0337483"><ele>47.33333333333333</ele><time>2026-04-06T10:00:27.007Z</time></trkpt><trkpt lat="44.1828817" lon="12.0336617"><ele>47.0</ele><time>2026-04-06T10:00:28.006Z</time></trkpt><trkpt lat="44.1827033" lon="12.03356"><ele>47.0</ele><time>2026-04-06T10:00:29.007Z</time></trkpt><trkpt lat="44.18251" lon="12.0334467"><ele>47.0</ele><time>2026-04-06T10:00:30.009Z</time></trkpt><trkpt lat="44.1823117" lon="12.0333133"><ele>47.0</ele><time>2026-04-06T10:00:31.007Z</time></trkpt><trkpt lat="44.1821" lon="12.033185"><ele>47.33333333333333</ele><time>2026-04-06T10:00:32.007Z</time></trkpt><trkpt lat="44.181895" lon="12.0330517"><ele>47.666666666666664</ele><time>2026-04-06T10:00:33.006Z</time></trkpt><trkpt lat="44.181695" lon="12.032925"><ele>48.0</ele><time>2026-04-06T10:00:34.006Z</time></trkpt><trkpt lat="44.1815033" lon="12.0327983"><ele>48.0</ele><time>2026-04-06T10:00:35.006Z</time></trkpt><trkpt lat="44.1813167" lon="12.03268"><ele>48.0</ele><time>2026-04-06T10:00:36.007Z</time></trkpt><trkpt lat="44.1811367" lon="12.0325617"><ele>48.0</ele><time>2026-04-06T10:00:37.011Z</time></trkpt><trkpt lat="44.1809583" lon="12.0324517"><ele>48.0</ele><time>2026-04-06T10:00:38.005Z</time></trkpt><trkpt lat="44.1807817" lon="12.0323433"><ele>48.0</ele><time>2026-04-06T10:00:39.007Z</time></trkpt><trkpt lat="44.18061" lon="12.0322383"><ele>48.0</ele><time>2026-04-06T10:00:40.008Z</time></trkpt><trkpt lat="44.1804383" lon="12.0321233"><ele>48.33333333333333</ele><time>2026-04-06T10:00:41.007Z</time></trkpt><trkpt lat="44.1802667" lon="12.0320117"><ele>48.666666666666664</ele><time>2026-04-06T10:00:42.008Z</time></trkpt><trkpt lat="44.1800883" lon="12.0318967"><ele>49.0</ele><time>2026-04-06T10:00:43.006Z</time></trkpt><trkpt lat="44.1799067" lon="12.0317683"><ele>48.666666666666664</ele><time>2026-04-06T10:00:44.006Z</time></trkpt><trkpt lat="44.17972" lon="12.0316517"><ele>48.33333333333333</ele><time>2026-04-06T10:00:45.007Z</time></trkpt><trkpt lat="44.1795367" lon="12.03153"><ele>48.0</ele><time>2026-04-06T10:00:46.008Z</time></trkpt><trkpt lat="44.1793567" lon="12.0314167"><ele>48.0</ele><time>2026-04-06T10:00:47.005Z</time></trkpt><trkpt lat="44.1791767" lon="12.0312983"><ele>48.0</ele><time>2026-04-06T10:00:48.009Z</time></trkpt><trkpt lat="44.1790033" lon="12.03117"><ele>48.0</ele><time>2026-04-06T10:00:49.006Z</time></trkpt><trkpt lat="44.1788333" lon="12.0310217"><ele>48.0</ele><time>2026-04-06T10:00:50.006Z</time></trkpt><trkpt lat="44.178665" lon="12.03087"><ele>48.0</ele><time>2026-04-06T10:00:51.007Z</time></trkpt><trkpt lat="44.1785067" lon="12.0307183"><ele>48.0</ele><time>2026-04-06T10:00:52.006Z</time></trkpt><trkpt lat="44.178355" lon="12.0305517"><ele>48.33333333333333</ele><time>2026-04-06T10:00:53.007Z</time></trkpt><trkpt lat="44.1782033" lon="12.03037"><ele>48.666666666666664</ele><time>2026-04-06T10:00:54.006Z</time></trkpt><trkpt lat="44.17805" lon="12.0301833"><ele>49.0</ele><time>2026-04-06T10:00:55.006Z</time></trkpt><trkpt lat="44.1778917" lon="12.02999"><ele>49.33333333333333</ele><time>2026-04-06T10:00:56.006Z</time></trkpt><trkpt lat="44.1777283" lon="12.029805"><ele>49.66666666666667</ele><time>2026-04-06T10:00:57.005Z</time></trkpt><trkpt lat="44.1775617" lon="12.029615"><ele>50.0</ele><time>2026-04-06T10:00:58.006Z</time></trkpt><trkpt lat="44.1773983" lon="12.0294233"><ele>49.333333333333336</ele><time>2026-04-06T10:00:59.005Z</time></trkpt><trkpt lat="44.1772283" lon="12.0292267"><ele>48.66666666666667</ele><time>2026-04-06T10:01:00.007Z</time></trkpt><trkpt lat="44.177065" lon="12.0290267"><ele>48.0</ele><time>2026-04-06T10:01:01.007Z</time></trkpt><trkpt lat="44.1769" lon="12.0288167"><ele>48.0</ele><time>2026-04-06T10:01:02.007Z</time></trkpt><trkpt lat="44.1767333" lon="12.0286017"><ele>48.0</ele><time>2026-04-06T10:01:03.006Z</time></trkpt><trkpt lat="44.1765633" lon="12.0283917"><ele>49.5</ele><time>2026-04-06T10:01:04.006Z</time></trkpt><trkpt lat="44.1763917" lon="12.0281833"><ele>51.0</ele><time>2026-04-06T10:01:05.009Z</time></trkpt><trkpt lat="44.1762267" lon="12.0279733"><ele>51.0</ele><time>2026-04-06T10:01:06.007Z</time></trkpt><trkpt lat="44.1760583" lon="12.0277667"><ele>51.0</ele><time>2026-04-06T10:01:07.007Z</time></trkpt><trkpt lat="44.17589" lon="12.0275567"><ele>51.0</ele><time>2026-04-06T10:01:08.007Z</time></trkpt><trkpt lat="44.1757233" lon="12.0273383"><ele>51.0</ele><time>2026-04-06T10:01:09.009Z</time></trkpt><trkpt lat="44.1755533" lon="12.0271183"><ele>51.0</ele><time>2026-04-06T10:01:10.008Z</time></trkpt><trkpt lat="44.1753817" lon="12.0269"><ele>51.0</ele><time>2026-04-06T10:01:11.006Z</time></trkpt><trkpt lat="44.1752067" lon="12.0266833"><ele>51.0</ele><time>2026-04-06T10:01:12.012Z</time></trkpt><trkpt lat="44.1750283" lon="12.026465"><ele>51.0</ele><time>2026-04-06T10:01:13.006Z</time></trkpt><trkpt lat="44.1748517" lon="12.0262417"><ele>51.0</ele><time>2026-04-06T10:01:14.007Z</time></trkpt><trkpt lat="44.174675" lon="12.026015"><ele>51.0</ele><time>2026-04-06T10:01:15.007Z</time></trkpt><trkpt lat="44.1745" lon="12.0257967"><ele>51.0</ele><time>2026-04-06T10:01:16.007Z</time></trkpt><trkpt lat="44.1743283" lon="12.02558"><ele>51.0</ele><time>2026-04-06T10:01:17.007Z</time></trkpt><trkpt lat="44.1741717" lon="12.025365"><ele>51.33333333333333</ele><time>2026-04-06T10:01:18.006Z</time></trkpt><trkpt lat="44.174015" lon="12.0251683"><ele>51.666666666666664</ele><time>2026-04-06T10:01:19.008Z</time></trkpt><trkpt lat="44.1738783" lon="12.024965"><ele>52.0</ele><time>2026-04-06T10:01:20.005Z</time></trkpt><trkpt lat="44.17376" lon="12.0247433"><ele>52.33333333333333</ele><time>2026-04-06T10:01:21.006Z</time></trkpt><trkpt lat="44.1736633" lon="12.0244883"><ele>52.66666666666667</ele><time>2026-04-06T10:01:22.006Z</time></trkpt><trkpt lat="44.1735833" lon="12.0242067"><ele>53.0</ele><time>2026-04-06T10:01:23.008Z</time></trkpt><trkpt lat="44.1735183" lon="12.02391"><ele>53.0</ele><time>2026-04-06T10:01:24.006Z</time></trkpt><trkpt lat="44.1734567" lon="12.0235983"><ele>53.0</ele><time>2026-04-06T10:01:25.007Z</time></trkpt><trkpt lat="44.1733933" lon="12.0232833"><ele>52.5</ele><time>2026-04-06T10:01:26.007Z</time></trkpt><trkpt lat="44.1733217" lon="12.02297"><ele>52.0</ele><time>2026-04-06T10:01:27.012Z</time></trkpt><trkpt lat="44.1732567" lon="12.0226567"><ele>52.0</ele><time>2026-04-06T10:01:28.007Z</time></trkpt><trkpt lat="44.173195" lon="12.02235"><ele>52.0</ele><time>2026-04-06T10:01:29.011Z</time></trkpt><trkpt lat="44.1731467" lon="12.0220583"><ele>52.0</ele><time>2026-04-06T10:01:30.006Z</time></trkpt><trkpt lat="44.173105" lon="12.0217883"><ele>52.0</ele><time>2026-04-06T10:01:31.008Z</time></trkpt><trkpt lat="44.1730667" lon="12.0215417"><ele>52.0</ele><time>2026-04-06T10:01:32.007Z</time></trkpt><trkpt lat="44.1730317" lon="12.021315"><ele>52.0</ele><time>2026-04-06T10:01:33.006Z</time></trkpt><trkpt lat="44.1729867" lon="12.02111"><ele>52.0</ele><time>2026-04-06T10:01:34.006Z</time></trkpt><trkpt lat="44.1729283" lon="12.020915"><ele>52.0</ele><time>2026-04-06T10:01:35.008Z</time></trkpt><trkpt lat="44.1728833" lon="12.02071"><ele>52.0</ele><time>2026-04-06T10:01:36.006Z</time></trkpt><trkpt lat="44.17284" lon="12.0205017"><ele>52.0</ele><time>2026-04-06T10:01:37.007Z</time></trkpt><trkpt lat="44.17275" lon="12.0203217"><ele>52.0</ele><time>2026-04-06T10:01:38.008Z</time></trkpt><trkpt lat="44.172685" lon="12.0201183"><ele>52.0</ele><time>2026-04-06T10:01:39.007Z</time></trkpt><trkpt lat="44.172645" lon="12.019895"><ele>52.0</ele><time>2026-04-06T10:01:40.007Z</time></trkpt><trkpt lat="44.1725733" lon="12.01968"><ele>52.0</ele><time>2026-04-06T10:01:41.007Z</time></trkpt><trkpt lat="44.1724709" lon="12.0194806"><ele>52.0</ele><time>2026-04-06T10:01:42.007Z</time></trkpt><trkpt lat="44.1723442" lon="12.0192915"><ele>52.0</ele><time>2026-04-06T10:01:43.007Z</time></trkpt><trkpt lat="44.1722023" lon="12.0190969"><ele>52.0</ele><time>2026-04-06T10:01:44.006Z</time></trkpt><trkpt lat="44.1720497" lon="12.0189018"><ele>52.0</ele><time>2026-04-06T10:01:45.008Z</time></trkpt><trkpt lat="44.1718921" lon="12.0187026"><ele>52.0</ele><time>2026-04-06T10:01:46.007Z</time></trkpt><trkpt lat="44.1717354" lon="12.0184972"><ele>52.0</ele><time>2026-04-06T10:01:47.007Z</time></trkpt><trkpt lat="44.1715855" lon="12.0182839"><ele>52.0</ele><time>2026-04-06T10:01:48.009Z</time></trkpt><trkpt lat="44.1714415" lon="12.0180749"><ele>52.33333333333333</ele><time>2026-04-06T10:01:49.008Z</time></trkpt><trkpt lat="44.1713058" lon="12.0178829"><ele>52.66666666666667</ele><time>2026-04-06T10:01:50.007Z</time></trkpt><trkpt lat="44.1711781" lon="12.0177108"><ele>53.0</ele><time>2026-04-06T10:01:51.007Z</time></trkpt><trkpt lat="44.1710574" lon="12.0175534"><ele>52.333333333333336</ele><time>2026-04-06T10:01:52.008Z</time></trkpt><trkpt lat="44.1709437" lon="12.0173967"><ele>51.66666666666667</ele><time>2026-04-06T10:01:53.01Z</time></trkpt><trkpt lat="44.1708289" lon="12.0172436"><ele>51.0</ele><time>2026-04-06T10:01:54.008Z</time></trkpt><trkpt lat="44.1707052" lon="12.0170833"><ele>51.33333333333333</ele><time>2026-04-06T10:01:55.009Z</time></trkpt><trkpt lat="44.1705708" lon="12.0169212"><ele>51.666666666666664</ele><time>2026-04-06T10:01:56.007Z</time></trkpt><trkpt lat="44.1704244" lon="12.0167469"><ele>52.0</ele><time>2026-04-06T10:01:57.008Z</time></trkpt><trkpt lat="44.1702756" lon="12.0165637"><ele>52.0</ele><time>2026-04-06T10:01:58.011Z</time></trkpt><trkpt lat="44.1701256" lon="12.0163793"><ele>52.0</ele><time>2026-04-06T10:01:59.006Z</time></trkpt><trkpt lat="44.1699798" lon="12.0161818"><ele>52.0</ele><time>2026-04-06T10:02:00.007Z</time></trkpt><trkpt lat="44.1698362" lon="12.0159821"><ele>52.33333333333333</ele><time>2026-04-06T10:02:01.01Z</time></trkpt><trkpt lat="44.1696956" lon="12.0157819"><ele>52.66666666666667</ele><time>2026-04-06T10:02:02.007Z</time></trkpt><trkpt lat="44.1695521" lon="12.0155847"><ele>53.0</ele><time>2026-04-06T10:02:03.012Z</time></trkpt><trkpt lat="44.1694111" lon="12.0153895"><ele>53.0</ele><time>2026-04-06T10:02:04.007Z</time></trkpt><trkpt lat="44.1692739" lon="12.015193"><ele>53.0</ele><time>2026-04-06T10:02:05.007Z</time></trkpt><trkpt lat="44.1691297" lon="12.0149916"><ele>53.0</ele><time>2026-04-06T10:02:06.007Z</time></trkpt><trkpt lat="44.1689812" lon="12.0147804"><ele>53.333333333333336</ele><time>2026-04-06T10:02:07.008Z</time></trkpt><trkpt lat="44.1688374" lon="12.0145589"><ele>53.66666666666667</ele><time>2026-04-06T10:02:08.01Z</time></trkpt><trkpt lat="44.1686928" lon="12.0143389"><ele>54.0</ele><time>2026-04-06T10:02:09.008Z</time></trkpt><trkpt lat="44.1685497" lon="12.0141161"><ele>54.0</ele><time>2026-04-06T10:02:10.008Z</time></trkpt><trkpt lat="44.1684097" lon="12.0138839"><ele>54.0</ele><time>2026-04-06T10:02:11.007Z</time></trkpt><trkpt lat="44.1682663" lon="12.013651"><ele>54.0</ele><time>2026-04-06T10:02:12.008Z</time></trkpt><trkpt lat="44.168127" lon="12.0134162"><ele>54.33333333333333</ele><time>2026-04-06T10:02:13.007Z</time></trkpt><trkpt lat="44.1679846" lon="12.0131921"><ele>54.666666666666664</ele><time>2026-04-06T10:02:14.008Z</time></trkpt><trkpt lat="44.1678442" lon="12.0129778"><ele>55.0</ele><time>2026-04-06T10:02:15.008Z</time></trkpt><trkpt lat="44.1677042" lon="12.0127829"><ele>55.0</ele><time>2026-04-06T10:02:16.006Z</time></trkpt><trkpt lat="44.1675649" lon="12.012605"><ele>55.0</ele><time>2026-04-06T10:02:17.006Z</time></trkpt><trkpt lat="44.1674294" lon="12.0124393"><ele>55.0</ele><time>2026-04-06T10:02:18.006Z</time></trkpt><trkpt lat="44.1672932" lon="12.0122803"><ele>55.0</ele><time>2026-04-06T10:02:19.008Z</time></trkpt><trkpt lat="44.1671583" lon="12.0121296"><ele>55.0</ele><time>2026-04-06T10:02:20.006Z</time></trkpt><trkpt lat="44.1670232" lon="12.0119882"><ele>55.0</ele><time>2026-04-06T10:02:21.008Z</time></trkpt><trkpt lat="44.1668853" lon="12.0118542"><ele>55.0</ele><time>2026-04-06T10:02:22.006Z</time></trkpt><trkpt lat="44.1667429" lon="12.0117275"><ele>55.0</ele><time>2026-04-06T10:02:23.007Z</time></trkpt><trkpt lat="44.1666005" lon="12.0116092"><ele>55.0</ele><time>2026-04-06T10:02:24.006Z</time></trkpt><trkpt lat="44.1664586" lon="12.0114973"><ele>54.666666666666664</ele><time>2026-04-06T10:02:25.008Z</time></trkpt><trkpt lat="44.1663244" lon="12.0113857"><ele>54.33333333333333</ele><time>2026-04-06T10:02:26.008Z</time></trkpt><trkpt lat="44.166187" lon="12.0112763"><ele>54.0</ele><time>2026-04-06T10:02:27.011Z</time></trkpt><trkpt lat="44.1660451" lon="12.0111719"><ele>54.0</ele><time>2026-04-06T10:02:28.007Z</time></trkpt><trkpt lat="44.1659015" lon="12.0110637"><ele>54.0</ele><time>2026-04-06T10:02:29.008Z</time></trkpt><trkpt lat="44.1657605" lon="12.0109576"><ele>54.0</ele><time>2026-04-06T10:02:30.006Z</time></trkpt><trkpt lat="44.1656174" lon="12.0108577"><ele>55.0</ele><time>2026-04-06T10:02:31.009Z</time></trkpt><trkpt lat="44.1654689" lon="12.0107538"><ele>56.0</ele><time>2026-04-06T10:02:32.007Z</time></trkpt><trkpt lat="44.1653087" lon="12.0106392"><ele>57.0</ele><time>2026-04-06T10:02:33.01Z</time></trkpt><trkpt lat="44.1651344" lon="12.0105149"><ele>57.0</ele><time>2026-04-06T10:02:34.007Z</time></trkpt><trkpt lat="44.1649514" lon="12.0103792"><ele>57.0</ele><time>2026-04-06T10:02:35.007Z</time></trkpt><trkpt lat="44.1647638" lon="12.0102386"><ele>57.0</ele><time>2026-04-06T10:02:36.008Z</time></trkpt><trkpt lat="44.1645756" lon="12.0100936"><ele>55.33333333333333</ele><time>2026-04-06T10:02:37.008Z</time></trkpt><trkpt lat="44.1643828" lon="12.0099516"><ele>53.666666666666664</ele><time>2026-04-06T10:02:38.007Z</time></trkpt><trkpt lat="44.1641885" lon="12.009807"><ele>52.0</ele><time>2026-04-06T10:02:39.011Z</time></trkpt><trkpt lat="44.1639943" lon="12.009664"><ele>52.0</ele><time>2026-04-06T10:02:40.008Z</time></trkpt><trkpt lat="44.1637977" lon="12.0095177"><ele>52.0</ele><time>2026-04-06T10:02:41.007Z</time></trkpt><trkpt lat="44.1636041" lon="12.0093628"><ele>52.0</ele><time>2026-04-06T10:02:42.007Z</time></trkpt><trkpt lat="44.1634095" lon="12.009215"><ele>53.0</ele><time>2026-04-06T10:02:43.007Z</time></trkpt><trkpt lat="44.1632171" lon="12.0090721"><ele>54.0</ele><time>2026-04-06T10:02:44.007Z</time></trkpt><trkpt lat="44.1630255" lon="12.0089302"><ele>55.0</ele><time>2026-04-06T10:02:45.008Z</time></trkpt><trkpt lat="44.1628367" lon="12.0087835"><ele>55.0</ele><time>2026-04-06T10:02:46.007Z</time></trkpt><trkpt lat="44.1626485" lon="12.0086341"><ele>55.0</ele><time>2026-04-06T10:02:47.008Z</time></trkpt><trkpt lat="44.1624607" lon="12.0084928"><ele>55.0</ele><time>2026-04-06T10:02:48.01Z</time></trkpt><trkpt lat="44.1622754" lon="12.0083488"><ele>55.666666666666664</ele><time>2026-04-06T10:02:49.007Z</time></trkpt><trkpt lat="44.1620851" lon="12.0082113"><ele>56.33333333333333</ele><time>2026-04-06T10:02:50.008Z</time></trkpt><trkpt lat="44.1618964" lon="12.0080697"><ele>57.0</ele><time>2026-04-06T10:02:51.008Z</time></trkpt><trkpt lat="44.161712" lon="12.0079276"><ele>58.66666666666667</ele><time>2026-04-06T10:02:52.006Z</time></trkpt><trkpt lat="44.16153" lon="12.0077853"><ele>60.333333333333336</ele><time>2026-04-06T10:02:53.006Z</time></trkpt><trkpt lat="44.1613444" lon="12.0076483"><ele>62.0</ele><time>2026-04-06T10:02:54.007Z</time></trkpt><trkpt lat="44.1611592" lon="12.0075042"><ele>62.333333333333336</ele><time>2026-04-06T10:02:55.006Z</time></trkpt><trkpt lat="44.1609813" lon="12.007372"><ele>62.66666666666667</ele><time>2026-04-06T10:02:56.007Z</time></trkpt><trkpt lat="44.1608201" lon="12.0072486"><ele>63.0</ele><time>2026-04-06T10:02:57.008Z</time></trkpt><trkpt lat="44.1606729" lon="12.0071247"><ele>63.33333333333333</ele><time>2026-04-06T10:02:58.006Z</time></trkpt><trkpt lat="44.1605373" lon="12.0069825"><ele>63.666666666666664</ele><time>2026-04-06T10:02:59.007Z</time></trkpt><trkpt lat="44.1604137" lon="12.0068299"><ele>64.0</ele><time>2026-04-06T10:03:00.007Z</time></trkpt><trkpt lat="44.1603028" lon="12.0066652"><ele>65.0</ele><time>2026-04-06T10:03:01.007Z</time></trkpt><trkpt lat="44.1602034" lon="12.0065017"><ele>66.0</ele><time>2026-04-06T10:03:02.008Z</time></trkpt><trkpt lat="44.1601097" lon="12.0063359"><ele>67.0</ele><time>2026-04-06T10:03:03.008Z</time></trkpt><trkpt lat="44.1600143" lon="12.00617"><ele>67.0</ele><time>2026-04-06T10:03:04.009Z</time></trkpt><trkpt lat="44.1599177" lon="12.0060044"><ele>67.0</ele><time>2026-04-06T10:03:05.006Z</time></trkpt><trkpt lat="44.1598222" lon="12.005845"><ele>67.0</ele><time>2026-04-06T10:03:06.011Z</time></trkpt><trkpt lat="44.1597394" lon="12.005685"><ele>67.0</ele><time>2026-04-06T10:03:07.006Z</time></trkpt><trkpt lat="44.1596569" lon="12.005532"><ele>67.25</ele><time>2026-04-06T10:03:08.007Z</time></trkpt><trkpt lat="44.1595768" lon="12.0053884"><ele>67.5</ele><time>2026-04-06T10:03:09.006Z</time></trkpt><trkpt lat="44.1594961" lon="12.0052496"><ele>67.75</ele><time>2026-04-06T10:03:10.007Z</time></trkpt><trkpt lat="44.1594173" lon="12.0051092"><ele>68.0</ele><time>2026-04-06T10:03:11.008Z</time></trkpt><trkpt lat="44.1593352" lon="12.0049687"><ele>68.25</ele><time>2026-04-06T10:03:12.007Z</time></trkpt><trkpt lat="44.159252" lon="12.0048266"><ele>68.5</ele><time>2026-04-06T10:03:13.007Z</time></trkpt><trkpt lat="44.1591685" lon="12.0046768"><ele>68.75</ele><time>2026-04-06T10:03:14.006Z</time></trkpt><trkpt lat="44.1590808" lon="12.0045207"><ele>69.0</ele><time>2026-04-06T10:03:15.008Z</time></trkpt><trkpt lat="44.1589908" lon="12.0043587"><ele>68.0</ele><time>2026-04-06T10:03:16.006Z</time></trkpt><trkpt lat="44.1589053" lon="12.0041894"><ele>67.0</ele><time>2026-04-06T10:03:17.006Z</time></trkpt><trkpt lat="44.1588188" lon="12.0040138"><ele>66.0</ele><time>2026-04-06T10:03:18.007Z</time></trkpt><trkpt lat="44.1587332" lon="12.0038439"><ele>66.0</ele><time>2026-04-06T10:03:19.008Z</time></trkpt><trkpt lat="44.1586478" lon="12.0036767"><ele>66.0</ele><time>2026-04-06T10:03:20.006Z</time></trkpt><trkpt lat="44.1585613" lon="12.003508"><ele>66.0</ele><time>2026-04-06T10:03:21.007Z</time></trkpt><trkpt lat="44.1584759" lon="12.0033409"><ele>66.0</ele><time>2026-04-06T10:03:22.007Z</time></trkpt><trkpt lat="44.1583921" lon="12.0031857"><ele>66.0</ele><time>2026-04-06T10:03:23.007Z</time></trkpt><trkpt lat="44.1583117" lon="12.0030469"><ele>66.0</ele><time>2026-04-06T10:03:24.008Z</time></trkpt><trkpt lat="44.1582365" lon="12.0029134"><ele>66.0</ele><time>2026-04-06T10:03:25.008Z</time></trkpt><trkpt lat="44.1581607" lon="12.0027773"><ele>66.0</ele><time>2026-04-06T10:03:26.01Z</time></trkpt><trkpt lat="44.1580834" lon="12.0026413"><ele>66.0</ele><time>2026-04-06T10:03:27.008Z</time></trkpt><trkpt lat="44.1580065" lon="12.0024996"><ele>66.0</ele><time>2026-04-06T10:03:28.008Z</time></trkpt><trkpt lat="44.1579373" lon="12.0023569"><ele>66.0</ele><time>2026-04-06T10:03:29.007Z</time></trkpt><trkpt lat="44.1578675" lon="12.0022229"><ele>66.0</ele><time>2026-04-06T10:03:30.006Z</time></trkpt><trkpt lat="44.1578048" lon="12.0021016"><ele>66.39999999999999</ele><time>2026-04-06T10:03:31.006Z</time></trkpt><trkpt lat="44.1577501" lon="12.0019803"><ele>66.8</ele><time>2026-04-06T10:03:32.009Z</time></trkpt><trkpt lat="44.1576888" lon="12.0018596"><ele>67.19999999999999</ele><time>2026-04-06T10:03:33.008Z</time></trkpt><trkpt lat="44.1576141" lon="12.0017391"><ele>67.6</ele><time>2026-04-06T10:03:34.007Z</time></trkpt><trkpt lat="44.1575366" lon="12.001606"><ele>68.0</ele><time>2026-04-06T10:03:35.007Z</time></trkpt><trkpt lat="44.1574535" lon="12.0014607"><ele>68.25</ele><time>2026-04-06T10:03:36.008Z</time></trkpt><trkpt lat="44.1573652" lon="12.0013096"><ele>68.5</ele><time>2026-04-06T10:03:37.009Z</time></trkpt><trkpt lat="44.1572731" lon="12.0011517"><ele>68.75</ele><time>2026-04-06T10:03:38.007Z</time></trkpt><trkpt lat="44.1571735" lon="12.0009893"><ele>69.0</ele><time>2026-04-06T10:03:39.006Z</time></trkpt><trkpt lat="44.157051" lon="12.0008285"><ele>69.0</ele><time>2026-04-06T10:03:40.007Z</time></trkpt><trkpt lat="44.15691" lon="12.0006648"><ele>69.0</ele><time>2026-04-06T10:03:41.007Z</time></trkpt><trkpt lat="44.1567611" lon="12.0004978"><ele>69.0</ele><time>2026-04-06T10:03:42.009Z</time></trkpt><trkpt lat="44.1566191" lon="12.0003299"><ele>69.66666666666667</ele><time>2026-04-06T10:03:43.008Z</time></trkpt><trkpt lat="44.1564865" lon="12.0001707"><ele>70.33333333333334</ele><time>2026-04-06T10:03:44.007Z</time></trkpt><trkpt lat="44.156357" lon="12.0000099"><ele>71.0</ele><time>2026-04-06T10:03:45.008Z</time></trkpt><trkpt lat="44.1562264" lon="11.9998498"><ele>71.0</ele><time>2026-04-06T10:03:46.007Z</time></trkpt><trkpt lat="44.1560961" lon="11.9996879"><ele>71.0</ele><time>2026-04-06T10:03:47.007Z</time></trkpt><trkpt lat="44.1559701" lon="11.9995317"><ele>71.0</ele><time>2026-04-06T10:03:48.007Z</time></trkpt><trkpt lat="44.1558509" lon="11.9993867"><ele>71.0</ele><time>2026-04-06T10:03:49.009Z</time></trkpt><trkpt lat="44.1557439" lon="11.9992412"><ele>71.0</ele><time>2026-04-06T10:03:50.006Z</time></trkpt><trkpt lat="44.1556428" lon="11.9991076"><ele>71.0</ele><time>2026-04-06T10:03:51.006Z</time></trkpt><trkpt lat="44.1555497" lon="11.9989861"><ele>71.0</ele><time>2026-04-06T10:03:52.007Z</time></trkpt><trkpt lat="44.1554608" lon="11.9988792"><ele>71.0</ele><time>2026-04-06T10:03:53.007Z</time></trkpt><trkpt lat="44.1553734" lon="11.9987733"><ele>71.0</ele><time>2026-04-06T10:03:54.006Z</time></trkpt><trkpt lat="44.1552828" lon="11.9986608"><ele>71.0</ele><time>2026-04-06T10:03:55.007Z</time></trkpt><trkpt lat="44.1551907" lon="11.9985501"><ele>71.0</ele><time>2026-04-06T10:03:56.006Z</time></trkpt><trkpt lat="44.1550922" lon="11.9984355"><ele>71.75</ele><time>2026-04-06T10:03:57.008Z</time></trkpt><trkpt lat="44.1549893" lon="11.9983147"><ele>72.5</ele><time>2026-04-06T10:03:58.008Z</time></trkpt><trkpt lat="44.1548828" lon="11.9981898"><ele>73.25</ele><time>2026-04-06T10:03:59.007Z</time></trkpt><trkpt lat="44.1547755" lon="11.9980603"><ele>74.0</ele><time>2026-04-06T10:04:00.008Z</time></trkpt><trkpt lat="44.1546656" lon="11.9979297"><ele>74.66666666666667</ele><time>2026-04-06T10:04:01.007Z</time></trkpt><trkpt lat="44.1545521" lon="11.9977877"><ele>75.33333333333333</ele><time>2026-04-06T10:04:02.006Z</time></trkpt><trkpt lat="44.1544307" lon="11.9976485"><ele>76.0</ele><time>2026-04-06T10:04:03.008Z</time></trkpt><trkpt lat="44.1543108" lon="11.9975019"><ele>76.0</ele><time>2026-04-06T10:04:04.007Z</time></trkpt><trkpt lat="44.1541927" lon="11.9973523"><ele>76.0</ele><time>2026-04-06T10:04:05.008Z</time></trkpt><trkpt lat="44.1540743" lon="11.9972087"><ele>76.0</ele><time>2026-04-06T10:04:06.01Z</time></trkpt><trkpt lat="44.153951" lon="11.9970637"><ele>76.0</ele><time>2026-04-06T10:04:07.006Z</time></trkpt><trkpt lat="44.1538272" lon="11.9969146"><ele>76.0</ele><time>2026-04-06T10:04:08.007Z</time></trkpt><trkpt lat="44.1536992" lon="11.9967629"><ele>76.0</ele><time>2026-04-06T10:04:09.009Z</time></trkpt><trkpt lat="44.1535675" lon="11.9966094"><ele>76.0</ele><time>2026-04-06T10:04:10.007Z</time></trkpt><trkpt lat="44.1534314" lon="11.9964572"><ele>76.0</ele><time>2026-04-06T10:04:11.009Z</time></trkpt><trkpt lat="44.1533012" lon="11.996316"><ele>76.0</ele><time>2026-04-06T10:04:12.008Z</time></trkpt><trkpt lat="44.1531727" lon="11.9961867"><ele>76.66666666666666</ele><time>2026-04-06T10:04:13.009Z</time></trkpt><trkpt lat="44.1530419" lon="11.996055"><ele>77.33333333333333</ele><time>2026-04-06T10:04:14.008Z</time></trkpt><trkpt lat="44.1529068" lon="11.9959139"><ele>78.0</ele><time>2026-04-06T10:04:15.009Z</time></trkpt><trkpt lat="44.1527642" lon="11.9957768"><ele>78.0</ele><time>2026-04-06T10:04:16.008Z</time></trkpt><trkpt lat="44.1526137" lon="11.9956491"><ele>78.0</ele><time>2026-04-06T10:04:17.008Z</time></trkpt><trkpt lat="44.1524585" lon="11.9955229"><ele>78.0</ele><time>2026-04-06T10:04:18.008Z</time></trkpt><trkpt lat="44.1522938" lon="11.9953939"><ele>78.0</ele><time>2026-04-06T10:04:19.007Z</time></trkpt><trkpt lat="44.1521146" lon="11.995258"><ele>78.0</ele><time>2026-04-06T10:04:20.008Z</time></trkpt><trkpt lat="44.1519246" lon="11.9951235"><ele>78.0</ele><time>2026-04-06T10:04:21.011Z</time></trkpt><trkpt lat="44.151727" lon="11.9949932"><ele>78.0</ele><time>2026-04-06T10:04:22.007Z</time></trkpt><trkpt lat="44.1515289" lon="11.9948602"><ele>78.0</ele><time>2026-04-06T10:04:23.006Z</time></trkpt><trkpt lat="44.1513308" lon="11.9947241"><ele>78.0</ele><time>2026-04-06T10:04:24.007Z</time></trkpt><trkpt lat="44.151132" lon="11.994586"><ele>78.0</ele><time>2026-04-06T10:04:25.008Z</time></trkpt><trkpt lat="44.1509309" lon="11.9944466"><ele>78.0</ele><time>2026-04-06T10:04:26.008Z</time></trkpt><trkpt lat="44.1507239" lon="11.9943029"><ele>77.0</ele><time>2026-04-06T10:04:27.008Z</time></trkpt><trkpt lat="44.1505067" lon="11.9941765"><ele>76.0</ele><time>2026-04-06T10:04:28.008Z</time></trkpt><trkpt lat="44.1502915" lon="11.9940474"><ele>76.0</ele><time>2026-04-06T10:04:29.009Z</time></trkpt><trkpt lat="44.1500883" lon="11.9938917"><ele>76.0</ele><time>2026-04-06T10:04:30.007Z</time></trkpt><trkpt lat="44.1499017" lon="11.9937283"><ele>74.0</ele><time>2026-04-06T10:04:31.007Z</time></trkpt><trkpt lat="44.1497483" lon="11.9935833"><ele>72.0</ele><time>2026-04-06T10:04:32.007Z</time></trkpt><trkpt lat="44.149625" lon="11.9934567"><ele>70.0</ele><time>2026-04-06T10:04:33.008Z</time></trkpt><trkpt lat="44.1495183" lon="11.9933417"><ele>71.5</ele><time>2026-04-06T10:04:34.013Z</time></trkpt><trkpt lat="44.149415" lon="11.99325"><ele>73.0</ele><time>2026-04-06T10:04:35.009Z</time></trkpt><trkpt lat="44.1493067" lon="11.9931667"><ele>74.5</ele><time>2026-04-06T10:04:36.006Z</time></trkpt><trkpt lat="44.14919" lon="11.9930733"><ele>76.0</ele><time>2026-04-06T10:04:37.008Z</time></trkpt><trkpt lat="44.1490633" lon="11.99297"><ele>74.66666666666666</ele><time>2026-04-06T10:04:38.006Z</time></trkpt><trkpt lat="44.148925" lon="11.9928567"><ele>73.33333333333333</ele><time>2026-04-06T10:04:39.007Z</time></trkpt><trkpt lat="44.14877" lon="11.99273"><ele>72.0</ele><time>2026-04-06T10:04:40.009Z</time></trkpt><trkpt lat="44.1486033" lon="11.9926"><ele>73.66666666666667</ele><time>2026-04-06T10:04:41.007Z</time></trkpt><trkpt lat="44.1484267" lon="11.9924633"><ele>75.33333333333334</ele><time>2026-04-06T10:04:42.007Z</time></trkpt><trkpt lat="44.1482483" lon="11.99232"><ele>77.0</ele><time>2026-04-06T10:04:43.009Z</time></trkpt><trkpt lat="44.14807" lon="11.9921717"><ele>77.0</ele><time>2026-04-06T10:04:44.008Z</time></trkpt><trkpt lat="44.147895" lon="11.9920233"><ele>77.0</ele><time>2026-04-06T10:04:45.008Z</time></trkpt><trkpt lat="44.147725" lon="11.991875"><ele>77.0</ele><time>2026-04-06T10:04:46.007Z</time></trkpt><trkpt lat="44.1475683" lon="11.9917283"><ele>77.66666666666667</ele><time>2026-04-06T10:04:47.008Z</time></trkpt><trkpt lat="44.1474217" lon="11.991585"><ele>78.33333333333333</ele><time>2026-04-06T10:04:48.008Z</time></trkpt><trkpt lat="44.14728" lon="11.991445"><ele>79.0</ele><time>2026-04-06T10:04:49.009Z</time></trkpt><trkpt lat="44.14715" lon="11.9913"><ele>79.0</ele><time>2026-04-06T10:04:50.008Z</time></trkpt><trkpt lat="44.14702" lon="11.9911633"><ele>79.0</ele><time>2026-04-06T10:04:51.008Z</time></trkpt><trkpt lat="44.1468917" lon="11.9910383"><ele>79.0</ele><time>2026-04-06T10:04:52.012Z</time></trkpt><trkpt lat="44.146775" lon="11.9909217"><ele>79.5</ele><time>2026-04-06T10:04:53.007Z</time></trkpt><trkpt lat="44.1466683" lon="11.9908033"><ele>80.0</ele><time>2026-04-06T10:04:54.008Z</time></trkpt><trkpt lat="44.1465667" lon="11.9906733"><ele>80.5</ele><time>2026-04-06T10:04:55.01Z</time></trkpt><trkpt lat="44.1464783" lon="11.9905267"><ele>81.0</ele><time>2026-04-06T10:04:56.006Z</time></trkpt><trkpt lat="44.1463933" lon="11.9903567"><ele>78.33333333333333</ele><time>2026-04-06T10:04:57.007Z</time></trkpt><trkpt lat="44.1463167" lon="11.9901583"><ele>75.66666666666666</ele><time>2026-04-06T10:04:58.008Z</time></trkpt><trkpt lat="44.14625" lon="11.9899283"><ele>73.0</ele><time>2026-04-06T10:04:59.008Z</time></trkpt><trkpt lat="44.1461917" lon="11.989675"><ele>73.0</ele><time>2026-04-06T10:05:00.011Z</time></trkpt><trkpt lat="44.1461367" lon="11.9894"><ele>73.0</ele><time>2026-04-06T10:05:01.009Z</time></trkpt><trkpt lat="44.1460867" lon="11.989125"><ele>73.0</ele><time>2026-04-06T10:05:02.008Z</time></trkpt><trkpt lat="44.1460383" lon="11.9888683"><ele>74.25</ele><time>2026-04-06T10:05:03.009Z</time></trkpt><trkpt lat="44.1459883" lon="11.988645"><ele>75.5</ele><time>2026-04-06T10:05:04.006Z</time></trkpt><trkpt lat="44.1459417" lon="11.98845"><ele>76.75</ele><time>2026-04-06T10:05:05.007Z</time></trkpt><trkpt lat="44.1458883" lon="11.98828"><ele>78.0</ele><time>2026-04-06T10:05:06.008Z</time></trkpt><trkpt lat="44.14583" lon="11.9881233"><ele>78.75</ele><time>2026-04-06T10:05:07.008Z</time></trkpt><trkpt lat="44.1457517" lon="11.987995"><ele>79.5</ele><time>2026-04-06T10:05:08.008Z</time></trkpt><trkpt lat="44.145675" lon="11.98788"><ele>80.25</ele><time>2026-04-06T10:05:09.009Z</time></trkpt><trkpt lat="44.14559" lon="11.987775"><ele>81.0</ele><time>2026-04-06T10:05:10.009Z</time></trkpt><trkpt lat="44.1454883" lon="11.9876833"><ele>80.5</ele><time>2026-04-06T10:05:11.007Z</time></trkpt><trkpt lat="44.1453833" lon="11.9875983"><ele>80.0</ele><time>2026-04-06T10:05:12.008Z</time></trkpt><trkpt lat="44.1452817" lon="11.9875233"><ele>79.5</ele><time>2026-04-06T10:05:13.009Z</time></trkpt><trkpt lat="44.145185" lon="11.9874433"><ele>79.0</ele><time>2026-04-06T10:05:14.007Z</time></trkpt><trkpt lat="44.1450833" lon="11.9873633"><ele>79.0</ele><time>2026-04-06T10:05:15.01Z</time></trkpt><trkpt lat="44.1449833" lon="11.9872767"><ele>79.0</ele><time>2026-04-06T10:05:16.008Z</time></trkpt><trkpt lat="44.14489" lon="11.9872017"><ele>79.0</ele><time>2026-04-06T10:05:17.007Z</time></trkpt><trkpt lat="44.1448017" lon="11.9871633"><ele>79.0</ele><time>2026-04-06T10:05:18.008Z</time></trkpt><trkpt lat="44.1447183" lon="11.9872083"><ele>79.0</ele><time>2026-04-06T10:05:19.009Z</time></trkpt><trkpt lat="44.14466" lon="11.9872967"><ele>77.5</ele><time>2026-04-06T10:05:20.008Z</time></trkpt><trkpt lat="44.1446017" lon="11.9873867"><ele>76.0</ele><time>2026-04-06T10:05:21.008Z</time></trkpt><trkpt lat="44.14453" lon="11.98749"><ele>74.5</ele><time>2026-04-06T10:05:22.006Z</time></trkpt><trkpt lat="44.14445" lon="11.9876467"><ele>73.0</ele><time>2026-04-06T10:05:23.009Z</time></trkpt><trkpt lat="44.14436" lon="11.987815"><ele>73.0</ele><time>2026-04-06T10:05:24.008Z</time></trkpt><trkpt lat="44.14427" lon="11.9879817"><ele>73.0</ele><time>2026-04-06T10:05:25.007Z</time></trkpt><trkpt lat="44.14418" lon="11.9881317"><ele>73.0</ele><time>2026-04-06T10:05:26.006Z</time></trkpt><trkpt lat="44.1440917" lon="11.988275"><ele>73.0</ele><time>2026-04-06T10:05:27.009Z</time></trkpt><trkpt lat="44.1440067" lon="11.9884217"><ele>73.0</ele><time>2026-04-06T10:05:28.008Z</time></trkpt><trkpt lat="44.1439167" lon="11.988575"><ele>73.0</ele><time>2026-04-06T10:05:29.008Z</time></trkpt><trkpt lat="44.143825" lon="11.9887283"><ele>73.0</ele><time>2026-04-06T10:05:30.008Z</time></trkpt><trkpt lat="44.1437333" lon="11.9888783"><ele>73.0</ele><time>2026-04-06T10:05:31.007Z</time></trkpt><trkpt lat="44.1436367" lon="11.9890267"><ele>73.0</ele><time>2026-04-06T10:05:32.007Z</time></trkpt><trkpt lat="44.14352" lon="11.989145"><ele>73.0</ele><time>2026-04-06T10:05:33.006Z</time></trkpt><trkpt lat="44.1433983" lon="11.989215"><ele>73.0</ele><time>2026-04-06T10:05:34.008Z</time></trkpt><trkpt lat="44.1432833" lon="11.9892833"><ele>73.0</ele><time>2026-04-06T10:05:35.008Z</time></trkpt><trkpt lat="44.1431633" lon="11.9893517"><ele>71.5</ele><time>2026-04-06T10:05:36.011Z</time></trkpt><trkpt lat="44.1430383" lon="11.98945"><ele>70.0</ele><time>2026-04-06T10:05:37.007Z</time></trkpt><trkpt lat="44.1429" lon="11.9895283"><ele>68.5</ele><time>2026-04-06T10:05:38.009Z</time></trkpt><trkpt lat="44.1427566" lon="11.9896136"><ele>67.0</ele><time>2026-04-06T10:05:39.009Z</time></trkpt><trkpt lat="44.1426135" lon="11.9896961"><ele>67.0</ele><time>2026-04-06T10:05:40.009Z</time></trkpt><trkpt lat="44.1424794" lon="11.9897704"><ele>67.0</ele><time>2026-04-06T10:05:41.008Z</time></trkpt><trkpt lat="44.1423597" lon="11.9898372"><ele>67.0</ele><time>2026-04-06T10:05:42.006Z</time></trkpt><trkpt lat="44.1422511" lon="11.9898946"><ele>67.0</ele><time>2026-04-06T10:05:43.008Z</time></trkpt><trkpt lat="44.1421532" lon="11.989945"><ele>67.6</ele><time>2026-04-06T10:05:44.01Z</time></trkpt><trkpt lat="44.1420622" lon="11.9899816"><ele>68.2</ele><time>2026-04-06T10:05:45.008Z</time></trkpt><trkpt lat="44.1419721" lon="11.989992"><ele>68.8</ele><time>2026-04-06T10:05:46.008Z</time></trkpt><trkpt lat="44.1418775" lon="11.9900008"><ele>69.4</ele><time>2026-04-06T10:05:47.007Z</time></trkpt><trkpt lat="44.1417748" lon="11.9900235"><ele>70.0</ele><time>2026-04-06T10:05:48.007Z</time></trkpt><trkpt lat="44.1416589" lon="11.9900383"><ele>70.25</ele><time>2026-04-06T10:05:49.01Z</time></trkpt><trkpt lat="44.1415347" lon="11.9900441"><ele>70.5</ele><time>2026-04-06T10:05:50.008Z</time></trkpt><trkpt lat="44.1414079" lon="11.9900302"><ele>70.75</ele><time>2026-04-06T10:05:51.012Z</time></trkpt><trkpt lat="44.1412868" lon="11.9899767"><ele>71.0</ele><time>2026-04-06T10:05:52.009Z</time></trkpt><trkpt lat="44.1411791" lon="11.9898856"><ele>71.2</ele><time>2026-04-06T10:05:53.008Z</time></trkpt><trkpt lat="44.1410929" lon="11.9897735"><ele>71.39999999999999</ele><time>2026-04-06T10:05:54.008Z</time></trkpt><trkpt lat="44.1410301" lon="11.9896661"><ele>71.6</ele><time>2026-04-06T10:05:55.01Z</time></trkpt><trkpt lat="44.1409954" lon="11.9895526"><ele>71.8</ele><time>2026-04-06T10:05:56.008Z</time></trkpt><trkpt lat="44.1409898" lon="11.989422"><ele>72.0</ele><time>2026-04-06T10:05:57.006Z</time></trkpt><trkpt lat="44.1409913" lon="11.9892735"><ele>72.8</ele><time>2026-04-06T10:05:58.007Z</time></trkpt><trkpt lat="44.1409889" lon="11.9891223"><ele>73.6</ele><time>2026-04-06T10:05:59.007Z</time></trkpt><trkpt lat="44.1409976" lon="11.9889734"><ele>74.39999999999999</ele><time>2026-04-06T10:06:00.011Z</time></trkpt><trkpt lat="44.1410127" lon="11.988839"><ele>75.2</ele><time>2026-04-06T10:06:01.007Z</time></trkpt><trkpt lat="44.1410174" lon="11.9887133"><ele>76.0</ele><time>2026-04-06T10:06:02.008Z</time></trkpt><trkpt lat="44.1410195" lon="11.9885972"><ele>76.0</ele><time>2026-04-06T10:06:03.009Z</time></trkpt><trkpt lat="44.1410233" lon="11.98849"><ele>76.0</ele><time>2026-04-06T10:06:04.006Z</time></trkpt><trkpt lat="44.1410268" lon="11.988401"><ele>76.0</ele><time>2026-04-06T10:06:05.007Z</time></trkpt><trkpt lat="44.1410081" lon="11.9882317"><ele>76.0</ele><time>2026-04-06T10:06:07.007Z</time></trkpt><trkpt lat="44.1409921" lon="11.9881368"><ele>76.0</ele><time>2026-04-06T10:06:08.012Z</time></trkpt><trkpt lat="44.1409766" lon="11.9880386"><ele>76.0</ele><time>2026-04-06T10:06:09.009Z</time></trkpt><trkpt lat="44.1409523" lon="11.9879132"><ele>76.0</ele><time>2026-04-06T10:06:10.008Z</time></trkpt><trkpt lat="44.140913" lon="11.9877642"><ele>76.0</ele><time>2026-04-06T10:06:11.007Z</time></trkpt><trkpt lat="44.1408741" lon="11.987614"><ele>76.0</ele><time>2026-04-06T10:06:12.006Z</time></trkpt><trkpt lat="44.1408394" lon="11.987481"><ele>76.0</ele><time>2026-04-06T10:06:13.008Z</time></trkpt><trkpt lat="44.1408054" lon="11.9873684"><ele>76.0</ele><time>2026-04-06T10:06:14.009Z</time></trkpt><trkpt lat="44.1407846" lon="11.9872646"><ele>76.0</ele><time>2026-04-06T10:06:15.008Z</time></trkpt><trkpt lat="44.1407383" lon="11.9871855"><ele>76.0</ele><time>2026-04-06T10:06:16.008Z</time></trkpt><trkpt lat="44.1406727" lon="11.9871216"><ele>76.0</ele><time>2026-04-06T10:06:17.007Z</time></trkpt><trkpt lat="44.1405932" lon="11.9870727"><ele>76.0</ele><time>2026-04-06T10:06:18.007Z</time></trkpt><trkpt lat="44.1404981" lon="11.9870732"><ele>76.0</ele><time>2026-04-06T10:06:19.009Z</time></trkpt><trkpt lat="44.1403851" lon="11.9871242"><ele>75.75</ele><time>2026-04-06T10:06:20.009Z</time></trkpt><trkpt lat="44.1402608" lon="11.9871958"><ele>75.5</ele><time>2026-04-06T10:06:21.008Z</time></trkpt><trkpt lat="44.1401424" lon="11.9872489"><ele>75.25</ele><time>2026-04-06T10:06:22.007Z</time></trkpt><trkpt lat="44.14003" lon="11.9872829"><ele>75.0</ele><time>2026-04-06T10:06:23.011Z</time></trkpt><trkpt lat="44.1399132" lon="11.9873107"><ele>75.5</ele><time>2026-04-06T10:06:24.008Z</time></trkpt><trkpt lat="44.1397943" lon="11.9873354"><ele>76.0</ele><time>2026-04-06T10:06:25.008Z</time></trkpt><trkpt lat="44.1396738" lon="11.9873633"><ele>76.5</ele><time>2026-04-06T10:06:26.007Z</time></trkpt><trkpt lat="44.139548" lon="11.9873947"><ele>77.0</ele><time>2026-04-06T10:06:27.008Z</time></trkpt><trkpt lat="44.1394261" lon="11.9874101"><ele>77.0</ele><time>2026-04-06T10:06:28.007Z</time></trkpt><trkpt lat="44.1392993" lon="11.9874129"><ele>77.0</ele><time>2026-04-06T10:06:29.009Z</time></trkpt><trkpt lat="44.1391724" lon="11.9874053"><ele>77.0</ele><time>2026-04-06T10:06:30.007Z</time></trkpt><trkpt lat="44.1390453" lon="11.9873955"><ele>77.0</ele><time>2026-04-06T10:06:31.007Z</time></trkpt><trkpt lat="44.1389195" lon="11.9873823"><ele>78.25</ele><time>2026-04-06T10:06:32.009Z</time></trkpt><trkpt lat="44.1387956" lon="11.9873711"><ele>79.5</ele><time>2026-04-06T10:06:33.008Z</time></trkpt><trkpt lat="44.138672" lon="11.9873614"><ele>80.75</ele><time>2026-04-06T10:06:34.012Z</time></trkpt><trkpt lat="44.1385475" lon="11.9873637"><ele>82.0</ele><time>2026-04-06T10:06:35.009Z</time></trkpt><trkpt lat="44.1384212" lon="11.9873765"><ele>82.0</ele><time>2026-04-06T10:06:36.008Z</time></trkpt><trkpt lat="44.1382959" lon="11.9873926"><ele>82.0</ele><time>2026-04-06T10:06:37.008Z</time></trkpt><trkpt lat="44.1381784" lon="11.9874263"><ele>82.0</ele><time>2026-04-06T10:06:38.007Z</time></trkpt><trkpt lat="44.1380593" lon="11.9874665"><ele>82.0</ele><time>2026-04-06T10:06:39.008Z</time></trkpt><trkpt lat="44.1379385" lon="11.9875001"><ele>82.25</ele><time>2026-04-06T10:06:40.007Z</time></trkpt><trkpt lat="44.1378123" lon="11.9875357"><ele>82.5</ele><time>2026-04-06T10:06:41.007Z</time></trkpt><trkpt lat="44.1376823" lon="11.9875732"><ele>82.75</ele><time>2026-04-06T10:06:42.007Z</time></trkpt><trkpt lat="44.1375424" lon="11.9876212"><ele>83.0</ele><time>2026-04-06T10:06:43.007Z</time></trkpt><trkpt lat="44.1374013" lon="11.9876672"><ele>86.25</ele><time>2026-04-06T10:06:44.009Z</time></trkpt><trkpt lat="44.1372617" lon="11.9876971"><ele>89.5</ele><time>2026-04-06T10:06:45.007Z</time></trkpt><trkpt lat="44.1371333" lon="11.9877117"><ele>92.75</ele><time>2026-04-06T10:06:46.008Z</time></trkpt><trkpt lat="44.1370083" lon="11.9877"><ele>96.0</ele><time>2026-04-06T10:06:47.01Z</time></trkpt><trkpt lat="44.13689" lon="11.9876733"><ele>96.0</ele><time>2026-04-06T10:06:48.008Z</time></trkpt><trkpt lat="44.136765" lon="11.987635"><ele>96.0</ele><time>2026-04-06T10:06:49.008Z</time></trkpt><trkpt lat="44.1366383" lon="11.9876183"><ele>96.0</ele><time>2026-04-06T10:06:50.006Z</time></trkpt><trkpt lat="44.1365183" lon="11.9876283"><ele>96.0</ele><time>2026-04-06T10:06:51.008Z</time></trkpt><trkpt lat="44.1364017" lon="11.9876633"><ele>99.75</ele><time>2026-04-06T10:06:52.008Z</time></trkpt><trkpt lat="44.136295" lon="11.9877533"><ele>103.5</ele><time>2026-04-06T10:06:53.008Z</time></trkpt><trkpt lat="44.136195" lon="11.9878633"><ele>107.25</ele><time>2026-04-06T10:06:54.008Z</time></trkpt><trkpt lat="44.1360933" lon="11.9879667"><ele>111.0</ele><time>2026-04-06T10:06:55.013Z</time></trkpt><trkpt lat="44.1359783" lon="11.9880467"><ele>111.0</ele><time>2026-04-06T10:06:56.008Z</time></trkpt><trkpt lat="44.1358383" lon="11.9880817"><ele>111.0</ele><time>2026-04-06T10:06:57.008Z</time></trkpt><trkpt lat="44.1356867" lon="11.9881083"><ele>111.0</ele><time>2026-04-06T10:06:58.008Z</time></trkpt><trkpt lat="44.1355183" lon="11.988125"><ele>116.33333333333334</ele><time>2026-04-06T10:06:59.008Z</time></trkpt><trkpt lat="44.1353533" lon="11.9881483"><ele>121.66666666666667</ele><time>2026-04-06T10:07:00.009Z</time></trkpt><trkpt lat="44.1351933" lon="11.9881633"><ele>127.0</ele><time>2026-04-06T10:07:01.012Z</time></trkpt><trkpt lat="44.1350317" lon="11.98818"><ele>129.66666666666669</ele><time>2026-04-06T10:07:02.007Z</time></trkpt><trkpt lat="44.1348733" lon="11.9882133"><ele>132.33333333333334</ele><time>2026-04-06T10:07:03.009Z</time></trkpt><trkpt lat="44.1347183" lon="11.9882433"><ele>135.0</ele><time>2026-04-06T10:07:04.008Z</time></trkpt><trkpt lat="44.134575" lon="11.9882667"><ele>135.0</ele><time>2026-04-06T10:07:05.009Z</time></trkpt><trkpt lat="44.13445" lon="11.988295"><ele>135.0</ele><time>2026-04-06T10:07:06.008Z</time></trkpt><trkpt lat="44.13434" lon="11.98831"><ele>135.0</ele><time>2026-04-06T10:07:07.008Z</time></trkpt><trkpt lat="44.1342433" lon="11.9883133"><ele>135.0</ele><time>2026-04-06T10:07:08.008Z</time></trkpt><trkpt lat="44.134155" lon="11.98828"><ele>135.0</ele><time>2026-04-06T10:07:09.009Z</time></trkpt><trkpt lat="44.1340783" lon="11.9881967"><ele>137.5</ele><time>2026-04-06T10:07:10.008Z</time></trkpt><trkpt lat="44.1340067" lon="11.988055"><ele>140.0</ele><time>2026-04-06T10:07:11.007Z</time></trkpt><trkpt lat="44.133915" lon="11.9879167"><ele>142.5</ele><time>2026-04-06T10:07:12.007Z</time></trkpt><trkpt lat="44.1338167" lon="11.987775"><ele>145.0</ele><time>2026-04-06T10:07:13.008Z</time></trkpt><trkpt lat="44.13372" lon="11.9876533"><ele>145.0</ele><time>2026-04-06T10:07:14.007Z</time></trkpt><trkpt lat="44.1336267" lon="11.9875617"><ele>145.0</ele><time>2026-04-06T10:07:15.01Z</time></trkpt><trkpt lat="44.133525" lon="11.9875033"><ele>145.0</ele><time>2026-04-06T10:07:16.007Z</time></trkpt><trkpt lat="44.1334117" lon="11.98749"><ele>145.0</ele><time>2026-04-06T10:07:17.006Z</time></trkpt><trkpt lat="44.1333033" lon="11.98748"><ele>145.0</ele><time>2026-04-06T10:07:18.007Z</time></trkpt><trkpt lat="44.133215" lon="11.98741"><ele>146.83333333333334</ele><time>2026-04-06T10:07:19.008Z</time></trkpt><trkpt lat="44.13314" lon="11.9873117"><ele>148.66666666666669</ele><time>2026-04-06T10:07:20.007Z</time></trkpt><trkpt lat="44.1330717" lon="11.9872067"><ele>150.5</ele><time>2026-04-06T10:07:21.009Z</time></trkpt><trkpt lat="44.1329983" lon="11.98714"><ele>152.33333333333334</ele><time>2026-04-06T10:07:22.009Z</time></trkpt><trkpt lat="44.1329317" lon="11.9871"><ele>154.16666666666666</ele><time>2026-04-06T10:07:23.005Z</time></trkpt><trkpt lat="44.132865" lon="11.9870933"><ele>156.0</ele><time>2026-04-06T10:07:24.007Z</time></trkpt><trkpt lat="44.132755" lon="11.9871583"><ele>156.0</ele><time>2026-04-06T10:07:26.006Z</time></trkpt><trkpt lat="44.1326933" lon="11.9872017"><ele>156.0</ele><time>2026-04-06T10:07:27.012Z</time></trkpt><trkpt lat="44.1326183" lon="11.9872767"><ele>156.0</ele><time>2026-04-06T10:07:28.007Z</time></trkpt><trkpt lat="44.1325317" lon="11.9873767"><ele>156.0</ele><time>2026-04-06T10:07:29.006Z</time></trkpt><trkpt lat="44.1324267" lon="11.9874933"><ele>156.0</ele><time>2026-04-06T10:07:30.007Z</time></trkpt><trkpt lat="44.1323217" lon="11.98761"><ele>159.5</ele><time>2026-04-06T10:07:31.006Z</time></trkpt><trkpt lat="44.132205" lon="11.9877067"><ele>163.0</ele><time>2026-04-06T10:07:32.007Z</time></trkpt><trkpt lat="44.1320867" lon="11.9878133"><ele>166.5</ele><time>2026-04-06T10:07:33.008Z</time></trkpt><trkpt lat="44.1319583" lon="11.9879267"><ele>170.0</ele><time>2026-04-06T10:07:34.01Z</time></trkpt><trkpt lat="44.1318183" lon="11.9880267"><ele>170.0</ele><time>2026-04-06T10:07:35.006Z</time></trkpt><trkpt lat="44.1316733" lon="11.9881067"><ele>170.0</ele><time>2026-04-06T10:07:36.006Z</time></trkpt><trkpt lat="44.1315283" lon="11.9881533"><ele>170.0</ele><time>2026-04-06T10:07:37.007Z</time></trkpt><trkpt lat="44.1313883" lon="11.988215"><ele>174.0</ele><time>2026-04-06T10:07:38.006Z</time></trkpt><trkpt lat="44.1312533" lon="11.9882717"><ele>178.0</ele><time>2026-04-06T10:07:39.008Z</time></trkpt><trkpt lat="44.1311183" lon="11.9883333"><ele>182.0</ele><time>2026-04-06T10:07:40.006Z</time></trkpt><trkpt lat="44.130985" lon="11.98839"><ele>186.0</ele><time>2026-04-06T10:07:41.005Z</time></trkpt><trkpt lat="44.13085" lon="11.98846"><ele>191.0</ele><time>2026-04-06T10:07:42.007Z</time></trkpt><trkpt lat="44.1307133" lon="11.9885233"><ele>196.0</ele><time>2026-04-06T10:07:43.006Z</time></trkpt><trkpt lat="44.1305683" lon="11.9885983"><ele>201.0</ele><time>2026-04-06T10:07:44.011Z</time></trkpt><trkpt lat="44.1304217" lon="11.98867"><ele>201.0</ele><time>2026-04-06T10:07:45.007Z</time></trkpt><trkpt lat="44.1302717" lon="11.9887333"><ele>201.0</ele><time>2026-04-06T10:07:46.009Z</time></trkpt><trkpt lat="44.1301283" lon="11.988815"><ele>201.0</ele><time>2026-04-06T10:07:47.005Z</time></trkpt><trkpt lat="44.1299967" lon="11.9888867"><ele>204.0</ele><time>2026-04-06T10:07:48.009Z</time></trkpt><trkpt lat="44.1298717" lon="11.9889467"><ele>207.0</ele><time>2026-04-06T10:07:49.007Z</time></trkpt><trkpt lat="44.129765" lon="11.9890033"><ele>210.00000000000003</ele><time>2026-04-06T10:07:50.006Z</time></trkpt><trkpt lat="44.12967" lon="11.9890483"><ele>213.0</ele><time>2026-04-06T10:07:51.012Z</time></trkpt><trkpt lat="44.1295917" lon="11.9890783"><ele>216.0</ele><time>2026-04-06T10:07:52.007Z</time></trkpt><trkpt lat="44.1295267" lon="11.9891067"><ele>216.0</ele><time>2026-04-06T10:07:53.007Z</time></trkpt><trkpt lat="44.1294283" lon="11.989055"><ele>216.0</ele><time>2026-04-06T10:07:55.008Z</time></trkpt><trkpt lat="44.129415" lon="11.9889367"><ele>216.0</ele><time>2026-04-06T10:07:57.007Z</time></trkpt><trkpt lat="44.1294467" lon="11.9888583"><ele>216.0</ele><time>2026-04-06T10:07:58.009Z</time></trkpt><trkpt lat="44.1294933" lon="11.9887617"><ele>216.0</ele><time>2026-04-06T10:07:59.007Z</time></trkpt><trkpt lat="44.1295" lon="11.9886183"><ele>216.0</ele><time>2026-04-06T10:08:01.009Z</time></trkpt><trkpt lat="44.12941" lon="11.9885767"><ele>216.0</ele><time>2026-04-06T10:08:03.008Z</time></trkpt><trkpt lat="44.1293267" lon="11.9886167"><ele>216.0</ele><time>2026-04-06T10:08:04.007Z</time></trkpt><trkpt lat="44.1292317" lon="11.988645"><ele>216.0</ele><time>2026-04-06T10:08:05.008Z</time></trkpt><trkpt lat="44.1291167" lon="11.988675"><ele>216.0</ele><time>2026-04-06T10:08:06.009Z</time></trkpt><trkpt lat="44.1289717" lon="11.9887233"><ele>218.25</ele><time>2026-04-06T10:08:07.007Z</time></trkpt><trkpt lat="44.12883" lon="11.9888"><ele>220.5</ele><time>2026-04-06T10:08:08.008Z</time></trkpt><trkpt lat="44.1286983" lon="11.9888933"><ele>222.75</ele><time>2026-04-06T10:08:09.006Z</time></trkpt><trkpt lat="44.1285667" lon="11.98899"><ele>225.0</ele><time>2026-04-06T10:08:10.006Z</time></trkpt><trkpt lat="44.1284417" lon="11.9890983"><ele>223.5</ele><time>2026-04-06T10:08:11.007Z</time></trkpt><trkpt lat="44.1283267" lon="11.9892183"><ele>222.0</ele><time>2026-04-06T10:08:12.007Z</time></trkpt><trkpt lat="44.1282067" lon="11.9893183"><ele>220.5</ele><time>2026-04-06T10:08:13.007Z</time></trkpt><trkpt lat="44.12808" lon="11.9894083"><ele>219.0</ele><time>2026-04-06T10:08:14.008Z</time></trkpt><trkpt lat="44.1279533" lon="11.989495"><ele>224.66666666666669</ele><time>2026-04-06T10:08:15.007Z</time></trkpt><trkpt lat="44.1278017" lon="11.9895467"><ele>230.33333333333334</ele><time>2026-04-06T10:08:16.008Z</time></trkpt><trkpt lat="44.1276667" lon="11.9896383"><ele>236.0</ele><time>2026-04-06T10:08:17.007Z</time></trkpt><trkpt lat="44.12754" lon="11.9897483"><ele>236.0</ele><time>2026-04-06T10:08:18.009Z</time></trkpt><trkpt lat="44.127425" lon="11.989865"><ele>236.0</ele><time>2026-04-06T10:08:19.007Z</time></trkpt><trkpt lat="44.1273133" lon="11.9899883"><ele>236.0</ele><time>2026-04-06T10:08:20.007Z</time></trkpt><trkpt lat="44.1272" lon="11.990105"><ele>236.0</ele><time>2026-04-06T10:08:21.007Z</time></trkpt><trkpt lat="44.127085" lon="11.99021"><ele>238.0</ele><time>2026-04-06T10:08:22.007Z</time></trkpt><trkpt lat="44.126965" lon="11.990315"><ele>240.0</ele><time>2026-04-06T10:08:23.006Z</time></trkpt><trkpt lat="44.12684" lon="11.9903983"><ele>242.0</ele><time>2026-04-06T10:08:24.007Z</time></trkpt><trkpt lat="44.1267233" lon="11.990485"><ele>244.0</ele><time>2026-04-06T10:08:25.008Z</time></trkpt><trkpt lat="44.1266183" lon="11.9905683"><ele>244.2</ele><time>2026-04-06T10:08:26.01Z</time></trkpt><trkpt lat="44.12655" lon="11.99068"><ele>244.39999999999998</ele><time>2026-04-06T10:08:27.008Z</time></trkpt><trkpt lat="44.1264805" lon="11.990799"><ele>244.6</ele><time>2026-04-06T10:08:28.007Z</time></trkpt><trkpt lat="44.126424" lon="11.9909293"><ele>244.8</ele><time>2026-04-06T10:08:29.006Z</time></trkpt><trkpt lat="44.1263655" lon="11.9910669"><ele>245.0</ele><time>2026-04-06T10:08:30.008Z</time></trkpt><trkpt lat="44.126304" lon="11.9912066"><ele>245.75</ele><time>2026-04-06T10:08:31.007Z</time></trkpt><trkpt lat="44.1262395" lon="11.9913541"><ele>246.5</ele><time>2026-04-06T10:08:32.008Z</time></trkpt><trkpt lat="44.1261738" lon="11.9914975"><ele>247.25</ele><time>2026-04-06T10:08:33.008Z</time></trkpt><trkpt lat="44.1261167" lon="11.9916382"><ele>248.0</ele><time>2026-04-06T10:08:34.007Z</time></trkpt><trkpt lat="44.1260483" lon="11.9917791"><ele>248.0</ele><time>2026-04-06T10:08:35.011Z</time></trkpt><trkpt lat="44.1259887" lon="11.9919192"><ele>248.0</ele><time>2026-04-06T10:08:36.007Z</time></trkpt><trkpt lat="44.1259333" lon="11.9920736"><ele>248.0</ele><time>2026-04-06T10:08:37.007Z</time></trkpt><trkpt lat="44.1258628" lon="11.9922301"><ele>248.0</ele><time>2026-04-06T10:08:38.007Z</time></trkpt><trkpt lat="44.1257836" lon="11.9923778"><ele>251.0</ele><time>2026-04-06T10:08:39.006Z</time></trkpt><trkpt lat="44.1257044" lon="11.9925229"><ele>254.0</ele><time>2026-04-06T10:08:40.008Z</time></trkpt><trkpt lat="44.1256157" lon="11.9926586"><ele>257.0</ele><time>2026-04-06T10:08:41.006Z</time></trkpt><trkpt lat="44.1255341" lon="11.9927864"><ele>260.0</ele><time>2026-04-06T10:08:42.008Z</time></trkpt><trkpt lat="44.125435" lon="11.9928848"><ele>260.0</ele><time>2026-04-06T10:08:43.007Z</time></trkpt><trkpt lat="44.1253287" lon="11.9929643"><ele>260.0</ele><time>2026-04-06T10:08:44.009Z</time></trkpt><trkpt lat="44.1252299" lon="11.9930208"><ele>260.0</ele><time>2026-04-06T10:08:45.007Z</time></trkpt><trkpt lat="44.1251253" lon="11.9930428"><ele>260.0</ele><time>2026-04-06T10:08:46.007Z</time></trkpt><trkpt lat="44.1250229" lon="11.993068"><ele>260.0</ele><time>2026-04-06T10:08:47.01Z</time></trkpt><trkpt lat="44.1249331" lon="11.9931247"><ele>262.4</ele><time>2026-04-06T10:08:48.008Z</time></trkpt><trkpt lat="44.1248617" lon="11.9932039"><ele>264.8</ele><time>2026-04-06T10:08:49.007Z</time></trkpt><trkpt lat="44.1248008" lon="11.9932935"><ele>267.2</ele><time>2026-04-06T10:08:50.006Z</time></trkpt><trkpt lat="44.1247509" lon="11.993393"><ele>269.6</ele><time>2026-04-06T10:08:51.009Z</time></trkpt><trkpt lat="44.1247444" lon="11.9935093"><ele>272.0</ele><time>2026-04-06T10:08:52.007Z</time></trkpt><trkpt lat="44.1247728" lon="11.993643"><ele>272.0</ele><time>2026-04-06T10:08:53.007Z</time></trkpt><trkpt lat="44.1248173" lon="11.9937809"><ele>272.0</ele><time>2026-04-06T10:08:54.007Z</time></trkpt><trkpt lat="44.1248842" lon="11.9939396"><ele>272.0</ele><time>2026-04-06T10:08:55.007Z</time></trkpt><trkpt lat="44.1249568" lon="11.9941257"><ele>272.0</ele><time>2026-04-06T10:08:56.007Z</time></trkpt><trkpt lat="44.1250441" lon="11.9943172"><ele>271.5</ele><time>2026-04-06T10:08:57.008Z</time></trkpt><trkpt lat="44.1251266" lon="11.9944962"><ele>271.0</ele><time>2026-04-06T10:08:58.007Z</time></trkpt><trkpt lat="44.125193" lon="11.9946498"><ele>270.5</ele><time>2026-04-06T10:08:59.006Z</time></trkpt><trkpt lat="44.1252388" lon="11.9947841"><ele>270.0</ele><time>2026-04-06T10:09:00.008Z</time></trkpt><trkpt lat="44.1252614" lon="11.9949121"><ele>269.5</ele><time>2026-04-06T10:09:01.006Z</time></trkpt><trkpt lat="44.1252642" lon="11.9950503"><ele>269.0</ele><time>2026-04-06T10:09:02.007Z</time></trkpt><trkpt lat="44.1252395" lon="11.9952137"><ele>268.5</ele><time>2026-04-06T10:09:03.008Z</time></trkpt><trkpt lat="44.1252018" lon="11.9954053"><ele>268.0</ele><time>2026-04-06T10:09:04.087Z</time></trkpt><trkpt lat="44.1251538" lon="11.9956003"><ele>268.0</ele><time>2026-04-06T10:09:05.008Z</time></trkpt><trkpt lat="44.1250997" lon="11.9958114"><ele>268.0</ele><time>2026-04-06T10:09:06.007Z</time></trkpt><trkpt lat="44.125013" lon="11.996012"><ele>268.0</ele><time>2026-04-06T10:09:07.013Z</time></trkpt><trkpt lat="44.1249308" lon="11.9962089"><ele>271.66666666666663</ele><time>2026-04-06T10:09:08.008Z</time></trkpt><trkpt lat="44.1248504" lon="11.9963928"><ele>275.3333333333333</ele><time>2026-04-06T10:09:09.008Z</time></trkpt><trkpt lat="44.1247702" lon="11.9965805"><ele>279.0</ele><time>2026-04-06T10:09:10.008Z</time></trkpt><trkpt lat="44.1246759" lon="11.9967512"><ele>279.0</ele><time>2026-04-06T10:09:11.007Z</time></trkpt><trkpt lat="44.1245925" lon="11.9969075"><ele>279.0</ele><time>2026-04-06T10:09:12.007Z</time></trkpt><trkpt lat="44.1245176" lon="11.9970464"><ele>279.0</ele><time>2026-04-06T10:09:13.007Z</time></trkpt><trkpt lat="44.1244634" lon="11.9971753"><ele>279.0</ele><time>2026-04-06T10:09:14.006Z</time></trkpt><trkpt lat="44.1244298" lon="11.9973117"><ele>279.0</ele><time>2026-04-06T10:09:15.007Z</time></trkpt><trkpt lat="44.1244212" lon="11.9974603"><ele>279.0</ele><time>2026-04-06T10:09:16.006Z</time></trkpt><trkpt lat="44.1244204" lon="11.9976069"><ele>279.0</ele><time>2026-04-06T10:09:17.009Z</time></trkpt><trkpt lat="44.1244373" lon="11.9977441"><ele>279.0</ele><time>2026-04-06T10:09:18.007Z</time></trkpt><trkpt lat="44.1244544" lon="11.9978811"><ele>279.0</ele><time>2026-04-06T10:09:19.009Z</time></trkpt><trkpt lat="44.1244869" lon="11.9980064"><ele>281.5</ele><time>2026-04-06T10:09:20.007Z</time></trkpt><trkpt lat="44.1245513" lon="11.9981138"><ele>284.0</ele><time>2026-04-06T10:09:21.008Z</time></trkpt><trkpt lat="44.1246402" lon="11.9982158"><ele>286.5</ele><time>2026-04-06T10:09:22.009Z</time></trkpt><trkpt lat="44.1247452" lon="11.9983093"><ele>289.0</ele><time>2026-04-06T10:09:23.007Z</time></trkpt><trkpt lat="44.1248271" lon="11.9984105"><ele>289.59999999999997</ele><time>2026-04-06T10:09:24.007Z</time></trkpt><trkpt lat="44.1249135" lon="11.9984898"><ele>290.2</ele><time>2026-04-06T10:09:25.008Z</time></trkpt><trkpt lat="44.1249931" lon="11.9985691"><ele>290.79999999999995</ele><time>2026-04-06T10:09:26.009Z</time></trkpt><trkpt lat="44.1250561" lon="11.9986629"><ele>291.4</ele><time>2026-04-06T10:09:27.006Z</time></trkpt><trkpt lat="44.125104" lon="11.9987746"><ele>292.0</ele><time>2026-04-06T10:09:28.01Z</time></trkpt><trkpt lat="44.1251506" lon="11.9988916"><ele>292.0</ele><time>2026-04-06T10:09:29.007Z</time></trkpt><trkpt lat="44.125196" lon="11.9990141"><ele>292.0</ele><time>2026-04-06T10:09:30.009Z</time></trkpt><trkpt lat="44.1252303" lon="11.9991301"><ele>292.0</ele><time>2026-04-06T10:09:31.006Z</time></trkpt><trkpt lat="44.1252508" lon="11.9992332"><ele>292.0</ele><time>2026-04-06T10:09:32.007Z</time></trkpt><trkpt lat="44.1252539" lon="11.9993265"><ele>292.0</ele><time>2026-04-06T10:09:33.011Z</time></trkpt><trkpt lat="44.1252352" lon="11.9994168"><ele>292.0</ele><time>2026-04-06T10:09:34.008Z</time></trkpt><trkpt lat="44.1252023" lon="11.999511"><ele>292.0</ele><time>2026-04-06T10:09:35.007Z</time></trkpt><trkpt lat="44.1251676" lon="11.9995894"><ele>292.0</ele><time>2026-04-06T10:09:36.009Z</time></trkpt><trkpt lat="44.1250939" lon="11.9996567"><ele>292.0</ele><time>2026-04-06T10:09:38.009Z</time></trkpt><trkpt lat="44.1250251" lon="11.9996186"><ele>292.0</ele><time>2026-04-06T10:09:41.007Z</time></trkpt><trkpt lat="44.1249133" lon="11.9995783"><ele>292.0</ele><time>2026-04-06T10:11:27.007Z</time></trkpt><trkpt lat="44.1248467" lon="11.9995433"><ele>292.0</ele><time>2026-04-06T10:11:28.009Z</time></trkpt><trkpt lat="44.1247783" lon="11.9995017"><ele>287.3333333333333</ele><time>2026-04-06T10:11:29.007Z</time></trkpt><trkpt lat="44.1246367" lon="11.9993917"><ele>282.6666666666667</ele><time>2026-04-06T10:11:30.008Z</time></trkpt><trkpt lat="44.124485" lon="11.999285"><ele>278.0</ele><time>2026-04-06T10:11:31.009Z</time></trkpt><trkpt lat="44.124325" lon="11.9991783"><ele>282.33333333333337</ele><time>2026-04-06T10:11:32.007Z</time></trkpt><trkpt lat="44.1241617" lon="11.99905"><ele>286.6666666666667</ele><time>2026-04-06T10:11:33.008Z</time></trkpt><trkpt lat="44.124" lon="11.9989183"><ele>291.0</ele><time>2026-04-06T10:11:34.006Z</time></trkpt><trkpt lat="44.12385" lon="11.9988"><ele>292.6666666666667</ele><time>2026-04-06T10:11:35.007Z</time></trkpt><trkpt lat="44.1237017" lon="11.998705"><ele>294.33333333333337</ele><time>2026-04-06T10:11:36.01Z</time></trkpt><trkpt lat="44.1235483" lon="11.9986383"><ele>296.0</ele><time>2026-04-06T10:11:37.006Z</time></trkpt><trkpt lat="44.1233883" lon="11.9986133"><ele>298.0</ele><time>2026-04-06T10:11:38.008Z</time></trkpt><trkpt lat="44.1232217" lon="11.99862"><ele>300.0</ele><time>2026-04-06T10:11:39.007Z</time></trkpt><trkpt lat="44.123065" lon="11.9986233"><ele>302.0</ele><time>2026-04-06T10:11:40.007Z</time></trkpt><trkpt lat="44.12292" lon="11.9986083"><ele>302.0</ele><time>2026-04-06T10:11:41.007Z</time></trkpt><trkpt lat="44.1227883" lon="11.9985767"><ele>302.0</ele><time>2026-04-06T10:11:42.014Z</time></trkpt><trkpt lat="44.1226683" lon="11.998525"><ele>302.0</ele><time>2026-04-06T10:11:43.008Z</time></trkpt><trkpt lat="44.122555" lon="11.9984383"><ele>302.0</ele><time>2026-04-06T10:11:44.007Z</time></trkpt><trkpt lat="44.1224583" lon="11.99832"><ele>307.25</ele><time>2026-04-06T10:11:45.009Z</time></trkpt><trkpt lat="44.1223817" lon="11.9981683"><ele>312.5</ele><time>2026-04-06T10:11:46.009Z</time></trkpt><trkpt lat="44.122335" lon="11.9979983"><ele>317.75</ele><time>2026-04-06T10:11:47.007Z</time></trkpt><trkpt lat="44.12232" lon="11.9978033"><ele>323.0</ele><time>2026-04-06T10:11:48.008Z</time></trkpt><trkpt lat="44.1223167" lon="11.997615"><ele>324.2</ele><time>2026-04-06T10:11:49.007Z</time></trkpt><trkpt lat="44.1223067" lon="11.9974467"><ele>325.4</ele><time>2026-04-06T10:11:50.01Z</time></trkpt><trkpt lat="44.1222717" lon="11.9973117"><ele>326.59999999999997</ele><time>2026-04-06T10:11:51.008Z</time></trkpt><trkpt lat="44.122205" lon="11.9972083"><ele>327.79999999999995</ele><time>2026-04-06T10:11:52.008Z</time></trkpt><trkpt lat="44.1221167" lon="11.9971417"><ele>329.0</ele><time>2026-04-06T10:11:53.007Z</time></trkpt><trkpt lat="44.1220067" lon="11.997115"><ele>329.0</ele><time>2026-04-06T10:11:54.008Z</time></trkpt><trkpt lat="44.1218783" lon="11.99712"><ele>329.0</ele><time>2026-04-06T10:11:55.008Z</time></trkpt><trkpt lat="44.1217333" lon="11.99715"><ele>329.0</ele><time>2026-04-06T10:11:56.006Z</time></trkpt><trkpt lat="44.1215717" lon="11.99719"><ele>329.0</ele><time>2026-04-06T10:11:57.011Z</time></trkpt><trkpt lat="44.12139" lon="11.99724"><ele>333.33333333333337</ele><time>2026-04-06T10:11:58.008Z</time></trkpt><trkpt lat="44.1211967" lon="11.99729"><ele>337.6666666666667</ele><time>2026-04-06T10:11:59.01Z</time></trkpt><trkpt lat="44.120995" lon="11.9973383"><ele>342.0</ele><time>2026-04-06T10:12:00.009Z</time></trkpt><trkpt lat="44.1207867" lon="11.9973633"><ele>344.3333333333333</ele><time>2026-04-06T10:12:01.006Z</time></trkpt><trkpt lat="44.1205783" lon="11.9973583"><ele>346.66666666666663</ele><time>2026-04-06T10:12:02.007Z</time></trkpt><trkpt lat="44.1203683" lon="11.9973267"><ele>349.0</ele><time>2026-04-06T10:12:03.008Z</time></trkpt><trkpt lat="44.1201583" lon="11.997285"><ele>349.0</ele><time>2026-04-06T10:12:04.008Z</time></trkpt><trkpt lat="44.1199517" lon="11.9972483"><ele>349.0</ele><time>2026-04-06T10:12:05.007Z</time></trkpt><trkpt lat="44.1197667" lon="11.9972133"><ele>349.0</ele><time>2026-04-06T10:12:06.008Z</time></trkpt><trkpt lat="44.1195933" lon="11.997185"><ele>350.66666666666663</ele><time>2026-04-06T10:12:07.01Z</time></trkpt><trkpt lat="44.1194317" lon="11.9971733"><ele>352.3333333333333</ele><time>2026-04-06T10:12:08.008Z</time></trkpt><trkpt lat="44.1192817" lon="11.9971767"><ele>354.0</ele><time>2026-04-06T10:12:09.009Z</time></trkpt><trkpt lat="44.11914" lon="11.9972067"><ele>354.3333333333333</ele><time>2026-04-06T10:12:10.007Z</time></trkpt><trkpt lat="44.1190033" lon="11.9972733"><ele>354.66666666666663</ele><time>2026-04-06T10:12:11.007Z</time></trkpt><trkpt lat="44.1188617" lon="11.997385"><ele>355.0</ele><time>2026-04-06T10:12:12.006Z</time></trkpt><trkpt lat="44.1187217" lon="11.9975317"><ele>355.0</ele><time>2026-04-06T10:12:13.006Z</time></trkpt><trkpt lat="44.1185817" lon="11.997675"><ele>355.0</ele><time>2026-04-06T10:12:14.012Z</time></trkpt><trkpt lat="44.1184433" lon="11.9978183"><ele>355.0</ele><time>2026-04-06T10:12:15.006Z</time></trkpt><trkpt lat="44.1183133" lon="11.9979467"><ele>355.66666666666663</ele><time>2026-04-06T10:12:16.008Z</time></trkpt><trkpt lat="44.11819" lon="11.9980617"><ele>356.3333333333333</ele><time>2026-04-06T10:12:17.008Z</time></trkpt><trkpt lat="44.1180533" lon="11.99816"><ele>357.0</ele><time>2026-04-06T10:12:18.006Z</time></trkpt><trkpt lat="44.1179083" lon="11.998225"><ele>357.0</ele><time>2026-04-06T10:12:19.008Z</time></trkpt><trkpt lat="44.1177417" lon="11.99827"><ele>357.0</ele><time>2026-04-06T10:12:20.01Z</time></trkpt><trkpt lat="44.1175733" lon="11.998285"><ele>357.0</ele><time>2026-04-06T10:12:21.008Z</time></trkpt><trkpt lat="44.1173783" lon="11.9982867"><ele>356.0</ele><time>2026-04-06T10:12:22.006Z</time></trkpt><trkpt lat="44.1171833" lon="11.9982933"><ele>355.0</ele><time>2026-04-06T10:12:23.006Z</time></trkpt><trkpt lat="44.116995" lon="11.998305"><ele>354.0</ele><time>2026-04-06T10:12:24.005Z</time></trkpt><trkpt lat="44.116815" lon="11.9983233"><ele>354.0</ele><time>2026-04-06T10:12:25.007Z</time></trkpt><trkpt lat="44.116655" lon="11.9983633"><ele>354.0</ele><time>2026-04-06T10:12:26.007Z</time></trkpt><trkpt lat="44.116515" lon="11.99841"><ele>354.0</ele><time>2026-04-06T10:12:27.008Z</time></trkpt><trkpt lat="44.1163833" lon="11.9985083"><ele>354.0</ele><time>2026-04-06T10:12:28.008Z</time></trkpt><trkpt lat="44.11626" lon="11.998645"><ele>354.0</ele><time>2026-04-06T10:12:29.007Z</time></trkpt><trkpt lat="44.1161367" lon="11.9988017"><ele>354.0</ele><time>2026-04-06T10:12:30.006Z</time></trkpt><trkpt lat="44.1160033" lon="11.9989567"><ele>354.0</ele><time>2026-04-06T10:12:31.008Z</time></trkpt><trkpt lat="44.11585" lon="11.999085"><ele>354.0</ele><time>2026-04-06T10:12:32.007Z</time></trkpt><trkpt lat="44.1157033" lon="11.9992067"><ele>354.0</ele><time>2026-04-06T10:12:33.007Z</time></trkpt><trkpt lat="44.115555" lon="11.9993"><ele>354.25</ele><time>2026-04-06T10:12:34.006Z</time></trkpt><trkpt lat="44.11542" lon="11.9993683"><ele>354.5</ele><time>2026-04-06T10:12:35.01Z</time></trkpt><trkpt lat="44.1153017" lon="11.9994217"><ele>354.75</ele><time>2026-04-06T10:12:36.008Z</time></trkpt><trkpt lat="44.1151967" lon="11.9994733"><ele>355.0</ele><time>2026-04-06T10:12:37.006Z</time></trkpt><trkpt lat="44.11509" lon="11.9995383"><ele>355.0</ele><time>2026-04-06T10:12:38.007Z</time></trkpt><trkpt lat="44.1149733" lon="11.9996283"><ele>355.0</ele><time>2026-04-06T10:12:39.006Z</time></trkpt><trkpt lat="44.1148583" lon="11.99974"><ele>355.0</ele><time>2026-04-06T10:12:40.009Z</time></trkpt><trkpt lat="44.1147567" lon="11.99987"><ele>355.0</ele><time>2026-04-06T10:12:41.007Z</time></trkpt><trkpt lat="44.1146685" lon="11.9999888"><ele>352.75</ele><time>2026-04-06T10:12:42.007Z</time></trkpt><trkpt lat="44.1146271" lon="12.0001138"><ele>350.5</ele><time>2026-04-06T10:12:43.005Z</time></trkpt><trkpt lat="44.1146242" lon="12.000258"><ele>348.25</ele><time>2026-04-06T10:12:44.005Z</time></trkpt><trkpt lat="44.1146452" lon="12.0004233"><ele>346.0</ele><time>2026-04-06T10:12:45.009Z</time></trkpt><trkpt lat="44.1146687" lon="12.0005993"><ele>346.0</ele><time>2026-04-06T10:12:46.006Z</time></trkpt><trkpt lat="44.1146976" lon="12.0007788"><ele>346.0</ele><time>2026-04-06T10:12:47.006Z</time></trkpt><trkpt lat="44.1147385" lon="12.0009575"><ele>346.0</ele><time>2026-04-06T10:12:48.017Z</time></trkpt><trkpt lat="44.1147856" lon="12.0011331"><ele>346.0</ele><time>2026-04-06T10:12:49.007Z</time></trkpt><trkpt lat="44.1148178" lon="12.0013199"><ele>344.5</ele><time>2026-04-06T10:12:50.007Z</time></trkpt><trkpt lat="44.1148168" lon="12.0015144"><ele>343.0</ele><time>2026-04-06T10:12:51.006Z</time></trkpt><trkpt lat="44.1147923" lon="12.0017068"><ele>341.5</ele><time>2026-04-06T10:12:52.008Z</time></trkpt><trkpt lat="44.1147636" lon="12.0018952"><ele>340.0</ele><time>2026-04-06T10:12:53.007Z</time></trkpt><trkpt lat="44.114741" lon="12.0020899"><ele>340.0</ele><time>2026-04-06T10:12:54.008Z</time></trkpt><trkpt lat="44.1147273" lon="12.0023018"><ele>340.0</ele><time>2026-04-06T10:12:55.007Z</time></trkpt><trkpt lat="44.1147219" lon="12.0025225"><ele>340.0</ele><time>2026-04-06T10:12:56.007Z</time></trkpt><trkpt lat="44.1147181" lon="12.0027465"><ele>340.66666666666663</ele><time>2026-04-06T10:12:57.008Z</time></trkpt><trkpt lat="44.1147167" lon="12.0029791"><ele>341.3333333333333</ele><time>2026-04-06T10:12:58.008Z</time></trkpt><trkpt lat="44.1147191" lon="12.0032246"><ele>342.0</ele><time>2026-04-06T10:12:59.007Z</time></trkpt><trkpt lat="44.1147196" lon="12.0034764"><ele>345.0</ele><time>2026-04-06T10:13:00.008Z</time></trkpt><trkpt lat="44.1147188" lon="12.003734"><ele>348.0</ele><time>2026-04-06T10:13:01.011Z</time></trkpt><trkpt lat="44.1147194" lon="12.0039895"><ele>351.0</ele><time>2026-04-06T10:13:02.008Z</time></trkpt><trkpt lat="44.1147138" lon="12.0042501"><ele>353.3333333333333</ele><time>2026-04-06T10:13:03.009Z</time></trkpt><trkpt lat="44.1147197" lon="12.0045094"><ele>355.66666666666663</ele><time>2026-04-06T10:13:04.007Z</time></trkpt><trkpt lat="44.1147264" lon="12.0047783"><ele>358.0</ele><time>2026-04-06T10:13:05.007Z</time></trkpt><trkpt lat="44.1147299" lon="12.0050513"><ele>359.0</ele><time>2026-04-06T10:13:06.009Z</time></trkpt><trkpt lat="44.1147247" lon="12.0053348"><ele>360.0</ele><time>2026-04-06T10:13:07.007Z</time></trkpt><trkpt lat="44.1147235" lon="12.0056194"><ele>361.0</ele><time>2026-04-06T10:13:08.008Z</time></trkpt><trkpt lat="44.1147244" lon="12.0058996"><ele>363.66666666666663</ele><time>2026-04-06T10:13:09.011Z</time></trkpt><trkpt lat="44.1147238" lon="12.0061749"><ele>366.3333333333333</ele><time>2026-04-06T10:13:10.007Z</time></trkpt><trkpt lat="44.1147194" lon="12.006451"><ele>369.0</ele><time>2026-04-06T10:13:11.009Z</time></trkpt><trkpt lat="44.1147187" lon="12.0067186"><ele>369.6666666666667</ele><time>2026-04-06T10:13:12.007Z</time></trkpt><trkpt lat="44.1147253" lon="12.0069675"><ele>370.33333333333337</ele><time>2026-04-06T10:13:13.008Z</time></trkpt><trkpt lat="44.1147227" lon="12.0071947"><ele>371.0</ele><time>2026-04-06T10:13:14.007Z</time></trkpt><trkpt lat="44.1147224" lon="12.0073919"><ele>368.0</ele><time>2026-04-06T10:13:15.007Z</time></trkpt><trkpt lat="44.1147026" lon="12.0075606"><ele>365.0</ele><time>2026-04-06T10:13:16.011Z</time></trkpt><trkpt lat="44.1146526" lon="12.0077034"><ele>362.0</ele><time>2026-04-06T10:13:17.006Z</time></trkpt><trkpt lat="44.1145639" lon="12.0078104"><ele>359.0</ele><time>2026-04-06T10:13:18.007Z</time></trkpt><trkpt lat="44.1144448" lon="12.0078905"><ele>359.0</ele><time>2026-04-06T10:13:19.009Z</time></trkpt><trkpt lat="44.1143103" lon="12.0079737"><ele>359.0</ele><time>2026-04-06T10:13:20.009Z</time></trkpt><trkpt lat="44.1141811" lon="12.0080866"><ele>359.0</ele><time>2026-04-06T10:13:21.006Z</time></trkpt><trkpt lat="44.1140531" lon="12.0082407"><ele>360.33333333333337</ele><time>2026-04-06T10:13:22.007Z</time></trkpt><trkpt lat="44.1139358" lon="12.0084246"><ele>361.6666666666667</ele><time>2026-04-06T10:13:23.006Z</time></trkpt><trkpt lat="44.1138203" lon="12.008635"><ele>363.0</ele><time>2026-04-06T10:13:24.007Z</time></trkpt><trkpt lat="44.1137137" lon="12.0088555"><ele>363.0</ele><time>2026-04-06T10:13:25.007Z</time></trkpt><trkpt lat="44.1136242" lon="12.0090858"><ele>363.0</ele><time>2026-04-06T10:13:26.008Z</time></trkpt><trkpt lat="44.1135493" lon="12.0093193"><ele>363.0</ele><time>2026-04-06T10:13:27.007Z</time></trkpt><trkpt lat="44.1134865" lon="12.0095367"><ele>361.0</ele><time>2026-04-06T10:13:28.008Z</time></trkpt><trkpt lat="44.1134404" lon="12.0097257"><ele>359.0</ele><time>2026-04-06T10:13:29.011Z</time></trkpt><trkpt lat="44.113419" lon="12.0098958"><ele>357.0</ele><time>2026-04-06T10:13:30.008Z</time></trkpt><trkpt lat="44.1134246" lon="12.0100504"><ele>355.0</ele><time>2026-04-06T10:13:31.008Z</time></trkpt><trkpt lat="44.1134716" lon="12.0101822"><ele>354.2</ele><time>2026-04-06T10:13:32.006Z</time></trkpt><trkpt lat="44.1135482" lon="12.0102951"><ele>353.4</ele><time>2026-04-06T10:13:33.007Z</time></trkpt><trkpt lat="44.1136379" lon="12.0104005"><ele>352.6</ele><time>2026-04-06T10:13:34.007Z</time></trkpt><trkpt lat="44.1137201" lon="12.0105037"><ele>351.8</ele><time>2026-04-06T10:13:35.008Z</time></trkpt><trkpt lat="44.1137783" lon="12.0106193"><ele>351.0</ele><time>2026-04-06T10:13:36.006Z</time></trkpt><trkpt lat="44.1138" lon="12.0107512"><ele>351.6</ele><time>2026-04-06T10:13:37.005Z</time></trkpt><trkpt lat="44.1137863" lon="12.0109027"><ele>352.20000000000005</ele><time>2026-04-06T10:13:38.008Z</time></trkpt><trkpt lat="44.1137564" lon="12.0110556"><ele>352.79999999999995</ele><time>2026-04-06T10:13:39.007Z</time></trkpt><trkpt lat="44.1137189" lon="12.0111967"><ele>353.4</ele><time>2026-04-06T10:13:40.008Z</time></trkpt><trkpt lat="44.1137123" lon="12.0113255"><ele>354.0</ele><time>2026-04-06T10:13:41.006Z</time></trkpt><trkpt lat="44.113731" lon="12.0114505"><ele>354.0</ele><time>2026-04-06T10:13:42.01Z</time></trkpt><trkpt lat="44.1137878" lon="12.0115449"><ele>354.0</ele><time>2026-04-06T10:13:43.008Z</time></trkpt><trkpt lat="44.1138651" lon="12.0116184"><ele>354.0</ele><time>2026-04-06T10:13:44.007Z</time></trkpt><trkpt lat="44.1139568" lon="12.0116666"><ele>354.0</ele><time>2026-04-06T10:13:45.008Z</time></trkpt><trkpt lat="44.1140703" lon="12.011657"><ele>354.0</ele><time>2026-04-06T10:13:46.009Z</time></trkpt><trkpt lat="44.1141879" lon="12.0115934"><ele>352.2</ele><time>2026-04-06T10:13:47.006Z</time></trkpt><trkpt lat="44.1142851" lon="12.0115706"><ele>350.4</ele><time>2026-04-06T10:13:48.006Z</time></trkpt><trkpt lat="44.1143703" lon="12.0116038"><ele>348.6</ele><time>2026-04-06T10:13:49.007Z</time></trkpt><trkpt lat="44.1144464" lon="12.011666"><ele>346.8</ele><time>2026-04-06T10:13:50.006Z</time></trkpt><trkpt lat="44.1145023" lon="12.0117551"><ele>345.0</ele><time>2026-04-06T10:13:51.008Z</time></trkpt><trkpt lat="44.1145398" lon="12.0118831"><ele>345.0</ele><time>2026-04-06T10:13:52.008Z</time></trkpt><trkpt lat="44.1145787" lon="12.0120412"><ele>345.0</ele><time>2026-04-06T10:13:53.007Z</time></trkpt><trkpt lat="44.114602" lon="12.0122694"><ele>345.0</ele><time>2026-04-06T10:13:54.008Z</time></trkpt><trkpt lat="44.1146104" lon="12.0125104"><ele>346.25</ele><time>2026-04-06T10:13:55.007Z</time></trkpt><trkpt lat="44.114627" lon="12.0127275"><ele>347.5</ele><time>2026-04-06T10:13:56.008Z</time></trkpt><trkpt lat="44.1146501" lon="12.0129271"><ele>348.75</ele><time>2026-04-06T10:13:57.008Z</time></trkpt><trkpt lat="44.1146759" lon="12.0131077"><ele>350.0</ele><time>2026-04-06T10:13:58.007Z</time></trkpt><trkpt lat="44.1146987" lon="12.0132687"><ele>350.0</ele><time>2026-04-06T10:13:59.007Z</time></trkpt><trkpt lat="44.114716" lon="12.0134158"><ele>350.0</ele><time>2026-04-06T10:14:00.009Z</time></trkpt><trkpt lat="44.1147346" lon="12.0135534"><ele>350.0</ele><time>2026-04-06T10:14:01.008Z</time></trkpt><trkpt lat="44.114755" lon="12.013674"><ele>350.0</ele><time>2026-04-06T10:14:02.005Z</time></trkpt><trkpt lat="44.114765" lon="12.0137744"><ele>350.0</ele><time>2026-04-06T10:14:03.008Z</time></trkpt><trkpt lat="44.1147012" lon="12.0139216"><ele>350.0</ele><time>2026-04-06T10:14:05.008Z</time></trkpt><trkpt lat="44.1146425" lon="12.0139743"><ele>350.0</ele><time>2026-04-06T10:14:06.006Z</time></trkpt><trkpt lat="44.1145547" lon="12.0140438"><ele>350.0</ele><time>2026-04-06T10:14:07.008Z</time></trkpt><trkpt lat="44.114418" lon="12.0141363"><ele>350.0</ele><time>2026-04-06T10:14:08.007Z</time></trkpt><trkpt lat="44.1142759" lon="12.014245"><ele>348.33333333333337</ele><time>2026-04-06T10:14:09.009Z</time></trkpt><trkpt lat="44.1141437" lon="12.014358"><ele>346.6666666666667</ele><time>2026-04-06T10:14:10.007Z</time></trkpt><trkpt lat="44.1140159" lon="12.0144778"><ele>345.0</ele><time>2026-04-06T10:14:11.008Z</time></trkpt><trkpt lat="44.1138978" lon="12.0146155"><ele>347.3333333333333</ele><time>2026-04-06T10:14:12.007Z</time></trkpt><trkpt lat="44.1137879" lon="12.0147888"><ele>349.66666666666663</ele><time>2026-04-06T10:14:13.007Z</time></trkpt><trkpt lat="44.1136892" lon="12.0149783"><ele>352.0</ele><time>2026-04-06T10:14:14.008Z</time></trkpt><trkpt lat="44.1136026" lon="12.0151596"><ele>352.0</ele><time>2026-04-06T10:14:15.007Z</time></trkpt><trkpt lat="44.1135216" lon="12.0153248"><ele>352.0</ele><time>2026-04-06T10:14:16.006Z</time></trkpt><trkpt lat="44.1134371" lon="12.0154697"><ele>352.0</ele><time>2026-04-06T10:14:17.007Z</time></trkpt><trkpt lat="44.1133449" lon="12.0155896"><ele>352.0</ele><time>2026-04-06T10:14:18.006Z</time></trkpt><trkpt lat="44.1132377" lon="12.0156733"><ele>352.0</ele><time>2026-04-06T10:14:19.008Z</time></trkpt><trkpt lat="44.1131155" lon="12.0157213"><ele>352.0</ele><time>2026-04-06T10:14:20.006Z</time></trkpt><trkpt lat="44.1129966" lon="12.0157557"><ele>352.0</ele><time>2026-04-06T10:14:21.011Z</time></trkpt><trkpt lat="44.1128843" lon="12.0157869"><ele>352.0</ele><time>2026-04-06T10:14:22.008Z</time></trkpt><trkpt lat="44.1127771" lon="12.0158163"><ele>352.0</ele><time>2026-04-06T10:14:23.009Z</time></trkpt><trkpt lat="44.1126641" lon="12.0158396"><ele>352.0</ele><time>2026-04-06T10:14:24.007Z</time></trkpt><trkpt lat="44.1125425" lon="12.015828"><ele>352.0</ele><time>2026-04-06T10:14:25.009Z</time></trkpt><trkpt lat="44.1124115" lon="12.0157887"><ele>352.0</ele><time>2026-04-06T10:14:26.006Z</time></trkpt><trkpt lat="44.1122738" lon="12.0157354"><ele>350.75</ele><time>2026-04-06T10:14:27.006Z</time></trkpt><trkpt lat="44.1121387" lon="12.0156774"><ele>349.5</ele><time>2026-04-06T10:14:28.006Z</time></trkpt><trkpt lat="44.1120146" lon="12.0156322"><ele>348.25</ele><time>2026-04-06T10:14:29.006Z</time></trkpt><trkpt lat="44.1119132" lon="12.0155998"><ele>347.0</ele><time>2026-04-06T10:14:30.007Z</time></trkpt><trkpt lat="44.1118311" lon="12.01559"><ele>347.0</ele><time>2026-04-06T10:14:31.008Z</time></trkpt><trkpt lat="44.1117669" lon="12.015615"><ele>347.0</ele><time>2026-04-06T10:14:32.009Z</time></trkpt><trkpt lat="44.1117127" lon="12.0157721"><ele>347.0</ele><time>2026-04-06T10:14:34.008Z</time></trkpt><trkpt lat="44.1117726" lon="12.0159049"><ele>347.0</ele><time>2026-04-06T10:14:35.008Z</time></trkpt><trkpt lat="44.1118716" lon="12.0160794"><ele>343.33333333333337</ele><time>2026-04-06T10:14:36.009Z</time></trkpt><trkpt lat="44.111939" lon="12.01628"><ele>339.6666666666667</ele><time>2026-04-06T10:14:37.012Z</time></trkpt><trkpt lat="44.1120236" lon="12.0164939"><ele>336.0</ele><time>2026-04-06T10:14:38.007Z</time></trkpt><trkpt lat="44.1121086" lon="12.0167077"><ele>334.25</ele><time>2026-04-06T10:14:39.011Z</time></trkpt><trkpt lat="44.1121818" lon="12.0169072"><ele>332.5</ele><time>2026-04-06T10:14:40.008Z</time></trkpt><trkpt lat="44.1122549" lon="12.0170782"><ele>330.75</ele><time>2026-04-06T10:14:41.006Z</time></trkpt><trkpt lat="44.1123357" lon="12.0172337"><ele>329.0</ele><time>2026-04-06T10:14:42.009Z</time></trkpt><trkpt lat="44.1124243" lon="12.0173829"><ele>325.6666666666667</ele><time>2026-04-06T10:14:43.008Z</time></trkpt><trkpt lat="44.1125334" lon="12.0175205"><ele>322.3333333333333</ele><time>2026-04-06T10:14:44.008Z</time></trkpt><trkpt lat="44.1126646" lon="12.0176398"><ele>319.0</ele><time>2026-04-06T10:14:45.007Z</time></trkpt><trkpt lat="44.1128053" lon="12.0177384"><ele>319.0</ele><time>2026-04-06T10:14:46.007Z</time></trkpt><trkpt lat="44.1129347" lon="12.0178394"><ele>319.0</ele><time>2026-04-06T10:14:47.008Z</time></trkpt><trkpt lat="44.1130519" lon="12.0179501"><ele>319.0</ele><time>2026-04-06T10:14:48.007Z</time></trkpt><trkpt lat="44.1131551" lon="12.0180754"><ele>319.0</ele><time>2026-04-06T10:14:49.012Z</time></trkpt><trkpt lat="44.1132439" lon="12.0182237"><ele>317.5</ele><time>2026-04-06T10:14:50.008Z</time></trkpt><trkpt lat="44.1133306" lon="12.0183878"><ele>316.0</ele><time>2026-04-06T10:14:51.008Z</time></trkpt><trkpt lat="44.1134133" lon="12.018559"><ele>314.5</ele><time>2026-04-06T10:14:52.008Z</time></trkpt><trkpt lat="44.1134866" lon="12.018735"><ele>313.0</ele><time>2026-04-06T10:14:53.006Z</time></trkpt><trkpt lat="44.113547" lon="12.0189189"><ele>313.0</ele><time>2026-04-06T10:14:54.007Z</time></trkpt><trkpt lat="44.1136029" lon="12.0191048"><ele>313.0</ele><time>2026-04-06T10:14:55.01Z</time></trkpt><trkpt lat="44.113653" lon="12.0192875"><ele>313.0</ele><time>2026-04-06T10:14:56.006Z</time></trkpt><trkpt lat="44.1136996" lon="12.019455"><ele>313.0</ele><time>2026-04-06T10:14:57.008Z</time></trkpt><trkpt lat="44.1137447" lon="12.0196018"><ele>311.0</ele><time>2026-04-06T10:14:58.006Z</time></trkpt><trkpt lat="44.1137966" lon="12.0197219"><ele>309.0</ele><time>2026-04-06T10:14:59.006Z</time></trkpt><trkpt lat="44.1138621" lon="12.0198073"><ele>307.0</ele><time>2026-04-06T10:15:00.007Z</time></trkpt><trkpt lat="44.1139307" lon="12.0198679"><ele>305.0</ele><time>2026-04-06T10:15:01.007Z</time></trkpt><trkpt lat="44.1140046" lon="12.0199076"><ele>303.0</ele><time>2026-04-06T10:15:02.011Z</time></trkpt><trkpt lat="44.1140941" lon="12.0199109"><ele>301.0</ele><time>2026-04-06T10:15:03.008Z</time></trkpt><trkpt lat="44.1141793" lon="12.0199379"><ele>299.2</ele><time>2026-04-06T10:15:04.006Z</time></trkpt><trkpt lat="44.1142613" lon="12.0199849"><ele>297.40000000000003</ele><time>2026-04-06T10:15:05.006Z</time></trkpt><trkpt lat="44.1143217" lon="12.0200701"><ele>295.6</ele><time>2026-04-06T10:15:06.01Z</time></trkpt><trkpt lat="44.1143538" lon="12.0202136"><ele>293.8</ele><time>2026-04-06T10:15:07.006Z</time></trkpt><trkpt lat="44.1143692" lon="12.0203962"><ele>292.0</ele><time>2026-04-06T10:15:08.005Z</time></trkpt><trkpt lat="44.1143724" lon="12.0205913"><ele>292.0</ele><time>2026-04-06T10:15:09.007Z</time></trkpt><trkpt lat="44.1143658" lon="12.0207992"><ele>292.0</ele><time>2026-04-06T10:15:10.007Z</time></trkpt><trkpt lat="44.1143696" lon="12.021016"><ele>292.0</ele><time>2026-04-06T10:15:11.006Z</time></trkpt><trkpt lat="44.1143894" lon="12.0212394"><ele>289.3333333333333</ele><time>2026-04-06T10:15:12.007Z</time></trkpt><trkpt lat="44.1144252" lon="12.0214747"><ele>286.6666666666667</ele><time>2026-04-06T10:15:13.007Z</time></trkpt><trkpt lat="44.1144704" lon="12.0217155"><ele>284.0</ele><time>2026-04-06T10:15:14.007Z</time></trkpt><trkpt lat="44.1145135" lon="12.0219689"><ele>281.33333333333337</ele><time>2026-04-06T10:15:15.007Z</time></trkpt><trkpt lat="44.1145493" lon="12.0222276"><ele>278.6666666666667</ele><time>2026-04-06T10:15:16.008Z</time></trkpt><trkpt lat="44.1145887" lon="12.0224763"><ele>276.0</ele><time>2026-04-06T10:15:17.006Z</time></trkpt><trkpt lat="44.1146282" lon="12.0227199"><ele>273.0</ele><time>2026-04-06T10:15:18.006Z</time></trkpt><trkpt lat="44.114679" lon="12.022951"><ele>270.0</ele><time>2026-04-06T10:15:19.007Z</time></trkpt><trkpt lat="44.1147288" lon="12.0231773"><ele>267.0</ele><time>2026-04-06T10:15:20.006Z</time></trkpt><trkpt lat="44.1147845" lon="12.0233979"><ele>269.3333333333333</ele><time>2026-04-06T10:15:21.007Z</time></trkpt><trkpt lat="44.1148402" lon="12.0236199"><ele>271.66666666666663</ele><time>2026-04-06T10:15:22.006Z</time></trkpt><trkpt lat="44.1148918" lon="12.023844"><ele>274.0</ele><time>2026-04-06T10:15:23.008Z</time></trkpt><trkpt lat="44.1149422" lon="12.02407"><ele>273.0</ele><time>2026-04-06T10:15:24.007Z</time></trkpt><trkpt lat="44.1149949" lon="12.0242981"><ele>272.0</ele><time>2026-04-06T10:15:25.011Z</time></trkpt><trkpt lat="44.1150456" lon="12.0245263"><ele>271.0</ele><time>2026-04-06T10:15:26.011Z</time></trkpt><trkpt lat="44.1151054" lon="12.0247527"><ele>271.0</ele><time>2026-04-06T10:15:27.007Z</time></trkpt><trkpt lat="44.1151802" lon="12.0249717"><ele>271.0</ele><time>2026-04-06T10:15:28.007Z</time></trkpt><trkpt lat="44.1152625" lon="12.02519"><ele>271.0</ele><time>2026-04-06T10:15:29.007Z</time></trkpt><trkpt lat="44.1153499" lon="12.025402"><ele>270.0</ele><time>2026-04-06T10:15:30.008Z</time></trkpt><trkpt lat="44.115439" lon="12.0256085"><ele>269.0</ele><time>2026-04-06T10:15:31.013Z</time></trkpt><trkpt lat="44.1155298" lon="12.0258123"><ele>268.0</ele><time>2026-04-06T10:15:32.006Z</time></trkpt><trkpt lat="44.1156126" lon="12.0260187"><ele>266.3333333333333</ele><time>2026-04-06T10:15:33.008Z</time></trkpt><trkpt lat="44.1156896" lon="12.0262207"><ele>264.6666666666667</ele><time>2026-04-06T10:15:34.006Z</time></trkpt><trkpt lat="44.1157576" lon="12.0264211"><ele>263.0</ele><time>2026-04-06T10:15:35.007Z</time></trkpt><trkpt lat="44.1158223" lon="12.026617"><ele>261.25</ele><time>2026-04-06T10:15:36.008Z</time></trkpt><trkpt lat="44.1158716" lon="12.0268118"><ele>259.5</ele><time>2026-04-06T10:15:37.009Z</time></trkpt><trkpt lat="44.1159139" lon="12.0270024"><ele>257.75</ele><time>2026-04-06T10:15:38.007Z</time></trkpt><trkpt lat="44.1159467" lon="12.0271867"><ele>256.0</ele><time>2026-04-06T10:15:39.006Z</time></trkpt><trkpt lat="44.1159627" lon="12.0273656"><ele>255.4</ele><time>2026-04-06T10:15:40.008Z</time></trkpt><trkpt lat="44.1159736" lon="12.0275257"><ele>254.8</ele><time>2026-04-06T10:15:41.006Z</time></trkpt><trkpt lat="44.1159867" lon="12.0276543"><ele>254.20000000000002</ele><time>2026-04-06T10:15:42.007Z</time></trkpt><trkpt lat="44.1160092" lon="12.0277503"><ele>253.60000000000002</ele><time>2026-04-06T10:15:43.007Z</time></trkpt><trkpt lat="44.1160849" lon="12.0278509"><ele>253.0</ele><time>2026-04-06T10:15:45.008Z</time></trkpt><trkpt lat="44.1161861" lon="12.0278209"><ele>253.0</ele><time>2026-04-06T10:15:47.009Z</time></trkpt><trkpt lat="44.1162177" lon="12.0276747"><ele>253.0</ele><time>2026-04-06T10:15:48.007Z</time></trkpt><trkpt lat="44.116224" lon="12.0274771"><ele>253.0</ele><time>2026-04-06T10:15:49.008Z</time></trkpt><trkpt lat="44.116244" lon="12.0272761"><ele>253.0</ele><time>2026-04-06T10:15:50.007Z</time></trkpt><trkpt lat="44.1162802" lon="12.027052"><ele>253.33333333333331</ele><time>2026-04-06T10:15:51.008Z</time></trkpt><trkpt lat="44.1163135" lon="12.0268054"><ele>253.66666666666669</ele><time>2026-04-06T10:15:52.009Z</time></trkpt><trkpt lat="44.1163488" lon="12.0265606"><ele>254.0</ele><time>2026-04-06T10:15:53.007Z</time></trkpt><trkpt lat="44.1163792" lon="12.0263357"><ele>254.0</ele><time>2026-04-06T10:15:54.006Z</time></trkpt><trkpt lat="44.1164049" lon="12.0261425"><ele>253.99999999999997</ele><time>2026-04-06T10:15:55.006Z</time></trkpt><trkpt lat="44.1164254" lon="12.0259847"><ele>253.99999999999997</ele><time>2026-04-06T10:15:56.007Z</time></trkpt><trkpt lat="44.1164496" lon="12.0258582"><ele>254.0</ele><time>2026-04-06T10:15:57.008Z</time></trkpt><trkpt lat="44.1164758" lon="12.0257566"><ele>254.0</ele><time>2026-04-06T10:15:58.009Z</time></trkpt><trkpt lat="44.1165241" lon="12.0256861"><ele>250.0</ele><time>2026-04-06T10:15:59.007Z</time></trkpt><trkpt lat="44.116645" lon="12.0257481"><ele>246.0</ele><time>2026-04-06T10:16:01.007Z</time></trkpt><trkpt lat="44.1166825" lon="12.0258674"><ele>242.0</ele><time>2026-04-06T10:16:02.01Z</time></trkpt><trkpt lat="44.116693" lon="12.0260308"><ele>238.0</ele><time>2026-04-06T10:16:03.006Z</time></trkpt><trkpt lat="44.1167096" lon="12.0262056"><ele>238.0</ele><time>2026-04-06T10:16:04.008Z</time></trkpt><trkpt lat="44.1167421" lon="12.0264027"><ele>238.0</ele><time>2026-04-06T10:16:05.006Z</time></trkpt><trkpt lat="44.1167831" lon="12.0266258"><ele>238.0</ele><time>2026-04-06T10:16:06.007Z</time></trkpt><trkpt lat="44.1168491" lon="12.0268568"><ele>238.33333333333331</ele><time>2026-04-06T10:16:07.006Z</time></trkpt><trkpt lat="44.1169198" lon="12.0270906"><ele>238.66666666666669</ele><time>2026-04-06T10:16:08.007Z</time></trkpt><trkpt lat="44.1169853" lon="12.0273163"><ele>239.0</ele><time>2026-04-06T10:16:09.007Z</time></trkpt><trkpt lat="44.1170349" lon="12.0275328"><ele>239.0</ele><time>2026-04-06T10:16:10.007Z</time></trkpt><trkpt lat="44.1170709" lon="12.0277303"><ele>238.99999999999997</ele><time>2026-04-06T10:16:11.008Z</time></trkpt><trkpt lat="44.1170935" lon="12.0278975"><ele>238.99999999999997</ele><time>2026-04-06T10:16:12.006Z</time></trkpt><trkpt lat="44.1171155" lon="12.028032"><ele>239.0</ele><time>2026-04-06T10:16:13.007Z</time></trkpt><trkpt lat="44.1171496" lon="12.0281278"><ele>239.0</ele><time>2026-04-06T10:16:14.006Z</time></trkpt><trkpt lat="44.1172625" lon="12.0281325"><ele>239.0</ele><time>2026-04-06T10:16:16.006Z</time></trkpt><trkpt lat="44.1173153" lon="12.0280806"><ele>238.99999999999997</ele><time>2026-04-06T10:16:17.007Z</time></trkpt><trkpt lat="44.117344" lon="12.0279402"><ele>238.99999999999997</ele><time>2026-04-06T10:16:18.008Z</time></trkpt><trkpt lat="44.1173621" lon="12.0277673"><ele>239.0</ele><time>2026-04-06T10:16:19.007Z</time></trkpt><trkpt lat="44.1174003" lon="12.0275805"><ele>239.0</ele><time>2026-04-06T10:16:20.01Z</time></trkpt><trkpt lat="44.1174106" lon="12.0273169"><ele>232.33333333333334</ele><time>2026-04-06T10:16:21.007Z</time></trkpt><trkpt lat="44.1174209" lon="12.0270435"><ele>225.66666666666669</ele><time>2026-04-06T10:16:22.007Z</time></trkpt><trkpt lat="44.1174417" lon="12.0267863"><ele>219.0</ele><time>2026-04-06T10:16:23.007Z</time></trkpt><trkpt lat="44.1174648" lon="12.0265435"><ele>219.0</ele><time>2026-04-06T10:16:24.007Z</time></trkpt><trkpt lat="44.1174885" lon="12.0263152"><ele>219.0</ele><time>2026-04-06T10:16:25.008Z</time></trkpt><trkpt lat="44.1175142" lon="12.0260982"><ele>219.0</ele><time>2026-04-06T10:16:26.007Z</time></trkpt><trkpt lat="44.1175445" lon="12.0258928"><ele>218.0</ele><time>2026-04-06T10:16:27.012Z</time></trkpt><trkpt lat="44.1175699" lon="12.0256989"><ele>217.0</ele><time>2026-04-06T10:16:28.007Z</time></trkpt><trkpt lat="44.1175966" lon="12.0255278"><ele>216.0</ele><time>2026-04-06T10:16:29.007Z</time></trkpt><trkpt lat="44.1176206" lon="12.0253862"><ele>215.0</ele><time>2026-04-06T10:16:30.006Z</time></trkpt><trkpt lat="44.1176603" lon="12.025275"><ele>215.0</ele><time>2026-04-06T10:16:31.008Z</time></trkpt><trkpt lat="44.1177312" lon="12.0252075"><ele>215.0</ele><time>2026-04-06T10:16:32.007Z</time></trkpt><trkpt lat="44.1178149" lon="12.0251852"><ele>215.0</ele><time>2026-04-06T10:16:33.007Z</time></trkpt><trkpt lat="44.1178929" lon="12.0252251"><ele>215.0</ele><time>2026-04-06T10:16:34.007Z</time></trkpt><trkpt lat="44.1179579" lon="12.0253477"><ele>215.0</ele><time>2026-04-06T10:16:35.006Z</time></trkpt><trkpt lat="44.1180245" lon="12.0255099"><ele>215.0</ele><time>2026-04-06T10:16:36.007Z</time></trkpt><trkpt lat="44.1180902" lon="12.0257151"><ele>215.0</ele><time>2026-04-06T10:16:37.008Z</time></trkpt><trkpt lat="44.1181652" lon="12.0259307"><ele>215.0</ele><time>2026-04-06T10:16:38.008Z</time></trkpt><trkpt lat="44.1182522" lon="12.0261582"><ele>211.33333333333334</ele><time>2026-04-06T10:16:39.009Z</time></trkpt><trkpt lat="44.1183513" lon="12.0263977"><ele>207.66666666666669</ele><time>2026-04-06T10:16:40.008Z</time></trkpt><trkpt lat="44.1184567" lon="12.0266393"><ele>204.0</ele><time>2026-04-06T10:16:41.007Z</time></trkpt><trkpt lat="44.1185496" lon="12.0268821"><ele>202.66666666666669</ele><time>2026-04-06T10:16:42.007Z</time></trkpt><trkpt lat="44.1186414" lon="12.0271135"><ele>201.33333333333334</ele><time>2026-04-06T10:16:43.007Z</time></trkpt><trkpt lat="44.118728" lon="12.0273364"><ele>200.0</ele><time>2026-04-06T10:16:44.007Z</time></trkpt><trkpt lat="44.1188107" lon="12.0275559"><ele>200.0</ele><time>2026-04-06T10:16:45.01Z</time></trkpt><trkpt lat="44.1188947" lon="12.0277625"><ele>200.0</ele><time>2026-04-06T10:16:46.008Z</time></trkpt><trkpt lat="44.118979" lon="12.0279629"><ele>200.0</ele><time>2026-04-06T10:16:47.006Z</time></trkpt><trkpt lat="44.1190567" lon="12.0281721"><ele>195.66666666666669</ele><time>2026-04-06T10:16:48.008Z</time></trkpt><trkpt lat="44.1191228" lon="12.0283912"><ele>191.33333333333334</ele><time>2026-04-06T10:16:49.01Z</time></trkpt><trkpt lat="44.119173" lon="12.0286092"><ele>187.0</ele><time>2026-04-06T10:16:50.007Z</time></trkpt><trkpt lat="44.119205" lon="12.0288155"><ele>187.0</ele><time>2026-04-06T10:16:51.009Z</time></trkpt><trkpt lat="44.1192275" lon="12.0289958"><ele>187.0</ele><time>2026-04-06T10:16:52.007Z</time></trkpt><trkpt lat="44.1192591" lon="12.0291436"><ele>187.0</ele><time>2026-04-06T10:16:53.008Z</time></trkpt><trkpt lat="44.1193144" lon="12.0292549"><ele>187.0</ele><time>2026-04-06T10:16:54.009Z</time></trkpt><trkpt lat="44.1193913" lon="12.0293237"><ele>187.0</ele><time>2026-04-06T10:16:55.008Z</time></trkpt><trkpt lat="44.1194791" lon="12.0293358"><ele>186.5</ele><time>2026-04-06T10:16:56.008Z</time></trkpt><trkpt lat="44.1195758" lon="12.0293041"><ele>186.0</ele><time>2026-04-06T10:16:57.009Z</time></trkpt><trkpt lat="44.119688" lon="12.0292352"><ele>185.5</ele><time>2026-04-06T10:16:58.008Z</time></trkpt><trkpt lat="44.119812" lon="12.0291425"><ele>185.0</ele><time>2026-04-06T10:16:59.008Z</time></trkpt><trkpt lat="44.1199404" lon="12.0290379"><ele>184.25</ele><time>2026-04-06T10:17:00.009Z</time></trkpt><trkpt lat="44.1200698" lon="12.028935"><ele>183.5</ele><time>2026-04-06T10:17:01.01Z</time></trkpt><trkpt lat="44.1201921" lon="12.028845"><ele>182.75</ele><time>2026-04-06T10:17:02.007Z</time></trkpt><trkpt lat="44.1203072" lon="12.0287808"><ele>182.0</ele><time>2026-04-06T10:17:03.01Z</time></trkpt><trkpt lat="44.1204107" lon="12.0287513"><ele>182.0</ele><time>2026-04-06T10:17:04.008Z</time></trkpt><trkpt lat="44.1205074" lon="12.028769"><ele>182.0</ele><time>2026-04-06T10:17:05.008Z</time></trkpt><trkpt lat="44.1205923" lon="12.02884"><ele>182.0</ele><time>2026-04-06T10:17:06.008Z</time></trkpt><trkpt lat="44.1206624" lon="12.0289721"><ele>182.0</ele><time>2026-04-06T10:17:07.008Z</time></trkpt><trkpt lat="44.1207267" lon="12.0291468"><ele>180.0</ele><time>2026-04-06T10:17:08.008Z</time></trkpt><trkpt lat="44.1207845" lon="12.0293491"><ele>178.0</ele><time>2026-04-06T10:17:09.008Z</time></trkpt><trkpt lat="44.1208302" lon="12.0295569"><ele>176.0</ele><time>2026-04-06T10:17:10.01Z</time></trkpt><trkpt lat="44.1208579" lon="12.0297653"><ele>173.66666666666666</ele><time>2026-04-06T10:17:11.009Z</time></trkpt><trkpt lat="44.1208704" lon="12.0299811"><ele>171.33333333333334</ele><time>2026-04-06T10:17:12.009Z</time></trkpt><trkpt lat="44.1208746" lon="12.03021"><ele>169.0</ele><time>2026-04-06T10:17:13.008Z</time></trkpt><trkpt lat="44.1208729" lon="12.030446"><ele>169.0</ele><time>2026-04-06T10:17:14.007Z</time></trkpt><trkpt lat="44.1208613" lon="12.0306875"><ele>169.0</ele><time>2026-04-06T10:17:15.008Z</time></trkpt><trkpt lat="44.120838" lon="12.0309316"><ele>169.0</ele><time>2026-04-06T10:17:16.008Z</time></trkpt><trkpt lat="44.1208058" lon="12.0311692"><ele>169.0</ele><time>2026-04-06T10:17:17.009Z</time></trkpt><trkpt lat="44.1207686" lon="12.0313954"><ele>169.0</ele><time>2026-04-06T10:17:18.008Z</time></trkpt><trkpt lat="44.1207252" lon="12.0316037"><ele>169.0</ele><time>2026-04-06T10:17:19.01Z</time></trkpt><trkpt lat="44.1206851" lon="12.0317892"><ele>168.0</ele><time>2026-04-06T10:17:20.007Z</time></trkpt><trkpt lat="44.120652" lon="12.0319492"><ele>167.0</ele><time>2026-04-06T10:17:21.01Z</time></trkpt><trkpt lat="44.1206286" lon="12.0320857"><ele>166.0</ele><time>2026-04-06T10:17:22.007Z</time></trkpt><trkpt lat="44.1206306" lon="12.0322033"><ele>165.0</ele><time>2026-04-06T10:17:23.007Z</time></trkpt><trkpt lat="44.1206555" lon="12.0322957"><ele>164.0</ele><time>2026-04-06T10:17:24.008Z</time></trkpt><trkpt lat="44.1207792" lon="12.0323404"><ele>161.25</ele><time>2026-04-06T10:17:26.009Z</time></trkpt><trkpt lat="44.120876" lon="12.0322965"><ele>158.5</ele><time>2026-04-06T10:17:27.008Z</time></trkpt><trkpt lat="44.1209858" lon="12.0322504"><ele>155.75</ele><time>2026-04-06T10:17:28.01Z</time></trkpt><trkpt lat="44.1211096" lon="12.0322397"><ele>153.0</ele><time>2026-04-06T10:17:29.008Z</time></trkpt><trkpt lat="44.1212315" lon="12.0322785"><ele>153.0</ele><time>2026-04-06T10:17:30.009Z</time></trkpt><trkpt lat="44.1213449" lon="12.0323816"><ele>153.0</ele><time>2026-04-06T10:17:31.009Z</time></trkpt><trkpt lat="44.1214569" lon="12.0325164"><ele>153.0</ele><time>2026-04-06T10:17:32.093Z</time></trkpt><trkpt lat="44.1215625" lon="12.0326402"><ele>153.0</ele><time>2026-04-06T10:17:33.009Z</time></trkpt><trkpt lat="44.1216679" lon="12.0327629"><ele>151.20000000000002</ele><time>2026-04-06T10:17:34.009Z</time></trkpt><trkpt lat="44.1217606" lon="12.032868"><ele>149.4</ele><time>2026-04-06T10:17:35.007Z</time></trkpt><trkpt lat="44.1218262" lon="12.0329718"><ele>147.60000000000002</ele><time>2026-04-06T10:17:36.009Z</time></trkpt><trkpt lat="44.1218466" lon="12.0330901"><ele>145.8</ele><time>2026-04-06T10:17:37.011Z</time></trkpt><trkpt lat="44.1218406" lon="12.0332044"><ele>144.0</ele><time>2026-04-06T10:17:38.009Z</time></trkpt><trkpt lat="44.1218081" lon="12.0333177"><ele>144.5</ele><time>2026-04-06T10:17:39.008Z</time></trkpt><trkpt lat="44.1217269" lon="12.0334336"><ele>145.0</ele><time>2026-04-06T10:17:40.007Z</time></trkpt><trkpt lat="44.1216136" lon="12.0335565"><ele>145.5</ele><time>2026-04-06T10:17:41.007Z</time></trkpt><trkpt lat="44.1215162" lon="12.0336984"><ele>146.0</ele><time>2026-04-06T10:17:42.008Z</time></trkpt><trkpt lat="44.1214454" lon="12.0338352"><ele>146.0</ele><time>2026-04-06T10:17:43.007Z</time></trkpt><trkpt lat="44.1214045" lon="12.0339553"><ele>146.0</ele><time>2026-04-06T10:17:44.009Z</time></trkpt><trkpt lat="44.121388" lon="12.0340664"><ele>146.0</ele><time>2026-04-06T10:17:45.01Z</time></trkpt><trkpt lat="44.1213958" lon="12.0341627"><ele>146.0</ele><time>2026-04-06T10:17:46.007Z</time></trkpt><trkpt lat="44.1215067" lon="12.0342129"><ele>146.0</ele><time>2026-04-06T10:17:48.008Z</time></trkpt><trkpt lat="44.1215992" lon="12.0341325"><ele>144.2</ele><time>2026-04-06T10:17:49.086Z</time></trkpt><trkpt lat="44.1216864" lon="12.0340626"><ele>142.39999999999998</ele><time>2026-04-06T10:17:50.007Z</time></trkpt><trkpt lat="44.1217954" lon="12.0340247"><ele>140.6</ele><time>2026-04-06T10:17:51.008Z</time></trkpt><trkpt lat="44.1219086" lon="12.0340198"><ele>138.79999999999998</ele><time>2026-04-06T10:17:52.007Z</time></trkpt><trkpt lat="44.1220214" lon="12.0340547"><ele>137.0</ele><time>2026-04-06T10:17:53.007Z</time></trkpt><trkpt lat="44.122123" lon="12.0341277"><ele>135.0</ele><time>2026-04-06T10:17:54.008Z</time></trkpt><trkpt lat="44.1222134" lon="12.0342422"><ele>133.0</ele><time>2026-04-06T10:17:55.008Z</time></trkpt><trkpt lat="44.1222913" lon="12.034396"><ele>131.0</ele><time>2026-04-06T10:17:56.008Z</time></trkpt><trkpt lat="44.1223557" lon="12.0345831"><ele>129.0</ele><time>2026-04-06T10:17:57.008Z</time></trkpt><trkpt lat="44.1224079" lon="12.0347829"><ele>127.0</ele><time>2026-04-06T10:17:58.008Z</time></trkpt><trkpt lat="44.1224462" lon="12.0349794"><ele>125.0</ele><time>2026-04-06T10:17:59.006Z</time></trkpt><trkpt lat="44.1224749" lon="12.0351566"><ele>123.0</ele><time>2026-04-06T10:18:00.007Z</time></trkpt><trkpt lat="44.1224865" lon="12.0353151"><ele>121.0</ele><time>2026-04-06T10:18:01.008Z</time></trkpt><trkpt lat="44.1224767" lon="12.0354665"><ele>121.0</ele><time>2026-04-06T10:18:02.006Z</time></trkpt><trkpt lat="44.1224306" lon="12.0356145"><ele>121.0</ele><time>2026-04-06T10:18:03.006Z</time></trkpt><trkpt lat="44.1223555" lon="12.0357639"><ele>121.0</ele><time>2026-04-06T10:18:04.006Z</time></trkpt><trkpt lat="44.1222724" lon="12.0359229"><ele>121.0</ele><time>2026-04-06T10:18:05.007Z</time></trkpt><trkpt lat="44.1221851" lon="12.0360852"><ele>119.25</ele><time>2026-04-06T10:18:06.007Z</time></trkpt><trkpt lat="44.1220989" lon="12.0362412"><ele>117.5</ele><time>2026-04-06T10:18:07.008Z</time></trkpt><trkpt lat="44.1220245" lon="12.0363793"><ele>115.75</ele><time>2026-04-06T10:18:08.009Z</time></trkpt><trkpt lat="44.1219558" lon="12.036493"><ele>114.0</ele><time>2026-04-06T10:18:09.008Z</time></trkpt><trkpt lat="44.1218757" lon="12.0365739"><ele>114.0</ele><time>2026-04-06T10:18:10.007Z</time></trkpt><trkpt lat="44.1217891" lon="12.036616"><ele>114.0</ele><time>2026-04-06T10:18:11.008Z</time></trkpt><trkpt lat="44.1216976" lon="12.036606"><ele>114.0</ele><time>2026-04-06T10:18:12.007Z</time></trkpt><trkpt lat="44.1216104" lon="12.0366005"><ele>114.0</ele><time>2026-04-06T10:18:13.006Z</time></trkpt><trkpt lat="44.1215317" lon="12.0366265"><ele>114.0</ele><time>2026-04-06T10:18:14.007Z</time></trkpt><trkpt lat="44.1214802" lon="12.0367032"><ele>114.0</ele><time>2026-04-06T10:18:15.006Z</time></trkpt><trkpt lat="44.1214411" lon="12.036829"><ele>114.0</ele><time>2026-04-06T10:18:16.008Z</time></trkpt><trkpt lat="44.1213937" lon="12.0369497"><ele>114.0</ele><time>2026-04-06T10:18:17.008Z</time></trkpt><trkpt lat="44.1213274" lon="12.037072"><ele>114.0</ele><time>2026-04-06T10:18:18.008Z</time></trkpt><trkpt lat="44.1212597" lon="12.0372113"><ele>114.0</ele><time>2026-04-06T10:18:19.007Z</time></trkpt><trkpt lat="44.1211756" lon="12.0373627"><ele>110.33333333333334</ele><time>2026-04-06T10:18:20.009Z</time></trkpt><trkpt lat="44.1210748" lon="12.0375281"><ele>106.66666666666667</ele><time>2026-04-06T10:18:21.007Z</time></trkpt><trkpt lat="44.1209658" lon="12.0377276"><ele>103.0</ele><time>2026-04-06T10:18:22.006Z</time></trkpt><trkpt lat="44.1208575" lon="12.0379627"><ele>103.0</ele><time>2026-04-06T10:18:23.007Z</time></trkpt><trkpt lat="44.1207502" lon="12.0382308"><ele>103.0</ele><time>2026-04-06T10:18:24.007Z</time></trkpt><trkpt lat="44.1206377" lon="12.0385014"><ele>103.0</ele><time>2026-04-06T10:18:25.011Z</time></trkpt><trkpt lat="44.1205302" lon="12.038764"><ele>102.0</ele><time>2026-04-06T10:18:26.007Z</time></trkpt><trkpt lat="44.1204261" lon="12.0390087"><ele>101.0</ele><time>2026-04-06T10:18:27.007Z</time></trkpt><trkpt lat="44.1203328" lon="12.0392429"><ele>100.0</ele><time>2026-04-06T10:18:28.007Z</time></trkpt><trkpt lat="44.1202515" lon="12.0394487"><ele>100.0</ele><time>2026-04-06T10:18:29.007Z</time></trkpt><trkpt lat="44.120189" lon="12.0396378"><ele>100.0</ele><time>2026-04-06T10:18:30.008Z</time></trkpt><trkpt lat="44.120136" lon="12.0398325"><ele>100.0</ele><time>2026-04-06T10:18:31.007Z</time></trkpt><trkpt lat="44.1201157" lon="12.0400419"><ele>98.0</ele><time>2026-04-06T10:18:32.009Z</time></trkpt><trkpt lat="44.1201211" lon="12.0402717"><ele>96.0</ele><time>2026-04-06T10:18:33.008Z</time></trkpt><trkpt lat="44.1201344" lon="12.0405132"><ele>94.0</ele><time>2026-04-06T10:18:34.008Z</time></trkpt><trkpt lat="44.1201463" lon="12.0407689"><ele>94.0</ele><time>2026-04-06T10:18:35.011Z</time></trkpt><trkpt lat="44.1201533" lon="12.041034"><ele>94.0</ele><time>2026-04-06T10:18:36.007Z</time></trkpt><trkpt lat="44.1201638" lon="12.0413073"><ele>94.0</ele><time>2026-04-06T10:18:37.008Z</time></trkpt><trkpt lat="44.120174" lon="12.0415838"><ele>93.66666666666666</ele><time>2026-04-06T10:18:38.007Z</time></trkpt><trkpt lat="44.1201844" lon="12.0418545"><ele>93.33333333333333</ele><time>2026-04-06T10:18:39.008Z</time></trkpt><trkpt lat="44.1201687" lon="12.0421228"><ele>93.0</ele><time>2026-04-06T10:18:40.008Z</time></trkpt><trkpt lat="44.1201216" lon="12.0423863"><ele>92.0</ele><time>2026-04-06T10:18:41.007Z</time></trkpt><trkpt lat="44.1200432" lon="12.0426475"><ele>91.0</ele><time>2026-04-06T10:18:42.007Z</time></trkpt><trkpt lat="44.1199458" lon="12.0429032"><ele>90.0</ele><time>2026-04-06T10:18:43.008Z</time></trkpt><trkpt lat="44.1198478" lon="12.0431537"><ele>91.0</ele><time>2026-04-06T10:18:44.006Z</time></trkpt><trkpt lat="44.1197538" lon="12.0434015"><ele>92.0</ele><time>2026-04-06T10:18:45.006Z</time></trkpt><trkpt lat="44.1196635" lon="12.0436504"><ele>93.0</ele><time>2026-04-06T10:18:46.008Z</time></trkpt><trkpt lat="44.1195755" lon="12.0439056"><ele>92.33333333333333</ele><time>2026-04-06T10:18:47.008Z</time></trkpt><trkpt lat="44.1194927" lon="12.0441625"><ele>91.66666666666666</ele><time>2026-04-06T10:18:48.009Z</time></trkpt><trkpt lat="44.1194218" lon="12.0444165"><ele>91.0</ele><time>2026-04-06T10:18:49.009Z</time></trkpt><trkpt lat="44.1193492" lon="12.0446529"><ele>91.0</ele><time>2026-04-06T10:18:50.01Z</time></trkpt><trkpt lat="44.1192771" lon="12.0448806"><ele>91.0</ele><time>2026-04-06T10:18:51.009Z</time></trkpt><trkpt lat="44.1191931" lon="12.0450947"><ele>91.0</ele><time>2026-04-06T10:18:52.007Z</time></trkpt><trkpt lat="44.1190928" lon="12.0452982"><ele>91.66666666666666</ele><time>2026-04-06T10:18:53.007Z</time></trkpt><trkpt lat="44.1189838" lon="12.0454933"><ele>92.33333333333333</ele><time>2026-04-06T10:18:54.007Z</time></trkpt><trkpt lat="44.1188921" lon="12.045694"><ele>93.0</ele><time>2026-04-06T10:18:55.008Z</time></trkpt><trkpt lat="44.1188438" lon="12.0459095"><ele>93.0</ele><time>2026-04-06T10:18:56.01Z</time></trkpt><trkpt lat="44.1188254" lon="12.0461401"><ele>93.0</ele><time>2026-04-06T10:18:57.007Z</time></trkpt><trkpt lat="44.1188178" lon="12.0463496"><ele>93.0</ele><time>2026-04-06T10:18:58.006Z</time></trkpt><trkpt lat="44.1188089" lon="12.0465381"><ele>91.75</ele><time>2026-04-06T10:18:59.006Z</time></trkpt><trkpt lat="44.1187763" lon="12.0467189"><ele>90.5</ele><time>2026-04-06T10:19:00.007Z</time></trkpt><trkpt lat="44.1187156" lon="12.046899"><ele>89.25</ele><time>2026-04-06T10:19:01.01Z</time></trkpt><trkpt lat="44.1186265" lon="12.0470862"><ele>88.0</ele><time>2026-04-06T10:19:02.011Z</time></trkpt><trkpt lat="44.1185406" lon="12.047269"><ele>88.0</ele><time>2026-04-06T10:19:03.008Z</time></trkpt><trkpt lat="44.1184746" lon="12.047459"><ele>88.0</ele><time>2026-04-06T10:19:04.006Z</time></trkpt><trkpt lat="44.1184272" lon="12.0476658"><ele>88.0</ele><time>2026-04-06T10:19:05.009Z</time></trkpt><trkpt lat="44.1183916" lon="12.0478912"><ele>86.33333333333333</ele><time>2026-04-06T10:19:06.01Z</time></trkpt><trkpt lat="44.1183664" lon="12.0481411"><ele>84.66666666666667</ele><time>2026-04-06T10:19:07.007Z</time></trkpt><trkpt lat="44.1183427" lon="12.0484087"><ele>83.0</ele><time>2026-04-06T10:19:08.006Z</time></trkpt><trkpt lat="44.1183138" lon="12.0486891"><ele>82.66666666666667</ele><time>2026-04-06T10:19:09.007Z</time></trkpt><trkpt lat="44.1182844" lon="12.0489797"><ele>82.33333333333333</ele><time>2026-04-06T10:19:10.008Z</time></trkpt><trkpt lat="44.1182551" lon="12.0492711"><ele>82.0</ele><time>2026-04-06T10:19:11.007Z</time></trkpt><trkpt lat="44.1182146" lon="12.0495585"><ele>83.0</ele><time>2026-04-06T10:19:12.007Z</time></trkpt><trkpt lat="44.1181622" lon="12.049834"><ele>84.0</ele><time>2026-04-06T10:19:13.007Z</time></trkpt><trkpt lat="44.1181079" lon="12.0500882"><ele>85.0</ele><time>2026-04-06T10:19:14.006Z</time></trkpt><trkpt lat="44.1180507" lon="12.0503276"><ele>85.0</ele><time>2026-04-06T10:19:15.012Z</time></trkpt><trkpt lat="44.1179974" lon="12.0505424"><ele>85.0</ele><time>2026-04-06T10:19:16.007Z</time></trkpt><trkpt lat="44.1179536" lon="12.0507442"><ele>85.0</ele><time>2026-04-06T10:19:17.008Z</time></trkpt><trkpt lat="44.1179366" lon="12.0509539"><ele>83.0</ele><time>2026-04-06T10:19:18.007Z</time></trkpt><trkpt lat="44.1179488" lon="12.0511797"><ele>81.0</ele><time>2026-04-06T10:19:19.008Z</time></trkpt><trkpt lat="44.117963" lon="12.0514231"><ele>79.0</ele><time>2026-04-06T10:19:20.008Z</time></trkpt><trkpt lat="44.1179822" lon="12.0516783"><ele>78.66666666666666</ele><time>2026-04-06T10:19:21.007Z</time></trkpt><trkpt lat="44.1180006" lon="12.0519277"><ele>78.33333333333333</ele><time>2026-04-06T10:19:22.009Z</time></trkpt><trkpt lat="44.1180186" lon="12.0521706"><ele>78.0</ele><time>2026-04-06T10:19:23.007Z</time></trkpt><trkpt lat="44.1180388" lon="12.0524126"><ele>77.66666666666667</ele><time>2026-04-06T10:19:24.007Z</time></trkpt><trkpt lat="44.1180569" lon="12.052657"><ele>77.33333333333334</ele><time>2026-04-06T10:19:25.008Z</time></trkpt><trkpt lat="44.1180806" lon="12.0529051"><ele>77.0</ele><time>2026-04-06T10:19:26.008Z</time></trkpt><trkpt lat="44.1180992" lon="12.053159"><ele>76.33333333333334</ele><time>2026-04-06T10:19:27.007Z</time></trkpt><trkpt lat="44.1181215" lon="12.0534145"><ele>75.66666666666667</ele><time>2026-04-06T10:19:28.006Z</time></trkpt><trkpt lat="44.1181449" lon="12.0536716"><ele>75.0</ele><time>2026-04-06T10:19:29.008Z</time></trkpt><trkpt lat="44.1181745" lon="12.053931"><ele>75.0</ele><time>2026-04-06T10:19:30.006Z</time></trkpt><trkpt lat="44.1182135" lon="12.0541844"><ele>75.0</ele><time>2026-04-06T10:19:31.011Z</time></trkpt><trkpt lat="44.1182558" lon="12.0544343"><ele>75.0</ele><time>2026-04-06T10:19:32.009Z</time></trkpt><trkpt lat="44.1183022" lon="12.0546813"><ele>75.0</ele><time>2026-04-06T10:19:33.01Z</time></trkpt><trkpt lat="44.1183481" lon="12.0549201"><ele>75.0</ele><time>2026-04-06T10:19:34.006Z</time></trkpt><trkpt lat="44.1183937" lon="12.0551465"><ele>75.0</ele><time>2026-04-06T10:19:35.006Z</time></trkpt><trkpt lat="44.1184382" lon="12.0553584"><ele>74.0</ele><time>2026-04-06T10:19:36.008Z</time></trkpt><trkpt lat="44.1184725" lon="12.0555568"><ele>73.0</ele><time>2026-04-06T10:19:37.009Z</time></trkpt><trkpt lat="44.1185067" lon="12.0557424"><ele>72.0</ele><time>2026-04-06T10:19:38.007Z</time></trkpt><trkpt lat="44.1185433" lon="12.0559215"><ele>71.0</ele><time>2026-04-06T10:19:39.008Z</time></trkpt><trkpt lat="44.1185772" lon="12.0561013"><ele>70.0</ele><time>2026-04-06T10:19:40.006Z</time></trkpt><trkpt lat="44.1186133" lon="12.0562819"><ele>69.0</ele><time>2026-04-06T10:19:41.013Z</time></trkpt><trkpt lat="44.1186524" lon="12.0564636"><ele>68.0</ele><time>2026-04-06T10:19:42.006Z</time></trkpt><trkpt lat="44.1186911" lon="12.0566452"><ele>67.0</ele><time>2026-04-06T10:19:43.006Z</time></trkpt><trkpt lat="44.1187269" lon="12.0568227"><ele>66.8</ele><time>2026-04-06T10:19:44.01Z</time></trkpt><trkpt lat="44.1187578" lon="12.0569919"><ele>66.6</ele><time>2026-04-06T10:19:45.008Z</time></trkpt><trkpt lat="44.1187826" lon="12.0571469"><ele>66.39999999999999</ele><time>2026-04-06T10:19:46.008Z</time></trkpt><trkpt lat="44.118809" lon="12.0572799"><ele>66.2</ele><time>2026-04-06T10:19:47.007Z</time></trkpt><trkpt lat="44.1188296" lon="12.0573961"><ele>66.0</ele><time>2026-04-06T10:19:48.007Z</time></trkpt><trkpt lat="44.1188469" lon="12.0575021"><ele>65.83333333333333</ele><time>2026-04-06T10:19:49.006Z</time></trkpt><trkpt lat="44.1188682" lon="12.0575988"><ele>65.66666666666667</ele><time>2026-04-06T10:19:50.01Z</time></trkpt><trkpt lat="44.1188829" lon="12.0576934"><ele>65.5</ele><time>2026-04-06T10:19:51.01Z</time></trkpt><trkpt lat="44.1188956" lon="12.0577801"><ele>65.33333333333334</ele><time>2026-04-06T10:19:52.007Z</time></trkpt><trkpt lat="44.1189089" lon="12.0578978"><ele>65.16666666666667</ele><time>2026-04-06T10:19:54.009Z</time></trkpt><trkpt lat="44.11892" lon="12.05801"><ele>65.0</ele><time>2026-04-06T10:20:06.008Z</time></trkpt><trkpt lat="44.1190017" lon="12.0581567"><ele>65.0</ele><time>2026-04-06T10:20:08.008Z</time></trkpt><trkpt lat="44.1190567" lon="12.05823"><ele>65.0</ele><time>2026-04-06T10:20:09.008Z</time></trkpt><trkpt lat="44.1191217" lon="12.05831"><ele>65.0</ele><time>2026-04-06T10:20:10.011Z</time></trkpt><trkpt lat="44.119195" lon="12.058395"><ele>65.0</ele><time>2026-04-06T10:20:11.008Z</time></trkpt><trkpt lat="44.1192733" lon="12.0584833"><ele>65.0</ele><time>2026-04-06T10:20:12.009Z</time></trkpt><trkpt lat="44.119355" lon="12.0585783"><ele>65.75</ele><time>2026-04-06T10:20:13.01Z</time></trkpt><trkpt lat="44.119445" lon="12.0586733"><ele>66.5</ele><time>2026-04-06T10:20:14.007Z</time></trkpt><trkpt lat="44.1195383" lon="12.0587783"><ele>67.25</ele><time>2026-04-06T10:20:15.011Z</time></trkpt><trkpt lat="44.1196383" lon="12.0588867"><ele>68.0</ele><time>2026-04-06T10:20:16.009Z</time></trkpt><trkpt lat="44.1197467" lon="12.058995"><ele>68.0</ele><time>2026-04-06T10:20:17.008Z</time></trkpt><trkpt lat="44.1198717" lon="12.0590933"><ele>68.0</ele><time>2026-04-06T10:20:18.009Z</time></trkpt><trkpt lat="44.1200167" lon="12.059165"><ele>68.0</ele><time>2026-04-06T10:20:19.01Z</time></trkpt><trkpt lat="44.1201733" lon="12.0592283"><ele>67.0</ele><time>2026-04-06T10:20:20.008Z</time></trkpt><trkpt lat="44.1203383" lon="12.0592883"><ele>66.0</ele><time>2026-04-06T10:20:21.009Z</time></trkpt><trkpt lat="44.1205217" lon="12.0593333"><ele>65.0</ele><time>2026-04-06T10:20:22.009Z</time></trkpt><trkpt lat="44.12071" lon="12.05937"><ele>65.66666666666667</ele><time>2026-04-06T10:20:23.008Z</time></trkpt><trkpt lat="44.120905" lon="12.0593883"><ele>66.33333333333333</ele><time>2026-04-06T10:20:24.01Z</time></trkpt><trkpt lat="44.1210883" lon="12.0594017"><ele>67.0</ele><time>2026-04-06T10:20:25.009Z</time></trkpt><trkpt lat="44.121245" lon="12.05941"><ele>67.0</ele><time>2026-04-06T10:20:26.009Z</time></trkpt><trkpt lat="44.1213683" lon="12.05941"><ele>67.0</ele><time>2026-04-06T10:20:27.009Z</time></trkpt><trkpt lat="44.12147" lon="12.0594117"><ele>67.0</ele><time>2026-04-06T10:20:28.009Z</time></trkpt><trkpt lat="44.12156" lon="12.0594067"><ele>67.0</ele><time>2026-04-06T10:20:29.007Z</time></trkpt><trkpt lat="44.1216517" lon="12.0594033"><ele>67.0</ele><time>2026-04-06T10:20:30.007Z</time></trkpt><trkpt lat="44.1217417" lon="12.0594033"><ele>67.6</ele><time>2026-04-06T10:20:31.008Z</time></trkpt><trkpt lat="44.1218383" lon="12.0593967"><ele>68.2</ele><time>2026-04-06T10:20:32.009Z</time></trkpt><trkpt lat="44.1219433" lon="12.0593917"><ele>68.8</ele><time>2026-04-06T10:20:33.011Z</time></trkpt><trkpt lat="44.12205" lon="12.0593833"><ele>69.4</ele><time>2026-04-06T10:20:34.008Z</time></trkpt><trkpt lat="44.1221617" lon="12.0593767"><ele>70.0</ele><time>2026-04-06T10:20:35.008Z</time></trkpt><trkpt lat="44.1222717" lon="12.0593683"><ele>70.0</ele><time>2026-04-06T10:20:36.008Z</time></trkpt><trkpt lat="44.122385" lon="12.05936"><ele>70.0</ele><time>2026-04-06T10:20:37.008Z</time></trkpt><trkpt lat="44.1225117" lon="12.0593517"><ele>70.0</ele><time>2026-04-06T10:20:38.013Z</time></trkpt><trkpt lat="44.1226333" lon="12.0593383"><ele>70.0</ele><time>2026-04-06T10:20:39.011Z</time></trkpt><trkpt lat="44.1227483" lon="12.0593333"><ele>70.2</ele><time>2026-04-06T10:20:40.009Z</time></trkpt><trkpt lat="44.1228483" lon="12.05933"><ele>70.4</ele><time>2026-04-06T10:20:41.01Z</time></trkpt><trkpt lat="44.1229467" lon="12.0593317"><ele>70.6</ele><time>2026-04-06T10:20:42.009Z</time></trkpt><trkpt lat="44.1230367" lon="12.05933"><ele>70.8</ele><time>2026-04-06T10:20:43.012Z</time></trkpt><trkpt lat="44.1231217" lon="12.059335"><ele>71.0</ele><time>2026-04-06T10:20:44.009Z</time></trkpt><trkpt lat="44.1232067" lon="12.0593383"><ele>70.66666666666667</ele><time>2026-04-06T10:20:45.006Z</time></trkpt><trkpt lat="44.123295" lon="12.0593433"><ele>70.33333333333334</ele><time>2026-04-06T10:20:46.01Z</time></trkpt><trkpt lat="44.1233867" lon="12.0593517"><ele>70.0</ele><time>2026-04-06T10:20:47.006Z</time></trkpt><trkpt lat="44.1234783" lon="12.0593617"><ele>69.66666666666667</ele><time>2026-04-06T10:20:48.008Z</time></trkpt><trkpt lat="44.1235617" lon="12.059375"><ele>69.33333333333333</ele><time>2026-04-06T10:20:49.007Z</time></trkpt><trkpt lat="44.1236367" lon="12.0593933"><ele>69.0</ele><time>2026-04-06T10:20:50.008Z</time></trkpt><trkpt lat="44.1237067" lon="12.0593983"><ele>69.0</ele><time>2026-04-06T10:20:51.015Z</time></trkpt><trkpt lat="44.1238067" lon="12.0594217"><ele>69.0</ele><time>2026-04-06T10:20:53.008Z</time></trkpt><trkpt lat="44.123845" lon="12.059535"><ele>69.0</ele><time>2026-04-06T10:20:55.008Z</time></trkpt><trkpt lat="44.12384" lon="12.05973"><ele>69.0</ele><time>2026-04-06T10:20:57.008Z</time></trkpt><trkpt lat="44.1238267" lon="12.05984"><ele>69.0</ele><time>2026-04-06T10:20:58.007Z</time></trkpt><trkpt lat="44.1238067" lon="12.0599483"><ele>69.0</ele><time>2026-04-06T10:20:59.007Z</time></trkpt><trkpt lat="44.1237933" lon="12.0600467"><ele>69.0</ele><time>2026-04-06T10:21:00.008Z</time></trkpt><trkpt lat="44.123775" lon="12.0601333"><ele>69.0</ele><time>2026-04-06T10:21:01.006Z</time></trkpt><trkpt lat="44.1237567" lon="12.0602317"><ele>69.0</ele><time>2026-04-06T10:21:03.006Z</time></trkpt><trkpt lat="44.1236807" lon="12.0599215"><ele>69.0</ele><time>2026-04-06T10:21:06.008Z</time></trkpt><trkpt lat="44.1236608" lon="12.0602573"><ele>68.0</ele><time>2026-04-06T10:21:07.062Z</time></trkpt><trkpt lat="44.1235965" lon="12.0603269"><ele>67.0</ele><time>2026-04-06T10:21:08.081Z</time></trkpt><trkpt lat="44.1234817" lon="12.0603172"><ele>66.0</ele><time>2026-04-06T10:21:09.007Z</time></trkpt><trkpt lat="44.1233517" lon="12.0603198"><ele>65.0</ele><time>2026-04-06T10:21:10.006Z</time></trkpt><trkpt lat="44.1232088" lon="12.0602876"><ele>65.0</ele><time>2026-04-06T10:21:11.006Z</time></trkpt><trkpt lat="44.1230738" lon="12.0602622"><ele>65.0</ele><time>2026-04-06T10:21:12.011Z</time></trkpt><trkpt lat="44.1229392" lon="12.0602367"><ele>65.0</ele><time>2026-04-06T10:21:13.007Z</time></trkpt><trkpt lat="44.1228069" lon="12.0602216"><ele>65.0</ele><time>2026-04-06T10:21:14.006Z</time></trkpt><trkpt lat="44.1226806" lon="12.0602093"><ele>65.0</ele><time>2026-04-06T10:21:15.006Z</time></trkpt><trkpt lat="44.1225589" lon="12.0601951"><ele>65.0</ele><time>2026-04-06T10:21:16.006Z</time></trkpt><trkpt lat="44.1224393" lon="12.0601839"><ele>65.0</ele><time>2026-04-06T10:21:17.007Z</time></trkpt><trkpt lat="44.1223317" lon="12.0601741"><ele>65.0</ele><time>2026-04-06T10:21:18.008Z</time></trkpt><trkpt lat="44.1222355" lon="12.0601696"><ele>65.0</ele><time>2026-04-06T10:21:19.008Z</time></trkpt><trkpt lat="44.1221509" lon="12.0601647"><ele>64.16666666666667</ele><time>2026-04-06T10:21:20.011Z</time></trkpt><trkpt lat="44.1220784" lon="12.0601534"><ele>63.333333333333336</ele><time>2026-04-06T10:21:21.009Z</time></trkpt><trkpt lat="44.1219769" lon="12.0601443"><ele>62.5</ele><time>2026-04-06T10:21:23.008Z</time></trkpt><trkpt lat="44.1219104" lon="12.0601881"><ele>61.66666666666667</ele><time>2026-04-06T10:21:26.008Z</time></trkpt><trkpt lat="44.121887" lon="12.0602732"><ele>60.833333333333336</ele><time>2026-04-06T10:21:28.007Z</time></trkpt><trkpt lat="44.1218885" lon="12.060423"><ele>60.0</ele><time>2026-04-06T10:21:29.007Z</time></trkpt><trkpt lat="44.1218758" lon="12.0606215"><ele>58.75</ele><time>2026-04-06T10:21:30.007Z</time></trkpt><trkpt lat="44.1218556" lon="12.0608234"><ele>57.5</ele><time>2026-04-06T10:21:31.008Z</time></trkpt><trkpt lat="44.1218325" lon="12.0610124"><ele>56.25</ele><time>2026-04-06T10:21:32.007Z</time></trkpt><trkpt lat="44.1218139" lon="12.0611788"><ele>55.0</ele><time>2026-04-06T10:21:33.005Z</time></trkpt><trkpt lat="44.121786" lon="12.0613136"><ele>55.0</ele><time>2026-04-06T10:21:34.007Z</time></trkpt><trkpt lat="44.1217506" lon="12.0614053"><ele>55.0</ele><time>2026-04-06T10:21:35.007Z</time></trkpt><trkpt lat="44.1216887" lon="12.061471"><ele>55.0</ele><time>2026-04-06T10:21:36.008Z</time></trkpt><trkpt lat="44.1216073" lon="12.0615272"><ele>55.0</ele><time>2026-04-06T10:21:37.008Z</time></trkpt><trkpt lat="44.1215095" lon="12.0615861"><ele>55.0</ele><time>2026-04-06T10:21:38.008Z</time></trkpt><trkpt lat="44.121376" lon="12.0616663"><ele>55.0</ele><time>2026-04-06T10:21:39.008Z</time></trkpt><trkpt lat="44.1212452" lon="12.0617527"><ele>55.0</ele><time>2026-04-06T10:21:40.007Z</time></trkpt><trkpt lat="44.1211261" lon="12.0618422"><ele>55.0</ele><time>2026-04-06T10:21:41.01Z</time></trkpt><trkpt lat="44.1210335" lon="12.0619265"><ele>55.0</ele><time>2026-04-06T10:21:42.007Z</time></trkpt><trkpt lat="44.1209696" lon="12.0620225"><ele>55.0</ele><time>2026-04-06T10:21:43.014Z</time></trkpt><trkpt lat="44.1209381" lon="12.0621233"><ele>55.0</ele><time>2026-04-06T10:21:44.008Z</time></trkpt><trkpt lat="44.1209285" lon="12.0622328"><ele>55.0</ele><time>2026-04-06T10:21:45.007Z</time></trkpt><trkpt lat="44.1209473" lon="12.0623673"><ele>55.0</ele><time>2026-04-06T10:21:46.008Z</time></trkpt><trkpt lat="44.1209941" lon="12.0625355"><ele>55.0</ele><time>2026-04-06T10:21:47.008Z</time></trkpt><trkpt lat="44.1210533" lon="12.0627333"><ele>56.33333333333333</ele><time>2026-04-06T10:21:48.007Z</time></trkpt><trkpt lat="44.1211206" lon="12.062959"><ele>57.66666666666667</ele><time>2026-04-06T10:21:49.008Z</time></trkpt><trkpt lat="44.12119" lon="12.0632051"><ele>59.0</ele><time>2026-04-06T10:21:50.008Z</time></trkpt><trkpt lat="44.1212632" lon="12.0634721"><ele>60.333333333333336</ele><time>2026-04-06T10:21:51.007Z</time></trkpt><trkpt lat="44.1213366" lon="12.0637586"><ele>61.66666666666667</ele><time>2026-04-06T10:21:52.007Z</time></trkpt><trkpt lat="44.1214075" lon="12.0640622"><ele>63.0</ele><time>2026-04-06T10:21:53.007Z</time></trkpt><trkpt lat="44.121481" lon="12.0643847"><ele>64.0</ele><time>2026-04-06T10:21:54.009Z</time></trkpt><trkpt lat="44.1215636" lon="12.0647109"><ele>65.0</ele><time>2026-04-06T10:21:55.008Z</time></trkpt><trkpt lat="44.1216475" lon="12.0650402"><ele>61.0</ele><time>2026-04-06T10:21:56.006Z</time></trkpt><trkpt lat="44.1217401" lon="12.0653701"><ele>57.0</ele><time>2026-04-06T10:21:57.009Z</time></trkpt><trkpt lat="44.121831" lon="12.0656986"><ele>59.0</ele><time>2026-04-06T10:21:58.007Z</time></trkpt><trkpt lat="44.121919" lon="12.066028"><ele>61.0</ele><time>2026-04-06T10:21:59.007Z</time></trkpt><trkpt lat="44.1220034" lon="12.0663512"><ele>61.5</ele><time>2026-04-06T10:22:00.007Z</time></trkpt><trkpt lat="44.1220843" lon="12.0666665"><ele>62.0</ele><time>2026-04-06T10:22:01.008Z</time></trkpt><trkpt lat="44.1221643" lon="12.0669821"><ele>62.0</ele><time>2026-04-06T10:22:02.007Z</time></trkpt><trkpt lat="44.1222442" lon="12.067298"><ele>62.0</ele><time>2026-04-06T10:22:03.007Z</time></trkpt><trkpt lat="44.1223253" lon="12.0676117"><ele>60.5</ele><time>2026-04-06T10:22:04.006Z</time></trkpt><trkpt lat="44.1224067" lon="12.0679237"><ele>59.0</ele><time>2026-04-06T10:22:05.007Z</time></trkpt><trkpt lat="44.1224881" lon="12.0682322"><ele>61.0</ele><time>2026-04-06T10:22:06.006Z</time></trkpt><trkpt lat="44.1225684" lon="12.068539"><ele>63.0</ele><time>2026-04-06T10:22:07.007Z</time></trkpt><trkpt lat="44.122646" lon="12.0688453"><ele>63.5</ele><time>2026-04-06T10:22:08.007Z</time></trkpt><trkpt lat="44.1227241" lon="12.0691519"><ele>64.0</ele><time>2026-04-06T10:22:09.007Z</time></trkpt><trkpt lat="44.1228061" lon="12.0694577"><ele>64.0</ele><time>2026-04-06T10:22:10.008Z</time></trkpt><trkpt lat="44.1228904" lon="12.0697703"><ele>64.0</ele><time>2026-04-06T10:22:11.007Z</time></trkpt><trkpt lat="44.1229742" lon="12.0700893"><ele>64.5</ele><time>2026-04-06T10:22:12.008Z</time></trkpt><trkpt lat="44.1230595" lon="12.0704147"><ele>65.0</ele><time>2026-04-06T10:22:13.007Z</time></trkpt><trkpt lat="44.1231477" lon="12.0707475"><ele>65.5</ele><time>2026-04-06T10:22:14.007Z</time></trkpt><trkpt lat="44.1232359" lon="12.0710811"><ele>66.0</ele><time>2026-04-06T10:22:15.007Z</time></trkpt><trkpt lat="44.1233259" lon="12.0714134"><ele>68.0</ele><time>2026-04-06T10:22:16.006Z</time></trkpt><trkpt lat="44.1234116" lon="12.0717415"><ele>70.0</ele><time>2026-04-06T10:22:17.009Z</time></trkpt><trkpt lat="44.1234963" lon="12.0720611"><ele>70.0</ele><time>2026-04-06T10:22:18.01Z</time></trkpt><trkpt lat="44.1235798" lon="12.0723767"><ele>70.0</ele><time>2026-04-06T10:22:19.007Z</time></trkpt><trkpt lat="44.1236629" lon="12.0726833"><ele>71.0</ele><time>2026-04-06T10:22:20.006Z</time></trkpt><trkpt lat="44.1237428" lon="12.0729818"><ele>72.0</ele><time>2026-04-06T10:22:21.007Z</time></trkpt><trkpt lat="44.1238171" lon="12.0732703"><ele>73.0</ele><time>2026-04-06T10:22:22.006Z</time></trkpt><trkpt lat="44.1238875" lon="12.0735475"><ele>73.66666666666666</ele><time>2026-04-06T10:22:23.007Z</time></trkpt><trkpt lat="44.1239545" lon="12.0738157"><ele>74.33333333333333</ele><time>2026-04-06T10:22:24.006Z</time></trkpt><trkpt lat="44.1240244" lon="12.0740817"><ele>75.0</ele><time>2026-04-06T10:22:25.006Z</time></trkpt><trkpt lat="44.1240942" lon="12.0743505"><ele>75.0</ele><time>2026-04-06T10:22:26.006Z</time></trkpt><trkpt lat="44.1241628" lon="12.0746222"><ele>75.0</ele><time>2026-04-06T10:22:27.007Z</time></trkpt><trkpt lat="44.1242298" lon="12.0748921"><ele>75.0</ele><time>2026-04-06T10:22:28.008Z</time></trkpt><trkpt lat="44.1242948" lon="12.0751532"><ele>76.66666666666667</ele><time>2026-04-06T10:22:29.006Z</time></trkpt><trkpt lat="44.1243567" lon="12.0754011"><ele>78.33333333333334</ele><time>2026-04-06T10:22:30.007Z</time></trkpt><trkpt lat="44.1244133" lon="12.0756292"><ele>80.0</ele><time>2026-04-06T10:22:31.007Z</time></trkpt><trkpt lat="44.1244636" lon="12.0758376"><ele>81.5</ele><time>2026-04-06T10:22:32.006Z</time></trkpt><trkpt lat="44.1245088" lon="12.0760252"><ele>83.0</ele><time>2026-04-06T10:22:33.004Z</time></trkpt><trkpt lat="44.1245494" lon="12.0761925"><ele>84.5</ele><time>2026-04-06T10:22:34.011Z</time></trkpt><trkpt lat="44.1245846" lon="12.076334"><ele>86.0</ele><time>2026-04-06T10:22:35.008Z</time></trkpt><trkpt lat="44.1246157" lon="12.0764545"><ele>86.0</ele><time>2026-04-06T10:22:36.008Z</time></trkpt><trkpt lat="44.1246426" lon="12.0765588"><ele>86.0</ele><time>2026-04-06T10:22:37.008Z</time></trkpt><trkpt lat="44.1246665" lon="12.0766464"><ele>86.0</ele><time>2026-04-06T10:22:38.008Z</time></trkpt><trkpt lat="44.1246866" lon="12.0767629"><ele>86.0</ele><time>2026-04-06T10:22:40.009Z</time></trkpt><trkpt lat="44.124623" lon="12.0768611"><ele>86.0</ele><time>2026-04-06T10:22:42.008Z</time></trkpt><trkpt lat="44.1245467" lon="12.0769112"><ele>86.0</ele><time>2026-04-06T10:22:43.009Z</time></trkpt><trkpt lat="44.1244377" lon="12.0769735"><ele>87.0</ele><time>2026-04-06T10:22:44.01Z</time></trkpt><trkpt lat="44.124313" lon="12.0770442"><ele>88.0</ele><time>2026-04-06T10:22:45.008Z</time></trkpt><trkpt lat="44.124191" lon="12.0771125"><ele>89.0</ele><time>2026-04-06T10:22:46.007Z</time></trkpt><trkpt lat="44.1240883" lon="12.0771783"><ele>90.0</ele><time>2026-04-06T10:22:47.007Z</time></trkpt><trkpt lat="44.1240076" lon="12.0772513"><ele>92.0</ele><time>2026-04-06T10:22:48.006Z</time></trkpt><trkpt lat="44.1239548" lon="12.0773541"><ele>94.0</ele><time>2026-04-06T10:22:49.008Z</time></trkpt><trkpt lat="44.1239117" lon="12.0774648"><ele>96.0</ele><time>2026-04-06T10:22:50.008Z</time></trkpt><trkpt lat="44.1238889" lon="12.077593"><ele>98.0</ele><time>2026-04-06T10:22:51.009Z</time></trkpt><trkpt lat="44.1238959" lon="12.0777456"><ele>100.0</ele><time>2026-04-06T10:22:52.008Z</time></trkpt><trkpt lat="44.1238869" lon="12.0778853"><ele>101.0</ele><time>2026-04-06T10:22:53.008Z</time></trkpt><trkpt lat="44.1238511" lon="12.0780004"><ele>102.0</ele><time>2026-04-06T10:22:54.008Z</time></trkpt><trkpt lat="44.1237908" lon="12.0780933"><ele>103.0</ele><time>2026-04-06T10:22:55.008Z</time></trkpt><trkpt lat="44.1237002" lon="12.0781658"><ele>104.0</ele><time>2026-04-06T10:22:56.007Z</time></trkpt><trkpt lat="44.1235843" lon="12.078233"><ele>105.0</ele><time>2026-04-06T10:22:57.011Z</time></trkpt><trkpt lat="44.1234471" lon="12.0783066"><ele>107.0</ele><time>2026-04-06T10:22:58.007Z</time></trkpt><trkpt lat="44.1233004" lon="12.0783919"><ele>109.0</ele><time>2026-04-06T10:22:59.007Z</time></trkpt><trkpt lat="44.1231508" lon="12.0784894"><ele>111.0</ele><time>2026-04-06T10:23:00.009Z</time></trkpt><trkpt lat="44.1230092" lon="12.0785858"><ele>114.5</ele><time>2026-04-06T10:23:01.009Z</time></trkpt><trkpt lat="44.1228789" lon="12.0786766"><ele>118.0</ele><time>2026-04-06T10:23:02.007Z</time></trkpt><trkpt lat="44.1227668" lon="12.0787814"><ele>121.5</ele><time>2026-04-06T10:23:03.007Z</time></trkpt><trkpt lat="44.1226709" lon="12.0789093"><ele>125.0</ele><time>2026-04-06T10:23:04.007Z</time></trkpt><trkpt lat="44.1225924" lon="12.079085"><ele>126.66666666666666</ele><time>2026-04-06T10:23:05.008Z</time></trkpt><trkpt lat="44.1225278" lon="12.0793085"><ele>128.33333333333334</ele><time>2026-04-06T10:23:06.007Z</time></trkpt><trkpt lat="44.1224661" lon="12.0795506"><ele>130.0</ele><time>2026-04-06T10:23:07.008Z</time></trkpt><trkpt lat="44.1224021" lon="12.0797959"><ele>134.66666666666669</ele><time>2026-04-06T10:23:08.007Z</time></trkpt><trkpt lat="44.1223297" lon="12.0800474"><ele>139.33333333333334</ele><time>2026-04-06T10:23:09.007Z</time></trkpt><trkpt lat="44.1222436" lon="12.0802884"><ele>144.0</ele><time>2026-04-06T10:23:10.007Z</time></trkpt><trkpt lat="44.1221487" lon="12.0805084"><ele>144.0</ele><time>2026-04-06T10:23:11.007Z</time></trkpt><trkpt lat="44.1220483" lon="12.0807083"><ele>144.0</ele><time>2026-04-06T10:23:12.007Z</time></trkpt><trkpt lat="44.1219583" lon="12.0808933"><ele>144.0</ele><time>2026-04-06T10:23:13.009Z</time></trkpt><trkpt lat="44.121875" lon="12.0810883"><ele>145.66666666666666</ele><time>2026-04-06T10:23:14.007Z</time></trkpt><trkpt lat="44.1218267" lon="12.0813067"><ele>147.33333333333331</ele><time>2026-04-06T10:23:15.007Z</time></trkpt><trkpt lat="44.1218" lon="12.08156"><ele>149.0</ele><time>2026-04-06T10:23:16.009Z</time></trkpt><trkpt lat="44.1217617" lon="12.0818133"><ele>150.0</ele><time>2026-04-06T10:23:17.009Z</time></trkpt><trkpt lat="44.121725" lon="12.0820617"><ele>151.0</ele><time>2026-04-06T10:23:18.006Z</time></trkpt><trkpt lat="44.1216933" lon="12.082295"><ele>152.0</ele><time>2026-04-06T10:23:19.007Z</time></trkpt><trkpt lat="44.1216633" lon="12.0825083"><ele>152.5</ele><time>2026-04-06T10:23:20.006Z</time></trkpt><trkpt lat="44.1216367" lon="12.0826983"><ele>153.0</ele><time>2026-04-06T10:23:21.006Z</time></trkpt><trkpt lat="44.1216167" lon="12.08288"><ele>153.5</ele><time>2026-04-06T10:23:22.008Z</time></trkpt><trkpt lat="44.12159" lon="12.08306"><ele>154.0</ele><time>2026-04-06T10:23:23.008Z</time></trkpt><trkpt lat="44.1215733" lon="12.0832417"><ele>153.75</ele><time>2026-04-06T10:23:24.007Z</time></trkpt><trkpt lat="44.121575" lon="12.0834233"><ele>153.5</ele><time>2026-04-06T10:23:25.009Z</time></trkpt><trkpt lat="44.1216283" lon="12.0835983"><ele>153.25</ele><time>2026-04-06T10:23:26.006Z</time></trkpt><trkpt lat="44.1217017" lon="12.0837867"><ele>153.0</ele><time>2026-04-06T10:23:27.007Z</time></trkpt><trkpt lat="44.121775" lon="12.0839867"><ele>153.66666666666666</ele><time>2026-04-06T10:23:28.008Z</time></trkpt><trkpt lat="44.1218667" lon="12.0841933"><ele>154.33333333333331</ele><time>2026-04-06T10:23:29.007Z</time></trkpt><trkpt lat="44.121935" lon="12.0844133"><ele>155.0</ele><time>2026-04-06T10:23:30.009Z</time></trkpt><trkpt lat="44.1219967" lon="12.084625"><ele>155.0</ele><time>2026-04-06T10:23:31.008Z</time></trkpt><trkpt lat="44.1220533" lon="12.0848267"><ele>155.0</ele><time>2026-04-06T10:23:32.008Z</time></trkpt><trkpt lat="44.122105" lon="12.0850133"><ele>155.0</ele><time>2026-04-06T10:23:33.007Z</time></trkpt><trkpt lat="44.122125" lon="12.0852133"><ele>155.0</ele><time>2026-04-06T10:23:34.006Z</time></trkpt><trkpt lat="44.1221117" lon="12.08542"><ele>155.5</ele><time>2026-04-06T10:23:35.007Z</time></trkpt><trkpt lat="44.122095" lon="12.085615"><ele>156.0</ele><time>2026-04-06T10:23:36.006Z</time></trkpt><trkpt lat="44.12207" lon="12.0858017"><ele>156.5</ele><time>2026-04-06T10:23:37.008Z</time></trkpt><trkpt lat="44.1220517" lon="12.08598"><ele>157.0</ele><time>2026-04-06T10:23:38.007Z</time></trkpt><trkpt lat="44.1220233" lon="12.0861717"><ele>157.66666666666669</ele><time>2026-04-06T10:23:39.007Z</time></trkpt><trkpt lat="44.1219933" lon="12.086365"><ele>158.33333333333334</ele><time>2026-04-06T10:23:40.007Z</time></trkpt><trkpt lat="44.1219633" lon="12.0865733"><ele>159.0</ele><time>2026-04-06T10:23:41.008Z</time></trkpt><trkpt lat="44.1219333" lon="12.0867983"><ele>159.0</ele><time>2026-04-06T10:23:42.009Z</time></trkpt><trkpt lat="44.1218933" lon="12.0870383"><ele>159.0</ele><time>2026-04-06T10:23:43.007Z</time></trkpt><trkpt lat="44.1218533" lon="12.0872933"><ele>159.0</ele><time>2026-04-06T10:23:44.007Z</time></trkpt><trkpt lat="44.1218183" lon="12.0875567"><ele>159.66666666666666</ele><time>2026-04-06T10:23:45.007Z</time></trkpt><trkpt lat="44.1217817" lon="12.08783"><ele>160.33333333333331</ele><time>2026-04-06T10:23:46.007Z</time></trkpt><trkpt lat="44.1217439" lon="12.0881127"><ele>161.0</ele><time>2026-04-06T10:23:47.007Z</time></trkpt><trkpt lat="44.1217038" lon="12.0883835"><ele>162.0</ele><time>2026-04-06T10:23:48.011Z</time></trkpt><trkpt lat="44.1216606" lon="12.0886284"><ele>163.0</ele><time>2026-04-06T10:23:49.007Z</time></trkpt><trkpt lat="44.1216228" lon="12.0888472"><ele>164.0</ele><time>2026-04-06T10:23:50.007Z</time></trkpt><trkpt lat="44.1215779" lon="12.0890439"><ele>166.75</ele><time>2026-04-06T10:23:51.007Z</time></trkpt><trkpt lat="44.1215246" lon="12.0892256"><ele>169.5</ele><time>2026-04-06T10:23:52.007Z</time></trkpt><trkpt lat="44.1214558" lon="12.0893847"><ele>172.25</ele><time>2026-04-06T10:23:53.007Z</time></trkpt><trkpt lat="44.1213724" lon="12.0895045"><ele>175.0</ele><time>2026-04-06T10:23:54.007Z</time></trkpt><trkpt lat="44.1212806" lon="12.0895827"><ele>175.0</ele><time>2026-04-06T10:23:55.006Z</time></trkpt><trkpt lat="44.121174" lon="12.0896257"><ele>175.0</ele><time>2026-04-06T10:23:56.007Z</time></trkpt><trkpt lat="44.1210538" lon="12.0896422"><ele>175.0</ele><time>2026-04-06T10:23:57.008Z</time></trkpt><trkpt lat="44.1209265" lon="12.0896396"><ele>175.0</ele><time>2026-04-06T10:23:58.007Z</time></trkpt><trkpt lat="44.1208078" lon="12.0896272"><ele>176.4</ele><time>2026-04-06T10:23:59.008Z</time></trkpt><trkpt lat="44.1207087" lon="12.0896307"><ele>177.8</ele><time>2026-04-06T10:24:00.011Z</time></trkpt><trkpt lat="44.1206268" lon="12.0896671"><ele>179.2</ele><time>2026-04-06T10:24:01.007Z</time></trkpt><trkpt lat="44.1205608" lon="12.0897405"><ele>180.6</ele><time>2026-04-06T10:24:02.011Z</time></trkpt><trkpt lat="44.12055" lon="12.0898618"><ele>182.0</ele><time>2026-04-06T10:24:03.007Z</time></trkpt><trkpt lat="44.1205687" lon="12.0900085"><ele>183.5</ele><time>2026-04-06T10:24:04.006Z</time></trkpt><trkpt lat="44.1206031" lon="12.0901608"><ele>185.0</ele><time>2026-04-06T10:24:05.008Z</time></trkpt><trkpt lat="44.1206483" lon="12.0903283"><ele>186.5</ele><time>2026-04-06T10:24:06.007Z</time></trkpt><trkpt lat="44.120689" lon="12.0905324"><ele>188.0</ele><time>2026-04-06T10:24:07.007Z</time></trkpt><trkpt lat="44.1207229" lon="12.0907526"><ele>186.66666666666666</ele><time>2026-04-06T10:24:08.006Z</time></trkpt><trkpt lat="44.1207502" lon="12.0909731"><ele>185.33333333333334</ele><time>2026-04-06T10:24:09.008Z</time></trkpt><trkpt lat="44.1207567" lon="12.0911874"><ele>184.0</ele><time>2026-04-06T10:24:10.006Z</time></trkpt><trkpt lat="44.1207386" lon="12.0914028"><ele>183.75</ele><time>2026-04-06T10:24:11.006Z</time></trkpt><trkpt lat="44.1207035" lon="12.0916147"><ele>183.5</ele><time>2026-04-06T10:24:12.008Z</time></trkpt><trkpt lat="44.1206643" lon="12.0918119"><ele>183.25</ele><time>2026-04-06T10:24:13.007Z</time></trkpt><trkpt lat="44.1206266" lon="12.0919895"><ele>183.0</ele><time>2026-04-06T10:24:14.006Z</time></trkpt><trkpt lat="44.1205965" lon="12.092142"><ele>183.0</ele><time>2026-04-06T10:24:15.009Z</time></trkpt><trkpt lat="44.1205777" lon="12.0922707"><ele>183.0</ele><time>2026-04-06T10:24:16.009Z</time></trkpt><trkpt lat="44.1205738" lon="12.0923811"><ele>183.0</ele><time>2026-04-06T10:24:17.007Z</time></trkpt><trkpt lat="44.1205916" lon="12.0924741"><ele>183.0</ele><time>2026-04-06T10:24:18.007Z</time></trkpt><trkpt lat="44.1206752" lon="12.092593"><ele>183.0</ele><time>2026-04-06T10:24:20.007Z</time></trkpt><trkpt lat="44.1207402" lon="12.0926124"><ele>183.0</ele><time>2026-04-06T10:24:21.01Z</time></trkpt><trkpt lat="44.1208211" lon="12.0926119"><ele>185.0</ele><time>2026-04-06T10:24:22.007Z</time></trkpt><trkpt lat="44.1209169" lon="12.0926147"><ele>187.0</ele><time>2026-04-06T10:24:23.006Z</time></trkpt><trkpt lat="44.1210244" lon="12.0926238"><ele>189.0</ele><time>2026-04-06T10:24:24.007Z</time></trkpt><trkpt lat="44.121134" lon="12.092645"><ele>191.0</ele><time>2026-04-06T10:24:25.007Z</time></trkpt><trkpt lat="44.1212401" lon="12.0926788"><ele>193.0</ele><time>2026-04-06T10:24:26.007Z</time></trkpt><trkpt lat="44.1213398" lon="12.0927103"><ele>192.99999999999997</ele><time>2026-04-06T10:24:27.006Z</time></trkpt><trkpt lat="44.1214288" lon="12.0927512"><ele>193.0</ele><time>2026-04-06T10:24:28.007Z</time></trkpt><trkpt lat="44.1215087" lon="12.0928066"><ele>193.0</ele><time>2026-04-06T10:24:29.006Z</time></trkpt><trkpt lat="44.1215804" lon="12.092869"><ele>193.0</ele><time>2026-04-06T10:24:30.01Z</time></trkpt><trkpt lat="44.121651" lon="12.0929245"><ele>192.99999999999997</ele><time>2026-04-06T10:24:31.009Z</time></trkpt><trkpt lat="44.1217272" lon="12.0929595"><ele>193.0</ele><time>2026-04-06T10:24:32.007Z</time></trkpt><trkpt lat="44.1218063" lon="12.0929775"><ele>192.8</ele><time>2026-04-06T10:24:33.008Z</time></trkpt><trkpt lat="44.1218939" lon="12.0929726"><ele>192.60000000000002</ele><time>2026-04-06T10:24:34.007Z</time></trkpt><trkpt lat="44.1219932" lon="12.0929585"><ele>192.39999999999998</ele><time>2026-04-06T10:24:35.008Z</time></trkpt><trkpt lat="44.122108" lon="12.0929179"><ele>192.2</ele><time>2026-04-06T10:24:36.007Z</time></trkpt><trkpt lat="44.1222273" lon="12.092878"><ele>192.0</ele><time>2026-04-06T10:24:37.007Z</time></trkpt><trkpt lat="44.1223493" lon="12.0928364"><ele>190.5</ele><time>2026-04-06T10:24:38.007Z</time></trkpt><trkpt lat="44.1224758" lon="12.0927833"><ele>189.0</ele><time>2026-04-06T10:24:39.007Z</time></trkpt><trkpt lat="44.1226011" lon="12.0927283"><ele>187.5</ele><time>2026-04-06T10:24:40.007Z</time></trkpt><trkpt lat="44.1227253" lon="12.0926645"><ele>186.0</ele><time>2026-04-06T10:24:41.007Z</time></trkpt><trkpt lat="44.1228501" lon="12.0925916"><ele>186.0</ele><time>2026-04-06T10:24:42.007Z</time></trkpt><trkpt lat="44.1229805" lon="12.0925303"><ele>186.0</ele><time>2026-04-06T10:24:43.006Z</time></trkpt><trkpt lat="44.1231152" lon="12.0924851"><ele>186.0</ele><time>2026-04-06T10:24:44.007Z</time></trkpt><trkpt lat="44.1232509" lon="12.0924418"><ele>186.0</ele><time>2026-04-06T10:24:45.008Z</time></trkpt><trkpt lat="44.1233866" lon="12.0923918"><ele>185.25</ele><time>2026-04-06T10:24:46.006Z</time></trkpt><trkpt lat="44.1235244" lon="12.0923457"><ele>184.5</ele><time>2026-04-06T10:24:47.008Z</time></trkpt><trkpt lat="44.1236607" lon="12.0923007"><ele>183.75</ele><time>2026-04-06T10:24:48.007Z</time></trkpt><trkpt lat="44.1237903" lon="12.0922432"><ele>183.0</ele><time>2026-04-06T10:24:49.007Z</time></trkpt><trkpt lat="44.1239144" lon="12.0921679"><ele>183.0</ele><time>2026-04-06T10:24:50.008Z</time></trkpt><trkpt lat="44.124035" lon="12.0920724"><ele>183.0</ele><time>2026-04-06T10:24:51.006Z</time></trkpt><trkpt lat="44.1241616" lon="12.0919775"><ele>183.0</ele><time>2026-04-06T10:24:52.012Z</time></trkpt><trkpt lat="44.1242955" lon="12.0918891"><ele>183.0</ele><time>2026-04-06T10:24:53.006Z</time></trkpt><trkpt lat="44.124435" lon="12.0917941"><ele>182.0</ele><time>2026-04-06T10:24:54.007Z</time></trkpt><trkpt lat="44.1245725" lon="12.0916813"><ele>181.0</ele><time>2026-04-06T10:24:55.008Z</time></trkpt><trkpt lat="44.1247099" lon="12.0915647"><ele>180.0</ele><time>2026-04-06T10:24:56.006Z</time></trkpt><trkpt lat="44.1248388" lon="12.0914442"><ele>178.0</ele><time>2026-04-06T10:24:57.007Z</time></trkpt><trkpt lat="44.1249584" lon="12.0913259"><ele>176.0</ele><time>2026-04-06T10:24:58.007Z</time></trkpt><trkpt lat="44.1250693" lon="12.0912103"><ele>174.0</ele><time>2026-04-06T10:24:59.007Z</time></trkpt><trkpt lat="44.1251818" lon="12.0911188"><ele>172.0</ele><time>2026-04-06T10:25:00.007Z</time></trkpt><trkpt lat="44.1252895" lon="12.0910437"><ele>172.0</ele><time>2026-04-06T10:25:01.008Z</time></trkpt><trkpt lat="44.1253987" lon="12.0909917"><ele>172.0</ele><time>2026-04-06T10:25:02.008Z</time></trkpt><trkpt lat="44.1255176" lon="12.0909728"><ele>172.0</ele><time>2026-04-06T10:25:03.007Z</time></trkpt><trkpt lat="44.1256535" lon="12.0909951"><ele>172.0</ele><time>2026-04-06T10:25:04.006Z</time></trkpt><trkpt lat="44.1258026" lon="12.091015"><ele>170.33333333333334</ele><time>2026-04-06T10:25:05.007Z</time></trkpt><trkpt lat="44.1259615" lon="12.0910195"><ele>168.66666666666666</ele><time>2026-04-06T10:25:06.006Z</time></trkpt><trkpt lat="44.1261177" lon="12.0910288"><ele>167.0</ele><time>2026-04-06T10:25:07.007Z</time></trkpt><trkpt lat="44.1262722" lon="12.0910544"><ele>167.0</ele><time>2026-04-06T10:25:08.007Z</time></trkpt><trkpt lat="44.1264244" lon="12.0910571"><ele>167.0</ele><time>2026-04-06T10:25:09.009Z</time></trkpt><trkpt lat="44.1265745" lon="12.0910689"><ele>167.0</ele><time>2026-04-06T10:25:10.012Z</time></trkpt><trkpt lat="44.1267228" lon="12.0910824"><ele>167.0</ele><time>2026-04-06T10:25:11.008Z</time></trkpt><trkpt lat="44.1268735" lon="12.0911081"><ele>167.0</ele><time>2026-04-06T10:25:12.006Z</time></trkpt><trkpt lat="44.127029" lon="12.0911448"><ele>167.0</ele><time>2026-04-06T10:25:13.007Z</time></trkpt><trkpt lat="44.1271892" lon="12.0911788"><ele>167.0</ele><time>2026-04-06T10:25:14.005Z</time></trkpt><trkpt lat="44.1273485" lon="12.0912246"><ele>167.0</ele><time>2026-04-06T10:25:15.007Z</time></trkpt><trkpt lat="44.1275038" lon="12.091277"><ele>167.0</ele><time>2026-04-06T10:25:16.008Z</time></trkpt><trkpt lat="44.1276601" lon="12.0913257"><ele>164.66666666666666</ele><time>2026-04-06T10:25:17.007Z</time></trkpt><trkpt lat="44.1278118" lon="12.0913832"><ele>162.33333333333334</ele><time>2026-04-06T10:25:18.008Z</time></trkpt><trkpt lat="44.1279567" lon="12.0914296"><ele>160.0</ele><time>2026-04-06T10:25:19.007Z</time></trkpt><trkpt lat="44.1280948" lon="12.0914857"><ele>159.0</ele><time>2026-04-06T10:25:20.008Z</time></trkpt><trkpt lat="44.1282311" lon="12.0915675"><ele>158.0</ele><time>2026-04-06T10:25:21.011Z</time></trkpt><trkpt lat="44.1283604" lon="12.0916723"><ele>157.0</ele><time>2026-04-06T10:25:22.007Z</time></trkpt><trkpt lat="44.1284867" lon="12.0918022"><ele>157.0</ele><time>2026-04-06T10:25:23.007Z</time></trkpt><trkpt lat="44.1286139" lon="12.0919493"><ele>157.0</ele><time>2026-04-06T10:25:24.008Z</time></trkpt><trkpt lat="44.1287354" lon="12.0920966"><ele>157.0</ele><time>2026-04-06T10:25:25.007Z</time></trkpt><trkpt lat="44.1288532" lon="12.0922343"><ele>157.0</ele><time>2026-04-06T10:25:26.006Z</time></trkpt><trkpt lat="44.1289663" lon="12.0923613"><ele>157.0</ele><time>2026-04-06T10:25:27.007Z</time></trkpt><trkpt lat="44.1290761" lon="12.0924755"><ele>157.0</ele><time>2026-04-06T10:25:28.01Z</time></trkpt><trkpt lat="44.1291882" lon="12.0925763"><ele>157.0</ele><time>2026-04-06T10:25:29.007Z</time></trkpt><trkpt lat="44.1293105" lon="12.0926639"><ele>156.75</ele><time>2026-04-06T10:25:30.007Z</time></trkpt><trkpt lat="44.129441" lon="12.0927433"><ele>156.5</ele><time>2026-04-06T10:25:31.007Z</time></trkpt><trkpt lat="44.129573" lon="12.0928209"><ele>156.25</ele><time>2026-04-06T10:25:32.007Z</time></trkpt><trkpt lat="44.1297022" lon="12.0928983"><ele>156.0</ele><time>2026-04-06T10:25:33.009Z</time></trkpt><trkpt lat="44.1298264" lon="12.0929763"><ele>155.0</ele><time>2026-04-06T10:25:34.006Z</time></trkpt><trkpt lat="44.1299393" lon="12.0930663"><ele>154.0</ele><time>2026-04-06T10:25:35.009Z</time></trkpt><trkpt lat="44.1300433" lon="12.0931646"><ele>153.0</ele><time>2026-04-06T10:25:36.007Z</time></trkpt><trkpt lat="44.13015" lon="12.0932703"><ele>152.0</ele><time>2026-04-06T10:25:37.007Z</time></trkpt><trkpt lat="44.1302568" lon="12.0933812"><ele>152.0</ele><time>2026-04-06T10:25:38.007Z</time></trkpt><trkpt lat="44.1303673" lon="12.0934875"><ele>152.0</ele><time>2026-04-06T10:25:39.012Z</time></trkpt><trkpt lat="44.130482" lon="12.0935879"><ele>152.0</ele><time>2026-04-06T10:25:40.006Z</time></trkpt><trkpt lat="44.1305939" lon="12.0936926"><ele>152.0</ele><time>2026-04-06T10:25:41.007Z</time></trkpt><trkpt lat="44.1307079" lon="12.0938018"><ele>151.75</ele><time>2026-04-06T10:25:42.007Z</time></trkpt><trkpt lat="44.1308255" lon="12.0939125"><ele>151.5</ele><time>2026-04-06T10:25:43.006Z</time></trkpt><trkpt lat="44.1309474" lon="12.0940248"><ele>151.25</ele><time>2026-04-06T10:25:44.008Z</time></trkpt><trkpt lat="44.1310687" lon="12.0941403"><ele>151.0</ele><time>2026-04-06T10:25:45.008Z</time></trkpt><trkpt lat="44.1311891" lon="12.0942575"><ele>151.0</ele><time>2026-04-06T10:25:46.008Z</time></trkpt><trkpt lat="44.1313137" lon="12.0943777"><ele>151.0</ele><time>2026-04-06T10:25:47.008Z</time></trkpt><trkpt lat="44.1314469" lon="12.0944994"><ele>151.0</ele><time>2026-04-06T10:25:48.007Z</time></trkpt><trkpt lat="44.1315811" lon="12.0946283"><ele>148.66666666666669</ele><time>2026-04-06T10:25:49.007Z</time></trkpt><trkpt lat="44.1317146" lon="12.0947578"><ele>146.33333333333334</ele><time>2026-04-06T10:25:50.006Z</time></trkpt><trkpt lat="44.1318405" lon="12.094894"><ele>144.0</ele><time>2026-04-06T10:25:51.009Z</time></trkpt><trkpt lat="44.1319655" lon="12.0950226"><ele>144.0</ele><time>2026-04-06T10:25:52.008Z</time></trkpt><trkpt lat="44.1320944" lon="12.0951508"><ele>144.0</ele><time>2026-04-06T10:25:53.01Z</time></trkpt><trkpt lat="44.1322227" lon="12.0952842"><ele>144.0</ele><time>2026-04-06T10:25:54.007Z</time></trkpt><trkpt lat="44.1323562" lon="12.0954142"><ele>144.66666666666666</ele><time>2026-04-06T10:25:55.007Z</time></trkpt><trkpt lat="44.1324868" lon="12.0955407"><ele>145.33333333333331</ele><time>2026-04-06T10:25:56.007Z</time></trkpt><trkpt lat="44.1326143" lon="12.0956634"><ele>146.0</ele><time>2026-04-06T10:25:57.007Z</time></trkpt><trkpt lat="44.1327421" lon="12.095781"><ele>144.66666666666666</ele><time>2026-04-06T10:25:58.007Z</time></trkpt><trkpt lat="44.1328717" lon="12.0959025"><ele>143.33333333333334</ele><time>2026-04-06T10:25:59.008Z</time></trkpt><trkpt lat="44.1330032" lon="12.0960314"><ele>142.0</ele><time>2026-04-06T10:26:00.009Z</time></trkpt><trkpt lat="44.1331423" lon="12.0961647"><ele>141.33333333333334</ele><time>2026-04-06T10:26:01.006Z</time></trkpt><trkpt lat="44.1332878" lon="12.0963115"><ele>140.66666666666666</ele><time>2026-04-06T10:26:02.009Z</time></trkpt><trkpt lat="44.1334279" lon="12.0964477"><ele>140.0</ele><time>2026-04-06T10:26:03.009Z</time></trkpt><trkpt lat="44.1335605" lon="12.0965772"><ele>140.0</ele><time>2026-04-06T10:26:04.009Z</time></trkpt><trkpt lat="44.1336918" lon="12.0966937"><ele>140.0</ele><time>2026-04-06T10:26:05.009Z</time></trkpt><trkpt lat="44.1338319" lon="12.0967949"><ele>140.0</ele><time>2026-04-06T10:26:06.009Z</time></trkpt><trkpt lat="44.1339761" lon="12.0968915"><ele>139.66666666666666</ele><time>2026-04-06T10:26:07.012Z</time></trkpt><trkpt lat="44.1341269" lon="12.0969626"><ele>139.33333333333334</ele><time>2026-04-06T10:26:08.008Z</time></trkpt><trkpt lat="44.1342791" lon="12.0970236"><ele>139.0</ele><time>2026-04-06T10:26:09.007Z</time></trkpt><trkpt lat="44.1344264" lon="12.0970695"><ele>139.0</ele><time>2026-04-06T10:26:10.012Z</time></trkpt><trkpt lat="44.1345603" lon="12.0970927"><ele>139.0</ele><time>2026-04-06T10:26:11.008Z</time></trkpt><trkpt lat="44.1346841" lon="12.0970982"><ele>139.0</ele><time>2026-04-06T10:26:12.009Z</time></trkpt><trkpt lat="44.1348127" lon="12.0970656"><ele>139.0</ele><time>2026-04-06T10:26:13.01Z</time></trkpt><trkpt lat="44.1349493" lon="12.0970094"><ele>136.66666666666669</ele><time>2026-04-06T10:26:14.009Z</time></trkpt><trkpt lat="44.1350951" lon="12.0969435"><ele>134.33333333333334</ele><time>2026-04-06T10:26:15.011Z</time></trkpt><trkpt lat="44.1352436" lon="12.0968807"><ele>132.0</ele><time>2026-04-06T10:26:16.007Z</time></trkpt><trkpt lat="44.1353897" lon="12.0968171"><ele>132.0</ele><time>2026-04-06T10:26:17.007Z</time></trkpt><trkpt lat="44.1355317" lon="12.0967578"><ele>132.0</ele><time>2026-04-06T10:26:18.007Z</time></trkpt><trkpt lat="44.1356672" lon="12.0967028"><ele>132.0</ele><time>2026-04-06T10:26:19.007Z</time></trkpt><trkpt lat="44.1357989" lon="12.0966443"><ele>132.0</ele><time>2026-04-06T10:26:20.011Z</time></trkpt><trkpt lat="44.1359313" lon="12.0965923"><ele>128.5</ele><time>2026-04-06T10:26:21.009Z</time></trkpt><trkpt lat="44.1360669" lon="12.0965477"><ele>125.0</ele><time>2026-04-06T10:26:22.008Z</time></trkpt><trkpt lat="44.1362041" lon="12.0965089"><ele>121.5</ele><time>2026-04-06T10:26:23.01Z</time></trkpt><trkpt lat="44.1363426" lon="12.0964721"><ele>118.0</ele><time>2026-04-06T10:26:24.01Z</time></trkpt><trkpt lat="44.1364826" lon="12.0964529"><ele>115.5</ele><time>2026-04-06T10:26:25.011Z</time></trkpt><trkpt lat="44.1366238" lon="12.0964487"><ele>113.0</ele><time>2026-04-06T10:26:26.008Z</time></trkpt><trkpt lat="44.1367607" lon="12.096442"><ele>110.5</ele><time>2026-04-06T10:26:27.008Z</time></trkpt><trkpt lat="44.136895" lon="12.0964219"><ele>108.0</ele><time>2026-04-06T10:26:28.009Z</time></trkpt><trkpt lat="44.1370266" lon="12.0963892"><ele>108.0</ele><time>2026-04-06T10:26:29.008Z</time></trkpt><trkpt lat="44.1371539" lon="12.0963708"><ele>108.0</ele><time>2026-04-06T10:26:30.01Z</time></trkpt><trkpt lat="44.1372788" lon="12.0963467"><ele>108.0</ele><time>2026-04-06T10:26:31.009Z</time></trkpt><trkpt lat="44.1374" lon="12.0963311"><ele>108.0</ele><time>2026-04-06T10:26:32.012Z</time></trkpt><trkpt lat="44.1375179" lon="12.0962859"><ele>105.75</ele><time>2026-04-06T10:26:33.01Z</time></trkpt><trkpt lat="44.1376353" lon="12.096252"><ele>103.5</ele><time>2026-04-06T10:26:34.008Z</time></trkpt><trkpt lat="44.1377501" lon="12.0961954"><ele>101.25</ele><time>2026-04-06T10:26:35.007Z</time></trkpt><trkpt lat="44.1378578" lon="12.0961212"><ele>99.0</ele><time>2026-04-06T10:26:36.011Z</time></trkpt><trkpt lat="44.1379555" lon="12.0960261"><ele>99.0</ele><time>2026-04-06T10:26:37.009Z</time></trkpt><trkpt lat="44.1380575" lon="12.0959239"><ele>99.0</ele><time>2026-04-06T10:26:38.008Z</time></trkpt><trkpt lat="44.1381718" lon="12.0958169"><ele>99.0</ele><time>2026-04-06T10:26:39.008Z</time></trkpt><trkpt lat="44.1383029" lon="12.0957299"><ele>99.0</ele><time>2026-04-06T10:26:40.007Z</time></trkpt><trkpt lat="44.1384451" lon="12.0956703"><ele>94.33333333333333</ele><time>2026-04-06T10:26:41.008Z</time></trkpt><trkpt lat="44.1385956" lon="12.0956425"><ele>89.66666666666666</ele><time>2026-04-06T10:26:42.012Z</time></trkpt><trkpt lat="44.1387485" lon="12.0956406"><ele>85.0</ele><time>2026-04-06T10:26:43.007Z</time></trkpt><trkpt lat="44.1389031" lon="12.0956579"><ele>83.0</ele><time>2026-04-06T10:26:44.006Z</time></trkpt><trkpt lat="44.1390623" lon="12.095682"><ele>81.0</ele><time>2026-04-06T10:26:45.007Z</time></trkpt><trkpt lat="44.1392189" lon="12.0957071"><ele>79.0</ele><time>2026-04-06T10:26:46.008Z</time></trkpt><trkpt lat="44.1393766" lon="12.0957311"><ele>78.66666666666666</ele><time>2026-04-06T10:26:47.007Z</time></trkpt><trkpt lat="44.1395396" lon="12.095757"><ele>78.33333333333333</ele><time>2026-04-06T10:26:48.008Z</time></trkpt><trkpt lat="44.1397055" lon="12.0957904"><ele>78.0</ele><time>2026-04-06T10:26:49.007Z</time></trkpt><trkpt lat="44.1398638" lon="12.0958238"><ele>77.0</ele><time>2026-04-06T10:26:50.007Z</time></trkpt><trkpt lat="44.140005" lon="12.0958555"><ele>76.0</ele><time>2026-04-06T10:26:51.01Z</time></trkpt><trkpt lat="44.1401371" lon="12.0958873"><ele>75.0</ele><time>2026-04-06T10:26:52.008Z</time></trkpt><trkpt lat="44.1402595" lon="12.0959154"><ele>74.0</ele><time>2026-04-06T10:26:53.007Z</time></trkpt><trkpt lat="44.1403739" lon="12.0959315"><ele>74.0</ele><time>2026-04-06T10:26:54.007Z</time></trkpt><trkpt lat="44.1404873" lon="12.0959521"><ele>74.0</ele><time>2026-04-06T10:26:55.007Z</time></trkpt><trkpt lat="44.1406099" lon="12.0959631"><ele>74.0</ele><time>2026-04-06T10:26:56.008Z</time></trkpt><trkpt lat="44.1407406" lon="12.0959527"><ele>74.0</ele><time>2026-04-06T10:26:57.007Z</time></trkpt><trkpt lat="44.1408756" lon="12.0959511"><ele>72.75</ele><time>2026-04-06T10:26:58.008Z</time></trkpt><trkpt lat="44.1410088" lon="12.0959579"><ele>71.5</ele><time>2026-04-06T10:26:59.007Z</time></trkpt><trkpt lat="44.1411343" lon="12.0959658"><ele>70.25</ele><time>2026-04-06T10:27:00.011Z</time></trkpt><trkpt lat="44.1412475" lon="12.0959837"><ele>69.0</ele><time>2026-04-06T10:27:01.009Z</time></trkpt><trkpt lat="44.1413544" lon="12.0960131"><ele>69.0</ele><time>2026-04-06T10:27:02.007Z</time></trkpt><trkpt lat="44.1414451" lon="12.0960279"><ele>69.0</ele><time>2026-04-06T10:27:03.008Z</time></trkpt><trkpt lat="44.1415198" lon="12.0960089"><ele>69.0</ele><time>2026-04-06T10:27:04.009Z</time></trkpt><trkpt lat="44.1415867" lon="12.0959692"><ele>69.0</ele><time>2026-04-06T10:27:05.007Z</time></trkpt><trkpt lat="44.1416533" lon="12.0959291"><ele>69.0</ele><time>2026-04-06T10:27:06.007Z</time></trkpt><trkpt lat="44.1417228" lon="12.095883"><ele>69.0</ele><time>2026-04-06T10:27:07.007Z</time></trkpt><trkpt lat="44.1417968" lon="12.0958345"><ele>67.2</ele><time>2026-04-06T10:27:08.009Z</time></trkpt><trkpt lat="44.1418661" lon="12.0957876"><ele>65.4</ele><time>2026-04-06T10:27:09.007Z</time></trkpt><trkpt lat="44.1419266" lon="12.0957449"><ele>63.6</ele><time>2026-04-06T10:27:10.007Z</time></trkpt><trkpt lat="44.1420338" lon="12.0957388"><ele>61.8</ele><time>2026-04-06T10:27:12.007Z</time></trkpt><trkpt lat="44.1421509" lon="12.0958493"><ele>60.0</ele><time>2026-04-06T10:27:14.007Z</time></trkpt><trkpt lat="44.1422153" lon="12.0959951"><ele>60.0</ele><time>2026-04-06T10:27:15.007Z</time></trkpt><trkpt lat="44.1422808" lon="12.0961698"><ele>60.0</ele><time>2026-04-06T10:27:16.007Z</time></trkpt><trkpt lat="44.1423569" lon="12.0963323"><ele>60.0</ele><time>2026-04-06T10:27:17.007Z</time></trkpt><trkpt lat="44.142428" lon="12.0964932"><ele>60.0</ele><time>2026-04-06T10:27:18.007Z</time></trkpt><trkpt lat="44.1424977" lon="12.0966601"><ele>58.75</ele><time>2026-04-06T10:27:19.009Z</time></trkpt><trkpt lat="44.1425645" lon="12.0968279"><ele>57.5</ele><time>2026-04-06T10:27:20.013Z</time></trkpt><trkpt lat="44.1426212" lon="12.0969867"><ele>56.25</ele><time>2026-04-06T10:27:21.011Z</time></trkpt><trkpt lat="44.142666" lon="12.0971254"><ele>55.0</ele><time>2026-04-06T10:27:22.009Z</time></trkpt><trkpt lat="44.1427018" lon="12.0972469"><ele>54.99999999999999</ele><time>2026-04-06T10:27:23.008Z</time></trkpt><trkpt lat="44.1427314" lon="12.0973531"><ele>55.0</ele><time>2026-04-06T10:27:24.011Z</time></trkpt><trkpt lat="44.142752" lon="12.0974483"><ele>55.0</ele><time>2026-04-06T10:27:25.009Z</time></trkpt><trkpt lat="44.1427518" lon="12.09755"><ele>55.0</ele><time>2026-04-06T10:27:26.008Z</time></trkpt><trkpt lat="44.1427252" lon="12.0976686"><ele>54.99999999999999</ele><time>2026-04-06T10:27:27.008Z</time></trkpt><trkpt lat="44.1426739" lon="12.0977938"><ele>55.0</ele><time>2026-04-06T10:27:28.009Z</time></trkpt><trkpt lat="44.1426244" lon="12.097931"><ele>55.75</ele><time>2026-04-06T10:27:29.013Z</time></trkpt><trkpt lat="44.1425749" lon="12.0980772"><ele>56.5</ele><time>2026-04-06T10:27:30.009Z</time></trkpt><trkpt lat="44.1425271" lon="12.0982312"><ele>57.25</ele><time>2026-04-06T10:27:31.012Z</time></trkpt><trkpt lat="44.142482" lon="12.0983931"><ele>58.0</ele><time>2026-04-06T10:27:32.008Z</time></trkpt><trkpt lat="44.1424394" lon="12.0985517"><ele>58.0</ele><time>2026-04-06T10:27:33.008Z</time></trkpt><trkpt lat="44.1424029" lon="12.0986973"><ele>58.0</ele><time>2026-04-06T10:27:34.008Z</time></trkpt><trkpt lat="44.1423738" lon="12.0988423"><ele>58.0</ele><time>2026-04-06T10:27:35.008Z</time></trkpt><trkpt lat="44.1423385" lon="12.0989907"><ele>58.0</ele><time>2026-04-06T10:27:36.009Z</time></trkpt><trkpt lat="44.1423066" lon="12.0991506"><ele>56.75</ele><time>2026-04-06T10:27:37.009Z</time></trkpt><trkpt lat="44.1422905" lon="12.0993219"><ele>55.5</ele><time>2026-04-06T10:27:38.009Z</time></trkpt><trkpt lat="44.1423051" lon="12.0995062"><ele>54.25</ele><time>2026-04-06T10:27:39.009Z</time></trkpt><trkpt lat="44.1423569" lon="12.0996991"><ele>53.0</ele><time>2026-04-06T10:27:40.009Z</time></trkpt><trkpt lat="44.1424145" lon="12.0998952"><ele>52.25</ele><time>2026-04-06T10:27:41.011Z</time></trkpt><trkpt lat="44.1424678" lon="12.1000863"><ele>51.5</ele><time>2026-04-06T10:27:42.007Z</time></trkpt><trkpt lat="44.1425169" lon="12.1002696"><ele>50.75</ele><time>2026-04-06T10:27:43.008Z</time></trkpt><trkpt lat="44.142554" lon="12.1004413"><ele>50.0</ele><time>2026-04-06T10:27:44.008Z</time></trkpt><trkpt lat="44.1425872" lon="12.1005978"><ele>50.0</ele><time>2026-04-06T10:27:45.008Z</time></trkpt><trkpt lat="44.142617" lon="12.100747"><ele>50.0</ele><time>2026-04-06T10:27:46.008Z</time></trkpt><trkpt lat="44.1426383" lon="12.1008776"><ele>50.0</ele><time>2026-04-06T10:27:47.007Z</time></trkpt><trkpt lat="44.1426372" lon="12.1009892"><ele>50.0</ele><time>2026-04-06T10:27:48.008Z</time></trkpt><trkpt lat="44.1426052" lon="12.1011126"><ele>50.0</ele><time>2026-04-06T10:27:50.006Z</time></trkpt><trkpt lat="44.1425287" lon="12.1011576"><ele>50.0</ele><time>2026-04-06T10:27:52.009Z</time></trkpt><trkpt lat="44.1424659" lon="12.1011502"><ele>50.0</ele><time>2026-04-06T10:27:53.012Z</time></trkpt><trkpt lat="44.1423819" lon="12.1010987"><ele>50.0</ele><time>2026-04-06T10:27:54.008Z</time></trkpt><trkpt lat="44.1422781" lon="12.1010269"><ele>50.0</ele><time>2026-04-06T10:27:55.007Z</time></trkpt><trkpt lat="44.1421633" lon="12.1009501"><ele>50.0</ele><time>2026-04-06T10:27:56.007Z</time></trkpt><trkpt lat="44.1420501" lon="12.1008875"><ele>50.4</ele><time>2026-04-06T10:27:57.006Z</time></trkpt><trkpt lat="44.1419429" lon="12.1008359"><ele>50.8</ele><time>2026-04-06T10:27:58.006Z</time></trkpt><trkpt lat="44.1418419" lon="12.1007965"><ele>51.2</ele><time>2026-04-06T10:27:59.008Z</time></trkpt><trkpt lat="44.1417399" lon="12.1007594"><ele>51.6</ele><time>2026-04-06T10:28:00.008Z</time></trkpt><trkpt lat="44.1416292" lon="12.1007215"><ele>52.0</ele><time>2026-04-06T10:28:01.008Z</time></trkpt><trkpt lat="44.1415055" lon="12.1006785"><ele>52.5</ele><time>2026-04-06T10:28:02.008Z</time></trkpt><trkpt lat="44.1413762" lon="12.1006286"><ele>53.0</ele><time>2026-04-06T10:28:03.008Z</time></trkpt><trkpt lat="44.1412435" lon="12.1005746"><ele>53.5</ele><time>2026-04-06T10:28:04.007Z</time></trkpt><trkpt lat="44.1411065" lon="12.1005205"><ele>54.0</ele><time>2026-04-06T10:28:05.009Z</time></trkpt><trkpt lat="44.1409549" lon="12.1004733"><ele>54.0</ele><time>2026-04-06T10:28:06.008Z</time></trkpt><trkpt lat="44.1407979" lon="12.100427"><ele>54.0</ele><time>2026-04-06T10:28:07.007Z</time></trkpt><trkpt lat="44.1406435" lon="12.1003855"><ele>54.0</ele><time>2026-04-06T10:28:08.008Z</time></trkpt><trkpt lat="44.1404911" lon="12.1003412"><ele>54.33333333333333</ele><time>2026-04-06T10:28:09.007Z</time></trkpt><trkpt lat="44.1403437" lon="12.1003054"><ele>54.666666666666664</ele><time>2026-04-06T10:28:10.01Z</time></trkpt><trkpt lat="44.1401934" lon="12.1002823"><ele>55.0</ele><time>2026-04-06T10:28:11.007Z</time></trkpt><trkpt lat="44.1400431" lon="12.1002848"><ele>55.0</ele><time>2026-04-06T10:28:12.008Z</time></trkpt><trkpt lat="44.1398921" lon="12.1003208"><ele>55.0</ele><time>2026-04-06T10:28:13.009Z</time></trkpt><trkpt lat="44.1397419" lon="12.1003869"><ele>55.0</ele><time>2026-04-06T10:28:14.008Z</time></trkpt><trkpt lat="44.1395973" lon="12.1004766"><ele>55.0</ele><time>2026-04-06T10:28:15.008Z</time></trkpt><trkpt lat="44.1394581" lon="12.1005823"><ele>55.0</ele><time>2026-04-06T10:28:16.008Z</time></trkpt><trkpt lat="44.1393307" lon="12.1007068"><ele>55.0</ele><time>2026-04-06T10:28:17.007Z</time></trkpt><trkpt lat="44.1392081" lon="12.1008493"><ele>54.5</ele><time>2026-04-06T10:28:18.009Z</time></trkpt><trkpt lat="44.1390936" lon="12.1009891"><ele>54.0</ele><time>2026-04-06T10:28:19.006Z</time></trkpt><trkpt lat="44.1389993" lon="12.1011334"><ele>53.5</ele><time>2026-04-06T10:28:20.007Z</time></trkpt><trkpt lat="44.1389231" lon="12.1012973"><ele>53.0</ele><time>2026-04-06T10:28:21.009Z</time></trkpt><trkpt lat="44.1388583" lon="12.101481"><ele>53.0</ele><time>2026-04-06T10:28:22.006Z</time></trkpt><trkpt lat="44.1387896" lon="12.1016777"><ele>53.0</ele><time>2026-04-06T10:28:23.005Z</time></trkpt><trkpt lat="44.1387227" lon="12.1018732"><ele>53.0</ele><time>2026-04-06T10:28:24.006Z</time></trkpt><trkpt lat="44.1386568" lon="12.1020762"><ele>53.0</ele><time>2026-04-06T10:28:25.006Z</time></trkpt><trkpt lat="44.1385921" lon="12.1022793"><ele>53.0</ele><time>2026-04-06T10:28:26.007Z</time></trkpt><trkpt lat="44.1385238" lon="12.1024736"><ele>53.0</ele><time>2026-04-06T10:28:27.007Z</time></trkpt><trkpt lat="44.1384544" lon="12.1026662"><ele>54.0</ele><time>2026-04-06T10:28:28.008Z</time></trkpt><trkpt lat="44.1383847" lon="12.1028671"><ele>55.0</ele><time>2026-04-06T10:28:29.007Z</time></trkpt><trkpt lat="44.1383146" lon="12.1030672"><ele>56.0</ele><time>2026-04-06T10:28:30.009Z</time></trkpt><trkpt lat="44.1382456" lon="12.1032586"><ele>55.5</ele><time>2026-04-06T10:28:31.007Z</time></trkpt><trkpt lat="44.1381777" lon="12.1034413"><ele>55.0</ele><time>2026-04-06T10:28:32.008Z</time></trkpt><trkpt lat="44.1381117" lon="12.1036126"><ele>54.5</ele><time>2026-04-06T10:28:33.009Z</time></trkpt><trkpt lat="44.1380466" lon="12.1037816"><ele>54.0</ele><time>2026-04-06T10:28:34.007Z</time></trkpt><trkpt lat="44.1379803" lon="12.1039544"><ele>54.5</ele><time>2026-04-06T10:28:35.008Z</time></trkpt><trkpt lat="44.1379115" lon="12.1041333"><ele>55.0</ele><time>2026-04-06T10:28:36.007Z</time></trkpt><trkpt lat="44.1378466" lon="12.1043227"><ele>55.5</ele><time>2026-04-06T10:28:37.008Z</time></trkpt><trkpt lat="44.1377814" lon="12.1045157"><ele>56.0</ele><time>2026-04-06T10:28:38.007Z</time></trkpt><trkpt lat="44.1377159" lon="12.1046961"><ele>56.0</ele><time>2026-04-06T10:28:39.008Z</time></trkpt><trkpt lat="44.1376607" lon="12.1048472"><ele>55.99999999999999</ele><time>2026-04-06T10:28:40.008Z</time></trkpt><trkpt lat="44.1376112" lon="12.104976"><ele>55.99999999999999</ele><time>2026-04-06T10:28:41.006Z</time></trkpt><trkpt lat="44.137567" lon="12.1050941"><ele>56.0</ele><time>2026-04-06T10:28:42.008Z</time></trkpt><trkpt lat="44.1375204" lon="12.1051998"><ele>56.0</ele><time>2026-04-06T10:28:43.007Z</time></trkpt><trkpt lat="44.137454" lon="12.1052924"><ele>55.599999999999994</ele><time>2026-04-06T10:28:44.008Z</time></trkpt><trkpt lat="44.1373766" lon="12.1053835"><ele>55.199999999999996</ele><time>2026-04-06T10:28:45.007Z</time></trkpt><trkpt lat="44.13729" lon="12.105474"><ele>54.800000000000004</ele><time>2026-04-06T10:28:46.007Z</time></trkpt><trkpt lat="44.1371934" lon="12.1055594"><ele>54.400000000000006</ele><time>2026-04-06T10:28:47.006Z</time></trkpt><trkpt lat="44.1370919" lon="12.1056388"><ele>54.0</ele><time>2026-04-06T10:28:48.006Z</time></trkpt><trkpt lat="44.136989" lon="12.1057147"><ele>54.5</ele><time>2026-04-06T10:28:49.008Z</time></trkpt><trkpt lat="44.1368838" lon="12.1057872"><ele>55.0</ele><time>2026-04-06T10:28:50.007Z</time></trkpt><trkpt lat="44.1367695" lon="12.1058521"><ele>55.5</ele><time>2026-04-06T10:28:51.007Z</time></trkpt><trkpt lat="44.136637" lon="12.1058774"><ele>56.0</ele><time>2026-04-06T10:28:52.006Z</time></trkpt><trkpt lat="44.1364857" lon="12.1058416"><ele>55.333333333333336</ele><time>2026-04-06T10:28:53.008Z</time></trkpt><trkpt lat="44.1363321" lon="12.1057618"><ele>54.66666666666667</ele><time>2026-04-06T10:28:54.008Z</time></trkpt><trkpt lat="44.1361865" lon="12.1056738"><ele>54.0</ele><time>2026-04-06T10:28:55.008Z</time></trkpt><trkpt lat="44.1360506" lon="12.1056017"><ele>54.0</ele><time>2026-04-06T10:28:56.007Z</time></trkpt><trkpt lat="44.1359128" lon="12.1055642"><ele>54.0</ele><time>2026-04-06T10:28:57.008Z</time></trkpt><trkpt lat="44.1357743" lon="12.1055695"><ele>54.0</ele><time>2026-04-06T10:28:58.007Z</time></trkpt><trkpt lat="44.1356373" lon="12.1056195"><ele>54.0</ele><time>2026-04-06T10:28:59.008Z</time></trkpt><trkpt lat="44.135497" lon="12.1057026"><ele>56.0</ele><time>2026-04-06T10:29:00.007Z</time></trkpt><trkpt lat="44.1353456" lon="12.1057958"><ele>58.0</ele><time>2026-04-06T10:29:01.007Z</time></trkpt><trkpt lat="44.135195" lon="12.1058792"><ele>60.0</ele><time>2026-04-06T10:29:02.006Z</time></trkpt><trkpt lat="44.1350436" lon="12.1059406"><ele>59.33333333333333</ele><time>2026-04-06T10:29:03.01Z</time></trkpt><trkpt lat="44.1348848" lon="12.1059733"><ele>58.666666666666664</ele><time>2026-04-06T10:29:04.008Z</time></trkpt><trkpt lat="44.1347163" lon="12.105993"><ele>58.0</ele><time>2026-04-06T10:29:05.008Z</time></trkpt><trkpt lat="44.1345403" lon="12.1060025"><ele>58.0</ele><time>2026-04-06T10:29:06.01Z</time></trkpt><trkpt lat="44.1343601" lon="12.1060025"><ele>58.0</ele><time>2026-04-06T10:29:07.007Z</time></trkpt><trkpt lat="44.1341804" lon="12.1060404"><ele>58.0</ele><time>2026-04-06T10:29:08.008Z</time></trkpt><trkpt lat="44.1340029" lon="12.1061029"><ele>57.666666666666664</ele><time>2026-04-06T10:29:09.008Z</time></trkpt><trkpt lat="44.1338284" lon="12.1062033"><ele>57.33333333333333</ele><time>2026-04-06T10:29:10.007Z</time></trkpt><trkpt lat="44.1336526" lon="12.1062983"><ele>57.0</ele><time>2026-04-06T10:29:11.009Z</time></trkpt><trkpt lat="44.1334864" lon="12.1063892"><ele>57.0</ele><time>2026-04-06T10:29:12.007Z</time></trkpt><trkpt lat="44.1333285" lon="12.1064674"><ele>57.0</ele><time>2026-04-06T10:29:13.008Z</time></trkpt><trkpt lat="44.1331792" lon="12.1065344"><ele>57.0</ele><time>2026-04-06T10:29:14.005Z</time></trkpt><trkpt lat="44.1330356" lon="12.106584"><ele>59.5</ele><time>2026-04-06T10:29:15.009Z</time></trkpt><trkpt lat="44.1329024" lon="12.1066245"><ele>62.0</ele><time>2026-04-06T10:29:16.009Z</time></trkpt><trkpt lat="44.1327757" lon="12.1066472"><ele>64.5</ele><time>2026-04-06T10:29:17.007Z</time></trkpt><trkpt lat="44.1326545" lon="12.1066311"><ele>67.0</ele><time>2026-04-06T10:29:18.008Z</time></trkpt><trkpt lat="44.1325429" lon="12.1065812"><ele>64.25</ele><time>2026-04-06T10:29:19.008Z</time></trkpt><trkpt lat="44.132424" lon="12.1065254"><ele>61.5</ele><time>2026-04-06T10:29:20.008Z</time></trkpt><trkpt lat="44.1322908" lon="12.1064826"><ele>58.75</ele><time>2026-04-06T10:29:21.007Z</time></trkpt><trkpt lat="44.1321404" lon="12.1064701"><ele>56.0</ele><time>2026-04-06T10:29:22.009Z</time></trkpt><trkpt lat="44.1319764" lon="12.1064856"><ele>56.0</ele><time>2026-04-06T10:29:23.008Z</time></trkpt><trkpt lat="44.1318086" lon="12.1065207"><ele>56.0</ele><time>2026-04-06T10:29:24.009Z</time></trkpt><trkpt lat="44.1316476" lon="12.1065769"><ele>56.0</ele><time>2026-04-06T10:29:25.011Z</time></trkpt><trkpt lat="44.1314938" lon="12.1066533"><ele>56.0</ele><time>2026-04-06T10:29:26.008Z</time></trkpt><trkpt lat="44.1313393" lon="12.1067395"><ele>56.0</ele><time>2026-04-06T10:29:27.009Z</time></trkpt><trkpt lat="44.1311832" lon="12.1068208"><ele>56.0</ele><time>2026-04-06T10:29:28.008Z</time></trkpt><trkpt lat="44.1310255" lon="12.1068778"><ele>56.0</ele><time>2026-04-06T10:29:29.008Z</time></trkpt><trkpt lat="44.1308726" lon="12.1068954"><ele>56.0</ele><time>2026-04-06T10:29:30.008Z</time></trkpt><trkpt lat="44.130721" lon="12.1068693"><ele>56.0</ele><time>2026-04-06T10:29:31.008Z</time></trkpt><trkpt lat="44.1305655" lon="12.1068234"><ele>55.333333333333336</ele><time>2026-04-06T10:29:32.009Z</time></trkpt><trkpt lat="44.1304113" lon="12.1067799"><ele>54.66666666666667</ele><time>2026-04-06T10:29:33.009Z</time></trkpt><trkpt lat="44.1302536" lon="12.1067526"><ele>54.0</ele><time>2026-04-06T10:29:34.009Z</time></trkpt><trkpt lat="44.1300938" lon="12.1067506"><ele>54.0</ele><time>2026-04-06T10:29:35.009Z</time></trkpt><trkpt lat="44.1299307" lon="12.1067808"><ele>54.0</ele><time>2026-04-06T10:29:36.01Z</time></trkpt><trkpt lat="44.1297643" lon="12.1068309"><ele>54.0</ele><time>2026-04-06T10:29:37.008Z</time></trkpt><trkpt lat="44.129596" lon="12.1068999"><ele>54.66666666666667</ele><time>2026-04-06T10:29:38.01Z</time></trkpt><trkpt lat="44.1294303" lon="12.1069888"><ele>55.333333333333336</ele><time>2026-04-06T10:29:39.009Z</time></trkpt><trkpt lat="44.1292643" lon="12.1071014"><ele>56.0</ele><time>2026-04-06T10:29:40.007Z</time></trkpt><trkpt lat="44.1290988" lon="12.1072292"><ele>56.333333333333336</ele><time>2026-04-06T10:29:41.009Z</time></trkpt><trkpt lat="44.1289275" lon="12.107368"><ele>56.66666666666667</ele><time>2026-04-06T10:29:42.008Z</time></trkpt><trkpt lat="44.1287583" lon="12.10751"><ele>57.0</ele><time>2026-04-06T10:29:43.01Z</time></trkpt><trkpt lat="44.1285955" lon="12.1076463"><ele>58.0</ele><time>2026-04-06T10:29:44.008Z</time></trkpt><trkpt lat="44.128444" lon="12.1077647"><ele>59.0</ele><time>2026-04-06T10:29:45.008Z</time></trkpt><trkpt lat="44.1283067" lon="12.107861"><ele>60.0</ele><time>2026-04-06T10:29:46.008Z</time></trkpt><trkpt lat="44.1281741" lon="12.107953"><ele>60.0</ele><time>2026-04-06T10:29:47.008Z</time></trkpt><trkpt lat="44.1280405" lon="12.1080361"><ele>60.0</ele><time>2026-04-06T10:29:48.009Z</time></trkpt><trkpt lat="44.1279048" lon="12.1081122"><ele>60.0</ele><time>2026-04-06T10:29:49.009Z</time></trkpt><trkpt lat="44.1277692" lon="12.1081771"><ele>60.0</ele><time>2026-04-06T10:29:50.008Z</time></trkpt><trkpt lat="44.1276414" lon="12.1082388"><ele>60.0</ele><time>2026-04-06T10:29:51.01Z</time></trkpt><trkpt lat="44.1275151" lon="12.108302"><ele>60.0</ele><time>2026-04-06T10:29:52.008Z</time></trkpt><trkpt lat="44.1273891" lon="12.1083707"><ele>60.0</ele><time>2026-04-06T10:29:53.01Z</time></trkpt><trkpt lat="44.1272514" lon="12.1084425"><ele>60.0</ele><time>2026-04-06T10:29:54.008Z</time></trkpt><trkpt lat="44.1271021" lon="12.1085238"><ele>60.0</ele><time>2026-04-06T10:29:55.011Z</time></trkpt><trkpt lat="44.1269456" lon="12.1086073"><ele>60.0</ele><time>2026-04-06T10:29:56.008Z</time></trkpt><trkpt lat="44.1267894" lon="12.1086873"><ele>60.0</ele><time>2026-04-06T10:29:57.011Z</time></trkpt><trkpt lat="44.1266372" lon="12.108766"><ele>59.33333333333333</ele><time>2026-04-06T10:29:58.007Z</time></trkpt><trkpt lat="44.1264884" lon="12.108841"><ele>58.666666666666664</ele><time>2026-04-06T10:29:59.007Z</time></trkpt><trkpt lat="44.1263485" lon="12.1089242"><ele>58.0</ele><time>2026-04-06T10:30:00.01Z</time></trkpt><trkpt lat="44.1262258" lon="12.1090312"><ele>58.5</ele><time>2026-04-06T10:30:01.01Z</time></trkpt><trkpt lat="44.126119" lon="12.1091499"><ele>59.0</ele><time>2026-04-06T10:30:02.011Z</time></trkpt><trkpt lat="44.1260258" lon="12.1092759"><ele>59.5</ele><time>2026-04-06T10:30:03.009Z</time></trkpt><trkpt lat="44.125943" lon="12.1094004"><ele>60.0</ele><time>2026-04-06T10:30:04.007Z</time></trkpt><trkpt lat="44.1258728" lon="12.1095192"><ele>60.0</ele><time>2026-04-06T10:30:05.007Z</time></trkpt><trkpt lat="44.1258101" lon="12.1096327"><ele>60.0</ele><time>2026-04-06T10:30:06.007Z</time></trkpt><trkpt lat="44.125752" lon="12.1097386"><ele>60.0</ele><time>2026-04-06T10:30:07.008Z</time></trkpt><trkpt lat="44.1257025" lon="12.1098333"><ele>60.0</ele><time>2026-04-06T10:30:08.01Z</time></trkpt><trkpt lat="44.1256587" lon="12.109911"><ele>60.0</ele><time>2026-04-06T10:30:09.008Z</time></trkpt><trkpt lat="44.1255967" lon="12.1100238"><ele>60.166666666666664</ele><time>2026-04-06T10:30:11.008Z</time></trkpt><trkpt lat="44.1255349" lon="12.1100948"><ele>60.33333333333333</ele><time>2026-04-06T10:30:14.008Z</time></trkpt><trkpt lat="44.1254521" lon="12.1101567"><ele>60.5</ele><time>2026-04-06T10:30:16.007Z</time></trkpt><trkpt lat="44.1253874" lon="12.1101663"><ele>60.666666666666664</ele><time>2026-04-06T10:30:17.006Z</time></trkpt><trkpt lat="44.1253224" lon="12.1101504"><ele>60.83333333333333</ele><time>2026-04-06T10:30:18.009Z</time></trkpt><trkpt lat="44.1252629" lon="12.1101165"><ele>61.0</ele><time>2026-04-06T10:30:19.006Z</time></trkpt><trkpt lat="44.1251586" lon="12.1100392"><ele>61.0</ele><time>2026-04-06T10:30:21.006Z</time></trkpt><trkpt lat="44.1250978" lon="12.1099835"><ele>60.99999999999999</ele><time>2026-04-06T10:30:23.007Z</time></trkpt><trkpt lat="44.12506" lon="12.1098583"><ele>60.99999999999999</ele><time>2026-04-06T10:31:02.007Z</time></trkpt><trkpt lat="44.12511" lon="12.1099583"><ele>61.0</ele><time>2026-04-06T10:31:11.006Z</time></trkpt><trkpt lat="44.12518" lon="12.1099983"><ele>61.0</ele><time>2026-04-06T10:31:12.007Z</time></trkpt><trkpt lat="44.1252883" lon="12.110065"><ele>61.0</ele><time>2026-04-06T10:31:13.006Z</time></trkpt><trkpt lat="44.1253867" lon="12.11011"><ele>60.99999999999999</ele><time>2026-04-06T10:31:14.006Z</time></trkpt><trkpt lat="44.1254683" lon="12.1101217"><ele>60.99999999999999</ele><time>2026-04-06T10:31:15.011Z</time></trkpt><trkpt lat="44.1255517" lon="12.1101267"><ele>61.0</ele><time>2026-04-06T10:31:16.007Z</time></trkpt><trkpt lat="44.1256317" lon="12.1101933"><ele>61.0</ele><time>2026-04-06T10:31:18.006Z</time></trkpt><trkpt lat="44.1256517" lon="12.1103533"><ele>61.0</ele><time>2026-04-06T10:31:20.007Z</time></trkpt><trkpt lat="44.12565" lon="12.11046"><ele>60.99999999999999</ele><time>2026-04-06T10:31:21.007Z</time></trkpt><trkpt lat="44.125655" lon="12.1105933"><ele>60.99999999999999</ele><time>2026-04-06T10:31:22.011Z</time></trkpt><trkpt lat="44.1256633" lon="12.110735"><ele>61.0</ele><time>2026-04-06T10:31:23.007Z</time></trkpt><trkpt lat="44.1256617" lon="12.1108883"><ele>61.0</ele><time>2026-04-06T10:31:24.007Z</time></trkpt><trkpt lat="44.12568" lon="12.1110367"><ele>61.5</ele><time>2026-04-06T10:31:25.01Z</time></trkpt><trkpt lat="44.1256883" lon="12.1112183"><ele>62.0</ele><time>2026-04-06T10:31:26.006Z</time></trkpt><trkpt lat="44.1257067" lon="12.1113917"><ele>62.5</ele><time>2026-04-06T10:31:27.014Z</time></trkpt><trkpt lat="44.12573" lon="12.1115767"><ele>63.0</ele><time>2026-04-06T10:31:28.007Z</time></trkpt><trkpt lat="44.1257533" lon="12.1117517"><ele>63.25</ele><time>2026-04-06T10:31:29.008Z</time></trkpt><trkpt lat="44.1257767" lon="12.11192"><ele>63.5</ele><time>2026-04-06T10:31:30.007Z</time></trkpt><trkpt lat="44.1257983" lon="12.1120833"><ele>63.75</ele><time>2026-04-06T10:31:31.007Z</time></trkpt><trkpt lat="44.1258183" lon="12.11224"><ele>64.0</ele><time>2026-04-06T10:31:32.006Z</time></trkpt><trkpt lat="44.125835" lon="12.1123867"><ele>63.83333333333333</ele><time>2026-04-06T10:31:33.007Z</time></trkpt><trkpt lat="44.125855" lon="12.1125183"><ele>63.666666666666664</ele><time>2026-04-06T10:31:34.007Z</time></trkpt><trkpt lat="44.1258717" lon="12.1126317"><ele>63.5</ele><time>2026-04-06T10:31:35.005Z</time></trkpt><trkpt lat="44.1258867" lon="12.11274"><ele>63.33333333333333</ele><time>2026-04-06T10:31:36.011Z</time></trkpt><trkpt lat="44.1259" lon="12.1128433"><ele>63.166666666666664</ele><time>2026-04-06T10:31:37.005Z</time></trkpt><trkpt lat="44.12591" lon="12.1129467"><ele>63.0</ele><time>2026-04-06T10:31:38.005Z</time></trkpt><trkpt lat="44.125925" lon="12.1130567"><ele>63.0</ele><time>2026-04-06T10:31:39.008Z</time></trkpt><trkpt lat="44.1259417" lon="12.11318"><ele>63.0</ele><time>2026-04-06T10:31:40.007Z</time></trkpt><trkpt lat="44.12596" lon="12.1133183"><ele>63.0</ele><time>2026-04-06T10:31:41.008Z</time></trkpt><trkpt lat="44.1259783" lon="12.1134717"><ele>63.0</ele><time>2026-04-06T10:31:42.008Z</time></trkpt><trkpt lat="44.1259983" lon="12.1136317"><ele>63.0</ele><time>2026-04-06T10:31:43.009Z</time></trkpt><trkpt lat="44.12602" lon="12.1137917"><ele>63.599999999999994</ele><time>2026-04-06T10:31:44.009Z</time></trkpt><trkpt lat="44.1260417" lon="12.11395"><ele>64.19999999999999</ele><time>2026-04-06T10:31:45.008Z</time></trkpt><trkpt lat="44.1260583" lon="12.1141033"><ele>64.8</ele><time>2026-04-06T10:31:46.007Z</time></trkpt><trkpt lat="44.1260733" lon="12.11425"><ele>65.39999999999999</ele><time>2026-04-06T10:31:47.006Z</time></trkpt><trkpt lat="44.1260917" lon="12.1143883"><ele>66.0</ele><time>2026-04-06T10:31:48.009Z</time></trkpt><trkpt lat="44.1261033" lon="12.1145217"><ele>67.0</ele><time>2026-04-06T10:31:49.008Z</time></trkpt><trkpt lat="44.12611" lon="12.1146517"><ele>68.0</ele><time>2026-04-06T10:31:50.01Z</time></trkpt><trkpt lat="44.1261167" lon="12.1147783"><ele>69.0</ele><time>2026-04-06T10:31:51.007Z</time></trkpt><trkpt lat="44.1261233" lon="12.1148983"><ele>70.0</ele><time>2026-04-06T10:31:52.011Z</time></trkpt><trkpt lat="44.1261267" lon="12.1150217"><ele>71.0</ele><time>2026-04-06T10:31:53.007Z</time></trkpt><trkpt lat="44.1261283" lon="12.1151517"><ele>73.0</ele><time>2026-04-06T10:31:54.007Z</time></trkpt><trkpt lat="44.12613" lon="12.1152833"><ele>75.0</ele><time>2026-04-06T10:31:55.006Z</time></trkpt><trkpt lat="44.1261333" lon="12.1154183"><ele>77.0</ele><time>2026-04-06T10:31:56.008Z</time></trkpt><trkpt lat="44.126135" lon="12.1155567"><ele>79.0</ele><time>2026-04-06T10:31:57.006Z</time></trkpt><trkpt lat="44.1261383" lon="12.115695"><ele>81.0</ele><time>2026-04-06T10:31:58.006Z</time></trkpt><trkpt lat="44.12614" lon="12.11583"><ele>82.66666666666667</ele><time>2026-04-06T10:31:59.006Z</time></trkpt><trkpt lat="44.126135" lon="12.1159533"><ele>84.33333333333333</ele><time>2026-04-06T10:32:00.009Z</time></trkpt><trkpt lat="44.1261283" lon="12.1160733"><ele>86.0</ele><time>2026-04-06T10:32:01.006Z</time></trkpt><trkpt lat="44.12612" lon="12.1161883"><ele>87.66666666666666</ele><time>2026-04-06T10:32:02.008Z</time></trkpt><trkpt lat="44.12611" lon="12.116305"><ele>89.33333333333333</ele><time>2026-04-06T10:32:03.007Z</time></trkpt><trkpt lat="44.1260917" lon="12.1164183"><ele>91.0</ele><time>2026-04-06T10:32:04.007Z</time></trkpt><trkpt lat="44.12607" lon="12.116525"><ele>91.6</ele><time>2026-04-06T10:32:05.007Z</time></trkpt><trkpt lat="44.1260483" lon="12.116615"><ele>92.19999999999999</ele><time>2026-04-06T10:32:06.007Z</time></trkpt><trkpt lat="44.1260117" lon="12.1167717"><ele>92.80000000000001</ele><time>2026-04-06T10:32:08.006Z</time></trkpt><trkpt lat="44.1259867" lon="12.11695"><ele>93.4</ele><time>2026-04-06T10:32:10.01Z</time></trkpt><trkpt lat="44.12598" lon="12.1170567"><ele>94.0</ele><time>2026-04-06T10:32:11.005Z</time></trkpt><trkpt lat="44.125975" lon="12.1171683"><ele>94.0</ele><time>2026-04-06T10:32:12.008Z</time></trkpt><trkpt lat="44.12597" lon="12.1172833"><ele>94.0</ele><time>2026-04-06T10:32:13.007Z</time></trkpt><trkpt lat="44.12597" lon="12.1174"><ele>94.0</ele><time>2026-04-06T10:32:14.01Z</time></trkpt><trkpt lat="44.1259733" lon="12.1175183"><ele>94.0</ele><time>2026-04-06T10:32:15.005Z</time></trkpt><trkpt lat="44.125985" lon="12.1176383"><ele>94.0</ele><time>2026-04-06T10:32:16.008Z</time></trkpt><trkpt lat="44.1260033" lon="12.1177567"><ele>94.0</ele><time>2026-04-06T10:32:17.008Z</time></trkpt><trkpt lat="44.1260183" lon="12.117875"><ele>94.83333333333333</ele><time>2026-04-06T10:32:18.007Z</time></trkpt><trkpt lat="44.1260367" lon="12.1179933"><ele>95.66666666666666</ele><time>2026-04-06T10:32:19.006Z</time></trkpt><trkpt lat="44.1260583" lon="12.11811"><ele>96.5</ele><time>2026-04-06T10:32:20.007Z</time></trkpt><trkpt lat="44.1260767" lon="12.1182133"><ele>97.33333333333333</ele><time>2026-04-06T10:32:21.008Z</time></trkpt><trkpt lat="44.1260933" lon="12.1183183"><ele>98.16666666666667</ele><time>2026-04-06T10:32:22.008Z</time></trkpt><trkpt lat="44.126105" lon="12.118415"><ele>99.0</ele><time>2026-04-06T10:32:23.006Z</time></trkpt><trkpt lat="44.12611" lon="12.1185067"><ele>100.14285714285715</ele><time>2026-04-06T10:32:24.008Z</time></trkpt><trkpt lat="44.126115" lon="12.118595"><ele>101.28571428571428</ele><time>2026-04-06T10:32:25.007Z</time></trkpt><trkpt lat="44.1261183" lon="12.118685"><ele>102.42857142857143</ele><time>2026-04-06T10:32:26.011Z</time></trkpt><trkpt lat="44.1261167" lon="12.1187783"><ele>103.57142857142858</ele><time>2026-04-06T10:32:27.009Z</time></trkpt><trkpt lat="44.126115" lon="12.1188683"><ele>104.71428571428572</ele><time>2026-04-06T10:32:28.007Z</time></trkpt><trkpt lat="44.1261146" lon="12.1189575"><ele>105.85714285714286</ele><time>2026-04-06T10:32:29.008Z</time></trkpt><trkpt lat="44.1261053" lon="12.1191214"><ele>107.0</ele><time>2026-04-06T10:32:31.008Z</time></trkpt><trkpt lat="44.1260934" lon="12.1192811"><ele>109.6</ele><time>2026-04-06T10:32:33.008Z</time></trkpt><trkpt lat="44.1260756" lon="12.1194497"><ele>112.19999999999999</ele><time>2026-04-06T10:32:35.007Z</time></trkpt><trkpt lat="44.1260552" lon="12.1196224"><ele>114.8</ele><time>2026-04-06T10:32:37.007Z</time></trkpt><trkpt lat="44.1260435" lon="12.1197168"><ele>117.4</ele><time>2026-04-06T10:32:38.007Z</time></trkpt><trkpt lat="44.1260304" lon="12.1198142"><ele>120.0</ele><time>2026-04-06T10:32:39.009Z</time></trkpt><trkpt lat="44.1260146" lon="12.1199123"><ele>122.4</ele><time>2026-04-06T10:32:40.012Z</time></trkpt><trkpt lat="44.1260002" lon="12.1200025"><ele>124.8</ele><time>2026-04-06T10:32:41.007Z</time></trkpt><trkpt lat="44.1259678" lon="12.120147"><ele>127.19999999999999</ele><time>2026-04-06T10:32:43.008Z</time></trkpt><trkpt lat="44.1259175" lon="12.1202714"><ele>129.6</ele><time>2026-04-06T10:32:45.007Z</time></trkpt><trkpt lat="44.1258965" lon="12.1203954"><ele>132.0</ele><time>2026-04-06T10:32:47.006Z</time></trkpt><trkpt lat="44.1258997" lon="12.1205464"><ele>132.0</ele><time>2026-04-06T10:32:49.009Z</time></trkpt><trkpt lat="44.1259093" lon="12.1207206"><ele>132.0</ele><time>2026-04-06T10:32:51.006Z</time></trkpt><trkpt lat="44.1259296" lon="12.1208894"><ele>132.0</ele><time>2026-04-06T10:32:53.006Z</time></trkpt><trkpt lat="44.1259257" lon="12.1210441"><ele>132.0</ele><time>2026-04-06T10:32:55.008Z</time></trkpt><trkpt lat="44.1259079" lon="12.1211572"><ele>132.0</ele><time>2026-04-06T10:32:57.007Z</time></trkpt><trkpt lat="44.125875" lon="12.1212688"><ele>135.2</ele><time>2026-04-06T10:32:59.007Z</time></trkpt><trkpt lat="44.12586" lon="12.1213717"><ele>138.39999999999998</ele><time>2026-04-06T10:35:04.008Z</time></trkpt><trkpt lat="44.1258633" lon="12.1214633"><ele>141.60000000000002</ele><time>2026-04-06T10:35:06.007Z</time></trkpt><trkpt lat="44.1258683" lon="12.1215983"><ele>144.8</ele><time>2026-04-06T10:35:08.008Z</time></trkpt><trkpt lat="44.1258998" lon="12.121698"><ele>148.0</ele><time>2026-04-06T10:35:10.006Z</time></trkpt><trkpt lat="44.126025" lon="12.1218433"><ele>150.33333333333334</ele><time>2026-04-06T10:36:09.009Z</time></trkpt><trkpt lat="44.1260567" lon="12.1219667"><ele>152.66666666666669</ele><time>2026-04-06T10:36:11.009Z</time></trkpt><trkpt lat="44.12606" lon="12.12212"><ele>155.0</ele><time>2026-04-06T10:36:13.009Z</time></trkpt><trkpt lat="44.12606" lon="12.122275"><ele>157.33333333333334</ele><time>2026-04-06T10:36:15.008Z</time></trkpt><trkpt lat="44.1260567" lon="12.1223633"><ele>159.66666666666666</ele><time>2026-04-06T10:36:16.008Z</time></trkpt><trkpt lat="44.1260633" lon="12.1224517"><ele>162.0</ele><time>2026-04-06T10:36:17.007Z</time></trkpt><trkpt lat="44.1260817" lon="12.1225367"><ele>164.83333333333334</ele><time>2026-04-06T10:36:18.011Z</time></trkpt><trkpt lat="44.1261267" lon="12.122695"><ele>167.66666666666666</ele><time>2026-04-06T10:36:20.01Z</time></trkpt><trkpt lat="44.1261467" lon="12.1227783"><ele>170.5</ele><time>2026-04-06T10:36:21.008Z</time></trkpt><trkpt lat="44.1261617" lon="12.1228667"><ele>173.33333333333331</ele><time>2026-04-06T10:36:22.008Z</time></trkpt><trkpt lat="44.1261683" lon="12.1229617"><ele>176.16666666666666</ele><time>2026-04-06T10:36:23.007Z</time></trkpt><trkpt lat="44.1261867" lon="12.1230517"><ele>179.0</ele><time>2026-04-06T10:36:24.006Z</time></trkpt><trkpt lat="44.12622" lon="12.123205"><ele>179.39999999999998</ele><time>2026-04-06T10:36:26.008Z</time></trkpt><trkpt lat="44.1262217" lon="12.12336"><ele>179.8</ele><time>2026-04-06T10:36:28.01Z</time></trkpt><trkpt lat="44.12618" lon="12.1235367"><ele>180.2</ele><time>2026-04-06T10:36:30.008Z</time></trkpt><trkpt lat="44.1261667" lon="12.123625"><ele>180.60000000000002</ele><time>2026-04-06T10:36:31.008Z</time></trkpt><trkpt lat="44.1261583" lon="12.1238017"><ele>181.0</ele><time>2026-04-06T10:36:33.01Z</time></trkpt><trkpt lat="44.1261467" lon="12.123905"><ele>181.0</ele><time>2026-04-06T10:36:34.008Z</time></trkpt><trkpt lat="44.1261083" lon="12.1240017"><ele>181.0</ele><time>2026-04-06T10:36:35.007Z</time></trkpt><trkpt lat="44.1260633" lon="12.124085"><ele>181.0</ele><time>2026-04-06T10:36:36.008Z</time></trkpt><trkpt lat="44.1260317" lon="12.1241633"><ele>181.0</ele><time>2026-04-06T10:36:37.009Z</time></trkpt><trkpt lat="44.1259567" lon="12.1242767"><ele>181.0</ele><time>2026-04-06T10:36:39.008Z</time></trkpt><trkpt lat="44.1259133" lon="12.1243633"><ele>181.0</ele><time>2026-04-06T10:36:42.007Z</time></trkpt><trkpt lat="44.12588" lon="12.1244683"><ele>180.60000000000002</ele><time>2026-04-06T10:36:44.008Z</time></trkpt><trkpt lat="44.1258617" lon="12.1246533"><ele>180.2</ele><time>2026-04-06T10:36:46.011Z</time></trkpt><trkpt lat="44.1258583" lon="12.1247433"><ele>179.8</ele><time>2026-04-06T10:36:47.006Z</time></trkpt><trkpt lat="44.1258762" lon="12.1248467"><ele>179.39999999999998</ele><time>2026-04-06T10:36:48.009Z</time></trkpt><trkpt lat="44.1259191" lon="12.1249654"><ele>179.0</ele><time>2026-04-06T10:36:49.007Z</time></trkpt><trkpt lat="44.1259754" lon="12.1250954"><ele>179.0</ele><time>2026-04-06T10:36:50.008Z</time></trkpt><trkpt lat="44.1260358" lon="12.1252387"><ele>179.0</ele><time>2026-04-06T10:36:51.01Z</time></trkpt><trkpt lat="44.1261177" lon="12.1253826"><ele>179.0</ele><time>2026-04-06T10:36:52.007Z</time></trkpt><trkpt lat="44.1262027" lon="12.1255273"><ele>179.0</ele><time>2026-04-06T10:36:53.006Z</time></trkpt><trkpt lat="44.1262869" lon="12.1256516"><ele>180.79999999999998</ele><time>2026-04-06T10:36:54.007Z</time></trkpt><trkpt lat="44.1263579" lon="12.125778"><ele>182.6</ele><time>2026-04-06T10:36:55.008Z</time></trkpt><trkpt lat="44.1264138" lon="12.1259057"><ele>184.4</ele><time>2026-04-06T10:36:56.007Z</time></trkpt><trkpt lat="44.1264604" lon="12.1260276"><ele>186.2</ele><time>2026-04-06T10:36:57.009Z</time></trkpt><trkpt lat="44.1264906" lon="12.1261589"><ele>188.0</ele><time>2026-04-06T10:36:58.007Z</time></trkpt><trkpt lat="44.1265183" lon="12.1263005"><ele>188.0</ele><time>2026-04-06T10:36:59.008Z</time></trkpt><trkpt lat="44.1265463" lon="12.1264508"><ele>188.0</ele><time>2026-04-06T10:37:00.008Z</time></trkpt><trkpt lat="44.1265911" lon="12.1265858"><ele>188.0</ele><time>2026-04-06T10:37:01.011Z</time></trkpt><trkpt lat="44.1266131" lon="12.1267332"><ele>188.0</ele><time>2026-04-06T10:37:02.007Z</time></trkpt><trkpt lat="44.1266367" lon="12.1268767"><ele>188.0</ele><time>2026-04-06T10:37:03.006Z</time></trkpt><trkpt lat="44.1266637" lon="12.1270077"><ele>190.66666666666666</ele><time>2026-04-06T10:37:04.007Z</time></trkpt><trkpt lat="44.1267007" lon="12.1271225"><ele>193.33333333333331</ele><time>2026-04-06T10:37:05.007Z</time></trkpt><trkpt lat="44.1267433" lon="12.1272261"><ele>196.0</ele><time>2026-04-06T10:37:06.007Z</time></trkpt><trkpt lat="44.1267954" lon="12.1273109"><ele>198.66666666666666</ele><time>2026-04-06T10:37:07.007Z</time></trkpt><trkpt lat="44.1268537" lon="12.1273632"><ele>201.33333333333334</ele><time>2026-04-06T10:37:08.007Z</time></trkpt><trkpt lat="44.1269152" lon="12.1273916"><ele>204.0</ele><time>2026-04-06T10:37:09.009Z</time></trkpt><trkpt lat="44.1269843" lon="12.1274169"><ele>206.39999999999998</ele><time>2026-04-06T10:37:10.011Z</time></trkpt><trkpt lat="44.1270623" lon="12.1274551"><ele>208.8</ele><time>2026-04-06T10:37:11.007Z</time></trkpt><trkpt lat="44.1271407" lon="12.1275135"><ele>211.20000000000002</ele><time>2026-04-06T10:37:12.006Z</time></trkpt><trkpt lat="44.1272157" lon="12.1275943"><ele>213.60000000000002</ele><time>2026-04-06T10:37:13.008Z</time></trkpt><trkpt lat="44.1272934" lon="12.1276991"><ele>216.0</ele><time>2026-04-06T10:37:14.007Z</time></trkpt><trkpt lat="44.1273777" lon="12.1278045"><ele>216.4</ele><time>2026-04-06T10:37:15.009Z</time></trkpt><trkpt lat="44.1274659" lon="12.1278921"><ele>216.8</ele><time>2026-04-06T10:37:16.007Z</time></trkpt><trkpt lat="44.127555" lon="12.1279522"><ele>217.20000000000002</ele><time>2026-04-06T10:37:17.006Z</time></trkpt><trkpt lat="44.1276414" lon="12.1279876"><ele>217.60000000000002</ele><time>2026-04-06T10:37:18.007Z</time></trkpt><trkpt lat="44.127721" lon="12.128011"><ele>218.0</ele><time>2026-04-06T10:37:19.006Z</time></trkpt><trkpt lat="44.127795" lon="12.1280186"><ele>218.0</ele><time>2026-04-06T10:37:20.011Z</time></trkpt><trkpt lat="44.1278666" lon="12.1280135"><ele>218.0</ele><time>2026-04-06T10:37:21.007Z</time></trkpt><trkpt lat="44.1279381" lon="12.1280083"><ele>218.0</ele><time>2026-04-06T10:37:22.006Z</time></trkpt><trkpt lat="44.1280106" lon="12.1280087"><ele>218.0</ele><time>2026-04-06T10:37:23.008Z</time></trkpt><trkpt lat="44.1280796" lon="12.1280117"><ele>218.0</ele><time>2026-04-06T10:37:24.007Z</time></trkpt><trkpt lat="44.1281432" lon="12.1280122"><ele>218.0</ele><time>2026-04-06T10:37:25.007Z</time></trkpt><trkpt lat="44.1282408" lon="12.1280133"><ele>218.0</ele><time>2026-04-06T10:37:27.007Z</time></trkpt><trkpt lat="44.1283035" lon="12.1280636"><ele>217.60000000000002</ele><time>2026-04-06T10:37:29.007Z</time></trkpt><trkpt lat="44.1283229" lon="12.1282084"><ele>217.20000000000002</ele><time>2026-04-06T10:37:31.011Z</time></trkpt><trkpt lat="44.1283287" lon="12.12831"><ele>216.8</ele><time>2026-04-06T10:37:32.007Z</time></trkpt><trkpt lat="44.1283294" lon="12.1284457"><ele>216.4</ele><time>2026-04-06T10:37:33.008Z</time></trkpt><trkpt lat="44.1283257" lon="12.1285863"><ele>216.0</ele><time>2026-04-06T10:37:34.007Z</time></trkpt><trkpt lat="44.1283079" lon="12.1287166"><ele>217.0</ele><time>2026-04-06T10:37:35.007Z</time></trkpt><trkpt lat="44.1282748" lon="12.1288326"><ele>218.0</ele><time>2026-04-06T10:37:36.008Z</time></trkpt><trkpt lat="44.1282216" lon="12.1289241"><ele>219.0</ele><time>2026-04-06T10:37:37.007Z</time></trkpt><trkpt lat="44.1281546" lon="12.1289871"><ele>220.0</ele><time>2026-04-06T10:37:38.007Z</time></trkpt><trkpt lat="44.1280692" lon="12.1290254"><ele>221.0</ele><time>2026-04-06T10:37:39.007Z</time></trkpt><trkpt lat="44.1279664" lon="12.129049"><ele>222.0</ele><time>2026-04-06T10:37:40.008Z</time></trkpt><trkpt lat="44.127836" lon="12.1290949"><ele>226.33333333333331</ele><time>2026-04-06T10:37:41.009Z</time></trkpt><trkpt lat="44.127702" lon="12.1291777"><ele>230.66666666666666</ele><time>2026-04-06T10:37:42.008Z</time></trkpt><trkpt lat="44.1275644" lon="12.1292967"><ele>235.0</ele><time>2026-04-06T10:37:43.008Z</time></trkpt><trkpt lat="44.1274246" lon="12.1294465"><ele>236.33333333333331</ele><time>2026-04-06T10:37:44.009Z</time></trkpt><trkpt lat="44.127291" lon="12.1296223"><ele>237.66666666666669</ele><time>2026-04-06T10:37:45.007Z</time></trkpt><trkpt lat="44.1271677" lon="12.1297992"><ele>239.0</ele><time>2026-04-06T10:37:46.006Z</time></trkpt><trkpt lat="44.1270488" lon="12.12997"><ele>241.33333333333334</ele><time>2026-04-06T10:37:47.008Z</time></trkpt><trkpt lat="44.1269306" lon="12.1301251"><ele>243.66666666666669</ele><time>2026-04-06T10:37:48.009Z</time></trkpt><trkpt lat="44.1268096" lon="12.1302661"><ele>246.0</ele><time>2026-04-06T10:37:49.006Z</time></trkpt><trkpt lat="44.1266862" lon="12.1303933"><ele>246.0</ele><time>2026-04-06T10:37:50.007Z</time></trkpt><trkpt lat="44.1265699" lon="12.130509"><ele>246.0</ele><time>2026-04-06T10:37:51.008Z</time></trkpt><trkpt lat="44.1264549" lon="12.1306048"><ele>246.0</ele><time>2026-04-06T10:37:52.009Z</time></trkpt><trkpt lat="44.1263387" lon="12.1306807"><ele>246.0</ele><time>2026-04-06T10:37:53.009Z</time></trkpt><trkpt lat="44.1262123" lon="12.1307354"><ele>246.0</ele><time>2026-04-06T10:37:54.009Z</time></trkpt><trkpt lat="44.126074" lon="12.1307839"><ele>246.0</ele><time>2026-04-06T10:37:55.01Z</time></trkpt><trkpt lat="44.1259196" lon="12.1308241"><ele>246.0</ele><time>2026-04-06T10:37:56.008Z</time></trkpt><trkpt lat="44.1257561" lon="12.1308633"><ele>244.0</ele><time>2026-04-06T10:37:57.01Z</time></trkpt><trkpt lat="44.1255882" lon="12.130903"><ele>242.0</ele><time>2026-04-06T10:37:58.01Z</time></trkpt><trkpt lat="44.1254129" lon="12.1309445"><ele>240.0</ele><time>2026-04-06T10:37:59.01Z</time></trkpt><trkpt lat="44.1252294" lon="12.1309914"><ele>240.0</ele><time>2026-04-06T10:38:00.009Z</time></trkpt><trkpt lat="44.1250405" lon="12.1310462"><ele>240.0</ele><time>2026-04-06T10:38:01.009Z</time></trkpt><trkpt lat="44.1248549" lon="12.1311029"><ele>240.0</ele><time>2026-04-06T10:38:02.007Z</time></trkpt><trkpt lat="44.1246752" lon="12.1311578"><ele>240.0</ele><time>2026-04-06T10:38:03.01Z</time></trkpt><trkpt lat="44.1245019" lon="12.1312077"><ele>240.0</ele><time>2026-04-06T10:38:04.008Z</time></trkpt><trkpt lat="44.1243287" lon="12.1312575"><ele>240.0</ele><time>2026-04-06T10:38:05.012Z</time></trkpt><trkpt lat="44.1241565" lon="12.1313092"><ele>240.0</ele><time>2026-04-06T10:38:06.008Z</time></trkpt><trkpt lat="44.1239849" lon="12.1313653"><ele>240.0</ele><time>2026-04-06T10:38:07.008Z</time></trkpt><trkpt lat="44.1238138" lon="12.1314243"><ele>240.0</ele><time>2026-04-06T10:38:08.009Z</time></trkpt><trkpt lat="44.1236464" lon="12.1314846"><ele>240.0</ele><time>2026-04-06T10:38:09.008Z</time></trkpt><trkpt lat="44.1234827" lon="12.131546"><ele>240.0</ele><time>2026-04-06T10:38:10.009Z</time></trkpt><trkpt lat="44.1233247" lon="12.1316145"><ele>240.0</ele><time>2026-04-06T10:38:11.009Z</time></trkpt><trkpt lat="44.1231768" lon="12.1316966"><ele>242.25</ele><time>2026-04-06T10:38:12.01Z</time></trkpt><trkpt lat="44.1230403" lon="12.131783"><ele>244.5</ele><time>2026-04-06T10:38:13.008Z</time></trkpt><trkpt lat="44.1229178" lon="12.1318714"><ele>246.75</ele><time>2026-04-06T10:38:14.009Z</time></trkpt><trkpt lat="44.1227946" lon="12.131962"><ele>249.0</ele><time>2026-04-06T10:38:15.01Z</time></trkpt><trkpt lat="44.122671" lon="12.1320552"><ele>249.0</ele><time>2026-04-06T10:38:16.008Z</time></trkpt><trkpt lat="44.1225428" lon="12.1321569"><ele>249.0</ele><time>2026-04-06T10:38:17.009Z</time></trkpt><trkpt lat="44.1224047" lon="12.1322599"><ele>249.0</ele><time>2026-04-06T10:38:18.009Z</time></trkpt><trkpt lat="44.1222549" lon="12.1323619"><ele>249.66666666666669</ele><time>2026-04-06T10:38:19.006Z</time></trkpt><trkpt lat="44.1221023" lon="12.132453"><ele>250.33333333333334</ele><time>2026-04-06T10:38:20.011Z</time></trkpt><trkpt lat="44.1219552" lon="12.1325151"><ele>251.0</ele><time>2026-04-06T10:38:21.009Z</time></trkpt><trkpt lat="44.121814" lon="12.1325424"><ele>251.0</ele><time>2026-04-06T10:38:22.009Z</time></trkpt><trkpt lat="44.1216749" lon="12.1325411"><ele>251.0</ele><time>2026-04-06T10:38:23.008Z</time></trkpt><trkpt lat="44.1215331" lon="12.1325203"><ele>251.0</ele><time>2026-04-06T10:38:24.009Z</time></trkpt><trkpt lat="44.121391" lon="12.1324881"><ele>251.0</ele><time>2026-04-06T10:38:25.01Z</time></trkpt><trkpt lat="44.1212542" lon="12.1324501"><ele>251.5</ele><time>2026-04-06T10:38:26.008Z</time></trkpt><trkpt lat="44.1211266" lon="12.1324017"><ele>252.0</ele><time>2026-04-06T10:38:27.009Z</time></trkpt><trkpt lat="44.1210065" lon="12.1323381"><ele>252.5</ele><time>2026-04-06T10:38:28.012Z</time></trkpt><trkpt lat="44.1208892" lon="12.1322614"><ele>253.0</ele><time>2026-04-06T10:38:29.01Z</time></trkpt><trkpt lat="44.120775" lon="12.1321772"><ele>256.25</ele><time>2026-04-06T10:38:30.009Z</time></trkpt><trkpt lat="44.1206625" lon="12.1320892"><ele>259.5</ele><time>2026-04-06T10:38:31.008Z</time></trkpt><trkpt lat="44.1205539" lon="12.1320019"><ele>262.75</ele><time>2026-04-06T10:38:32.009Z</time></trkpt><trkpt lat="44.120453" lon="12.1319107"><ele>266.0</ele><time>2026-04-06T10:38:33.012Z</time></trkpt><trkpt lat="44.1203614" lon="12.1318167"><ele>266.0</ele><time>2026-04-06T10:38:34.008Z</time></trkpt><trkpt lat="44.120271" lon="12.1317317"><ele>266.0</ele><time>2026-04-06T10:38:35.009Z</time></trkpt><trkpt lat="44.1201838" lon="12.1316523"><ele>266.0</ele><time>2026-04-06T10:38:36.008Z</time></trkpt><trkpt lat="44.1200927" lon="12.1315931"><ele>266.0</ele><time>2026-04-06T10:38:37.011Z</time></trkpt><trkpt lat="44.1199956" lon="12.1315583"><ele>266.0</ele><time>2026-04-06T10:38:38.009Z</time></trkpt><trkpt lat="44.1198811" lon="12.1315713"><ele>266.75</ele><time>2026-04-06T10:38:39.008Z</time></trkpt><trkpt lat="44.1197574" lon="12.1316143"><ele>267.5</ele><time>2026-04-06T10:38:40.008Z</time></trkpt><trkpt lat="44.1196319" lon="12.1316707"><ele>268.25</ele><time>2026-04-06T10:38:41.008Z</time></trkpt><trkpt lat="44.1195083" lon="12.1317277"><ele>269.0</ele><time>2026-04-06T10:38:42.007Z</time></trkpt><trkpt lat="44.1193834" lon="12.1317743"><ele>269.0</ele><time>2026-04-06T10:38:43.007Z</time></trkpt><trkpt lat="44.1192592" lon="12.131803"><ele>269.0</ele><time>2026-04-06T10:38:44.007Z</time></trkpt><trkpt lat="44.1191339" lon="12.1317969"><ele>269.0</ele><time>2026-04-06T10:38:45.006Z</time></trkpt><trkpt lat="44.1190099" lon="12.131754"><ele>269.0</ele><time>2026-04-06T10:38:46.007Z</time></trkpt><trkpt lat="44.1188974" lon="12.1316681"><ele>267.5</ele><time>2026-04-06T10:38:47.007Z</time></trkpt><trkpt lat="44.1187906" lon="12.1315494"><ele>266.0</ele><time>2026-04-06T10:38:48.007Z</time></trkpt><trkpt lat="44.1186845" lon="12.1314124"><ele>264.5</ele><time>2026-04-06T10:38:49.007Z</time></trkpt><trkpt lat="44.118576" lon="12.1312698"><ele>263.0</ele><time>2026-04-06T10:38:50.006Z</time></trkpt><trkpt lat="44.118465" lon="12.1311281"><ele>263.0</ele><time>2026-04-06T10:38:51.008Z</time></trkpt><trkpt lat="44.1183627" lon="12.130995"><ele>263.0</ele><time>2026-04-06T10:38:52.008Z</time></trkpt><trkpt lat="44.1182719" lon="12.1308643"><ele>263.0</ele><time>2026-04-06T10:38:53.008Z</time></trkpt><trkpt lat="44.1181942" lon="12.1307413"><ele>263.0</ele><time>2026-04-06T10:38:54.009Z</time></trkpt><trkpt lat="44.1181302" lon="12.1306363"><ele>262.2</ele><time>2026-04-06T10:38:55.011Z</time></trkpt><trkpt lat="44.1180748" lon="12.1305531"><ele>261.4</ele><time>2026-04-06T10:38:56.007Z</time></trkpt><trkpt lat="44.1180257" lon="12.1304857"><ele>260.59999999999997</ele><time>2026-04-06T10:38:57.007Z</time></trkpt><trkpt lat="44.1179309" lon="12.1303595"><ele>259.8</ele><time>2026-04-06T10:38:59.006Z</time></trkpt><trkpt lat="44.1178773" lon="12.1302767"><ele>259.0</ele><time>2026-04-06T10:39:00.006Z</time></trkpt><trkpt lat="44.117814" lon="12.1301716"><ele>259.0</ele><time>2026-04-06T10:39:01.008Z</time></trkpt><trkpt lat="44.1177428" lon="12.1300524"><ele>259.0</ele><time>2026-04-06T10:39:02.011Z</time></trkpt><trkpt lat="44.1176766" lon="12.1299241"><ele>259.0</ele><time>2026-04-06T10:39:03.007Z</time></trkpt><trkpt lat="44.1176158" lon="12.129794"><ele>259.0</ele><time>2026-04-06T10:39:04.008Z</time></trkpt><trkpt lat="44.1175601" lon="12.1296632"><ele>259.0</ele><time>2026-04-06T10:39:05.005Z</time></trkpt><trkpt lat="44.1175103" lon="12.1295253"><ele>258.25</ele><time>2026-04-06T10:39:06.007Z</time></trkpt><trkpt lat="44.117467" lon="12.1293817"><ele>257.5</ele><time>2026-04-06T10:39:07.009Z</time></trkpt><trkpt lat="44.11743" lon="12.1292335"><ele>256.75</ele><time>2026-04-06T10:39:08.007Z</time></trkpt><trkpt lat="44.1173984" lon="12.1290816"><ele>256.0</ele><time>2026-04-06T10:39:09.008Z</time></trkpt><trkpt lat="44.1173694" lon="12.1289204"><ele>251.5</ele><time>2026-04-06T10:39:10.006Z</time></trkpt><trkpt lat="44.1173467" lon="12.128742"><ele>247.0</ele><time>2026-04-06T10:39:11.006Z</time></trkpt><trkpt lat="44.1173246" lon="12.1285468"><ele>242.5</ele><time>2026-04-06T10:39:12.007Z</time></trkpt><trkpt lat="44.1172979" lon="12.1283445"><ele>238.0</ele><time>2026-04-06T10:39:13.007Z</time></trkpt><trkpt lat="44.1172717" lon="12.1281382"><ele>238.0</ele><time>2026-04-06T10:39:14.008Z</time></trkpt><trkpt lat="44.1172455" lon="12.1279267"><ele>238.0</ele><time>2026-04-06T10:39:15.006Z</time></trkpt><trkpt lat="44.1172198" lon="12.1277103"><ele>238.0</ele><time>2026-04-06T10:39:16.01Z</time></trkpt><trkpt lat="44.1171918" lon="12.1274975"><ele>240.25</ele><time>2026-04-06T10:39:17.005Z</time></trkpt><trkpt lat="44.1171614" lon="12.1272935"><ele>242.5</ele><time>2026-04-06T10:39:18.01Z</time></trkpt><trkpt lat="44.1171311" lon="12.1271191"><ele>244.75</ele><time>2026-04-06T10:39:19.008Z</time></trkpt><trkpt lat="44.1171018" lon="12.126984"><ele>247.0</ele><time>2026-04-06T10:39:20.008Z</time></trkpt><trkpt lat="44.1170818" lon="12.1268701"><ele>247.0</ele><time>2026-04-06T10:39:21.007Z</time></trkpt><trkpt lat="44.1170702" lon="12.1267584"><ele>247.0</ele><time>2026-04-06T10:39:22.01Z</time></trkpt><trkpt lat="44.1170763" lon="12.1266364"><ele>247.0</ele><time>2026-04-06T10:39:23.006Z</time></trkpt><trkpt lat="44.1171044" lon="12.1264923"><ele>247.0</ele><time>2026-04-06T10:39:24.01Z</time></trkpt><trkpt lat="44.1171397" lon="12.1263183"><ele>247.0</ele><time>2026-04-06T10:39:25.007Z</time></trkpt><trkpt lat="44.1171757" lon="12.1261115"><ele>252.0</ele><time>2026-04-06T10:39:26.008Z</time></trkpt><trkpt lat="44.1172055" lon="12.1258818"><ele>257.0</ele><time>2026-04-06T10:39:27.008Z</time></trkpt><trkpt lat="44.1172384" lon="12.1256474"><ele>262.0</ele><time>2026-04-06T10:39:28.007Z</time></trkpt><trkpt lat="44.1172743" lon="12.1254149"><ele>263.3333333333333</ele><time>2026-04-06T10:39:29.007Z</time></trkpt><trkpt lat="44.1173345" lon="12.1252045"><ele>264.6666666666667</ele><time>2026-04-06T10:39:30.008Z</time></trkpt><trkpt lat="44.1174114" lon="12.1250153"><ele>266.0</ele><time>2026-04-06T10:39:31.008Z</time></trkpt><trkpt lat="44.1174903" lon="12.1248429"><ele>258.75</ele><time>2026-04-06T10:39:32.008Z</time></trkpt><trkpt lat="44.1175631" lon="12.1246785"><ele>251.5</ele><time>2026-04-06T10:39:33.008Z</time></trkpt><trkpt lat="44.1176297" lon="12.1245143"><ele>244.25</ele><time>2026-04-06T10:39:34.009Z</time></trkpt><trkpt lat="44.1176891" lon="12.1243498"><ele>237.0</ele><time>2026-04-06T10:39:35.007Z</time></trkpt><trkpt lat="44.1177337" lon="12.1241925"><ele>235.2</ele><time>2026-04-06T10:39:36.009Z</time></trkpt><trkpt lat="44.1177613" lon="12.1240484"><ele>233.39999999999998</ele><time>2026-04-06T10:39:37.007Z</time></trkpt><trkpt lat="44.1177688" lon="12.1239193"><ele>231.60000000000002</ele><time>2026-04-06T10:39:38.008Z</time></trkpt><trkpt lat="44.117752" lon="12.1237962"><ele>229.8</ele><time>2026-04-06T10:39:39.008Z</time></trkpt><trkpt lat="44.1177149" lon="12.1236767"><ele>228.0</ele><time>2026-04-06T10:39:40.008Z</time></trkpt><trkpt lat="44.1176695" lon="12.1235594"><ele>228.0</ele><time>2026-04-06T10:39:41.01Z</time></trkpt><trkpt lat="44.1176451" lon="12.1234339"><ele>228.0</ele><time>2026-04-06T10:39:42.007Z</time></trkpt><trkpt lat="44.1176406" lon="12.1233206"><ele>228.0</ele><time>2026-04-06T10:39:43.008Z</time></trkpt><trkpt lat="44.1176604" lon="12.1232233"><ele>228.0</ele><time>2026-04-06T10:39:44.007Z</time></trkpt><trkpt lat="44.1176963" lon="12.1231438"><ele>228.0</ele><time>2026-04-06T10:39:45.008Z</time></trkpt><trkpt lat="44.1177276" lon="12.1230627"><ele>228.0</ele><time>2026-04-06T10:39:46.011Z</time></trkpt><trkpt lat="44.1177388" lon="12.1229003"><ele>226.0</ele><time>2026-04-06T10:39:48.009Z</time></trkpt><trkpt lat="44.1177082" lon="12.1228236"><ele>224.0</ele><time>2026-04-06T10:39:49.008Z</time></trkpt><trkpt lat="44.1176643" lon="12.1226704"><ele>222.0</ele><time>2026-04-06T10:39:51.011Z</time></trkpt><trkpt lat="44.1177077" lon="12.1225483"><ele>220.0</ele><time>2026-04-06T10:39:53.008Z</time></trkpt><trkpt lat="44.117728" lon="12.1224098"><ele>218.0</ele><time>2026-04-06T10:39:55.009Z</time></trkpt><trkpt lat="44.1177064" lon="12.1223267"><ele>216.0</ele><time>2026-04-06T10:39:56.007Z</time></trkpt><trkpt lat="44.1177009" lon="12.1222358"><ele>213.83333333333334</ele><time>2026-04-06T10:39:57.008Z</time></trkpt><trkpt lat="44.1177575" lon="12.1220658"><ele>211.66666666666669</ele><time>2026-04-06T10:39:59.008Z</time></trkpt><trkpt lat="44.1177788" lon="12.1219797"><ele>209.5</ele><time>2026-04-06T10:40:00.009Z</time></trkpt><trkpt lat="44.1177789" lon="12.1218838"><ele>207.33333333333334</ele><time>2026-04-06T10:40:01.008Z</time></trkpt><trkpt lat="44.1177628" lon="12.1217687"><ele>205.16666666666669</ele><time>2026-04-06T10:40:02.008Z</time></trkpt><trkpt lat="44.1177187" lon="12.1216541"><ele>203.0</ele><time>2026-04-06T10:40:03.009Z</time></trkpt><trkpt lat="44.1176409" lon="12.1215307"><ele>200.75</ele><time>2026-04-06T10:40:04.01Z</time></trkpt><trkpt lat="44.1175429" lon="12.1214101"><ele>198.5</ele><time>2026-04-06T10:40:05.007Z</time></trkpt><trkpt lat="44.1174468" lon="12.1212991"><ele>196.25</ele><time>2026-04-06T10:40:06.009Z</time></trkpt><trkpt lat="44.1173474" lon="12.1211904"><ele>194.0</ele><time>2026-04-06T10:40:07.007Z</time></trkpt><trkpt lat="44.1172618" lon="12.121073"><ele>192.5</ele><time>2026-04-06T10:40:08.007Z</time></trkpt><trkpt lat="44.1171857" lon="12.1209386"><ele>191.0</ele><time>2026-04-06T10:40:09.007Z</time></trkpt><trkpt lat="44.1171243" lon="12.1207853"><ele>189.5</ele><time>2026-04-06T10:40:10.014Z</time></trkpt><trkpt lat="44.1170774" lon="12.1206275"><ele>188.0</ele><time>2026-04-06T10:40:11.007Z</time></trkpt><trkpt lat="44.1170404" lon="12.1204701"><ele>186.25</ele><time>2026-04-06T10:40:12.007Z</time></trkpt><trkpt lat="44.1170149" lon="12.1203132"><ele>184.5</ele><time>2026-04-06T10:40:13.01Z</time></trkpt><trkpt lat="44.1170002" lon="12.1201564"><ele>182.75</ele><time>2026-04-06T10:40:14.009Z</time></trkpt><trkpt lat="44.116991" lon="12.120001"><ele>181.0</ele><time>2026-04-06T10:40:15.015Z</time></trkpt><trkpt lat="44.1169999" lon="12.1198409"><ele>179.8</ele><time>2026-04-06T10:40:16.007Z</time></trkpt><trkpt lat="44.1170214" lon="12.1196837"><ele>178.60000000000002</ele><time>2026-04-06T10:40:17.007Z</time></trkpt><trkpt lat="44.1170552" lon="12.1195383"><ele>177.4</ele><time>2026-04-06T10:40:18.008Z</time></trkpt><trkpt lat="44.117105" lon="12.1194056"><ele>176.2</ele><time>2026-04-06T10:40:19.008Z</time></trkpt><trkpt lat="44.1171709" lon="12.1192789"><ele>175.0</ele><time>2026-04-06T10:40:20.006Z</time></trkpt><trkpt lat="44.1172588" lon="12.1191553"><ele>175.75</ele><time>2026-04-06T10:40:21.011Z</time></trkpt><trkpt lat="44.1173594" lon="12.1190315"><ele>176.5</ele><time>2026-04-06T10:40:22.008Z</time></trkpt><trkpt lat="44.1174646" lon="12.118906"><ele>177.25</ele><time>2026-04-06T10:40:23.008Z</time></trkpt><trkpt lat="44.1175696" lon="12.1187856"><ele>178.0</ele><time>2026-04-06T10:40:24.008Z</time></trkpt><trkpt lat="44.1176697" lon="12.1186675"><ele>178.0</ele><time>2026-04-06T10:40:25.008Z</time></trkpt><trkpt lat="44.1177659" lon="12.118549"><ele>178.0</ele><time>2026-04-06T10:40:26.011Z</time></trkpt><trkpt lat="44.1178578" lon="12.1184355"><ele>178.0</ele><time>2026-04-06T10:40:27.009Z</time></trkpt><trkpt lat="44.1179497" lon="12.1183269"><ele>178.0</ele><time>2026-04-06T10:40:28.008Z</time></trkpt><trkpt lat="44.1180401" lon="12.1182123"><ele>177.0</ele><time>2026-04-06T10:40:29.008Z</time></trkpt><trkpt lat="44.1181259" lon="12.1180917"><ele>176.0</ele><time>2026-04-06T10:40:30.009Z</time></trkpt><trkpt lat="44.118211" lon="12.1179791"><ele>175.0</ele><time>2026-04-06T10:40:31.008Z</time></trkpt><trkpt lat="44.1183071" lon="12.1178747"><ele>174.0</ele><time>2026-04-06T10:40:32.011Z</time></trkpt><trkpt lat="44.1184241" lon="12.1177865"><ele>170.5</ele><time>2026-04-06T10:40:33.009Z</time></trkpt><trkpt lat="44.1185622" lon="12.1177231"><ele>167.0</ele><time>2026-04-06T10:40:34.008Z</time></trkpt><trkpt lat="44.1187066" lon="12.1176798"><ele>163.5</ele><time>2026-04-06T10:40:35.007Z</time></trkpt><trkpt lat="44.1188342" lon="12.1176449"><ele>160.0</ele><time>2026-04-06T10:40:36.008Z</time></trkpt><trkpt lat="44.118945" lon="12.1176005"><ele>160.0</ele><time>2026-04-06T10:40:37.008Z</time></trkpt><trkpt lat="44.1190416" lon="12.1175304"><ele>160.0</ele><time>2026-04-06T10:40:38.01Z</time></trkpt><trkpt lat="44.1191303" lon="12.1174238"><ele>160.0</ele><time>2026-04-06T10:40:39.008Z</time></trkpt><trkpt lat="44.1192187" lon="12.1172851"><ele>160.0</ele><time>2026-04-06T10:40:40.008Z</time></trkpt><trkpt lat="44.1193189" lon="12.1171181"><ele>155.33333333333334</ele><time>2026-04-06T10:40:41.008Z</time></trkpt><trkpt lat="44.11943" lon="12.1169411"><ele>150.66666666666666</ele><time>2026-04-06T10:40:42.008Z</time></trkpt><trkpt lat="44.1195484" lon="12.1167764"><ele>146.0</ele><time>2026-04-06T10:40:43.01Z</time></trkpt><trkpt lat="44.1196741" lon="12.1166241"><ele>144.66666666666666</ele><time>2026-04-06T10:40:44.008Z</time></trkpt><trkpt lat="44.1197989" lon="12.1164861"><ele>143.33333333333334</ele><time>2026-04-06T10:40:45.007Z</time></trkpt><trkpt lat="44.119928" lon="12.1163515"><ele>142.0</ele><time>2026-04-06T10:40:46.007Z</time></trkpt><trkpt lat="44.1200618" lon="12.1162095"><ele>142.0</ele><time>2026-04-06T10:40:47.007Z</time></trkpt><trkpt lat="44.120198" lon="12.1160608"><ele>142.0</ele><time>2026-04-06T10:40:48.008Z</time></trkpt><trkpt lat="44.1203374" lon="12.1159126"><ele>142.0</ele><time>2026-04-06T10:40:49.008Z</time></trkpt><trkpt lat="44.1204732" lon="12.115768"><ele>139.66666666666669</ele><time>2026-04-06T10:40:50.011Z</time></trkpt><trkpt lat="44.1206025" lon="12.1156227"><ele>137.33333333333334</ele><time>2026-04-06T10:40:51.009Z</time></trkpt><trkpt lat="44.1207143" lon="12.1154796"><ele>135.0</ele><time>2026-04-06T10:40:52.007Z</time></trkpt><trkpt lat="44.1208087" lon="12.115334"><ele>135.0</ele><time>2026-04-06T10:40:53.009Z</time></trkpt><trkpt lat="44.1208847" lon="12.1151801"><ele>135.0</ele><time>2026-04-06T10:40:54.008Z</time></trkpt><trkpt lat="44.1209446" lon="12.1150163"><ele>135.0</ele><time>2026-04-06T10:40:55.007Z</time></trkpt><trkpt lat="44.120987" lon="12.1148492"><ele>135.0</ele><time>2026-04-06T10:40:56.009Z</time></trkpt><trkpt lat="44.1210212" lon="12.1146828"><ele>134.33333333333334</ele><time>2026-04-06T10:40:57.008Z</time></trkpt><trkpt lat="44.1210481" lon="12.1145389"><ele>133.66666666666666</ele><time>2026-04-06T10:40:58.008Z</time></trkpt><trkpt lat="44.1210807" lon="12.1144162"><ele>133.0</ele><time>2026-04-06T10:40:59.008Z</time></trkpt><trkpt lat="44.1211258" lon="12.1143149"><ele>132.33333333333331</ele><time>2026-04-06T10:41:00.01Z</time></trkpt><trkpt lat="44.1211809" lon="12.1142358"><ele>131.66666666666666</ele><time>2026-04-06T10:41:01.009Z</time></trkpt><trkpt lat="44.1212531" lon="12.1141835"><ele>131.0</ele><time>2026-04-06T10:41:02.01Z</time></trkpt><trkpt lat="44.1213461" lon="12.1141643"><ele>131.0</ele><time>2026-04-06T10:41:03.009Z</time></trkpt><trkpt lat="44.1214657" lon="12.1141877"><ele>131.0</ele><time>2026-04-06T10:41:04.007Z</time></trkpt><trkpt lat="44.1215927" lon="12.1142187"><ele>131.0</ele><time>2026-04-06T10:41:05.008Z</time></trkpt><trkpt lat="44.121709" lon="12.1142422"><ele>131.0</ele><time>2026-04-06T10:41:06.01Z</time></trkpt><trkpt lat="44.1218122" lon="12.1142351"><ele>129.2</ele><time>2026-04-06T10:41:07.009Z</time></trkpt><trkpt lat="44.121898" lon="12.1141892"><ele>127.39999999999999</ele><time>2026-04-06T10:41:08.01Z</time></trkpt><trkpt lat="44.1219626" lon="12.114114"><ele>125.6</ele><time>2026-04-06T10:41:09.008Z</time></trkpt><trkpt lat="44.1220161" lon="12.1140212"><ele>123.8</ele><time>2026-04-06T10:41:10.008Z</time></trkpt><trkpt lat="44.1220378" lon="12.1138845"><ele>122.0</ele><time>2026-04-06T10:41:11.009Z</time></trkpt><trkpt lat="44.1220477" lon="12.1137259"><ele>121.25</ele><time>2026-04-06T10:41:12.008Z</time></trkpt><trkpt lat="44.1220641" lon="12.1135633"><ele>120.5</ele><time>2026-04-06T10:41:13.011Z</time></trkpt><trkpt lat="44.122114" lon="12.1133907"><ele>119.75</ele><time>2026-04-06T10:41:14.008Z</time></trkpt><trkpt lat="44.1221784" lon="12.1132282"><ele>119.0</ele><time>2026-04-06T10:41:15.009Z</time></trkpt><trkpt lat="44.122253" lon="12.1130613"><ele>116.25</ele><time>2026-04-06T10:41:16.009Z</time></trkpt><trkpt lat="44.1223178" lon="12.1128871"><ele>113.5</ele><time>2026-04-06T10:41:17.008Z</time></trkpt><trkpt lat="44.1223626" lon="12.1126975"><ele>110.75</ele><time>2026-04-06T10:41:18.009Z</time></trkpt><trkpt lat="44.12239" lon="12.1124996"><ele>108.0</ele><time>2026-04-06T10:41:19.007Z</time></trkpt><trkpt lat="44.1224108" lon="12.112299"><ele>104.75</ele><time>2026-04-06T10:41:20.008Z</time></trkpt><trkpt lat="44.1224378" lon="12.11211"><ele>101.5</ele><time>2026-04-06T10:41:21.008Z</time></trkpt><trkpt lat="44.1224846" lon="12.1119345"><ele>98.25</ele><time>2026-04-06T10:41:22.008Z</time></trkpt><trkpt lat="44.1225522" lon="12.1117777"><ele>95.0</ele><time>2026-04-06T10:41:23.008Z</time></trkpt><trkpt lat="44.1226434" lon="12.1116378"><ele>92.75</ele><time>2026-04-06T10:41:24.009Z</time></trkpt><trkpt lat="44.1227498" lon="12.111511"><ele>90.5</ele><time>2026-04-06T10:41:25.011Z</time></trkpt><trkpt lat="44.1228614" lon="12.1113867"><ele>88.25</ele><time>2026-04-06T10:41:26.007Z</time></trkpt><trkpt lat="44.1229681" lon="12.1112663"><ele>86.0</ele><time>2026-04-06T10:41:27.008Z</time></trkpt><trkpt lat="44.1230724" lon="12.1111417"><ele>86.0</ele><time>2026-04-06T10:41:28.008Z</time></trkpt><trkpt lat="44.1231684" lon="12.1110098"><ele>86.0</ele><time>2026-04-06T10:41:29.01Z</time></trkpt><trkpt lat="44.1232536" lon="12.1108733"><ele>86.0</ele><time>2026-04-06T10:41:30.008Z</time></trkpt><trkpt lat="44.123319" lon="12.1107259"><ele>86.0</ele><time>2026-04-06T10:41:31.01Z</time></trkpt><trkpt lat="44.1233566" lon="12.1105649"><ele>84.2</ele><time>2026-04-06T10:41:32.008Z</time></trkpt><trkpt lat="44.1233824" lon="12.1104057"><ele>82.39999999999999</ele><time>2026-04-06T10:41:33.008Z</time></trkpt><trkpt lat="44.1234126" lon="12.1102653"><ele>80.6</ele><time>2026-04-06T10:41:34.009Z</time></trkpt><trkpt lat="44.1234658" lon="12.1101491"><ele>78.8</ele><time>2026-04-06T10:41:35.008Z</time></trkpt><trkpt lat="44.1235476" lon="12.1100699"><ele>77.0</ele><time>2026-04-06T10:41:36.012Z</time></trkpt><trkpt lat="44.1236526" lon="12.1100321"><ele>77.0</ele><time>2026-04-06T10:41:37.01Z</time></trkpt><trkpt lat="44.12378" lon="12.1100332"><ele>77.0</ele><time>2026-04-06T10:41:38.007Z</time></trkpt><trkpt lat="44.1239121" lon="12.1100584"><ele>77.0</ele><time>2026-04-06T10:41:39.007Z</time></trkpt><trkpt lat="44.1240321" lon="12.110089"><ele>77.0</ele><time>2026-04-06T10:41:40.009Z</time></trkpt><trkpt lat="44.1241295" lon="12.1101142"><ele>75.66666666666667</ele><time>2026-04-06T10:41:41.01Z</time></trkpt><trkpt lat="44.1242098" lon="12.1101348"><ele>74.33333333333334</ele><time>2026-04-06T10:41:42.008Z</time></trkpt><trkpt lat="44.1242783" lon="12.1101482"><ele>73.0</ele><time>2026-04-06T10:41:43.008Z</time></trkpt><trkpt lat="44.1243288" lon="12.1100451"><ele>71.66666666666667</ele><time>2026-04-06T10:41:45.008Z</time></trkpt><trkpt lat="44.1243007" lon="12.1099271"><ele>70.33333333333333</ele><time>2026-04-06T10:41:46.015Z</time></trkpt><trkpt lat="44.1242607" lon="12.1098035"><ele>69.0</ele><time>2026-04-06T10:41:47.007Z</time></trkpt><trkpt lat="44.1242202" lon="12.1096852"><ele>68.66666666666667</ele><time>2026-04-06T10:41:48.008Z</time></trkpt><trkpt lat="44.1241894" lon="12.1095833"><ele>68.33333333333333</ele><time>2026-04-06T10:41:49.008Z</time></trkpt><trkpt lat="44.1241697" lon="12.1094498"><ele>68.0</ele><time>2026-04-06T10:41:51.007Z</time></trkpt><trkpt lat="44.124146" lon="12.1093672"><ele>67.66666666666666</ele><time>2026-04-06T10:41:53.009Z</time></trkpt><trkpt lat="44.1240706" lon="12.1092724"><ele>67.33333333333333</ele><time>2026-04-06T10:41:55.009Z</time></trkpt><trkpt lat="44.1239986" lon="12.1092267"><ele>67.0</ele><time>2026-04-06T10:41:56.008Z</time></trkpt><trkpt lat="44.1238824" lon="12.1091876"><ele>67.0</ele><time>2026-04-06T10:41:57.008Z</time></trkpt><trkpt lat="44.1237565" lon="12.1091418"><ele>67.0</ele><time>2026-04-06T10:41:58.009Z</time></trkpt><trkpt lat="44.1236197" lon="12.1090927"><ele>67.0</ele><time>2026-04-06T10:41:59.008Z</time></trkpt><trkpt lat="44.1234767" lon="12.1090437"><ele>67.0</ele><time>2026-04-06T10:42:00.009Z</time></trkpt><trkpt lat="44.1233383" lon="12.1090041"><ele>64.75</ele><time>2026-04-06T10:42:01.01Z</time></trkpt><trkpt lat="44.1232045" lon="12.108982"><ele>62.5</ele><time>2026-04-06T10:42:02.011Z</time></trkpt><trkpt lat="44.1230671" lon="12.1089872"><ele>60.25</ele><time>2026-04-06T10:42:03.01Z</time></trkpt><trkpt lat="44.12292" lon="12.1090216"><ele>58.0</ele><time>2026-04-06T10:42:04.009Z</time></trkpt><trkpt lat="44.1227702" lon="12.1090506"><ele>58.0</ele><time>2026-04-06T10:42:05.008Z</time></trkpt><trkpt lat="44.1226167" lon="12.1090472"><ele>58.0</ele><time>2026-04-06T10:42:06.009Z</time></trkpt><trkpt lat="44.1224644" lon="12.1090077"><ele>58.0</ele><time>2026-04-06T10:42:07.009Z</time></trkpt><trkpt lat="44.1223149" lon="12.1089315"><ele>59.33333333333333</ele><time>2026-04-06T10:42:08.01Z</time></trkpt><trkpt lat="44.1221718" lon="12.1088217"><ele>60.66666666666667</ele><time>2026-04-06T10:42:09.007Z</time></trkpt><trkpt lat="44.1220344" lon="12.10868"><ele>62.0</ele><time>2026-04-06T10:42:10.01Z</time></trkpt><trkpt lat="44.1219089" lon="12.1085413"><ele>62.0</ele><time>2026-04-06T10:42:11.007Z</time></trkpt><trkpt lat="44.1217903" lon="12.1084295"><ele>62.0</ele><time>2026-04-06T10:42:12.009Z</time></trkpt><trkpt lat="44.1216761" lon="12.108357"><ele>62.0</ele><time>2026-04-06T10:42:13.008Z</time></trkpt><trkpt lat="44.1215523" lon="12.1083336"><ele>62.0</ele><time>2026-04-06T10:42:14.009Z</time></trkpt><trkpt lat="44.1214192" lon="12.1083577"><ele>61.333333333333336</ele><time>2026-04-06T10:42:15.01Z</time></trkpt><trkpt lat="44.1212694" lon="12.1084251"><ele>60.66666666666667</ele><time>2026-04-06T10:42:16.008Z</time></trkpt><trkpt lat="44.1211094" lon="12.1085324"><ele>60.0</ele><time>2026-04-06T10:42:17.008Z</time></trkpt><trkpt lat="44.1209411" lon="12.1086614"><ele>60.0</ele><time>2026-04-06T10:42:18.009Z</time></trkpt><trkpt lat="44.12077" lon="12.1087869"><ele>60.0</ele><time>2026-04-06T10:42:19.009Z</time></trkpt><trkpt lat="44.1206034" lon="12.108904"><ele>60.0</ele><time>2026-04-06T10:42:20.007Z</time></trkpt><trkpt lat="44.1204461" lon="12.1090157"><ele>60.66666666666667</ele><time>2026-04-06T10:42:21.012Z</time></trkpt><trkpt lat="44.1202997" lon="12.1091188"><ele>61.333333333333336</ele><time>2026-04-06T10:42:22.008Z</time></trkpt><trkpt lat="44.1201579" lon="12.1092058"><ele>62.0</ele><time>2026-04-06T10:42:23.008Z</time></trkpt><trkpt lat="44.1200113" lon="12.1092721"><ele>61.66666666666667</ele><time>2026-04-06T10:42:24.01Z</time></trkpt><trkpt lat="44.1198572" lon="12.1093064"><ele>61.33333333333333</ele><time>2026-04-06T10:42:25.009Z</time></trkpt><trkpt lat="44.1196921" lon="12.1093077"><ele>61.0</ele><time>2026-04-06T10:42:26.009Z</time></trkpt><trkpt lat="44.1195132" lon="12.1092765"><ele>61.0</ele><time>2026-04-06T10:42:27.008Z</time></trkpt><trkpt lat="44.1193267" lon="12.109228"><ele>61.0</ele><time>2026-04-06T10:42:28.01Z</time></trkpt><trkpt lat="44.1191344" lon="12.1091718"><ele>61.0</ele><time>2026-04-06T10:42:29.007Z</time></trkpt><trkpt lat="44.118943" lon="12.1091212"><ele>61.0</ele><time>2026-04-06T10:42:30.007Z</time></trkpt><trkpt lat="44.1187525" lon="12.1090706"><ele>61.0</ele><time>2026-04-06T10:42:31.011Z</time></trkpt><trkpt lat="44.118574" lon="12.1090268"><ele>61.0</ele><time>2026-04-06T10:42:32.009Z</time></trkpt><trkpt lat="44.1184029" lon="12.1089825"><ele>62.0</ele><time>2026-04-06T10:42:33.009Z</time></trkpt><trkpt lat="44.1182292" lon="12.1089365"><ele>63.0</ele><time>2026-04-06T10:42:34.009Z</time></trkpt><trkpt lat="44.118052" lon="12.1088875"><ele>64.0</ele><time>2026-04-06T10:42:35.008Z</time></trkpt><trkpt lat="44.1178777" lon="12.1088425"><ele>64.0</ele><time>2026-04-06T10:42:36.01Z</time></trkpt><trkpt lat="44.1177149" lon="12.1087902"><ele>64.0</ele><time>2026-04-06T10:42:37.008Z</time></trkpt><trkpt lat="44.1175633" lon="12.1087197"><ele>64.0</ele><time>2026-04-06T10:42:38.008Z</time></trkpt><trkpt lat="44.11742" lon="12.1086245"><ele>64.66666666666666</ele><time>2026-04-06T10:42:39.01Z</time></trkpt><trkpt lat="44.1172828" lon="12.1084945"><ele>65.33333333333333</ele><time>2026-04-06T10:42:40.008Z</time></trkpt><trkpt lat="44.1171484" lon="12.1083409"><ele>66.0</ele><time>2026-04-06T10:42:41.009Z</time></trkpt><trkpt lat="44.1170211" lon="12.108187"><ele>67.0</ele><time>2026-04-06T10:42:42.007Z</time></trkpt><trkpt lat="44.116892" lon="12.1080508"><ele>68.0</ele><time>2026-04-06T10:42:43.009Z</time></trkpt><trkpt lat="44.1167568" lon="12.1079445"><ele>69.0</ele><time>2026-04-06T10:42:44.009Z</time></trkpt><trkpt lat="44.1166093" lon="12.1078795"><ele>68.33333333333333</ele><time>2026-04-06T10:42:45.01Z</time></trkpt><trkpt lat="44.116447" lon="12.1078612"><ele>67.66666666666666</ele><time>2026-04-06T10:42:46.009Z</time></trkpt><trkpt lat="44.1162712" lon="12.1078821"><ele>67.0</ele><time>2026-04-06T10:42:47.008Z</time></trkpt><trkpt lat="44.1160851" lon="12.107921"><ele>67.0</ele><time>2026-04-06T10:42:48.008Z</time></trkpt><trkpt lat="44.1158949" lon="12.1079575"><ele>67.0</ele><time>2026-04-06T10:42:49.009Z</time></trkpt><trkpt lat="44.1157044" lon="12.1079926"><ele>67.0</ele><time>2026-04-06T10:42:50.009Z</time></trkpt><trkpt lat="44.1155264" lon="12.1080234"><ele>67.5</ele><time>2026-04-06T10:42:51.009Z</time></trkpt><trkpt lat="44.1153648" lon="12.10805"><ele>68.0</ele><time>2026-04-06T10:42:52.01Z</time></trkpt><trkpt lat="44.1152204" lon="12.1080737"><ele>68.5</ele><time>2026-04-06T10:42:53.008Z</time></trkpt><trkpt lat="44.1150862" lon="12.1080943"><ele>69.0</ele><time>2026-04-06T10:42:54.008Z</time></trkpt><trkpt lat="44.1149604" lon="12.1081169"><ele>69.4</ele><time>2026-04-06T10:42:55.01Z</time></trkpt><trkpt lat="44.1148452" lon="12.1081392"><ele>69.80000000000001</ele><time>2026-04-06T10:42:56.008Z</time></trkpt><trkpt lat="44.1147397" lon="12.1081588"><ele>70.19999999999999</ele><time>2026-04-06T10:42:57.012Z</time></trkpt><trkpt lat="44.1146418" lon="12.1081771"><ele>70.6</ele><time>2026-04-06T10:42:58.007Z</time></trkpt><trkpt lat="44.114541" lon="12.1082053"><ele>71.0</ele><time>2026-04-06T10:42:59.006Z</time></trkpt><trkpt lat="44.1144391" lon="12.1082606"><ele>71.0</ele><time>2026-04-06T10:43:00.01Z</time></trkpt><trkpt lat="44.1143365" lon="12.1083522"><ele>71.0</ele><time>2026-04-06T10:43:01.008Z</time></trkpt><trkpt lat="44.1142305" lon="12.1084828"><ele>71.0</ele><time>2026-04-06T10:43:02.012Z</time></trkpt><trkpt lat="44.1141201" lon="12.1086499"><ele>71.0</ele><time>2026-04-06T10:43:03.009Z</time></trkpt><trkpt lat="44.1139988" lon="12.1088476"><ele>71.66666666666667</ele><time>2026-04-06T10:43:04.007Z</time></trkpt><trkpt lat="44.1138764" lon="12.1090467"><ele>72.33333333333333</ele><time>2026-04-06T10:43:05.009Z</time></trkpt><trkpt lat="44.1137499" lon="12.1092455"><ele>73.0</ele><time>2026-04-06T10:43:06.008Z</time></trkpt><trkpt lat="44.1136181" lon="12.1094291"><ele>73.0</ele><time>2026-04-06T10:43:07.009Z</time></trkpt><trkpt lat="44.1134958" lon="12.1095984"><ele>73.0</ele><time>2026-04-06T10:43:08.008Z</time></trkpt><trkpt lat="44.1133645" lon="12.1097351"><ele>73.0</ele><time>2026-04-06T10:43:09.01Z</time></trkpt><trkpt lat="44.1132258" lon="12.1098432"><ele>73.0</ele><time>2026-04-06T10:43:10.008Z</time></trkpt><trkpt lat="44.1130819" lon="12.1099252"><ele>73.0</ele><time>2026-04-06T10:43:11.008Z</time></trkpt><trkpt lat="44.112934" lon="12.1100051"><ele>73.0</ele><time>2026-04-06T10:43:12.009Z</time></trkpt><trkpt lat="44.1127946" lon="12.1101044"><ele>73.0</ele><time>2026-04-06T10:43:13.008Z</time></trkpt><trkpt lat="44.1126661" lon="12.1102227"><ele>73.0</ele><time>2026-04-06T10:43:14.008Z</time></trkpt><trkpt lat="44.1125531" lon="12.1103501"><ele>73.0</ele><time>2026-04-06T10:43:15.008Z</time></trkpt><trkpt lat="44.1124577" lon="12.1104859"><ele>73.0</ele><time>2026-04-06T10:43:16.012Z</time></trkpt><trkpt lat="44.1123811" lon="12.1106389"><ele>73.75</ele><time>2026-04-06T10:43:17.006Z</time></trkpt><trkpt lat="44.112329" lon="12.1108224"><ele>74.5</ele><time>2026-04-06T10:43:18.012Z</time></trkpt><trkpt lat="44.1122816" lon="12.1110256"><ele>75.25</ele><time>2026-04-06T10:43:19.009Z</time></trkpt><trkpt lat="44.1122435" lon="12.111224"><ele>76.0</ele><time>2026-04-06T10:43:20.009Z</time></trkpt><trkpt lat="44.1122128" lon="12.1113977"><ele>76.0</ele><time>2026-04-06T10:43:21.008Z</time></trkpt><trkpt lat="44.1121895" lon="12.1115435"><ele>76.0</ele><time>2026-04-06T10:43:22.009Z</time></trkpt><trkpt lat="44.1121706" lon="12.111669"><ele>76.0</ele><time>2026-04-06T10:43:23.01Z</time></trkpt><trkpt lat="44.1121509" lon="12.1117926"><ele>76.0</ele><time>2026-04-06T10:43:24.01Z</time></trkpt><trkpt lat="44.1121275" lon="12.1119275"><ele>76.0</ele><time>2026-04-06T10:43:25.011Z</time></trkpt><trkpt lat="44.1121001" lon="12.1120752"><ele>74.75</ele><time>2026-04-06T10:43:26.01Z</time></trkpt><trkpt lat="44.1120645" lon="12.1122381"><ele>73.5</ele><time>2026-04-06T10:43:27.011Z</time></trkpt><trkpt lat="44.11201" lon="12.1124107"><ele>72.25</ele><time>2026-04-06T10:43:28.009Z</time></trkpt><trkpt lat="44.1119296" lon="12.1125839"><ele>71.0</ele><time>2026-04-06T10:43:29.008Z</time></trkpt><trkpt lat="44.111819" lon="12.1127582"><ele>71.0</ele><time>2026-04-06T10:43:30.007Z</time></trkpt><trkpt lat="44.111689" lon="12.1129231"><ele>71.0</ele><time>2026-04-06T10:43:31.009Z</time></trkpt><trkpt lat="44.1115615" lon="12.113082"><ele>71.0</ele><time>2026-04-06T10:43:32.007Z</time></trkpt><trkpt lat="44.1114436" lon="12.1132468"><ele>72.33333333333334</ele><time>2026-04-06T10:43:33.012Z</time></trkpt><trkpt lat="44.1113417" lon="12.1134268"><ele>73.66666666666667</ele><time>2026-04-06T10:43:34.009Z</time></trkpt><trkpt lat="44.1112652" lon="12.1136346"><ele>75.0</ele><time>2026-04-06T10:43:35.007Z</time></trkpt><trkpt lat="44.1112111" lon="12.1138622"><ele>74.66666666666667</ele><time>2026-04-06T10:43:36.008Z</time></trkpt><trkpt lat="44.1111689" lon="12.1141029"><ele>74.33333333333334</ele><time>2026-04-06T10:43:37.008Z</time></trkpt><trkpt lat="44.1111295" lon="12.1143437"><ele>74.0</ele><time>2026-04-06T10:43:38.009Z</time></trkpt><trkpt lat="44.1110912" lon="12.1145778"><ele>74.0</ele><time>2026-04-06T10:43:39.009Z</time></trkpt><trkpt lat="44.1110406" lon="12.1147951"><ele>74.0</ele><time>2026-04-06T10:43:40.008Z</time></trkpt><trkpt lat="44.1109754" lon="12.1149986"><ele>74.0</ele><time>2026-04-06T10:43:41.01Z</time></trkpt><trkpt lat="44.110887" lon="12.1151941"><ele>74.0</ele><time>2026-04-06T10:43:42.012Z</time></trkpt><trkpt lat="44.1107826" lon="12.1153817"><ele>74.0</ele><time>2026-04-06T10:43:43.008Z</time></trkpt><trkpt lat="44.1106637" lon="12.1155672"><ele>74.0</ele><time>2026-04-06T10:43:44.009Z</time></trkpt><trkpt lat="44.1105333" lon="12.1157649"><ele>75.0</ele><time>2026-04-06T10:43:45.009Z</time></trkpt><trkpt lat="44.1103947" lon="12.1159789"><ele>76.0</ele><time>2026-04-06T10:43:46.008Z</time></trkpt><trkpt lat="44.1102528" lon="12.1162011"><ele>77.0</ele><time>2026-04-06T10:43:47.009Z</time></trkpt><trkpt lat="44.1101208" lon="12.1164231"><ele>77.33333333333334</ele><time>2026-04-06T10:43:48.011Z</time></trkpt><trkpt lat="44.1099921" lon="12.1166287"><ele>77.66666666666667</ele><time>2026-04-06T10:43:49.01Z</time></trkpt><trkpt lat="44.1098767" lon="12.1168294"><ele>78.0</ele><time>2026-04-06T10:43:50.008Z</time></trkpt><trkpt lat="44.1097623" lon="12.117015"><ele>78.0</ele><time>2026-04-06T10:43:51.009Z</time></trkpt><trkpt lat="44.1096489" lon="12.1172044"><ele>78.0</ele><time>2026-04-06T10:43:52.008Z</time></trkpt><trkpt lat="44.1095276" lon="12.1173883"><ele>78.0</ele><time>2026-04-06T10:43:53.008Z</time></trkpt><trkpt lat="44.109401" lon="12.1175663"><ele>78.0</ele><time>2026-04-06T10:43:54.007Z</time></trkpt><trkpt lat="44.1092639" lon="12.1177385"><ele>78.0</ele><time>2026-04-06T10:43:55.01Z</time></trkpt><trkpt lat="44.1091276" lon="12.117915"><ele>78.0</ele><time>2026-04-06T10:43:56.01Z</time></trkpt><trkpt lat="44.1089889" lon="12.1180816"><ele>78.33333333333333</ele><time>2026-04-06T10:43:57.008Z</time></trkpt><trkpt lat="44.1088472" lon="12.1182345"><ele>78.66666666666666</ele><time>2026-04-06T10:43:58.009Z</time></trkpt><trkpt lat="44.1087047" lon="12.1183821"><ele>79.0</ele><time>2026-04-06T10:43:59.009Z</time></trkpt><trkpt lat="44.1085517" lon="12.1185105"><ele>79.0</ele><time>2026-04-06T10:44:00.008Z</time></trkpt><trkpt lat="44.1083891" lon="12.118622"><ele>79.0</ele><time>2026-04-06T10:44:01.009Z</time></trkpt><trkpt lat="44.1082208" lon="12.1187266"><ele>79.0</ele><time>2026-04-06T10:44:02.009Z</time></trkpt><trkpt lat="44.108051" lon="12.1188315"><ele>79.66666666666666</ele><time>2026-04-06T10:44:03.009Z</time></trkpt><trkpt lat="44.1078981" lon="12.118943"><ele>80.33333333333333</ele><time>2026-04-06T10:44:04.008Z</time></trkpt><trkpt lat="44.1077638" lon="12.1190488"><ele>81.0</ele><time>2026-04-06T10:44:05.009Z</time></trkpt><trkpt lat="44.1076475" lon="12.119134"><ele>81.0</ele><time>2026-04-06T10:44:06.009Z</time></trkpt><trkpt lat="44.1075473" lon="12.1191891"><ele>81.0</ele><time>2026-04-06T10:44:07.008Z</time></trkpt><trkpt lat="44.1074595" lon="12.119216"><ele>81.0</ele><time>2026-04-06T10:44:08.008Z</time></trkpt><trkpt lat="44.1073731" lon="12.1192191"><ele>81.0</ele><time>2026-04-06T10:44:09.012Z</time></trkpt><trkpt lat="44.1072867" lon="12.1191797"><ele>81.0</ele><time>2026-04-06T10:44:10.007Z</time></trkpt><trkpt lat="44.1072014" lon="12.1191081"><ele>81.0</ele><time>2026-04-06T10:44:11.009Z</time></trkpt><trkpt lat="44.1071185" lon="12.1190235"><ele>81.0</ele><time>2026-04-06T10:44:12.008Z</time></trkpt><trkpt lat="44.1070391" lon="12.118942"><ele>81.0</ele><time>2026-04-06T10:44:13.009Z</time></trkpt><trkpt lat="44.1069608" lon="12.1188662"><ele>81.0</ele><time>2026-04-06T10:44:14.009Z</time></trkpt><trkpt lat="44.1068872" lon="12.1187975"><ele>81.0</ele><time>2026-04-06T10:44:15.014Z</time></trkpt><trkpt lat="44.1068142" lon="12.1187401"><ele>81.0</ele><time>2026-04-06T10:44:16.008Z</time></trkpt><trkpt lat="44.1067427" lon="12.1186767"><ele>81.0</ele><time>2026-04-06T10:44:17.007Z</time></trkpt><trkpt lat="44.1066677" lon="12.1186161"><ele>81.0</ele><time>2026-04-06T10:44:18.008Z</time></trkpt><trkpt lat="44.1065961" lon="12.1185506"><ele>81.0</ele><time>2026-04-06T10:44:19.011Z</time></trkpt><trkpt lat="44.1065288" lon="12.118492"><ele>81.0</ele><time>2026-04-06T10:44:20.008Z</time></trkpt><trkpt lat="44.1064676" lon="12.1184387"><ele>81.0</ele><time>2026-04-06T10:44:21.01Z</time></trkpt><trkpt lat="44.1064059" lon="12.1183864"><ele>81.19999999999999</ele><time>2026-04-06T10:44:22.011Z</time></trkpt><trkpt lat="44.1063346" lon="12.1183507"><ele>81.39999999999999</ele><time>2026-04-06T10:44:23.009Z</time></trkpt><trkpt lat="44.1062571" lon="12.1183275"><ele>81.6</ele><time>2026-04-06T10:44:24.007Z</time></trkpt><trkpt lat="44.1061695" lon="12.118299"><ele>81.8</ele><time>2026-04-06T10:44:25.009Z</time></trkpt><trkpt lat="44.1060583" lon="12.1182791"><ele>82.0</ele><time>2026-04-06T10:44:26.008Z</time></trkpt><trkpt lat="44.1059537" lon="12.1182578"><ele>82.8</ele><time>2026-04-06T10:44:27.01Z</time></trkpt><trkpt lat="44.1058632" lon="12.1182341"><ele>83.6</ele><time>2026-04-06T10:44:28.01Z</time></trkpt><trkpt lat="44.1057773" lon="12.1182005"><ele>84.39999999999999</ele><time>2026-04-06T10:44:29.007Z</time></trkpt><trkpt lat="44.1056851" lon="12.1181605"><ele>85.19999999999999</ele><time>2026-04-06T10:44:30.009Z</time></trkpt><trkpt lat="44.1055897" lon="12.1181071"><ele>86.0</ele><time>2026-04-06T10:44:31.009Z</time></trkpt><trkpt lat="44.1054829" lon="12.11806"><ele>86.0</ele><time>2026-04-06T10:44:32.009Z</time></trkpt><trkpt lat="44.1053662" lon="12.1180193"><ele>86.0</ele><time>2026-04-06T10:44:33.01Z</time></trkpt><trkpt lat="44.1052413" lon="12.1179914"><ele>86.0</ele><time>2026-04-06T10:44:34.01Z</time></trkpt><trkpt lat="44.1051071" lon="12.1179774"><ele>86.0</ele><time>2026-04-06T10:44:35.009Z</time></trkpt><trkpt lat="44.1049682" lon="12.1179708"><ele>87.25</ele><time>2026-04-06T10:44:36.009Z</time></trkpt><trkpt lat="44.1048263" lon="12.1179661"><ele>88.5</ele><time>2026-04-06T10:44:37.01Z</time></trkpt><trkpt lat="44.1046808" lon="12.1179687"><ele>89.75</ele><time>2026-04-06T10:44:38.01Z</time></trkpt><trkpt lat="44.1045308" lon="12.1179677"><ele>91.0</ele><time>2026-04-06T10:44:39.009Z</time></trkpt><trkpt lat="44.1043801" lon="12.1179624"><ele>91.0</ele><time>2026-04-06T10:44:40.009Z</time></trkpt><trkpt lat="44.1042333" lon="12.1179576"><ele>91.0</ele><time>2026-04-06T10:44:41.011Z</time></trkpt><trkpt lat="44.104093" lon="12.11795"><ele>91.0</ele><time>2026-04-06T10:44:42.009Z</time></trkpt><trkpt lat="44.1039483" lon="12.1179433"><ele>91.0</ele><time>2026-04-06T10:44:43.009Z</time></trkpt><trkpt lat="44.1037992" lon="12.1179454"><ele>91.0</ele><time>2026-04-06T10:44:44.009Z</time></trkpt><trkpt lat="44.1036449" lon="12.1179474"><ele>91.0</ele><time>2026-04-06T10:44:45.009Z</time></trkpt><trkpt lat="44.1034888" lon="12.1179477"><ele>91.0</ele><time>2026-04-06T10:44:46.008Z</time></trkpt><trkpt lat="44.1033319" lon="12.1179452"><ele>90.75</ele><time>2026-04-06T10:44:47.009Z</time></trkpt><trkpt lat="44.1031835" lon="12.117939"><ele>90.5</ele><time>2026-04-06T10:44:48.008Z</time></trkpt><trkpt lat="44.1030495" lon="12.1179327"><ele>90.25</ele><time>2026-04-06T10:44:49.007Z</time></trkpt><trkpt lat="44.1029259" lon="12.117926"><ele>90.0</ele><time>2026-04-06T10:44:50.007Z</time></trkpt><trkpt lat="44.1028095" lon="12.1179193"><ele>90.0</ele><time>2026-04-06T10:44:51.007Z</time></trkpt><trkpt lat="44.1026941" lon="12.1179122"><ele>90.0</ele><time>2026-04-06T10:44:52.008Z</time></trkpt><trkpt lat="44.1025787" lon="12.1178973"><ele>90.0</ele><time>2026-04-06T10:44:53.008Z</time></trkpt><trkpt lat="44.102464" lon="12.1178827"><ele>90.0</ele><time>2026-04-06T10:44:54.006Z</time></trkpt><trkpt lat="44.102347" lon="12.1178708"><ele>90.0</ele><time>2026-04-06T10:44:55.008Z</time></trkpt><trkpt lat="44.1022305" lon="12.1178565"><ele>90.0</ele><time>2026-04-06T10:44:56.008Z</time></trkpt><trkpt lat="44.1021168" lon="12.117844"><ele>90.0</ele><time>2026-04-06T10:44:57.008Z</time></trkpt><trkpt lat="44.1020077" lon="12.1178305"><ele>90.0</ele><time>2026-04-06T10:44:58.009Z</time></trkpt><trkpt lat="44.1019038" lon="12.1178134"><ele>90.0</ele><time>2026-04-06T10:44:59.008Z</time></trkpt><trkpt lat="44.1018007" lon="12.1178036"><ele>90.0</ele><time>2026-04-06T10:45:00.008Z</time></trkpt><trkpt lat="44.1016924" lon="12.1178008"><ele>90.0</ele><time>2026-04-06T10:45:01.007Z</time></trkpt><trkpt lat="44.1015827" lon="12.1178364"><ele>90.0</ele><time>2026-04-06T10:45:02.008Z</time></trkpt><trkpt lat="44.1014832" lon="12.117916"><ele>90.0</ele><time>2026-04-06T10:45:03.008Z</time></trkpt><trkpt lat="44.1013983" lon="12.1180404"><ele>90.2</ele><time>2026-04-06T10:45:04.007Z</time></trkpt><trkpt lat="44.101326" lon="12.118173"><ele>90.4</ele><time>2026-04-06T10:45:05.008Z</time></trkpt><trkpt lat="44.1012591" lon="12.1182835"><ele>90.6</ele><time>2026-04-06T10:45:06.007Z</time></trkpt><trkpt lat="44.1011922" lon="12.1183765"><ele>90.8</ele><time>2026-04-06T10:45:07.008Z</time></trkpt><trkpt lat="44.1011205" lon="12.1184557"><ele>91.0</ele><time>2026-04-06T10:45:08.006Z</time></trkpt><trkpt lat="44.1010506" lon="12.1185261"><ele>91.0</ele><time>2026-04-06T10:45:09.009Z</time></trkpt><trkpt lat="44.1009847" lon="12.1185906"><ele>91.0</ele><time>2026-04-06T10:45:10.008Z</time></trkpt><trkpt lat="44.1009192" lon="12.1186456"><ele>91.0</ele><time>2026-04-06T10:45:11.011Z</time></trkpt><trkpt lat="44.1008501" lon="12.1186823"><ele>91.0</ele><time>2026-04-06T10:45:12.007Z</time></trkpt><trkpt lat="44.1007706" lon="12.1186979"><ele>91.0</ele><time>2026-04-06T10:45:13.008Z</time></trkpt><trkpt lat="44.1006814" lon="12.1186953"><ele>91.0</ele><time>2026-04-06T10:45:14.008Z</time></trkpt><trkpt lat="44.1005855" lon="12.1186978"><ele>91.5</ele><time>2026-04-06T10:45:15.009Z</time></trkpt><trkpt lat="44.1004613" lon="12.1186776"><ele>92.0</ele><time>2026-04-06T10:45:16.008Z</time></trkpt><trkpt lat="44.1003283" lon="12.1186582"><ele>92.5</ele><time>2026-04-06T10:45:17.007Z</time></trkpt><trkpt lat="44.1001911" lon="12.1186367"><ele>93.0</ele><time>2026-04-06T10:45:18.008Z</time></trkpt><trkpt lat="44.100043" lon="12.1186191"><ele>93.66666666666667</ele><time>2026-04-06T10:45:19.008Z</time></trkpt><trkpt lat="44.0998862" lon="12.1186037"><ele>94.33333333333334</ele><time>2026-04-06T10:45:20.008Z</time></trkpt><trkpt lat="44.099725" lon="12.1185856"><ele>95.0</ele><time>2026-04-06T10:45:21.01Z</time></trkpt><trkpt lat="44.0995521" lon="12.1185621"><ele>95.0</ele><time>2026-04-06T10:45:22.01Z</time></trkpt><trkpt lat="44.0993714" lon="12.1185406"><ele>95.0</ele><time>2026-04-06T10:45:23.012Z</time></trkpt><trkpt lat="44.0991848" lon="12.118524"><ele>95.0</ele><time>2026-04-06T10:45:24.006Z</time></trkpt><trkpt lat="44.0990047" lon="12.1185028"><ele>95.33333333333334</ele><time>2026-04-06T10:45:25.006Z</time></trkpt><trkpt lat="44.0988274" lon="12.1184893"><ele>95.66666666666667</ele><time>2026-04-06T10:45:26.008Z</time></trkpt><trkpt lat="44.0986547" lon="12.1184772"><ele>96.0</ele><time>2026-04-06T10:45:27.007Z</time></trkpt><trkpt lat="44.0984897" lon="12.1184555"><ele>96.0</ele><time>2026-04-06T10:45:28.013Z</time></trkpt><trkpt lat="44.0983289" lon="12.118431"><ele>96.0</ele><time>2026-04-06T10:45:29.008Z</time></trkpt><trkpt lat="44.0981721" lon="12.1184028"><ele>96.0</ele><time>2026-04-06T10:45:30.007Z</time></trkpt><trkpt lat="44.0980194" lon="12.1183841"><ele>96.75</ele><time>2026-04-06T10:45:31.009Z</time></trkpt><trkpt lat="44.0978744" lon="12.1183701"><ele>97.5</ele><time>2026-04-06T10:45:32.008Z</time></trkpt><trkpt lat="44.0977355" lon="12.1183572"><ele>98.25</ele><time>2026-04-06T10:45:33.01Z</time></trkpt><trkpt lat="44.0976006" lon="12.1183477"><ele>99.0</ele><time>2026-04-06T10:45:34.007Z</time></trkpt><trkpt lat="44.097465" lon="12.1183565"><ele>100.66666666666666</ele><time>2026-04-06T10:45:35.007Z</time></trkpt><trkpt lat="44.0973264" lon="12.118405"><ele>102.33333333333333</ele><time>2026-04-06T10:45:36.007Z</time></trkpt><trkpt lat="44.0971829" lon="12.1184857"><ele>104.0</ele><time>2026-04-06T10:45:37.008Z</time></trkpt><trkpt lat="44.0970404" lon="12.1185951"><ele>104.0</ele><time>2026-04-06T10:45:38.085Z</time></trkpt><trkpt lat="44.096907" lon="12.118705"><ele>104.0</ele><time>2026-04-06T10:45:39.008Z</time></trkpt><trkpt lat="44.0967658" lon="12.1188119"><ele>104.0</ele><time>2026-04-06T10:45:40.01Z</time></trkpt><trkpt lat="44.0966265" lon="12.1189118"><ele>103.5</ele><time>2026-04-06T10:45:41.008Z</time></trkpt><trkpt lat="44.0964898" lon="12.1189981"><ele>103.0</ele><time>2026-04-06T10:45:42.008Z</time></trkpt><trkpt lat="44.0963614" lon="12.1190827"><ele>102.5</ele><time>2026-04-06T10:45:43.008Z</time></trkpt><trkpt lat="44.0962353" lon="12.1191685"><ele>102.0</ele><time>2026-04-06T10:45:44.007Z</time></trkpt><trkpt lat="44.096108" lon="12.1192622"><ele>102.0</ele><time>2026-04-06T10:45:45.008Z</time></trkpt><trkpt lat="44.09598" lon="12.1193532"><ele>102.0</ele><time>2026-04-06T10:45:46.008Z</time></trkpt><trkpt lat="44.0958521" lon="12.1194448"><ele>102.0</ele><time>2026-04-06T10:45:47.009Z</time></trkpt><trkpt lat="44.0957223" lon="12.1195412"><ele>102.0</ele><time>2026-04-06T10:45:48.007Z</time></trkpt><trkpt lat="44.0955903" lon="12.1196415"><ele>102.66666666666666</ele><time>2026-04-06T10:45:49.007Z</time></trkpt><trkpt lat="44.0954583" lon="12.1197498"><ele>103.33333333333333</ele><time>2026-04-06T10:45:50.008Z</time></trkpt><trkpt lat="44.0953255" lon="12.1198621"><ele>104.0</ele><time>2026-04-06T10:45:51.007Z</time></trkpt><trkpt lat="44.0951963" lon="12.1199856"><ele>104.0</ele><time>2026-04-06T10:45:52.011Z</time></trkpt><trkpt lat="44.0950768" lon="12.1201168"><ele>104.0</ele><time>2026-04-06T10:45:53.008Z</time></trkpt><trkpt lat="44.0949654" lon="12.1202447"><ele>104.0</ele><time>2026-04-06T10:45:54.008Z</time></trkpt><trkpt lat="44.0948628" lon="12.1203622"><ele>104.0</ele><time>2026-04-06T10:45:55.009Z</time></trkpt><trkpt lat="44.0947685" lon="12.1204719"><ele>104.75</ele><time>2026-04-06T10:45:56.008Z</time></trkpt><trkpt lat="44.0946807" lon="12.1205753"><ele>105.5</ele><time>2026-04-06T10:45:57.008Z</time></trkpt><trkpt lat="44.0945907" lon="12.1206729"><ele>106.25</ele><time>2026-04-06T10:45:58.007Z</time></trkpt><trkpt lat="44.0944922" lon="12.1207645"><ele>107.0</ele><time>2026-04-06T10:45:59.008Z</time></trkpt><trkpt lat="44.0943915" lon="12.1208694"><ele>107.0</ele><time>2026-04-06T10:46:00.007Z</time></trkpt><trkpt lat="44.0942796" lon="12.1209805"><ele>107.0</ele><time>2026-04-06T10:46:01.008Z</time></trkpt><trkpt lat="44.0941558" lon="12.121103"><ele>107.0</ele><time>2026-04-06T10:46:02.009Z</time></trkpt><trkpt lat="44.0940182" lon="12.1212354"><ele>107.66666666666666</ele><time>2026-04-06T10:46:03.007Z</time></trkpt><trkpt lat="44.0938786" lon="12.1213771"><ele>108.33333333333334</ele><time>2026-04-06T10:46:04.01Z</time></trkpt><trkpt lat="44.0937424" lon="12.1215145"><ele>109.0</ele><time>2026-04-06T10:46:05.01Z</time></trkpt><trkpt lat="44.0936132" lon="12.1216645"><ele>109.0</ele><time>2026-04-06T10:46:06.008Z</time></trkpt><trkpt lat="44.0934888" lon="12.1218277"><ele>109.0</ele><time>2026-04-06T10:46:07.007Z</time></trkpt><trkpt lat="44.0933729" lon="12.1220087"><ele>109.0</ele><time>2026-04-06T10:46:08.007Z</time></trkpt><trkpt lat="44.0932644" lon="12.1221956"><ele>111.33333333333334</ele><time>2026-04-06T10:46:09.007Z</time></trkpt><trkpt lat="44.0931628" lon="12.1223749"><ele>113.66666666666666</ele><time>2026-04-06T10:46:10.008Z</time></trkpt><trkpt lat="44.093068" lon="12.1225364"><ele>116.0</ele><time>2026-04-06T10:46:11.006Z</time></trkpt><trkpt lat="44.0929816" lon="12.1226866"><ele>116.0</ele><time>2026-04-06T10:46:12.006Z</time></trkpt><trkpt lat="44.0929" lon="12.1228297"><ele>116.0</ele><time>2026-04-06T10:46:13.008Z</time></trkpt><trkpt lat="44.0928155" lon="12.1229814"><ele>116.0</ele><time>2026-04-06T10:46:14.012Z</time></trkpt><trkpt lat="44.0927259" lon="12.1231391"><ele>116.0</ele><time>2026-04-06T10:46:15.007Z</time></trkpt><trkpt lat="44.092637" lon="12.1233091"><ele>117.33333333333333</ele><time>2026-04-06T10:46:16.006Z</time></trkpt><trkpt lat="44.0925437" lon="12.1234899"><ele>118.66666666666666</ele><time>2026-04-06T10:46:17.007Z</time></trkpt><trkpt lat="44.0924482" lon="12.1236784"><ele>120.0</ele><time>2026-04-06T10:46:18.007Z</time></trkpt><trkpt lat="44.0923542" lon="12.1238692"><ele>120.0</ele><time>2026-04-06T10:46:19.009Z</time></trkpt><trkpt lat="44.0922634" lon="12.1240555"><ele>120.0</ele><time>2026-04-06T10:46:20.007Z</time></trkpt><trkpt lat="44.0921652" lon="12.1242226"><ele>120.0</ele><time>2026-04-06T10:46:21.006Z</time></trkpt><trkpt lat="44.092058" lon="12.1243805"><ele>118.0</ele><time>2026-04-06T10:46:22.008Z</time></trkpt><trkpt lat="44.0919432" lon="12.1245287"><ele>116.0</ele><time>2026-04-06T10:46:23.006Z</time></trkpt><trkpt lat="44.0918204" lon="12.1246743"><ele>114.0</ele><time>2026-04-06T10:46:24.007Z</time></trkpt><trkpt lat="44.0916983" lon="12.1248169"><ele>114.25</ele><time>2026-04-06T10:46:25.007Z</time></trkpt><trkpt lat="44.0915788" lon="12.1249497"><ele>114.5</ele><time>2026-04-06T10:46:26.007Z</time></trkpt><trkpt lat="44.0914671" lon="12.1250837"><ele>114.75</ele><time>2026-04-06T10:46:27.006Z</time></trkpt><trkpt lat="44.0913663" lon="12.1252127"><ele>115.0</ele><time>2026-04-06T10:46:28.005Z</time></trkpt><trkpt lat="44.0912814" lon="12.1253426"><ele>115.0</ele><time>2026-04-06T10:46:29.009Z</time></trkpt><trkpt lat="44.0912146" lon="12.1254659"><ele>115.0</ele><time>2026-04-06T10:46:30.008Z</time></trkpt><trkpt lat="44.0911642" lon="12.1255831"><ele>115.0</ele><time>2026-04-06T10:46:31.009Z</time></trkpt><trkpt lat="44.0911353" lon="12.1256847"><ele>115.0</ele><time>2026-04-06T10:46:32.008Z</time></trkpt><trkpt lat="44.0911114" lon="12.1257723"><ele>115.0</ele><time>2026-04-06T10:46:33.008Z</time></trkpt><trkpt lat="44.091077" lon="12.1258955"><ele>115.0</ele><time>2026-04-06T10:46:35.008Z</time></trkpt><trkpt lat="44.0910342" lon="12.126024"><ele>115.0</ele><time>2026-04-06T10:46:39.39Z</time></trkpt><trkpt lat="44.09099" lon="12.1262045"><ele>115.0</ele><time>2026-04-06T10:46:41.008Z</time></trkpt><trkpt lat="44.0909518" lon="12.1263475"><ele>115.0</ele><time>2026-04-06T10:46:42.008Z</time></trkpt><trkpt lat="44.0909088" lon="12.1265056"><ele>115.5</ele><time>2026-04-06T10:46:43.009Z</time></trkpt><trkpt lat="44.0908557" lon="12.1266602"><ele>116.0</ele><time>2026-04-06T10:46:44.007Z</time></trkpt><trkpt lat="44.0908156" lon="12.1268217"><ele>116.5</ele><time>2026-04-06T10:46:45.008Z</time></trkpt><trkpt lat="44.0907982" lon="12.1269959"><ele>117.0</ele><time>2026-04-06T10:46:46.009Z</time></trkpt><trkpt lat="44.0907987" lon="12.1271856"><ele>117.0</ele><time>2026-04-06T10:46:47.008Z</time></trkpt><trkpt lat="44.0908094" lon="12.1273777"><ele>117.0</ele><time>2026-04-06T10:46:48.009Z</time></trkpt><trkpt lat="44.0908134" lon="12.1275681"><ele>117.0</ele><time>2026-04-06T10:46:49.009Z</time></trkpt><trkpt lat="44.0908145" lon="12.1277631"><ele>117.0</ele><time>2026-04-06T10:46:50.009Z</time></trkpt><trkpt lat="44.0908092" lon="12.1279605"><ele>118.0</ele><time>2026-04-06T10:46:51.007Z</time></trkpt><trkpt lat="44.0908023" lon="12.1281577"><ele>119.0</ele><time>2026-04-06T10:46:52.008Z</time></trkpt><trkpt lat="44.0907942" lon="12.1283549"><ele>120.0</ele><time>2026-04-06T10:46:53.008Z</time></trkpt><trkpt lat="44.0907826" lon="12.1285509"><ele>121.0</ele><time>2026-04-06T10:46:54.008Z</time></trkpt><trkpt lat="44.090773" lon="12.1287399"><ele>122.75</ele><time>2026-04-06T10:46:55.008Z</time></trkpt><trkpt lat="44.0907779" lon="12.1289153"><ele>124.5</ele><time>2026-04-06T10:46:56.007Z</time></trkpt><trkpt lat="44.0908024" lon="12.1290815"><ele>126.25</ele><time>2026-04-06T10:46:57.008Z</time></trkpt><trkpt lat="44.0908353" lon="12.129241"><ele>128.0</ele><time>2026-04-06T10:46:58.007Z</time></trkpt><trkpt lat="44.0908747" lon="12.1293973"><ele>129.4</ele><time>2026-04-06T10:46:59.01Z</time></trkpt><trkpt lat="44.0909058" lon="12.1295418"><ele>130.8</ele><time>2026-04-06T10:47:00.008Z</time></trkpt><trkpt lat="44.09093" lon="12.12967"><ele>132.2</ele><time>2026-04-06T10:47:01.009Z</time></trkpt><trkpt lat="44.090955" lon="12.1297817"><ele>133.6</ele><time>2026-04-06T10:47:02.008Z</time></trkpt><trkpt lat="44.0909717" lon="12.1298733"><ele>135.0</ele><time>2026-04-06T10:47:03.008Z</time></trkpt><trkpt lat="44.090955" lon="12.13002"><ele>134.2</ele><time>2026-04-06T10:47:05.009Z</time></trkpt><trkpt lat="44.0908917" lon="12.130125"><ele>133.4</ele><time>2026-04-06T10:47:07.007Z</time></trkpt><trkpt lat="44.0908217" lon="12.1301683"><ele>132.6</ele><time>2026-04-06T10:47:08.007Z</time></trkpt><trkpt lat="44.0907533" lon="12.1302333"><ele>131.8</ele><time>2026-04-06T10:47:09.013Z</time></trkpt><trkpt lat="44.0906467" lon="12.1303183"><ele>131.0</ele><time>2026-04-06T10:47:10.007Z</time></trkpt><trkpt lat="44.0905233" lon="12.1304067"><ele>131.0</ele><time>2026-04-06T10:47:11.008Z</time></trkpt><trkpt lat="44.0903783" lon="12.1305217"><ele>131.0</ele><time>2026-04-06T10:47:12.008Z</time></trkpt><trkpt lat="44.0902133" lon="12.1306417"><ele>131.0</ele><time>2026-04-06T10:47:13.009Z</time></trkpt><trkpt lat="44.0900633" lon="12.130755"><ele>131.66666666666666</ele><time>2026-04-06T10:47:14.007Z</time></trkpt><trkpt lat="44.0899117" lon="12.130855"><ele>132.33333333333334</ele><time>2026-04-06T10:47:15.008Z</time></trkpt><trkpt lat="44.08976" lon="12.130945"><ele>133.0</ele><time>2026-04-06T10:47:16.006Z</time></trkpt><trkpt lat="44.08962" lon="12.131035"><ele>133.0</ele><time>2026-04-06T10:47:17.005Z</time></trkpt><trkpt lat="44.089485" lon="12.1311283"><ele>133.0</ele><time>2026-04-06T10:47:18.011Z</time></trkpt><trkpt lat="44.0893467" lon="12.1312067"><ele>133.0</ele><time>2026-04-06T10:47:19.008Z</time></trkpt><trkpt lat="44.0892117" lon="12.1312783"><ele>133.0</ele><time>2026-04-06T10:47:20.008Z</time></trkpt><trkpt lat="44.0890817" lon="12.1313617"><ele>134.66666666666669</ele><time>2026-04-06T10:47:21.008Z</time></trkpt><trkpt lat="44.088945" lon="12.1314567"><ele>136.33333333333334</ele><time>2026-04-06T10:47:22.006Z</time></trkpt><trkpt lat="44.088805" lon="12.1315333"><ele>138.0</ele><time>2026-04-06T10:47:23.01Z</time></trkpt><trkpt lat="44.0886733" lon="12.1316233"><ele>139.75</ele><time>2026-04-06T10:47:24.007Z</time></trkpt><trkpt lat="44.0885433" lon="12.1317067"><ele>141.5</ele><time>2026-04-06T10:47:25.007Z</time></trkpt><trkpt lat="44.088415" lon="12.1317867"><ele>143.25</ele><time>2026-04-06T10:47:26.007Z</time></trkpt><trkpt lat="44.0883083" lon="12.13188"><ele>145.0</ele><time>2026-04-06T10:47:27.009Z</time></trkpt><trkpt lat="44.0882183" lon="12.1319967"><ele>145.5</ele><time>2026-04-06T10:47:28.009Z</time></trkpt><trkpt lat="44.0881383" lon="12.1321233"><ele>146.0</ele><time>2026-04-06T10:47:29.006Z</time></trkpt><trkpt lat="44.08807" lon="12.1322633"><ele>146.5</ele><time>2026-04-06T10:47:30.007Z</time></trkpt><trkpt lat="44.0880117" lon="12.13242"><ele>147.0</ele><time>2026-04-06T10:47:31.007Z</time></trkpt><trkpt lat="44.0879617" lon="12.1325917"><ele>148.75</ele><time>2026-04-06T10:47:32.007Z</time></trkpt><trkpt lat="44.0879183" lon="12.13277"><ele>150.5</ele><time>2026-04-06T10:47:33.006Z</time></trkpt><trkpt lat="44.0878833" lon="12.1329583"><ele>152.25</ele><time>2026-04-06T10:47:34.007Z</time></trkpt><trkpt lat="44.087845" lon="12.133155"><ele>154.0</ele><time>2026-04-06T10:47:35.007Z</time></trkpt><trkpt lat="44.0878119" lon="12.1333507"><ele>156.0</ele><time>2026-04-06T10:47:36.007Z</time></trkpt><trkpt lat="44.0877739" lon="12.1335523"><ele>158.0</ele><time>2026-04-06T10:47:37.006Z</time></trkpt><trkpt lat="44.0877347" lon="12.1337546"><ele>160.0</ele><time>2026-04-06T10:47:38.007Z</time></trkpt><trkpt lat="44.0876963" lon="12.1339614"><ele>161.66666666666669</ele><time>2026-04-06T10:47:39.012Z</time></trkpt><trkpt lat="44.087654" lon="12.1341785"><ele>163.33333333333334</ele><time>2026-04-06T10:47:40.007Z</time></trkpt><trkpt lat="44.0876083" lon="12.1344032"><ele>165.0</ele><time>2026-04-06T10:47:41.007Z</time></trkpt><trkpt lat="44.0875538" lon="12.1346265"><ele>165.0</ele><time>2026-04-06T10:47:42.007Z</time></trkpt><trkpt lat="44.0874865" lon="12.1348353"><ele>165.0</ele><time>2026-04-06T10:47:43.007Z</time></trkpt><trkpt lat="44.0874152" lon="12.1350323"><ele>165.0</ele><time>2026-04-06T10:47:44.007Z</time></trkpt><trkpt lat="44.0873447" lon="12.1352186"><ele>167.75</ele><time>2026-04-06T10:47:45.007Z</time></trkpt><trkpt lat="44.0872658" lon="12.1353883"><ele>170.5</ele><time>2026-04-06T10:47:46.007Z</time></trkpt><trkpt lat="44.0871811" lon="12.1355522"><ele>173.25</ele><time>2026-04-06T10:47:47.01Z</time></trkpt><trkpt lat="44.0871011" lon="12.1357203"><ele>176.0</ele><time>2026-04-06T10:47:48.008Z</time></trkpt><trkpt lat="44.087018" lon="12.1358929"><ele>177.75</ele><time>2026-04-06T10:47:49.009Z</time></trkpt><trkpt lat="44.086933" lon="12.1360656"><ele>179.5</ele><time>2026-04-06T10:47:50.006Z</time></trkpt><trkpt lat="44.0868464" lon="12.1362338"><ele>181.25</ele><time>2026-04-06T10:47:51.008Z</time></trkpt><trkpt lat="44.0867545" lon="12.1363973"><ele>183.0</ele><time>2026-04-06T10:47:52.007Z</time></trkpt><trkpt lat="44.0866287" lon="12.1366178"><ele>192.0</ele><time>2026-04-06T10:47:53.766Z</time></trkpt><trkpt lat="44.0865559" lon="12.1368678"><ele>201.0</ele><time>2026-04-06T10:47:54.961Z</time></trkpt><trkpt lat="44.0863572" lon="12.1371573"><ele>201.0</ele><time>2026-04-06T10:47:57.007Z</time></trkpt><trkpt lat="44.0862462" lon="12.1372834"><ele>201.0</ele><time>2026-04-06T10:47:58.005Z</time></trkpt><trkpt lat="44.0861156" lon="12.1374152"><ele>201.0</ele><time>2026-04-06T10:47:59.008Z</time></trkpt><trkpt lat="44.0859827" lon="12.1375521"><ele>204.66666666666669</ele><time>2026-04-06T10:48:00.008Z</time></trkpt><trkpt lat="44.0858487" lon="12.1376897"><ele>208.33333333333334</ele><time>2026-04-06T10:48:01.007Z</time></trkpt><trkpt lat="44.0857205" lon="12.1378292"><ele>212.0</ele><time>2026-04-06T10:48:02.006Z</time></trkpt><trkpt lat="44.0855985" lon="12.1379696"><ele>212.0</ele><time>2026-04-06T10:48:03.006Z</time></trkpt><trkpt lat="44.0854895" lon="12.1381012"><ele>212.0</ele><time>2026-04-06T10:48:04.008Z</time></trkpt><trkpt lat="44.0853891" lon="12.1382169"><ele>212.0</ele><time>2026-04-06T10:48:05.005Z</time></trkpt><trkpt lat="44.0853029" lon="12.1383171"><ele>212.0</ele><time>2026-04-06T10:48:06.009Z</time></trkpt><trkpt lat="44.0852278" lon="12.1384089"><ele>213.8</ele><time>2026-04-06T10:48:07.007Z</time></trkpt><trkpt lat="44.0851548" lon="12.1384908"><ele>215.6</ele><time>2026-04-06T10:48:08.008Z</time></trkpt><trkpt lat="44.0850861" lon="12.1385801"><ele>217.40000000000003</ele><time>2026-04-06T10:48:09.007Z</time></trkpt><trkpt lat="44.0850136" lon="12.1386702"><ele>219.20000000000002</ele><time>2026-04-06T10:48:10.008Z</time></trkpt><trkpt lat="44.0849447" lon="12.1387568"><ele>221.0</ele><time>2026-04-06T10:48:11.009Z</time></trkpt><trkpt lat="44.0848785" lon="12.138844"><ele>221.00000000000003</ele><time>2026-04-06T10:48:12.005Z</time></trkpt><trkpt lat="44.0848154" lon="12.1389311"><ele>221.0</ele><time>2026-04-06T10:48:13.008Z</time></trkpt><trkpt lat="44.0847583" lon="12.1390151"><ele>221.0</ele><time>2026-04-06T10:48:14.006Z</time></trkpt><trkpt lat="44.0847035" lon="12.1391024"><ele>221.0</ele><time>2026-04-06T10:48:15.005Z</time></trkpt><trkpt lat="44.0846489" lon="12.139199"><ele>221.00000000000003</ele><time>2026-04-06T10:48:16.008Z</time></trkpt><trkpt lat="44.084587" lon="12.1392944"><ele>221.0</ele><time>2026-04-06T10:48:17.007Z</time></trkpt><trkpt lat="44.0845226" lon="12.1393978"><ele>223.60000000000002</ele><time>2026-04-06T10:48:18.008Z</time></trkpt><trkpt lat="44.0844578" lon="12.139511"><ele>226.20000000000002</ele><time>2026-04-06T10:48:19.006Z</time></trkpt><trkpt lat="44.0843888" lon="12.1396181"><ele>228.79999999999998</ele><time>2026-04-06T10:48:20.007Z</time></trkpt><trkpt lat="44.0843239" lon="12.1397376"><ele>231.39999999999998</ele><time>2026-04-06T10:48:21.007Z</time></trkpt><trkpt lat="44.0842546" lon="12.1398513"><ele>234.0</ele><time>2026-04-06T10:48:22.007Z</time></trkpt><trkpt lat="44.0841847" lon="12.1399581"><ele>236.2</ele><time>2026-04-06T10:48:23.007Z</time></trkpt><trkpt lat="44.0841166" lon="12.14006"><ele>238.39999999999998</ele><time>2026-04-06T10:48:24.007Z</time></trkpt><trkpt lat="44.0840515" lon="12.1401531"><ele>240.6</ele><time>2026-04-06T10:48:25.005Z</time></trkpt><trkpt lat="44.0839837" lon="12.1402323"><ele>242.8</ele><time>2026-04-06T10:48:26.006Z</time></trkpt><trkpt lat="44.0839056" lon="12.140292"><ele>245.0</ele><time>2026-04-06T10:48:27.008Z</time></trkpt><trkpt lat="44.0838166" lon="12.1403269"><ele>245.75</ele><time>2026-04-06T10:48:28.009Z</time></trkpt><trkpt lat="44.0837154" lon="12.1403471"><ele>246.5</ele><time>2026-04-06T10:48:29.007Z</time></trkpt><trkpt lat="44.0835978" lon="12.140334"><ele>247.25</ele><time>2026-04-06T10:48:30.007Z</time></trkpt><trkpt lat="44.0834778" lon="12.1403259"><ele>248.0</ele><time>2026-04-06T10:48:31.007Z</time></trkpt><trkpt lat="44.0833506" lon="12.1403132"><ele>249.75</ele><time>2026-04-06T10:48:32.008Z</time></trkpt><trkpt lat="44.0832168" lon="12.1403038"><ele>251.5</ele><time>2026-04-06T10:48:33.006Z</time></trkpt><trkpt lat="44.0830803" lon="12.1402739"><ele>253.25</ele><time>2026-04-06T10:48:34.007Z</time></trkpt><trkpt lat="44.0829373" lon="12.1402286"><ele>255.0</ele><time>2026-04-06T10:48:35.007Z</time></trkpt><trkpt lat="44.0828013" lon="12.1401847"><ele>255.0</ele><time>2026-04-06T10:48:36.007Z</time></trkpt><trkpt lat="44.0826728" lon="12.1401531"><ele>255.0</ele><time>2026-04-06T10:48:37.009Z</time></trkpt><trkpt lat="44.0825391" lon="12.1401529"><ele>255.0</ele><time>2026-04-06T10:48:38.008Z</time></trkpt><trkpt lat="44.0824129" lon="12.1401941"><ele>255.0</ele><time>2026-04-06T10:48:39.006Z</time></trkpt><trkpt lat="44.0822932" lon="12.1402403"><ele>255.75</ele><time>2026-04-06T10:48:40.008Z</time></trkpt><trkpt lat="44.0821732" lon="12.140263"><ele>256.5</ele><time>2026-04-06T10:48:41.007Z</time></trkpt><trkpt lat="44.0820573" lon="12.1402996"><ele>257.25</ele><time>2026-04-06T10:48:42.01Z</time></trkpt><trkpt lat="44.0819375" lon="12.1403137"><ele>258.0</ele><time>2026-04-06T10:48:43.007Z</time></trkpt><trkpt lat="44.0818136" lon="12.1403005"><ele>258.0</ele><time>2026-04-06T10:48:44.006Z</time></trkpt><trkpt lat="44.0816819" lon="12.1402564"><ele>258.0</ele><time>2026-04-06T10:48:45.007Z</time></trkpt><trkpt lat="44.0815413" lon="12.1401853"><ele>258.0</ele><time>2026-04-06T10:48:46.007Z</time></trkpt><trkpt lat="44.0813968" lon="12.1401121"><ele>258.0</ele><time>2026-04-06T10:48:47.007Z</time></trkpt><trkpt lat="44.0812602" lon="12.1400317"><ele>256.5</ele><time>2026-04-06T10:48:48.007Z</time></trkpt><trkpt lat="44.0811327" lon="12.1399557"><ele>255.0</ele><time>2026-04-06T10:48:49.008Z</time></trkpt><trkpt lat="44.081004" lon="12.1399115"><ele>253.5</ele><time>2026-04-06T10:48:50.007Z</time></trkpt><trkpt lat="44.0808738" lon="12.1398644"><ele>252.0</ele><time>2026-04-06T10:48:51.013Z</time></trkpt><trkpt lat="44.0807448" lon="12.1397959"><ele>251.66666666666669</ele><time>2026-04-06T10:48:52.006Z</time></trkpt><trkpt lat="44.0806153" lon="12.1397074"><ele>251.33333333333334</ele><time>2026-04-06T10:48:53.007Z</time></trkpt><trkpt lat="44.0804833" lon="12.1395799"><ele>251.0</ele><time>2026-04-06T10:48:54.007Z</time></trkpt><trkpt lat="44.0803486" lon="12.139426"><ele>251.0</ele><time>2026-04-06T10:48:55.007Z</time></trkpt><trkpt lat="44.0802053" lon="12.1392693"><ele>251.0</ele><time>2026-04-06T10:48:56.007Z</time></trkpt><trkpt lat="44.0800594" lon="12.1391146"><ele>251.0</ele><time>2026-04-06T10:48:57.007Z</time></trkpt><trkpt lat="44.0799227" lon="12.1389624"><ele>254.0</ele><time>2026-04-06T10:48:58.01Z</time></trkpt><trkpt lat="44.0797898" lon="12.1388181"><ele>257.0</ele><time>2026-04-06T10:48:59.006Z</time></trkpt><trkpt lat="44.0796684" lon="12.1386764"><ele>260.0</ele><time>2026-04-06T10:49:00.007Z</time></trkpt><trkpt lat="44.079551" lon="12.138543"><ele>260.0</ele><time>2026-04-06T10:49:01.007Z</time></trkpt><trkpt lat="44.0794334" lon="12.1384188"><ele>260.0</ele><time>2026-04-06T10:49:02.008Z</time></trkpt><trkpt lat="44.0793127" lon="12.1383074"><ele>260.0</ele><time>2026-04-06T10:49:03.011Z</time></trkpt><trkpt lat="44.0791939" lon="12.1382108"><ele>260.0</ele><time>2026-04-06T10:49:04.007Z</time></trkpt><trkpt lat="44.0790717" lon="12.138139"><ele>261.25</ele><time>2026-04-06T10:49:05.006Z</time></trkpt><trkpt lat="44.0789408" lon="12.1381037"><ele>262.5</ele><time>2026-04-06T10:49:06.008Z</time></trkpt><trkpt lat="44.0787957" lon="12.138093"><ele>263.75</ele><time>2026-04-06T10:49:07.006Z</time></trkpt><trkpt lat="44.0786316" lon="12.1381037"><ele>265.0</ele><time>2026-04-06T10:49:08.01Z</time></trkpt><trkpt lat="44.0784544" lon="12.1381211"><ele>265.0</ele><time>2026-04-06T10:49:09.008Z</time></trkpt><trkpt lat="44.0782711" lon="12.1381346"><ele>265.0</ele><time>2026-04-06T10:49:10.006Z</time></trkpt><trkpt lat="44.0780865" lon="12.1381496"><ele>265.0</ele><time>2026-04-06T10:49:11.007Z</time></trkpt><trkpt lat="44.0779113" lon="12.1381621"><ele>264.3333333333333</ele><time>2026-04-06T10:49:12.007Z</time></trkpt><trkpt lat="44.077741" lon="12.1381725"><ele>263.6666666666667</ele><time>2026-04-06T10:49:13.009Z</time></trkpt><trkpt lat="44.0775719" lon="12.1381725"><ele>263.0</ele><time>2026-04-06T10:49:14.007Z</time></trkpt><trkpt lat="44.0773972" lon="12.1381784"><ele>264.33333333333337</ele><time>2026-04-06T10:49:15.006Z</time></trkpt><trkpt lat="44.077219" lon="12.1381908"><ele>265.6666666666667</ele><time>2026-04-06T10:49:16.007Z</time></trkpt><trkpt lat="44.0770356" lon="12.1382106"><ele>267.0</ele><time>2026-04-06T10:49:17.008Z</time></trkpt><trkpt lat="44.0768427" lon="12.1382307"><ele>269.6666666666667</ele><time>2026-04-06T10:49:18.007Z</time></trkpt><trkpt lat="44.0766491" lon="12.1382448"><ele>272.33333333333337</ele><time>2026-04-06T10:49:19.009Z</time></trkpt><trkpt lat="44.076461" lon="12.1382501"><ele>275.0</ele><time>2026-04-06T10:49:20.008Z</time></trkpt><trkpt lat="44.07628" lon="12.1382466"><ele>276.0</ele><time>2026-04-06T10:49:21.009Z</time></trkpt><trkpt lat="44.076108" lon="12.1382254"><ele>277.0</ele><time>2026-04-06T10:49:22.006Z</time></trkpt><trkpt lat="44.0759416" lon="12.1381807"><ele>278.0</ele><time>2026-04-06T10:49:23.007Z</time></trkpt><trkpt lat="44.0757904" lon="12.1381071"><ele>281.75</ele><time>2026-04-06T10:49:24.007Z</time></trkpt><trkpt lat="44.0756521" lon="12.1380269"><ele>285.5</ele><time>2026-04-06T10:49:25.007Z</time></trkpt><trkpt lat="44.0755296" lon="12.1379327"><ele>289.25</ele><time>2026-04-06T10:49:26.008Z</time></trkpt><trkpt lat="44.0754204" lon="12.1378109"><ele>293.0</ele><time>2026-04-06T10:49:27.007Z</time></trkpt><trkpt lat="44.0753223" lon="12.137661"><ele>293.0</ele><time>2026-04-06T10:49:28.008Z</time></trkpt><trkpt lat="44.075237" lon="12.1374946"><ele>293.0</ele><time>2026-04-06T10:49:29.008Z</time></trkpt><trkpt lat="44.0751702" lon="12.1373298"><ele>293.0</ele><time>2026-04-06T10:49:30.006Z</time></trkpt><trkpt lat="44.075113" lon="12.1371737"><ele>293.0</ele><time>2026-04-06T10:49:31.011Z</time></trkpt><trkpt lat="44.0750527" lon="12.1370287"><ele>291.5</ele><time>2026-04-06T10:49:32.008Z</time></trkpt><trkpt lat="44.0749751" lon="12.1369009"><ele>290.0</ele><time>2026-04-06T10:49:33.007Z</time></trkpt><trkpt lat="44.0748782" lon="12.1368014"><ele>288.5</ele><time>2026-04-06T10:49:34.012Z</time></trkpt><trkpt lat="44.0747645" lon="12.1367342"><ele>287.0</ele><time>2026-04-06T10:49:35.006Z</time></trkpt><trkpt lat="44.0746389" lon="12.136698"><ele>291.33333333333337</ele><time>2026-04-06T10:49:36.007Z</time></trkpt><trkpt lat="44.0744923" lon="12.136693"><ele>295.6666666666667</ele><time>2026-04-06T10:49:37.009Z</time></trkpt><trkpt lat="44.074339" lon="12.1367134"><ele>300.0</ele><time>2026-04-06T10:49:38.009Z</time></trkpt><trkpt lat="44.0741895" lon="12.1367626"><ele>305.5</ele><time>2026-04-06T10:49:39.008Z</time></trkpt><trkpt lat="44.0740476" lon="12.1368405"><ele>311.0</ele><time>2026-04-06T10:49:40.008Z</time></trkpt><trkpt lat="44.0739181" lon="12.1369377"><ele>316.5</ele><time>2026-04-06T10:49:41.007Z</time></trkpt><trkpt lat="44.0738102" lon="12.1370257"><ele>322.0</ele><time>2026-04-06T10:49:42.006Z</time></trkpt><trkpt lat="44.0737294" lon="12.1370862"><ele>322.0</ele><time>2026-04-06T10:49:43.007Z</time></trkpt><trkpt lat="44.0736703" lon="12.1371286"><ele>322.0</ele><time>2026-04-06T10:49:44.01Z</time></trkpt><trkpt lat="44.0735807" lon="12.1372305"><ele>322.0</ele><time>2026-04-06T10:49:46.01Z</time></trkpt><trkpt lat="44.0735407" lon="12.1373064"><ele>322.0</ele><time>2026-04-06T10:49:47.006Z</time></trkpt><trkpt lat="44.073486" lon="12.137388"><ele>322.0</ele><time>2026-04-06T10:49:48.007Z</time></trkpt><trkpt lat="44.0734215" lon="12.1374733"><ele>322.0</ele><time>2026-04-06T10:49:49.01Z</time></trkpt><trkpt lat="44.0733491" lon="12.1375514"><ele>322.8</ele><time>2026-04-06T10:49:50.006Z</time></trkpt><trkpt lat="44.0732749" lon="12.1376144"><ele>323.6</ele><time>2026-04-06T10:49:51.009Z</time></trkpt><trkpt lat="44.073197" lon="12.1376605"><ele>324.40000000000003</ele><time>2026-04-06T10:49:52.008Z</time></trkpt><trkpt lat="44.073107" lon="12.1376799"><ele>325.20000000000005</ele><time>2026-04-06T10:49:53.006Z</time></trkpt><trkpt lat="44.0730061" lon="12.137666"><ele>326.0</ele><time>2026-04-06T10:49:54.007Z</time></trkpt><trkpt lat="44.072893" lon="12.1376256"><ele>326.0</ele><time>2026-04-06T10:49:55.012Z</time></trkpt><trkpt lat="44.0727751" lon="12.1375992"><ele>326.0</ele><time>2026-04-06T10:49:56.008Z</time></trkpt><trkpt lat="44.0726568" lon="12.1376074"><ele>326.0</ele><time>2026-04-06T10:49:57.007Z</time></trkpt><trkpt lat="44.07254" lon="12.137653"><ele>326.0</ele><time>2026-04-06T10:49:58.007Z</time></trkpt><trkpt lat="44.0724372" lon="12.1377369"><ele>327.5</ele><time>2026-04-06T10:49:59.007Z</time></trkpt><trkpt lat="44.072347" lon="12.1378463"><ele>329.0</ele><time>2026-04-06T10:50:00.007Z</time></trkpt><trkpt lat="44.0722611" lon="12.1379554"><ele>330.5</ele><time>2026-04-06T10:50:01.012Z</time></trkpt><trkpt lat="44.0721659" lon="12.1380361"><ele>332.0</ele><time>2026-04-06T10:50:02.01Z</time></trkpt><trkpt lat="44.0720609" lon="12.1380866"><ele>332.0</ele><time>2026-04-06T10:50:03.006Z</time></trkpt><trkpt lat="44.0719507" lon="12.1381001"><ele>332.0</ele><time>2026-04-06T10:50:04.008Z</time></trkpt><trkpt lat="44.0718445" lon="12.1381028"><ele>332.0</ele><time>2026-04-06T10:50:05.007Z</time></trkpt><trkpt lat="44.0717405" lon="12.1380934"><ele>332.0</ele><time>2026-04-06T10:50:06.009Z</time></trkpt><trkpt lat="44.0716382" lon="12.1381361"><ele>332.0</ele><time>2026-04-06T10:50:07.006Z</time></trkpt><trkpt lat="44.0715455" lon="12.1382175"><ele>332.75</ele><time>2026-04-06T10:50:08.009Z</time></trkpt><trkpt lat="44.0714645" lon="12.1383342"><ele>333.5</ele><time>2026-04-06T10:50:09.006Z</time></trkpt><trkpt lat="44.0713999" lon="12.1384852"><ele>334.25</ele><time>2026-04-06T10:50:10.006Z</time></trkpt><trkpt lat="44.0713435" lon="12.1386495"><ele>335.0</ele><time>2026-04-06T10:50:11.006Z</time></trkpt><trkpt lat="44.0712872" lon="12.1388209"><ele>335.0</ele><time>2026-04-06T10:50:12.007Z</time></trkpt><trkpt lat="44.0712359" lon="12.1389957"><ele>335.0</ele><time>2026-04-06T10:50:13.01Z</time></trkpt><trkpt lat="44.0711866" lon="12.1391714"><ele>335.0</ele><time>2026-04-06T10:50:14.007Z</time></trkpt><trkpt lat="44.0711579" lon="12.1393555"><ele>335.0</ele><time>2026-04-06T10:50:15.011Z</time></trkpt><trkpt lat="44.0711268" lon="12.1395422"><ele>333.75</ele><time>2026-04-06T10:50:16.009Z</time></trkpt><trkpt lat="44.071101" lon="12.139729"><ele>332.5</ele><time>2026-04-06T10:50:17.007Z</time></trkpt><trkpt lat="44.0710928" lon="12.1399103"><ele>331.25</ele><time>2026-04-06T10:50:18.009Z</time></trkpt><trkpt lat="44.0710933" lon="12.1400855"><ele>330.0</ele><time>2026-04-06T10:50:19.01Z</time></trkpt><trkpt lat="44.0711182" lon="12.1402479"><ele>330.0</ele><time>2026-04-06T10:50:20.006Z</time></trkpt><trkpt lat="44.0711631" lon="12.1403823"><ele>330.0</ele><time>2026-04-06T10:50:21.008Z</time></trkpt><trkpt lat="44.0712149" lon="12.1404861"><ele>330.0</ele><time>2026-04-06T10:50:22.007Z</time></trkpt><trkpt lat="44.0712646" lon="12.1405626"><ele>330.0</ele><time>2026-04-06T10:50:23.007Z</time></trkpt><trkpt lat="44.0713067" lon="12.1406667"><ele>330.0</ele><time>2026-04-06T10:50:25.008Z</time></trkpt><trkpt lat="44.0712728" lon="12.1407643"><ele>330.0</ele><time>2026-04-06T10:50:27.009Z</time></trkpt><trkpt lat="44.0712147" lon="12.1408459"><ele>330.0</ele><time>2026-04-06T10:50:29.008Z</time></trkpt><trkpt lat="44.0711392" lon="12.1408445"><ele>330.0</ele><time>2026-04-06T10:50:30.008Z</time></trkpt><trkpt lat="44.0710545" lon="12.1407797"><ele>330.0</ele><time>2026-04-06T10:50:31.007Z</time></trkpt><trkpt lat="44.0709756" lon="12.1406727"><ele>330.0</ele><time>2026-04-06T10:50:32.011Z</time></trkpt><trkpt lat="44.0708838" lon="12.1405544"><ele>330.0</ele><time>2026-04-06T10:50:33.009Z</time></trkpt><trkpt lat="44.0708004" lon="12.1404051"><ele>333.0</ele><time>2026-04-06T10:50:34.008Z</time></trkpt><trkpt lat="44.0707244" lon="12.1402089"><ele>336.0</ele><time>2026-04-06T10:50:35.009Z</time></trkpt><trkpt lat="44.0706387" lon="12.1400068"><ele>339.0</ele><time>2026-04-06T10:50:36.007Z</time></trkpt><trkpt lat="44.0705377" lon="12.1398195"><ele>342.75</ele><time>2026-04-06T10:50:37.011Z</time></trkpt><trkpt lat="44.0704424" lon="12.1396605"><ele>346.5</ele><time>2026-04-06T10:50:38.008Z</time></trkpt><trkpt lat="44.070356" lon="12.1395305"><ele>350.25</ele><time>2026-04-06T10:50:39.012Z</time></trkpt><trkpt lat="44.0702943" lon="12.1394031"><ele>354.0</ele><time>2026-04-06T10:50:40.008Z</time></trkpt><trkpt lat="44.0702565" lon="12.1392639"><ele>354.0</ele><time>2026-04-06T10:50:41.009Z</time></trkpt><trkpt lat="44.0702204" lon="12.1391205"><ele>354.0</ele><time>2026-04-06T10:50:42.009Z</time></trkpt><trkpt lat="44.0701803" lon="12.1389635"><ele>354.0</ele><time>2026-04-06T10:50:43.008Z</time></trkpt><trkpt lat="44.0701292" lon="12.1387964"><ele>354.0</ele><time>2026-04-06T10:50:44.012Z</time></trkpt><trkpt lat="44.070073" lon="12.1386204"><ele>355.75</ele><time>2026-04-06T10:50:45.009Z</time></trkpt><trkpt lat="44.0700212" lon="12.1384276"><ele>357.5</ele><time>2026-04-06T10:50:46.009Z</time></trkpt><trkpt lat="44.0699682" lon="12.13823"><ele>359.25</ele><time>2026-04-06T10:50:47.009Z</time></trkpt><trkpt lat="44.0699327" lon="12.1380283"><ele>361.0</ele><time>2026-04-06T10:50:48.011Z</time></trkpt><trkpt lat="44.0699275" lon="12.1378214"><ele>364.66666666666663</ele><time>2026-04-06T10:50:49.007Z</time></trkpt><trkpt lat="44.0699559" lon="12.137607"><ele>368.3333333333333</ele><time>2026-04-06T10:50:50.008Z</time></trkpt><trkpt lat="44.070006" lon="12.1373878"><ele>372.0</ele><time>2026-04-06T10:50:51.013Z</time></trkpt><trkpt lat="44.070076" lon="12.1371677"><ele>375.0</ele><time>2026-04-06T10:50:52.008Z</time></trkpt><trkpt lat="44.0701475" lon="12.1369649"><ele>378.0</ele><time>2026-04-06T10:50:53.011Z</time></trkpt><trkpt lat="44.0702128" lon="12.1367865"><ele>381.0</ele><time>2026-04-06T10:50:54.008Z</time></trkpt><trkpt lat="44.070251" lon="12.1366476"><ele>384.0</ele><time>2026-04-06T10:50:55.008Z</time></trkpt><trkpt lat="44.0702679" lon="12.136526"><ele>387.2</ele><time>2026-04-06T10:50:56.008Z</time></trkpt><trkpt lat="44.0701974" lon="12.1364187"><ele>390.4</ele><time>2026-04-06T10:50:58.009Z</time></trkpt><trkpt lat="44.0701109" lon="12.1364465"><ele>393.6</ele><time>2026-04-06T10:50:59.007Z</time></trkpt><trkpt lat="44.0700062" lon="12.1365251"><ele>396.8</ele><time>2026-04-06T10:51:00.009Z</time></trkpt><trkpt lat="44.0699068" lon="12.1365875"><ele>400.0</ele><time>2026-04-06T10:51:01.01Z</time></trkpt><trkpt lat="44.0697923" lon="12.1366413"><ele>401.0</ele><time>2026-04-06T10:51:02.007Z</time></trkpt><trkpt lat="44.0696661" lon="12.1367483"><ele>402.0</ele><time>2026-04-06T10:51:03.008Z</time></trkpt><trkpt lat="44.0695519" lon="12.1368808"><ele>403.0</ele><time>2026-04-06T10:51:04.008Z</time></trkpt><trkpt lat="44.0694619" lon="12.1370187"><ele>404.0</ele><time>2026-04-06T10:51:05.009Z</time></trkpt><trkpt lat="44.0693966" lon="12.1371347"><ele>404.0</ele><time>2026-04-06T10:51:06.009Z</time></trkpt><trkpt lat="44.069334" lon="12.1371996"><ele>404.0</ele><time>2026-04-06T10:51:07.008Z</time></trkpt><trkpt lat="44.06922" lon="12.1371991"><ele>404.0</ele><time>2026-04-06T10:51:09.008Z</time></trkpt><trkpt lat="44.0691302" lon="12.1370606"><ele>404.0</ele><time>2026-04-06T10:51:11.009Z</time></trkpt><trkpt lat="44.0691039" lon="12.1369184"><ele>404.0</ele><time>2026-04-06T10:51:12.008Z</time></trkpt><trkpt lat="44.0691159" lon="12.1367035"><ele>407.66666666666663</ele><time>2026-04-06T10:51:13.007Z</time></trkpt><trkpt lat="44.0691528" lon="12.1364738"><ele>411.33333333333337</ele><time>2026-04-06T10:51:14.009Z</time></trkpt><trkpt lat="44.0692146" lon="12.1362808"><ele>415.0</ele><time>2026-04-06T10:51:15.005Z</time></trkpt><trkpt lat="44.0692961" lon="12.1361241"><ele>415.0</ele><time>2026-04-06T10:51:16.01Z</time></trkpt><trkpt lat="44.0693912" lon="12.1360134"><ele>415.0</ele><time>2026-04-06T10:51:17.006Z</time></trkpt><trkpt lat="44.0694684" lon="12.135916"><ele>415.0</ele><time>2026-04-06T10:51:18.009Z</time></trkpt><trkpt lat="44.0695183" lon="12.1358236"><ele>415.0</ele><time>2026-04-06T10:51:19.007Z</time></trkpt><trkpt lat="44.0695389" lon="12.135727"><ele>415.0</ele><time>2026-04-06T10:51:20.009Z</time></trkpt><trkpt lat="44.0694652" lon="12.1356447"><ele>415.0</ele><time>2026-04-06T10:51:22.01Z</time></trkpt><trkpt lat="44.0693717" lon="12.1356643"><ele>415.0</ele><time>2026-04-06T10:51:23.01Z</time></trkpt><trkpt lat="44.0692477" lon="12.1357401"><ele>415.0</ele><time>2026-04-06T10:51:24.007Z</time></trkpt><trkpt lat="44.0691225" lon="12.1358068"><ele>415.0</ele><time>2026-04-06T10:51:25.012Z</time></trkpt><trkpt lat="44.0689997" lon="12.1358909"><ele>418.0</ele><time>2026-04-06T10:51:26.008Z</time></trkpt><trkpt lat="44.0689029" lon="12.1360138"><ele>421.0</ele><time>2026-04-06T10:51:27.01Z</time></trkpt><trkpt lat="44.0688316" lon="12.136122"><ele>424.0</ele><time>2026-04-06T10:51:28.011Z</time></trkpt><trkpt lat="44.0687637" lon="12.136176"><ele>427.0</ele><time>2026-04-06T10:51:29.008Z</time></trkpt><trkpt lat="44.0686649" lon="12.1361443"><ele>430.0</ele><time>2026-04-06T10:51:31.01Z</time></trkpt><trkpt lat="44.0686521" lon="12.1360562"><ele>430.0</ele><time>2026-04-06T10:51:32.008Z</time></trkpt><trkpt lat="44.0686925" lon="12.1359117"><ele>430.0</ele><time>2026-04-06T10:51:33.009Z</time></trkpt><trkpt lat="44.0687737" lon="12.135743"><ele>430.0</ele><time>2026-04-06T10:51:34.009Z</time></trkpt><trkpt lat="44.0688695" lon="12.1355869"><ele>430.0</ele><time>2026-04-06T10:51:35.008Z</time></trkpt><trkpt lat="44.0689802" lon="12.1354682"><ele>430.0</ele><time>2026-04-06T10:51:36.008Z</time></trkpt><trkpt lat="44.0691058" lon="12.1353887"><ele>430.0</ele><time>2026-04-06T10:51:37.008Z</time></trkpt><trkpt lat="44.0692099" lon="12.1353346"><ele>430.0</ele><time>2026-04-06T10:51:38.009Z</time></trkpt><trkpt lat="44.0692854" lon="12.1352776"><ele>430.0</ele><time>2026-04-06T10:51:39.011Z</time></trkpt><trkpt lat="44.0693344" lon="12.1352086"><ele>430.0</ele><time>2026-04-06T10:51:40.008Z</time></trkpt><trkpt lat="44.0693578" lon="12.1350928"><ele>430.0</ele><time>2026-04-06T10:51:42.007Z</time></trkpt><trkpt lat="44.0692382" lon="12.1350768"><ele>430.0</ele><time>2026-04-06T10:51:44.01Z</time></trkpt><trkpt lat="44.0691533" lon="12.1350782"><ele>430.0</ele><time>2026-04-06T10:51:45.009Z</time></trkpt><trkpt lat="44.0690238" lon="12.1350968"><ele>430.0</ele><time>2026-04-06T10:51:46.01Z</time></trkpt><trkpt lat="44.068895" lon="12.135115"><ele>430.00000000000006</ele><time>2026-04-06T10:51:47.008Z</time></trkpt><trkpt lat="44.0687803" lon="12.1351118"><ele>430.0</ele><time>2026-04-06T10:51:48.007Z</time></trkpt><trkpt lat="44.0686824" lon="12.1350921"><ele>430.0</ele><time>2026-04-06T10:51:49.009Z</time></trkpt><trkpt lat="44.0686022" lon="12.1350631"><ele>430.0</ele><time>2026-04-06T10:51:50.008Z</time></trkpt><trkpt lat="44.0685422" lon="12.1350334"><ele>430.00000000000006</ele><time>2026-04-06T10:51:51.012Z</time></trkpt><trkpt lat="44.0684612" lon="12.1350184"><ele>430.0</ele><time>2026-04-06T10:51:53.009Z</time></trkpt><trkpt lat="44.0683867" lon="12.1351045"><ele>430.0</ele><time>2026-04-06T10:51:55.008Z</time></trkpt><trkpt lat="44.0683553" lon="12.1352608"><ele>430.0</ele><time>2026-04-06T10:51:56.01Z</time></trkpt><trkpt lat="44.0683248" lon="12.1354557"><ele>430.0</ele><time>2026-04-06T10:51:57.007Z</time></trkpt><trkpt lat="44.0682797" lon="12.1356932"><ele>430.0</ele><time>2026-04-06T10:51:58.01Z</time></trkpt><trkpt lat="44.0682602" lon="12.1359668"><ele>429.0</ele><time>2026-04-06T10:51:59.008Z</time></trkpt><trkpt lat="44.0682615" lon="12.1362331"><ele>428.0</ele><time>2026-04-06T10:52:00.01Z</time></trkpt><trkpt lat="44.068259" lon="12.1364811"><ele>427.0</ele><time>2026-04-06T10:52:01.01Z</time></trkpt><trkpt lat="44.0682495" lon="12.1366952"><ele>429.20000000000005</ele><time>2026-04-06T10:52:02.009Z</time></trkpt><trkpt lat="44.068232" lon="12.1368768"><ele>431.40000000000003</ele><time>2026-04-06T10:52:03.01Z</time></trkpt><trkpt lat="44.0681962" lon="12.1370214"><ele>433.59999999999997</ele><time>2026-04-06T10:52:04.007Z</time></trkpt><trkpt lat="44.0681373" lon="12.1371193"><ele>435.79999999999995</ele><time>2026-04-06T10:52:05.009Z</time></trkpt><trkpt lat="44.0680714" lon="12.1371866"><ele>438.0</ele><time>2026-04-06T10:52:06.007Z</time></trkpt><trkpt lat="44.0679877" lon="12.1372172"><ele>438.0</ele><time>2026-04-06T10:52:07.01Z</time></trkpt><trkpt lat="44.067863" lon="12.137179"><ele>438.0</ele><time>2026-04-06T10:52:08.008Z</time></trkpt><trkpt lat="44.0677004" lon="12.1371302"><ele>438.0</ele><time>2026-04-06T10:52:09.011Z</time></trkpt><trkpt lat="44.067526" lon="12.1371154"><ele>437.66666666666663</ele><time>2026-04-06T10:52:10.009Z</time></trkpt><trkpt lat="44.0673472" lon="12.1371272"><ele>437.3333333333333</ele><time>2026-04-06T10:52:11.007Z</time></trkpt><trkpt lat="44.0671715" lon="12.1371505"><ele>437.0</ele><time>2026-04-06T10:52:12.009Z</time></trkpt><trkpt lat="44.067007" lon="12.1371911"><ele>437.0</ele><time>2026-04-06T10:52:13.009Z</time></trkpt><trkpt lat="44.0668538" lon="12.1372486"><ele>437.0</ele><time>2026-04-06T10:52:14.008Z</time></trkpt><trkpt lat="44.0667017" lon="12.1373267"><ele>437.0</ele><time>2026-04-06T10:52:15.01Z</time></trkpt><trkpt lat="44.0665543" lon="12.1374362"><ele>433.66666666666663</ele><time>2026-04-06T10:52:16.009Z</time></trkpt><trkpt lat="44.0664067" lon="12.1375662"><ele>430.33333333333337</ele><time>2026-04-06T10:52:17.008Z</time></trkpt><trkpt lat="44.0662614" lon="12.1377023"><ele>427.0</ele><time>2026-04-06T10:52:18.009Z</time></trkpt><trkpt lat="44.0661213" lon="12.1378408"><ele>427.0</ele><time>2026-04-06T10:52:19.009Z</time></trkpt><trkpt lat="44.0659846" lon="12.1379699"><ele>427.0</ele><time>2026-04-06T10:52:20.008Z</time></trkpt><trkpt lat="44.0658489" lon="12.1380856"><ele>427.0</ele><time>2026-04-06T10:52:21.012Z</time></trkpt><trkpt lat="44.0657235" lon="12.1381954"><ele>425.25</ele><time>2026-04-06T10:52:22.009Z</time></trkpt><trkpt lat="44.0656096" lon="12.1383096"><ele>423.5</ele><time>2026-04-06T10:52:23.008Z</time></trkpt><trkpt lat="44.0655108" lon="12.1384413"><ele>421.75</ele><time>2026-04-06T10:52:24.007Z</time></trkpt><trkpt lat="44.0654263" lon="12.138597"><ele>420.0</ele><time>2026-04-06T10:52:25.009Z</time></trkpt><trkpt lat="44.0653526" lon="12.138782"><ele>420.0</ele><time>2026-04-06T10:52:26.011Z</time></trkpt><trkpt lat="44.0652938" lon="12.1389922"><ele>420.0</ele><time>2026-04-06T10:52:27.009Z</time></trkpt><trkpt lat="44.0652461" lon="12.1392081"><ele>420.0</ele><time>2026-04-06T10:52:28.008Z</time></trkpt><trkpt lat="44.0652211" lon="12.1394256"><ele>420.25</ele><time>2026-04-06T10:52:29.008Z</time></trkpt><trkpt lat="44.0652199" lon="12.1396396"><ele>420.5</ele><time>2026-04-06T10:52:30.007Z</time></trkpt><trkpt lat="44.0652267" lon="12.1398491"><ele>420.75</ele><time>2026-04-06T10:52:31.009Z</time></trkpt><trkpt lat="44.0652179" lon="12.14004"><ele>421.0</ele><time>2026-04-06T10:52:32.009Z</time></trkpt><trkpt lat="44.0651854" lon="12.1402098"><ele>421.0</ele><time>2026-04-06T10:52:33.01Z</time></trkpt><trkpt lat="44.0651208" lon="12.1403577"><ele>421.0</ele><time>2026-04-06T10:52:34.008Z</time></trkpt><trkpt lat="44.0650227" lon="12.1404912"><ele>421.0</ele><time>2026-04-06T10:52:35.008Z</time></trkpt><trkpt lat="44.0649009" lon="12.1406183"><ele>421.0</ele><time>2026-04-06T10:52:36.01Z</time></trkpt><trkpt lat="44.0647647" lon="12.1407465"><ele>420.6666666666667</ele><time>2026-04-06T10:52:37.01Z</time></trkpt><trkpt lat="44.0646218" lon="12.14088"><ele>420.33333333333337</ele><time>2026-04-06T10:52:38.011Z</time></trkpt><trkpt lat="44.0644778" lon="12.1410082"><ele>420.0</ele><time>2026-04-06T10:52:39.01Z</time></trkpt><trkpt lat="44.0643379" lon="12.1411309"><ele>420.0</ele><time>2026-04-06T10:52:40.009Z</time></trkpt><trkpt lat="44.06421" lon="12.141246"><ele>420.0</ele><time>2026-04-06T10:52:41.009Z</time></trkpt><trkpt lat="44.0641038" lon="12.1413589"><ele>420.0</ele><time>2026-04-06T10:52:42.009Z</time></trkpt><trkpt lat="44.0640191" lon="12.1414629"><ele>420.0</ele><time>2026-04-06T10:52:43.009Z</time></trkpt><trkpt lat="44.0639634" lon="12.1415712"><ele>416.0</ele><time>2026-04-06T10:52:44.007Z</time></trkpt><trkpt lat="44.0639439" lon="12.1416952"><ele>412.0</ele><time>2026-04-06T10:52:45.008Z</time></trkpt><trkpt lat="44.0639445" lon="12.1418224"><ele>408.0</ele><time>2026-04-06T10:52:46.007Z</time></trkpt><trkpt lat="44.0639722" lon="12.1419525"><ele>404.0</ele><time>2026-04-06T10:52:47.011Z</time></trkpt><trkpt lat="44.0640253" lon="12.1420845"><ele>400.0</ele><time>2026-04-06T10:52:48.009Z</time></trkpt><trkpt lat="44.0640874" lon="12.1422206"><ele>403.4</ele><time>2026-04-06T10:52:49.009Z</time></trkpt><trkpt lat="44.0641465" lon="12.1423569"><ele>406.8</ele><time>2026-04-06T10:52:50.008Z</time></trkpt><trkpt lat="44.0641823" lon="12.1424972"><ele>410.20000000000005</ele><time>2026-04-06T10:52:51.008Z</time></trkpt><trkpt lat="44.064197" lon="12.1426396"><ele>413.6</ele><time>2026-04-06T10:52:52.01Z</time></trkpt><trkpt lat="44.0641863" lon="12.1427851"><ele>417.0</ele><time>2026-04-06T10:52:53.008Z</time></trkpt><trkpt lat="44.0641482" lon="12.1429339"><ele>412.75</ele><time>2026-04-06T10:52:54.009Z</time></trkpt><trkpt lat="44.0640814" lon="12.1430842"><ele>408.5</ele><time>2026-04-06T10:52:55.009Z</time></trkpt><trkpt lat="44.0639845" lon="12.1432332"><ele>404.25</ele><time>2026-04-06T10:52:56.009Z</time></trkpt><trkpt lat="44.0638702" lon="12.1433799"><ele>400.0</ele><time>2026-04-06T10:52:57.011Z</time></trkpt><trkpt lat="44.0637306" lon="12.1435038"><ele>400.0</ele><time>2026-04-06T10:52:58.008Z</time></trkpt><trkpt lat="44.063587" lon="12.1436232"><ele>400.0</ele><time>2026-04-06T10:52:59.007Z</time></trkpt><trkpt lat="44.0634394" lon="12.1437419"><ele>400.0</ele><time>2026-04-06T10:53:00.009Z</time></trkpt><trkpt lat="44.063288" lon="12.1438587"><ele>397.0</ele><time>2026-04-06T10:53:01.01Z</time></trkpt><trkpt lat="44.0631441" lon="12.1439757"><ele>394.0</ele><time>2026-04-06T10:53:02.008Z</time></trkpt><trkpt lat="44.0630058" lon="12.1440876"><ele>391.0</ele><time>2026-04-06T10:53:03.01Z</time></trkpt><trkpt lat="44.0628732" lon="12.1441841"><ele>391.0</ele><time>2026-04-06T10:53:04.007Z</time></trkpt><trkpt lat="44.0627552" lon="12.1442953"><ele>391.0</ele><time>2026-04-06T10:53:05.01Z</time></trkpt><trkpt lat="44.062661" lon="12.1444348"><ele>391.0</ele><time>2026-04-06T10:53:06.009Z</time></trkpt><trkpt lat="44.0625873" lon="12.1445961"><ele>391.0</ele><time>2026-04-06T10:53:07.009Z</time></trkpt><trkpt lat="44.0625264" lon="12.1447643"><ele>391.5</ele><time>2026-04-06T10:53:08.008Z</time></trkpt><trkpt lat="44.0624781" lon="12.1449268"><ele>392.0</ele><time>2026-04-06T10:53:09.012Z</time></trkpt><trkpt lat="44.0624475" lon="12.1450862"><ele>392.5</ele><time>2026-04-06T10:53:10.012Z</time></trkpt><trkpt lat="44.0624348" lon="12.1452486"><ele>393.0</ele><time>2026-04-06T10:53:11.009Z</time></trkpt><trkpt lat="44.0624423" lon="12.1454162"><ele>393.0</ele><time>2026-04-06T10:53:12.009Z</time></trkpt><trkpt lat="44.0624654" lon="12.1455903"><ele>393.0</ele><time>2026-04-06T10:53:13.009Z</time></trkpt><trkpt lat="44.0624889" lon="12.1457765"><ele>393.0</ele><time>2026-04-06T10:53:14.008Z</time></trkpt><trkpt lat="44.0624967" lon="12.1459726"><ele>393.0</ele><time>2026-04-06T10:53:15.011Z</time></trkpt><trkpt lat="44.0624796" lon="12.1461782"><ele>382.0</ele><time>2026-04-06T10:53:16.01Z</time></trkpt><trkpt lat="44.0624447" lon="12.1463931"><ele>371.0</ele><time>2026-04-06T10:53:17.009Z</time></trkpt><trkpt lat="44.0624055" lon="12.1466134"><ele>360.0</ele><time>2026-04-06T10:53:18.008Z</time></trkpt><trkpt lat="44.0623637" lon="12.1468389"><ele>359.6666666666667</ele><time>2026-04-06T10:53:19.009Z</time></trkpt><trkpt lat="44.0623256" lon="12.1470553"><ele>359.33333333333337</ele><time>2026-04-06T10:53:20.007Z</time></trkpt><trkpt lat="44.0622971" lon="12.1472609"><ele>359.0</ele><time>2026-04-06T10:53:21.008Z</time></trkpt><trkpt lat="44.0622704" lon="12.1474542"><ele>360.2</ele><time>2026-04-06T10:53:22.008Z</time></trkpt><trkpt lat="44.0622329" lon="12.1476236"><ele>361.4</ele><time>2026-04-06T10:53:23.008Z</time></trkpt><trkpt lat="44.0621956" lon="12.1477697"><ele>362.6</ele><time>2026-04-06T10:53:24.012Z</time></trkpt><trkpt lat="44.0621401" lon="12.1478744"><ele>363.8</ele><time>2026-04-06T10:53:25.008Z</time></trkpt><trkpt lat="44.062069" lon="12.1479486"><ele>365.0</ele><time>2026-04-06T10:53:26.009Z</time></trkpt><trkpt lat="44.0619883" lon="12.1479923"><ele>365.0</ele><time>2026-04-06T10:53:27.009Z</time></trkpt><trkpt lat="44.0618991" lon="12.1480032"><ele>365.0</ele><time>2026-04-06T10:53:28.009Z</time></trkpt><trkpt lat="44.0618185" lon="12.1479607"><ele>365.0</ele><time>2026-04-06T10:53:29.007Z</time></trkpt><trkpt lat="44.0617513" lon="12.1478858"><ele>365.0</ele><time>2026-04-06T10:53:30.009Z</time></trkpt><trkpt lat="44.0616997" lon="12.1477926"><ele>365.0</ele><time>2026-04-06T10:53:31.009Z</time></trkpt><trkpt lat="44.0617179" lon="12.1476099"><ele>365.0</ele><time>2026-04-06T10:53:32.008Z</time></trkpt><trkpt lat="44.0617841" lon="12.1474049"><ele>365.0</ele><time>2026-04-06T10:53:33.008Z</time></trkpt><trkpt lat="44.0618503" lon="12.147201"><ele>365.0</ele><time>2026-04-06T10:53:34.01Z</time></trkpt><trkpt lat="44.0619223" lon="12.1470085"><ele>363.75</ele><time>2026-04-06T10:53:35.007Z</time></trkpt><trkpt lat="44.0619852" lon="12.1468338"><ele>362.5</ele><time>2026-04-06T10:53:36.008Z</time></trkpt><trkpt lat="44.0620375" lon="12.1466685"><ele>361.25</ele><time>2026-04-06T10:53:37.008Z</time></trkpt><trkpt lat="44.0620821" lon="12.1465203"><ele>360.0</ele><time>2026-04-06T10:53:38.009Z</time></trkpt><trkpt lat="44.0621221" lon="12.1463861"><ele>360.0</ele><time>2026-04-06T10:53:39.008Z</time></trkpt><trkpt lat="44.0621431" lon="12.1462742"><ele>360.0</ele><time>2026-04-06T10:53:40.009Z</time></trkpt><trkpt lat="44.0621494" lon="12.1461772"><ele>360.0</ele><time>2026-04-06T10:53:41.008Z</time></trkpt><trkpt lat="44.0621132" lon="12.146076"><ele>360.0</ele><time>2026-04-06T10:53:43.008Z</time></trkpt><trkpt lat="44.0619989" lon="12.1461868"><ele>360.0</ele><time>2026-04-06T10:53:45.007Z</time></trkpt><trkpt lat="44.0619552" lon="12.1463073"><ele>360.0</ele><time>2026-04-06T10:53:46.009Z</time></trkpt><trkpt lat="44.0619155" lon="12.1464694"><ele>360.0</ele><time>2026-04-06T10:53:47.01Z</time></trkpt><trkpt lat="44.0618603" lon="12.1466375"><ele>360.0</ele><time>2026-04-06T10:53:48.009Z</time></trkpt><trkpt lat="44.0617851" lon="12.1468051"><ele>360.0</ele><time>2026-04-06T10:53:49.008Z</time></trkpt><trkpt lat="44.0617054" lon="12.1469795"><ele>359.75</ele><time>2026-04-06T10:53:50.008Z</time></trkpt><trkpt lat="44.0616178" lon="12.1471327"><ele>359.5</ele><time>2026-04-06T10:53:51.008Z</time></trkpt><trkpt lat="44.0615376" lon="12.1472731"><ele>359.25</ele><time>2026-04-06T10:53:52.008Z</time></trkpt><trkpt lat="44.0614709" lon="12.1474197"><ele>359.0</ele><time>2026-04-06T10:53:53.009Z</time></trkpt><trkpt lat="44.0614254" lon="12.1475821"><ele>355.25</ele><time>2026-04-06T10:53:54.01Z</time></trkpt><trkpt lat="44.0614078" lon="12.1477701"><ele>351.5</ele><time>2026-04-06T10:53:55.008Z</time></trkpt><trkpt lat="44.0614036" lon="12.1479811"><ele>347.75</ele><time>2026-04-06T10:53:56.008Z</time></trkpt><trkpt lat="44.0613935" lon="12.1481941"><ele>344.0</ele><time>2026-04-06T10:53:57.007Z</time></trkpt><trkpt lat="44.0613649" lon="12.148397"><ele>344.0</ele><time>2026-04-06T10:53:58.008Z</time></trkpt><trkpt lat="44.0613161" lon="12.14859"><ele>344.0</ele><time>2026-04-06T10:53:59.008Z</time></trkpt><trkpt lat="44.0612529" lon="12.148772"><ele>344.0</ele><time>2026-04-06T10:54:00.009Z</time></trkpt><trkpt lat="44.0611814" lon="12.14893"><ele>344.0</ele><time>2026-04-06T10:54:01.009Z</time></trkpt><trkpt lat="44.0611156" lon="12.1490672"><ele>345.2</ele><time>2026-04-06T10:54:02.011Z</time></trkpt><trkpt lat="44.0610739" lon="12.1492038"><ele>346.4</ele><time>2026-04-06T10:54:03.009Z</time></trkpt><trkpt lat="44.0610544" lon="12.1493467"><ele>347.6</ele><time>2026-04-06T10:54:04.011Z</time></trkpt><trkpt lat="44.0610425" lon="12.1494992"><ele>348.8</ele><time>2026-04-06T10:54:05.009Z</time></trkpt><trkpt lat="44.0610321" lon="12.1496702"><ele>350.0</ele><time>2026-04-06T10:54:06.009Z</time></trkpt><trkpt lat="44.0610058" lon="12.1498582"><ele>350.5</ele><time>2026-04-06T10:54:07.007Z</time></trkpt><trkpt lat="44.0609777" lon="12.1500563"><ele>351.0</ele><time>2026-04-06T10:54:08.008Z</time></trkpt><trkpt lat="44.0609446" lon="12.1502479"><ele>351.5</ele><time>2026-04-06T10:54:09.01Z</time></trkpt><trkpt lat="44.0609014" lon="12.1504233"><ele>352.0</ele><time>2026-04-06T10:54:10.009Z</time></trkpt><trkpt lat="44.0608439" lon="12.1505806"><ele>348.75</ele><time>2026-04-06T10:54:11.009Z</time></trkpt><trkpt lat="44.0607598" lon="12.1507126"><ele>345.5</ele><time>2026-04-06T10:54:12.009Z</time></trkpt><trkpt lat="44.0606549" lon="12.1508283"><ele>342.25</ele><time>2026-04-06T10:54:13.009Z</time></trkpt><trkpt lat="44.0605239" lon="12.1509461"><ele>339.0</ele><time>2026-04-06T10:54:14.011Z</time></trkpt><trkpt lat="44.0603799" lon="12.1510792"><ele>339.0</ele><time>2026-04-06T10:54:15.007Z</time></trkpt><trkpt lat="44.0602391" lon="12.1512215"><ele>339.0</ele><time>2026-04-06T10:54:16.008Z</time></trkpt><trkpt lat="44.0601075" lon="12.1513787"><ele>339.0</ele><time>2026-04-06T10:54:17.008Z</time></trkpt><trkpt lat="44.0599773" lon="12.1515336"><ele>334.0</ele><time>2026-04-06T10:54:18.008Z</time></trkpt><trkpt lat="44.0598485" lon="12.1516823"><ele>329.0</ele><time>2026-04-06T10:54:19.009Z</time></trkpt><trkpt lat="44.0597229" lon="12.1518257"><ele>324.0</ele><time>2026-04-06T10:54:20.007Z</time></trkpt><trkpt lat="44.0595923" lon="12.1519646"><ele>324.0</ele><time>2026-04-06T10:54:21.009Z</time></trkpt><trkpt lat="44.0594537" lon="12.1520988"><ele>324.0</ele><time>2026-04-06T10:54:22.007Z</time></trkpt><trkpt lat="44.0593173" lon="12.1522297"><ele>324.0</ele><time>2026-04-06T10:54:23.008Z</time></trkpt><trkpt lat="44.0591852" lon="12.152352"><ele>322.5</ele><time>2026-04-06T10:54:24.008Z</time></trkpt><trkpt lat="44.0590675" lon="12.1524783"><ele>321.0</ele><time>2026-04-06T10:54:25.008Z</time></trkpt><trkpt lat="44.0589642" lon="12.1526001"><ele>319.5</ele><time>2026-04-06T10:54:26.008Z</time></trkpt><trkpt lat="44.0588776" lon="12.1527236"><ele>318.0</ele><time>2026-04-06T10:54:27.008Z</time></trkpt><trkpt lat="44.0588028" lon="12.152858"><ele>318.0</ele><time>2026-04-06T10:54:28.008Z</time></trkpt><trkpt lat="44.0587591" lon="12.1530169"><ele>318.0</ele><time>2026-04-06T10:54:29.007Z</time></trkpt><trkpt lat="44.0587341" lon="12.153198"><ele>318.0</ele><time>2026-04-06T10:54:30.009Z</time></trkpt><trkpt lat="44.0587204" lon="12.1533962"><ele>318.0</ele><time>2026-04-06T10:54:31.008Z</time></trkpt><trkpt lat="44.0587067" lon="12.1536024"><ele>318.6666666666667</ele><time>2026-04-06T10:54:32.006Z</time></trkpt><trkpt lat="44.0586905" lon="12.1538099"><ele>319.33333333333337</ele><time>2026-04-06T10:54:33.01Z</time></trkpt><trkpt lat="44.0586713" lon="12.1540226"><ele>320.0</ele><time>2026-04-06T10:54:34.007Z</time></trkpt><trkpt lat="44.0586507" lon="12.1542339"><ele>320.0</ele><time>2026-04-06T10:54:35.008Z</time></trkpt><trkpt lat="44.0586277" lon="12.1544349"><ele>320.0</ele><time>2026-04-06T10:54:36.008Z</time></trkpt><trkpt lat="44.058595" lon="12.1546241"><ele>320.0</ele><time>2026-04-06T10:54:37.007Z</time></trkpt><trkpt lat="44.0585544" lon="12.1548025"><ele>320.0</ele><time>2026-04-06T10:54:38.011Z</time></trkpt><trkpt lat="44.0584996" lon="12.1549678"><ele>320.0</ele><time>2026-04-06T10:54:39.008Z</time></trkpt><trkpt lat="44.0584293" lon="12.1551194"><ele>320.0</ele><time>2026-04-06T10:54:40.009Z</time></trkpt><trkpt lat="44.0583395" lon="12.1552666"><ele>320.0</ele><time>2026-04-06T10:54:41.007Z</time></trkpt><trkpt lat="44.058236" lon="12.1554134"><ele>320.0</ele><time>2026-04-06T10:54:42.007Z</time></trkpt><trkpt lat="44.0581246" lon="12.1555575"><ele>314.0</ele><time>2026-04-06T10:54:43.008Z</time></trkpt><trkpt lat="44.0580104" lon="12.1556948"><ele>308.0</ele><time>2026-04-06T10:54:44.008Z</time></trkpt><trkpt lat="44.0578908" lon="12.1558229"><ele>302.0</ele><time>2026-04-06T10:54:45.009Z</time></trkpt><trkpt lat="44.0577681" lon="12.1559459"><ele>302.0</ele><time>2026-04-06T10:54:46.007Z</time></trkpt><trkpt lat="44.0576476" lon="12.1560676"><ele>302.0</ele><time>2026-04-06T10:54:47.011Z</time></trkpt><trkpt lat="44.0575238" lon="12.1561851"><ele>302.0</ele><time>2026-04-06T10:54:48.008Z</time></trkpt><trkpt lat="44.0574082" lon="12.1563052"><ele>302.0</ele><time>2026-04-06T10:54:49.007Z</time></trkpt><trkpt lat="44.057304" lon="12.1564553"><ele>300.33333333333337</ele><time>2026-04-06T10:54:50.009Z</time></trkpt><trkpt lat="44.0572002" lon="12.1566222"><ele>298.6666666666667</ele><time>2026-04-06T10:54:51.007Z</time></trkpt><trkpt lat="44.0570871" lon="12.1568061"><ele>297.0</ele><time>2026-04-06T10:54:52.008Z</time></trkpt><trkpt lat="44.0569763" lon="12.1569974"><ele>297.0</ele><time>2026-04-06T10:54:53.008Z</time></trkpt><trkpt lat="44.0568691" lon="12.157194"><ele>297.0</ele><time>2026-04-06T10:54:54.008Z</time></trkpt><trkpt lat="44.0567722" lon="12.1573866"><ele>297.0</ele><time>2026-04-06T10:54:55.008Z</time></trkpt><trkpt lat="44.0566804" lon="12.1575742"><ele>296.3333333333333</ele><time>2026-04-06T10:54:56.008Z</time></trkpt><trkpt lat="44.0565858" lon="12.1577482"><ele>295.66666666666663</ele><time>2026-04-06T10:54:57.01Z</time></trkpt><trkpt lat="44.0564907" lon="12.1579241"><ele>295.0</ele><time>2026-04-06T10:54:58.009Z</time></trkpt><trkpt lat="44.0563953" lon="12.158101"><ele>294.5</ele><time>2026-04-06T10:54:59.008Z</time></trkpt><trkpt lat="44.0562985" lon="12.1582606"><ele>294.0</ele><time>2026-04-06T10:55:00.009Z</time></trkpt><trkpt lat="44.0562003" lon="12.1584009"><ele>293.5</ele><time>2026-04-06T10:55:01.009Z</time></trkpt><trkpt lat="44.0561016" lon="12.1585216"><ele>293.0</ele><time>2026-04-06T10:55:02.008Z</time></trkpt><trkpt lat="44.0560176" lon="12.1586404"><ele>293.0</ele><time>2026-04-06T10:55:03.007Z</time></trkpt><trkpt lat="44.0559651" lon="12.1587778"><ele>293.0</ele><time>2026-04-06T10:55:04.008Z</time></trkpt><trkpt lat="44.0559376" lon="12.1589323"><ele>293.0</ele><time>2026-04-06T10:55:05.009Z</time></trkpt><trkpt lat="44.0559301" lon="12.1591018"><ele>293.0</ele><time>2026-04-06T10:55:06.008Z</time></trkpt><trkpt lat="44.0559329" lon="12.159281"><ele>292.75</ele><time>2026-04-06T10:55:07.011Z</time></trkpt><trkpt lat="44.055929" lon="12.1594628"><ele>292.5</ele><time>2026-04-06T10:55:08.008Z</time></trkpt><trkpt lat="44.0558977" lon="12.1596434"><ele>292.25</ele><time>2026-04-06T10:55:09.01Z</time></trkpt><trkpt lat="44.0558446" lon="12.1598178"><ele>292.0</ele><time>2026-04-06T10:55:10.007Z</time></trkpt><trkpt lat="44.0557725" lon="12.1599789"><ele>290.25</ele><time>2026-04-06T10:55:11.009Z</time></trkpt><trkpt lat="44.0556876" lon="12.1601324"><ele>288.5</ele><time>2026-04-06T10:55:12.009Z</time></trkpt><trkpt lat="44.0556148" lon="12.1602946"><ele>286.75</ele><time>2026-04-06T10:55:13.008Z</time></trkpt><trkpt lat="44.0555602" lon="12.1604705"><ele>285.0</ele><time>2026-04-06T10:55:14.009Z</time></trkpt><trkpt lat="44.0555313" lon="12.1606594"><ele>288.25</ele><time>2026-04-06T10:55:15.01Z</time></trkpt><trkpt lat="44.0555296" lon="12.1608505"><ele>291.5</ele><time>2026-04-06T10:55:16.008Z</time></trkpt><trkpt lat="44.0555299" lon="12.1610354"><ele>294.75</ele><time>2026-04-06T10:55:17.007Z</time></trkpt><trkpt lat="44.055513" lon="12.1612035"><ele>298.0</ele><time>2026-04-06T10:55:18.007Z</time></trkpt><trkpt lat="44.0554757" lon="12.1613393"><ele>298.0</ele><time>2026-04-06T10:55:19.009Z</time></trkpt><trkpt lat="44.0554207" lon="12.1614352"><ele>298.0</ele><time>2026-04-06T10:55:20.009Z</time></trkpt><trkpt lat="44.0553509" lon="12.1614935"><ele>298.0</ele><time>2026-04-06T10:55:21.007Z</time></trkpt><trkpt lat="44.0552732" lon="12.1615111"><ele>298.0</ele><time>2026-04-06T10:55:22.01Z</time></trkpt><trkpt lat="44.0552069" lon="12.1615054"><ele>298.0</ele><time>2026-04-06T10:55:23.008Z</time></trkpt><trkpt lat="44.0551242" lon="12.161492"><ele>298.0</ele><time>2026-04-06T10:55:25.011Z</time></trkpt><trkpt lat="44.05506" lon="12.1615317"><ele>298.0</ele><time>2026-04-06T10:55:49.006Z</time></trkpt><trkpt lat="44.0550333" lon="12.1614367"><ele>298.0</ele><time>2026-04-06T10:58:31.007Z</time></trkpt><trkpt lat="44.0549683" lon="12.161445"><ele>298.0</ele><time>2026-04-06T10:58:32.008Z</time></trkpt><trkpt lat="44.0548883" lon="12.1614567"><ele>298.0</ele><time>2026-04-06T10:58:33.007Z</time></trkpt><trkpt lat="44.05481" lon="12.1614783"><ele>298.0</ele><time>2026-04-06T10:58:34.007Z</time></trkpt><trkpt lat="44.054735" lon="12.1615133"><ele>298.0</ele><time>2026-04-06T10:58:35.009Z</time></trkpt><trkpt lat="44.0546517" lon="12.16155"><ele>296.5</ele><time>2026-04-06T10:58:36.008Z</time></trkpt><trkpt lat="44.0545683" lon="12.161605"><ele>295.0</ele><time>2026-04-06T10:58:37.012Z</time></trkpt><trkpt lat="44.05449" lon="12.161665"><ele>293.5</ele><time>2026-04-06T10:58:38.006Z</time></trkpt><trkpt lat="44.05442" lon="12.1617167"><ele>292.0</ele><time>2026-04-06T10:58:39.008Z</time></trkpt><trkpt lat="44.05435" lon="12.1617633"><ele>290.5</ele><time>2026-04-06T10:58:40.007Z</time></trkpt><trkpt lat="44.0542833" lon="12.16181"><ele>289.0</ele><time>2026-04-06T10:58:41.007Z</time></trkpt><trkpt lat="44.0542183" lon="12.1618567"><ele>289.0</ele><time>2026-04-06T10:58:42.011Z</time></trkpt><trkpt lat="44.0541533" lon="12.1619067"><ele>289.0</ele><time>2026-04-06T10:58:43.008Z</time></trkpt><trkpt lat="44.0540933" lon="12.161965"><ele>289.0</ele><time>2026-04-06T10:58:44.008Z</time></trkpt><trkpt lat="44.054035" lon="12.1620317"><ele>289.0</ele><time>2026-04-06T10:58:45.006Z</time></trkpt><trkpt lat="44.0539817" lon="12.1621083"><ele>289.0</ele><time>2026-04-06T10:58:46.007Z</time></trkpt><trkpt lat="44.0539317" lon="12.1621983"><ele>289.0</ele><time>2026-04-06T10:58:47.008Z</time></trkpt><trkpt lat="44.0538833" lon="12.1623"><ele>286.8333333333333</ele><time>2026-04-06T10:58:48.007Z</time></trkpt><trkpt lat="44.053845" lon="12.1624033"><ele>284.66666666666663</ele><time>2026-04-06T10:58:49.007Z</time></trkpt><trkpt lat="44.0538083" lon="12.1625083"><ele>282.5</ele><time>2026-04-06T10:58:50.008Z</time></trkpt><trkpt lat="44.05377" lon="12.1626167"><ele>280.3333333333333</ele><time>2026-04-06T10:58:51.008Z</time></trkpt><trkpt lat="44.05372" lon="12.1627183"><ele>278.1666666666667</ele><time>2026-04-06T10:58:52.009Z</time></trkpt><trkpt lat="44.053665" lon="12.1628167"><ele>276.0</ele><time>2026-04-06T10:58:53.006Z</time></trkpt><trkpt lat="44.0536" lon="12.1628983"><ele>276.0</ele><time>2026-04-06T10:58:54.007Z</time></trkpt><trkpt lat="44.0535283" lon="12.1629733"><ele>276.0</ele><time>2026-04-06T10:58:55.007Z</time></trkpt><trkpt lat="44.053455" lon="12.16304"><ele>276.0</ele><time>2026-04-06T10:58:56.007Z</time></trkpt><trkpt lat="44.0533783" lon="12.1630867"><ele>276.0</ele><time>2026-04-06T10:58:57.008Z</time></trkpt><trkpt lat="44.05331" lon="12.1631383"><ele>276.0</ele><time>2026-04-06T10:58:58.009Z</time></trkpt><trkpt lat="44.0532483" lon="12.1631783"><ele>276.0</ele><time>2026-04-06T10:58:59.01Z</time></trkpt><trkpt lat="44.0531333" lon="12.163195"><ele>271.6666666666667</ele><time>2026-04-06T10:59:01.008Z</time></trkpt><trkpt lat="44.053025" lon="12.1631133"><ele>267.3333333333333</ele><time>2026-04-06T10:59:03.009Z</time></trkpt><trkpt lat="44.05299" lon="12.16304"><ele>263.0</ele><time>2026-04-06T10:59:04.006Z</time></trkpt><trkpt lat="44.05298" lon="12.1629383"><ele>258.66666666666663</ele><time>2026-04-06T10:59:05.007Z</time></trkpt><trkpt lat="44.0529567" lon="12.1628033"><ele>254.33333333333331</ele><time>2026-04-06T10:59:07.006Z</time></trkpt><trkpt lat="44.0528883" lon="12.1627467"><ele>250.0</ele><time>2026-04-06T10:59:10.006Z</time></trkpt><trkpt lat="44.0528433" lon="12.1628917"><ele>250.0</ele><time>2026-04-06T10:59:13.007Z</time></trkpt><trkpt lat="44.0528487" lon="12.1630383"><ele>250.0</ele><time>2026-04-06T10:59:15.007Z</time></trkpt><trkpt lat="44.0528569" lon="12.1632029"><ele>250.0</ele><time>2026-04-06T10:59:16.011Z</time></trkpt><trkpt lat="44.0528731" lon="12.163354"><ele>250.0</ele><time>2026-04-06T10:59:17.006Z</time></trkpt><trkpt lat="44.0528993" lon="12.1634863"><ele>250.0</ele><time>2026-04-06T10:59:18.007Z</time></trkpt><trkpt lat="44.0529315" lon="12.1636035"><ele>249.42857142857142</ele><time>2026-04-06T10:59:19.009Z</time></trkpt><trkpt lat="44.0529659" lon="12.16371"><ele>248.8571428571429</ele><time>2026-04-06T10:59:20.008Z</time></trkpt><trkpt lat="44.0530002" lon="12.163805"><ele>248.2857142857143</ele><time>2026-04-06T10:59:21.01Z</time></trkpt><trkpt lat="44.0530293" lon="12.1638902"><ele>247.71428571428572</ele><time>2026-04-06T10:59:22.007Z</time></trkpt><trkpt lat="44.0530484" lon="12.1639793"><ele>247.14285714285717</ele><time>2026-04-06T10:59:23.008Z</time></trkpt><trkpt lat="44.0530574" lon="12.164071"><ele>246.5714285714286</ele><time>2026-04-06T10:59:24.007Z</time></trkpt><trkpt lat="44.0530509" lon="12.1641701"><ele>246.00000000000003</ele><time>2026-04-06T10:59:25.008Z</time></trkpt><trkpt lat="44.0530267" lon="12.1642742"><ele>244.8</ele><time>2026-04-06T10:59:26.007Z</time></trkpt><trkpt lat="44.0529813" lon="12.1643749"><ele>243.60000000000002</ele><time>2026-04-06T10:59:27.007Z</time></trkpt><trkpt lat="44.0529212" lon="12.164482"><ele>242.4</ele><time>2026-04-06T10:59:28.008Z</time></trkpt><trkpt lat="44.0528568" lon="12.1645963"><ele>241.2</ele><time>2026-04-06T10:59:29.007Z</time></trkpt><trkpt lat="44.0527972" lon="12.164714"><ele>240.0</ele><time>2026-04-06T10:59:30.007Z</time></trkpt><trkpt lat="44.052745" lon="12.1648356"><ele>239.5</ele><time>2026-04-06T10:59:31.009Z</time></trkpt><trkpt lat="44.0526958" lon="12.164953"><ele>239.0</ele><time>2026-04-06T10:59:32.008Z</time></trkpt><trkpt lat="44.0526463" lon="12.1650641"><ele>238.5</ele><time>2026-04-06T10:59:33.009Z</time></trkpt><trkpt lat="44.0525948" lon="12.1651584"><ele>238.0</ele><time>2026-04-06T10:59:34.006Z</time></trkpt><trkpt lat="44.0525401" lon="12.1652374"><ele>237.5</ele><time>2026-04-06T10:59:35.01Z</time></trkpt><trkpt lat="44.0524768" lon="12.1653091"><ele>237.0</ele><time>2026-04-06T10:59:36.009Z</time></trkpt><trkpt lat="44.0523974" lon="12.1653763"><ele>234.33333333333334</ele><time>2026-04-06T10:59:37.012Z</time></trkpt><trkpt lat="44.0523113" lon="12.1654322"><ele>231.66666666666669</ele><time>2026-04-06T10:59:38.008Z</time></trkpt><trkpt lat="44.0522315" lon="12.1654902"><ele>229.0</ele><time>2026-04-06T10:59:39.007Z</time></trkpt><trkpt lat="44.0521659" lon="12.1655454"><ele>226.33333333333334</ele><time>2026-04-06T10:59:40.008Z</time></trkpt><trkpt lat="44.052107" lon="12.1655854"><ele>223.66666666666669</ele><time>2026-04-06T10:59:41.007Z</time></trkpt><trkpt lat="44.0520067" lon="12.1655555"><ele>221.0</ele><time>2026-04-06T10:59:43.008Z</time></trkpt><trkpt lat="44.0519415" lon="12.1654546"><ele>221.0</ele><time>2026-04-06T10:59:45.009Z</time></trkpt><trkpt lat="44.0519652" lon="12.1652763"><ele>221.0</ele><time>2026-04-06T10:59:47.007Z</time></trkpt><trkpt lat="44.0520033" lon="12.165162"><ele>221.0</ele><time>2026-04-06T10:59:48.007Z</time></trkpt><trkpt lat="44.0520583" lon="12.1650329"><ele>221.0</ele><time>2026-04-06T10:59:49.007Z</time></trkpt><trkpt lat="44.0521264" lon="12.1648858"><ele>219.8</ele><time>2026-04-06T10:59:50.006Z</time></trkpt><trkpt lat="44.0521796" lon="12.1647375"><ele>218.60000000000002</ele><time>2026-04-06T10:59:51.014Z</time></trkpt><trkpt lat="44.0522202" lon="12.1645876"><ele>217.4</ele><time>2026-04-06T10:59:52.008Z</time></trkpt><trkpt lat="44.0522393" lon="12.1644368"><ele>216.2</ele><time>2026-04-06T10:59:53.008Z</time></trkpt><trkpt lat="44.0522433" lon="12.1642922"><ele>215.0</ele><time>2026-04-06T10:59:54.01Z</time></trkpt><trkpt lat="44.0522297" lon="12.1641503"><ele>215.4</ele><time>2026-04-06T10:59:55.008Z</time></trkpt><trkpt lat="44.0521953" lon="12.1640118"><ele>215.8</ele><time>2026-04-06T10:59:56.009Z</time></trkpt><trkpt lat="44.0521486" lon="12.1638758"><ele>216.2</ele><time>2026-04-06T10:59:57.011Z</time></trkpt><trkpt lat="44.0520786" lon="12.1637517"><ele>216.6</ele><time>2026-04-06T10:59:58.008Z</time></trkpt><trkpt lat="44.0520017" lon="12.1636291"><ele>217.0</ele><time>2026-04-06T10:59:59.008Z</time></trkpt><trkpt lat="44.051941" lon="12.1634955"><ele>217.0</ele><time>2026-04-06T11:00:00.007Z</time></trkpt><trkpt lat="44.0518918" lon="12.1633582"><ele>217.0</ele><time>2026-04-06T11:00:01.009Z</time></trkpt><trkpt lat="44.0518581" lon="12.1632226"><ele>217.0</ele><time>2026-04-06T11:00:02.009Z</time></trkpt><trkpt lat="44.0518286" lon="12.1630874"><ele>217.0</ele><time>2026-04-06T11:00:03.005Z</time></trkpt><trkpt lat="44.0517965" lon="12.1629563"><ele>217.0</ele><time>2026-04-06T11:00:04.008Z</time></trkpt><trkpt lat="44.051779" lon="12.1628107"><ele>217.0</ele><time>2026-04-06T11:00:05.008Z</time></trkpt><trkpt lat="44.0517627" lon="12.1626574"><ele>217.0</ele><time>2026-04-06T11:00:06.006Z</time></trkpt><trkpt lat="44.0517458" lon="12.1624957"><ele>217.0</ele><time>2026-04-06T11:00:07.008Z</time></trkpt><trkpt lat="44.0517304" lon="12.1623326"><ele>217.0</ele><time>2026-04-06T11:00:08.009Z</time></trkpt><trkpt lat="44.0517171" lon="12.1621772"><ele>216.39999999999998</ele><time>2026-04-06T11:00:09.008Z</time></trkpt><trkpt lat="44.0517028" lon="12.1620302"><ele>215.79999999999998</ele><time>2026-04-06T11:00:10.006Z</time></trkpt><trkpt lat="44.0517028" lon="12.1618842"><ele>215.2</ele><time>2026-04-06T11:00:11.006Z</time></trkpt><trkpt lat="44.0517037" lon="12.1617339"><ele>214.6</ele><time>2026-04-06T11:00:12.007Z</time></trkpt><trkpt lat="44.0517027" lon="12.161583"><ele>214.0</ele><time>2026-04-06T11:00:13.009Z</time></trkpt><trkpt lat="44.0516996" lon="12.1614355"><ele>212.79999999999998</ele><time>2026-04-06T11:00:14.008Z</time></trkpt><trkpt lat="44.0517044" lon="12.1612912"><ele>211.59999999999997</ele><time>2026-04-06T11:00:15.008Z</time></trkpt><trkpt lat="44.0516978" lon="12.1611484"><ele>210.4</ele><time>2026-04-06T11:00:16.012Z</time></trkpt><trkpt lat="44.0516968" lon="12.1610058"><ele>209.2</ele><time>2026-04-06T11:00:17.008Z</time></trkpt><trkpt lat="44.0516893" lon="12.1608623"><ele>208.0</ele><time>2026-04-06T11:00:18.009Z</time></trkpt><trkpt lat="44.0516843" lon="12.1607167"><ele>207.60000000000002</ele><time>2026-04-06T11:00:19.012Z</time></trkpt><trkpt lat="44.0516877" lon="12.160565"><ele>207.20000000000002</ele><time>2026-04-06T11:00:20.008Z</time></trkpt><trkpt lat="44.0516962" lon="12.1604098"><ele>206.8</ele><time>2026-04-06T11:00:21.007Z</time></trkpt><trkpt lat="44.0517078" lon="12.1602607"><ele>206.4</ele><time>2026-04-06T11:00:22.008Z</time></trkpt><trkpt lat="44.0517042" lon="12.1601195"><ele>206.0</ele><time>2026-04-06T11:00:23.008Z</time></trkpt><trkpt lat="44.05171" lon="12.1599899"><ele>206.00000000000003</ele><time>2026-04-06T11:00:24.007Z</time></trkpt><trkpt lat="44.0517052" lon="12.1598712"><ele>206.0</ele><time>2026-04-06T11:00:25.008Z</time></trkpt><trkpt lat="44.0517006" lon="12.1597654"><ele>206.0</ele><time>2026-04-06T11:00:26.008Z</time></trkpt><trkpt lat="44.0516854" lon="12.1596754"><ele>206.0</ele><time>2026-04-06T11:00:27.009Z</time></trkpt><trkpt lat="44.0516265" lon="12.159558"><ele>206.00000000000003</ele><time>2026-04-06T11:00:29.006Z</time></trkpt><trkpt lat="44.0515338" lon="12.1595911"><ele>206.0</ele><time>2026-04-06T11:00:31.007Z</time></trkpt><trkpt lat="44.0515063" lon="12.1596781"><ele>202.4</ele><time>2026-04-06T11:00:32.013Z</time></trkpt><trkpt lat="44.0514593" lon="12.1598506"><ele>198.8</ele><time>2026-04-06T11:00:34.008Z</time></trkpt><trkpt lat="44.0514535" lon="12.1599639"><ele>195.20000000000002</ele><time>2026-04-06T11:00:35.009Z</time></trkpt><trkpt lat="44.0514347" lon="12.1600926"><ele>191.60000000000002</ele><time>2026-04-06T11:00:36.01Z</time></trkpt><trkpt lat="44.0514024" lon="12.1602233"><ele>188.0</ele><time>2026-04-06T11:00:37.01Z</time></trkpt><trkpt lat="44.0513276" lon="12.1603725"><ele>188.0</ele><time>2026-04-06T11:00:38.011Z</time></trkpt><trkpt lat="44.0512371" lon="12.1605179"><ele>188.0</ele><time>2026-04-06T11:00:39.01Z</time></trkpt><trkpt lat="44.0511457" lon="12.1606627"><ele>188.0</ele><time>2026-04-06T11:00:40.009Z</time></trkpt><trkpt lat="44.0510508" lon="12.1607946"><ele>188.0</ele><time>2026-04-06T11:00:41.007Z</time></trkpt><trkpt lat="44.0509551" lon="12.1609181"><ele>187.4</ele><time>2026-04-06T11:00:42.007Z</time></trkpt><trkpt lat="44.0508707" lon="12.1610423"><ele>186.8</ele><time>2026-04-06T11:00:43.008Z</time></trkpt><trkpt lat="44.0507802" lon="12.1611405"><ele>186.2</ele><time>2026-04-06T11:00:44.008Z</time></trkpt><trkpt lat="44.050695" lon="12.1612257"><ele>185.6</ele><time>2026-04-06T11:00:45.009Z</time></trkpt><trkpt lat="44.0506076" lon="12.1612952"><ele>185.0</ele><time>2026-04-06T11:00:46.009Z</time></trkpt><trkpt lat="44.0505061" lon="12.1613313"><ele>181.4</ele><time>2026-04-06T11:00:47.01Z</time></trkpt><trkpt lat="44.0503981" lon="12.1613386"><ele>177.8</ele><time>2026-04-06T11:00:48.007Z</time></trkpt><trkpt lat="44.050285" lon="12.1613116"><ele>174.2</ele><time>2026-04-06T11:00:49.009Z</time></trkpt><trkpt lat="44.050177" lon="12.1612764"><ele>170.6</ele><time>2026-04-06T11:00:50.01Z</time></trkpt><trkpt lat="44.0500712" lon="12.1612558"><ele>167.0</ele><time>2026-04-06T11:00:51.01Z</time></trkpt><trkpt lat="44.0499701" lon="12.1612354"><ele>162.6</ele><time>2026-04-06T11:00:52.011Z</time></trkpt><trkpt lat="44.049872" lon="12.1612246"><ele>158.2</ele><time>2026-04-06T11:00:53.009Z</time></trkpt><trkpt lat="44.0497754" lon="12.161227"><ele>153.8</ele><time>2026-04-06T11:00:54.009Z</time></trkpt><trkpt lat="44.0496765" lon="12.1612508"><ele>149.4</ele><time>2026-04-06T11:00:55.01Z</time></trkpt><trkpt lat="44.0495832" lon="12.1612942"><ele>145.0</ele><time>2026-04-06T11:00:56.009Z</time></trkpt><trkpt lat="44.0494893" lon="12.1613245"><ele>145.0</ele><time>2026-04-06T11:00:57.009Z</time></trkpt><trkpt lat="44.0493951" lon="12.1613608"><ele>145.0</ele><time>2026-04-06T11:00:58.007Z</time></trkpt><trkpt lat="44.0493044" lon="12.1613952"><ele>145.0</ele><time>2026-04-06T11:00:59.008Z</time></trkpt><trkpt lat="44.0492209" lon="12.1614241"><ele>145.0</ele><time>2026-04-06T11:01:00.008Z</time></trkpt><trkpt lat="44.0491427" lon="12.1614414"><ele>145.0</ele><time>2026-04-06T11:01:01.01Z</time></trkpt><trkpt lat="44.0490751" lon="12.1614668"><ele>145.0</ele><time>2026-04-06T11:01:02.007Z</time></trkpt><trkpt lat="44.0490153" lon="12.1615188"><ele>143.0</ele><time>2026-04-06T11:01:03.008Z</time></trkpt><trkpt lat="44.0489716" lon="12.1615901"><ele>141.0</ele><time>2026-04-06T11:01:04.008Z</time></trkpt><trkpt lat="44.0489487" lon="12.1616754"><ele>139.0</ele><time>2026-04-06T11:01:05.01Z</time></trkpt><trkpt lat="44.0489413" lon="12.1617668"><ele>137.0</ele><time>2026-04-06T11:01:06.009Z</time></trkpt><trkpt lat="44.048969" lon="12.1618689"><ele>135.0</ele><time>2026-04-06T11:01:07.01Z</time></trkpt><trkpt lat="44.0490099" lon="12.1619768"><ele>133.0</ele><time>2026-04-06T11:01:08.009Z</time></trkpt><trkpt lat="44.0490643" lon="12.1620965"><ele>137.20000000000002</ele><time>2026-04-06T11:01:09.01Z</time></trkpt><trkpt lat="44.0491318" lon="12.1622132"><ele>141.4</ele><time>2026-04-06T11:01:10.013Z</time></trkpt><trkpt lat="44.0492021" lon="12.1623183"><ele>145.60000000000002</ele><time>2026-04-06T11:01:11.008Z</time></trkpt><trkpt lat="44.0492667" lon="12.1624153"><ele>149.8</ele><time>2026-04-06T11:01:12.008Z</time></trkpt><trkpt lat="44.0493248" lon="12.1625064"><ele>154.0</ele><time>2026-04-06T11:01:13.01Z</time></trkpt><trkpt lat="44.0493745" lon="12.1625888"><ele>154.0</ele><time>2026-04-06T11:01:14.009Z</time></trkpt><trkpt lat="44.0494047" lon="12.1626753"><ele>154.0</ele><time>2026-04-06T11:01:15.009Z</time></trkpt><trkpt lat="44.0494032" lon="12.1628295"><ele>154.0</ele><time>2026-04-06T11:01:17.008Z</time></trkpt><trkpt lat="44.0492726" lon="12.1629504"><ele>154.0</ele><time>2026-04-06T11:01:19.008Z</time></trkpt><trkpt lat="44.0491528" lon="12.1629916"><ele>147.66666666666669</ele><time>2026-04-06T11:01:20.009Z</time></trkpt><trkpt lat="44.0490138" lon="12.1630282"><ele>141.33333333333334</ele><time>2026-04-06T11:01:21.01Z</time></trkpt><trkpt lat="44.0488607" lon="12.1630867"><ele>135.0</ele><time>2026-04-06T11:01:22.01Z</time></trkpt><trkpt lat="44.0486978" lon="12.1631551"><ele>135.0</ele><time>2026-04-06T11:01:23.009Z</time></trkpt><trkpt lat="44.0485407" lon="12.1632239"><ele>135.0</ele><time>2026-04-06T11:01:24.01Z</time></trkpt><trkpt lat="44.0483963" lon="12.163291"><ele>135.0</ele><time>2026-04-06T11:01:25.007Z</time></trkpt><trkpt lat="44.0482592" lon="12.1633573"><ele>131.25</ele><time>2026-04-06T11:01:26.008Z</time></trkpt><trkpt lat="44.0481317" lon="12.163429"><ele>127.5</ele><time>2026-04-06T11:01:27.008Z</time></trkpt><trkpt lat="44.0480142" lon="12.1635086"><ele>123.75</ele><time>2026-04-06T11:01:28.007Z</time></trkpt><trkpt lat="44.0479107" lon="12.1635955"><ele>120.0</ele><time>2026-04-06T11:01:29.01Z</time></trkpt><trkpt lat="44.047818" lon="12.1636897"><ele>120.0</ele><time>2026-04-06T11:01:30.009Z</time></trkpt><trkpt lat="44.047733" lon="12.1637912"><ele>120.0</ele><time>2026-04-06T11:01:31.011Z</time></trkpt><trkpt lat="44.0476541" lon="12.1638953"><ele>120.0</ele><time>2026-04-06T11:01:32.01Z</time></trkpt><trkpt lat="44.0475745" lon="12.1640037"><ele>120.0</ele><time>2026-04-06T11:01:33.01Z</time></trkpt><trkpt lat="44.0474858" lon="12.1641123"><ele>117.25</ele><time>2026-04-06T11:01:34.009Z</time></trkpt><trkpt lat="44.0473993" lon="12.1642409"><ele>114.5</ele><time>2026-04-06T11:01:35.008Z</time></trkpt><trkpt lat="44.0473036" lon="12.1643828"><ele>111.75</ele><time>2026-04-06T11:01:36.008Z</time></trkpt><trkpt lat="44.0471959" lon="12.164528"><ele>109.0</ele><time>2026-04-06T11:01:37.013Z</time></trkpt><trkpt lat="44.0470827" lon="12.164663"><ele>109.0</ele><time>2026-04-06T11:01:38.008Z</time></trkpt><trkpt lat="44.0469746" lon="12.1647944"><ele>109.0</ele><time>2026-04-06T11:01:39.01Z</time></trkpt><trkpt lat="44.0468753" lon="12.1649273"><ele>109.0</ele><time>2026-04-06T11:01:40.008Z</time></trkpt><trkpt lat="44.0467784" lon="12.1650643"><ele>109.0</ele><time>2026-04-06T11:01:41.007Z</time></trkpt><trkpt lat="44.0466823" lon="12.1652122"><ele>104.0</ele><time>2026-04-06T11:01:42.009Z</time></trkpt><trkpt lat="44.046575" lon="12.1653662"><ele>99.0</ele><time>2026-04-06T11:01:43.008Z</time></trkpt><trkpt lat="44.0464644" lon="12.1655186"><ele>94.0</ele><time>2026-04-06T11:01:44.012Z</time></trkpt><trkpt lat="44.0463542" lon="12.1656692"><ele>95.0</ele><time>2026-04-06T11:01:45.008Z</time></trkpt><trkpt lat="44.046241" lon="12.1658107"><ele>96.0</ele><time>2026-04-06T11:01:46.009Z</time></trkpt><trkpt lat="44.0461205" lon="12.1659382"><ele>97.0</ele><time>2026-04-06T11:01:47.007Z</time></trkpt><trkpt lat="44.0459912" lon="12.1660418"><ele>97.0</ele><time>2026-04-06T11:01:48.007Z</time></trkpt><trkpt lat="44.0458545" lon="12.1661225"><ele>97.0</ele><time>2026-04-06T11:01:49.011Z</time></trkpt><trkpt lat="44.0457163" lon="12.1661735"><ele>97.0</ele><time>2026-04-06T11:01:50.007Z</time></trkpt><trkpt lat="44.0455849" lon="12.1661952"><ele>97.0</ele><time>2026-04-06T11:01:51.008Z</time></trkpt><trkpt lat="44.0454727" lon="12.1662063"><ele>95.57142857142857</ele><time>2026-04-06T11:01:52.008Z</time></trkpt><trkpt lat="44.0453865" lon="12.1662093"><ele>94.14285714285715</ele><time>2026-04-06T11:01:53.009Z</time></trkpt><trkpt lat="44.0453138" lon="12.1662282"><ele>92.71428571428572</ele><time>2026-04-06T11:01:54.01Z</time></trkpt><trkpt lat="44.0452541" lon="12.1662779"><ele>91.28571428571428</ele><time>2026-04-06T11:01:55.009Z</time></trkpt><trkpt lat="44.0451975" lon="12.1663293"><ele>89.85714285714286</ele><time>2026-04-06T11:01:56.006Z</time></trkpt><trkpt lat="44.0451666" lon="12.1664123"><ele>88.42857142857143</ele><time>2026-04-06T11:01:57.007Z</time></trkpt><trkpt lat="44.0451618" lon="12.1665272"><ele>87.0</ele><time>2026-04-06T11:01:58.007Z</time></trkpt><trkpt lat="44.0451763" lon="12.166684"><ele>86.8</ele><time>2026-04-06T11:01:59.006Z</time></trkpt><trkpt lat="44.0452076" lon="12.1668482"><ele>86.6</ele><time>2026-04-06T11:02:00.007Z</time></trkpt><trkpt lat="44.0452537" lon="12.166991"><ele>86.39999999999999</ele><time>2026-04-06T11:02:01.008Z</time></trkpt><trkpt lat="44.0453088" lon="12.1671045"><ele>86.19999999999999</ele><time>2026-04-06T11:02:02.007Z</time></trkpt><trkpt lat="44.0453658" lon="12.1671652"><ele>86.0</ele><time>2026-04-06T11:02:03.006Z</time></trkpt><trkpt lat="44.0454423" lon="12.1671991"><ele>86.0</ele><time>2026-04-06T11:02:05.006Z</time></trkpt><trkpt lat="44.0455207" lon="12.1672167"><ele>86.0</ele><time>2026-04-06T11:02:09.007Z</time></trkpt><trkpt lat="44.0456198" lon="12.1672965"><ele>86.0</ele><time>2026-04-06T11:02:11.008Z</time></trkpt><trkpt lat="44.0456997" lon="12.1673423"><ele>86.0</ele><time>2026-04-06T11:02:12.008Z</time></trkpt><trkpt lat="44.0458056" lon="12.1673869"><ele>86.0</ele><time>2026-04-06T11:02:13.007Z</time></trkpt><trkpt lat="44.045944" lon="12.1674141"><ele>84.0</ele><time>2026-04-06T11:02:14.007Z</time></trkpt><trkpt lat="44.0460991" lon="12.16744"><ele>82.0</ele><time>2026-04-06T11:02:15.007Z</time></trkpt><trkpt lat="44.0462558" lon="12.1674677"><ele>80.0</ele><time>2026-04-06T11:02:16.01Z</time></trkpt><trkpt lat="44.0464173" lon="12.1675018"><ele>80.0</ele><time>2026-04-06T11:02:17.008Z</time></trkpt><trkpt lat="44.0465733" lon="12.1675528"><ele>80.0</ele><time>2026-04-06T11:02:18.007Z</time></trkpt><trkpt lat="44.0467264" lon="12.1676286"><ele>80.0</ele><time>2026-04-06T11:02:19.009Z</time></trkpt><trkpt lat="44.0468738" lon="12.1677462"><ele>79.0</ele><time>2026-04-06T11:02:20.008Z</time></trkpt><trkpt lat="44.0470158" lon="12.167904"><ele>78.0</ele><time>2026-04-06T11:02:21.007Z</time></trkpt><trkpt lat="44.0471549" lon="12.1680908"><ele>77.0</ele><time>2026-04-06T11:02:22.008Z</time></trkpt><trkpt lat="44.0472889" lon="12.1682937"><ele>77.0</ele><time>2026-04-06T11:02:23.008Z</time></trkpt><trkpt lat="44.0474246" lon="12.1685115"><ele>77.0</ele><time>2026-04-06T11:02:24.007Z</time></trkpt><trkpt lat="44.0475433" lon="12.1687576"><ele>77.0</ele><time>2026-04-06T11:02:25.011Z</time></trkpt><trkpt lat="44.0476463" lon="12.1690155"><ele>77.66666666666667</ele><time>2026-04-06T11:02:26.006Z</time></trkpt><trkpt lat="44.047736" lon="12.1692787"><ele>78.33333333333333</ele><time>2026-04-06T11:02:27.008Z</time></trkpt><trkpt lat="44.0478201" lon="12.1695391"><ele>79.0</ele><time>2026-04-06T11:02:28.008Z</time></trkpt><trkpt lat="44.0479092" lon="12.1697956"><ele>78.0</ele><time>2026-04-06T11:02:29.008Z</time></trkpt><trkpt lat="44.0480101" lon="12.170045"><ele>77.0</ele><time>2026-04-06T11:02:30.006Z</time></trkpt><trkpt lat="44.0481094" lon="12.1702917"><ele>76.0</ele><time>2026-04-06T11:02:31.007Z</time></trkpt><trkpt lat="44.0482008" lon="12.1705457"><ele>75.66666666666666</ele><time>2026-04-06T11:02:32.008Z</time></trkpt><trkpt lat="44.0482793" lon="12.1708067"><ele>75.33333333333333</ele><time>2026-04-06T11:02:33.01Z</time></trkpt><trkpt lat="44.0483431" lon="12.1710596"><ele>75.0</ele><time>2026-04-06T11:02:34.008Z</time></trkpt><trkpt lat="44.0483842" lon="12.1713028"><ele>76.66666666666667</ele><time>2026-04-06T11:02:35.007Z</time></trkpt><trkpt lat="44.0484112" lon="12.171537"><ele>78.33333333333334</ele><time>2026-04-06T11:02:36.007Z</time></trkpt><trkpt lat="44.0484356" lon="12.1717652"><ele>80.0</ele><time>2026-04-06T11:02:37.008Z</time></trkpt><trkpt lat="44.0484666" lon="12.171985"><ele>80.0</ele><time>2026-04-06T11:02:38.008Z</time></trkpt><trkpt lat="44.0485185" lon="12.1721911"><ele>80.0</ele><time>2026-04-06T11:02:39.008Z</time></trkpt><trkpt lat="44.0485874" lon="12.1723788"><ele>80.0</ele><time>2026-04-06T11:02:40.008Z</time></trkpt><trkpt lat="44.0486792" lon="12.172542"><ele>80.0</ele><time>2026-04-06T11:02:41.006Z</time></trkpt><trkpt lat="44.0487924" lon="12.1726803"><ele>80.0</ele><time>2026-04-06T11:02:42.007Z</time></trkpt><trkpt lat="44.0489152" lon="12.1728034"><ele>80.0</ele><time>2026-04-06T11:02:43.006Z</time></trkpt><trkpt lat="44.0490355" lon="12.1729226"><ele>79.75</ele><time>2026-04-06T11:02:44.008Z</time></trkpt><trkpt lat="44.0491534" lon="12.1730338"><ele>79.5</ele><time>2026-04-06T11:02:45.008Z</time></trkpt><trkpt lat="44.0492659" lon="12.1731361"><ele>79.25</ele><time>2026-04-06T11:02:46.007Z</time></trkpt><trkpt lat="44.0493742" lon="12.1732295"><ele>79.0</ele><time>2026-04-06T11:02:47.006Z</time></trkpt><trkpt lat="44.0494806" lon="12.1733157"><ele>79.0</ele><time>2026-04-06T11:02:48.008Z</time></trkpt><trkpt lat="44.0495894" lon="12.1733908"><ele>79.0</ele><time>2026-04-06T11:02:49.006Z</time></trkpt><trkpt lat="44.0496995" lon="12.17346"><ele>79.0</ele><time>2026-04-06T11:02:50.011Z</time></trkpt><trkpt lat="44.0498168" lon="12.1735211"><ele>79.0</ele><time>2026-04-06T11:02:51.01Z</time></trkpt><trkpt lat="44.0499456" lon="12.1735712"><ele>78.66666666666666</ele><time>2026-04-06T11:02:52.006Z</time></trkpt><trkpt lat="44.0500876" lon="12.1736078"><ele>78.33333333333333</ele><time>2026-04-06T11:02:53.008Z</time></trkpt><trkpt lat="44.0502425" lon="12.1736398"><ele>78.0</ele><time>2026-04-06T11:02:54.008Z</time></trkpt><trkpt lat="44.0504002" lon="12.1736774"><ele>78.0</ele><time>2026-04-06T11:02:55.008Z</time></trkpt><trkpt lat="44.0505532" lon="12.1737265"><ele>78.0</ele><time>2026-04-06T11:02:56.007Z</time></trkpt><trkpt lat="44.0506968" lon="12.1737969"><ele>78.0</ele><time>2026-04-06T11:02:57.008Z</time></trkpt><trkpt lat="44.0508233" lon="12.1739108"><ele>76.66666666666667</ele><time>2026-04-06T11:02:58.007Z</time></trkpt><trkpt lat="44.0509393" lon="12.1740629"><ele>75.33333333333334</ele><time>2026-04-06T11:02:59.007Z</time></trkpt><trkpt lat="44.0510452" lon="12.1742392"><ele>74.0</ele><time>2026-04-06T11:03:00.007Z</time></trkpt><trkpt lat="44.0511458" lon="12.1744258"><ele>74.0</ele><time>2026-04-06T11:03:01.007Z</time></trkpt><trkpt lat="44.0512389" lon="12.1746079"><ele>74.0</ele><time>2026-04-06T11:03:02.008Z</time></trkpt><trkpt lat="44.0513232" lon="12.1747762"><ele>74.0</ele><time>2026-04-06T11:03:03.01Z</time></trkpt><trkpt lat="44.0514063" lon="12.1749264"><ele>74.0</ele><time>2026-04-06T11:03:04.008Z</time></trkpt><trkpt lat="44.051485" lon="12.1750717"><ele>73.8</ele><time>2026-04-06T11:03:05.009Z</time></trkpt><trkpt lat="44.0515611" lon="12.1752078"><ele>73.60000000000001</ele><time>2026-04-06T11:03:06.01Z</time></trkpt><trkpt lat="44.0516275" lon="12.1753342"><ele>73.4</ele><time>2026-04-06T11:03:07.007Z</time></trkpt><trkpt lat="44.0516763" lon="12.1754575"><ele>73.2</ele><time>2026-04-06T11:03:08.007Z</time></trkpt><trkpt lat="44.0517022" lon="12.1755749"><ele>73.0</ele><time>2026-04-06T11:03:09.008Z</time></trkpt><trkpt lat="44.0517157" lon="12.1756792"><ele>72.8</ele><time>2026-04-06T11:03:10.009Z</time></trkpt><trkpt lat="44.0516998" lon="12.1758315"><ele>72.6</ele><time>2026-04-06T11:03:12.008Z</time></trkpt><trkpt lat="44.051689" lon="12.1759263"><ele>72.4</ele><time>2026-04-06T11:03:14.007Z</time></trkpt><trkpt lat="44.0517882" lon="12.1758905"><ele>72.2</ele><time>2026-04-06T11:03:17.009Z</time></trkpt><trkpt lat="44.0517918" lon="12.1757794"><ele>72.0</ele><time>2026-04-06T11:03:19.008Z</time></trkpt><trkpt lat="44.0516855" lon="12.1757863"><ele>71.8</ele><time>2026-04-06T11:03:21.01Z</time></trkpt><trkpt lat="44.0516017" lon="12.175819"><ele>71.6</ele><time>2026-04-06T11:03:22.01Z</time></trkpt><trkpt lat="44.0514974" lon="12.1758737"><ele>71.39999999999999</ele><time>2026-04-06T11:03:23.007Z</time></trkpt><trkpt lat="44.0513962" lon="12.1759494"><ele>71.2</ele><time>2026-04-06T11:03:24.008Z</time></trkpt><trkpt lat="44.0513089" lon="12.1760371"><ele>71.0</ele><time>2026-04-06T11:03:25.008Z</time></trkpt><trkpt lat="44.0512413" lon="12.1761182"><ele>71.0</ele><time>2026-04-06T11:03:26.009Z</time></trkpt><trkpt lat="44.0511799" lon="12.1761819"><ele>71.0</ele><time>2026-04-06T11:03:27.011Z</time></trkpt><trkpt lat="44.0510797" lon="12.1762357"><ele>71.0</ele><time>2026-04-06T11:03:29.009Z</time></trkpt><trkpt lat="44.0510234" lon="12.1762809"><ele>71.0</ele><time>2026-04-06T11:03:31.009Z</time></trkpt><trkpt lat="44.0510117" lon="12.1763717"><ele>71.0</ele><time>2026-04-06T11:06:12.01Z</time></trkpt><trkpt lat="44.0509883" lon="12.1764983"><ele>71.0</ele><time>2026-04-06T11:06:14.009Z</time></trkpt><trkpt lat="44.0509417" lon="12.176625"><ele>70.75</ele><time>2026-04-06T11:06:15.008Z</time></trkpt><trkpt lat="44.0508917" lon="12.1767817"><ele>70.5</ele><time>2026-04-06T11:06:16.007Z</time></trkpt><trkpt lat="44.050845" lon="12.1769433"><ele>70.25</ele><time>2026-04-06T11:06:17.009Z</time></trkpt><trkpt lat="44.05078" lon="12.1771033"><ele>70.0</ele><time>2026-04-06T11:06:18.007Z</time></trkpt><trkpt lat="44.05071" lon="12.1772383"><ele>70.0</ele><time>2026-04-06T11:06:19.008Z</time></trkpt><trkpt lat="44.050615" lon="12.1773467"><ele>70.0</ele><time>2026-04-06T11:06:20.008Z</time></trkpt><trkpt lat="44.0505167" lon="12.17743"><ele>70.0</ele><time>2026-04-06T11:06:21.009Z</time></trkpt><trkpt lat="44.05042" lon="12.1774833"><ele>70.0</ele><time>2026-04-06T11:06:22.008Z</time></trkpt><trkpt lat="44.0503273" lon="12.1775439"><ele>70.0</ele><time>2026-04-06T11:06:23.007Z</time></trkpt><trkpt lat="44.0502388" lon="12.1776046"><ele>70.8</ele><time>2026-04-06T11:06:24.009Z</time></trkpt><trkpt lat="44.0501603" lon="12.1776505"><ele>71.6</ele><time>2026-04-06T11:06:25.008Z</time></trkpt><trkpt lat="44.0500817" lon="12.1776952"><ele>72.4</ele><time>2026-04-06T11:06:26.008Z</time></trkpt><trkpt lat="44.0499906" lon="12.1777598"><ele>73.2</ele><time>2026-04-06T11:06:27.007Z</time></trkpt><trkpt lat="44.0498915" lon="12.1778164"><ele>74.0</ele><time>2026-04-06T11:06:28.013Z</time></trkpt><trkpt lat="44.0497891" lon="12.1778623"><ele>74.25</ele><time>2026-04-06T11:06:29.009Z</time></trkpt><trkpt lat="44.0496798" lon="12.1779046"><ele>74.5</ele><time>2026-04-06T11:06:30.01Z</time></trkpt><trkpt lat="44.0495662" lon="12.1779554"><ele>74.75</ele><time>2026-04-06T11:06:31.008Z</time></trkpt><trkpt lat="44.0494451" lon="12.1780039"><ele>75.0</ele><time>2026-04-06T11:06:32.009Z</time></trkpt><trkpt lat="44.0493201" lon="12.1780529"><ele>75.0</ele><time>2026-04-06T11:06:33.008Z</time></trkpt><trkpt lat="44.0491973" lon="12.1781078"><ele>75.0</ele><time>2026-04-06T11:06:34.008Z</time></trkpt><trkpt lat="44.0490765" lon="12.1781635"><ele>75.0</ele><time>2026-04-06T11:06:35.008Z</time></trkpt><trkpt lat="44.0489581" lon="12.1782168"><ele>75.0</ele><time>2026-04-06T11:06:36.007Z</time></trkpt><trkpt lat="44.0488379" lon="12.1782732"><ele>76.25</ele><time>2026-04-06T11:06:37.008Z</time></trkpt><trkpt lat="44.0487204" lon="12.1783247"><ele>77.5</ele><time>2026-04-06T11:06:38.007Z</time></trkpt><trkpt lat="44.0486045" lon="12.1783777"><ele>78.75</ele><time>2026-04-06T11:06:39.008Z</time></trkpt><trkpt lat="44.048487" lon="12.1784383"><ele>80.0</ele><time>2026-04-06T11:06:40.009Z</time></trkpt><trkpt lat="44.0483636" lon="12.1785029"><ele>81.33333333333334</ele><time>2026-04-06T11:06:41.007Z</time></trkpt><trkpt lat="44.0482275" lon="12.1785818"><ele>82.66666666666667</ele><time>2026-04-06T11:06:42.007Z</time></trkpt><trkpt lat="44.0480719" lon="12.1786744"><ele>84.0</ele><time>2026-04-06T11:06:43.014Z</time></trkpt><trkpt lat="44.047913" lon="12.1787685"><ele>84.0</ele><time>2026-04-06T11:06:44.007Z</time></trkpt><trkpt lat="44.0477579" lon="12.1788552"><ele>84.0</ele><time>2026-04-06T11:06:45.009Z</time></trkpt><trkpt lat="44.0476133" lon="12.1789047"><ele>84.0</ele><time>2026-04-06T11:06:46.007Z</time></trkpt><trkpt lat="44.0474763" lon="12.1789176"><ele>88.25</ele><time>2026-04-06T11:06:47.006Z</time></trkpt><trkpt lat="44.0473518" lon="12.1788925"><ele>92.5</ele><time>2026-04-06T11:06:48.008Z</time></trkpt><trkpt lat="44.0472452" lon="12.1788177"><ele>96.75</ele><time>2026-04-06T11:06:49.007Z</time></trkpt><trkpt lat="44.0471669" lon="12.1786996"><ele>101.0</ele><time>2026-04-06T11:06:50.006Z</time></trkpt><trkpt lat="44.0471132" lon="12.1785585"><ele>101.0</ele><time>2026-04-06T11:06:51.007Z</time></trkpt><trkpt lat="44.0470726" lon="12.1784304"><ele>101.0</ele><time>2026-04-06T11:06:52.006Z</time></trkpt><trkpt lat="44.0470231" lon="12.1783431"><ele>101.0</ele><time>2026-04-06T11:06:53.007Z</time></trkpt><trkpt lat="44.046971" lon="12.1782921"><ele>101.0</ele><time>2026-04-06T11:06:54.013Z</time></trkpt><trkpt lat="44.0468703" lon="12.1783785"><ele>101.0</ele><time>2026-04-06T11:06:56.007Z</time></trkpt><trkpt lat="44.0468569" lon="12.1785439"><ele>101.0</ele><time>2026-04-06T11:06:57.008Z</time></trkpt><trkpt lat="44.0468364" lon="12.1787117"><ele>101.0</ele><time>2026-04-06T11:06:58.008Z</time></trkpt><trkpt lat="44.0468152" lon="12.1788885"><ele>101.0</ele><time>2026-04-06T11:06:59.006Z</time></trkpt><trkpt lat="44.0468143" lon="12.1790734"><ele>101.0</ele><time>2026-04-06T11:07:00.009Z</time></trkpt><trkpt lat="44.0468079" lon="12.1792354"><ele>100.66666666666666</ele><time>2026-04-06T11:07:01.008Z</time></trkpt><trkpt lat="44.0467825" lon="12.1793615"><ele>100.33333333333333</ele><time>2026-04-06T11:07:02.008Z</time></trkpt><trkpt lat="44.0467381" lon="12.1794614"><ele>100.0</ele><time>2026-04-06T11:07:03.008Z</time></trkpt><trkpt lat="44.0466878" lon="12.1795516"><ele>99.66666666666666</ele><time>2026-04-06T11:07:04.008Z</time></trkpt><trkpt lat="44.0466336" lon="12.1796339"><ele>99.33333333333333</ele><time>2026-04-06T11:07:05.009Z</time></trkpt><trkpt lat="44.0465804" lon="12.1796949"><ele>99.0</ele><time>2026-04-06T11:07:06.011Z</time></trkpt><trkpt lat="44.0464993" lon="12.179727"><ele>100.4</ele><time>2026-04-06T11:07:08.007Z</time></trkpt><trkpt lat="44.0464818" lon="12.1796101"><ele>101.80000000000001</ele><time>2026-04-06T11:07:10.006Z</time></trkpt><trkpt lat="44.046489" lon="12.1795137"><ele>103.19999999999999</ele><time>2026-04-06T11:07:11.009Z</time></trkpt><trkpt lat="44.0464902" lon="12.1794113"><ele>104.6</ele><time>2026-04-06T11:07:12.008Z</time></trkpt><trkpt lat="44.0465008" lon="12.179278"><ele>106.0</ele><time>2026-04-06T11:07:13.008Z</time></trkpt><trkpt lat="44.0465128" lon="12.1791009"><ele>110.0</ele><time>2026-04-06T11:07:14.008Z</time></trkpt><trkpt lat="44.0465005" lon="12.1788857"><ele>114.0</ele><time>2026-04-06T11:07:15.008Z</time></trkpt><trkpt lat="44.0464636" lon="12.1786637"><ele>118.0</ele><time>2026-04-06T11:07:16.01Z</time></trkpt><trkpt lat="44.0464302" lon="12.1784647"><ele>118.0</ele><time>2026-04-06T11:07:17.009Z</time></trkpt><trkpt lat="44.0464092" lon="12.1783034"><ele>118.00000000000001</ele><time>2026-04-06T11:07:18.008Z</time></trkpt><trkpt lat="44.0463854" lon="12.1781828"><ele>118.00000000000001</ele><time>2026-04-06T11:07:19.008Z</time></trkpt><trkpt lat="44.0463498" lon="12.1781005"><ele>118.0</ele><time>2026-04-06T11:07:20.009Z</time></trkpt><trkpt lat="44.0462412" lon="12.1780672"><ele>118.0</ele><time>2026-04-06T11:07:22.008Z</time></trkpt><trkpt lat="44.0461786" lon="12.1781563"><ele>118.0</ele><time>2026-04-06T11:07:23.009Z</time></trkpt><trkpt lat="44.0461152" lon="12.178234"><ele>118.00000000000001</ele><time>2026-04-06T11:07:24.009Z</time></trkpt><trkpt lat="44.0460017" lon="12.1782486"><ele>118.00000000000001</ele><time>2026-04-06T11:07:26.01Z</time></trkpt><trkpt lat="44.045946" lon="12.1781068"><ele>118.0</ele><time>2026-04-06T11:07:28.009Z</time></trkpt><trkpt lat="44.0459385" lon="12.1779703"><ele>118.0</ele><time>2026-04-06T11:07:29.008Z</time></trkpt><trkpt lat="44.0459299" lon="12.1778009"><ele>120.0</ele><time>2026-04-06T11:07:30.01Z</time></trkpt><trkpt lat="44.0459477" lon="12.1775994"><ele>122.0</ele><time>2026-04-06T11:07:31.008Z</time></trkpt><trkpt lat="44.0459667" lon="12.1773992"><ele>124.0</ele><time>2026-04-06T11:07:32.008Z</time></trkpt><trkpt lat="44.0459694" lon="12.1772082"><ele>126.0</ele><time>2026-04-06T11:07:33.01Z</time></trkpt><trkpt lat="44.0459484" lon="12.177029"><ele>126.4</ele><time>2026-04-06T11:07:34.007Z</time></trkpt><trkpt lat="44.0459085" lon="12.1768712"><ele>126.8</ele><time>2026-04-06T11:07:35.008Z</time></trkpt><trkpt lat="44.0458703" lon="12.1767521"><ele>127.20000000000002</ele><time>2026-04-06T11:07:36.007Z</time></trkpt><trkpt lat="44.0458311" lon="12.1766663"><ele>127.60000000000001</ele><time>2026-04-06T11:07:37.008Z</time></trkpt><trkpt lat="44.0457495" lon="12.1765978"><ele>128.0</ele><time>2026-04-06T11:07:39.01Z</time></trkpt><trkpt lat="44.0457491" lon="12.1768017"><ele>131.20000000000002</ele><time>2026-04-06T11:07:41.008Z</time></trkpt><trkpt lat="44.0457763" lon="12.1769319"><ele>134.4</ele><time>2026-04-06T11:07:42.011Z</time></trkpt><trkpt lat="44.0457711" lon="12.177065"><ele>137.60000000000002</ele><time>2026-04-06T11:07:43.009Z</time></trkpt><trkpt lat="44.0457515" lon="12.1771915"><ele>140.8</ele><time>2026-04-06T11:07:44.007Z</time></trkpt><trkpt lat="44.0457135" lon="12.1773007"><ele>144.0</ele><time>2026-04-06T11:07:45.007Z</time></trkpt><trkpt lat="44.0456465" lon="12.177404"><ele>144.0</ele><time>2026-04-06T11:07:46.007Z</time></trkpt><trkpt lat="44.0455503" lon="12.1774818"><ele>144.0</ele><time>2026-04-06T11:07:47.008Z</time></trkpt><trkpt lat="44.0454424" lon="12.1775477"><ele>144.0</ele><time>2026-04-06T11:07:48.008Z</time></trkpt><trkpt lat="44.0453048" lon="12.1775864"><ele>144.0</ele><time>2026-04-06T11:07:49.013Z</time></trkpt><trkpt lat="44.0451551" lon="12.177585"><ele>144.0</ele><time>2026-04-06T11:07:50.007Z</time></trkpt><trkpt lat="44.045002" lon="12.1775553"><ele>144.0</ele><time>2026-04-06T11:07:51.009Z</time></trkpt><trkpt lat="44.0448623" lon="12.1775276"><ele>144.0</ele><time>2026-04-06T11:07:52.008Z</time></trkpt><trkpt lat="44.0447348" lon="12.1775087"><ele>144.0</ele><time>2026-04-06T11:07:53.009Z</time></trkpt><trkpt lat="44.0446371" lon="12.1774777"><ele>143.83333333333334</ele><time>2026-04-06T11:07:54.008Z</time></trkpt><trkpt lat="44.044581" lon="12.1774158"><ele>143.66666666666666</ele><time>2026-04-06T11:07:55.007Z</time></trkpt><trkpt lat="44.0445923" lon="12.1772695"><ele>143.5</ele><time>2026-04-06T11:07:57.008Z</time></trkpt><trkpt lat="44.0446453" lon="12.1772159"><ele>143.33333333333331</ele><time>2026-04-06T11:07:58.011Z</time></trkpt><trkpt lat="44.0447192" lon="12.1771927"><ele>143.16666666666666</ele><time>2026-04-06T11:07:59.01Z</time></trkpt><trkpt lat="44.0448172" lon="12.1771953"><ele>143.0</ele><time>2026-04-06T11:08:00.01Z</time></trkpt><trkpt lat="44.0449341" lon="12.1772078"><ele>146.60000000000002</ele><time>2026-04-06T11:08:01.008Z</time></trkpt><trkpt lat="44.0450506" lon="12.1772084"><ele>150.20000000000002</ele><time>2026-04-06T11:08:02.008Z</time></trkpt><trkpt lat="44.045154" lon="12.1771747"><ele>153.8</ele><time>2026-04-06T11:08:03.011Z</time></trkpt><trkpt lat="44.0452378" lon="12.1771099"><ele>157.4</ele><time>2026-04-06T11:08:04.009Z</time></trkpt><trkpt lat="44.0453042" lon="12.1770144"><ele>161.0</ele><time>2026-04-06T11:08:05.008Z</time></trkpt><trkpt lat="44.0453464" lon="12.1768914"><ele>161.0</ele><time>2026-04-06T11:08:06.01Z</time></trkpt><trkpt lat="44.0453607" lon="12.1767538"><ele>161.0</ele><time>2026-04-06T11:08:07.008Z</time></trkpt><trkpt lat="44.0453485" lon="12.1766175"><ele>161.0</ele><time>2026-04-06T11:08:08.008Z</time></trkpt><trkpt lat="44.0453081" lon="12.1764784"><ele>161.0</ele><time>2026-04-06T11:08:09.009Z</time></trkpt><trkpt lat="44.0452436" lon="12.1763418"><ele>161.0</ele><time>2026-04-06T11:08:10.007Z</time></trkpt><trkpt lat="44.0451694" lon="12.1762142"><ele>162.25</ele><time>2026-04-06T11:08:11.008Z</time></trkpt><trkpt lat="44.0450793" lon="12.1761123"><ele>163.5</ele><time>2026-04-06T11:08:12.009Z</time></trkpt><trkpt lat="44.0449758" lon="12.1760328"><ele>164.75</ele><time>2026-04-06T11:08:13.01Z</time></trkpt><trkpt lat="44.0448586" lon="12.1759743"><ele>166.0</ele><time>2026-04-06T11:08:14.01Z</time></trkpt><trkpt lat="44.0447368" lon="12.1759307"><ele>166.0</ele><time>2026-04-06T11:08:15.012Z</time></trkpt><trkpt lat="44.0446148" lon="12.1758932"><ele>166.0</ele><time>2026-04-06T11:08:16.007Z</time></trkpt><trkpt lat="44.0444883" lon="12.1758469"><ele>166.0</ele><time>2026-04-06T11:08:17.008Z</time></trkpt><trkpt lat="44.044366" lon="12.175783"><ele>166.0</ele><time>2026-04-06T11:08:18.008Z</time></trkpt><trkpt lat="44.0442406" lon="12.1757019"><ele>170.25</ele><time>2026-04-06T11:08:19.011Z</time></trkpt><trkpt lat="44.044114" lon="12.1756258"><ele>174.5</ele><time>2026-04-06T11:08:20.011Z</time></trkpt><trkpt lat="44.0439834" lon="12.1755438"><ele>178.75</ele><time>2026-04-06T11:08:21.009Z</time></trkpt><trkpt lat="44.0438636" lon="12.175438"><ele>183.0</ele><time>2026-04-06T11:08:22.008Z</time></trkpt><trkpt lat="44.0437614" lon="12.1753032"><ele>183.0</ele><time>2026-04-06T11:08:23.008Z</time></trkpt><trkpt lat="44.0436583" lon="12.175171"><ele>183.0</ele><time>2026-04-06T11:08:24.007Z</time></trkpt><trkpt lat="44.043568" lon="12.1750291"><ele>183.0</ele><time>2026-04-06T11:08:25.011Z</time></trkpt><trkpt lat="44.0434903" lon="12.1748871"><ele>183.0</ele><time>2026-04-06T11:08:26.01Z</time></trkpt><trkpt lat="44.043421" lon="12.1747527"><ele>183.2</ele><time>2026-04-06T11:08:27.013Z</time></trkpt><trkpt lat="44.0433603" lon="12.1746356"><ele>183.4</ele><time>2026-04-06T11:08:28.008Z</time></trkpt><trkpt lat="44.0432949" lon="12.1745396"><ele>183.6</ele><time>2026-04-06T11:08:29.007Z</time></trkpt><trkpt lat="44.0432024" lon="12.1744794"><ele>183.79999999999998</ele><time>2026-04-06T11:08:30.008Z</time></trkpt><trkpt lat="44.0430899" lon="12.1744514"><ele>184.0</ele><time>2026-04-06T11:08:31.009Z</time></trkpt><trkpt lat="44.0429682" lon="12.1744409"><ele>184.0</ele><time>2026-04-06T11:08:32.012Z</time></trkpt><trkpt lat="44.0428405" lon="12.1744316"><ele>184.0</ele><time>2026-04-06T11:08:33.009Z</time></trkpt><trkpt lat="44.0427055" lon="12.1744386"><ele>184.0</ele><time>2026-04-06T11:08:34.01Z</time></trkpt><trkpt lat="44.0425685" lon="12.1744325"><ele>184.0</ele><time>2026-04-06T11:08:35.009Z</time></trkpt><trkpt lat="44.0424385" lon="12.1744214"><ele>188.25</ele><time>2026-04-06T11:08:36.008Z</time></trkpt><trkpt lat="44.0423119" lon="12.174415"><ele>192.5</ele><time>2026-04-06T11:08:37.007Z</time></trkpt><trkpt lat="44.0421879" lon="12.1744329"><ele>196.75</ele><time>2026-04-06T11:08:38.009Z</time></trkpt><trkpt lat="44.0420664" lon="12.1744814"><ele>201.0</ele><time>2026-04-06T11:08:39.008Z</time></trkpt><trkpt lat="44.0419433" lon="12.1745503"><ele>201.0</ele><time>2026-04-06T11:08:40.009Z</time></trkpt><trkpt lat="44.0418228" lon="12.1746359"><ele>201.0</ele><time>2026-04-06T11:08:41.008Z</time></trkpt><trkpt lat="44.041706" lon="12.1747412"><ele>201.0</ele><time>2026-04-06T11:08:42.007Z</time></trkpt><trkpt lat="44.0415853" lon="12.1748346"><ele>201.0</ele><time>2026-04-06T11:08:43.009Z</time></trkpt><trkpt lat="44.0414677" lon="12.1749115"><ele>200.75</ele><time>2026-04-06T11:08:44.008Z</time></trkpt><trkpt lat="44.0413501" lon="12.1749728"><ele>200.5</ele><time>2026-04-06T11:08:45.008Z</time></trkpt><trkpt lat="44.0412255" lon="12.1749925"><ele>200.25</ele><time>2026-04-06T11:08:46.012Z</time></trkpt><trkpt lat="44.0410986" lon="12.1749826"><ele>200.0</ele><time>2026-04-06T11:08:47.008Z</time></trkpt><trkpt lat="44.0409676" lon="12.1749488"><ele>200.0</ele><time>2026-04-06T11:08:48.008Z</time></trkpt><trkpt lat="44.0408315" lon="12.1749142"><ele>200.0</ele><time>2026-04-06T11:08:49.007Z</time></trkpt><trkpt lat="44.0406911" lon="12.1748872"><ele>200.0</ele><time>2026-04-06T11:08:50.008Z</time></trkpt><trkpt lat="44.0405477" lon="12.1748673"><ele>200.0</ele><time>2026-04-06T11:08:51.008Z</time></trkpt><trkpt lat="44.0404047" lon="12.1748532"><ele>203.25</ele><time>2026-04-06T11:08:52.009Z</time></trkpt><trkpt lat="44.0402673" lon="12.174828"><ele>206.5</ele><time>2026-04-06T11:08:53.008Z</time></trkpt><trkpt lat="44.0401345" lon="12.1747716"><ele>209.75</ele><time>2026-04-06T11:08:54.009Z</time></trkpt><trkpt lat="44.0400089" lon="12.1746754"><ele>213.0</ele><time>2026-04-06T11:08:55.008Z</time></trkpt><trkpt lat="44.039891" lon="12.1745549"><ele>213.5</ele><time>2026-04-06T11:08:56.008Z</time></trkpt><trkpt lat="44.0397783" lon="12.1744435"><ele>214.0</ele><time>2026-04-06T11:08:57.012Z</time></trkpt><trkpt lat="44.0396711" lon="12.1743359"><ele>214.5</ele><time>2026-04-06T11:08:58.008Z</time></trkpt><trkpt lat="44.0395697" lon="12.1742318"><ele>215.0</ele><time>2026-04-06T11:08:59.009Z</time></trkpt><trkpt lat="44.0394708" lon="12.1741273"><ele>215.0</ele><time>2026-04-06T11:09:00.01Z</time></trkpt><trkpt lat="44.0393789" lon="12.1740151"><ele>215.0</ele><time>2026-04-06T11:09:01.007Z</time></trkpt><trkpt lat="44.0392946" lon="12.173892"><ele>215.0</ele><time>2026-04-06T11:09:02.008Z</time></trkpt><trkpt lat="44.0392119" lon="12.173758"><ele>215.0</ele><time>2026-04-06T11:09:03.009Z</time></trkpt><trkpt lat="44.0391142" lon="12.1736293"><ele>214.5</ele><time>2026-04-06T11:09:04.01Z</time></trkpt><trkpt lat="44.0390046" lon="12.1735101"><ele>214.0</ele><time>2026-04-06T11:09:05.008Z</time></trkpt><trkpt lat="44.038894" lon="12.1734001"><ele>213.5</ele><time>2026-04-06T11:09:06.007Z</time></trkpt><trkpt lat="44.0387792" lon="12.1733229"><ele>213.0</ele><time>2026-04-06T11:09:07.007Z</time></trkpt><trkpt lat="44.0386595" lon="12.1732655"><ele>213.0</ele><time>2026-04-06T11:09:08.007Z</time></trkpt><trkpt lat="44.0385341" lon="12.1732474"><ele>213.0</ele><time>2026-04-06T11:09:09.01Z</time></trkpt><trkpt lat="44.0384015" lon="12.1732542"><ele>213.0</ele><time>2026-04-06T11:09:10.007Z</time></trkpt><trkpt lat="44.0382599" lon="12.1732664"><ele>213.0</ele><time>2026-04-06T11:09:11.01Z</time></trkpt><trkpt lat="44.0381118" lon="12.173265"><ele>213.75</ele><time>2026-04-06T11:09:12.008Z</time></trkpt><trkpt lat="44.0379605" lon="12.1732488"><ele>214.5</ele><time>2026-04-06T11:09:13.009Z</time></trkpt><trkpt lat="44.037817" lon="12.1732252"><ele>215.25</ele><time>2026-04-06T11:09:14.008Z</time></trkpt><trkpt lat="44.0376858" lon="12.1732018"><ele>216.0</ele><time>2026-04-06T11:09:15.01Z</time></trkpt><trkpt lat="44.0375613" lon="12.1731569"><ele>220.25</ele><time>2026-04-06T11:09:16.009Z</time></trkpt><trkpt lat="44.0374455" lon="12.1730928"><ele>224.5</ele><time>2026-04-06T11:09:17.009Z</time></trkpt><trkpt lat="44.0373481" lon="12.1729859"><ele>228.75</ele><time>2026-04-06T11:09:18.011Z</time></trkpt><trkpt lat="44.0372541" lon="12.1728881"><ele>233.0</ele><time>2026-04-06T11:09:19.01Z</time></trkpt><trkpt lat="44.0371562" lon="12.1728155"><ele>233.0</ele><time>2026-04-06T11:09:20.008Z</time></trkpt><trkpt lat="44.0370518" lon="12.1727729"><ele>233.0</ele><time>2026-04-06T11:09:21.008Z</time></trkpt><trkpt lat="44.0369386" lon="12.172757"><ele>233.0</ele><time>2026-04-06T11:09:22.007Z</time></trkpt><trkpt lat="44.036831" lon="12.1727327"><ele>233.0</ele><time>2026-04-06T11:09:23.009Z</time></trkpt><trkpt lat="44.0367433" lon="12.1726818"><ele>233.0</ele><time>2026-04-06T11:09:24.007Z</time></trkpt><trkpt lat="44.0366741" lon="12.172605"><ele>233.16666666666669</ele><time>2026-04-06T11:09:25.01Z</time></trkpt><trkpt lat="44.0366232" lon="12.1725005"><ele>233.33333333333334</ele><time>2026-04-06T11:09:26.008Z</time></trkpt><trkpt lat="44.036582" lon="12.1723839"><ele>233.5</ele><time>2026-04-06T11:09:27.007Z</time></trkpt><trkpt lat="44.0365402" lon="12.1722955"><ele>233.66666666666669</ele><time>2026-04-06T11:09:28.009Z</time></trkpt><trkpt lat="44.0364962" lon="12.1722286"><ele>233.83333333333334</ele><time>2026-04-06T11:09:29.007Z</time></trkpt><trkpt lat="44.0363968" lon="12.1721747"><ele>234.0</ele><time>2026-04-06T11:09:31.01Z</time></trkpt><trkpt lat="44.0363033" lon="12.172246"><ele>234.0</ele><time>2026-04-06T11:09:33.007Z</time></trkpt><trkpt lat="44.0362669" lon="12.1723188"><ele>234.0</ele><time>2026-04-06T11:09:34.008Z</time></trkpt><trkpt lat="44.0362342" lon="12.1723949"><ele>234.0</ele><time>2026-04-06T11:09:35.008Z</time></trkpt><trkpt lat="44.0361527" lon="12.1724749"><ele>234.0</ele><time>2026-04-06T11:09:37.012Z</time></trkpt><trkpt lat="44.0360582" lon="12.1724733"><ele>234.0</ele><time>2026-04-06T11:09:39.009Z</time></trkpt><trkpt lat="44.0359585" lon="12.1723674"><ele>234.0</ele><time>2026-04-06T11:09:41.008Z</time></trkpt><trkpt lat="44.0359012" lon="12.1722518"><ele>235.0</ele><time>2026-04-06T11:09:42.012Z</time></trkpt><trkpt lat="44.0358294" lon="12.172116"><ele>236.0</ele><time>2026-04-06T11:09:43.008Z</time></trkpt><trkpt lat="44.0357497" lon="12.1720075"><ele>237.0</ele><time>2026-04-06T11:09:44.008Z</time></trkpt><trkpt lat="44.0356509" lon="12.1718959"><ele>238.0</ele><time>2026-04-06T11:09:45.008Z</time></trkpt><trkpt lat="44.035516" lon="12.1717342"><ele>238.33333333333331</ele><time>2026-04-06T11:09:46.008Z</time></trkpt><trkpt lat="44.0353645" lon="12.1715859"><ele>238.66666666666669</ele><time>2026-04-06T11:09:47.01Z</time></trkpt><trkpt lat="44.0352013" lon="12.1714916"><ele>239.0</ele><time>2026-04-06T11:09:48.008Z</time></trkpt><trkpt lat="44.0350421" lon="12.1714021"><ele>243.0</ele><time>2026-04-06T11:09:49.011Z</time></trkpt><trkpt lat="44.034885" lon="12.1713289"><ele>247.0</ele><time>2026-04-06T11:09:50.008Z</time></trkpt><trkpt lat="44.0347378" lon="12.1712594"><ele>251.0</ele><time>2026-04-06T11:09:51.008Z</time></trkpt><trkpt lat="44.0346089" lon="12.1712022"><ele>251.0</ele><time>2026-04-06T11:09:52.008Z</time></trkpt><trkpt lat="44.034495" lon="12.1711383"><ele>251.0</ele><time>2026-04-06T11:09:53.01Z</time></trkpt><trkpt lat="44.0343966" lon="12.171045"><ele>251.0</ele><time>2026-04-06T11:09:54.009Z</time></trkpt><trkpt lat="44.0343087" lon="12.1709356"><ele>251.0</ele><time>2026-04-06T11:09:55.008Z</time></trkpt><trkpt lat="44.0342285" lon="12.1708211"><ele>251.0</ele><time>2026-04-06T11:09:56.014Z</time></trkpt><trkpt lat="44.0341487" lon="12.1707146"><ele>251.00000000000003</ele><time>2026-04-06T11:09:57.008Z</time></trkpt><trkpt lat="44.0340714" lon="12.1706208"><ele>251.00000000000003</ele><time>2026-04-06T11:09:58.008Z</time></trkpt><trkpt lat="44.0339919" lon="12.1705458"><ele>251.0</ele><time>2026-04-06T11:09:59.01Z</time></trkpt><trkpt lat="44.0339111" lon="12.1705004"><ele>251.0</ele><time>2026-04-06T11:10:00.007Z</time></trkpt><trkpt lat="44.0338283" lon="12.1704887"><ele>250.4</ele><time>2026-04-06T11:10:01.009Z</time></trkpt><trkpt lat="44.0337439" lon="12.1705006"><ele>249.8</ele><time>2026-04-06T11:10:02.007Z</time></trkpt><trkpt lat="44.0336554" lon="12.1705423"><ele>249.20000000000002</ele><time>2026-04-06T11:10:03.008Z</time></trkpt><trkpt lat="44.0335617" lon="12.1706051"><ele>248.60000000000002</ele><time>2026-04-06T11:10:04.009Z</time></trkpt><trkpt lat="44.0334599" lon="12.1706878"><ele>248.0</ele><time>2026-04-06T11:10:05.008Z</time></trkpt><trkpt lat="44.0333607" lon="12.170778"><ele>245.5</ele><time>2026-04-06T11:10:06.008Z</time></trkpt><trkpt lat="44.0332632" lon="12.1708769"><ele>243.0</ele><time>2026-04-06T11:10:07.009Z</time></trkpt><trkpt lat="44.0331714" lon="12.1709907"><ele>240.5</ele><time>2026-04-06T11:10:08.007Z</time></trkpt><trkpt lat="44.0330762" lon="12.1711192"><ele>238.0</ele><time>2026-04-06T11:10:09.008Z</time></trkpt><trkpt lat="44.0329734" lon="12.1712519"><ele>238.0</ele><time>2026-04-06T11:10:10.008Z</time></trkpt><trkpt lat="44.0328627" lon="12.1713798"><ele>238.0</ele><time>2026-04-06T11:10:11.007Z</time></trkpt><trkpt lat="44.0327499" lon="12.1715028"><ele>238.0</ele><time>2026-04-06T11:10:12.009Z</time></trkpt><trkpt lat="44.0326387" lon="12.171617"><ele>238.0</ele><time>2026-04-06T11:10:13.006Z</time></trkpt><trkpt lat="44.0325332" lon="12.1717171"><ele>244.0</ele><time>2026-04-06T11:10:14.009Z</time></trkpt><trkpt lat="44.0324279" lon="12.1718049"><ele>250.0</ele><time>2026-04-06T11:10:15.007Z</time></trkpt><trkpt lat="44.0323243" lon="12.1718696"><ele>256.0</ele><time>2026-04-06T11:10:16.007Z</time></trkpt><trkpt lat="44.0322209" lon="12.1719047"><ele>262.0</ele><time>2026-04-06T11:10:17.006Z</time></trkpt><trkpt lat="44.0321131" lon="12.1719196"><ele>262.0</ele><time>2026-04-06T11:10:18.007Z</time></trkpt><trkpt lat="44.0319963" lon="12.1719281"><ele>262.0</ele><time>2026-04-06T11:10:19.009Z</time></trkpt><trkpt lat="44.0318677" lon="12.1719257"><ele>262.0</ele><time>2026-04-06T11:10:20.007Z</time></trkpt><trkpt lat="44.0317302" lon="12.1719029"><ele>262.0</ele><time>2026-04-06T11:10:21.009Z</time></trkpt><trkpt lat="44.0315925" lon="12.1718674"><ele>263.25</ele><time>2026-04-06T11:10:22.007Z</time></trkpt><trkpt lat="44.0314559" lon="12.1718305"><ele>264.5</ele><time>2026-04-06T11:10:23.008Z</time></trkpt><trkpt lat="44.0313313" lon="12.1718078"><ele>265.75</ele><time>2026-04-06T11:10:24.007Z</time></trkpt><trkpt lat="44.0312113" lon="12.1717939"><ele>267.0</ele><time>2026-04-06T11:10:25.008Z</time></trkpt><trkpt lat="44.031096" lon="12.1717917"><ele>267.0</ele><time>2026-04-06T11:10:26.005Z</time></trkpt><trkpt lat="44.0309801" lon="12.1717982"><ele>267.0</ele><time>2026-04-06T11:10:27.006Z</time></trkpt><trkpt lat="44.0308583" lon="12.1718072"><ele>267.0</ele><time>2026-04-06T11:10:28.007Z</time></trkpt><trkpt lat="44.0307337" lon="12.171812"><ele>267.0</ele><time>2026-04-06T11:10:29.009Z</time></trkpt><trkpt lat="44.030609" lon="12.1718068"><ele>266.25</ele><time>2026-04-06T11:10:30.009Z</time></trkpt><trkpt lat="44.0304908" lon="12.1717926"><ele>265.5</ele><time>2026-04-06T11:10:31.007Z</time></trkpt><trkpt lat="44.0303786" lon="12.1717561"><ele>264.75</ele><time>2026-04-06T11:10:32.008Z</time></trkpt><trkpt lat="44.0302769" lon="12.1716924"><ele>264.0</ele><time>2026-04-06T11:10:33.008Z</time></trkpt><trkpt lat="44.0301895" lon="12.1716015"><ele>262.2</ele><time>2026-04-06T11:10:34.009Z</time></trkpt><trkpt lat="44.0301184" lon="12.1714925"><ele>260.4</ele><time>2026-04-06T11:10:35.008Z</time></trkpt><trkpt lat="44.0300628" lon="12.1713797"><ele>258.6</ele><time>2026-04-06T11:10:36.007Z</time></trkpt><trkpt lat="44.0300158" lon="12.1712711"><ele>256.8</ele><time>2026-04-06T11:10:37.013Z</time></trkpt><trkpt lat="44.0299726" lon="12.1711682"><ele>255.0</ele><time>2026-04-06T11:10:38.008Z</time></trkpt><trkpt lat="44.029927" lon="12.1710774"><ele>255.0</ele><time>2026-04-06T11:10:39.008Z</time></trkpt><trkpt lat="44.0298712" lon="12.1710033"><ele>255.0</ele><time>2026-04-06T11:10:40.007Z</time></trkpt><trkpt lat="44.0298088" lon="12.1709367"><ele>255.0</ele><time>2026-04-06T11:10:41.006Z</time></trkpt><trkpt lat="44.0297217" lon="12.1708968"><ele>255.0</ele><time>2026-04-06T11:10:42.008Z</time></trkpt><trkpt lat="44.0296282" lon="12.1708497"><ele>255.0</ele><time>2026-04-06T11:10:43.009Z</time></trkpt><trkpt lat="44.0295427" lon="12.1707874"><ele>255.0</ele><time>2026-04-06T11:10:44.007Z</time></trkpt><trkpt lat="44.0294643" lon="12.1707153"><ele>254.0</ele><time>2026-04-06T11:10:45.009Z</time></trkpt><trkpt lat="44.0293889" lon="12.1706442"><ele>253.0</ele><time>2026-04-06T11:10:46.009Z</time></trkpt><trkpt lat="44.0293138" lon="12.1705796"><ele>252.0</ele><time>2026-04-06T11:10:47.009Z</time></trkpt><trkpt lat="44.0292358" lon="12.1705305"><ele>251.0</ele><time>2026-04-06T11:10:48.008Z</time></trkpt><trkpt lat="44.0291544" lon="12.1704966"><ele>250.0</ele><time>2026-04-06T11:10:49.008Z</time></trkpt><trkpt lat="44.0290698" lon="12.1704558"><ele>249.0</ele><time>2026-04-06T11:10:50.007Z</time></trkpt><trkpt lat="44.0289899" lon="12.1703934"><ele>247.5</ele><time>2026-04-06T11:10:51.007Z</time></trkpt><trkpt lat="44.0289233" lon="12.170295"><ele>246.0</ele><time>2026-04-06T11:10:52.008Z</time></trkpt><trkpt lat="44.0288583" lon="12.170175"><ele>244.5</ele><time>2026-04-06T11:10:53.006Z</time></trkpt><trkpt lat="44.028795" lon="12.170025"><ele>243.0</ele><time>2026-04-06T11:10:54.01Z</time></trkpt><trkpt lat="44.028735" lon="12.169865"><ele>244.25</ele><time>2026-04-06T11:10:55.008Z</time></trkpt><trkpt lat="44.028675" lon="12.1697133"><ele>245.5</ele><time>2026-04-06T11:10:56.006Z</time></trkpt><trkpt lat="44.02861" lon="12.1695767"><ele>246.75</ele><time>2026-04-06T11:10:57.392Z</time></trkpt><trkpt lat="44.028535" lon="12.1694583"><ele>248.0</ele><time>2026-04-06T11:10:58.007Z</time></trkpt><trkpt lat="44.02845" lon="12.1693583"><ele>248.0</ele><time>2026-04-06T11:10:59.007Z</time></trkpt><trkpt lat="44.0283617" lon="12.1692767"><ele>248.0</ele><time>2026-04-06T11:11:00.007Z</time></trkpt><trkpt lat="44.02828" lon="12.1691983"><ele>248.0</ele><time>2026-04-06T11:11:01.01Z</time></trkpt><trkpt lat="44.02821" lon="12.1691133"><ele>248.0</ele><time>2026-04-06T11:11:02.007Z</time></trkpt><trkpt lat="44.028155" lon="12.16901"><ele>248.0</ele><time>2026-04-06T11:11:03.009Z</time></trkpt><trkpt lat="44.0281117" lon="12.1688833"><ele>250.0</ele><time>2026-04-06T11:11:04.009Z</time></trkpt><trkpt lat="44.0280717" lon="12.1687567"><ele>252.0</ele><time>2026-04-06T11:11:05.008Z</time></trkpt><trkpt lat="44.0280183" lon="12.1686417"><ele>254.0</ele><time>2026-04-06T11:11:06.008Z</time></trkpt><trkpt lat="44.0279383" lon="12.1685317"><ele>256.0</ele><time>2026-04-06T11:11:07.008Z</time></trkpt><trkpt lat="44.0278433" lon="12.1684217"><ele>258.0</ele><time>2026-04-06T11:11:08.007Z</time></trkpt><trkpt lat="44.0277467" lon="12.1683083"><ele>258.5</ele><time>2026-04-06T11:11:09.01Z</time></trkpt><trkpt lat="44.027665" lon="12.1681867"><ele>259.0</ele><time>2026-04-06T11:11:10.009Z</time></trkpt><trkpt lat="44.027595" lon="12.16805"><ele>259.5</ele><time>2026-04-06T11:11:11.011Z</time></trkpt><trkpt lat="44.0275367" lon="12.1678933"><ele>260.0</ele><time>2026-04-06T11:11:12.006Z</time></trkpt><trkpt lat="44.027485" lon="12.1677267"><ele>261.0</ele><time>2026-04-06T11:11:13.009Z</time></trkpt><trkpt lat="44.0274333" lon="12.1675683"><ele>262.0</ele><time>2026-04-06T11:11:14.009Z</time></trkpt><trkpt lat="44.0273683" lon="12.1674217"><ele>263.0</ele><time>2026-04-06T11:11:15.009Z</time></trkpt><trkpt lat="44.0272917" lon="12.1672833"><ele>264.0</ele><time>2026-04-06T11:11:16.006Z</time></trkpt><trkpt lat="44.0272117" lon="12.1671567"><ele>264.0</ele><time>2026-04-06T11:11:17.009Z</time></trkpt><trkpt lat="44.0271317" lon="12.167025"><ele>264.0</ele><time>2026-04-06T11:11:18.008Z</time></trkpt><trkpt lat="44.0270683" lon="12.1668983"><ele>264.0</ele><time>2026-04-06T11:11:19.008Z</time></trkpt><trkpt lat="44.0270183" lon="12.1667617"><ele>264.0</ele><time>2026-04-06T11:11:20.008Z</time></trkpt><trkpt lat="44.0269667" lon="12.166615"><ele>265.0</ele><time>2026-04-06T11:11:21.008Z</time></trkpt><trkpt lat="44.026915" lon="12.1664667"><ele>266.0</ele><time>2026-04-06T11:11:22.01Z</time></trkpt><trkpt lat="44.026865" lon="12.1663133"><ele>267.0</ele><time>2026-04-06T11:11:23.007Z</time></trkpt><trkpt lat="44.0268233" lon="12.16616"><ele>268.0</ele><time>2026-04-06T11:11:24.008Z</time></trkpt><trkpt lat="44.0267933" lon="12.1660133"><ele>268.0</ele><time>2026-04-06T11:11:25.009Z</time></trkpt><trkpt lat="44.02678" lon="12.1658883"><ele>268.0</ele><time>2026-04-06T11:11:26.007Z</time></trkpt><trkpt lat="44.0267744" lon="12.1657854"><ele>268.0</ele><time>2026-04-06T11:11:27.01Z</time></trkpt><trkpt lat="44.0268125" lon="12.1656284"><ele>268.0</ele><time>2026-04-06T11:11:29.008Z</time></trkpt><trkpt lat="44.0269151" lon="12.1655519"><ele>268.0</ele><time>2026-04-06T11:11:31.007Z</time></trkpt><trkpt lat="44.0269858" lon="12.1655599"><ele>268.42857142857144</ele><time>2026-04-06T11:11:32.009Z</time></trkpt><trkpt lat="44.0270658" lon="12.1655828"><ele>268.85714285714283</ele><time>2026-04-06T11:11:33.009Z</time></trkpt><trkpt lat="44.0271443" lon="12.1656047"><ele>269.2857142857143</ele><time>2026-04-06T11:11:34.009Z</time></trkpt><trkpt lat="44.0272136" lon="12.1656095"><ele>269.7142857142857</ele><time>2026-04-06T11:11:35.006Z</time></trkpt><trkpt lat="44.0272768" lon="12.1655916"><ele>270.14285714285717</ele><time>2026-04-06T11:11:36.008Z</time></trkpt><trkpt lat="44.0273347" lon="12.1655446"><ele>270.57142857142856</ele><time>2026-04-06T11:11:37.008Z</time></trkpt><trkpt lat="44.0273821" lon="12.1654537"><ele>271.0</ele><time>2026-04-06T11:11:38.008Z</time></trkpt><trkpt lat="44.027419" lon="12.1653113"><ele>271.0</ele><time>2026-04-06T11:11:39.009Z</time></trkpt><trkpt lat="44.027443" lon="12.1651204"><ele>271.0</ele><time>2026-04-06T11:11:40.008Z</time></trkpt><trkpt lat="44.0274536" lon="12.1649082"><ele>271.0</ele><time>2026-04-06T11:11:41.006Z</time></trkpt><trkpt lat="44.0274542" lon="12.1646886"><ele>270.5</ele><time>2026-04-06T11:11:42.014Z</time></trkpt><trkpt lat="44.027446" lon="12.1644785"><ele>270.0</ele><time>2026-04-06T11:11:43.008Z</time></trkpt><trkpt lat="44.0274414" lon="12.1642861"><ele>269.5</ele><time>2026-04-06T11:11:44.008Z</time></trkpt><trkpt lat="44.0274389" lon="12.1641176"><ele>269.0</ele><time>2026-04-06T11:11:45.01Z</time></trkpt><trkpt lat="44.0274333" lon="12.1639708"><ele>268.0</ele><time>2026-04-06T11:11:46.009Z</time></trkpt><trkpt lat="44.027424" lon="12.1638407"><ele>267.0</ele><time>2026-04-06T11:11:47.008Z</time></trkpt><trkpt lat="44.0274021" lon="12.1637294"><ele>266.0</ele><time>2026-04-06T11:11:48.007Z</time></trkpt><trkpt lat="44.027363" lon="12.1636288"><ele>265.0</ele><time>2026-04-06T11:11:49.008Z</time></trkpt><trkpt lat="44.0273059" lon="12.1635289"><ele>264.0</ele><time>2026-04-06T11:11:50.007Z</time></trkpt><trkpt lat="44.0272246" lon="12.1634237"><ele>264.0</ele><time>2026-04-06T11:11:51.008Z</time></trkpt><trkpt lat="44.0271178" lon="12.1632989"><ele>264.0</ele><time>2026-04-06T11:11:52.007Z</time></trkpt><trkpt lat="44.027008" lon="12.163163"><ele>264.0</ele><time>2026-04-06T11:11:53.006Z</time></trkpt><trkpt lat="44.0268986" lon="12.1630223"><ele>264.0</ele><time>2026-04-06T11:11:54.009Z</time></trkpt><trkpt lat="44.0267929" lon="12.1628858"><ele>262.75</ele><time>2026-04-06T11:11:55.008Z</time></trkpt><trkpt lat="44.0266935" lon="12.1627538"><ele>261.5</ele><time>2026-04-06T11:11:56.008Z</time></trkpt><trkpt lat="44.0266081" lon="12.1626309"><ele>260.25</ele><time>2026-04-06T11:11:57.008Z</time></trkpt><trkpt lat="44.0265294" lon="12.1625226"><ele>259.0</ele><time>2026-04-06T11:11:58.012Z</time></trkpt><trkpt lat="44.0264525" lon="12.1624252"><ele>257.8</ele><time>2026-04-06T11:11:59.006Z</time></trkpt><trkpt lat="44.026375" lon="12.1623435"><ele>256.59999999999997</ele><time>2026-04-06T11:12:00.007Z</time></trkpt><trkpt lat="44.026286" lon="12.1622729"><ele>255.4</ele><time>2026-04-06T11:12:01.009Z</time></trkpt><trkpt lat="44.0261872" lon="12.1622137"><ele>254.2</ele><time>2026-04-06T11:12:02.007Z</time></trkpt><trkpt lat="44.0260777" lon="12.1621688"><ele>253.0</ele><time>2026-04-06T11:12:03.01Z</time></trkpt><trkpt lat="44.0259624" lon="12.1621332"><ele>253.0</ele><time>2026-04-06T11:12:04.007Z</time></trkpt><trkpt lat="44.0258422" lon="12.1621055"><ele>253.0</ele><time>2026-04-06T11:12:05.006Z</time></trkpt><trkpt lat="44.0257238" lon="12.1620818"><ele>253.0</ele><time>2026-04-06T11:12:06.008Z</time></trkpt><trkpt lat="44.0256138" lon="12.1620554"><ele>253.0</ele><time>2026-04-06T11:12:07.008Z</time></trkpt><trkpt lat="44.0255154" lon="12.1620261"><ele>253.0</ele><time>2026-04-06T11:12:08.009Z</time></trkpt><trkpt lat="44.0254274" lon="12.161988"><ele>253.0</ele><time>2026-04-06T11:12:09.008Z</time></trkpt><trkpt lat="44.0253491" lon="12.1619349"><ele>253.0</ele><time>2026-04-06T11:12:10.009Z</time></trkpt><trkpt lat="44.0252799" lon="12.1618568"><ele>253.0</ele><time>2026-04-06T11:12:11.008Z</time></trkpt><trkpt lat="44.0252096" lon="12.1617554"><ele>253.0</ele><time>2026-04-06T11:12:12.01Z</time></trkpt><trkpt lat="44.0251292" lon="12.1616391"><ele>251.5</ele><time>2026-04-06T11:12:13.007Z</time></trkpt><trkpt lat="44.0250346" lon="12.1615165"><ele>250.0</ele><time>2026-04-06T11:12:14.009Z</time></trkpt><trkpt lat="44.0249276" lon="12.1613902"><ele>248.5</ele><time>2026-04-06T11:12:15.009Z</time></trkpt><trkpt lat="44.0248155" lon="12.1612635"><ele>247.0</ele><time>2026-04-06T11:12:16.009Z</time></trkpt><trkpt lat="44.0246974" lon="12.1611443"><ele>246.5</ele><time>2026-04-06T11:12:17.009Z</time></trkpt><trkpt lat="44.0245776" lon="12.1610282"><ele>246.0</ele><time>2026-04-06T11:12:18.009Z</time></trkpt><trkpt lat="44.0244527" lon="12.1609096"><ele>245.5</ele><time>2026-04-06T11:12:19.007Z</time></trkpt><trkpt lat="44.0243308" lon="12.1607847"><ele>245.0</ele><time>2026-04-06T11:12:20.008Z</time></trkpt><trkpt lat="44.0242094" lon="12.1606533"><ele>244.33333333333334</ele><time>2026-04-06T11:12:21.008Z</time></trkpt><trkpt lat="44.024084" lon="12.1605244"><ele>243.66666666666669</ele><time>2026-04-06T11:12:22.006Z</time></trkpt><trkpt lat="44.0239557" lon="12.1603997"><ele>243.0</ele><time>2026-04-06T11:12:23.007Z</time></trkpt><trkpt lat="44.0238275" lon="12.1602793"><ele>243.0</ele><time>2026-04-06T11:12:24.009Z</time></trkpt><trkpt lat="44.0236982" lon="12.1601641"><ele>243.0</ele><time>2026-04-06T11:12:25.009Z</time></trkpt><trkpt lat="44.0235644" lon="12.1600593"><ele>243.0</ele><time>2026-04-06T11:12:26.01Z</time></trkpt><trkpt lat="44.0234268" lon="12.1599583"><ele>243.0</ele><time>2026-04-06T11:12:27.011Z</time></trkpt><trkpt lat="44.0232911" lon="12.1598562"><ele>243.0</ele><time>2026-04-06T11:12:28.009Z</time></trkpt><trkpt lat="44.0231591" lon="12.1597557"><ele>243.0</ele><time>2026-04-06T11:12:29.009Z</time></trkpt><trkpt lat="44.0230236" lon="12.1596552"><ele>243.0</ele><time>2026-04-06T11:12:30.008Z</time></trkpt><trkpt lat="44.0228852" lon="12.1595545"><ele>243.0</ele><time>2026-04-06T11:12:31.008Z</time></trkpt><trkpt lat="44.02275" lon="12.1594542"><ele>243.0</ele><time>2026-04-06T11:12:32.007Z</time></trkpt><trkpt lat="44.0226191" lon="12.1593479"><ele>243.0</ele><time>2026-04-06T11:12:33.012Z</time></trkpt><trkpt lat="44.022489" lon="12.1592323"><ele>243.0</ele><time>2026-04-06T11:12:34.005Z</time></trkpt><trkpt lat="44.0223607" lon="12.1591078"><ele>243.0</ele><time>2026-04-06T11:12:35.006Z</time></trkpt><trkpt lat="44.0222366" lon="12.1589724"><ele>244.0</ele><time>2026-04-06T11:12:36.009Z</time></trkpt><trkpt lat="44.0221131" lon="12.158828"><ele>245.0</ele><time>2026-04-06T11:12:37.009Z</time></trkpt><trkpt lat="44.0219913" lon="12.158683"><ele>246.0</ele><time>2026-04-06T11:12:38.009Z</time></trkpt><trkpt lat="44.0218724" lon="12.1585395"><ele>246.0</ele><time>2026-04-06T11:12:39.01Z</time></trkpt><trkpt lat="44.021754" lon="12.1583951"><ele>246.0</ele><time>2026-04-06T11:12:40.009Z</time></trkpt><trkpt lat="44.0216382" lon="12.1582516"><ele>246.0</ele><time>2026-04-06T11:12:41.01Z</time></trkpt><trkpt lat="44.0215245" lon="12.1581076"><ele>247.75</ele><time>2026-04-06T11:12:42.01Z</time></trkpt><trkpt lat="44.0214141" lon="12.1579681"><ele>249.5</ele><time>2026-04-06T11:12:43.006Z</time></trkpt><trkpt lat="44.0213116" lon="12.1578404"><ele>251.25</ele><time>2026-04-06T11:12:44.008Z</time></trkpt><trkpt lat="44.0212121" lon="12.1577229"><ele>253.0</ele><time>2026-04-06T11:12:45.007Z</time></trkpt><trkpt lat="44.0211156" lon="12.1576134"><ele>253.0</ele><time>2026-04-06T11:12:46.008Z</time></trkpt><trkpt lat="44.0210222" lon="12.1575012"><ele>253.0</ele><time>2026-04-06T11:12:47.012Z</time></trkpt><trkpt lat="44.0209378" lon="12.1573823"><ele>253.0</ele><time>2026-04-06T11:12:48.008Z</time></trkpt><trkpt lat="44.02086" lon="12.1572462"><ele>253.0</ele><time>2026-04-06T11:12:49.008Z</time></trkpt><trkpt lat="44.0207862" lon="12.1570949"><ele>253.0</ele><time>2026-04-06T11:12:50.007Z</time></trkpt><trkpt lat="44.0207147" lon="12.1569362"><ele>253.0</ele><time>2026-04-06T11:12:51.01Z</time></trkpt><trkpt lat="44.0206467" lon="12.1567772"><ele>253.0</ele><time>2026-04-06T11:12:52.008Z</time></trkpt><trkpt lat="44.0205885" lon="12.1566176"><ele>253.0</ele><time>2026-04-06T11:12:53.011Z</time></trkpt><trkpt lat="44.0205388" lon="12.1564551"><ele>253.0</ele><time>2026-04-06T11:12:54.009Z</time></trkpt><trkpt lat="44.0205004" lon="12.1562891"><ele>253.0</ele><time>2026-04-06T11:12:55.009Z</time></trkpt><trkpt lat="44.0204763" lon="12.1561211"><ele>253.0</ele><time>2026-04-06T11:12:56.008Z</time></trkpt><trkpt lat="44.0204646" lon="12.1559473"><ele>253.0</ele><time>2026-04-06T11:12:57.008Z</time></trkpt><trkpt lat="44.0204621" lon="12.1557742"><ele>251.0</ele><time>2026-04-06T11:12:58.011Z</time></trkpt><trkpt lat="44.0204737" lon="12.1556006"><ele>249.0</ele><time>2026-04-06T11:12:59.008Z</time></trkpt><trkpt lat="44.0204927" lon="12.1554202"><ele>247.0</ele><time>2026-04-06T11:13:00.011Z</time></trkpt><trkpt lat="44.0205182" lon="12.1552399"><ele>245.0</ele><time>2026-04-06T11:13:01.009Z</time></trkpt><trkpt lat="44.0205488" lon="12.1550641"><ele>245.0</ele><time>2026-04-06T11:13:02.008Z</time></trkpt><trkpt lat="44.020587" lon="12.1548954"><ele>245.0</ele><time>2026-04-06T11:13:03.01Z</time></trkpt><trkpt lat="44.0206331" lon="12.154733"><ele>245.0</ele><time>2026-04-06T11:13:04.009Z</time></trkpt><trkpt lat="44.0206816" lon="12.154575"><ele>245.0</ele><time>2026-04-06T11:13:05.011Z</time></trkpt><trkpt lat="44.0207349" lon="12.1544216"><ele>246.0</ele><time>2026-04-06T11:13:06.007Z</time></trkpt><trkpt lat="44.0207884" lon="12.1542712"><ele>247.0</ele><time>2026-04-06T11:13:07.009Z</time></trkpt><trkpt lat="44.020838" lon="12.1541278"><ele>248.0</ele><time>2026-04-06T11:13:08.01Z</time></trkpt><trkpt lat="44.0208875" lon="12.1539845"><ele>249.0</ele><time>2026-04-06T11:13:09.01Z</time></trkpt><trkpt lat="44.0209364" lon="12.1538446"><ele>249.0</ele><time>2026-04-06T11:13:10.011Z</time></trkpt><trkpt lat="44.0209832" lon="12.1537111"><ele>248.99999999999997</ele><time>2026-04-06T11:13:11.01Z</time></trkpt><trkpt lat="44.0210256" lon="12.1535844"><ele>248.99999999999997</ele><time>2026-04-06T11:13:12.01Z</time></trkpt><trkpt lat="44.0210626" lon="12.1534615"><ele>249.0</ele><time>2026-04-06T11:13:13.011Z</time></trkpt><trkpt lat="44.0210923" lon="12.1533444"><ele>249.0</ele><time>2026-04-06T11:13:14.009Z</time></trkpt><trkpt lat="44.0211101" lon="12.153234"><ele>248.5</ele><time>2026-04-06T11:13:15.01Z</time></trkpt><trkpt lat="44.0211143" lon="12.153134"><ele>248.0</ele><time>2026-04-06T11:13:16.008Z</time></trkpt><trkpt lat="44.0210984" lon="12.1530406"><ele>247.5</ele><time>2026-04-06T11:13:17.009Z</time></trkpt><trkpt lat="44.0210682" lon="12.1529533"><ele>247.0</ele><time>2026-04-06T11:13:18.009Z</time></trkpt><trkpt lat="44.0210277" lon="12.1528791"><ele>246.5</ele><time>2026-04-06T11:13:19.009Z</time></trkpt><trkpt lat="44.0209521" lon="12.1528328"><ele>246.0</ele><time>2026-04-06T11:13:20.009Z</time></trkpt><trkpt lat="44.0208582" lon="12.1528091"><ele>244.4</ele><time>2026-04-06T11:13:21.009Z</time></trkpt><trkpt lat="44.0207585" lon="12.1527968"><ele>242.8</ele><time>2026-04-06T11:13:22.01Z</time></trkpt><trkpt lat="44.0206617" lon="12.1527803"><ele>241.20000000000002</ele><time>2026-04-06T11:13:23.008Z</time></trkpt><trkpt lat="44.020571" lon="12.1527565"><ele>239.60000000000002</ele><time>2026-04-06T11:13:24.01Z</time></trkpt><trkpt lat="44.0204866" lon="12.1527217"><ele>238.0</ele><time>2026-04-06T11:13:25.009Z</time></trkpt><trkpt lat="44.0204085" lon="12.1526812"><ele>237.99999999999997</ele><time>2026-04-06T11:13:26.009Z</time></trkpt><trkpt lat="44.0203365" lon="12.1526339"><ele>238.0</ele><time>2026-04-06T11:13:27.01Z</time></trkpt><trkpt lat="44.0202725" lon="12.1525763"><ele>238.0</ele><time>2026-04-06T11:13:28.009Z</time></trkpt><trkpt lat="44.0202143" lon="12.152507"><ele>238.0</ele><time>2026-04-06T11:13:29.009Z</time></trkpt><trkpt lat="44.0201608" lon="12.1524228"><ele>237.99999999999997</ele><time>2026-04-06T11:13:30.008Z</time></trkpt><trkpt lat="44.0201083" lon="12.1523153"><ele>238.0</ele><time>2026-04-06T11:13:31.008Z</time></trkpt><trkpt lat="44.0200545" lon="12.1521938"><ele>237.75</ele><time>2026-04-06T11:13:32.007Z</time></trkpt><trkpt lat="44.0199971" lon="12.1520653"><ele>237.5</ele><time>2026-04-06T11:13:33.008Z</time></trkpt><trkpt lat="44.0199372" lon="12.1519301"><ele>237.25</ele><time>2026-04-06T11:13:34.009Z</time></trkpt><trkpt lat="44.019873" lon="12.1517883"><ele>237.0</ele><time>2026-04-06T11:13:35.007Z</time></trkpt><trkpt lat="44.0198003" lon="12.1516515"><ele>236.5</ele><time>2026-04-06T11:13:36.01Z</time></trkpt><trkpt lat="44.0197144" lon="12.1515204"><ele>236.0</ele><time>2026-04-06T11:13:37.009Z</time></trkpt><trkpt lat="44.019625" lon="12.1513883"><ele>235.5</ele><time>2026-04-06T11:13:38.007Z</time></trkpt><trkpt lat="44.0195439" lon="12.1512475"><ele>235.0</ele><time>2026-04-06T11:13:39.008Z</time></trkpt><trkpt lat="44.0194654" lon="12.1510985"><ele>235.0</ele><time>2026-04-06T11:13:40.007Z</time></trkpt><trkpt lat="44.0193764" lon="12.1509502"><ele>235.0</ele><time>2026-04-06T11:13:41.009Z</time></trkpt><trkpt lat="44.0192809" lon="12.1508166"><ele>235.0</ele><time>2026-04-06T11:13:42.008Z</time></trkpt><trkpt lat="44.0191905" lon="12.1506929"><ele>235.0</ele><time>2026-04-06T11:13:43.008Z</time></trkpt><trkpt lat="44.0191146" lon="12.1505644"><ele>232.5</ele><time>2026-04-06T11:13:44.008Z</time></trkpt><trkpt lat="44.019055" lon="12.1504163"><ele>230.0</ele><time>2026-04-06T11:13:45.009Z</time></trkpt><trkpt lat="44.0190088" lon="12.1502533"><ele>227.5</ele><time>2026-04-06T11:13:46.01Z</time></trkpt><trkpt lat="44.0189718" lon="12.150078"><ele>225.0</ele><time>2026-04-06T11:13:47.009Z</time></trkpt><trkpt lat="44.0189472" lon="12.1498927"><ele>226.5</ele><time>2026-04-06T11:13:48.008Z</time></trkpt><trkpt lat="44.0189375" lon="12.1497057"><ele>228.0</ele><time>2026-04-06T11:13:49.008Z</time></trkpt><trkpt lat="44.0189374" lon="12.1495201"><ele>229.5</ele><time>2026-04-06T11:13:50.008Z</time></trkpt><trkpt lat="44.0189426" lon="12.1493446"><ele>231.0</ele><time>2026-04-06T11:13:51.007Z</time></trkpt><trkpt lat="44.0189374" lon="12.14918"><ele>235.0</ele><time>2026-04-06T11:13:52.009Z</time></trkpt><trkpt lat="44.0189092" lon="12.1490146"><ele>239.0</ele><time>2026-04-06T11:13:53.01Z</time></trkpt><trkpt lat="44.0188676" lon="12.1488466"><ele>243.0</ele><time>2026-04-06T11:13:54.007Z</time></trkpt><trkpt lat="44.0188237" lon="12.1486835"><ele>247.0</ele><time>2026-04-06T11:13:55.008Z</time></trkpt><trkpt lat="44.0187813" lon="12.1485408"><ele>247.0</ele><time>2026-04-06T11:13:56.007Z</time></trkpt><trkpt lat="44.0187274" lon="12.1484228"><ele>247.0</ele><time>2026-04-06T11:13:57.013Z</time></trkpt><trkpt lat="44.018656" lon="12.1483138"><ele>247.0</ele><time>2026-04-06T11:13:58.008Z</time></trkpt><trkpt lat="44.01856" lon="12.1482032"><ele>247.0</ele><time>2026-04-06T11:13:59.007Z</time></trkpt><trkpt lat="44.018446" lon="12.1480893"><ele>247.75</ele><time>2026-04-06T11:14:00.008Z</time></trkpt><trkpt lat="44.0183361" lon="12.147979"><ele>248.5</ele><time>2026-04-06T11:14:01.008Z</time></trkpt><trkpt lat="44.018238" lon="12.1478811"><ele>249.25</ele><time>2026-04-06T11:14:02.008Z</time></trkpt><trkpt lat="44.0181559" lon="12.147789"><ele>250.0</ele><time>2026-04-06T11:14:03.009Z</time></trkpt><trkpt lat="44.0180879" lon="12.147691"><ele>250.0</ele><time>2026-04-06T11:14:04.008Z</time></trkpt><trkpt lat="44.0180312" lon="12.1475907"><ele>250.0</ele><time>2026-04-06T11:14:05.008Z</time></trkpt><trkpt lat="44.0179939" lon="12.1474831"><ele>250.0</ele><time>2026-04-06T11:14:06.008Z</time></trkpt><trkpt lat="44.0179734" lon="12.1473685"><ele>250.0</ele><time>2026-04-06T11:14:07.008Z</time></trkpt><trkpt lat="44.0179676" lon="12.1472445"><ele>250.0</ele><time>2026-04-06T11:14:08.009Z</time></trkpt><trkpt lat="44.0179747" lon="12.1471018"><ele>251.75</ele><time>2026-04-06T11:14:09.009Z</time></trkpt><trkpt lat="44.0179703" lon="12.1469598"><ele>253.5</ele><time>2026-04-06T11:14:10.009Z</time></trkpt><trkpt lat="44.0179427" lon="12.146815"><ele>255.25</ele><time>2026-04-06T11:14:11.008Z</time></trkpt><trkpt lat="44.0178864" lon="12.1466676"><ele>257.0</ele><time>2026-04-06T11:14:12.009Z</time></trkpt><trkpt lat="44.017797" lon="12.1465178"><ele>257.0</ele><time>2026-04-06T11:14:13.008Z</time></trkpt><trkpt lat="44.0176903" lon="12.1463775"><ele>257.0</ele><time>2026-04-06T11:14:14.009Z</time></trkpt><trkpt lat="44.0175862" lon="12.1462532"><ele>257.0</ele><time>2026-04-06T11:14:15.008Z</time></trkpt><trkpt lat="44.0174888" lon="12.1461495"><ele>257.0</ele><time>2026-04-06T11:14:16.01Z</time></trkpt><trkpt lat="44.0173957" lon="12.1460719"><ele>257.25</ele><time>2026-04-06T11:14:17.007Z</time></trkpt><trkpt lat="44.0172917" lon="12.1460147"><ele>257.5</ele><time>2026-04-06T11:14:18.008Z</time></trkpt><trkpt lat="44.0171708" lon="12.1459787"><ele>257.75</ele><time>2026-04-06T11:14:19.009Z</time></trkpt><trkpt lat="44.0170291" lon="12.1459672"><ele>258.0</ele><time>2026-04-06T11:14:20.008Z</time></trkpt><trkpt lat="44.0168712" lon="12.1459753"><ele>258.0</ele><time>2026-04-06T11:14:21.011Z</time></trkpt><trkpt lat="44.0166925" lon="12.1459949"><ele>258.0</ele><time>2026-04-06T11:14:22.009Z</time></trkpt><trkpt lat="44.0165072" lon="12.1460214"><ele>258.0</ele><time>2026-04-06T11:14:23.007Z</time></trkpt><trkpt lat="44.016329" lon="12.1460534"><ele>258.6666666666667</ele><time>2026-04-06T11:14:24.007Z</time></trkpt><trkpt lat="44.0161614" lon="12.14607"><ele>259.33333333333337</ele><time>2026-04-06T11:14:25.008Z</time></trkpt><trkpt lat="44.0160033" lon="12.1460869"><ele>260.0</ele><time>2026-04-06T11:14:26.007Z</time></trkpt><trkpt lat="44.0158449" lon="12.1461135"><ele>260.33333333333337</ele><time>2026-04-06T11:14:27.01Z</time></trkpt><trkpt lat="44.0156857" lon="12.1461506"><ele>260.6666666666667</ele><time>2026-04-06T11:14:28.007Z</time></trkpt><trkpt lat="44.0155295" lon="12.146192"><ele>261.0</ele><time>2026-04-06T11:14:29.008Z</time></trkpt><trkpt lat="44.0153787" lon="12.1462276"><ele>261.0</ele><time>2026-04-06T11:14:30.008Z</time></trkpt><trkpt lat="44.015231" lon="12.1462577"><ele>261.0</ele><time>2026-04-06T11:14:31.006Z</time></trkpt><trkpt lat="44.0150841" lon="12.1462674"><ele>261.0</ele><time>2026-04-06T11:14:32.011Z</time></trkpt><trkpt lat="44.0149301" lon="12.1462463"><ele>261.6666666666667</ele><time>2026-04-06T11:14:33.008Z</time></trkpt><trkpt lat="44.0147732" lon="12.1462"><ele>262.33333333333337</ele><time>2026-04-06T11:14:34.011Z</time></trkpt><trkpt lat="44.014622" lon="12.1461347"><ele>263.0</ele><time>2026-04-06T11:14:35.006Z</time></trkpt><trkpt lat="44.0144829" lon="12.1460685"><ele>263.0</ele><time>2026-04-06T11:14:36.009Z</time></trkpt><trkpt lat="44.0143535" lon="12.1460089"><ele>263.0</ele><time>2026-04-06T11:14:37.009Z</time></trkpt><trkpt lat="44.0142385" lon="12.1459546"><ele>263.0</ele><time>2026-04-06T11:14:38.008Z</time></trkpt><trkpt lat="44.0141289" lon="12.1459045"><ele>263.0</ele><time>2026-04-06T11:14:39.008Z</time></trkpt><trkpt lat="44.0140193" lon="12.1458523"><ele>262.5</ele><time>2026-04-06T11:14:40.008Z</time></trkpt><trkpt lat="44.0139099" lon="12.1457964"><ele>262.0</ele><time>2026-04-06T11:14:41.008Z</time></trkpt><trkpt lat="44.0138084" lon="12.1457361"><ele>261.5</ele><time>2026-04-06T11:14:42.008Z</time></trkpt><trkpt lat="44.0137107" lon="12.1456574"><ele>261.0</ele><time>2026-04-06T11:14:43.015Z</time></trkpt><trkpt lat="44.013626" lon="12.1455519"><ele>261.0</ele><time>2026-04-06T11:14:44.007Z</time></trkpt><trkpt lat="44.0135538" lon="12.1454176"><ele>261.0</ele><time>2026-04-06T11:14:45.009Z</time></trkpt><trkpt lat="44.0134831" lon="12.145253"><ele>261.0</ele><time>2026-04-06T11:14:46.009Z</time></trkpt><trkpt lat="44.0134053" lon="12.1450683"><ele>261.0</ele><time>2026-04-06T11:14:47.007Z</time></trkpt><trkpt lat="44.0133116" lon="12.1448763"><ele>263.0</ele><time>2026-04-06T11:14:48.009Z</time></trkpt><trkpt lat="44.0132006" lon="12.1446792"><ele>265.0</ele><time>2026-04-06T11:14:49.007Z</time></trkpt><trkpt lat="44.0130905" lon="12.1444898"><ele>267.0</ele><time>2026-04-06T11:14:50.011Z</time></trkpt><trkpt lat="44.0129903" lon="12.1443171"><ele>267.0</ele><time>2026-04-06T11:14:51.008Z</time></trkpt><trkpt lat="44.0128942" lon="12.1441504"><ele>267.0</ele><time>2026-04-06T11:14:52.008Z</time></trkpt><trkpt lat="44.0127966" lon="12.1439802"><ele>267.0</ele><time>2026-04-06T11:14:53.008Z</time></trkpt><trkpt lat="44.0126986" lon="12.1438085"><ele>268.0</ele><time>2026-04-06T11:14:54.007Z</time></trkpt><trkpt lat="44.0125988" lon="12.1436343"><ele>269.0</ele><time>2026-04-06T11:14:55.09Z</time></trkpt><trkpt lat="44.0125124" lon="12.1434791"><ele>270.0</ele><time>2026-04-06T11:14:56.01Z</time></trkpt><trkpt lat="44.0124255" lon="12.1433294"><ele>271.0</ele><time>2026-04-06T11:14:57.01Z</time></trkpt><trkpt lat="44.0123444" lon="12.1431949"><ele>274.0</ele><time>2026-04-06T11:14:58.013Z</time></trkpt><trkpt lat="44.0122683" lon="12.1430623"><ele>277.0</ele><time>2026-04-06T11:14:59.009Z</time></trkpt><trkpt lat="44.0122024" lon="12.1429304"><ele>280.0</ele><time>2026-04-06T11:15:00.01Z</time></trkpt><trkpt lat="44.0121456" lon="12.1427913"><ele>283.0</ele><time>2026-04-06T11:15:01.008Z</time></trkpt><trkpt lat="44.0120901" lon="12.1426402"><ele>283.0</ele><time>2026-04-06T11:15:02.01Z</time></trkpt><trkpt lat="44.0120392" lon="12.1424779"><ele>283.0</ele><time>2026-04-06T11:15:03.012Z</time></trkpt><trkpt lat="44.0119951" lon="12.1422979"><ele>283.0</ele><time>2026-04-06T11:15:04.009Z</time></trkpt><trkpt lat="44.011951" lon="12.1420988"><ele>283.0</ele><time>2026-04-06T11:15:05.011Z</time></trkpt><trkpt lat="44.0119108" lon="12.1418929"><ele>283.66666666666663</ele><time>2026-04-06T11:15:06.009Z</time></trkpt><trkpt lat="44.0118702" lon="12.1416934"><ele>284.3333333333333</ele><time>2026-04-06T11:15:07.009Z</time></trkpt><trkpt lat="44.011829" lon="12.141493"><ele>285.0</ele><time>2026-04-06T11:15:08.01Z</time></trkpt><trkpt lat="44.0117847" lon="12.1412913"><ele>285.25</ele><time>2026-04-06T11:15:09.008Z</time></trkpt><trkpt lat="44.0117387" lon="12.1410942"><ele>285.5</ele><time>2026-04-06T11:15:10.008Z</time></trkpt><trkpt lat="44.0116915" lon="12.1409081"><ele>285.75</ele><time>2026-04-06T11:15:11.012Z</time></trkpt><trkpt lat="44.0116475" lon="12.140732"><ele>286.0</ele><time>2026-04-06T11:15:12.01Z</time></trkpt><trkpt lat="44.0116067" lon="12.1405627"><ele>287.75</ele><time>2026-04-06T11:15:13.008Z</time></trkpt><trkpt lat="44.0115684" lon="12.1403967"><ele>289.5</ele><time>2026-04-06T11:15:14.009Z</time></trkpt><trkpt lat="44.0115391" lon="12.1402304"><ele>291.25</ele><time>2026-04-06T11:15:15.007Z</time></trkpt><trkpt lat="44.011523" lon="12.1400601"><ele>293.0</ele><time>2026-04-06T11:15:16.007Z</time></trkpt><trkpt lat="44.0115151" lon="12.1398842"><ele>293.5</ele><time>2026-04-06T11:15:17.006Z</time></trkpt><trkpt lat="44.0115117" lon="12.1397011"><ele>294.0</ele><time>2026-04-06T11:15:18.008Z</time></trkpt><trkpt lat="44.0115112" lon="12.1395012"><ele>294.5</ele><time>2026-04-06T11:15:19.008Z</time></trkpt><trkpt lat="44.011512" lon="12.1392849"><ele>295.0</ele><time>2026-04-06T11:15:20.006Z</time></trkpt><trkpt lat="44.0115216" lon="12.139052"><ele>295.25</ele><time>2026-04-06T11:15:21.008Z</time></trkpt><trkpt lat="44.0115292" lon="12.1388286"><ele>295.5</ele><time>2026-04-06T11:15:22.007Z</time></trkpt><trkpt lat="44.0115383" lon="12.1386298"><ele>295.75</ele><time>2026-04-06T11:15:23.007Z</time></trkpt><trkpt lat="44.0115559" lon="12.1384599"><ele>296.0</ele><time>2026-04-06T11:15:24.008Z</time></trkpt><trkpt lat="44.0115819" lon="12.1383011"><ele>296.5</ele><time>2026-04-06T11:15:25.007Z</time></trkpt><trkpt lat="44.0116138" lon="12.1381416"><ele>297.0</ele><time>2026-04-06T11:15:26.007Z</time></trkpt><trkpt lat="44.0116517" lon="12.1379828"><ele>297.5</ele><time>2026-04-06T11:15:27.008Z</time></trkpt><trkpt lat="44.0116937" lon="12.1378347"><ele>298.0</ele><time>2026-04-06T11:15:28.007Z</time></trkpt><trkpt lat="44.0117406" lon="12.137698"><ele>296.8</ele><time>2026-04-06T11:15:29.007Z</time></trkpt><trkpt lat="44.0118009" lon="12.1375711"><ele>295.6</ele><time>2026-04-06T11:15:30.007Z</time></trkpt><trkpt lat="44.0118676" lon="12.1374531"><ele>294.4</ele><time>2026-04-06T11:15:31.009Z</time></trkpt><trkpt lat="44.0119266" lon="12.1373384"><ele>293.2</ele><time>2026-04-06T11:15:32.006Z</time></trkpt><trkpt lat="44.0119774" lon="12.1372162"><ele>292.0</ele><time>2026-04-06T11:15:33.008Z</time></trkpt><trkpt lat="44.0120154" lon="12.1370769"><ele>292.0</ele><time>2026-04-06T11:15:34.009Z</time></trkpt><trkpt lat="44.0120486" lon="12.1369222"><ele>292.0</ele><time>2026-04-06T11:15:35.006Z</time></trkpt><trkpt lat="44.0120843" lon="12.1367658"><ele>292.0</ele><time>2026-04-06T11:15:36.007Z</time></trkpt><trkpt lat="44.0121176" lon="12.1366202"><ele>292.0</ele><time>2026-04-06T11:15:37.008Z</time></trkpt><trkpt lat="44.0121339" lon="12.1364841"><ele>292.0</ele><time>2026-04-06T11:15:38.006Z</time></trkpt><trkpt lat="44.01213" lon="12.1363536"><ele>290.25</ele><time>2026-04-06T11:15:39.009Z</time></trkpt><trkpt lat="44.0120959" lon="12.1362301"><ele>288.5</ele><time>2026-04-06T11:15:40.008Z</time></trkpt><trkpt lat="44.01203" lon="12.1361149"><ele>286.75</ele><time>2026-04-06T11:15:41.007Z</time></trkpt><trkpt lat="44.0119432" lon="12.1359979"><ele>285.0</ele><time>2026-04-06T11:15:42.007Z</time></trkpt><trkpt lat="44.0118407" lon="12.1358745"><ele>285.0</ele><time>2026-04-06T11:15:43.007Z</time></trkpt><trkpt lat="44.0117294" lon="12.1357483"><ele>285.0</ele><time>2026-04-06T11:15:44.007Z</time></trkpt><trkpt lat="44.0116053" lon="12.135619"><ele>285.0</ele><time>2026-04-06T11:15:45.009Z</time></trkpt><trkpt lat="44.0114726" lon="12.1354888"><ele>285.0</ele><time>2026-04-06T11:15:46.008Z</time></trkpt><trkpt lat="44.0113389" lon="12.1353634"><ele>285.0</ele><time>2026-04-06T11:15:47.009Z</time></trkpt><trkpt lat="44.0112062" lon="12.1352457"><ele>285.0</ele><time>2026-04-06T11:15:48.009Z</time></trkpt><trkpt lat="44.0110789" lon="12.1351377"><ele>285.0</ele><time>2026-04-06T11:15:49.007Z</time></trkpt><trkpt lat="44.0109573" lon="12.1350342"><ele>285.0</ele><time>2026-04-06T11:15:50.011Z</time></trkpt><trkpt lat="44.0108431" lon="12.1349346"><ele>285.0</ele><time>2026-04-06T11:15:51.007Z</time></trkpt><trkpt lat="44.0107266" lon="12.1348395"><ele>285.0</ele><time>2026-04-06T11:15:52.007Z</time></trkpt><trkpt lat="44.0106065" lon="12.1347522"><ele>285.5</ele><time>2026-04-06T11:15:53.01Z</time></trkpt><trkpt lat="44.0104908" lon="12.1346605"><ele>286.0</ele><time>2026-04-06T11:15:54.008Z</time></trkpt><trkpt lat="44.01038" lon="12.1345768"><ele>286.5</ele><time>2026-04-06T11:15:55.013Z</time></trkpt><trkpt lat="44.0102685" lon="12.134503"><ele>287.0</ele><time>2026-04-06T11:15:56.01Z</time></trkpt><trkpt lat="44.010152" lon="12.1344536"><ele>287.0</ele><time>2026-04-06T11:15:57.008Z</time></trkpt><trkpt lat="44.0100326" lon="12.1344238"><ele>287.0</ele><time>2026-04-06T11:15:58.008Z</time></trkpt><trkpt lat="44.0099251" lon="12.1343994"><ele>287.0</ele><time>2026-04-06T11:15:59.008Z</time></trkpt><trkpt lat="44.0098274" lon="12.1343707"><ele>287.0</ele><time>2026-04-06T11:16:00.01Z</time></trkpt><trkpt lat="44.0097359" lon="12.1343412"><ele>287.0</ele><time>2026-04-06T11:16:01.009Z</time></trkpt><trkpt lat="44.0096422" lon="12.1343086"><ele>286.8</ele><time>2026-04-06T11:16:02.012Z</time></trkpt><trkpt lat="44.0095477" lon="12.1342767"><ele>286.6</ele><time>2026-04-06T11:16:03.008Z</time></trkpt><trkpt lat="44.0094523" lon="12.1342401"><ele>286.40000000000003</ele><time>2026-04-06T11:16:04.008Z</time></trkpt><trkpt lat="44.0093526" lon="12.1341817"><ele>286.2</ele><time>2026-04-06T11:16:05.008Z</time></trkpt><trkpt lat="44.0092416" lon="12.1341206"><ele>286.0</ele><time>2026-04-06T11:16:06.007Z</time></trkpt><trkpt lat="44.0091271" lon="12.134049"><ele>286.0</ele><time>2026-04-06T11:16:07.008Z</time></trkpt><trkpt lat="44.0090092" lon="12.1339927"><ele>286.0</ele><time>2026-04-06T11:16:08.007Z</time></trkpt><trkpt lat="44.0088951" lon="12.1339402"><ele>286.0</ele><time>2026-04-06T11:16:09.008Z</time></trkpt><trkpt lat="44.0087882" lon="12.1338784"><ele>286.0</ele><time>2026-04-06T11:16:10.011Z</time></trkpt><trkpt lat="44.0086755" lon="12.1338274"><ele>286.0</ele><time>2026-04-06T11:16:11.01Z</time></trkpt><trkpt lat="44.008555" lon="12.1337795"><ele>286.0</ele><time>2026-04-06T11:16:12.009Z</time></trkpt><trkpt lat="44.0084283" lon="12.1337326"><ele>286.0</ele><time>2026-04-06T11:16:13.008Z</time></trkpt><trkpt lat="44.0082977" lon="12.13369"><ele>286.0</ele><time>2026-04-06T11:16:14.011Z</time></trkpt><trkpt lat="44.008167" lon="12.1336392"><ele>284.25</ele><time>2026-04-06T11:16:15.009Z</time></trkpt><trkpt lat="44.0080378" lon="12.1335889"><ele>282.5</ele><time>2026-04-06T11:16:16.008Z</time></trkpt><trkpt lat="44.0079078" lon="12.1335538"><ele>280.75</ele><time>2026-04-06T11:16:17.012Z</time></trkpt><trkpt lat="44.0077713" lon="12.1335285"><ele>279.0</ele><time>2026-04-06T11:16:18.007Z</time></trkpt><trkpt lat="44.0076309" lon="12.1334935"><ele>279.0</ele><time>2026-04-06T11:16:19.01Z</time></trkpt><trkpt lat="44.007495" lon="12.1334623"><ele>279.0</ele><time>2026-04-06T11:16:20.01Z</time></trkpt><trkpt lat="44.0073685" lon="12.1334262"><ele>279.0</ele><time>2026-04-06T11:16:21.007Z</time></trkpt><trkpt lat="44.007247" lon="12.1333933"><ele>279.0</ele><time>2026-04-06T11:16:22.011Z</time></trkpt><trkpt lat="44.00713" lon="12.1333414"><ele>278.0</ele><time>2026-04-06T11:16:23.008Z</time></trkpt><trkpt lat="44.0070181" lon="12.1332999"><ele>277.0</ele><time>2026-04-06T11:16:24.008Z</time></trkpt><trkpt lat="44.0069184" lon="12.1332699"><ele>276.0</ele><time>2026-04-06T11:16:25.008Z</time></trkpt><trkpt lat="44.0068242" lon="12.1332427"><ele>275.0</ele><time>2026-04-06T11:16:26.009Z</time></trkpt><trkpt lat="44.0067362" lon="12.13322"><ele>274.0</ele><time>2026-04-06T11:16:27.011Z</time></trkpt><trkpt lat="44.0066604" lon="12.1332018"><ele>271.5</ele><time>2026-04-06T11:16:28.007Z</time></trkpt><trkpt lat="44.0065898" lon="12.1331868"><ele>269.0</ele><time>2026-04-06T11:16:29.013Z</time></trkpt><trkpt lat="44.0065237" lon="12.1331714"><ele>266.5</ele><time>2026-04-06T11:16:30.008Z</time></trkpt><trkpt lat="44.0064042" lon="12.1331454"><ele>264.0</ele><time>2026-04-06T11:16:32.01Z</time></trkpt><trkpt lat="44.006336" lon="12.1331446"><ele>261.5</ele><time>2026-04-06T11:16:33.009Z</time></trkpt><trkpt lat="44.0062573" lon="12.1331556"><ele>259.0</ele><time>2026-04-06T11:16:34.009Z</time></trkpt><trkpt lat="44.0061709" lon="12.1331903"><ele>260.5</ele><time>2026-04-06T11:16:35.008Z</time></trkpt><trkpt lat="44.0060694" lon="12.1332409"><ele>262.0</ele><time>2026-04-06T11:16:36.008Z</time></trkpt><trkpt lat="44.0059535" lon="12.1333151"><ele>263.5</ele><time>2026-04-06T11:16:37.01Z</time></trkpt><trkpt lat="44.0058246" lon="12.1333881"><ele>265.0</ele><time>2026-04-06T11:16:38.011Z</time></trkpt><trkpt lat="44.0056817" lon="12.1334823"><ele>265.0</ele><time>2026-04-06T11:16:39.008Z</time></trkpt><trkpt lat="44.0055361" lon="12.1335905"><ele>265.0</ele><time>2026-04-06T11:16:40.009Z</time></trkpt><trkpt lat="44.0053884" lon="12.1336745"><ele>265.0</ele><time>2026-04-06T11:16:41.009Z</time></trkpt><trkpt lat="44.0052504" lon="12.133753"><ele>265.0</ele><time>2026-04-06T11:16:42.007Z</time></trkpt><trkpt lat="44.0051133" lon="12.1338416"><ele>265.0</ele><time>2026-04-06T11:16:43.01Z</time></trkpt><trkpt lat="44.0049854" lon="12.1339242"><ele>265.0</ele><time>2026-04-06T11:16:44.009Z</time></trkpt><trkpt lat="44.0048567" lon="12.1340092"><ele>265.0</ele><time>2026-04-06T11:16:45.009Z</time></trkpt><trkpt lat="44.0047132" lon="12.1341006"><ele>268.0</ele><time>2026-04-06T11:16:46.008Z</time></trkpt><trkpt lat="44.0045659" lon="12.1341865"><ele>271.0</ele><time>2026-04-06T11:16:47.008Z</time></trkpt><trkpt lat="44.0044214" lon="12.1342719"><ele>274.0</ele><time>2026-04-06T11:16:48.012Z</time></trkpt><trkpt lat="44.0042888" lon="12.1343466"><ele>273.25</ele><time>2026-04-06T11:16:49.008Z</time></trkpt><trkpt lat="44.0041605" lon="12.1344133"><ele>272.5</ele><time>2026-04-06T11:16:50.009Z</time></trkpt><trkpt lat="44.0040329" lon="12.134477"><ele>271.75</ele><time>2026-04-06T11:16:51.01Z</time></trkpt><trkpt lat="44.0039159" lon="12.1345273"><ele>271.0</ele><time>2026-04-06T11:16:52.009Z</time></trkpt><trkpt lat="44.0038047" lon="12.1345662"><ele>271.0</ele><time>2026-04-06T11:16:53.008Z</time></trkpt><trkpt lat="44.0036988" lon="12.1345984"><ele>271.0</ele><time>2026-04-06T11:16:54.009Z</time></trkpt><trkpt lat="44.0036004" lon="12.134638"><ele>271.0</ele><time>2026-04-06T11:16:55.01Z</time></trkpt><trkpt lat="44.0035106" lon="12.1346889"><ele>271.0</ele><time>2026-04-06T11:16:56.008Z</time></trkpt><trkpt lat="44.0034267" lon="12.134764"><ele>271.0</ele><time>2026-04-06T11:16:57.01Z</time></trkpt><trkpt lat="44.0033466" lon="12.1348779"><ele>271.75</ele><time>2026-04-06T11:16:58.008Z</time></trkpt><trkpt lat="44.0032637" lon="12.1350112"><ele>272.5</ele><time>2026-04-06T11:16:59.008Z</time></trkpt><trkpt lat="44.0031763" lon="12.1351581"><ele>273.25</ele><time>2026-04-06T11:17:00.01Z</time></trkpt><trkpt lat="44.0030906" lon="12.1353101"><ele>274.0</ele><time>2026-04-06T11:17:01.008Z</time></trkpt><trkpt lat="44.003006" lon="12.1354598"><ele>274.0</ele><time>2026-04-06T11:17:02.008Z</time></trkpt><trkpt lat="44.0029225" lon="12.1356074"><ele>274.0</ele><time>2026-04-06T11:17:03.006Z</time></trkpt><trkpt lat="44.002838" lon="12.1357585"><ele>274.0</ele><time>2026-04-06T11:17:04.007Z</time></trkpt><trkpt lat="44.0027504" lon="12.1359105"><ele>274.0</ele><time>2026-04-06T11:17:05.007Z</time></trkpt><trkpt lat="44.0026605" lon="12.1360623"><ele>276.0</ele><time>2026-04-06T11:17:06.007Z</time></trkpt><trkpt lat="44.002572" lon="12.1362111"><ele>278.0</ele><time>2026-04-06T11:17:07.009Z</time></trkpt><trkpt lat="44.0024867" lon="12.1363534"><ele>280.0</ele><time>2026-04-06T11:17:08.007Z</time></trkpt><trkpt lat="44.0024063" lon="12.1364859"><ele>282.0</ele><time>2026-04-06T11:17:09.008Z</time></trkpt><trkpt lat="44.0023269" lon="12.1366017"><ele>283.75</ele><time>2026-04-06T11:17:10.008Z</time></trkpt><trkpt lat="44.0022407" lon="12.1367048"><ele>285.5</ele><time>2026-04-06T11:17:11.008Z</time></trkpt><trkpt lat="44.0021452" lon="12.1367993"><ele>287.25</ele><time>2026-04-06T11:17:12.011Z</time></trkpt><trkpt lat="44.0020397" lon="12.1368914"><ele>289.0</ele><time>2026-04-06T11:17:13.009Z</time></trkpt><trkpt lat="44.0019302" lon="12.1369897"><ele>289.0</ele><time>2026-04-06T11:17:14.007Z</time></trkpt><trkpt lat="44.0018235" lon="12.1370813"><ele>289.0</ele><time>2026-04-06T11:17:15.008Z</time></trkpt><trkpt lat="44.0017241" lon="12.1371628"><ele>289.0</ele><time>2026-04-06T11:17:16.009Z</time></trkpt><trkpt lat="44.0016293" lon="12.1372335"><ele>289.0</ele><time>2026-04-06T11:17:17.005Z</time></trkpt><trkpt lat="44.0015414" lon="12.1372929"><ele>289.0</ele><time>2026-04-06T11:17:18.01Z</time></trkpt><trkpt lat="44.0014529" lon="12.1373394"><ele>289.2</ele><time>2026-04-06T11:17:19.008Z</time></trkpt><trkpt lat="44.0013618" lon="12.1373752"><ele>289.4</ele><time>2026-04-06T11:17:20.009Z</time></trkpt><trkpt lat="44.0012699" lon="12.1374065"><ele>289.6</ele><time>2026-04-06T11:17:21.009Z</time></trkpt><trkpt lat="44.0011726" lon="12.1374482"><ele>289.8</ele><time>2026-04-06T11:17:22.008Z</time></trkpt><trkpt lat="44.0010666" lon="12.137494"><ele>290.0</ele><time>2026-04-06T11:17:23.008Z</time></trkpt><trkpt lat="44.0009506" lon="12.1375379"><ele>288.75</ele><time>2026-04-06T11:17:24.01Z</time></trkpt><trkpt lat="44.0008292" lon="12.1375764"><ele>287.5</ele><time>2026-04-06T11:17:25.012Z</time></trkpt><trkpt lat="44.0007112" lon="12.1376115"><ele>286.25</ele><time>2026-04-06T11:17:26.008Z</time></trkpt><trkpt lat="44.0006067" lon="12.1376446"><ele>285.0</ele><time>2026-04-06T11:17:27.008Z</time></trkpt><trkpt lat="44.0005107" lon="12.1376827"><ele>285.0</ele><time>2026-04-06T11:17:28.008Z</time></trkpt><trkpt lat="44.0004158" lon="12.1377303"><ele>285.0</ele><time>2026-04-06T11:17:29.009Z</time></trkpt><trkpt lat="44.0003228" lon="12.1378039"><ele>285.0</ele><time>2026-04-06T11:17:30.007Z</time></trkpt><trkpt lat="44.0002343" lon="12.1379071"><ele>285.0</ele><time>2026-04-06T11:17:31.009Z</time></trkpt><trkpt lat="44.0001482" lon="12.1380337"><ele>285.0</ele><time>2026-04-06T11:17:32.009Z</time></trkpt><trkpt lat="44.0000661" lon="12.138171"><ele>284.0</ele><time>2026-04-06T11:17:33.009Z</time></trkpt><trkpt lat="43.9999891" lon="12.138307"><ele>283.0</ele><time>2026-04-06T11:17:34.008Z</time></trkpt><trkpt lat="43.9999108" lon="12.1384295"><ele>282.0</ele><time>2026-04-06T11:17:35.009Z</time></trkpt><trkpt lat="43.9998263" lon="12.1385281"><ele>281.0</ele><time>2026-04-06T11:17:36.01Z</time></trkpt><trkpt lat="43.999734" lon="12.1386031"><ele>281.0</ele><time>2026-04-06T11:17:37.01Z</time></trkpt><trkpt lat="43.999625" lon="12.1386533"><ele>281.0</ele><time>2026-04-06T11:17:38.008Z</time></trkpt><trkpt lat="43.9995083" lon="12.1387017"><ele>281.0</ele><time>2026-04-06T11:17:39.008Z</time></trkpt><trkpt lat="43.9993833" lon="12.13875"><ele>281.0</ele><time>2026-04-06T11:17:40.007Z</time></trkpt><trkpt lat="43.9992617" lon="12.1388117"><ele>280.5</ele><time>2026-04-06T11:17:41.009Z</time></trkpt><trkpt lat="43.99915" lon="12.1388967"><ele>280.0</ele><time>2026-04-06T11:17:42.008Z</time></trkpt><trkpt lat="43.9990467" lon="12.139015"><ele>279.5</ele><time>2026-04-06T11:17:43.011Z</time></trkpt><trkpt lat="43.99895" lon="12.1391567"><ele>279.0</ele><time>2026-04-06T11:17:44.009Z</time></trkpt><trkpt lat="43.9988567" lon="12.1393"><ele>279.0</ele><time>2026-04-06T11:17:45.008Z</time></trkpt><trkpt lat="43.9987633" lon="12.1394333"><ele>279.0</ele><time>2026-04-06T11:17:46.007Z</time></trkpt><trkpt lat="43.9986683" lon="12.1395517"><ele>279.0</ele><time>2026-04-06T11:17:47.007Z</time></trkpt><trkpt lat="43.9985733" lon="12.1396433"><ele>279.0</ele><time>2026-04-06T11:17:48.008Z</time></trkpt><trkpt lat="43.9984833" lon="12.1397067"><ele>279.0</ele><time>2026-04-06T11:17:49.009Z</time></trkpt><trkpt lat="43.9984033" lon="12.13974"><ele>279.0</ele><time>2026-04-06T11:17:50.012Z</time></trkpt><trkpt lat="43.9983283" lon="12.1397483"><ele>279.0</ele><time>2026-04-06T11:17:51.009Z</time></trkpt><trkpt lat="43.9982583" lon="12.1397367"><ele>279.0</ele><time>2026-04-06T11:17:52.008Z</time></trkpt><trkpt lat="43.9981917" lon="12.1397117"><ele>279.0</ele><time>2026-04-06T11:17:53.008Z</time></trkpt><trkpt lat="43.9981167" lon="12.1396883"><ele>279.0</ele><time>2026-04-06T11:17:54.007Z</time></trkpt><trkpt lat="43.9980383" lon="12.1396617"><ele>279.59999999999997</ele><time>2026-04-06T11:17:55.007Z</time></trkpt><trkpt lat="43.9979583" lon="12.1396333"><ele>280.2</ele><time>2026-04-06T11:17:56.008Z</time></trkpt><trkpt lat="43.9978767" lon="12.1396033"><ele>280.79999999999995</ele><time>2026-04-06T11:17:57.009Z</time></trkpt><trkpt lat="43.9977883" lon="12.1395683"><ele>281.4</ele><time>2026-04-06T11:17:58.009Z</time></trkpt><trkpt lat="43.9976933" lon="12.1395233"><ele>282.0</ele><time>2026-04-06T11:17:59.007Z</time></trkpt><trkpt lat="43.9976" lon="12.13947"><ele>282.0</ele><time>2026-04-06T11:18:00.087Z</time></trkpt><trkpt lat="43.9975067" lon="12.1394"><ele>282.0</ele><time>2026-04-06T11:18:01.007Z</time></trkpt><trkpt lat="43.9974283" lon="12.1393167"><ele>282.0</ele><time>2026-04-06T11:18:02.008Z</time></trkpt><trkpt lat="43.9973533" lon="12.13924"><ele>282.0</ele><time>2026-04-06T11:18:03.01Z</time></trkpt><trkpt lat="43.99728" lon="12.1391533"><ele>282.0</ele><time>2026-04-06T11:18:04.008Z</time></trkpt><trkpt lat="43.99721" lon="12.1390617"><ele>284.2</ele><time>2026-04-06T11:18:05.009Z</time></trkpt><trkpt lat="43.9971333" lon="12.13897"><ele>286.4</ele><time>2026-04-06T11:18:06.009Z</time></trkpt><trkpt lat="43.9970567" lon="12.1388733"><ele>288.6</ele><time>2026-04-06T11:18:07.009Z</time></trkpt><trkpt lat="43.9969817" lon="12.13878"><ele>290.8</ele><time>2026-04-06T11:18:08.007Z</time></trkpt><trkpt lat="43.9969017" lon="12.1386917"><ele>293.0</ele><time>2026-04-06T11:18:09.011Z</time></trkpt><trkpt lat="43.99682" lon="12.1386067"><ele>293.0</ele><time>2026-04-06T11:18:10.008Z</time></trkpt><trkpt lat="43.9967333" lon="12.138525"><ele>293.0</ele><time>2026-04-06T11:18:11.008Z</time></trkpt><trkpt lat="43.9966483" lon="12.13846"><ele>293.0</ele><time>2026-04-06T11:18:12.008Z</time></trkpt><trkpt lat="43.9965659" lon="12.1383982"><ele>293.0</ele><time>2026-04-06T11:18:13.008Z</time></trkpt><trkpt lat="43.9964839" lon="12.1383517"><ele>293.0</ele><time>2026-04-06T11:18:14.007Z</time></trkpt><trkpt lat="43.9963962" lon="12.1383251"><ele>295.6</ele><time>2026-04-06T11:18:15.008Z</time></trkpt><trkpt lat="43.9963104" lon="12.1383214"><ele>298.20000000000005</ele><time>2026-04-06T11:18:16.007Z</time></trkpt><trkpt lat="43.9962214" lon="12.1383461"><ele>300.8</ele><time>2026-04-06T11:18:17.007Z</time></trkpt><trkpt lat="43.996126" lon="12.1383903"><ele>303.40000000000003</ele><time>2026-04-06T11:18:18.009Z</time></trkpt><trkpt lat="43.9960262" lon="12.13845"><ele>306.0</ele><time>2026-04-06T11:18:19.008Z</time></trkpt><trkpt lat="43.9959173" lon="12.1385228"><ele>308.0</ele><time>2026-04-06T11:18:20.013Z</time></trkpt><trkpt lat="43.9958062" lon="12.1385931"><ele>310.0</ele><time>2026-04-06T11:18:21.009Z</time></trkpt><trkpt lat="43.9957059" lon="12.138659"><ele>312.0</ele><time>2026-04-06T11:18:22.009Z</time></trkpt><trkpt lat="43.9956191" lon="12.1387159"><ele>314.0</ele><time>2026-04-06T11:18:23.007Z</time></trkpt><trkpt lat="43.995546" lon="12.1387677"><ele>316.0</ele><time>2026-04-06T11:18:24.009Z</time></trkpt><trkpt lat="43.9954828" lon="12.1388147"><ele>316.0</ele><time>2026-04-06T11:18:25.007Z</time></trkpt><trkpt lat="43.9954224" lon="12.1388528"><ele>316.0</ele><time>2026-04-06T11:18:26.009Z</time></trkpt><trkpt lat="43.9953626" lon="12.1388856"><ele>316.0</ele><time>2026-04-06T11:18:27.008Z</time></trkpt><trkpt lat="43.9952918" lon="12.1389269"><ele>316.0</ele><time>2026-04-06T11:18:28.008Z</time></trkpt><trkpt lat="43.9952139" lon="12.138979"><ele>316.0</ele><time>2026-04-06T11:18:29.01Z</time></trkpt><trkpt lat="43.9951256" lon="12.139045"><ele>316.0</ele><time>2026-04-06T11:18:30.008Z</time></trkpt><trkpt lat="43.9950278" lon="12.1391233"><ele>316.8</ele><time>2026-04-06T11:18:31.008Z</time></trkpt><trkpt lat="43.9949342" lon="12.1391977"><ele>317.6</ele><time>2026-04-06T11:18:32.008Z</time></trkpt><trkpt lat="43.9948473" lon="12.1392599"><ele>318.4</ele><time>2026-04-06T11:18:33.007Z</time></trkpt><trkpt lat="43.9947589" lon="12.1393137"><ele>319.2</ele><time>2026-04-06T11:18:34.008Z</time></trkpt><trkpt lat="43.9946646" lon="12.1393636"><ele>320.0</ele><time>2026-04-06T11:18:35.008Z</time></trkpt><trkpt lat="43.9945714" lon="12.1394088"><ele>320.0</ele><time>2026-04-06T11:18:36.01Z</time></trkpt><trkpt lat="43.9944848" lon="12.1394486"><ele>320.0</ele><time>2026-04-06T11:18:37.008Z</time></trkpt><trkpt lat="43.9944059" lon="12.139478"><ele>320.0</ele><time>2026-04-06T11:18:38.008Z</time></trkpt><trkpt lat="43.9943377" lon="12.1395007"><ele>320.0</ele><time>2026-04-06T11:18:39.007Z</time></trkpt><trkpt lat="43.9942472" lon="12.1395109"><ele>320.0</ele><time>2026-04-06T11:18:41.007Z</time></trkpt><trkpt lat="43.9941683" lon="12.13954"><ele>320.0</ele><time>2026-04-06T11:23:39.008Z</time></trkpt><trkpt lat="43.994035" lon="12.1396083"><ele>319.2</ele><time>2026-04-06T11:23:41.009Z</time></trkpt><trkpt lat="43.993945" lon="12.1396433"><ele>318.4</ele><time>2026-04-06T11:23:42.008Z</time></trkpt><trkpt lat="43.9938417" lon="12.13968"><ele>317.6</ele><time>2026-04-06T11:23:43.01Z</time></trkpt><trkpt lat="43.9937267" lon="12.1397117"><ele>316.8</ele><time>2026-04-06T11:23:44.009Z</time></trkpt><trkpt lat="43.9936283" lon="12.1397333"><ele>316.0</ele><time>2026-04-06T11:23:45.012Z</time></trkpt><trkpt lat="43.993535" lon="12.1397517"><ele>316.0</ele><time>2026-04-06T11:23:46.009Z</time></trkpt><trkpt lat="43.99345" lon="12.1397617"><ele>316.0</ele><time>2026-04-06T11:23:47.008Z</time></trkpt><trkpt lat="43.993375" lon="12.1397583"><ele>316.0</ele><time>2026-04-06T11:23:48.01Z</time></trkpt><trkpt lat="43.9933117" lon="12.1397567"><ele>316.0</ele><time>2026-04-06T11:23:49.011Z</time></trkpt><trkpt lat="43.9932217" lon="12.1397083"><ele>316.0</ele><time>2026-04-06T11:23:51.01Z</time></trkpt><trkpt lat="43.9931367" lon="12.139625"><ele>316.0</ele><time>2026-04-06T11:23:53.008Z</time></trkpt><trkpt lat="43.993085" lon="12.1395683"><ele>317.16666666666663</ele><time>2026-04-06T11:23:54.009Z</time></trkpt><trkpt lat="43.993035" lon="12.1395083"><ele>318.3333333333333</ele><time>2026-04-06T11:23:55.009Z</time></trkpt><trkpt lat="43.9929783" lon="12.1394583"><ele>319.5</ele><time>2026-04-06T11:23:56.008Z</time></trkpt><trkpt lat="43.992895" lon="12.1393517"><ele>320.6666666666667</ele><time>2026-04-06T11:23:58.012Z</time></trkpt><trkpt lat="43.9928667" lon="12.1392217"><ele>321.83333333333337</ele><time>2026-04-06T11:24:00.011Z</time></trkpt><trkpt lat="43.9928367" lon="12.13914"><ele>323.0</ele><time>2026-04-06T11:24:02.008Z</time></trkpt><trkpt lat="43.9927683" lon="12.1391267"><ele>323.0</ele><time>2026-04-06T11:24:14.009Z</time></trkpt><trkpt lat="43.9927017" lon="12.13916"><ele>323.0</ele><time>2026-04-06T11:24:16.009Z</time></trkpt><trkpt lat="43.9926133" lon="12.1392167"><ele>323.0</ele><time>2026-04-06T11:24:18.01Z</time></trkpt><trkpt lat="43.99255" lon="12.139235"><ele>323.0</ele><time>2026-04-06T11:24:19.009Z</time></trkpt><trkpt lat="43.9924783" lon="12.1392467"><ele>323.0</ele><time>2026-04-06T11:24:20.008Z</time></trkpt><trkpt lat="43.992405" lon="12.139245"><ele>323.0</ele><time>2026-04-06T11:24:21.009Z</time></trkpt><trkpt lat="43.9922676" lon="12.1392518"><ele>323.14285714285717</ele><time>2026-04-06T11:24:23.006Z</time></trkpt><trkpt lat="43.9921913" lon="12.1392435"><ele>323.2857142857143</ele><time>2026-04-06T11:24:24.009Z</time></trkpt><trkpt lat="43.992122" lon="12.1392405"><ele>323.42857142857144</ele><time>2026-04-06T11:24:25.01Z</time></trkpt><trkpt lat="43.9920562" lon="12.1392317"><ele>323.57142857142856</ele><time>2026-04-06T11:24:26.009Z</time></trkpt><trkpt lat="43.9919885" lon="12.1392178"><ele>323.7142857142857</ele><time>2026-04-06T11:24:27.01Z</time></trkpt><trkpt lat="43.9919175" lon="12.139212"><ele>323.8571428571429</ele><time>2026-04-06T11:24:28.01Z</time></trkpt><trkpt lat="43.9918471" lon="12.1392135"><ele>324.0</ele><time>2026-04-06T11:24:29.008Z</time></trkpt><trkpt lat="43.9917811" lon="12.1392144"><ele>324.0</ele><time>2026-04-06T11:24:30.009Z</time></trkpt><trkpt lat="43.9917178" lon="12.1391998"><ele>324.0</ele><time>2026-04-06T11:24:31.011Z</time></trkpt><trkpt lat="43.9916583" lon="12.1391662"><ele>324.0</ele><time>2026-04-06T11:24:32.01Z</time></trkpt><trkpt lat="43.9915959" lon="12.1391234"><ele>324.0</ele><time>2026-04-06T11:24:33.011Z</time></trkpt><trkpt lat="43.9915355" lon="12.1390702"><ele>324.0</ele><time>2026-04-06T11:24:34.01Z</time></trkpt><trkpt lat="43.9914753" lon="12.139016"><ele>324.0</ele><time>2026-04-06T11:24:35.01Z</time></trkpt><trkpt lat="43.9914128" lon="12.1389735"><ele>324.0</ele><time>2026-04-06T11:24:36.009Z</time></trkpt><trkpt lat="43.9913497" lon="12.1389449"><ele>326.3333333333333</ele><time>2026-04-06T11:24:37.008Z</time></trkpt><trkpt lat="43.9912783" lon="12.1389267"><ele>328.6666666666667</ele><time>2026-04-06T11:24:38.009Z</time></trkpt><trkpt lat="43.9912019" lon="12.1389114"><ele>331.0</ele><time>2026-04-06T11:24:39.01Z</time></trkpt><trkpt lat="43.9911257" lon="12.1388987"><ele>333.33333333333337</ele><time>2026-04-06T11:24:40.01Z</time></trkpt><trkpt lat="43.9910486" lon="12.1388846"><ele>335.6666666666667</ele><time>2026-04-06T11:24:41.01Z</time></trkpt><trkpt lat="43.9909715" lon="12.1388666"><ele>338.0</ele><time>2026-04-06T11:24:42.008Z</time></trkpt><trkpt lat="43.9908961" lon="12.1388413"><ele>339.33333333333337</ele><time>2026-04-06T11:24:43.008Z</time></trkpt><trkpt lat="43.9908278" lon="12.1388094"><ele>340.6666666666667</ele><time>2026-04-06T11:24:44.009Z</time></trkpt><trkpt lat="43.9907697" lon="12.1387712"><ele>342.0</ele><time>2026-04-06T11:24:45.008Z</time></trkpt><trkpt lat="43.9906759" lon="12.1386483"><ele>343.3333333333333</ele><time>2026-04-06T11:24:47.009Z</time></trkpt><trkpt lat="43.9906288" lon="12.1385662"><ele>344.66666666666663</ele><time>2026-04-06T11:24:48.01Z</time></trkpt><trkpt lat="43.9905891" lon="12.1384759"><ele>346.0</ele><time>2026-04-06T11:24:49.009Z</time></trkpt><trkpt lat="43.9905641" lon="12.1383838"><ele>346.0</ele><time>2026-04-06T11:24:50.007Z</time></trkpt><trkpt lat="43.9905445" lon="12.1382296"><ele>346.0</ele><time>2026-04-06T11:24:52.008Z</time></trkpt><trkpt lat="43.9905274" lon="12.1380911"><ele>346.0</ele><time>2026-04-06T11:24:54.01Z</time></trkpt><trkpt lat="43.9904798" lon="12.1380016"><ele>346.0</ele><time>2026-04-06T11:24:56.009Z</time></trkpt><trkpt lat="43.9904244" lon="12.1379552"><ele>346.0</ele><time>2026-04-06T11:24:59.008Z</time></trkpt><trkpt lat="43.99036" lon="12.1379333"><ele>346.0</ele><time>2026-04-06T11:25:14.006Z</time></trkpt><trkpt lat="43.9902917" lon="12.13797"><ele>344.8</ele><time>2026-04-06T11:25:16.006Z</time></trkpt><trkpt lat="43.990235" lon="12.1380417"><ele>343.6</ele><time>2026-04-06T11:25:19.008Z</time></trkpt><trkpt lat="43.9901967" lon="12.138115"><ele>342.4</ele><time>2026-04-06T11:25:21.007Z</time></trkpt><trkpt lat="43.9901245" lon="12.1381977"><ele>341.2</ele><time>2026-04-06T11:25:25.082Z</time></trkpt><trkpt lat="43.9899978" lon="12.1383043"><ele>340.0</ele><time>2026-04-06T11:25:28.007Z</time></trkpt><trkpt lat="43.9899298" lon="12.1383513"><ele>343.8</ele><time>2026-04-06T11:25:29.008Z</time></trkpt><trkpt lat="43.9898235" lon="12.1384021"><ele>347.6</ele><time>2026-04-06T11:25:31.007Z</time></trkpt><trkpt lat="43.9897239" lon="12.1384159"><ele>351.4</ele><time>2026-04-06T11:25:33.008Z</time></trkpt><trkpt lat="43.9896185" lon="12.1383974"><ele>355.2</ele><time>2026-04-06T11:25:35.007Z</time></trkpt><trkpt lat="43.9895041" lon="12.1384005"><ele>359.0</ele><time>2026-04-06T11:25:37.008Z</time></trkpt><trkpt lat="43.9893826" lon="12.1383928"><ele>359.0</ele><time>2026-04-06T11:25:39.008Z</time></trkpt><trkpt lat="43.9892621" lon="12.1383815"><ele>359.0</ele><time>2026-04-06T11:25:41.008Z</time></trkpt><trkpt lat="43.989151" lon="12.1383541"><ele>359.0</ele><time>2026-04-06T11:25:43.007Z</time></trkpt><trkpt lat="43.9890566" lon="12.1382864"><ele>359.0</ele><time>2026-04-06T11:25:45.008Z</time></trkpt><trkpt lat="43.9889655" lon="12.1381738"><ele>359.8571428571429</ele><time>2026-04-06T11:25:47.006Z</time></trkpt><trkpt lat="43.9889139" lon="12.1380956"><ele>360.7142857142857</ele><time>2026-04-06T11:25:48.01Z</time></trkpt><trkpt lat="43.9888561" lon="12.1380181"><ele>361.57142857142856</ele><time>2026-04-06T11:25:49.008Z</time></trkpt><trkpt lat="43.9887966" lon="12.1379588"><ele>362.42857142857144</ele><time>2026-04-06T11:25:50.007Z</time></trkpt><trkpt lat="43.9887335" lon="12.1379202"><ele>363.2857142857143</ele><time>2026-04-06T11:25:51.014Z</time></trkpt><trkpt lat="43.988667" lon="12.1378991"><ele>364.14285714285717</ele><time>2026-04-06T11:25:52.007Z</time></trkpt><trkpt lat="43.9886001" lon="12.1378973"><ele>365.0</ele><time>2026-04-06T11:25:53.008Z</time></trkpt><trkpt lat="43.9885323" lon="12.1379053"><ele>365.0</ele><time>2026-04-06T11:25:54.008Z</time></trkpt><trkpt lat="43.9884662" lon="12.1379108"><ele>365.0</ele><time>2026-04-06T11:25:55.009Z</time></trkpt><trkpt lat="43.9883447" lon="12.137892"><ele>365.0</ele><time>2026-04-06T11:25:57.014Z</time></trkpt><trkpt lat="43.9882429" lon="12.1378417"><ele>365.0</ele><time>2026-04-06T11:25:59.006Z</time></trkpt><trkpt lat="43.988155" lon="12.13776"><ele>365.0</ele><time>2026-04-06T11:26:01.006Z</time></trkpt><trkpt lat="43.9880838" lon="12.1376964"><ele>367.0</ele><time>2026-04-06T11:26:03.009Z</time></trkpt><trkpt lat="43.9879982" lon="12.1376693"><ele>369.0</ele><time>2026-04-06T11:26:05.011Z</time></trkpt><trkpt lat="43.9879003" lon="12.137684"><ele>371.0</ele><time>2026-04-06T11:26:07.011Z</time></trkpt><trkpt lat="43.9877879" lon="12.1377653"><ele>373.0</ele><time>2026-04-06T11:26:09.008Z</time></trkpt><trkpt lat="43.9877261" lon="12.1378038"><ele>375.0</ele><time>2026-04-06T11:26:10.006Z</time></trkpt><trkpt lat="43.9876633" lon="12.1378334"><ele>377.0</ele><time>2026-04-06T11:26:11.006Z</time></trkpt><trkpt lat="43.9875929" lon="12.1378632"><ele>376.99999999999994</ele><time>2026-04-06T11:26:12.008Z</time></trkpt><trkpt lat="43.9875192" lon="12.1378955"><ele>377.0</ele><time>2026-04-06T11:26:13.008Z</time></trkpt><trkpt lat="43.987449" lon="12.1379349"><ele>377.0</ele><time>2026-04-06T11:26:14.011Z</time></trkpt><trkpt lat="43.987382" lon="12.1379853"><ele>377.0</ele><time>2026-04-06T11:26:15.007Z</time></trkpt><trkpt lat="43.9873222" lon="12.138042"><ele>377.0</ele><time>2026-04-06T11:26:16.007Z</time></trkpt><trkpt lat="43.9872655" lon="12.1380995"><ele>376.99999999999994</ele><time>2026-04-06T11:26:17.008Z</time></trkpt><trkpt lat="43.9872093" lon="12.1381612"><ele>377.0</ele><time>2026-04-06T11:26:18.008Z</time></trkpt><trkpt lat="43.9871515" lon="12.1382302"><ele>382.6666666666667</ele><time>2026-04-06T11:26:19.014Z</time></trkpt><trkpt lat="43.9870921" lon="12.138302"><ele>388.33333333333337</ele><time>2026-04-06T11:26:20.009Z</time></trkpt><trkpt lat="43.9870307" lon="12.1383784"><ele>394.0</ele><time>2026-04-06T11:26:21.006Z</time></trkpt><trkpt lat="43.9869675" lon="12.1384666"><ele>399.6666666666667</ele><time>2026-04-06T11:26:22.009Z</time></trkpt><trkpt lat="43.9869055" lon="12.1385577"><ele>405.3333333333333</ele><time>2026-04-06T11:26:23.008Z</time></trkpt><trkpt lat="43.9868438" lon="12.1386514"><ele>411.0</ele><time>2026-04-06T11:26:24.011Z</time></trkpt><trkpt lat="43.9867732" lon="12.1387384"><ele>411.0</ele><time>2026-04-06T11:26:25.008Z</time></trkpt><trkpt lat="43.9867009" lon="12.1388101"><ele>411.0</ele><time>2026-04-06T11:26:26.008Z</time></trkpt><trkpt lat="43.9866261" lon="12.1388794"><ele>411.0</ele><time>2026-04-06T11:26:27.007Z</time></trkpt><trkpt lat="43.9865505" lon="12.1389461"><ele>411.0</ele><time>2026-04-06T11:26:28.008Z</time></trkpt><trkpt lat="43.9864764" lon="12.1390165"><ele>411.0</ele><time>2026-04-06T11:26:29.007Z</time></trkpt><trkpt lat="43.9864079" lon="12.139091"><ele>411.0</ele><time>2026-04-06T11:26:30.008Z</time></trkpt><trkpt lat="43.9863479" lon="12.1391798"><ele>412.20000000000005</ele><time>2026-04-06T11:26:31.012Z</time></trkpt><trkpt lat="43.9862901" lon="12.1392756"><ele>413.40000000000003</ele><time>2026-04-06T11:26:32.008Z</time></trkpt><trkpt lat="43.9862351" lon="12.1393754"><ele>414.6</ele><time>2026-04-06T11:26:33.007Z</time></trkpt><trkpt lat="43.986178" lon="12.1394734"><ele>415.8</ele><time>2026-04-06T11:26:34.008Z</time></trkpt><trkpt lat="43.9861188" lon="12.1395692"><ele>417.0</ele><time>2026-04-06T11:26:35.006Z</time></trkpt><trkpt lat="43.9860552" lon="12.1396615"><ele>417.0</ele><time>2026-04-06T11:26:36.009Z</time></trkpt><trkpt lat="43.9859927" lon="12.1397489"><ele>417.0</ele><time>2026-04-06T11:26:37.007Z</time></trkpt><trkpt lat="43.9859321" lon="12.1398313"><ele>417.0</ele><time>2026-04-06T11:26:38.009Z</time></trkpt><trkpt lat="43.9858733" lon="12.1399033"><ele>417.0</ele><time>2026-04-06T11:26:39.008Z</time></trkpt><trkpt lat="43.9858123" lon="12.1399619"><ele>417.0</ele><time>2026-04-06T11:26:40.005Z</time></trkpt><trkpt lat="43.985744" lon="12.1400006"><ele>417.0</ele><time>2026-04-06T11:26:41.012Z</time></trkpt><trkpt lat="43.9856714" lon="12.1400299"><ele>418.0</ele><time>2026-04-06T11:26:42.007Z</time></trkpt><trkpt lat="43.9855961" lon="12.1400443"><ele>419.0</ele><time>2026-04-06T11:26:43.007Z</time></trkpt><trkpt lat="43.9855189" lon="12.1400545"><ele>420.0</ele><time>2026-04-06T11:26:44.008Z</time></trkpt><trkpt lat="43.9854443" lon="12.14007"><ele>421.0</ele><time>2026-04-06T11:26:45.007Z</time></trkpt><trkpt lat="43.9853706" lon="12.1400916"><ele>422.0</ele><time>2026-04-06T11:26:46.01Z</time></trkpt><trkpt lat="43.9852985" lon="12.1401238"><ele>423.0</ele><time>2026-04-06T11:26:47.007Z</time></trkpt><trkpt lat="43.985231" lon="12.1401551"><ele>423.0</ele><time>2026-04-06T11:26:48.006Z</time></trkpt><trkpt lat="43.9851712" lon="12.1401832"><ele>423.0</ele><time>2026-04-06T11:26:49.008Z</time></trkpt><trkpt lat="43.9850656" lon="12.1402399"><ele>423.0</ele><time>2026-04-06T11:26:51.011Z</time></trkpt><trkpt lat="43.9849479" lon="12.1402878"><ele>423.0</ele><time>2026-04-06T11:26:53.007Z</time></trkpt><trkpt lat="43.9848873" lon="12.1403123"><ele>423.0</ele><time>2026-04-06T11:26:54.008Z</time></trkpt><trkpt lat="43.9847989" lon="12.1403431"><ele>426.5</ele><time>2026-04-06T11:26:56.008Z</time></trkpt><trkpt lat="43.9847529" lon="12.1404359"><ele>430.0</ele><time>2026-04-06T11:26:59.008Z</time></trkpt><trkpt lat="43.9847019" lon="12.1405186"><ele>433.5</ele><time>2026-04-06T11:27:02.009Z</time></trkpt><trkpt lat="43.9846502" lon="12.1405889"><ele>437.0</ele><time>2026-04-06T11:27:04.008Z</time></trkpt><trkpt lat="43.9846151" lon="12.14067"><ele>440.5</ele><time>2026-04-06T11:27:06.007Z</time></trkpt><trkpt lat="43.9846069" lon="12.1407783"><ele>444.0</ele><time>2026-04-06T11:27:07.99Z</time></trkpt><trkpt lat="43.9845756" lon="12.1409104"><ele>444.0</ele><time>2026-04-06T11:27:10.009Z</time></trkpt><trkpt lat="43.9845514" lon="12.1410669"><ele>444.0</ele><time>2026-04-06T11:27:12.01Z</time></trkpt><trkpt lat="43.9845349" lon="12.1412194"><ele>444.0</ele><time>2026-04-06T11:27:14.006Z</time></trkpt><trkpt lat="43.9844944" lon="12.1413624"><ele>444.0</ele><time>2026-04-06T11:27:16.008Z</time></trkpt><trkpt lat="43.9844292" lon="12.1414482"><ele>444.0</ele><time>2026-04-06T11:27:18.009Z</time></trkpt><trkpt lat="43.9843018" lon="12.1414436"><ele>444.0</ele><time>2026-04-06T11:27:20.007Z</time></trkpt><trkpt lat="43.9842241" lon="12.1414484"><ele>444.0</ele><time>2026-04-06T11:27:21.008Z</time></trkpt><trkpt lat="43.9841406" lon="12.1414676"><ele>444.0</ele><time>2026-04-06T11:27:22.007Z</time></trkpt><trkpt lat="43.984046" lon="12.1414968"><ele>444.0</ele><time>2026-04-06T11:27:23.008Z</time></trkpt><trkpt lat="43.9839435" lon="12.1415271"><ele>444.0</ele><time>2026-04-06T11:27:24.007Z</time></trkpt><trkpt lat="43.9838295" lon="12.1415591"><ele>448.2</ele><time>2026-04-06T11:27:25.009Z</time></trkpt><trkpt lat="43.9837184" lon="12.1415947"><ele>452.4</ele><time>2026-04-06T11:27:26.008Z</time></trkpt><trkpt lat="43.9836283" lon="12.1416381"><ele>456.6</ele><time>2026-04-06T11:27:27.007Z</time></trkpt><trkpt lat="43.9835542" lon="12.1416941"><ele>460.8</ele><time>2026-04-06T11:27:28.008Z</time></trkpt><trkpt lat="43.9834869" lon="12.1417583"><ele>465.0</ele><time>2026-04-06T11:27:29.009Z</time></trkpt><trkpt lat="43.9834174" lon="12.1418285"><ele>467.2</ele><time>2026-04-06T11:27:30.012Z</time></trkpt><trkpt lat="43.9833459" lon="12.1419005"><ele>469.4</ele><time>2026-04-06T11:27:31.007Z</time></trkpt><trkpt lat="43.9832699" lon="12.1419725"><ele>471.6</ele><time>2026-04-06T11:27:32.008Z</time></trkpt><trkpt lat="43.983193" lon="12.1420407"><ele>473.8</ele><time>2026-04-06T11:27:33.008Z</time></trkpt><trkpt lat="43.9831146" lon="12.1421086"><ele>476.0</ele><time>2026-04-06T11:27:34.008Z</time></trkpt><trkpt lat="43.9830335" lon="12.1421874"><ele>476.0</ele><time>2026-04-06T11:27:35.01Z</time></trkpt><trkpt lat="43.9829588" lon="12.1422724"><ele>476.0</ele><time>2026-04-06T11:27:36.008Z</time></trkpt><trkpt lat="43.9828912" lon="12.1423521"><ele>476.0</ele><time>2026-04-06T11:27:37.009Z</time></trkpt><trkpt lat="43.9828304" lon="12.1424223"><ele>476.0</ele><time>2026-04-06T11:27:38.007Z</time></trkpt><trkpt lat="43.9827737" lon="12.1424787"><ele>476.0</ele><time>2026-04-06T11:27:39.008Z</time></trkpt><trkpt lat="43.9826575" lon="12.1425311"><ele>475.8</ele><time>2026-04-06T11:27:41.008Z</time></trkpt><trkpt lat="43.9825484" lon="12.1424677"><ele>475.6</ele><time>2026-04-06T11:27:43.01Z</time></trkpt><trkpt lat="43.9824972" lon="12.1423921"><ele>475.4</ele><time>2026-04-06T11:27:44.011Z</time></trkpt><trkpt lat="43.9824489" lon="12.1422973"><ele>475.2</ele><time>2026-04-06T11:27:45.009Z</time></trkpt><trkpt lat="43.9824012" lon="12.142188"><ele>475.0</ele><time>2026-04-06T11:27:46.01Z</time></trkpt><trkpt lat="43.982352" lon="12.1420689"><ele>479.0</ele><time>2026-04-06T11:27:47.007Z</time></trkpt><trkpt lat="43.9823059" lon="12.1419631"><ele>483.0</ele><time>2026-04-06T11:27:48.01Z</time></trkpt><trkpt lat="43.9822691" lon="12.1418723"><ele>487.0</ele><time>2026-04-06T11:27:49.007Z</time></trkpt><trkpt lat="43.9822302" lon="12.1417928"><ele>491.0</ele><time>2026-04-06T11:27:50.013Z</time></trkpt><trkpt lat="43.9821519" lon="12.1416728"><ele>495.0</ele><time>2026-04-06T11:27:52.008Z</time></trkpt><trkpt lat="43.9820438" lon="12.1415788"><ele>495.0</ele><time>2026-04-06T11:27:54.007Z</time></trkpt><trkpt lat="43.9819795" lon="12.1415297"><ele>495.0</ele><time>2026-04-06T11:27:55.01Z</time></trkpt><trkpt lat="43.9819125" lon="12.1414775"><ele>495.0</ele><time>2026-04-06T11:27:56.009Z</time></trkpt><trkpt lat="43.9818455" lon="12.1414237"><ele>495.0</ele><time>2026-04-06T11:27:57.007Z</time></trkpt><trkpt lat="43.9817857" lon="12.1413668"><ele>495.0</ele><time>2026-04-06T11:27:58.009Z</time></trkpt><trkpt lat="43.9817265" lon="12.1412983"><ele>495.0</ele><time>2026-04-06T11:27:59.007Z</time></trkpt><trkpt lat="43.9816678" lon="12.1412243"><ele>498.6666666666667</ele><time>2026-04-06T11:28:00.008Z</time></trkpt><trkpt lat="43.9816127" lon="12.1411526"><ele>502.33333333333337</ele><time>2026-04-06T11:28:01.009Z</time></trkpt><trkpt lat="43.9815628" lon="12.1410899"><ele>506.0</ele><time>2026-04-06T11:28:02.009Z</time></trkpt><trkpt lat="43.9814822" lon="12.1409986"><ele>509.6666666666667</ele><time>2026-04-06T11:28:04.008Z</time></trkpt><trkpt lat="43.9813849" lon="12.140954"><ele>513.3333333333334</ele><time>2026-04-06T11:28:06.006Z</time></trkpt><trkpt lat="43.9812954" lon="12.1409187"><ele>517.0</ele><time>2026-04-06T11:28:08.008Z</time></trkpt><trkpt lat="43.9812132" lon="12.140869"><ele>517.0</ele><time>2026-04-06T11:28:10.01Z</time></trkpt><trkpt lat="43.9811002" lon="12.1407798"><ele>517.0</ele><time>2026-04-06T11:28:12.007Z</time></trkpt><trkpt lat="43.9810356" lon="12.1407158"><ele>517.0</ele><time>2026-04-06T11:28:13.008Z</time></trkpt><trkpt lat="43.9809733" lon="12.1406412"><ele>517.0</ele><time>2026-04-06T11:28:14.009Z</time></trkpt><trkpt lat="43.9809132" lon="12.1405539"><ele>517.0</ele><time>2026-04-06T11:28:15.008Z</time></trkpt><trkpt lat="43.9808587" lon="12.1404505"><ele>518.6666666666667</ele><time>2026-04-06T11:28:16.007Z</time></trkpt><trkpt lat="43.9808067" lon="12.1403378"><ele>520.3333333333334</ele><time>2026-04-06T11:28:17.01Z</time></trkpt><trkpt lat="43.9807582" lon="12.1402355"><ele>522.0</ele><time>2026-04-06T11:28:18.006Z</time></trkpt><trkpt lat="43.9807203" lon="12.1401506"><ele>523.6666666666666</ele><time>2026-04-06T11:28:19.008Z</time></trkpt><trkpt lat="43.9806649" lon="12.1400344"><ele>525.3333333333333</ele><time>2026-04-06T11:28:21.007Z</time></trkpt><trkpt lat="43.9805995" lon="12.1400135"><ele>527.0</ele><time>2026-04-06T11:28:24.008Z</time></trkpt><trkpt lat="43.9804817" lon="12.1401333"><ele>527.0</ele><time>2026-04-06T11:33:26.008Z</time></trkpt><trkpt lat="43.9804033" lon="12.1401667"><ele>527.0</ele><time>2026-04-06T11:33:27.008Z</time></trkpt><trkpt lat="43.9803133" lon="12.14021"><ele>527.0</ele><time>2026-04-06T11:33:28.007Z</time></trkpt><trkpt lat="43.9802233" lon="12.1402833"><ele>527.0</ele><time>2026-04-06T11:33:29.008Z</time></trkpt><trkpt lat="43.9801183" lon="12.14038"><ele>527.0</ele><time>2026-04-06T11:33:30.008Z</time></trkpt><trkpt lat="43.979995" lon="12.14051"><ele>528.3333333333333</ele><time>2026-04-06T11:33:31.01Z</time></trkpt><trkpt lat="43.9798683" lon="12.140635"><ele>529.6666666666666</ele><time>2026-04-06T11:33:32.01Z</time></trkpt><trkpt lat="43.97974" lon="12.1407617"><ele>531.0</ele><time>2026-04-06T11:33:33.008Z</time></trkpt><trkpt lat="43.9796083" lon="12.140895"><ele>531.0</ele><time>2026-04-06T11:33:34.007Z</time></trkpt><trkpt lat="43.979475" lon="12.14103"><ele>531.0</ele><time>2026-04-06T11:33:35.008Z</time></trkpt><trkpt lat="43.9793483" lon="12.1411633"><ele>531.0</ele><time>2026-04-06T11:33:36.008Z</time></trkpt><trkpt lat="43.9792267" lon="12.14129"><ele>532.0</ele><time>2026-04-06T11:33:37.008Z</time></trkpt><trkpt lat="43.979115" lon="12.141405"><ele>533.0</ele><time>2026-04-06T11:33:38.01Z</time></trkpt><trkpt lat="43.9790267" lon="12.1415083"><ele>534.0</ele><time>2026-04-06T11:33:39.008Z</time></trkpt><trkpt lat="43.978945" lon="12.141595"><ele>535.0</ele><time>2026-04-06T11:33:40.008Z</time></trkpt><trkpt lat="43.97887" lon="12.1416633"><ele>536.0</ele><time>2026-04-06T11:33:41.012Z</time></trkpt><trkpt lat="43.978795" lon="12.1417117"><ele>536.0</ele><time>2026-04-06T11:33:42.01Z</time></trkpt><trkpt lat="43.9787033" lon="12.141745"><ele>536.0</ele><time>2026-04-06T11:33:43.009Z</time></trkpt><trkpt lat="43.978605" lon="12.1417567"><ele>536.0</ele><time>2026-04-06T11:33:44.01Z</time></trkpt><trkpt lat="43.978495" lon="12.14175"><ele>536.0</ele><time>2026-04-06T11:33:45.01Z</time></trkpt><trkpt lat="43.9783933" lon="12.14173"><ele>536.0</ele><time>2026-04-06T11:33:46.009Z</time></trkpt><trkpt lat="43.9783033" lon="12.1417183"><ele>538.5</ele><time>2026-04-06T11:33:47.011Z</time></trkpt><trkpt lat="43.9782233" lon="12.1417"><ele>541.0</ele><time>2026-04-06T11:33:48.011Z</time></trkpt><trkpt lat="43.978155" lon="12.14169"><ele>543.5</ele><time>2026-04-06T11:33:49.009Z</time></trkpt><trkpt lat="43.9780783" lon="12.141675"><ele>546.0</ele><time>2026-04-06T11:33:51.009Z</time></trkpt><trkpt lat="43.9780133" lon="12.141685"><ele>548.5</ele><time>2026-04-06T11:34:02.007Z</time></trkpt><trkpt lat="43.977915" lon="12.1417767"><ele>551.0</ele><time>2026-04-06T11:34:09.007Z</time></trkpt><trkpt lat="43.9778617" lon="12.1418517"><ele>551.0</ele><time>2026-04-06T11:34:10.007Z</time></trkpt><trkpt lat="43.9778133" lon="12.141975"><ele>551.0</ele><time>2026-04-06T11:34:11.009Z</time></trkpt><trkpt lat="43.9777717" lon="12.1421267"><ele>551.0</ele><time>2026-04-06T11:34:12.006Z</time></trkpt><trkpt lat="43.97773" lon="12.142285"><ele>551.0</ele><time>2026-04-06T11:34:13.007Z</time></trkpt><trkpt lat="43.9776833" lon="12.142445"><ele>547.0</ele><time>2026-04-06T11:34:14.007Z</time></trkpt><trkpt lat="43.9776317" lon="12.1426133"><ele>543.0</ele><time>2026-04-06T11:34:15.007Z</time></trkpt><trkpt lat="43.977585" lon="12.142795"><ele>539.0</ele><time>2026-04-06T11:34:16.006Z</time></trkpt><trkpt lat="43.977555" lon="12.1429867"><ele>535.0</ele><time>2026-04-06T11:34:17.009Z</time></trkpt><trkpt lat="43.9775217" lon="12.1431833"><ele>540.0</ele><time>2026-04-06T11:34:18.006Z</time></trkpt><trkpt lat="43.9774717" lon="12.1433883"><ele>545.0</ele><time>2026-04-06T11:34:19.01Z</time></trkpt><trkpt lat="43.9774133" lon="12.1436"><ele>550.0</ele><time>2026-04-06T11:34:20.006Z</time></trkpt><trkpt lat="43.9773483" lon="12.14382"><ele>550.0</ele><time>2026-04-06T11:34:21.008Z</time></trkpt><trkpt lat="43.97729" lon="12.14404"><ele>550.0</ele><time>2026-04-06T11:34:22.007Z</time></trkpt><trkpt lat="43.977245" lon="12.1442583"><ele>550.0</ele><time>2026-04-06T11:34:23.006Z</time></trkpt><trkpt lat="43.9772183" lon="12.1444717"><ele>548.0</ele><time>2026-04-06T11:34:24.086Z</time></trkpt><trkpt lat="43.9772" lon="12.1446783"><ele>546.0</ele><time>2026-04-06T11:34:25.01Z</time></trkpt><trkpt lat="43.9771767" lon="12.144875"><ele>544.0</ele><time>2026-04-06T11:34:26.007Z</time></trkpt><trkpt lat="43.97714" lon="12.1450683"><ele>542.0</ele><time>2026-04-06T11:34:27.009Z</time></trkpt><trkpt lat="43.9770917" lon="12.1452617"><ele>538.3333333333333</ele><time>2026-04-06T11:34:28.011Z</time></trkpt><trkpt lat="43.9770467" lon="12.1454633"><ele>534.6666666666666</ele><time>2026-04-06T11:34:29.006Z</time></trkpt><trkpt lat="43.97701" lon="12.14567"><ele>531.0</ele><time>2026-04-06T11:34:30.008Z</time></trkpt><trkpt lat="43.9769767" lon="12.1458717"><ele>527.25</ele><time>2026-04-06T11:34:31.009Z</time></trkpt><trkpt lat="43.9769433" lon="12.146065"><ele>523.5</ele><time>2026-04-06T11:34:32.009Z</time></trkpt><trkpt lat="43.976905" lon="12.146245"><ele>519.75</ele><time>2026-04-06T11:34:33.008Z</time></trkpt><trkpt lat="43.9768767" lon="12.1463983"><ele>516.0</ele><time>2026-04-06T11:34:34.01Z</time></trkpt><trkpt lat="43.976855" lon="12.1465133"><ele>515.0</ele><time>2026-04-06T11:34:35.007Z</time></trkpt><trkpt lat="43.9768283" lon="12.1466033"><ele>514.0</ele><time>2026-04-06T11:34:36.01Z</time></trkpt><trkpt lat="43.9767467" lon="12.1466017"><ele>513.0</ele><time>2026-04-06T11:34:40.008Z</time></trkpt><trkpt lat="43.976685" lon="12.14647"><ele>512.0</ele><time>2026-04-06T11:34:42.007Z</time></trkpt><trkpt lat="43.9766383" lon="12.1463783"><ele>511.0</ele><time>2026-04-06T11:34:43.01Z</time></trkpt><trkpt lat="43.9765867" lon="12.1462833"><ele>510.0</ele><time>2026-04-06T11:34:44.007Z</time></trkpt><trkpt lat="43.97653" lon="12.1461883"><ele>519.0</ele><time>2026-04-06T11:34:45.008Z</time></trkpt><trkpt lat="43.97647" lon="12.1460833"><ele>528.0</ele><time>2026-04-06T11:34:46.008Z</time></trkpt><trkpt lat="43.9763983" lon="12.14597"><ele>537.0</ele><time>2026-04-06T11:34:47.006Z</time></trkpt><trkpt lat="43.97631" lon="12.145835"><ele>546.0</ele><time>2026-04-06T11:34:48.007Z</time></trkpt><trkpt lat="43.97621" lon="12.145705"><ele>550.0</ele><time>2026-04-06T11:34:49.006Z</time></trkpt><trkpt lat="43.976105" lon="12.1456"><ele>554.0</ele><time>2026-04-06T11:34:50.008Z</time></trkpt><trkpt lat="43.9759867" lon="12.14552"><ele>558.0</ele><time>2026-04-06T11:34:51.009Z</time></trkpt><trkpt lat="43.9758517" lon="12.145455"><ele>562.0</ele><time>2026-04-06T11:34:52.009Z</time></trkpt><trkpt lat="43.9757117" lon="12.1453933"><ele>565.0</ele><time>2026-04-06T11:34:53.007Z</time></trkpt><trkpt lat="43.9755717" lon="12.14533"><ele>568.0</ele><time>2026-04-06T11:34:54.008Z</time></trkpt><trkpt lat="43.975445" lon="12.14526"><ele>571.0</ele><time>2026-04-06T11:34:55.007Z</time></trkpt><trkpt lat="43.9753333" lon="12.1451983"><ele>574.0</ele><time>2026-04-06T11:34:56.008Z</time></trkpt><trkpt lat="43.9752167" lon="12.145145"><ele>574.0</ele><time>2026-04-06T11:34:57.009Z</time></trkpt><trkpt lat="43.9750933" lon="12.14509"><ele>574.0</ele><time>2026-04-06T11:34:58.009Z</time></trkpt><trkpt lat="43.9749767" lon="12.14502"><ele>574.0</ele><time>2026-04-06T11:34:59.008Z</time></trkpt><trkpt lat="43.97487" lon="12.1449333"><ele>574.0</ele><time>2026-04-06T11:35:00.006Z</time></trkpt><trkpt lat="43.9747733" lon="12.1448283"><ele>573.25</ele><time>2026-04-06T11:35:01.009Z</time></trkpt><trkpt lat="43.9746767" lon="12.144725"><ele>572.5</ele><time>2026-04-06T11:35:02.007Z</time></trkpt><trkpt lat="43.9745667" lon="12.14463"><ele>571.75</ele><time>2026-04-06T11:35:03.006Z</time></trkpt><trkpt lat="43.974455" lon="12.1445333"><ele>571.0</ele><time>2026-04-06T11:35:04.007Z</time></trkpt><trkpt lat="43.9743317" lon="12.1444617"><ele>571.0</ele><time>2026-04-06T11:35:05.008Z</time></trkpt><trkpt lat="43.9741917" lon="12.144445"><ele>571.0</ele><time>2026-04-06T11:35:06.007Z</time></trkpt><trkpt lat="43.9740583" lon="12.14444"><ele>571.0</ele><time>2026-04-06T11:35:07.009Z</time></trkpt><trkpt lat="43.9739317" lon="12.1444433"><ele>571.0</ele><time>2026-04-06T11:35:08.007Z</time></trkpt><trkpt lat="43.9738033" lon="12.14446"><ele>570.25</ele><time>2026-04-06T11:35:09.01Z</time></trkpt><trkpt lat="43.97368" lon="12.1444667"><ele>569.5</ele><time>2026-04-06T11:35:10.007Z</time></trkpt><trkpt lat="43.9735633" lon="12.144455"><ele>568.75</ele><time>2026-04-06T11:35:11.008Z</time></trkpt><trkpt lat="43.97345" lon="12.1444167"><ele>568.0</ele><time>2026-04-06T11:35:12.006Z</time></trkpt><trkpt lat="43.9733383" lon="12.1443583"><ele>568.0</ele><time>2026-04-06T11:35:13.008Z</time></trkpt><trkpt lat="43.9732267" lon="12.14428"><ele>568.0</ele><time>2026-04-06T11:35:14.008Z</time></trkpt><trkpt lat="43.9731117" lon="12.1441933"><ele>568.0</ele><time>2026-04-06T11:35:15.009Z</time></trkpt><trkpt lat="43.972995" lon="12.1440983"><ele>568.0</ele><time>2026-04-06T11:35:16.006Z</time></trkpt><trkpt lat="43.972875" lon="12.144025"><ele>565.75</ele><time>2026-04-06T11:35:17.007Z</time></trkpt><trkpt lat="43.9727433" lon="12.1439783"><ele>563.5</ele><time>2026-04-06T11:35:18.009Z</time></trkpt><trkpt lat="43.9726017" lon="12.1439633"><ele>561.25</ele><time>2026-04-06T11:35:19.007Z</time></trkpt><trkpt lat="43.972455" lon="12.1439517"><ele>559.0</ele><time>2026-04-06T11:35:20.011Z</time></trkpt><trkpt lat="43.9723133" lon="12.1439283"><ele>559.0</ele><time>2026-04-06T11:35:21.007Z</time></trkpt><trkpt lat="43.97218" lon="12.14387"><ele>559.0</ele><time>2026-04-06T11:35:22.006Z</time></trkpt><trkpt lat="43.972055" lon="12.1437917"><ele>559.0</ele><time>2026-04-06T11:35:23.006Z</time></trkpt><trkpt lat="43.9719383" lon="12.1437083"><ele>559.0</ele><time>2026-04-06T11:35:24.008Z</time></trkpt><trkpt lat="43.9718233" lon="12.1436417"><ele>559.0</ele><time>2026-04-06T11:35:25.008Z</time></trkpt><trkpt lat="43.9717067" lon="12.143595"><ele>559.0</ele><time>2026-04-06T11:35:26.007Z</time></trkpt><trkpt lat="43.9715817" lon="12.1435817"><ele>559.0</ele><time>2026-04-06T11:35:27.01Z</time></trkpt><trkpt lat="43.9714583" lon="12.1435783"><ele>559.0</ele><time>2026-04-06T11:35:28.008Z</time></trkpt><trkpt lat="43.97134" lon="12.1436067"><ele>556.0</ele><time>2026-04-06T11:35:29.009Z</time></trkpt><trkpt lat="43.9712267" lon="12.1436233"><ele>553.0</ele><time>2026-04-06T11:35:30.009Z</time></trkpt><trkpt lat="43.9711117" lon="12.14357"><ele>550.0</ele><time>2026-04-06T11:35:31.007Z</time></trkpt><trkpt lat="43.9709967" lon="12.1434967"><ele>547.0</ele><time>2026-04-06T11:35:32.008Z</time></trkpt><trkpt lat="43.9708883" lon="12.1433883"><ele>546.25</ele><time>2026-04-06T11:35:33.007Z</time></trkpt><trkpt lat="43.9707833" lon="12.1432867"><ele>545.5</ele><time>2026-04-06T11:35:34.006Z</time></trkpt><trkpt lat="43.9706917" lon="12.1431917"><ele>544.75</ele><time>2026-04-06T11:35:35.012Z</time></trkpt><trkpt lat="43.9706167" lon="12.14309"><ele>544.0</ele><time>2026-04-06T11:35:36.007Z</time></trkpt><trkpt lat="43.9705667" lon="12.1429617"><ele>544.0</ele><time>2026-04-06T11:35:37.006Z</time></trkpt><trkpt lat="43.9705183" lon="12.1428283"><ele>544.0</ele><time>2026-04-06T11:35:38.006Z</time></trkpt><trkpt lat="43.97046" lon="12.1426833"><ele>544.0</ele><time>2026-04-06T11:35:39.009Z</time></trkpt><trkpt lat="43.9703817" lon="12.14255"><ele>544.0</ele><time>2026-04-06T11:35:40.011Z</time></trkpt><trkpt lat="43.9703117" lon="12.1424167"><ele>542.8</ele><time>2026-04-06T11:35:41.007Z</time></trkpt><trkpt lat="43.9702417" lon="12.1422933"><ele>541.5999999999999</ele><time>2026-04-06T11:35:42.007Z</time></trkpt><trkpt lat="43.9701833" lon="12.14217"><ele>540.4</ele><time>2026-04-06T11:35:43.007Z</time></trkpt><trkpt lat="43.970145" lon="12.142035"><ele>539.1999999999999</ele><time>2026-04-06T11:35:44.006Z</time></trkpt><trkpt lat="43.970115" lon="12.1418883"><ele>538.0</ele><time>2026-04-06T11:35:45.01Z</time></trkpt><trkpt lat="43.97009" lon="12.1417367"><ele>538.0</ele><time>2026-04-06T11:35:46.006Z</time></trkpt><trkpt lat="43.970055" lon="12.141595"><ele>538.0</ele><time>2026-04-06T11:35:47.006Z</time></trkpt><trkpt lat="43.9700233" lon="12.1414533"><ele>538.0</ele><time>2026-04-06T11:35:48.008Z</time></trkpt><trkpt lat="43.9699817" lon="12.1413267"><ele>538.0</ele><time>2026-04-06T11:35:49.006Z</time></trkpt><trkpt lat="43.969935" lon="12.1412167"><ele>538.0</ele><time>2026-04-06T11:35:50.006Z</time></trkpt><trkpt lat="43.969875" lon="12.1411267"><ele>542.6</ele><time>2026-04-06T11:35:51.008Z</time></trkpt><trkpt lat="43.9698083" lon="12.141045"><ele>547.1999999999999</ele><time>2026-04-06T11:35:52.007Z</time></trkpt><trkpt lat="43.96974" lon="12.140975"><ele>551.8</ele><time>2026-04-06T11:35:53.007Z</time></trkpt><trkpt lat="43.9696583" lon="12.1409267"><ele>556.4</ele><time>2026-04-06T11:35:54.009Z</time></trkpt><trkpt lat="43.969525" lon="12.14098"><ele>561.0</ele><time>2026-04-06T11:35:55.009Z</time></trkpt><trkpt lat="43.9694083" lon="12.141045"><ele>561.0</ele><time>2026-04-06T11:35:56.006Z</time></trkpt><trkpt lat="43.9693083" lon="12.1410267"><ele>561.0</ele><time>2026-04-06T11:35:57.006Z</time></trkpt><trkpt lat="43.9692167" lon="12.1409833"><ele>561.0</ele><time>2026-04-06T11:35:58.007Z</time></trkpt><trkpt lat="43.9691383" lon="12.1408833"><ele>561.0</ele><time>2026-04-06T11:35:59.008Z</time></trkpt><trkpt lat="43.9690572" lon="12.1407769"><ele>561.0</ele><time>2026-04-06T11:36:00.005Z</time></trkpt><trkpt lat="43.9689795" lon="12.1406427"><ele>559.2</ele><time>2026-04-06T11:36:01.007Z</time></trkpt><trkpt lat="43.9689125" lon="12.140487"><ele>557.4000000000001</ele><time>2026-04-06T11:36:02.006Z</time></trkpt><trkpt lat="43.9688465" lon="12.1403425"><ele>555.6</ele><time>2026-04-06T11:36:03.007Z</time></trkpt><trkpt lat="43.9687863" lon="12.1402295"><ele>553.8000000000001</ele><time>2026-04-06T11:36:04.008Z</time></trkpt><trkpt lat="43.9687234" lon="12.1401505"><ele>552.0</ele><time>2026-04-06T11:36:05.007Z</time></trkpt><trkpt lat="43.9686525" lon="12.1400987"><ele>552.0</ele><time>2026-04-06T11:36:06.008Z</time></trkpt><trkpt lat="43.9685656" lon="12.140091"><ele>552.0</ele><time>2026-04-06T11:36:07.008Z</time></trkpt><trkpt lat="43.9684719" lon="12.1400939"><ele>552.0</ele><time>2026-04-06T11:36:08.005Z</time></trkpt><trkpt lat="43.9683659" lon="12.140103"><ele>552.0</ele><time>2026-04-06T11:36:09.007Z</time></trkpt><trkpt lat="43.9682484" lon="12.1400944"><ele>552.0</ele><time>2026-04-06T11:36:10.008Z</time></trkpt><trkpt lat="43.9681444" lon="12.1400254"><ele>551.75</ele><time>2026-04-06T11:36:11.007Z</time></trkpt><trkpt lat="43.9680476" lon="12.1399154"><ele>551.5</ele><time>2026-04-06T11:36:12.007Z</time></trkpt><trkpt lat="43.967957" lon="12.1397824"><ele>551.25</ele><time>2026-04-06T11:36:13.01Z</time></trkpt><trkpt lat="43.9678495" lon="12.1396747"><ele>551.0</ele><time>2026-04-06T11:36:14.008Z</time></trkpt><trkpt lat="43.9677272" lon="12.1395922"><ele>551.0</ele><time>2026-04-06T11:36:15.009Z</time></trkpt><trkpt lat="43.967637" lon="12.1394667"><ele>551.0</ele><time>2026-04-06T11:36:16.006Z</time></trkpt><trkpt lat="43.9675749" lon="12.1393189"><ele>551.0</ele><time>2026-04-06T11:36:17.008Z</time></trkpt><trkpt lat="43.967537" lon="12.1391681"><ele>551.0</ele><time>2026-04-06T11:36:18.012Z</time></trkpt><trkpt lat="43.9674767" lon="12.1390508"><ele>555.2</ele><time>2026-04-06T11:36:19.009Z</time></trkpt><trkpt lat="43.9673892" lon="12.1389621"><ele>559.4000000000001</ele><time>2026-04-06T11:36:20.009Z</time></trkpt><trkpt lat="43.9672942" lon="12.1388791"><ele>563.6</ele><time>2026-04-06T11:36:21.008Z</time></trkpt><trkpt lat="43.967213" lon="12.1387938"><ele>567.8000000000001</ele><time>2026-04-06T11:36:22.009Z</time></trkpt><trkpt lat="43.9671515" lon="12.1387089"><ele>572.0</ele><time>2026-04-06T11:36:23.01Z</time></trkpt><trkpt lat="43.9671044" lon="12.1386345"><ele>572.0</ele><time>2026-04-06T11:36:24.006Z</time></trkpt><trkpt lat="43.9670526" lon="12.1385463"><ele>572.0</ele><time>2026-04-06T11:36:26.007Z</time></trkpt><trkpt lat="43.966975" lon="12.13843"><ele>572.0</ele><time>2026-04-06T11:37:13.007Z</time></trkpt><trkpt lat="43.96694" lon="12.138355"><ele>572.0</ele><time>2026-04-06T11:37:14.008Z</time></trkpt><trkpt lat="43.9669017" lon="12.138255"><ele>572.0</ele><time>2026-04-06T11:37:15.008Z</time></trkpt><trkpt lat="43.9668583" lon="12.1381317"><ele>572.0</ele><time>2026-04-06T11:37:16.008Z</time></trkpt><trkpt lat="43.96682" lon="12.1379767"><ele>575.25</ele><time>2026-04-06T11:37:17.008Z</time></trkpt><trkpt lat="43.966785" lon="12.1378033"><ele>578.5</ele><time>2026-04-06T11:37:18.009Z</time></trkpt><trkpt lat="43.9667467" lon="12.13762"><ele>581.75</ele><time>2026-04-06T11:37:19.01Z</time></trkpt><trkpt lat="43.9667233" lon="12.1374433"><ele>585.0</ele><time>2026-04-06T11:37:20.013Z</time></trkpt><trkpt lat="43.9667067" lon="12.1372683"><ele>581.75</ele><time>2026-04-06T11:37:21.009Z</time></trkpt><trkpt lat="43.9666817" lon="12.1370883"><ele>578.5</ele><time>2026-04-06T11:37:22.007Z</time></trkpt><trkpt lat="43.966635" lon="12.136915"><ele>575.25</ele><time>2026-04-06T11:37:23.007Z</time></trkpt><trkpt lat="43.9665683" lon="12.13676"><ele>572.0</ele><time>2026-04-06T11:37:24.01Z</time></trkpt><trkpt lat="43.9665133" lon="12.1366083"><ele>570.6</ele><time>2026-04-06T11:37:25.008Z</time></trkpt><trkpt lat="43.9664733" lon="12.1364667"><ele>569.2</ele><time>2026-04-06T11:37:26.012Z</time></trkpt><trkpt lat="43.96645" lon="12.1363167"><ele>567.8</ele><time>2026-04-06T11:37:27.007Z</time></trkpt><trkpt lat="43.9664333" lon="12.1361717"><ele>566.4</ele><time>2026-04-06T11:37:28.006Z</time></trkpt><trkpt lat="43.966435" lon="12.1360117"><ele>565.0</ele><time>2026-04-06T11:37:29.007Z</time></trkpt><trkpt lat="43.9664417" lon="12.1358583"><ele>563.4</ele><time>2026-04-06T11:37:30.006Z</time></trkpt><trkpt lat="43.96643" lon="12.1357183"><ele>561.8</ele><time>2026-04-06T11:37:31.011Z</time></trkpt><trkpt lat="43.96641" lon="12.135575"><ele>560.2</ele><time>2026-04-06T11:37:32.009Z</time></trkpt><trkpt lat="43.96638" lon="12.13545"><ele>558.6</ele><time>2026-04-06T11:37:33.009Z</time></trkpt><trkpt lat="43.9663233" lon="12.1353417"><ele>557.0</ele><time>2026-04-06T11:37:34.007Z</time></trkpt><trkpt lat="43.9662467" lon="12.1352433"><ele>557.0</ele><time>2026-04-06T11:37:35.009Z</time></trkpt><trkpt lat="43.9661533" lon="12.13516"><ele>557.0</ele><time>2026-04-06T11:37:36.008Z</time></trkpt><trkpt lat="43.9660517" lon="12.1350867"><ele>557.0</ele><time>2026-04-06T11:37:37.01Z</time></trkpt><trkpt lat="43.9659567" lon="12.1350183"><ele>557.0</ele><time>2026-04-06T11:37:38.009Z</time></trkpt><trkpt lat="43.9658567" lon="12.13495"><ele>557.0</ele><time>2026-04-06T11:37:39.01Z</time></trkpt><trkpt lat="43.965755" lon="12.13488"><ele>558.0</ele><time>2026-04-06T11:37:40.01Z</time></trkpt><trkpt lat="43.9656633" lon="12.1347933"><ele>559.0</ele><time>2026-04-06T11:37:41.006Z</time></trkpt><trkpt lat="43.965575" lon="12.1346833"><ele>560.0</ele><time>2026-04-06T11:37:42.007Z</time></trkpt><trkpt lat="43.965485" lon="12.13456"><ele>561.0</ele><time>2026-04-06T11:37:43.014Z</time></trkpt><trkpt lat="43.9654017" lon="12.1344233"><ele>561.0</ele><time>2026-04-06T11:37:44.008Z</time></trkpt><trkpt lat="43.965325" lon="12.1342833"><ele>561.0</ele><time>2026-04-06T11:37:45.007Z</time></trkpt><trkpt lat="43.9652362" lon="12.1341652"><ele>561.0</ele><time>2026-04-06T11:37:46.007Z</time></trkpt><trkpt lat="43.9651431" lon="12.1340654"><ele>561.0</ele><time>2026-04-06T11:37:47.008Z</time></trkpt><trkpt lat="43.9650451" lon="12.133982"><ele>559.25</ele><time>2026-04-06T11:37:48.007Z</time></trkpt><trkpt lat="43.9649446" lon="12.1339121"><ele>557.5</ele><time>2026-04-06T11:37:49.006Z</time></trkpt><trkpt lat="43.9648478" lon="12.1338256"><ele>555.75</ele><time>2026-04-06T11:37:50.007Z</time></trkpt><trkpt lat="43.9647493" lon="12.1337255"><ele>554.0</ele><time>2026-04-06T11:37:51.009Z</time></trkpt><trkpt lat="43.9646478" lon="12.1336253"><ele>554.0</ele><time>2026-04-06T11:37:52.009Z</time></trkpt><trkpt lat="43.9645458" lon="12.1335307"><ele>554.0</ele><time>2026-04-06T11:37:53.007Z</time></trkpt><trkpt lat="43.9644434" lon="12.1334524"><ele>554.0</ele><time>2026-04-06T11:37:54.011Z</time></trkpt><trkpt lat="43.9643501" lon="12.1333686"><ele>554.0</ele><time>2026-04-06T11:37:55.007Z</time></trkpt><trkpt lat="43.9642661" lon="12.1332689"><ele>546.6</ele><time>2026-04-06T11:37:56.008Z</time></trkpt><trkpt lat="43.9641841" lon="12.133156"><ele>539.2</ele><time>2026-04-06T11:37:57.009Z</time></trkpt><trkpt lat="43.9640852" lon="12.1330799"><ele>531.8000000000001</ele><time>2026-04-06T11:37:58.008Z</time></trkpt><trkpt lat="43.9639788" lon="12.133039"><ele>524.4</ele><time>2026-04-06T11:37:59.008Z</time></trkpt><trkpt lat="43.9638697" lon="12.1330183"><ele>517.0</ele><time>2026-04-06T11:38:00.007Z</time></trkpt><trkpt lat="43.9637649" lon="12.132999"><ele>517.0</ele><time>2026-04-06T11:38:01.008Z</time></trkpt><trkpt lat="43.9636629" lon="12.1330147"><ele>517.0</ele><time>2026-04-06T11:38:02.007Z</time></trkpt><trkpt lat="43.9635553" lon="12.1330554"><ele>517.0</ele><time>2026-04-06T11:38:03.008Z</time></trkpt><trkpt lat="43.9634386" lon="12.1330925"><ele>517.0</ele><time>2026-04-06T11:38:04.007Z</time></trkpt><trkpt lat="43.9633166" lon="12.1331324"><ele>515.5</ele><time>2026-04-06T11:38:05.008Z</time></trkpt><trkpt lat="43.9631886" lon="12.1331676"><ele>514.0</ele><time>2026-04-06T11:38:06.009Z</time></trkpt><trkpt lat="43.9630589" lon="12.1331866"><ele>512.5</ele><time>2026-04-06T11:38:07.007Z</time></trkpt><trkpt lat="43.9629257" lon="12.133186"><ele>511.0</ele><time>2026-04-06T11:38:08.011Z</time></trkpt><trkpt lat="43.9627925" lon="12.1331906"><ele>511.0</ele><time>2026-04-06T11:38:09.008Z</time></trkpt><trkpt lat="43.9626626" lon="12.1331942"><ele>511.0</ele><time>2026-04-06T11:38:10.008Z</time></trkpt><trkpt lat="43.9625342" lon="12.1331978"><ele>511.0</ele><time>2026-04-06T11:38:11.007Z</time></trkpt><trkpt lat="43.9624056" lon="12.1331965"><ele>511.0</ele><time>2026-04-06T11:38:12.012Z</time></trkpt><trkpt lat="43.9622829" lon="12.1332011"><ele>513.0</ele><time>2026-04-06T11:38:13.009Z</time></trkpt><trkpt lat="43.9621655" lon="12.1331881"><ele>515.0</ele><time>2026-04-06T11:38:14.008Z</time></trkpt><trkpt lat="43.9620555" lon="12.1331298"><ele>517.0</ele><time>2026-04-06T11:38:15.01Z</time></trkpt><trkpt lat="43.9619487" lon="12.1330457"><ele>519.0</ele><time>2026-04-06T11:38:16.009Z</time></trkpt><trkpt lat="43.961837" lon="12.1329682"><ele>519.0</ele><time>2026-04-06T11:38:17.008Z</time></trkpt><trkpt lat="43.9617225" lon="12.1329162"><ele>519.0</ele><time>2026-04-06T11:38:18.008Z</time></trkpt><trkpt lat="43.961611" lon="12.1328971"><ele>519.0</ele><time>2026-04-06T11:38:19.011Z</time></trkpt><trkpt lat="43.9615137" lon="12.1328862"><ele>519.0</ele><time>2026-04-06T11:38:20.009Z</time></trkpt><trkpt lat="43.961436" lon="12.1328267"><ele>519.0</ele><time>2026-04-06T11:38:21.008Z</time></trkpt><trkpt lat="43.9613628" lon="12.1327517"><ele>521.8</ele><time>2026-04-06T11:38:22.008Z</time></trkpt><trkpt lat="43.9612703" lon="12.1327203"><ele>524.5999999999999</ele><time>2026-04-06T11:38:23.008Z</time></trkpt><trkpt lat="43.9611711" lon="12.1326952"><ele>527.4</ele><time>2026-04-06T11:38:24.009Z</time></trkpt><trkpt lat="43.9610781" lon="12.1326646"><ele>530.1999999999999</ele><time>2026-04-06T11:38:25.008Z</time></trkpt><trkpt lat="43.9609913" lon="12.1326424"><ele>533.0</ele><time>2026-04-06T11:38:26.008Z</time></trkpt><trkpt lat="43.9609147" lon="12.1326491"><ele>532.6666666666666</ele><time>2026-04-06T11:38:27.009Z</time></trkpt><trkpt lat="43.9608442" lon="12.1326826"><ele>532.3333333333333</ele><time>2026-04-06T11:38:28.007Z</time></trkpt><trkpt lat="43.9607832" lon="12.1327392"><ele>532.0</ele><time>2026-04-06T11:38:29.008Z</time></trkpt><trkpt lat="43.9607276" lon="12.1328066"><ele>531.6666666666666</ele><time>2026-04-06T11:38:30.008Z</time></trkpt><trkpt lat="43.9606706" lon="12.1328835"><ele>531.3333333333334</ele><time>2026-04-06T11:38:31.011Z</time></trkpt><trkpt lat="43.9605994" lon="12.1329867"><ele>531.0</ele><time>2026-04-06T11:38:32.009Z</time></trkpt><trkpt lat="43.9605069" lon="12.1331303"><ele>531.0</ele><time>2026-04-06T11:38:33.007Z</time></trkpt><trkpt lat="43.9603986" lon="12.1332838"><ele>531.0</ele><time>2026-04-06T11:38:34.009Z</time></trkpt><trkpt lat="43.9602804" lon="12.133435"><ele>531.0</ele><time>2026-04-06T11:38:35.008Z</time></trkpt><trkpt lat="43.9601563" lon="12.133549"><ele>530.25</ele><time>2026-04-06T11:38:36.009Z</time></trkpt><trkpt lat="43.9600308" lon="12.1336318"><ele>529.5</ele><time>2026-04-06T11:38:37.007Z</time></trkpt><trkpt lat="43.9599077" lon="12.1336951"><ele>528.75</ele><time>2026-04-06T11:38:38.008Z</time></trkpt><trkpt lat="43.9597886" lon="12.1337532"><ele>528.0</ele><time>2026-04-06T11:38:39.009Z</time></trkpt><trkpt lat="43.9596798" lon="12.1338099"><ele>528.0</ele><time>2026-04-06T11:38:40.008Z</time></trkpt><trkpt lat="43.9595893" lon="12.133865"><ele>528.0</ele><time>2026-04-06T11:38:41.007Z</time></trkpt><trkpt lat="43.9595071" lon="12.1339241"><ele>528.0</ele><time>2026-04-06T11:38:42.008Z</time></trkpt><trkpt lat="43.9594278" lon="12.1339955"><ele>528.0</ele><time>2026-04-06T11:38:43.008Z</time></trkpt><trkpt lat="43.9593445" lon="12.134081"><ele>528.0</ele><time>2026-04-06T11:38:44.008Z</time></trkpt><trkpt lat="43.9592589" lon="12.1341587"><ele>527.1999999999999</ele><time>2026-04-06T11:38:45.012Z</time></trkpt><trkpt lat="43.9591736" lon="12.1342006"><ele>526.4</ele><time>2026-04-06T11:38:46.008Z</time></trkpt><trkpt lat="43.9590852" lon="12.1342218"><ele>525.5999999999999</ele><time>2026-04-06T11:38:47.007Z</time></trkpt><trkpt lat="43.9589941" lon="12.1342393"><ele>524.8</ele><time>2026-04-06T11:38:48.008Z</time></trkpt><trkpt lat="43.9589055" lon="12.1342444"><ele>524.0</ele><time>2026-04-06T11:38:49.007Z</time></trkpt><trkpt lat="43.9588143" lon="12.1342458"><ele>524.0</ele><time>2026-04-06T11:38:50.008Z</time></trkpt><trkpt lat="43.9587206" lon="12.1342598"><ele>524.0</ele><time>2026-04-06T11:38:51.008Z</time></trkpt><trkpt lat="43.9586283" lon="12.1342893"><ele>524.0</ele><time>2026-04-06T11:38:52.01Z</time></trkpt><trkpt lat="43.9585469" lon="12.1343409"><ele>524.0</ele><time>2026-04-06T11:38:53.007Z</time></trkpt><trkpt lat="43.958468" lon="12.1344012"><ele>524.0</ele><time>2026-04-06T11:38:54.008Z</time></trkpt><trkpt lat="43.9583889" lon="12.1344744"><ele>524.0</ele><time>2026-04-06T11:38:55.011Z</time></trkpt><trkpt lat="43.9583007" lon="12.1345639"><ele>524.0</ele><time>2026-04-06T11:38:56.008Z</time></trkpt><trkpt lat="43.9582002" lon="12.1347044"><ele>524.0</ele><time>2026-04-06T11:38:57.011Z</time></trkpt><trkpt lat="43.9581097" lon="12.1348992"><ele>524.0</ele><time>2026-04-06T11:38:58.007Z</time></trkpt><trkpt lat="43.9580389" lon="12.1350832"><ele>524.0</ele><time>2026-04-06T11:38:59.008Z</time></trkpt><trkpt lat="43.9579622" lon="12.135224"><ele>524.0</ele><time>2026-04-06T11:39:00.011Z</time></trkpt><trkpt lat="43.9578772" lon="12.13531"><ele>524.0</ele><time>2026-04-06T11:39:01.008Z</time></trkpt><trkpt lat="43.9577774" lon="12.135345"><ele>524.0</ele><time>2026-04-06T11:39:02.009Z</time></trkpt><trkpt lat="43.9576628" lon="12.1353286"><ele>524.0</ele><time>2026-04-06T11:39:03.011Z</time></trkpt><trkpt lat="43.9575356" lon="12.1352921"><ele>524.0</ele><time>2026-04-06T11:39:04.009Z</time></trkpt><trkpt lat="43.9574091" lon="12.1352563"><ele>524.0</ele><time>2026-04-06T11:39:05.007Z</time></trkpt><trkpt lat="43.9572925" lon="12.1352146"><ele>524.0</ele><time>2026-04-06T11:39:06.007Z</time></trkpt><trkpt lat="43.9571789" lon="12.1352013"><ele>530.75</ele><time>2026-04-06T11:39:07.011Z</time></trkpt><trkpt lat="43.9570608" lon="12.1352325"><ele>537.5</ele><time>2026-04-06T11:39:08.009Z</time></trkpt><trkpt lat="43.9569284" lon="12.1352961"><ele>544.25</ele><time>2026-04-06T11:39:09.009Z</time></trkpt><trkpt lat="43.9567947" lon="12.1353617"><ele>551.0</ele><time>2026-04-06T11:39:10.008Z</time></trkpt><trkpt lat="43.9566517" lon="12.135443"><ele>555.3333333333333</ele><time>2026-04-06T11:39:11.008Z</time></trkpt><trkpt lat="43.9565086" lon="12.1355289"><ele>559.6666666666666</ele><time>2026-04-06T11:39:12.011Z</time></trkpt><trkpt lat="43.9563669" lon="12.1356164"><ele>564.0</ele><time>2026-04-06T11:39:13.008Z</time></trkpt><trkpt lat="43.9562223" lon="12.1357005"><ele>562.25</ele><time>2026-04-06T11:39:14.009Z</time></trkpt><trkpt lat="43.9560839" lon="12.1357743"><ele>560.5</ele><time>2026-04-06T11:39:15.007Z</time></trkpt><trkpt lat="43.9559613" lon="12.1358333"><ele>558.75</ele><time>2026-04-06T11:39:16.011Z</time></trkpt><trkpt lat="43.9558562" lon="12.1358704"><ele>557.0</ele><time>2026-04-06T11:39:17.008Z</time></trkpt><trkpt lat="43.955764" lon="12.1358757"><ele>557.0</ele><time>2026-04-06T11:39:18.007Z</time></trkpt><trkpt lat="43.955682" lon="12.1358217"><ele>557.0</ele><time>2026-04-06T11:39:19.009Z</time></trkpt><trkpt lat="43.955608" lon="12.135712"><ele>557.0</ele><time>2026-04-06T11:39:20.008Z</time></trkpt><trkpt lat="43.9555393" lon="12.1355687"><ele>557.0</ele><time>2026-04-06T11:39:21.007Z</time></trkpt><trkpt lat="43.955484" lon="12.1353829"><ele>560.25</ele><time>2026-04-06T11:39:22.01Z</time></trkpt><trkpt lat="43.9554152" lon="12.1352069"><ele>563.5</ele><time>2026-04-06T11:39:23.009Z</time></trkpt><trkpt lat="43.9553096" lon="12.135065"><ele>566.75</ele><time>2026-04-06T11:39:24.008Z</time></trkpt><trkpt lat="43.9551863" lon="12.134935"><ele>570.0</ele><time>2026-04-06T11:39:25.007Z</time></trkpt><trkpt lat="43.9550399" lon="12.1348229"><ele>569.0</ele><time>2026-04-06T11:39:26.008Z</time></trkpt><trkpt lat="43.9548705" lon="12.1347511"><ele>568.0</ele><time>2026-04-06T11:39:27.01Z</time></trkpt><trkpt lat="43.9546935" lon="12.1347151"><ele>567.0</ele><time>2026-04-06T11:39:28.007Z</time></trkpt><trkpt lat="43.9545239" lon="12.1347057"><ele>567.0</ele><time>2026-04-06T11:39:29.006Z</time></trkpt><trkpt lat="43.954367" lon="12.1347226"><ele>567.0</ele><time>2026-04-06T11:39:30.008Z</time></trkpt><trkpt lat="43.9542143" lon="12.13477"><ele>567.0</ele><time>2026-04-06T11:39:31.007Z</time></trkpt><trkpt lat="43.9540622" lon="12.1348509"><ele>565.0</ele><time>2026-04-06T11:39:32.009Z</time></trkpt><trkpt lat="43.9539091" lon="12.1349507"><ele>563.0</ele><time>2026-04-06T11:39:33.008Z</time></trkpt><trkpt lat="43.9537594" lon="12.1350648"><ele>561.0</ele><time>2026-04-06T11:39:34.01Z</time></trkpt><trkpt lat="43.9536162" lon="12.1351781"><ele>561.0</ele><time>2026-04-06T11:39:35.007Z</time></trkpt><trkpt lat="43.9534811" lon="12.1352762"><ele>561.0</ele><time>2026-04-06T11:39:36.008Z</time></trkpt><trkpt lat="43.9533506" lon="12.1353516"><ele>561.0</ele><time>2026-04-06T11:39:37.009Z</time></trkpt><trkpt lat="43.953212" lon="12.1354015"><ele>561.0</ele><time>2026-04-06T11:39:38.009Z</time></trkpt><trkpt lat="43.953068" lon="12.1354193"><ele>565.0</ele><time>2026-04-06T11:39:39.008Z</time></trkpt><trkpt lat="43.9529185" lon="12.1354031"><ele>569.0</ele><time>2026-04-06T11:39:40.01Z</time></trkpt><trkpt lat="43.9527667" lon="12.1353523"><ele>573.0</ele><time>2026-04-06T11:39:41.01Z</time></trkpt><trkpt lat="43.9526142" lon="12.1352688"><ele>572.3333333333334</ele><time>2026-04-06T11:39:42.009Z</time></trkpt><trkpt lat="43.9524552" lon="12.1351792"><ele>571.6666666666667</ele><time>2026-04-06T11:39:43.009Z</time></trkpt><trkpt lat="43.9522826" lon="12.1351164"><ele>571.0</ele><time>2026-04-06T11:39:44.008Z</time></trkpt><trkpt lat="43.9520943" lon="12.1350807"><ele>571.0</ele><time>2026-04-06T11:39:45.01Z</time></trkpt><trkpt lat="43.9518936" lon="12.1350648"><ele>571.0</ele><time>2026-04-06T11:39:46.008Z</time></trkpt><trkpt lat="43.9516828" lon="12.1350624"><ele>571.0</ele><time>2026-04-06T11:39:47.015Z</time></trkpt><trkpt lat="43.9514718" lon="12.1350625"><ele>569.0</ele><time>2026-04-06T11:39:48.011Z</time></trkpt><trkpt lat="43.9512674" lon="12.1350594"><ele>567.0</ele><time>2026-04-06T11:39:49.009Z</time></trkpt><trkpt lat="43.951077" lon="12.1350519"><ele>565.0</ele><time>2026-04-06T11:39:50.01Z</time></trkpt><trkpt lat="43.9508974" lon="12.1350311"><ele>566.3333333333334</ele><time>2026-04-06T11:39:51.009Z</time></trkpt><trkpt lat="43.9507278" lon="12.1349913"><ele>567.6666666666666</ele><time>2026-04-06T11:39:52.011Z</time></trkpt><trkpt lat="43.9505636" lon="12.1349321"><ele>569.0</ele><time>2026-04-06T11:39:53.011Z</time></trkpt><trkpt lat="43.9504116" lon="12.13485"><ele>566.0</ele><time>2026-04-06T11:39:54.01Z</time></trkpt><trkpt lat="43.9502858" lon="12.1347431"><ele>563.0</ele><time>2026-04-06T11:39:55.009Z</time></trkpt><trkpt lat="43.9501883" lon="12.1346161"><ele>560.0</ele><time>2026-04-06T11:39:56.011Z</time></trkpt><trkpt lat="43.9501167" lon="12.134469"><ele>557.0</ele><time>2026-04-06T11:39:57.013Z</time></trkpt><trkpt lat="43.9500649" lon="12.1342955"><ele>562.3333333333333</ele><time>2026-04-06T11:39:58.012Z</time></trkpt><trkpt lat="43.9500307" lon="12.1340956"><ele>567.6666666666666</ele><time>2026-04-06T11:39:59.008Z</time></trkpt><trkpt lat="43.9500106" lon="12.1338715"><ele>573.0</ele><time>2026-04-06T11:40:00.009Z</time></trkpt><trkpt lat="43.9499958" lon="12.1336407"><ele>573.0</ele><time>2026-04-06T11:40:01.01Z</time></trkpt><trkpt lat="43.9499854" lon="12.1334033"><ele>573.0</ele><time>2026-04-06T11:40:02.009Z</time></trkpt><trkpt lat="43.9499752" lon="12.1331823"><ele>573.0</ele><time>2026-04-06T11:40:03.013Z</time></trkpt><trkpt lat="43.9499761" lon="12.1329904"><ele>574.5</ele><time>2026-04-06T11:40:04.009Z</time></trkpt><trkpt lat="43.9499944" lon="12.1328239"><ele>576.0</ele><time>2026-04-06T11:40:05.008Z</time></trkpt><trkpt lat="43.9500515" lon="12.1326913"><ele>577.5</ele><time>2026-04-06T11:40:06.008Z</time></trkpt><trkpt lat="43.9501429" lon="12.1326024"><ele>579.0</ele><time>2026-04-06T11:40:07.009Z</time></trkpt><trkpt lat="43.95026" lon="12.1325475"><ele>575.5</ele><time>2026-04-06T11:40:08.009Z</time></trkpt><trkpt lat="43.9503933" lon="12.1325024"><ele>572.0</ele><time>2026-04-06T11:40:09.015Z</time></trkpt><trkpt lat="43.9505308" lon="12.1324461"><ele>568.5</ele><time>2026-04-06T11:40:10.009Z</time></trkpt><trkpt lat="43.9506614" lon="12.1323764"><ele>565.0</ele><time>2026-04-06T11:40:11.009Z</time></trkpt><trkpt lat="43.9507706" lon="12.132292"><ele>565.0</ele><time>2026-04-06T11:40:12.008Z</time></trkpt><trkpt lat="43.9508502" lon="12.132183"><ele>565.0</ele><time>2026-04-06T11:40:13.01Z</time></trkpt><trkpt lat="43.9508937" lon="12.1320597"><ele>565.0</ele><time>2026-04-06T11:40:14.011Z</time></trkpt><trkpt lat="43.9509086" lon="12.1319261"><ele>565.0</ele><time>2026-04-06T11:40:15.011Z</time></trkpt><trkpt lat="43.9509067" lon="12.1318041"><ele>565.0</ele><time>2026-04-06T11:40:16.013Z</time></trkpt><trkpt lat="43.9509011" lon="12.1317005"><ele>565.0</ele><time>2026-04-06T11:40:17.01Z</time></trkpt><trkpt lat="43.9508708" lon="12.1315709"><ele>565.0</ele><time>2026-04-06T11:40:19.01Z</time></trkpt><trkpt lat="43.9507696" lon="12.1315442"><ele>565.0</ele><time>2026-04-06T11:40:22.016Z</time></trkpt><trkpt lat="43.9506351" lon="12.1316425"><ele>565.0</ele><time>2026-04-06T11:40:24.009Z</time></trkpt><trkpt lat="43.9505475" lon="12.1317156"><ele>565.0</ele><time>2026-04-06T11:40:25.006Z</time></trkpt><trkpt lat="43.9504414" lon="12.1317716"><ele>565.0</ele><time>2026-04-06T11:40:26.008Z</time></trkpt><trkpt lat="43.9503153" lon="12.131785"><ele>565.0</ele><time>2026-04-06T11:40:27.008Z</time></trkpt><trkpt lat="43.9501728" lon="12.1317625"><ele>565.0</ele><time>2026-04-06T11:40:28.008Z</time></trkpt><trkpt lat="43.950025" lon="12.1317707"><ele>565.75</ele><time>2026-04-06T11:40:29.009Z</time></trkpt><trkpt lat="43.9498834" lon="12.1318184"><ele>566.5</ele><time>2026-04-06T11:40:30.007Z</time></trkpt><trkpt lat="43.9497562" lon="12.1318761"><ele>567.25</ele><time>2026-04-06T11:40:31.009Z</time></trkpt><trkpt lat="43.9496361" lon="12.131879"><ele>568.0</ele><time>2026-04-06T11:40:32.005Z</time></trkpt><trkpt lat="43.9495203" lon="12.1318243"><ele>568.0</ele><time>2026-04-06T11:40:33.006Z</time></trkpt><trkpt lat="43.9494173" lon="12.1317219"><ele>568.0</ele><time>2026-04-06T11:40:34.007Z</time></trkpt><trkpt lat="43.9493213" lon="12.1315845"><ele>568.0</ele><time>2026-04-06T11:40:35.007Z</time></trkpt><trkpt lat="43.9492113" lon="12.1314793"><ele>568.0</ele><time>2026-04-06T11:40:36.009Z</time></trkpt><trkpt lat="43.9490884" lon="12.1314331"><ele>566.0</ele><time>2026-04-06T11:40:37.007Z</time></trkpt><trkpt lat="43.9489706" lon="12.1314373"><ele>564.0</ele><time>2026-04-06T11:40:38.007Z</time></trkpt><trkpt lat="43.9488638" lon="12.1314977"><ele>562.0</ele><time>2026-04-06T11:40:39.009Z</time></trkpt><trkpt lat="43.948778" lon="12.1316023"><ele>560.0</ele><time>2026-04-06T11:40:40.008Z</time></trkpt><trkpt lat="43.9486999" lon="12.1317381"><ele>564.5</ele><time>2026-04-06T11:40:41.008Z</time></trkpt><trkpt lat="43.9486321" lon="12.1319074"><ele>569.0</ele><time>2026-04-06T11:40:42.007Z</time></trkpt><trkpt lat="43.9485575" lon="12.1320822"><ele>573.5</ele><time>2026-04-06T11:40:43.007Z</time></trkpt><trkpt lat="43.9484515" lon="12.1322208"><ele>578.0</ele><time>2026-04-06T11:40:44.007Z</time></trkpt><trkpt lat="43.9483216" lon="12.1323083"><ele>578.0</ele><time>2026-04-06T11:40:45.009Z</time></trkpt><trkpt lat="43.9481747" lon="12.1323566"><ele>578.0</ele><time>2026-04-06T11:40:46.008Z</time></trkpt><trkpt lat="43.9480373" lon="12.1324131"><ele>578.0</ele><time>2026-04-06T11:40:47.008Z</time></trkpt><trkpt lat="43.9479363" lon="12.1325179"><ele>578.0</ele><time>2026-04-06T11:40:48.009Z</time></trkpt><trkpt lat="43.9478705" lon="12.1326622"><ele>583.5</ele><time>2026-04-06T11:40:49.007Z</time></trkpt><trkpt lat="43.947829" lon="12.1328323"><ele>589.0</ele><time>2026-04-06T11:40:50.006Z</time></trkpt><trkpt lat="43.9477803" lon="12.1330075"><ele>594.5</ele><time>2026-04-06T11:40:51.007Z</time></trkpt><trkpt lat="43.9477138" lon="12.133164"><ele>600.0</ele><time>2026-04-06T11:40:52.006Z</time></trkpt><trkpt lat="43.9476321" lon="12.1332878"><ele>601.0</ele><time>2026-04-06T11:40:53.007Z</time></trkpt><trkpt lat="43.9475278" lon="12.1333661"><ele>602.0</ele><time>2026-04-06T11:40:54.007Z</time></trkpt><trkpt lat="43.9474049" lon="12.1333919"><ele>603.0</ele><time>2026-04-06T11:40:55.006Z</time></trkpt><trkpt lat="43.94728" lon="12.1333832"><ele>604.0</ele><time>2026-04-06T11:40:56.007Z</time></trkpt><trkpt lat="43.9471706" lon="12.1333733"><ele>604.0</ele><time>2026-04-06T11:40:57.01Z</time></trkpt><trkpt lat="43.9470797" lon="12.1333621"><ele>604.0</ele><time>2026-04-06T11:40:58.006Z</time></trkpt><trkpt lat="43.947003" lon="12.1333581"><ele>604.0</ele><time>2026-04-06T11:40:59.007Z</time></trkpt><trkpt lat="43.946904" lon="12.1333668"><ele>604.0</ele><time>2026-04-06T11:41:01.006Z</time></trkpt><trkpt lat="43.9468117" lon="12.1333568"><ele>604.0</ele><time>2026-04-06T11:41:04.011Z</time></trkpt><trkpt lat="43.9467263" lon="12.1333863"><ele>604.0</ele><time>2026-04-06T11:41:06.008Z</time></trkpt><trkpt lat="43.9466643" lon="12.1334209"><ele>604.1666666666667</ele><time>2026-04-06T11:41:07.007Z</time></trkpt><trkpt lat="43.9466015" lon="12.1334722"><ele>604.3333333333334</ele><time>2026-04-06T11:41:08.008Z</time></trkpt><trkpt lat="43.9465379" lon="12.1335271"><ele>604.5</ele><time>2026-04-06T11:41:09.007Z</time></trkpt><trkpt lat="43.9464696" lon="12.1335713"><ele>604.6666666666666</ele><time>2026-04-06T11:41:10.009Z</time></trkpt><trkpt lat="43.9463923" lon="12.1336018"><ele>604.8333333333333</ele><time>2026-04-06T11:41:11.008Z</time></trkpt><trkpt lat="43.9463061" lon="12.1336262"><ele>605.0</ele><time>2026-04-06T11:41:12.012Z</time></trkpt><trkpt lat="43.9462237" lon="12.1336466"><ele>605.0</ele><time>2026-04-06T11:41:13.011Z</time></trkpt><trkpt lat="43.9461459" lon="12.1336749"><ele>605.0</ele><time>2026-04-06T11:41:14.008Z</time></trkpt><trkpt lat="43.9460696" lon="12.1336748"><ele>605.0</ele><time>2026-04-06T11:41:15.007Z</time></trkpt><trkpt lat="43.9459928" lon="12.1336304"><ele>605.0</ele><time>2026-04-06T11:41:16.007Z</time></trkpt><trkpt lat="43.9459186" lon="12.1335676"><ele>605.0</ele><time>2026-04-06T11:41:17.008Z</time></trkpt><trkpt lat="43.9458466" lon="12.1334834"><ele>605.0</ele><time>2026-04-06T11:41:18.011Z</time></trkpt><trkpt lat="43.9457609" lon="12.1332614"><ele>605.5</ele><time>2026-04-06T11:41:19.01Z</time></trkpt><trkpt lat="43.9456875" lon="12.1330591"><ele>606.0</ele><time>2026-04-06T11:41:20.006Z</time></trkpt><trkpt lat="43.9456177" lon="12.132888"><ele>606.5</ele><time>2026-04-06T11:41:21.007Z</time></trkpt><trkpt lat="43.9455666" lon="12.1327303"><ele>607.0</ele><time>2026-04-06T11:41:22.007Z</time></trkpt><trkpt lat="43.9455344" lon="12.132598"><ele>607.0</ele><time>2026-04-06T11:41:23.007Z</time></trkpt><trkpt lat="43.9455064" lon="12.1324959"><ele>607.0</ele><time>2026-04-06T11:41:24.007Z</time></trkpt><trkpt lat="43.9454839" lon="12.1323986"><ele>607.0</ele><time>2026-04-06T11:41:25.007Z</time></trkpt><trkpt lat="43.9454688" lon="12.132297"><ele>607.0</ele><time>2026-04-06T11:41:26.009Z</time></trkpt><trkpt lat="43.9454578" lon="12.1321872"><ele>607.0</ele><time>2026-04-06T11:41:27.006Z</time></trkpt><trkpt lat="43.9454531" lon="12.1320756"><ele>607.0</ele><time>2026-04-06T11:41:28.009Z</time></trkpt><trkpt lat="43.9454472" lon="12.1319682"><ele>606.8333333333334</ele><time>2026-04-06T11:41:29.006Z</time></trkpt><trkpt lat="43.9454366" lon="12.1318796"><ele>606.6666666666667</ele><time>2026-04-06T11:41:30.007Z</time></trkpt><trkpt lat="43.9453871" lon="12.1317376"><ele>606.5</ele><time>2026-04-06T11:41:32.006Z</time></trkpt><trkpt lat="43.9453509" lon="12.1316588"><ele>606.3333333333334</ele><time>2026-04-06T11:41:33.009Z</time></trkpt><trkpt lat="43.9453216" lon="12.1315653"><ele>606.1666666666666</ele><time>2026-04-06T11:41:34.009Z</time></trkpt><trkpt lat="43.9452842" lon="12.1314665"><ele>606.0</ele><time>2026-04-06T11:41:35.01Z</time></trkpt><trkpt lat="43.9452456" lon="12.1313602"><ele>607.25</ele><time>2026-04-06T11:41:36.006Z</time></trkpt><trkpt lat="43.9452153" lon="12.1312178"><ele>608.5</ele><time>2026-04-06T11:41:37.007Z</time></trkpt><trkpt lat="43.9451874" lon="12.1310453"><ele>609.75</ele><time>2026-04-06T11:41:38.009Z</time></trkpt><trkpt lat="43.9451498" lon="12.1308823"><ele>611.0</ele><time>2026-04-06T11:41:39.006Z</time></trkpt><trkpt lat="43.9451084" lon="12.1307126"><ele>611.75</ele><time>2026-04-06T11:41:40.007Z</time></trkpt><trkpt lat="43.9450647" lon="12.1305383"><ele>612.5</ele><time>2026-04-06T11:41:41.008Z</time></trkpt><trkpt lat="43.9450212" lon="12.1303694"><ele>613.25</ele><time>2026-04-06T11:41:42.014Z</time></trkpt><trkpt lat="43.9449887" lon="12.1301986"><ele>614.0</ele><time>2026-04-06T11:41:43.009Z</time></trkpt><trkpt lat="43.9449619" lon="12.1300287"><ele>619.2</ele><time>2026-04-06T11:41:44.006Z</time></trkpt><trkpt lat="43.9449378" lon="12.1298666"><ele>624.4</ele><time>2026-04-06T11:41:45.008Z</time></trkpt><trkpt lat="43.9448993" lon="12.1297323"><ele>629.6</ele><time>2026-04-06T11:41:46.007Z</time></trkpt><trkpt lat="43.9448523" lon="12.1296099"><ele>634.8</ele><time>2026-04-06T11:41:47.007Z</time></trkpt><trkpt lat="43.9447891" lon="12.129504"><ele>640.0</ele><time>2026-04-06T11:41:48.008Z</time></trkpt><trkpt lat="43.9447147" lon="12.1294152"><ele>640.0</ele><time>2026-04-06T11:41:49.008Z</time></trkpt><trkpt lat="43.9446343" lon="12.1293497"><ele>640.0</ele><time>2026-04-06T11:41:50.009Z</time></trkpt><trkpt lat="43.9445596" lon="12.129302"><ele>640.0</ele><time>2026-04-06T11:41:51.008Z</time></trkpt><trkpt lat="43.944495" lon="12.1292493"><ele>640.0</ele><time>2026-04-06T11:41:52.007Z</time></trkpt><trkpt lat="43.9444392" lon="12.1291902"><ele>640.0</ele><time>2026-04-06T11:41:53.008Z</time></trkpt><trkpt lat="43.9443941" lon="12.1291228"><ele>640.0</ele><time>2026-04-06T11:41:54.007Z</time></trkpt><trkpt lat="43.9443603" lon="12.1290365"><ele>637.75</ele><time>2026-04-06T11:41:55.009Z</time></trkpt><trkpt lat="43.9443409" lon="12.1289212"><ele>635.5</ele><time>2026-04-06T11:41:56.008Z</time></trkpt><trkpt lat="43.9443405" lon="12.1287724"><ele>633.25</ele><time>2026-04-06T11:41:57.011Z</time></trkpt><trkpt lat="43.9443521" lon="12.1285839"><ele>631.0</ele><time>2026-04-06T11:41:58.007Z</time></trkpt><trkpt lat="43.9443636" lon="12.1284136"><ele>631.0</ele><time>2026-04-06T11:41:59.007Z</time></trkpt><trkpt lat="43.9443699" lon="12.1282471"><ele>631.0</ele><time>2026-04-06T11:42:00.008Z</time></trkpt><trkpt lat="43.944376" lon="12.1280906"><ele>631.0</ele><time>2026-04-06T11:42:01.008Z</time></trkpt><trkpt lat="43.9443857" lon="12.1279399"><ele>631.0</ele><time>2026-04-06T11:42:02.008Z</time></trkpt><trkpt lat="43.9443884" lon="12.1277979"><ele>631.0</ele><time>2026-04-06T11:42:03.008Z</time></trkpt><trkpt lat="43.9443633" lon="12.1276552"><ele>627.2</ele><time>2026-04-06T11:42:04.007Z</time></trkpt><trkpt lat="43.9443215" lon="12.1275094"><ele>623.4000000000001</ele><time>2026-04-06T11:42:05.006Z</time></trkpt><trkpt lat="43.9442608" lon="12.1273767"><ele>619.6</ele><time>2026-04-06T11:42:06.007Z</time></trkpt><trkpt lat="43.9441913" lon="12.1272487"><ele>615.8000000000001</ele><time>2026-04-06T11:42:07.012Z</time></trkpt><trkpt lat="43.9441238" lon="12.1271411"><ele>612.0</ele><time>2026-04-06T11:42:08.008Z</time></trkpt><trkpt lat="43.9440525" lon="12.1270589"><ele>611.6666666666666</ele><time>2026-04-06T11:42:09.006Z</time></trkpt><trkpt lat="43.9439758" lon="12.127003"><ele>611.3333333333334</ele><time>2026-04-06T11:42:10.007Z</time></trkpt><trkpt lat="43.9438949" lon="12.1269679"><ele>611.0</ele><time>2026-04-06T11:42:11.006Z</time></trkpt><trkpt lat="43.9438101" lon="12.1269605"><ele>610.6666666666667</ele><time>2026-04-06T11:42:12.007Z</time></trkpt><trkpt lat="43.9437229" lon="12.1269627"><ele>610.3333333333334</ele><time>2026-04-06T11:42:13.007Z</time></trkpt><trkpt lat="43.9436367" lon="12.1269822"><ele>610.0</ele><time>2026-04-06T11:42:14.006Z</time></trkpt><trkpt lat="43.9435525" lon="12.1270198"><ele>610.0</ele><time>2026-04-06T11:42:15.008Z</time></trkpt><trkpt lat="43.9434706" lon="12.1270719"><ele>610.0</ele><time>2026-04-06T11:42:16.016Z</time></trkpt><trkpt lat="43.9433948" lon="12.1271391"><ele>610.0</ele><time>2026-04-06T11:42:17.008Z</time></trkpt><trkpt lat="43.9433164" lon="12.1272026"><ele>610.0</ele><time>2026-04-06T11:42:18.006Z</time></trkpt><trkpt lat="43.9432363" lon="12.1272717"><ele>610.0</ele><time>2026-04-06T11:42:19.009Z</time></trkpt><trkpt lat="43.9431467" lon="12.1273197"><ele>608.0</ele><time>2026-04-06T11:42:20.007Z</time></trkpt><trkpt lat="43.9430484" lon="12.1273472"><ele>606.0</ele><time>2026-04-06T11:42:21.009Z</time></trkpt><trkpt lat="43.9429465" lon="12.127359"><ele>604.0</ele><time>2026-04-06T11:42:22.008Z</time></trkpt><trkpt lat="43.942836" lon="12.1273387"><ele>602.0</ele><time>2026-04-06T11:42:23.006Z</time></trkpt><trkpt lat="43.9427288" lon="12.1273158"><ele>600.0</ele><time>2026-04-06T11:42:24.007Z</time></trkpt><trkpt lat="43.9426255" lon="12.1272949"><ele>598.0</ele><time>2026-04-06T11:42:25.006Z</time></trkpt><trkpt lat="43.9425271" lon="12.1272598"><ele>596.0</ele><time>2026-04-06T11:42:26.011Z</time></trkpt><trkpt lat="43.9424367" lon="12.1271874"><ele>594.0</ele><time>2026-04-06T11:42:27.009Z</time></trkpt><trkpt lat="43.9423499" lon="12.1270991"><ele>592.0</ele><time>2026-04-06T11:42:28.008Z</time></trkpt><trkpt lat="43.9422716" lon="12.1269907"><ele>590.0</ele><time>2026-04-06T11:42:29.007Z</time></trkpt><trkpt lat="43.9421934" lon="12.1268795"><ele>590.0</ele><time>2026-04-06T11:42:30.007Z</time></trkpt><trkpt lat="43.9421183" lon="12.126756"><ele>590.0</ele><time>2026-04-06T11:42:31.008Z</time></trkpt><trkpt lat="43.9420426" lon="12.1266359"><ele>590.0</ele><time>2026-04-06T11:42:32.007Z</time></trkpt><trkpt lat="43.9419771" lon="12.1265095"><ele>590.0</ele><time>2026-04-06T11:42:33.01Z</time></trkpt><trkpt lat="43.9419161" lon="12.1263833"><ele>588.8333333333333</ele><time>2026-04-06T11:42:34.008Z</time></trkpt><trkpt lat="43.9418505" lon="12.1262729"><ele>587.6666666666666</ele><time>2026-04-06T11:42:35.006Z</time></trkpt><trkpt lat="43.9417979" lon="12.1261607"><ele>586.5</ele><time>2026-04-06T11:42:36.007Z</time></trkpt><trkpt lat="43.9417544" lon="12.1260519"><ele>585.3333333333334</ele><time>2026-04-06T11:42:37.007Z</time></trkpt><trkpt lat="43.9417217" lon="12.1259494"><ele>584.1666666666667</ele><time>2026-04-06T11:42:38.013Z</time></trkpt><trkpt lat="43.9416955" lon="12.1258603"><ele>583.0</ele><time>2026-04-06T11:42:39.007Z</time></trkpt><trkpt lat="43.9416696" lon="12.1257764"><ele>583.0</ele><time>2026-04-06T11:42:40.008Z</time></trkpt><trkpt lat="43.941632" lon="12.1257057"><ele>583.0</ele><time>2026-04-06T11:42:41.006Z</time></trkpt><trkpt lat="43.9415135" lon="12.1256371"><ele>583.0</ele><time>2026-04-06T11:42:43.008Z</time></trkpt><trkpt lat="43.9414471" lon="12.1256511"><ele>583.0</ele><time>2026-04-06T11:42:44.006Z</time></trkpt><trkpt lat="43.941385" lon="12.125688"><ele>583.0</ele><time>2026-04-06T11:42:45.01Z</time></trkpt><trkpt lat="43.9413206" lon="12.1257594"><ele>583.0</ele><time>2026-04-06T11:42:46.008Z</time></trkpt><trkpt lat="43.9412489" lon="12.1258544"><ele>583.0</ele><time>2026-04-06T11:42:47.009Z</time></trkpt><trkpt lat="43.9411603" lon="12.1259647"><ele>583.0</ele><time>2026-04-06T11:42:48.01Z</time></trkpt><trkpt lat="43.9410676" lon="12.1260763"><ele>583.0</ele><time>2026-04-06T11:42:49.007Z</time></trkpt><trkpt lat="43.9409838" lon="12.1261997"><ele>583.0</ele><time>2026-04-06T11:42:50.008Z</time></trkpt><trkpt lat="43.9409148" lon="12.1263181"><ele>583.3333333333334</ele><time>2026-04-06T11:42:51.008Z</time></trkpt><trkpt lat="43.9408578" lon="12.1264312"><ele>583.6666666666667</ele><time>2026-04-06T11:42:52.007Z</time></trkpt><trkpt lat="43.9408097" lon="12.1265442"><ele>584.0</ele><time>2026-04-06T11:42:53.011Z</time></trkpt><trkpt lat="43.9407767" lon="12.1266553"><ele>584.3333333333334</ele><time>2026-04-06T11:42:54.008Z</time></trkpt><trkpt lat="43.9407512" lon="12.1267655"><ele>584.6666666666666</ele><time>2026-04-06T11:42:55.009Z</time></trkpt><trkpt lat="43.9407291" lon="12.1268692"><ele>585.0</ele><time>2026-04-06T11:42:56.008Z</time></trkpt><trkpt lat="43.940714" lon="12.1269759"><ele>585.0</ele><time>2026-04-06T11:42:57.009Z</time></trkpt><trkpt lat="43.9406823" lon="12.1270783"><ele>585.0</ele><time>2026-04-06T11:42:58.007Z</time></trkpt><trkpt lat="43.9406349" lon="12.1271689"><ele>585.0</ele><time>2026-04-06T11:42:59.009Z</time></trkpt><trkpt lat="43.9405687" lon="12.1272323"><ele>585.0</ele><time>2026-04-06T11:43:00.01Z</time></trkpt><trkpt lat="43.9404896" lon="12.127264"><ele>585.0</ele><time>2026-04-06T11:43:01.008Z</time></trkpt><trkpt lat="43.9404018" lon="12.1272754"><ele>585.0</ele><time>2026-04-06T11:43:02.009Z</time></trkpt><trkpt lat="43.9403046" lon="12.127268"><ele>585.0</ele><time>2026-04-06T11:43:03.009Z</time></trkpt><trkpt lat="43.9401961" lon="12.1272295"><ele>585.0</ele><time>2026-04-06T11:43:04.009Z</time></trkpt><trkpt lat="43.9400916" lon="12.1271688"><ele>585.0</ele><time>2026-04-06T11:43:05.007Z</time></trkpt><trkpt lat="43.9399959" lon="12.1270837"><ele>585.0</ele><time>2026-04-06T11:43:06.007Z</time></trkpt><trkpt lat="43.9399074" lon="12.1269713"><ele>581.5</ele><time>2026-04-06T11:43:07.009Z</time></trkpt><trkpt lat="43.9398195" lon="12.1268271"><ele>578.0</ele><time>2026-04-06T11:43:08.009Z</time></trkpt><trkpt lat="43.9397348" lon="12.1266654"><ele>574.5</ele><time>2026-04-06T11:43:09.01Z</time></trkpt><trkpt lat="43.9396654" lon="12.1264869"><ele>571.0</ele><time>2026-04-06T11:43:10.008Z</time></trkpt><trkpt lat="43.9396019" lon="12.1263116"><ele>568.2</ele><time>2026-04-06T11:43:11.008Z</time></trkpt><trkpt lat="43.9395383" lon="12.1261638"><ele>565.4000000000001</ele><time>2026-04-06T11:43:12.008Z</time></trkpt><trkpt lat="43.9394783" lon="12.1260527"><ele>562.6</ele><time>2026-04-06T11:43:13.009Z</time></trkpt><trkpt lat="43.9394217" lon="12.1259661"><ele>559.8000000000001</ele><time>2026-04-06T11:43:14.01Z</time></trkpt><trkpt lat="43.9393583" lon="12.1258912"><ele>557.0</ele><time>2026-04-06T11:43:15.008Z</time></trkpt><trkpt lat="43.939277" lon="12.1258402"><ele>561.2</ele><time>2026-04-06T11:43:16.008Z</time></trkpt><trkpt lat="43.9391851" lon="12.1257947"><ele>565.4000000000001</ele><time>2026-04-06T11:43:17.008Z</time></trkpt><trkpt lat="43.9390621" lon="12.1258038"><ele>569.5999999999999</ele><time>2026-04-06T11:43:18.006Z</time></trkpt><trkpt lat="43.9389529" lon="12.1258245"><ele>573.8</ele><time>2026-04-06T11:43:19.008Z</time></trkpt><trkpt lat="43.9388605" lon="12.1258605"><ele>578.0</ele><time>2026-04-06T11:43:20.007Z</time></trkpt><trkpt lat="43.9387765" lon="12.1258725"><ele>578.0</ele><time>2026-04-06T11:43:21.007Z</time></trkpt><trkpt lat="43.9386917" lon="12.125849"><ele>578.0</ele><time>2026-04-06T11:43:22.007Z</time></trkpt><trkpt lat="43.9385983" lon="12.125791"><ele>578.0</ele><time>2026-04-06T11:43:23.005Z</time></trkpt><trkpt lat="43.9384973" lon="12.1257074"><ele>578.0</ele><time>2026-04-06T11:43:24.007Z</time></trkpt><trkpt lat="43.938384" lon="12.125604"><ele>578.0</ele><time>2026-04-06T11:43:25.006Z</time></trkpt><trkpt lat="43.9382692" lon="12.1255075"><ele>579.25</ele><time>2026-04-06T11:43:26.007Z</time></trkpt><trkpt lat="43.938157" lon="12.1254152"><ele>580.5</ele><time>2026-04-06T11:43:27.006Z</time></trkpt><trkpt lat="43.9380395" lon="12.1253576"><ele>581.75</ele><time>2026-04-06T11:43:28.006Z</time></trkpt><trkpt lat="43.9379392" lon="12.1252963"><ele>583.0</ele><time>2026-04-06T11:43:29.009Z</time></trkpt><trkpt lat="43.9378625" lon="12.125211"><ele>583.0</ele><time>2026-04-06T11:43:30.008Z</time></trkpt><trkpt lat="43.9377954" lon="12.1251348"><ele>583.0</ele><time>2026-04-06T11:43:31.013Z</time></trkpt><trkpt lat="43.9377434" lon="12.1250525"><ele>583.0</ele><time>2026-04-06T11:43:32.008Z</time></trkpt><trkpt lat="43.937709" lon="12.124955"><ele>583.0</ele><time>2026-04-06T11:43:33.008Z</time></trkpt><trkpt lat="43.9376626" lon="12.1248649"><ele>583.0</ele><time>2026-04-06T11:43:34.006Z</time></trkpt><trkpt lat="43.9376401" lon="12.1247384"><ele>583.0</ele><time>2026-04-06T11:43:35.009Z</time></trkpt><trkpt lat="43.9376354" lon="12.1245902"><ele>582.0</ele><time>2026-04-06T11:43:36.01Z</time></trkpt><trkpt lat="43.9376317" lon="12.1243897"><ele>581.0</ele><time>2026-04-06T11:43:37.009Z</time></trkpt><trkpt lat="43.9376274" lon="12.1241934"><ele>580.0</ele><time>2026-04-06T11:43:38.008Z</time></trkpt><trkpt lat="43.9375966" lon="12.1240174"><ele>579.0</ele><time>2026-04-06T11:43:39.007Z</time></trkpt><trkpt lat="43.9375608" lon="12.1238606"><ele>573.4</ele><time>2026-04-06T11:43:40.007Z</time></trkpt><trkpt lat="43.9375177" lon="12.1237253"><ele>567.8</ele><time>2026-04-06T11:43:41.012Z</time></trkpt><trkpt lat="43.9374739" lon="12.1236072"><ele>562.2</ele><time>2026-04-06T11:43:42.008Z</time></trkpt><trkpt lat="43.9374169" lon="12.1235027"><ele>556.6</ele><time>2026-04-06T11:43:43.009Z</time></trkpt><trkpt lat="43.9373463" lon="12.1234184"><ele>551.0</ele><time>2026-04-06T11:43:44.007Z</time></trkpt><trkpt lat="43.9372757" lon="12.1233501"><ele>551.0</ele><time>2026-04-06T11:43:45.008Z</time></trkpt><trkpt lat="43.9372184" lon="12.1232661"><ele>551.0</ele><time>2026-04-06T11:43:46.007Z</time></trkpt><trkpt lat="43.937168" lon="12.1231673"><ele>551.0</ele><time>2026-04-06T11:43:47.006Z</time></trkpt><trkpt lat="43.9371184" lon="12.123059"><ele>551.0</ele><time>2026-04-06T11:43:48.01Z</time></trkpt><trkpt lat="43.9370956" lon="12.1228924"><ele>551.0</ele><time>2026-04-06T11:43:49.007Z</time></trkpt><trkpt lat="43.9370799" lon="12.1227051"><ele>550.5</ele><time>2026-04-06T11:43:50.007Z</time></trkpt><trkpt lat="43.9370464" lon="12.1225257"><ele>550.0</ele><time>2026-04-06T11:43:51.008Z</time></trkpt><trkpt lat="43.9369918" lon="12.1223645"><ele>549.5</ele><time>2026-04-06T11:43:52.01Z</time></trkpt><trkpt lat="43.9369169" lon="12.12221"><ele>549.0</ele><time>2026-04-06T11:43:53.008Z</time></trkpt><trkpt lat="43.9368271" lon="12.1220552"><ele>549.6666666666666</ele><time>2026-04-06T11:43:54.01Z</time></trkpt><trkpt lat="43.9367281" lon="12.1219044"><ele>550.3333333333333</ele><time>2026-04-06T11:43:55.007Z</time></trkpt><trkpt lat="43.9366297" lon="12.121744"><ele>551.0</ele><time>2026-04-06T11:43:56.009Z</time></trkpt><trkpt lat="43.9365307" lon="12.1215849"><ele>556.25</ele><time>2026-04-06T11:43:57.009Z</time></trkpt><trkpt lat="43.9364504" lon="12.1214179"><ele>561.5</ele><time>2026-04-06T11:43:58.008Z</time></trkpt><trkpt lat="43.9363647" lon="12.1212733"><ele>566.75</ele><time>2026-04-06T11:43:59.009Z</time></trkpt><trkpt lat="43.9362648" lon="12.1211666"><ele>572.0</ele><time>2026-04-06T11:44:00.008Z</time></trkpt><trkpt lat="43.9361497" lon="12.1210911"><ele>572.0</ele><time>2026-04-06T11:44:01.009Z</time></trkpt><trkpt lat="43.9360217" lon="12.1210389"><ele>572.0</ele><time>2026-04-06T11:44:02.008Z</time></trkpt><trkpt lat="43.9358853" lon="12.1210103"><ele>572.0</ele><time>2026-04-06T11:44:03.005Z</time></trkpt><trkpt lat="43.9357637" lon="12.1209689"><ele>572.0</ele><time>2026-04-06T11:44:04.007Z</time></trkpt><trkpt lat="43.9356544" lon="12.1209034"><ele>571.1666666666666</ele><time>2026-04-06T11:44:05.006Z</time></trkpt><trkpt lat="43.9355504" lon="12.120873"><ele>570.3333333333333</ele><time>2026-04-06T11:44:06.008Z</time></trkpt><trkpt lat="43.9354553" lon="12.1208767"><ele>569.5</ele><time>2026-04-06T11:44:07.007Z</time></trkpt><trkpt lat="43.9353696" lon="12.1208914"><ele>568.6666666666666</ele><time>2026-04-06T11:44:08.008Z</time></trkpt><trkpt lat="43.9352898" lon="12.120918"><ele>567.8333333333334</ele><time>2026-04-06T11:44:09.009Z</time></trkpt><trkpt lat="43.9352241" lon="12.1209127"><ele>567.0</ele><time>2026-04-06T11:44:10.006Z</time></trkpt><trkpt lat="43.9351227" lon="12.12084"><ele>565.3333333333334</ele><time>2026-04-06T11:44:12.005Z</time></trkpt><trkpt lat="43.9350608" lon="12.120714"><ele>563.6666666666666</ele><time>2026-04-06T11:44:14.013Z</time></trkpt><trkpt lat="43.935068" lon="12.1206225"><ele>562.0</ele><time>2026-04-06T11:44:15.008Z</time></trkpt><trkpt lat="43.9350958" lon="12.1205186"><ele>560.3333333333333</ele><time>2026-04-06T11:44:16.006Z</time></trkpt><trkpt lat="43.9351342" lon="12.1204089"><ele>558.6666666666666</ele><time>2026-04-06T11:44:17.007Z</time></trkpt><trkpt lat="43.935186" lon="12.1203132"><ele>557.0</ele><time>2026-04-06T11:44:18.011Z</time></trkpt><trkpt lat="43.935251" lon="12.1202317"><ele>557.0</ele><time>2026-04-06T11:44:19.012Z</time></trkpt><trkpt lat="43.9353255" lon="12.1201619"><ele>557.0</ele><time>2026-04-06T11:44:20.007Z</time></trkpt><trkpt lat="43.935404" lon="12.1201048"><ele>557.0</ele><time>2026-04-06T11:44:21.008Z</time></trkpt><trkpt lat="43.935484" lon="12.1200662"><ele>557.0</ele><time>2026-04-06T11:44:22.006Z</time></trkpt><trkpt lat="43.9355504" lon="12.120034"><ele>557.0</ele><time>2026-04-06T11:44:23.007Z</time></trkpt><trkpt lat="43.9356526" lon="12.1199995"><ele>557.0</ele><time>2026-04-06T11:44:25.008Z</time></trkpt><trkpt lat="43.9357581" lon="12.1199972"><ele>557.0</ele><time>2026-04-06T11:44:27.008Z</time></trkpt><trkpt lat="43.9358244" lon="12.1199808"><ele>557.0</ele><time>2026-04-06T11:44:28.008Z</time></trkpt><trkpt lat="43.9358963" lon="12.1199437"><ele>557.0</ele><time>2026-04-06T11:44:29.007Z</time></trkpt><trkpt lat="43.9359718" lon="12.1199044"><ele>557.0</ele><time>2026-04-06T11:44:30.008Z</time></trkpt><trkpt lat="43.936061" lon="12.1198541"><ele>557.0</ele><time>2026-04-06T11:44:31.013Z</time></trkpt><trkpt lat="43.9361617" lon="12.1197778"><ele>557.0</ele><time>2026-04-06T11:44:32.007Z</time></trkpt><trkpt lat="43.9362682" lon="12.1196925"><ele>556.5</ele><time>2026-04-06T11:44:33.006Z</time></trkpt><trkpt lat="43.9363747" lon="12.1195981"><ele>556.0</ele><time>2026-04-06T11:44:34.008Z</time></trkpt><trkpt lat="43.9364731" lon="12.119485"><ele>555.5</ele><time>2026-04-06T11:44:35.009Z</time></trkpt><trkpt lat="43.9365658" lon="12.1193628"><ele>555.0</ele><time>2026-04-06T11:44:36.005Z</time></trkpt><trkpt lat="43.9366442" lon="12.1192114"><ele>555.0</ele><time>2026-04-06T11:44:37.01Z</time></trkpt><trkpt lat="43.9367138" lon="12.1190523"><ele>555.0</ele><time>2026-04-06T11:44:38.007Z</time></trkpt><trkpt lat="43.9367712" lon="12.1188984"><ele>555.0</ele><time>2026-04-06T11:44:39.006Z</time></trkpt><trkpt lat="43.9368155" lon="12.1187557"><ele>555.0</ele><time>2026-04-06T11:44:40.008Z</time></trkpt><trkpt lat="43.9368517" lon="12.1186295"><ele>555.0</ele><time>2026-04-06T11:44:41.008Z</time></trkpt><trkpt lat="43.9368893" lon="12.1185262"><ele>555.0</ele><time>2026-04-06T11:44:42.009Z</time></trkpt><trkpt lat="43.9369293" lon="12.118445"><ele>555.0</ele><time>2026-04-06T11:44:43.006Z</time></trkpt><trkpt lat="43.9369793" lon="12.1183852"><ele>555.0</ele><time>2026-04-06T11:44:44.008Z</time></trkpt><trkpt lat="43.9370431" lon="12.1183527"><ele>555.0</ele><time>2026-04-06T11:44:45.008Z</time></trkpt><trkpt lat="43.9371151" lon="12.1183305"><ele>555.0</ele><time>2026-04-06T11:44:46.008Z</time></trkpt><trkpt lat="43.9372053" lon="12.1183318"><ele>555.0</ele><time>2026-04-06T11:44:47.008Z</time></trkpt><trkpt lat="43.9372927" lon="12.1183129"><ele>555.0</ele><time>2026-04-06T11:44:48.01Z</time></trkpt><trkpt lat="43.9373706" lon="12.1182867"><ele>555.0</ele><time>2026-04-06T11:44:49.017Z</time></trkpt><trkpt lat="43.9374339" lon="12.118265"><ele>555.0</ele><time>2026-04-06T11:44:50.007Z</time></trkpt><trkpt lat="43.9375083" lon="12.1182089"><ele>555.0</ele><time>2026-04-06T11:44:52.007Z</time></trkpt><trkpt lat="43.9375618" lon="12.1181251"><ele>555.0</ele><time>2026-04-06T11:44:54.008Z</time></trkpt><trkpt lat="43.9376051" lon="12.1180181"><ele>554.0</ele><time>2026-04-06T11:44:56.012Z</time></trkpt><trkpt lat="43.937632" lon="12.1178831"><ele>553.0</ele><time>2026-04-06T11:44:58.006Z</time></trkpt><trkpt lat="43.9376503" lon="12.1177341"><ele>552.0</ele><time>2026-04-06T11:45:00.007Z</time></trkpt><trkpt lat="43.9376571" lon="12.1175988"><ele>551.0</ele><time>2026-04-06T11:45:02.008Z</time></trkpt><trkpt lat="43.9376987" lon="12.1174624"><ele>550.0</ele><time>2026-04-06T11:45:04.007Z</time></trkpt><trkpt lat="43.9377757" lon="12.1173325"><ele>548.0</ele><time>2026-04-06T11:45:06.011Z</time></trkpt><trkpt lat="43.9378344" lon="12.1172959"><ele>546.0</ele><time>2026-04-06T11:45:07.008Z</time></trkpt><trkpt lat="43.9379035" lon="12.1172775"><ele>544.0</ele><time>2026-04-06T11:45:08.007Z</time></trkpt><trkpt lat="43.9379784" lon="12.1172644"><ele>542.0</ele><time>2026-04-06T11:45:09.007Z</time></trkpt><trkpt lat="43.9380498" lon="12.1172453"><ele>540.0</ele><time>2026-04-06T11:45:10.008Z</time></trkpt><trkpt lat="43.9381178" lon="12.1172089"><ele>538.0</ele><time>2026-04-06T11:45:11.009Z</time></trkpt><trkpt lat="43.9381775" lon="12.117163"><ele>536.0</ele><time>2026-04-06T11:45:12.007Z</time></trkpt><trkpt lat="43.9382445" lon="12.1171065"><ele>536.0</ele><time>2026-04-06T11:45:13.009Z</time></trkpt><trkpt lat="43.9383074" lon="12.1170477"><ele>536.0</ele><time>2026-04-06T11:45:14.008Z</time></trkpt><trkpt lat="43.9383556" lon="12.1169669"><ele>536.0</ele><time>2026-04-06T11:45:15.009Z</time></trkpt><trkpt lat="43.9383922" lon="12.1168723"><ele>536.0</ele><time>2026-04-06T11:45:16.01Z</time></trkpt><trkpt lat="43.9384163" lon="12.1167618"><ele>536.0</ele><time>2026-04-06T11:45:17.007Z</time></trkpt><trkpt lat="43.9384325" lon="12.1166458"><ele>536.0</ele><time>2026-04-06T11:45:18.009Z</time></trkpt><trkpt lat="43.9384439" lon="12.1165278"><ele>534.8333333333333</ele><time>2026-04-06T11:45:19.007Z</time></trkpt><trkpt lat="43.9384609" lon="12.1164149"><ele>533.6666666666666</ele><time>2026-04-06T11:45:20.007Z</time></trkpt><trkpt lat="43.9384711" lon="12.1163047"><ele>532.5</ele><time>2026-04-06T11:45:21.007Z</time></trkpt><trkpt lat="43.9384756" lon="12.1161978"><ele>531.3333333333334</ele><time>2026-04-06T11:45:22.006Z</time></trkpt><trkpt lat="43.9384862" lon="12.1160928"><ele>530.1666666666667</ele><time>2026-04-06T11:45:23.007Z</time></trkpt><trkpt lat="43.9385019" lon="12.115989"><ele>529.0</ele><time>2026-04-06T11:45:24.007Z</time></trkpt><trkpt lat="43.9385094" lon="12.1158735"><ele>529.0</ele><time>2026-04-06T11:45:25.007Z</time></trkpt><trkpt lat="43.9385224" lon="12.1157477"><ele>529.0</ele><time>2026-04-06T11:45:26.007Z</time></trkpt><trkpt lat="43.9385376" lon="12.1155944"><ele>529.0</ele><time>2026-04-06T11:45:27.007Z</time></trkpt><trkpt lat="43.9385724" lon="12.115419"><ele>529.0</ele><time>2026-04-06T11:45:28.012Z</time></trkpt><trkpt lat="43.938616" lon="12.1152231"><ele>531.3333333333334</ele><time>2026-04-06T11:45:29.012Z</time></trkpt><trkpt lat="43.9386621" lon="12.115015"><ele>533.6666666666666</ele><time>2026-04-06T11:45:30.009Z</time></trkpt><trkpt lat="43.9386993" lon="12.1148065"><ele>536.0</ele><time>2026-04-06T11:45:31.008Z</time></trkpt><trkpt lat="43.9387105" lon="12.1146001"><ele>538.5</ele><time>2026-04-06T11:45:32.006Z</time></trkpt><trkpt lat="43.9387195" lon="12.1144001"><ele>541.0</ele><time>2026-04-06T11:45:33.013Z</time></trkpt><trkpt lat="43.9387183" lon="12.1142133"><ele>543.5</ele><time>2026-04-06T11:45:34.009Z</time></trkpt><trkpt lat="43.938717" lon="12.1140458"><ele>546.0</ele><time>2026-04-06T11:45:35.007Z</time></trkpt><trkpt lat="43.9387282" lon="12.113906"><ele>546.0</ele><time>2026-04-06T11:45:36.007Z</time></trkpt><trkpt lat="43.9387446" lon="12.1137864"><ele>546.0</ele><time>2026-04-06T11:45:37.01Z</time></trkpt><trkpt lat="43.9387728" lon="12.1136854"><ele>546.0</ele><time>2026-04-06T11:45:38.011Z</time></trkpt><trkpt lat="43.9388103" lon="12.1136021"><ele>546.0</ele><time>2026-04-06T11:45:39.01Z</time></trkpt><trkpt lat="43.9388895" lon="12.1134903"><ele>546.0</ele><time>2026-04-06T11:45:41.007Z</time></trkpt><trkpt lat="43.9389446" lon="12.1134416"><ele>546.0</ele><time>2026-04-06T11:45:43.009Z</time></trkpt><trkpt lat="43.9390173" lon="12.1133926"><ele>546.0</ele><time>2026-04-06T11:45:57.992Z</time></trkpt><trkpt lat="43.939151" lon="12.1132801"><ele>546.0</ele><time>2026-04-06T11:45:59.975Z</time></trkpt><trkpt lat="43.9392785" lon="12.1131491"><ele>546.0</ele><time>2026-04-06T11:46:01.009Z</time></trkpt><trkpt lat="43.9393819" lon="12.1130284"><ele>542.0</ele><time>2026-04-06T11:46:02.009Z</time></trkpt><trkpt lat="43.9394636" lon="12.112876"><ele>538.0</ele><time>2026-04-06T11:46:03.011Z</time></trkpt><trkpt lat="43.9395271" lon="12.1126808"><ele>534.0</ele><time>2026-04-06T11:46:04.01Z</time></trkpt><trkpt lat="43.9395925" lon="12.1124704"><ele>534.3333333333334</ele><time>2026-04-06T11:46:05.009Z</time></trkpt><trkpt lat="43.9396521" lon="12.1122594"><ele>534.6666666666667</ele><time>2026-04-06T11:46:06.009Z</time></trkpt><trkpt lat="43.9397137" lon="12.1120497"><ele>535.0</ele><time>2026-04-06T11:46:07.009Z</time></trkpt><trkpt lat="43.9397755" lon="12.1118441"><ele>535.0</ele><time>2026-04-06T11:46:08.009Z</time></trkpt><trkpt lat="43.9398431" lon="12.1116432"><ele>535.0</ele><time>2026-04-06T11:46:09.009Z</time></trkpt><trkpt lat="43.9398963" lon="12.1114448"><ele>535.0</ele><time>2026-04-06T11:46:10.013Z</time></trkpt><trkpt lat="43.9399491" lon="12.111271"><ele>535.0</ele><time>2026-04-06T11:46:11.012Z</time></trkpt><trkpt lat="43.9399883" lon="12.1111041"><ele>535.2</ele><time>2026-04-06T11:46:12.008Z</time></trkpt><trkpt lat="43.9400101" lon="12.1109361"><ele>535.4</ele><time>2026-04-06T11:46:13.008Z</time></trkpt><trkpt lat="43.940032" lon="12.1107802"><ele>535.6</ele><time>2026-04-06T11:46:14.008Z</time></trkpt><trkpt lat="43.9400345" lon="12.1106376"><ele>535.8</ele><time>2026-04-06T11:46:15.012Z</time></trkpt><trkpt lat="43.9400364" lon="12.1105079"><ele>536.0</ele><time>2026-04-06T11:46:16.009Z</time></trkpt><trkpt lat="43.9400639" lon="12.1103939"><ele>537.8</ele><time>2026-04-06T11:46:17.009Z</time></trkpt><trkpt lat="43.9401106" lon="12.1102922"><ele>539.6</ele><time>2026-04-06T11:46:18.01Z</time></trkpt><trkpt lat="43.9401706" lon="12.1101947"><ele>541.4</ele><time>2026-04-06T11:46:19.009Z</time></trkpt><trkpt lat="43.9402494" lon="12.1101039"><ele>543.2</ele><time>2026-04-06T11:46:20.008Z</time></trkpt><trkpt lat="43.940315" lon="12.1099922"><ele>545.0</ele><time>2026-04-06T11:46:21.01Z</time></trkpt><trkpt lat="43.9403631" lon="12.1098614"><ele>547.4</ele><time>2026-04-06T11:46:22.009Z</time></trkpt><trkpt lat="43.9403999" lon="12.1097299"><ele>549.8</ele><time>2026-04-06T11:46:23.009Z</time></trkpt><trkpt lat="43.9404192" lon="12.1096044"><ele>552.2</ele><time>2026-04-06T11:46:24.01Z</time></trkpt><trkpt lat="43.9404177" lon="12.1094738"><ele>554.6</ele><time>2026-04-06T11:46:25.009Z</time></trkpt><trkpt lat="43.9403891" lon="12.1093345"><ele>557.0</ele><time>2026-04-06T11:46:26.011Z</time></trkpt><trkpt lat="43.9403535" lon="12.1091865"><ele>556.2</ele><time>2026-04-06T11:46:27.01Z</time></trkpt><trkpt lat="43.9403429" lon="12.1090319"><ele>555.4000000000001</ele><time>2026-04-06T11:46:28.007Z</time></trkpt><trkpt lat="43.9403411" lon="12.1088873"><ele>554.5999999999999</ele><time>2026-04-06T11:46:29.01Z</time></trkpt><trkpt lat="43.9403646" lon="12.1087418"><ele>553.8</ele><time>2026-04-06T11:46:30.01Z</time></trkpt><trkpt lat="43.940405" lon="12.1086001"><ele>553.0</ele><time>2026-04-06T11:46:31.007Z</time></trkpt><trkpt lat="43.9404472" lon="12.1084766"><ele>553.0</ele><time>2026-04-06T11:46:32.01Z</time></trkpt><trkpt lat="43.94046" lon="12.1083618"><ele>553.0</ele><time>2026-04-06T11:46:33.015Z</time></trkpt><trkpt lat="43.9404526" lon="12.1082498"><ele>553.0</ele><time>2026-04-06T11:46:34.01Z</time></trkpt><trkpt lat="43.9404274" lon="12.1081226"><ele>553.0</ele><time>2026-04-06T11:46:35.015Z</time></trkpt><trkpt lat="43.9403489" lon="12.1079782"><ele>553.0</ele><time>2026-04-06T11:46:36.009Z</time></trkpt><trkpt lat="43.9402773" lon="12.1078351"><ele>555.0</ele><time>2026-04-06T11:46:37.008Z</time></trkpt><trkpt lat="43.9402215" lon="12.107709"><ele>557.0</ele><time>2026-04-06T11:46:38.009Z</time></trkpt><trkpt lat="43.9401925" lon="12.1075803"><ele>559.0</ele><time>2026-04-06T11:46:39.01Z</time></trkpt><trkpt lat="43.9401856" lon="12.1074363"><ele>561.0</ele><time>2026-04-06T11:46:40.008Z</time></trkpt><trkpt lat="43.9401783" lon="12.1072761"><ele>563.0</ele><time>2026-04-06T11:46:41.007Z</time></trkpt><trkpt lat="43.940151" lon="12.1071234"><ele>564.8</ele><time>2026-04-06T11:46:42.01Z</time></trkpt><trkpt lat="43.9401347" lon="12.106967"><ele>566.5999999999999</ele><time>2026-04-06T11:46:43.009Z</time></trkpt><trkpt lat="43.9401398" lon="12.1068158"><ele>568.4000000000001</ele><time>2026-04-06T11:46:44.01Z</time></trkpt><trkpt lat="43.9401381" lon="12.106681"><ele>570.2</ele><time>2026-04-06T11:46:45.011Z</time></trkpt><trkpt lat="43.9401158" lon="12.1065682"><ele>572.0</ele><time>2026-04-06T11:46:46.008Z</time></trkpt><trkpt lat="43.9400806" lon="12.1064764"><ele>572.0</ele><time>2026-04-06T11:46:47.008Z</time></trkpt><trkpt lat="43.9400462" lon="12.1063968"><ele>572.0</ele><time>2026-04-06T11:46:48.011Z</time></trkpt><trkpt lat="43.9400372" lon="12.1063076"><ele>572.0</ele><time>2026-04-06T11:46:49.009Z</time></trkpt><trkpt lat="43.9400549" lon="12.106202"><ele>572.0</ele><time>2026-04-06T11:46:50.01Z</time></trkpt><trkpt lat="43.94008" lon="12.1060952"><ele>572.0</ele><time>2026-04-06T11:46:51.018Z</time></trkpt><trkpt lat="43.9401126" lon="12.1059582"><ele>572.0</ele><time>2026-04-06T11:46:52.009Z</time></trkpt><trkpt lat="43.9401856" lon="12.1058106"><ele>570.8000000000001</ele><time>2026-04-06T11:46:53.011Z</time></trkpt><trkpt lat="43.9402588" lon="12.1056766"><ele>569.6</ele><time>2026-04-06T11:46:54.008Z</time></trkpt><trkpt lat="43.9403189" lon="12.1055465"><ele>568.4000000000001</ele><time>2026-04-06T11:46:55.009Z</time></trkpt><trkpt lat="43.940363" lon="12.1054122"><ele>567.2</ele><time>2026-04-06T11:46:56.01Z</time></trkpt><trkpt lat="43.9403962" lon="12.1052756"><ele>566.0</ele><time>2026-04-06T11:46:57.01Z</time></trkpt><trkpt lat="43.9404037" lon="12.1051224"><ele>566.0</ele><time>2026-04-06T11:46:58.01Z</time></trkpt><trkpt lat="43.9404125" lon="12.1049484"><ele>566.0</ele><time>2026-04-06T11:46:59.009Z</time></trkpt><trkpt lat="43.9403954" lon="12.1047568"><ele>566.0</ele><time>2026-04-06T11:47:00.01Z</time></trkpt><trkpt lat="43.9403794" lon="12.1045548"><ele>566.0</ele><time>2026-04-06T11:47:01.008Z</time></trkpt><trkpt lat="43.9403662" lon="12.1043565"><ele>567.75</ele><time>2026-04-06T11:47:02.013Z</time></trkpt><trkpt lat="43.9403225" lon="12.1041845"><ele>569.5</ele><time>2026-04-06T11:47:03.01Z</time></trkpt><trkpt lat="43.940268" lon="12.1040218"><ele>571.25</ele><time>2026-04-06T11:47:04.009Z</time></trkpt><trkpt lat="43.9402147" lon="12.1038621"><ele>573.0</ele><time>2026-04-06T11:47:05.008Z</time></trkpt><trkpt lat="43.9401636" lon="12.1037178"><ele>574.8333333333334</ele><time>2026-04-06T11:47:06.008Z</time></trkpt><trkpt lat="43.9401121" lon="12.1036067"><ele>576.6666666666666</ele><time>2026-04-06T11:47:07.008Z</time></trkpt><trkpt lat="43.9400487" lon="12.1035188"><ele>578.5</ele><time>2026-04-06T11:47:08.013Z</time></trkpt><trkpt lat="43.9399692" lon="12.103459"><ele>580.3333333333333</ele><time>2026-04-06T11:47:09.01Z</time></trkpt><trkpt lat="43.939896" lon="12.1034071"><ele>582.1666666666666</ele><time>2026-04-06T11:47:10.009Z</time></trkpt><trkpt lat="43.9398402" lon="12.1033577"><ele>584.0</ele><time>2026-04-06T11:47:11.006Z</time></trkpt><trkpt lat="43.9397861" lon="12.103245"><ele>586.4</ele><time>2026-04-06T11:47:13.01Z</time></trkpt><trkpt lat="43.9398131" lon="12.1031006"><ele>588.8</ele><time>2026-04-06T11:47:15.009Z</time></trkpt><trkpt lat="43.9398474" lon="12.1030025"><ele>591.2</ele><time>2026-04-06T11:47:16.007Z</time></trkpt><trkpt lat="43.9398776" lon="12.1028953"><ele>593.6</ele><time>2026-04-06T11:47:17.01Z</time></trkpt><trkpt lat="43.9399022" lon="12.1027761"><ele>596.0</ele><time>2026-04-06T11:47:18.013Z</time></trkpt><trkpt lat="43.93992" lon="12.1026394"><ele>596.0</ele><time>2026-04-06T11:47:19.007Z</time></trkpt><trkpt lat="43.9399329" lon="12.1025009"><ele>596.0</ele><time>2026-04-06T11:47:20.008Z</time></trkpt><trkpt lat="43.9399492" lon="12.1023811"><ele>596.0</ele><time>2026-04-06T11:47:21.009Z</time></trkpt><trkpt lat="43.9399706" lon="12.1022744"><ele>596.0</ele><time>2026-04-06T11:47:22.009Z</time></trkpt><trkpt lat="43.9399867" lon="12.1021707"><ele>596.0</ele><time>2026-04-06T11:47:23.006Z</time></trkpt><trkpt lat="43.9399907" lon="12.1020579"><ele>596.0</ele><time>2026-04-06T11:47:24.009Z</time></trkpt><trkpt lat="43.9399851" lon="12.101937"><ele>596.1666666666666</ele><time>2026-04-06T11:47:25.01Z</time></trkpt><trkpt lat="43.9399719" lon="12.1018107"><ele>596.3333333333333</ele><time>2026-04-06T11:47:26.008Z</time></trkpt><trkpt lat="43.9399609" lon="12.1016858"><ele>596.5</ele><time>2026-04-06T11:47:27.009Z</time></trkpt><trkpt lat="43.9399596" lon="12.1015706"><ele>596.6666666666666</ele><time>2026-04-06T11:47:28.009Z</time></trkpt><trkpt lat="43.9399733" lon="12.1014694"><ele>596.8333333333334</ele><time>2026-04-06T11:47:29.007Z</time></trkpt><trkpt lat="43.9400019" lon="12.1013783"><ele>597.0</ele><time>2026-04-06T11:47:30.011Z</time></trkpt><trkpt lat="43.9400372" lon="12.1012926"><ele>598.0</ele><time>2026-04-06T11:47:31.008Z</time></trkpt><trkpt lat="43.9400675" lon="12.101206"><ele>599.0</ele><time>2026-04-06T11:47:32.009Z</time></trkpt><trkpt lat="43.9400851" lon="12.1011173"><ele>600.0</ele><time>2026-04-06T11:47:33.009Z</time></trkpt><trkpt lat="43.9400645" lon="12.1009372"><ele>601.0</ele><time>2026-04-06T11:47:35.008Z</time></trkpt><trkpt lat="43.940023" lon="12.1008381"><ele>602.0</ele><time>2026-04-06T11:47:36.01Z</time></trkpt><trkpt lat="43.9399758" lon="12.1007352"><ele>603.0</ele><time>2026-04-06T11:47:37.01Z</time></trkpt><trkpt lat="43.9399354" lon="12.1006325"><ele>604.6</ele><time>2026-04-06T11:47:38.007Z</time></trkpt><trkpt lat="43.9399094" lon="12.1005212"><ele>606.1999999999999</ele><time>2026-04-06T11:47:39.01Z</time></trkpt><trkpt lat="43.9398921" lon="12.1003952"><ele>607.8</ele><time>2026-04-06T11:47:40.009Z</time></trkpt><trkpt lat="43.9398732" lon="12.1002606"><ele>609.4</ele><time>2026-04-06T11:47:41.008Z</time></trkpt><trkpt lat="43.9398426" lon="12.1001222"><ele>611.0</ele><time>2026-04-06T11:47:42.012Z</time></trkpt><trkpt lat="43.9397998" lon="12.0999835"><ele>613.8333333333333</ele><time>2026-04-06T11:47:43.008Z</time></trkpt><trkpt lat="43.939752" lon="12.0998602"><ele>616.6666666666666</ele><time>2026-04-06T11:47:44.007Z</time></trkpt><trkpt lat="43.9397035" lon="12.0997592"><ele>619.5</ele><time>2026-04-06T11:47:45.009Z</time></trkpt><trkpt lat="43.9396588" lon="12.0996702"><ele>622.3333333333334</ele><time>2026-04-06T11:47:46.007Z</time></trkpt><trkpt lat="43.93962" lon="12.0995767"><ele>625.1666666666667</ele><time>2026-04-06T11:47:47.008Z</time></trkpt><trkpt lat="43.9395833" lon="12.0994733"><ele>628.0</ele><time>2026-04-06T11:47:48.008Z</time></trkpt><trkpt lat="43.939545" lon="12.0993583"><ele>628.0</ele><time>2026-04-06T11:47:49.008Z</time></trkpt><trkpt lat="43.9395067" lon="12.09924"><ele>628.0</ele><time>2026-04-06T11:47:50.008Z</time></trkpt><trkpt lat="43.9394683" lon="12.0991183"><ele>628.0</ele><time>2026-04-06T11:47:51.008Z</time></trkpt><trkpt lat="43.939435" lon="12.0990067"><ele>628.0</ele><time>2026-04-06T11:47:52.009Z</time></trkpt><trkpt lat="43.9394" lon="12.098895"><ele>628.0</ele><time>2026-04-06T11:47:53.007Z</time></trkpt><trkpt lat="43.9393533" lon="12.0987867"><ele>630.0</ele><time>2026-04-06T11:47:54.009Z</time></trkpt><trkpt lat="43.939285" lon="12.0986867"><ele>632.0</ele><time>2026-04-06T11:47:55.01Z</time></trkpt><trkpt lat="43.9391983" lon="12.0985967"><ele>634.0</ele><time>2026-04-06T11:47:56.007Z</time></trkpt><trkpt lat="43.939095" lon="12.098505"><ele>636.0</ele><time>2026-04-06T11:47:57.009Z</time></trkpt><trkpt lat="43.93898" lon="12.0984117"><ele>630.0</ele><time>2026-04-06T11:47:58.008Z</time></trkpt><trkpt lat="43.938865" lon="12.0983267"><ele>624.0</ele><time>2026-04-06T11:47:59.012Z</time></trkpt><trkpt lat="43.9387583" lon="12.0982533"><ele>618.0</ele><time>2026-04-06T11:48:00.01Z</time></trkpt><trkpt lat="43.9386583" lon="12.0982067"><ele>612.0</ele><time>2026-04-06T11:48:01.009Z</time></trkpt><trkpt lat="43.93856" lon="12.0981917"><ele>612.5</ele><time>2026-04-06T11:48:02.008Z</time></trkpt><trkpt lat="43.9384733" lon="12.0982083"><ele>613.0</ele><time>2026-04-06T11:48:03.008Z</time></trkpt><trkpt lat="43.9383917" lon="12.09824"><ele>613.5</ele><time>2026-04-06T11:48:04.009Z</time></trkpt><trkpt lat="43.938315" lon="12.09826"><ele>614.0</ele><time>2026-04-06T11:48:05.007Z</time></trkpt><trkpt lat="43.938245" lon="12.098265"><ele>614.5</ele><time>2026-04-06T11:48:06.009Z</time></trkpt><trkpt lat="43.9381867" lon="12.0981483"><ele>615.0</ele><time>2026-04-06T11:48:08.009Z</time></trkpt><trkpt lat="43.9381367" lon="12.0980633"><ele>613.8333333333334</ele><time>2026-04-06T11:48:09.008Z</time></trkpt><trkpt lat="43.9380717" lon="12.0979817"><ele>612.6666666666666</ele><time>2026-04-06T11:48:10.007Z</time></trkpt><trkpt lat="43.9379917" lon="12.0979183"><ele>611.5</ele><time>2026-04-06T11:48:11.007Z</time></trkpt><trkpt lat="43.9379083" lon="12.0978717"><ele>610.3333333333333</ele><time>2026-04-06T11:48:12.009Z</time></trkpt><trkpt lat="43.9378317" lon="12.0978383"><ele>609.1666666666666</ele><time>2026-04-06T11:48:13.008Z</time></trkpt><trkpt lat="43.9377617" lon="12.0978"><ele>608.0</ele><time>2026-04-06T11:48:14.008Z</time></trkpt><trkpt lat="43.9376983" lon="12.0977433"><ele>608.0</ele><time>2026-04-06T11:48:15.012Z</time></trkpt><trkpt lat="43.9376383" lon="12.097675"><ele>608.0</ele><time>2026-04-06T11:48:16.008Z</time></trkpt><trkpt lat="43.9375767" lon="12.0975967"><ele>608.0</ele><time>2026-04-06T11:48:17.007Z</time></trkpt><trkpt lat="43.9375117" lon="12.0975117"><ele>608.0</ele><time>2026-04-06T11:48:18.011Z</time></trkpt><trkpt lat="43.93744" lon="12.0974317"><ele>608.0</ele><time>2026-04-06T11:48:19.008Z</time></trkpt><trkpt lat="43.9373517" lon="12.097365"><ele>608.0</ele><time>2026-04-06T11:48:20.008Z</time></trkpt><trkpt lat="43.937265" lon="12.0973133"><ele>613.0</ele><time>2026-04-06T11:48:21.009Z</time></trkpt><trkpt lat="43.9371744" lon="12.097275"><ele>618.0</ele><time>2026-04-06T11:48:22.008Z</time></trkpt><trkpt lat="43.9370823" lon="12.0972437"><ele>623.0</ele><time>2026-04-06T11:48:23.007Z</time></trkpt><trkpt lat="43.936985" lon="12.097218"><ele>628.0</ele><time>2026-04-06T11:48:24.008Z</time></trkpt><trkpt lat="43.9368799" lon="12.0971995"><ele>633.0</ele><time>2026-04-06T11:48:25.009Z</time></trkpt><trkpt lat="43.9367725" lon="12.0971807"><ele>638.2</ele><time>2026-04-06T11:48:26.007Z</time></trkpt><trkpt lat="43.936665" lon="12.0971637"><ele>643.4</ele><time>2026-04-06T11:48:27.009Z</time></trkpt><trkpt lat="43.9365634" lon="12.0971565"><ele>648.6</ele><time>2026-04-06T11:48:28.009Z</time></trkpt><trkpt lat="43.9364692" lon="12.097168"><ele>653.8000000000001</ele><time>2026-04-06T11:48:29.007Z</time></trkpt><trkpt lat="43.9363862" lon="12.0972005"><ele>659.0</ele><time>2026-04-06T11:48:30.009Z</time></trkpt><trkpt lat="43.9363129" lon="12.0972438"><ele>659.0</ele><time>2026-04-06T11:48:31.008Z</time></trkpt><trkpt lat="43.9362485" lon="12.0972777"><ele>659.0</ele><time>2026-04-06T11:48:32.008Z</time></trkpt><trkpt lat="43.9361356" lon="12.0972689"><ele>659.0</ele><time>2026-04-06T11:48:34.009Z</time></trkpt><trkpt lat="43.9360291" lon="12.097158"><ele>659.0</ele><time>2026-04-06T11:48:36.009Z</time></trkpt><trkpt lat="43.9359798" lon="12.0970628"><ele>659.0</ele><time>2026-04-06T11:48:37.009Z</time></trkpt><trkpt lat="43.9359323" lon="12.0969507"><ele>659.0</ele><time>2026-04-06T11:48:38.008Z</time></trkpt><trkpt lat="43.9358964" lon="12.0968141"><ele>659.0</ele><time>2026-04-06T11:48:39.009Z</time></trkpt><trkpt lat="43.9358618" lon="12.0966826"><ele>659.0</ele><time>2026-04-06T11:48:40.009Z</time></trkpt><trkpt lat="43.9358253" lon="12.0965635"><ele>659.0</ele><time>2026-04-06T11:48:41.011Z</time></trkpt><trkpt lat="43.9357797" lon="12.0964531"><ele>659.0</ele><time>2026-04-06T11:48:42.008Z</time></trkpt><trkpt lat="43.9357157" lon="12.0963469"><ele>654.25</ele><time>2026-04-06T11:48:43.008Z</time></trkpt><trkpt lat="43.9356333" lon="12.0962465"><ele>649.5</ele><time>2026-04-06T11:48:44.007Z</time></trkpt><trkpt lat="43.9355346" lon="12.0961377"><ele>644.75</ele><time>2026-04-06T11:48:45.01Z</time></trkpt><trkpt lat="43.9354217" lon="12.0960254"><ele>640.0</ele><time>2026-04-06T11:48:46.01Z</time></trkpt><trkpt lat="43.9353108" lon="12.0959173"><ele>640.0</ele><time>2026-04-06T11:48:47.007Z</time></trkpt><trkpt lat="43.9351911" lon="12.0958315"><ele>640.0</ele><time>2026-04-06T11:48:48.01Z</time></trkpt><trkpt lat="43.9350805" lon="12.0957695"><ele>640.0</ele><time>2026-04-06T11:48:49.009Z</time></trkpt><trkpt lat="43.9349675" lon="12.0957204"><ele>640.0</ele><time>2026-04-06T11:48:50.008Z</time></trkpt><trkpt lat="43.9348597" lon="12.0956729"><ele>636.1666666666667</ele><time>2026-04-06T11:48:51.008Z</time></trkpt><trkpt lat="43.9347551" lon="12.0956269"><ele>632.3333333333334</ele><time>2026-04-06T11:48:52.008Z</time></trkpt><trkpt lat="43.9346574" lon="12.0955919"><ele>628.5</ele><time>2026-04-06T11:48:53.008Z</time></trkpt><trkpt lat="43.9345789" lon="12.0955547"><ele>624.6666666666666</ele><time>2026-04-06T11:48:54.01Z</time></trkpt><trkpt lat="43.9345214" lon="12.0955037"><ele>620.8333333333333</ele><time>2026-04-06T11:48:55.012Z</time></trkpt><trkpt lat="43.9344754" lon="12.0954289"><ele>617.0</ele><time>2026-04-06T11:48:56.008Z</time></trkpt><trkpt lat="43.9344244" lon="12.0953432"><ele>617.0</ele><time>2026-04-06T11:48:57.009Z</time></trkpt><trkpt lat="43.9343648" lon="12.0952631"><ele>617.0</ele><time>2026-04-06T11:48:58.008Z</time></trkpt><trkpt lat="43.9342997" lon="12.0951816"><ele>617.0</ele><time>2026-04-06T11:48:59.007Z</time></trkpt><trkpt lat="43.9342313" lon="12.0950936"><ele>617.0</ele><time>2026-04-06T11:49:00.011Z</time></trkpt><trkpt lat="43.9341574" lon="12.0950056"><ele>617.0</ele><time>2026-04-06T11:49:01.006Z</time></trkpt><trkpt lat="43.9340813" lon="12.0949264"><ele>618.8000000000001</ele><time>2026-04-06T11:49:02.007Z</time></trkpt><trkpt lat="43.934003" lon="12.0948579"><ele>620.6</ele><time>2026-04-06T11:49:03.009Z</time></trkpt><trkpt lat="43.9339191" lon="12.0947988"><ele>622.4000000000001</ele><time>2026-04-06T11:49:04.007Z</time></trkpt><trkpt lat="43.9338218" lon="12.0947476"><ele>624.2</ele><time>2026-04-06T11:49:05.009Z</time></trkpt><trkpt lat="43.9337236" lon="12.0946995"><ele>626.0</ele><time>2026-04-06T11:49:06.006Z</time></trkpt><trkpt lat="43.9336213" lon="12.0946623"><ele>626.0</ele><time>2026-04-06T11:49:07.011Z</time></trkpt><trkpt lat="43.933513" lon="12.0946279"><ele>626.0</ele><time>2026-04-06T11:49:08.009Z</time></trkpt><trkpt lat="43.9334043" lon="12.0945868"><ele>626.0</ele><time>2026-04-06T11:49:09.007Z</time></trkpt><trkpt lat="43.9333004" lon="12.0945349"><ele>626.0</ele><time>2026-04-06T11:49:10.009Z</time></trkpt><trkpt lat="43.9332081" lon="12.0944711"><ele>626.0</ele><time>2026-04-06T11:49:11.007Z</time></trkpt><trkpt lat="43.9331261" lon="12.0943935"><ele>628.6666666666666</ele><time>2026-04-06T11:49:12.007Z</time></trkpt><trkpt lat="43.9330477" lon="12.0943134"><ele>631.3333333333333</ele><time>2026-04-06T11:49:13.008Z</time></trkpt><trkpt lat="43.9329776" lon="12.0942563"><ele>634.0</ele><time>2026-04-06T11:49:14.011Z</time></trkpt><trkpt lat="43.9329072" lon="12.0942155"><ele>636.6666666666666</ele><time>2026-04-06T11:49:15.011Z</time></trkpt><trkpt lat="43.9328335" lon="12.0941985"><ele>639.3333333333334</ele><time>2026-04-06T11:49:16.007Z</time></trkpt><trkpt lat="43.9327578" lon="12.0941926"><ele>642.0</ele><time>2026-04-06T11:49:17.007Z</time></trkpt><trkpt lat="43.9326726" lon="12.0941891"><ele>642.0</ele><time>2026-04-06T11:49:18.009Z</time></trkpt><trkpt lat="43.9325826" lon="12.0941743"><ele>642.0</ele><time>2026-04-06T11:49:19.008Z</time></trkpt><trkpt lat="43.9324834" lon="12.0941455"><ele>642.0</ele><time>2026-04-06T11:49:20.006Z</time></trkpt><trkpt lat="43.9323793" lon="12.0941114"><ele>642.0</ele><time>2026-04-06T11:49:21.007Z</time></trkpt><trkpt lat="43.9322757" lon="12.0940764"><ele>642.0</ele><time>2026-04-06T11:49:22.005Z</time></trkpt><trkpt lat="43.9321731" lon="12.0940281"><ele>643.8</ele><time>2026-04-06T11:49:23.006Z</time></trkpt><trkpt lat="43.9320696" lon="12.0939777"><ele>645.6</ele><time>2026-04-06T11:49:24.006Z</time></trkpt><trkpt lat="43.9319698" lon="12.0939304"><ele>647.4</ele><time>2026-04-06T11:49:25.007Z</time></trkpt><trkpt lat="43.9318692" lon="12.0938966"><ele>649.1999999999999</ele><time>2026-04-06T11:49:26.005Z</time></trkpt><trkpt lat="43.9317709" lon="12.093871"><ele>651.0</ele><time>2026-04-06T11:49:27.007Z</time></trkpt><trkpt lat="43.9316753" lon="12.0938488"><ele>658.0</ele><time>2026-04-06T11:49:28.01Z</time></trkpt><trkpt lat="43.9315812" lon="12.0938224"><ele>665.0</ele><time>2026-04-06T11:49:29.008Z</time></trkpt><trkpt lat="43.9314914" lon="12.0937895"><ele>672.0</ele><time>2026-04-06T11:49:30.006Z</time></trkpt><trkpt lat="43.9314091" lon="12.0937605"><ele>679.0</ele><time>2026-04-06T11:49:31.007Z</time></trkpt><trkpt lat="43.9313363" lon="12.0937611"><ele>686.0</ele><time>2026-04-06T11:49:32.01Z</time></trkpt><trkpt lat="43.9312691" lon="12.0937914"><ele>693.0</ele><time>2026-04-06T11:49:33.008Z</time></trkpt><trkpt lat="43.9312014" lon="12.0938417"><ele>693.0</ele><time>2026-04-06T11:49:34.007Z</time></trkpt><trkpt lat="43.9311288" lon="12.0938887"><ele>693.0</ele><time>2026-04-06T11:49:35.007Z</time></trkpt><trkpt lat="43.9310486" lon="12.0939261"><ele>693.0</ele><time>2026-04-06T11:49:36.004Z</time></trkpt><trkpt lat="43.9309735" lon="12.0939607"><ele>693.0</ele><time>2026-04-06T11:49:37.005Z</time></trkpt><trkpt lat="43.9309099" lon="12.0939846"><ele>693.0</ele><time>2026-04-06T11:49:38.006Z</time></trkpt><trkpt lat="43.9307883" lon="12.093996"><ele>693.0</ele><time>2026-04-06T11:49:40.007Z</time></trkpt><trkpt lat="43.930664" lon="12.0939623"><ele>695.1666666666666</ele><time>2026-04-06T11:49:42.008Z</time></trkpt><trkpt lat="43.9305914" lon="12.0939374"><ele>697.3333333333334</ele><time>2026-04-06T11:49:43.007Z</time></trkpt><trkpt lat="43.9305173" lon="12.0939197"><ele>699.5</ele><time>2026-04-06T11:49:44.006Z</time></trkpt><trkpt lat="43.9304479" lon="12.09392"><ele>701.6666666666667</ele><time>2026-04-06T11:49:45.012Z</time></trkpt><trkpt lat="43.9303522" lon="12.0939633"><ele>703.8333333333334</ele><time>2026-04-06T11:49:47.008Z</time></trkpt><trkpt lat="43.9302917" lon="12.093895"><ele>706.0</ele><time>2026-04-06T11:53:40.008Z</time></trkpt><trkpt lat="43.930345" lon="12.0937667"><ele>706.0</ele><time>2026-04-06T11:53:42.009Z</time></trkpt><trkpt lat="43.93045" lon="12.093695"><ele>706.0</ele><time>2026-04-06T11:53:44.007Z</time></trkpt><trkpt lat="43.9305704" lon="12.0936517"><ele>706.0</ele><time>2026-04-06T11:53:46.007Z</time></trkpt><trkpt lat="43.9306439" lon="12.0936258"><ele>706.0</ele><time>2026-04-06T11:53:47.007Z</time></trkpt><trkpt lat="43.9307176" lon="12.0935886"><ele>706.0</ele><time>2026-04-06T11:53:48.007Z</time></trkpt><trkpt lat="43.9307932" lon="12.0935341"><ele>706.0</ele><time>2026-04-06T11:53:49.006Z</time></trkpt><trkpt lat="43.9308676" lon="12.0934599"><ele>706.0</ele><time>2026-04-06T11:53:50.009Z</time></trkpt><trkpt lat="43.9309418" lon="12.093379"><ele>706.0</ele><time>2026-04-06T11:53:51.008Z</time></trkpt><trkpt lat="43.9310171" lon="12.0933003"><ele>706.0</ele><time>2026-04-06T11:53:52.006Z</time></trkpt><trkpt lat="43.9310853" lon="12.09322"><ele>706.0</ele><time>2026-04-06T11:53:53.008Z</time></trkpt><trkpt lat="43.93113" lon="12.0931286"><ele>706.0</ele><time>2026-04-06T11:53:54.006Z</time></trkpt><trkpt lat="43.9311505" lon="12.0930314"><ele>706.2857142857142</ele><time>2026-04-06T11:53:55.007Z</time></trkpt><trkpt lat="43.9311561" lon="12.0929354"><ele>706.5714285714287</ele><time>2026-04-06T11:53:56.008Z</time></trkpt><trkpt lat="43.9311382" lon="12.0928488"><ele>706.8571428571429</ele><time>2026-04-06T11:53:57.007Z</time></trkpt><trkpt lat="43.9311071" lon="12.0927614"><ele>707.1428571428571</ele><time>2026-04-06T11:53:58.007Z</time></trkpt><trkpt lat="43.9310571" lon="12.0926822"><ele>707.4285714285713</ele><time>2026-04-06T11:53:59.007Z</time></trkpt><trkpt lat="43.9309955" lon="12.0926101"><ele>707.7142857142858</ele><time>2026-04-06T11:54:00.007Z</time></trkpt><trkpt lat="43.9309367" lon="12.0925229"><ele>708.0</ele><time>2026-04-06T11:54:01.005Z</time></trkpt><trkpt lat="43.9308785" lon="12.0924319"><ele>710.4</ele><time>2026-04-06T11:54:02.008Z</time></trkpt><trkpt lat="43.9308249" lon="12.0923455"><ele>712.8</ele><time>2026-04-06T11:54:03.008Z</time></trkpt><trkpt lat="43.9307616" lon="12.0922743"><ele>715.2</ele><time>2026-04-06T11:54:04.007Z</time></trkpt><trkpt lat="43.9306798" lon="12.0922123"><ele>717.6</ele><time>2026-04-06T11:54:05.005Z</time></trkpt><trkpt lat="43.9305839" lon="12.0921659"><ele>720.0</ele><time>2026-04-06T11:54:06.007Z</time></trkpt><trkpt lat="43.9304741" lon="12.0921163"><ele>720.0</ele><time>2026-04-06T11:54:07.007Z</time></trkpt><trkpt lat="43.9303726" lon="12.0920646"><ele>720.0</ele><time>2026-04-06T11:54:08.007Z</time></trkpt><trkpt lat="43.9302749" lon="12.0920012"><ele>720.0</ele><time>2026-04-06T11:54:09.007Z</time></trkpt><trkpt lat="43.9301878" lon="12.0919188"><ele>720.0</ele><time>2026-04-06T11:54:10.006Z</time></trkpt><trkpt lat="43.9301033" lon="12.0918257"><ele>720.0</ele><time>2026-04-06T11:54:11.006Z</time></trkpt><trkpt lat="43.93002" lon="12.0917147"><ele>718.0</ele><time>2026-04-06T11:54:12.007Z</time></trkpt><trkpt lat="43.9299427" lon="12.0915934"><ele>716.0</ele><time>2026-04-06T11:54:13.007Z</time></trkpt><trkpt lat="43.9298619" lon="12.0914831"><ele>714.0</ele><time>2026-04-06T11:54:14.007Z</time></trkpt><trkpt lat="43.9297807" lon="12.0913856"><ele>712.0</ele><time>2026-04-06T11:54:15.011Z</time></trkpt><trkpt lat="43.9296981" lon="12.0913127"><ele>710.0</ele><time>2026-04-06T11:54:16.008Z</time></trkpt><trkpt lat="43.9296161" lon="12.091258"><ele>711.1666666666666</ele><time>2026-04-06T11:54:17.006Z</time></trkpt><trkpt lat="43.9295321" lon="12.0912255"><ele>712.3333333333333</ele><time>2026-04-06T11:54:18.006Z</time></trkpt><trkpt lat="43.9294511" lon="12.0912116"><ele>713.5</ele><time>2026-04-06T11:54:19.006Z</time></trkpt><trkpt lat="43.9293776" lon="12.0912045"><ele>714.6666666666666</ele><time>2026-04-06T11:54:20.006Z</time></trkpt><trkpt lat="43.929308" lon="12.0912088"><ele>715.8333333333334</ele><time>2026-04-06T11:54:21.007Z</time></trkpt><trkpt lat="43.9292101" lon="12.0911643"><ele>717.0</ele><time>2026-04-06T11:54:23.006Z</time></trkpt><trkpt lat="43.9291437" lon="12.0910529"><ele>717.0</ele><time>2026-04-06T11:54:25.01Z</time></trkpt><trkpt lat="43.929121" lon="12.0909618"><ele>717.0</ele><time>2026-04-06T11:54:26.005Z</time></trkpt><trkpt lat="43.9290959" lon="12.0908548"><ele>717.0</ele><time>2026-04-06T11:54:27.008Z</time></trkpt><trkpt lat="43.9290723" lon="12.0907383"><ele>717.0</ele><time>2026-04-06T11:54:28.007Z</time></trkpt><trkpt lat="43.9290594" lon="12.0906095"><ele>717.0</ele><time>2026-04-06T11:54:29.007Z</time></trkpt><trkpt lat="43.9290498" lon="12.0904762"><ele>717.0</ele><time>2026-04-06T11:54:30.006Z</time></trkpt><trkpt lat="43.9290384" lon="12.0903386"><ele>715.5</ele><time>2026-04-06T11:54:31.007Z</time></trkpt><trkpt lat="43.9290164" lon="12.0902159"><ele>714.0</ele><time>2026-04-06T11:54:32.008Z</time></trkpt><trkpt lat="43.9289812" lon="12.0901105"><ele>712.5</ele><time>2026-04-06T11:54:33.008Z</time></trkpt><trkpt lat="43.928939" lon="12.0900124"><ele>711.0</ele><time>2026-04-06T11:54:34.007Z</time></trkpt><trkpt lat="43.9288804" lon="12.0899246"><ele>709.5</ele><time>2026-04-06T11:54:35.011Z</time></trkpt><trkpt lat="43.9288078" lon="12.0898506"><ele>708.0</ele><time>2026-04-06T11:54:36.007Z</time></trkpt><trkpt lat="43.928728" lon="12.0897877"><ele>708.0</ele><time>2026-04-06T11:54:37.006Z</time></trkpt><trkpt lat="43.928653" lon="12.0897303"><ele>708.0</ele><time>2026-04-06T11:54:38.007Z</time></trkpt><trkpt lat="43.9285876" lon="12.0896699"><ele>708.0</ele><time>2026-04-06T11:54:39.006Z</time></trkpt><trkpt lat="43.9285405" lon="12.089597"><ele>708.0</ele><time>2026-04-06T11:54:40.005Z</time></trkpt><trkpt lat="43.9285024" lon="12.0895044"><ele>708.0</ele><time>2026-04-06T11:54:41.007Z</time></trkpt><trkpt lat="43.9284651" lon="12.0894029"><ele>708.0</ele><time>2026-04-06T11:54:42.008Z</time></trkpt><trkpt lat="43.9284279" lon="12.0892824"><ele>708.2</ele><time>2026-04-06T11:54:43.009Z</time></trkpt><trkpt lat="43.9283882" lon="12.0891445"><ele>708.4</ele><time>2026-04-06T11:54:44.008Z</time></trkpt><trkpt lat="43.9283439" lon="12.0890052"><ele>708.6</ele><time>2026-04-06T11:54:45.007Z</time></trkpt><trkpt lat="43.9282892" lon="12.0888718"><ele>708.8000000000001</ele><time>2026-04-06T11:54:46.007Z</time></trkpt><trkpt lat="43.9282273" lon="12.0887438"><ele>709.0</ele><time>2026-04-06T11:54:47.008Z</time></trkpt><trkpt lat="43.9281534" lon="12.0886201"><ele>709.0</ele><time>2026-04-06T11:54:48.008Z</time></trkpt><trkpt lat="43.9280702" lon="12.0885069"><ele>709.0</ele><time>2026-04-06T11:54:49.009Z</time></trkpt><trkpt lat="43.9279838" lon="12.0883996"><ele>709.0</ele><time>2026-04-06T11:54:50.007Z</time></trkpt><trkpt lat="43.9279001" lon="12.0882906"><ele>709.0</ele><time>2026-04-06T11:54:51.007Z</time></trkpt><trkpt lat="43.9278208" lon="12.0881756"><ele>712.2</ele><time>2026-04-06T11:54:52.008Z</time></trkpt><trkpt lat="43.9277481" lon="12.0880544"><ele>715.4000000000001</ele><time>2026-04-06T11:54:53.006Z</time></trkpt><trkpt lat="43.9276786" lon="12.0879344"><ele>718.6</ele><time>2026-04-06T11:54:54.008Z</time></trkpt><trkpt lat="43.9276143" lon="12.0878168"><ele>721.8</ele><time>2026-04-06T11:54:55.01Z</time></trkpt><trkpt lat="43.9275604" lon="12.0877015"><ele>725.0</ele><time>2026-04-06T11:54:56.007Z</time></trkpt><trkpt lat="43.9275151" lon="12.0875792"><ele>725.0</ele><time>2026-04-06T11:54:57.009Z</time></trkpt><trkpt lat="43.9274752" lon="12.0874369"><ele>725.0</ele><time>2026-04-06T11:54:58.007Z</time></trkpt><trkpt lat="43.9274389" lon="12.0872796"><ele>725.0</ele><time>2026-04-06T11:54:59.007Z</time></trkpt><trkpt lat="43.9274047" lon="12.0871153"><ele>725.0</ele><time>2026-04-06T11:55:00.009Z</time></trkpt><trkpt lat="43.9273678" lon="12.0869472"><ele>723.6</ele><time>2026-04-06T11:55:01.008Z</time></trkpt><trkpt lat="43.9273277" lon="12.0867781"><ele>722.2</ele><time>2026-04-06T11:55:02.007Z</time></trkpt><trkpt lat="43.9272891" lon="12.0866217"><ele>720.8</ele><time>2026-04-06T11:55:03.011Z</time></trkpt><trkpt lat="43.9272491" lon="12.0864878"><ele>719.4</ele><time>2026-04-06T11:55:04.01Z</time></trkpt><trkpt lat="43.9272026" lon="12.0863812"><ele>718.0</ele><time>2026-04-06T11:55:05.006Z</time></trkpt><trkpt lat="43.9271499" lon="12.0862973"><ele>718.5714285714286</ele><time>2026-04-06T11:55:06.008Z</time></trkpt><trkpt lat="43.9270963" lon="12.0862355"><ele>719.1428571428571</ele><time>2026-04-06T11:55:07.006Z</time></trkpt><trkpt lat="43.9270342" lon="12.086198"><ele>719.7142857142858</ele><time>2026-04-06T11:55:08.01Z</time></trkpt><trkpt lat="43.9269588" lon="12.0861778"><ele>720.2857142857142</ele><time>2026-04-06T11:55:09.007Z</time></trkpt><trkpt lat="43.9268787" lon="12.0861583"><ele>720.8571428571428</ele><time>2026-04-06T11:55:10.007Z</time></trkpt><trkpt lat="43.9268038" lon="12.086127"><ele>721.4285714285714</ele><time>2026-04-06T11:55:11.006Z</time></trkpt><trkpt lat="43.9267392" lon="12.0860828"><ele>722.0</ele><time>2026-04-06T11:55:12.007Z</time></trkpt><trkpt lat="43.9266866" lon="12.0860145"><ele>722.0</ele><time>2026-04-06T11:55:13.014Z</time></trkpt><trkpt lat="43.9266394" lon="12.0859302"><ele>722.0</ele><time>2026-04-06T11:55:14.007Z</time></trkpt><trkpt lat="43.9266025" lon="12.0858078"><ele>722.0</ele><time>2026-04-06T11:55:15.007Z</time></trkpt><trkpt lat="43.9265576" lon="12.0856772"><ele>722.0</ele><time>2026-04-06T11:55:16.006Z</time></trkpt><trkpt lat="43.9264972" lon="12.0855452"><ele>722.0</ele><time>2026-04-06T11:55:17.007Z</time></trkpt><trkpt lat="43.9264272" lon="12.0854137"><ele>719.75</ele><time>2026-04-06T11:55:18.011Z</time></trkpt><trkpt lat="43.926356" lon="12.0852832"><ele>717.5</ele><time>2026-04-06T11:55:19.009Z</time></trkpt><trkpt lat="43.9262857" lon="12.0851481"><ele>715.25</ele><time>2026-04-06T11:55:20.007Z</time></trkpt><trkpt lat="43.9262127" lon="12.0850085"><ele>713.0</ele><time>2026-04-06T11:55:21.008Z</time></trkpt><trkpt lat="43.9261445" lon="12.0848745"><ele>712.0</ele><time>2026-04-06T11:55:22.007Z</time></trkpt><trkpt lat="43.926093" lon="12.0847504"><ele>711.0</ele><time>2026-04-06T11:55:23.011Z</time></trkpt><trkpt lat="43.9260516" lon="12.0846371"><ele>710.0</ele><time>2026-04-06T11:55:24.009Z</time></trkpt><trkpt lat="43.9260229" lon="12.0845236"><ele>709.0</ele><time>2026-04-06T11:55:25.009Z</time></trkpt><trkpt lat="43.9260048" lon="12.0844049"><ele>708.0</ele><time>2026-04-06T11:55:26.008Z</time></trkpt><trkpt lat="43.9259989" lon="12.0842673"><ele>708.0</ele><time>2026-04-06T11:55:27.008Z</time></trkpt><trkpt lat="43.926" lon="12.0841142"><ele>708.0</ele><time>2026-04-06T11:55:28.086Z</time></trkpt><trkpt lat="43.925999" lon="12.0839614"><ele>708.0</ele><time>2026-04-06T11:55:29.007Z</time></trkpt><trkpt lat="43.9259956" lon="12.0837877"><ele>708.0</ele><time>2026-04-06T11:55:30.008Z</time></trkpt><trkpt lat="43.9259942" lon="12.0836289"><ele>708.1666666666666</ele><time>2026-04-06T11:55:31.008Z</time></trkpt><trkpt lat="43.925997" lon="12.0835012"><ele>708.3333333333334</ele><time>2026-04-06T11:55:32.007Z</time></trkpt><trkpt lat="43.9260064" lon="12.0833773"><ele>708.5</ele><time>2026-04-06T11:55:33.01Z</time></trkpt><trkpt lat="43.9260225" lon="12.0832595"><ele>708.6666666666667</ele><time>2026-04-06T11:55:34.008Z</time></trkpt><trkpt lat="43.9260379" lon="12.0831497"><ele>708.8333333333334</ele><time>2026-04-06T11:55:35.008Z</time></trkpt><trkpt lat="43.9260453" lon="12.0830498"><ele>709.0</ele><time>2026-04-06T11:55:36.009Z</time></trkpt><trkpt lat="43.9260188" lon="12.0828894"><ele>706.2</ele><time>2026-04-06T11:55:38.009Z</time></trkpt><trkpt lat="43.9259305" lon="12.0827911"><ele>703.4000000000001</ele><time>2026-04-06T11:55:40.008Z</time></trkpt><trkpt lat="43.9258436" lon="12.0827759"><ele>700.6</ele><time>2026-04-06T11:55:41.01Z</time></trkpt><trkpt lat="43.9257437" lon="12.0827509"><ele>697.8</ele><time>2026-04-06T11:55:42.007Z</time></trkpt><trkpt lat="43.9256439" lon="12.0827141"><ele>695.0</ele><time>2026-04-06T11:55:43.013Z</time></trkpt><trkpt lat="43.92555" lon="12.0826646"><ele>703.2</ele><time>2026-04-06T11:55:44.008Z</time></trkpt><trkpt lat="43.9254554" lon="12.0826147"><ele>711.4</ele><time>2026-04-06T11:55:45.009Z</time></trkpt><trkpt lat="43.9253587" lon="12.0825768"><ele>719.5999999999999</ele><time>2026-04-06T11:55:46.008Z</time></trkpt><trkpt lat="43.925264" lon="12.082551"><ele>727.8</ele><time>2026-04-06T11:55:47.008Z</time></trkpt><trkpt lat="43.925173" lon="12.0825389"><ele>736.0</ele><time>2026-04-06T11:55:48.011Z</time></trkpt><trkpt lat="43.9250887" lon="12.0825154"><ele>735.8333333333334</ele><time>2026-04-06T11:55:49.008Z</time></trkpt><trkpt lat="43.9250101" lon="12.0824721"><ele>735.6666666666667</ele><time>2026-04-06T11:55:50.008Z</time></trkpt><trkpt lat="43.9249346" lon="12.0824122"><ele>735.5</ele><time>2026-04-06T11:55:51.009Z</time></trkpt><trkpt lat="43.9248594" lon="12.082334"><ele>735.3333333333334</ele><time>2026-04-06T11:55:52.007Z</time></trkpt><trkpt lat="43.9247857" lon="12.08225"><ele>735.1666666666666</ele><time>2026-04-06T11:55:53.007Z</time></trkpt><trkpt lat="43.9247199" lon="12.0821731"><ele>735.0</ele><time>2026-04-06T11:55:54.011Z</time></trkpt><trkpt lat="43.9246667" lon="12.0820912"><ele>738.5</ele><time>2026-04-06T11:55:55.007Z</time></trkpt><trkpt lat="43.9246272" lon="12.0820032"><ele>742.0</ele><time>2026-04-06T11:55:56.009Z</time></trkpt><trkpt lat="43.9246013" lon="12.0819109"><ele>745.5</ele><time>2026-04-06T11:55:57.009Z</time></trkpt><trkpt lat="43.9245942" lon="12.0818231"><ele>749.0</ele><time>2026-04-06T11:55:58.01Z</time></trkpt><trkpt lat="43.9245317" lon="12.0816771"><ele>752.5</ele><time>2026-04-06T11:56:00.01Z</time></trkpt><trkpt lat="43.924468" lon="12.0816272"><ele>756.0</ele><time>2026-04-06T11:56:01.01Z</time></trkpt><trkpt lat="43.9243894" lon="12.0815908"><ele>755.0</ele><time>2026-04-06T11:56:02.007Z</time></trkpt><trkpt lat="43.9243041" lon="12.0815486"><ele>754.0</ele><time>2026-04-06T11:56:03.009Z</time></trkpt><trkpt lat="43.9242306" lon="12.0814828"><ele>753.0</ele><time>2026-04-06T11:56:04.009Z</time></trkpt><trkpt lat="43.9241774" lon="12.0813995"><ele>752.0</ele><time>2026-04-06T11:56:05.011Z</time></trkpt><trkpt lat="43.9241405" lon="12.08131"><ele>751.0</ele><time>2026-04-06T11:56:06.01Z</time></trkpt><trkpt lat="43.9241274" lon="12.0812185"><ele>750.0</ele><time>2026-04-06T11:56:07.008Z</time></trkpt><trkpt lat="43.9241317" lon="12.0811099"><ele>750.0</ele><time>2026-04-06T11:56:08.008Z</time></trkpt><trkpt lat="43.9241305" lon="12.0809963"><ele>750.0</ele><time>2026-04-06T11:56:09.008Z</time></trkpt><trkpt lat="43.9241157" lon="12.0808898"><ele>750.0</ele><time>2026-04-06T11:56:10.01Z</time></trkpt><trkpt lat="43.9240776" lon="12.0807986"><ele>750.0</ele><time>2026-04-06T11:56:11.009Z</time></trkpt><trkpt lat="43.9240282" lon="12.0807243"><ele>750.0</ele><time>2026-04-06T11:56:12.007Z</time></trkpt><trkpt lat="43.9239585" lon="12.0806769"><ele>750.0</ele><time>2026-04-06T11:56:13.011Z</time></trkpt><trkpt lat="43.9238736" lon="12.0806527"><ele>753.2</ele><time>2026-04-06T11:56:14.01Z</time></trkpt><trkpt lat="43.9237936" lon="12.0806275"><ele>756.4</ele><time>2026-04-06T11:56:15.009Z</time></trkpt><trkpt lat="43.9237235" lon="12.0805895"><ele>759.5999999999999</ele><time>2026-04-06T11:56:16.008Z</time></trkpt><trkpt lat="43.9236702" lon="12.0805367"><ele>762.8</ele><time>2026-04-06T11:56:17.007Z</time></trkpt><trkpt lat="43.9236275" lon="12.0804086"><ele>766.0</ele><time>2026-04-06T11:56:19.009Z</time></trkpt><trkpt lat="43.9236616" lon="12.0802364"><ele>766.0</ele><time>2026-04-06T11:56:21.008Z</time></trkpt><trkpt lat="43.9236722" lon="12.0801486"><ele>766.0</ele><time>2026-04-06T11:56:22.008Z</time></trkpt><trkpt lat="43.9236274" lon="12.080004"><ele>766.0</ele><time>2026-04-06T11:56:24.009Z</time></trkpt><trkpt lat="43.9235414" lon="12.0798822"><ele>766.0</ele><time>2026-04-06T11:56:26.009Z</time></trkpt><trkpt lat="43.9235045" lon="12.0797217"><ele>766.0</ele><time>2026-04-06T11:56:28.009Z</time></trkpt><trkpt lat="43.9235509" lon="12.0795433"><ele>766.6666666666667</ele><time>2026-04-06T11:56:30.009Z</time></trkpt><trkpt lat="43.9235774" lon="12.0794295"><ele>767.3333333333334</ele><time>2026-04-06T11:56:31.007Z</time></trkpt><trkpt lat="43.9235836" lon="12.079315"><ele>768.0</ele><time>2026-04-06T11:56:32.008Z</time></trkpt><trkpt lat="43.923569" lon="12.0792128"><ele>768.6666666666667</ele><time>2026-04-06T11:56:33.01Z</time></trkpt><trkpt lat="43.9235412" lon="12.0791288"><ele>769.3333333333334</ele><time>2026-04-06T11:56:34.008Z</time></trkpt><trkpt lat="43.923445" lon="12.0790095"><ele>770.0</ele><time>2026-04-06T11:56:36.01Z</time></trkpt><trkpt lat="43.9233746" lon="12.0789576"><ele>770.4</ele><time>2026-04-06T11:56:37.009Z</time></trkpt><trkpt lat="43.9232807" lon="12.078914"><ele>770.8</ele><time>2026-04-06T11:56:38.007Z</time></trkpt><trkpt lat="43.9231776" lon="12.0788668"><ele>771.2</ele><time>2026-04-06T11:56:39.01Z</time></trkpt><trkpt lat="43.9230728" lon="12.0788211"><ele>771.6</ele><time>2026-04-06T11:56:40.009Z</time></trkpt><trkpt lat="43.9229649" lon="12.0787969"><ele>772.0</ele><time>2026-04-06T11:56:41.008Z</time></trkpt><trkpt lat="43.9228588" lon="12.0787935"><ele>771.9999999999999</ele><time>2026-04-06T11:56:42.008Z</time></trkpt><trkpt lat="43.9227632" lon="12.0787904"><ele>772.0</ele><time>2026-04-06T11:56:43.008Z</time></trkpt><trkpt lat="43.9226771" lon="12.0787779"><ele>772.0</ele><time>2026-04-06T11:56:44.01Z</time></trkpt><trkpt lat="43.9226015" lon="12.0787655"><ele>772.0</ele><time>2026-04-06T11:56:45.01Z</time></trkpt><trkpt lat="43.9225293" lon="12.0787486"><ele>771.9999999999999</ele><time>2026-04-06T11:56:46.008Z</time></trkpt><trkpt lat="43.9224541" lon="12.0787284"><ele>772.0</ele><time>2026-04-06T11:56:47.007Z</time></trkpt><trkpt lat="43.9223696" lon="12.0787092"><ele>770.8</ele><time>2026-04-06T11:56:48.007Z</time></trkpt><trkpt lat="43.922278" lon="12.0786803"><ele>769.6</ele><time>2026-04-06T11:56:49.008Z</time></trkpt><trkpt lat="43.9221797" lon="12.0786506"><ele>768.4</ele><time>2026-04-06T11:56:50.009Z</time></trkpt><trkpt lat="43.9220724" lon="12.0786371"><ele>767.1999999999999</ele><time>2026-04-06T11:56:51.012Z</time></trkpt><trkpt lat="43.9219668" lon="12.078636"><ele>766.0</ele><time>2026-04-06T11:56:52.009Z</time></trkpt><trkpt lat="43.9218649" lon="12.0786512"><ele>766.0</ele><time>2026-04-06T11:56:53.009Z</time></trkpt><trkpt lat="43.9217673" lon="12.0786754"><ele>766.0</ele><time>2026-04-06T11:56:54.009Z</time></trkpt><trkpt lat="43.9216723" lon="12.0786997"><ele>766.0</ele><time>2026-04-06T11:56:55.009Z</time></trkpt><trkpt lat="43.921579" lon="12.0787159"><ele>766.0</ele><time>2026-04-06T11:56:56.011Z</time></trkpt><trkpt lat="43.921486" lon="12.0787287"><ele>766.0</ele><time>2026-04-06T11:56:57.007Z</time></trkpt><trkpt lat="43.921391" lon="12.0787378"><ele>763.0</ele><time>2026-04-06T11:56:58.012Z</time></trkpt><trkpt lat="43.9212977" lon="12.078745"><ele>760.0</ele><time>2026-04-06T11:56:59.007Z</time></trkpt><trkpt lat="43.9212069" lon="12.0787541"><ele>757.0</ele><time>2026-04-06T11:57:00.013Z</time></trkpt><trkpt lat="43.9211211" lon="12.0787708"><ele>754.0</ele><time>2026-04-06T11:57:01.01Z</time></trkpt><trkpt lat="43.9210365" lon="12.0787998"><ele>751.0</ele><time>2026-04-06T11:57:02.008Z</time></trkpt><trkpt lat="43.9209601" lon="12.0788463"><ele>748.0</ele><time>2026-04-06T11:57:03.008Z</time></trkpt><trkpt lat="43.9208945" lon="12.078916"><ele>744.0</ele><time>2026-04-06T11:57:04.007Z</time></trkpt><trkpt lat="43.9208458" lon="12.078992"><ele>740.0</ele><time>2026-04-06T11:57:05.013Z</time></trkpt><trkpt lat="43.9208052" lon="12.0790717"><ele>736.0</ele><time>2026-04-06T11:57:06.01Z</time></trkpt><trkpt lat="43.9207534" lon="12.0791995"><ele>732.0</ele><time>2026-04-06T11:57:08.007Z</time></trkpt><trkpt lat="43.920687" lon="12.0792399"><ele>728.0</ele><time>2026-04-06T11:57:10.01Z</time></trkpt><trkpt lat="43.92064" lon="12.0791758"><ele>724.0</ele><time>2026-04-06T11:57:12.011Z</time></trkpt><trkpt lat="43.9206239" lon="12.0790436"><ele>724.0</ele><time>2026-04-06T11:57:14.008Z</time></trkpt><trkpt lat="43.9206435" lon="12.0789409"><ele>724.0</ele><time>2026-04-06T11:57:15.009Z</time></trkpt><trkpt lat="43.920677" lon="12.0788161"><ele>724.0</ele><time>2026-04-06T11:57:16.009Z</time></trkpt><trkpt lat="43.9207103" lon="12.0786837"><ele>724.0</ele><time>2026-04-06T11:57:17.008Z</time></trkpt><trkpt lat="43.9207333" lon="12.0785593"><ele>724.0</ele><time>2026-04-06T11:57:18.013Z</time></trkpt><trkpt lat="43.9207476" lon="12.0784401"><ele>724.0</ele><time>2026-04-06T11:57:19.008Z</time></trkpt><trkpt lat="43.92076" lon="12.0783262"><ele>724.0</ele><time>2026-04-06T11:57:20.008Z</time></trkpt><trkpt lat="43.9207706" lon="12.0782226"><ele>724.0</ele><time>2026-04-06T11:57:21.007Z</time></trkpt><trkpt lat="43.9207794" lon="12.0781266"><ele>724.0</ele><time>2026-04-06T11:57:22.008Z</time></trkpt><trkpt lat="43.9207903" lon="12.0780255"><ele>724.0</ele><time>2026-04-06T11:57:23.01Z</time></trkpt><trkpt lat="43.9207981" lon="12.0778992"><ele>724.0</ele><time>2026-04-06T11:57:24.012Z</time></trkpt><trkpt lat="43.9207946" lon="12.0777501"><ele>723.8000000000001</ele><time>2026-04-06T11:57:25.009Z</time></trkpt><trkpt lat="43.9207809" lon="12.0775884"><ele>723.6</ele><time>2026-04-06T11:57:26.009Z</time></trkpt><trkpt lat="43.920755" lon="12.0774288"><ele>723.4</ele><time>2026-04-06T11:57:27.009Z</time></trkpt><trkpt lat="43.9207295" lon="12.0772817"><ele>723.2</ele><time>2026-04-06T11:57:28.007Z</time></trkpt><trkpt lat="43.9207118" lon="12.0771509"><ele>723.0</ele><time>2026-04-06T11:57:29.01Z</time></trkpt><trkpt lat="43.9207029" lon="12.0770303"><ele>722.8333333333334</ele><time>2026-04-06T11:57:30.007Z</time></trkpt><trkpt lat="43.920693" lon="12.0769153"><ele>722.6666666666666</ele><time>2026-04-06T11:57:31.01Z</time></trkpt><trkpt lat="43.9206768" lon="12.0768144"><ele>722.5</ele><time>2026-04-06T11:57:32.008Z</time></trkpt><trkpt lat="43.9206489" lon="12.0767315"><ele>722.3333333333333</ele><time>2026-04-06T11:57:33.007Z</time></trkpt><trkpt lat="43.9205702" lon="12.0766329"><ele>722.1666666666666</ele><time>2026-04-06T11:57:35.007Z</time></trkpt><trkpt lat="43.9204776" lon="12.0766623"><ele>722.0</ele><time>2026-04-06T11:57:37.008Z</time></trkpt><trkpt lat="43.9204102" lon="12.0768279"><ele>722.0</ele><time>2026-04-06T11:57:39.008Z</time></trkpt><trkpt lat="43.9203981" lon="12.0769638"><ele>722.0</ele><time>2026-04-06T11:57:40.009Z</time></trkpt><trkpt lat="43.9204022" lon="12.0771086"><ele>722.0</ele><time>2026-04-06T11:57:41.01Z</time></trkpt><trkpt lat="43.9204202" lon="12.0772575"><ele>722.0</ele><time>2026-04-06T11:57:42.009Z</time></trkpt><trkpt lat="43.9204414" lon="12.0773998"><ele>722.0</ele><time>2026-04-06T11:57:43.014Z</time></trkpt><trkpt lat="43.9204611" lon="12.077531"><ele>722.1666666666666</ele><time>2026-04-06T11:57:44.008Z</time></trkpt><trkpt lat="43.9204746" lon="12.0776448"><ele>722.3333333333333</ele><time>2026-04-06T11:57:45.011Z</time></trkpt><trkpt lat="43.9204733" lon="12.0777463"><ele>722.5</ele><time>2026-04-06T11:57:46.009Z</time></trkpt><trkpt lat="43.9204592" lon="12.0778374"><ele>722.6666666666666</ele><time>2026-04-06T11:57:47.01Z</time></trkpt><trkpt lat="43.920421" lon="12.0779172"><ele>722.8333333333334</ele><time>2026-04-06T11:57:48.007Z</time></trkpt><trkpt lat="43.9203627" lon="12.0779939"><ele>723.0</ele><time>2026-04-06T11:57:49.01Z</time></trkpt><trkpt lat="43.9202842" lon="12.0780714"><ele>723.0</ele><time>2026-04-06T11:57:50.01Z</time></trkpt><trkpt lat="43.9201667" lon="12.07814"><ele>723.0</ele><time>2026-04-06T11:57:51.009Z</time></trkpt><trkpt lat="43.9200717" lon="12.0782183"><ele>723.0</ele><time>2026-04-06T11:57:52.008Z</time></trkpt><trkpt lat="43.9199817" lon="12.0782917"><ele>723.0</ele><time>2026-04-06T11:57:53.008Z</time></trkpt><trkpt lat="43.9198983" lon="12.0783783"><ele>723.0</ele><time>2026-04-06T11:57:54.008Z</time></trkpt><trkpt lat="43.9198183" lon="12.07847"><ele>718.5999999999999</ele><time>2026-04-06T11:57:55.009Z</time></trkpt><trkpt lat="43.919745" lon="12.078575"><ele>714.1999999999999</ele><time>2026-04-06T11:57:56.01Z</time></trkpt><trkpt lat="43.91968" lon="12.0786867"><ele>709.8</ele><time>2026-04-06T11:57:57.009Z</time></trkpt><trkpt lat="43.919625" lon="12.0787883"><ele>705.4</ele><time>2026-04-06T11:57:58.007Z</time></trkpt><trkpt lat="43.9195767" lon="12.07888"><ele>701.0</ele><time>2026-04-06T11:57:59.008Z</time></trkpt><trkpt lat="43.91953" lon="12.0789617"><ele>701.0</ele><time>2026-04-06T11:58:00.013Z</time></trkpt><trkpt lat="43.9194783" lon="12.0790333"><ele>701.0</ele><time>2026-04-06T11:58:01.01Z</time></trkpt><trkpt lat="43.9193583" lon="12.0791183"><ele>701.0</ele><time>2026-04-06T11:58:03.011Z</time></trkpt><trkpt lat="43.9192867" lon="12.0791433"><ele>701.0</ele><time>2026-04-06T11:58:04.008Z</time></trkpt><trkpt lat="43.91922" lon="12.0791767"><ele>701.0</ele><time>2026-04-06T11:58:05.01Z</time></trkpt><trkpt lat="43.919155" lon="12.07923"><ele>701.0</ele><time>2026-04-06T11:58:06.008Z</time></trkpt><trkpt lat="43.9190967" lon="12.0793017"><ele>699.0</ele><time>2026-04-06T11:58:07.009Z</time></trkpt><trkpt lat="43.9190383" lon="12.0794067"><ele>697.0</ele><time>2026-04-06T11:58:08.011Z</time></trkpt><trkpt lat="43.91899" lon="12.07954"><ele>695.0</ele><time>2026-04-06T11:58:09.01Z</time></trkpt><trkpt lat="43.9189433" lon="12.0796833"><ele>693.0</ele><time>2026-04-06T11:58:10.008Z</time></trkpt><trkpt lat="43.9188983" lon="12.079835"><ele>691.0</ele><time>2026-04-06T11:58:11.008Z</time></trkpt><trkpt lat="43.9188483" lon="12.079975"><ele>691.0</ele><time>2026-04-06T11:58:12.009Z</time></trkpt><trkpt lat="43.91879" lon="12.0800983"><ele>691.0</ele><time>2026-04-06T11:58:13.008Z</time></trkpt><trkpt lat="43.9187283" lon="12.0801983"><ele>691.0</ele><time>2026-04-06T11:58:14.011Z</time></trkpt><trkpt lat="43.9186667" lon="12.0802783"><ele>691.0</ele><time>2026-04-06T11:58:15.011Z</time></trkpt><trkpt lat="43.9186117" lon="12.08035"><ele>691.0</ele><time>2026-04-06T11:58:16.008Z</time></trkpt><trkpt lat="43.9185633" lon="12.0804083"><ele>691.0</ele><time>2026-04-06T11:58:17.01Z</time></trkpt><trkpt lat="43.91847" lon="12.08051"><ele>691.0</ele><time>2026-04-06T11:58:19.009Z</time></trkpt><trkpt lat="43.9184033" lon="12.0805467"><ele>691.0</ele><time>2026-04-06T11:58:21.009Z</time></trkpt><trkpt lat="43.9183817" lon="12.0804583"><ele>691.0</ele><time>2026-04-06T11:58:24.014Z</time></trkpt><trkpt lat="43.9184217" lon="12.080375"><ele>691.0</ele><time>2026-04-06T11:58:26.009Z</time></trkpt><trkpt lat="43.9184856" lon="12.0802629"><ele>691.0</ele><time>2026-04-06T11:58:28.008Z</time></trkpt><trkpt lat="43.9185398" lon="12.0801482"><ele>691.0</ele><time>2026-04-06T11:58:29.008Z</time></trkpt><trkpt lat="43.9185764" lon="12.0800331"><ele>690.8</ele><time>2026-04-06T11:58:30.009Z</time></trkpt><trkpt lat="43.9185943" lon="12.0799077"><ele>690.5999999999999</ele><time>2026-04-06T11:58:31.01Z</time></trkpt><trkpt lat="43.9186018" lon="12.0797698"><ele>690.4</ele><time>2026-04-06T11:58:32.01Z</time></trkpt><trkpt lat="43.9186083" lon="12.0796325"><ele>690.2</ele><time>2026-04-06T11:58:33.014Z</time></trkpt><trkpt lat="43.9186206" lon="12.0794994"><ele>690.0</ele><time>2026-04-06T11:58:34.008Z</time></trkpt><trkpt lat="43.918638" lon="12.0793713"><ele>690.0</ele><time>2026-04-06T11:58:35.009Z</time></trkpt><trkpt lat="43.9186506" lon="12.0792501"><ele>690.0</ele><time>2026-04-06T11:58:36.008Z</time></trkpt><trkpt lat="43.9186725" lon="12.0791335"><ele>690.0</ele><time>2026-04-06T11:58:37.009Z</time></trkpt><trkpt lat="43.9187088" lon="12.0790466"><ele>690.0</ele><time>2026-04-06T11:58:38.013Z</time></trkpt><trkpt lat="43.9187522" lon="12.0789518"><ele>690.0</ele><time>2026-04-06T11:58:39.009Z</time></trkpt><trkpt lat="43.9187939" lon="12.0788573"><ele>690.0</ele><time>2026-04-06T11:58:40.008Z</time></trkpt><trkpt lat="43.9188271" lon="12.0787602"><ele>688.2857142857143</ele><time>2026-04-06T11:58:41.009Z</time></trkpt><trkpt lat="43.9188481" lon="12.078663"><ele>686.5714285714286</ele><time>2026-04-06T11:58:42.008Z</time></trkpt><trkpt lat="43.9188477" lon="12.0785652"><ele>684.8571428571429</ele><time>2026-04-06T11:58:43.013Z</time></trkpt><trkpt lat="43.9188286" lon="12.0784717"><ele>683.1428571428571</ele><time>2026-04-06T11:58:44.008Z</time></trkpt><trkpt lat="43.9187953" lon="12.0783887"><ele>681.4285714285714</ele><time>2026-04-06T11:58:45.009Z</time></trkpt><trkpt lat="43.918743" lon="12.0783195"><ele>679.7142857142857</ele><time>2026-04-06T11:58:46.011Z</time></trkpt><trkpt lat="43.9186494" lon="12.0782959"><ele>678.0</ele><time>2026-04-06T11:58:47.008Z</time></trkpt><trkpt lat="43.9185562" lon="12.0782872"><ele>678.0</ele><time>2026-04-06T11:58:48.009Z</time></trkpt><trkpt lat="43.9184665" lon="12.0782857"><ele>678.0</ele><time>2026-04-06T11:58:49.013Z</time></trkpt><trkpt lat="43.9183813" lon="12.0782786"><ele>678.0</ele><time>2026-04-06T11:58:50.009Z</time></trkpt><trkpt lat="43.918301" lon="12.0782548"><ele>678.0</ele><time>2026-04-06T11:58:51.01Z</time></trkpt><trkpt lat="43.9182301" lon="12.0782103"><ele>678.0</ele><time>2026-04-06T11:58:52.01Z</time></trkpt><trkpt lat="43.9181673" lon="12.0781469"><ele>678.0</ele><time>2026-04-06T11:58:53.009Z</time></trkpt><trkpt lat="43.918113" lon="12.078063"><ele>674.4</ele><time>2026-04-06T11:58:54.007Z</time></trkpt><trkpt lat="43.9180672" lon="12.0779638"><ele>670.8</ele><time>2026-04-06T11:58:55.013Z</time></trkpt><trkpt lat="43.91803" lon="12.077847"><ele>667.2</ele><time>2026-04-06T11:58:56.009Z</time></trkpt><trkpt lat="43.918007" lon="12.0776814"><ele>663.6</ele><time>2026-04-06T11:58:57.011Z</time></trkpt><trkpt lat="43.9179804" lon="12.077516"><ele>660.0</ele><time>2026-04-06T11:58:58.013Z</time></trkpt><trkpt lat="43.9179452" lon="12.0773574"><ele>659.6</ele><time>2026-04-06T11:58:59.014Z</time></trkpt><trkpt lat="43.917907" lon="12.0772138"><ele>659.2</ele><time>2026-04-06T11:59:00.009Z</time></trkpt><trkpt lat="43.9178755" lon="12.0770779"><ele>658.8</ele><time>2026-04-06T11:59:01.008Z</time></trkpt><trkpt lat="43.9178559" lon="12.0769491"><ele>658.4</ele><time>2026-04-06T11:59:02.008Z</time></trkpt><trkpt lat="43.9178441" lon="12.0768093"><ele>658.0</ele><time>2026-04-06T11:59:03.01Z</time></trkpt><trkpt lat="43.9178409" lon="12.0766627"><ele>657.2</ele><time>2026-04-06T11:59:04.01Z</time></trkpt><trkpt lat="43.9178431" lon="12.0765181"><ele>656.4</ele><time>2026-04-06T11:59:05.009Z</time></trkpt><trkpt lat="43.9178473" lon="12.0763727"><ele>655.6</ele><time>2026-04-06T11:59:06.014Z</time></trkpt><trkpt lat="43.9178531" lon="12.0762289"><ele>654.8000000000001</ele><time>2026-04-06T11:59:07.009Z</time></trkpt><trkpt lat="43.9178628" lon="12.07608"><ele>654.0</ele><time>2026-04-06T11:59:08.009Z</time></trkpt><trkpt lat="43.9178774" lon="12.0759241"><ele>652.25</ele><time>2026-04-06T11:59:09.009Z</time></trkpt><trkpt lat="43.9178961" lon="12.0757628"><ele>650.5</ele><time>2026-04-06T11:59:10.008Z</time></trkpt><trkpt lat="43.9179152" lon="12.0756019"><ele>648.75</ele><time>2026-04-06T11:59:11.008Z</time></trkpt><trkpt lat="43.9179335" lon="12.0754464"><ele>647.0</ele><time>2026-04-06T11:59:12.009Z</time></trkpt><trkpt lat="43.9179519" lon="12.075301"><ele>647.0</ele><time>2026-04-06T11:59:13.011Z</time></trkpt><trkpt lat="43.9179702" lon="12.0751641"><ele>647.0</ele><time>2026-04-06T11:59:14.01Z</time></trkpt><trkpt lat="43.9179869" lon="12.0750391"><ele>647.0</ele><time>2026-04-06T11:59:15.009Z</time></trkpt><trkpt lat="43.9180048" lon="12.0749215"><ele>647.0</ele><time>2026-04-06T11:59:16.007Z</time></trkpt><trkpt lat="43.9180219" lon="12.0748161"><ele>647.0</ele><time>2026-04-06T11:59:17.008Z</time></trkpt><trkpt lat="43.9180374" lon="12.074723"><ele>647.0</ele><time>2026-04-06T11:59:18.01Z</time></trkpt><trkpt lat="43.918057" lon="12.074571"><ele>644.8000000000001</ele><time>2026-04-06T11:59:20.01Z</time></trkpt><trkpt lat="43.9180314" lon="12.0744568"><ele>642.6</ele><time>2026-04-06T11:59:22.008Z</time></trkpt><trkpt lat="43.9179431" lon="12.0743954"><ele>640.4000000000001</ele><time>2026-04-06T11:59:24.01Z</time></trkpt><trkpt lat="43.9178452" lon="12.0745223"><ele>638.2</ele><time>2026-04-06T11:59:26.01Z</time></trkpt><trkpt lat="43.9178065" lon="12.0746346"><ele>636.0</ele><time>2026-04-06T11:59:27.008Z</time></trkpt><trkpt lat="43.9177756" lon="12.074771"><ele>636.0</ele><time>2026-04-06T11:59:28.008Z</time></trkpt><trkpt lat="43.917745" lon="12.074905"><ele>636.0</ele><time>2026-04-06T11:59:29.009Z</time></trkpt><trkpt lat="43.9177071" lon="12.075026"><ele>636.0</ele><time>2026-04-06T11:59:30.007Z</time></trkpt><trkpt lat="43.9176659" lon="12.0751191"><ele>636.0</ele><time>2026-04-06T11:59:31.008Z</time></trkpt><trkpt lat="43.9176155" lon="12.0752091"><ele>636.0</ele><time>2026-04-06T11:59:32.009Z</time></trkpt><trkpt lat="43.9175604" lon="12.0752903"><ele>636.0</ele><time>2026-04-06T11:59:33.007Z</time></trkpt><trkpt lat="43.9175028" lon="12.0753595"><ele>633.8333333333334</ele><time>2026-04-06T11:59:34.007Z</time></trkpt><trkpt lat="43.9174372" lon="12.0754239"><ele>631.6666666666666</ele><time>2026-04-06T11:59:35.007Z</time></trkpt><trkpt lat="43.9173627" lon="12.0754858"><ele>629.5</ele><time>2026-04-06T11:59:36.008Z</time></trkpt><trkpt lat="43.9172836" lon="12.0755471"><ele>627.3333333333333</ele><time>2026-04-06T11:59:37.009Z</time></trkpt><trkpt lat="43.9172031" lon="12.075609"><ele>625.1666666666666</ele><time>2026-04-06T11:59:38.01Z</time></trkpt><trkpt lat="43.9171254" lon="12.0756689"><ele>623.0</ele><time>2026-04-06T11:59:39.009Z</time></trkpt><trkpt lat="43.9170436" lon="12.0757247"><ele>624.6</ele><time>2026-04-06T11:59:40.009Z</time></trkpt><trkpt lat="43.9169539" lon="12.0757876"><ele>626.1999999999999</ele><time>2026-04-06T11:59:41.009Z</time></trkpt><trkpt lat="43.9168614" lon="12.075854"><ele>627.8</ele><time>2026-04-06T11:59:42.009Z</time></trkpt><trkpt lat="43.9167692" lon="12.0759111"><ele>629.4</ele><time>2026-04-06T11:59:43.009Z</time></trkpt><trkpt lat="43.916679" lon="12.075958"><ele>631.0</ele><time>2026-04-06T11:59:44.01Z</time></trkpt><trkpt lat="43.9165925" lon="12.0759921"><ele>628.0</ele><time>2026-04-06T11:59:45.012Z</time></trkpt><trkpt lat="43.9165088" lon="12.0760126"><ele>625.0</ele><time>2026-04-06T11:59:46.008Z</time></trkpt><trkpt lat="43.9164299" lon="12.0760274"><ele>622.0</ele><time>2026-04-06T11:59:47.009Z</time></trkpt><trkpt lat="43.9163539" lon="12.0760465"><ele>619.0</ele><time>2026-04-06T11:59:48.009Z</time></trkpt><trkpt lat="43.9162835" lon="12.0760761"><ele>616.0</ele><time>2026-04-06T11:59:49.008Z</time></trkpt><trkpt lat="43.9162184" lon="12.0761201"><ele>613.0</ele><time>2026-04-06T11:59:50.008Z</time></trkpt><trkpt lat="43.9161608" lon="12.0761769"><ele>613.0</ele><time>2026-04-06T11:59:51.007Z</time></trkpt><trkpt lat="43.9161144" lon="12.0762475"><ele>613.0</ele><time>2026-04-06T11:59:52.007Z</time></trkpt><trkpt lat="43.9160767" lon="12.0763343"><ele>613.0</ele><time>2026-04-06T11:59:53.007Z</time></trkpt><trkpt lat="43.9160458" lon="12.0764378"><ele>613.0</ele><time>2026-04-06T11:59:54.007Z</time></trkpt><trkpt lat="43.9160366" lon="12.0765554"><ele>613.0</ele><time>2026-04-06T11:59:55.009Z</time></trkpt><trkpt lat="43.916058" lon="12.0766837"><ele>613.0</ele><time>2026-04-06T11:59:56.01Z</time></trkpt><trkpt lat="43.9161032" lon="12.0768184"><ele>613.0</ele><time>2026-04-06T11:59:57.008Z</time></trkpt><trkpt lat="43.9161477" lon="12.0769533"><ele>613.0</ele><time>2026-04-06T11:59:58.008Z</time></trkpt><trkpt lat="43.9161851" lon="12.0770858"><ele>613.0</ele><time>2026-04-06T11:59:59.007Z</time></trkpt><trkpt lat="43.9162143" lon="12.0772174"><ele>613.0</ele><time>2026-04-06T12:00:00.009Z</time></trkpt><trkpt lat="43.9162406" lon="12.0773481"><ele>613.0</ele><time>2026-04-06T12:00:01.007Z</time></trkpt><trkpt lat="43.9162643" lon="12.0774717"><ele>612.8</ele><time>2026-04-06T12:00:02.011Z</time></trkpt><trkpt lat="43.9162838" lon="12.0775961"><ele>612.5999999999999</ele><time>2026-04-06T12:00:03.007Z</time></trkpt><trkpt lat="43.9162983" lon="12.0777201"><ele>612.4000000000001</ele><time>2026-04-06T12:00:04.01Z</time></trkpt><trkpt lat="43.9163025" lon="12.0778414"><ele>612.2</ele><time>2026-04-06T12:00:05.007Z</time></trkpt><trkpt lat="43.916307" lon="12.0779709"><ele>612.0</ele><time>2026-04-06T12:00:06.007Z</time></trkpt><trkpt lat="43.9163133" lon="12.078099"><ele>612.0</ele><time>2026-04-06T12:00:07.006Z</time></trkpt><trkpt lat="43.9163221" lon="12.0782304"><ele>612.0</ele><time>2026-04-06T12:00:08.006Z</time></trkpt><trkpt lat="43.9163344" lon="12.0783652"><ele>612.0</ele><time>2026-04-06T12:00:09.01Z</time></trkpt><trkpt lat="43.9163384" lon="12.0785021"><ele>612.0</ele><time>2026-04-06T12:00:10.008Z</time></trkpt><trkpt lat="43.9163422" lon="12.0786217"><ele>612.0</ele><time>2026-04-06T12:00:11.007Z</time></trkpt><trkpt lat="43.9163362" lon="12.0787373"><ele>611.8333333333334</ele><time>2026-04-06T12:00:12.007Z</time></trkpt><trkpt lat="43.9163291" lon="12.0788486"><ele>611.6666666666666</ele><time>2026-04-06T12:00:13.008Z</time></trkpt><trkpt lat="43.9163276" lon="12.0789577"><ele>611.5</ele><time>2026-04-06T12:00:14.009Z</time></trkpt><trkpt lat="43.9163372" lon="12.07906"><ele>611.3333333333333</ele><time>2026-04-06T12:00:15.009Z</time></trkpt><trkpt lat="43.9163599" lon="12.0791546"><ele>611.1666666666666</ele><time>2026-04-06T12:00:16.009Z</time></trkpt><trkpt lat="43.9163978" lon="12.079243"><ele>611.0</ele><time>2026-04-06T12:00:17.009Z</time></trkpt><trkpt lat="43.9164383" lon="12.0793262"><ele>610.1666666666666</ele><time>2026-04-06T12:00:18.009Z</time></trkpt><trkpt lat="43.9164689" lon="12.0794127"><ele>609.3333333333333</ele><time>2026-04-06T12:00:19.008Z</time></trkpt><trkpt lat="43.9164856" lon="12.0795017"><ele>608.5</ele><time>2026-04-06T12:00:20.007Z</time></trkpt><trkpt lat="43.9164834" lon="12.0795991"><ele>607.6666666666666</ele><time>2026-04-06T12:00:21.008Z</time></trkpt><trkpt lat="43.9164596" lon="12.0797003"><ele>606.8333333333334</ele><time>2026-04-06T12:00:22.007Z</time></trkpt><trkpt lat="43.9164204" lon="12.0798125"><ele>606.0</ele><time>2026-04-06T12:00:23.006Z</time></trkpt><trkpt lat="43.9163551" lon="12.0799336"><ele>605.25</ele><time>2026-04-06T12:00:24.01Z</time></trkpt><trkpt lat="43.9162651" lon="12.0800634"><ele>604.5</ele><time>2026-04-06T12:00:25.008Z</time></trkpt><trkpt lat="43.9161645" lon="12.0801945"><ele>603.75</ele><time>2026-04-06T12:00:26.005Z</time></trkpt><trkpt lat="43.9160714" lon="12.0803165"><ele>603.0</ele><time>2026-04-06T12:00:27.008Z</time></trkpt><trkpt lat="43.915993" lon="12.0804329"><ele>603.0</ele><time>2026-04-06T12:00:28.006Z</time></trkpt><trkpt lat="43.9159207" lon="12.0805482"><ele>603.0</ele><time>2026-04-06T12:00:29.005Z</time></trkpt><trkpt lat="43.91585" lon="12.080662"><ele>603.0</ele><time>2026-04-06T12:00:30.009Z</time></trkpt><trkpt lat="43.9157787" lon="12.0807657"><ele>603.0</ele><time>2026-04-06T12:00:31.007Z</time></trkpt><trkpt lat="43.9157174" lon="12.0808684"><ele>603.0</ele><time>2026-04-06T12:00:32.007Z</time></trkpt><trkpt lat="43.9156593" lon="12.0809769"><ele>599.6</ele><time>2026-04-06T12:00:33.005Z</time></trkpt><trkpt lat="43.9156097" lon="12.0811043"><ele>596.1999999999999</ele><time>2026-04-06T12:00:34.007Z</time></trkpt><trkpt lat="43.9155703" lon="12.0812468"><ele>592.8</ele><time>2026-04-06T12:00:35.006Z</time></trkpt><trkpt lat="43.915537" lon="12.0814002"><ele>589.4</ele><time>2026-04-06T12:00:36.007Z</time></trkpt><trkpt lat="43.915504" lon="12.0815528"><ele>586.0</ele><time>2026-04-06T12:00:37.006Z</time></trkpt><trkpt lat="43.9154649" lon="12.0816952"><ele>586.0</ele><time>2026-04-06T12:00:38.006Z</time></trkpt><trkpt lat="43.9154153" lon="12.0818315"><ele>586.0</ele><time>2026-04-06T12:00:39.007Z</time></trkpt><trkpt lat="43.915356" lon="12.0819604"><ele>586.0</ele><time>2026-04-06T12:00:40.006Z</time></trkpt><trkpt lat="43.9152893" lon="12.0820811"><ele>586.0</ele><time>2026-04-06T12:00:41.006Z</time></trkpt><trkpt lat="43.9152238" lon="12.0821955"><ele>586.0</ele><time>2026-04-06T12:00:42.017Z</time></trkpt><trkpt lat="43.915164" lon="12.0823019"><ele>586.0</ele><time>2026-04-06T12:00:43.008Z</time></trkpt><trkpt lat="43.9151068" lon="12.0824019"><ele>586.0</ele><time>2026-04-06T12:00:44.007Z</time></trkpt><trkpt lat="43.9150423" lon="12.0824855"><ele>586.0</ele><time>2026-04-06T12:00:45.005Z</time></trkpt><trkpt lat="43.9149734" lon="12.0825434"><ele>586.0</ele><time>2026-04-06T12:00:46.007Z</time></trkpt><trkpt lat="43.9149051" lon="12.0825739"><ele>586.0</ele><time>2026-04-06T12:00:47.008Z</time></trkpt><trkpt lat="43.9148422" lon="12.0825933"><ele>586.0</ele><time>2026-04-06T12:00:48.008Z</time></trkpt><trkpt lat="43.914745" lon="12.0826626"><ele>581.2</ele><time>2026-04-06T12:00:50.006Z</time></trkpt><trkpt lat="43.9147059" lon="12.0827887"><ele>576.4000000000001</ele><time>2026-04-06T12:00:52.006Z</time></trkpt><trkpt lat="43.9147537" lon="12.0829003"><ele>571.6</ele><time>2026-04-06T12:00:54.006Z</time></trkpt><trkpt lat="43.9148666" lon="12.0829431"><ele>566.8000000000001</ele><time>2026-04-06T12:00:56.008Z</time></trkpt><trkpt lat="43.914948" lon="12.0829365"><ele>562.0</ele><time>2026-04-06T12:00:57.007Z</time></trkpt><trkpt lat="43.9150394" lon="12.0829226"><ele>562.8000000000001</ele><time>2026-04-06T12:00:58.009Z</time></trkpt><trkpt lat="43.9151377" lon="12.0829096"><ele>563.6</ele><time>2026-04-06T12:00:59.007Z</time></trkpt><trkpt lat="43.9152458" lon="12.0828933"><ele>564.4000000000001</ele><time>2026-04-06T12:01:00.008Z</time></trkpt><trkpt lat="43.9153563" lon="12.0828663"><ele>565.2</ele><time>2026-04-06T12:01:01.007Z</time></trkpt><trkpt lat="43.915473" lon="12.0828288"><ele>566.0</ele><time>2026-04-06T12:01:02.009Z</time></trkpt><trkpt lat="43.9155918" lon="12.0827798"><ele>566.0</ele><time>2026-04-06T12:01:03.008Z</time></trkpt><trkpt lat="43.9157023" lon="12.0827266"><ele>566.0</ele><time>2026-04-06T12:01:04.007Z</time></trkpt><trkpt lat="43.9158012" lon="12.0826872"><ele>566.0</ele><time>2026-04-06T12:01:05.008Z</time></trkpt><trkpt lat="43.9158938" lon="12.0826681"><ele>566.0</ele><time>2026-04-06T12:01:06.007Z</time></trkpt><trkpt lat="43.9159779" lon="12.0826684"><ele>566.0</ele><time>2026-04-06T12:01:07.009Z</time></trkpt><trkpt lat="43.9160526" lon="12.0826868"><ele>567.2</ele><time>2026-04-06T12:01:08.007Z</time></trkpt><trkpt lat="43.9161233" lon="12.08274"><ele>568.4000000000001</ele><time>2026-04-06T12:01:09.007Z</time></trkpt><trkpt lat="43.9161767" lon="12.0828467"><ele>569.6</ele><time>2026-04-06T12:01:10.011Z</time></trkpt><trkpt lat="43.91624" lon="12.08298"><ele>570.8000000000001</ele><time>2026-04-06T12:01:11.007Z</time></trkpt><trkpt lat="43.91631" lon="12.083145"><ele>572.0</ele><time>2026-04-06T12:01:12.01Z</time></trkpt><trkpt lat="43.91637" lon="12.0832917"><ele>567.8000000000001</ele><time>2026-04-06T12:01:13.007Z</time></trkpt><trkpt lat="43.9164267" lon="12.0834083"><ele>563.6</ele><time>2026-04-06T12:01:14.008Z</time></trkpt><trkpt lat="43.9164817" lon="12.0835183"><ele>559.4000000000001</ele><time>2026-04-06T12:01:15.006Z</time></trkpt><trkpt lat="43.9165367" lon="12.0836133"><ele>555.2</ele><time>2026-04-06T12:01:16.006Z</time></trkpt><trkpt lat="43.9165867" lon="12.0837133"><ele>551.0</ele><time>2026-04-06T12:01:17.006Z</time></trkpt><trkpt lat="43.9166333" lon="12.0838067"><ele>551.0</ele><time>2026-04-06T12:01:18.006Z</time></trkpt><trkpt lat="43.91667" lon="12.0839067"><ele>551.0</ele><time>2026-04-06T12:01:19.009Z</time></trkpt><trkpt lat="43.9166933" lon="12.0840233"><ele>551.0</ele><time>2026-04-06T12:01:20.007Z</time></trkpt><trkpt lat="43.9167083" lon="12.0841483"><ele>551.0</ele><time>2026-04-06T12:01:21.01Z</time></trkpt><trkpt lat="43.9167317" lon="12.0842733"><ele>551.0</ele><time>2026-04-06T12:01:22.007Z</time></trkpt><trkpt lat="43.9167467" lon="12.08439"><ele>551.0</ele><time>2026-04-06T12:01:23.008Z</time></trkpt><trkpt lat="43.9167617" lon="12.0844983"><ele>549.6666666666666</ele><time>2026-04-06T12:01:24.011Z</time></trkpt><trkpt lat="43.9167883" lon="12.0846067"><ele>548.3333333333333</ele><time>2026-04-06T12:01:25.008Z</time></trkpt><trkpt lat="43.916815" lon="12.08471"><ele>547.0</ele><time>2026-04-06T12:01:26.008Z</time></trkpt><trkpt lat="43.9168467" lon="12.0848"><ele>545.6666666666666</ele><time>2026-04-06T12:01:27.007Z</time></trkpt><trkpt lat="43.9169133" lon="12.0849167"><ele>544.3333333333334</ele><time>2026-04-06T12:01:29.008Z</time></trkpt><trkpt lat="43.9169583" lon="12.0850083"><ele>543.0</ele><time>2026-04-06T12:01:31.007Z</time></trkpt><trkpt lat="43.9169517" lon="12.0851217"><ele>543.0</ele><time>2026-04-06T12:01:33.007Z</time></trkpt><trkpt lat="43.9168867" lon="12.0851817"><ele>543.0</ele><time>2026-04-06T12:01:35.007Z</time></trkpt><trkpt lat="43.9168149" lon="12.0851607"><ele>543.0</ele><time>2026-04-06T12:01:37.935Z</time></trkpt><trkpt lat="43.9166618" lon="12.0849453"><ele>543.0</ele><time>2026-04-06T12:01:40.007Z</time></trkpt><trkpt lat="43.9165672" lon="12.0848027"><ele>542.1999999999999</ele><time>2026-04-06T12:01:41.008Z</time></trkpt><trkpt lat="43.9164852" lon="12.0846801"><ele>541.4</ele><time>2026-04-06T12:01:42.014Z</time></trkpt><trkpt lat="43.9164111" lon="12.0845772"><ele>540.5999999999999</ele><time>2026-04-06T12:01:43.008Z</time></trkpt><trkpt lat="43.9163395" lon="12.0844835"><ele>539.8</ele><time>2026-04-06T12:01:44.007Z</time></trkpt><trkpt lat="43.9162664" lon="12.084398"><ele>539.0</ele><time>2026-04-06T12:01:45.007Z</time></trkpt><trkpt lat="43.9161928" lon="12.0843195"><ele>539.0</ele><time>2026-04-06T12:01:46.008Z</time></trkpt><trkpt lat="43.9161266" lon="12.0842456"><ele>539.0</ele><time>2026-04-06T12:01:47.005Z</time></trkpt><trkpt lat="43.9160625" lon="12.0841677"><ele>539.0</ele><time>2026-04-06T12:01:48.01Z</time></trkpt><trkpt lat="43.9160053" lon="12.0840981"><ele>539.0</ele><time>2026-04-06T12:01:49.007Z</time></trkpt><trkpt lat="43.9159178" lon="12.0840046"><ele>539.0</ele><time>2026-04-06T12:01:51.007Z</time></trkpt><trkpt lat="43.9158314" lon="12.0840107"><ele>539.0</ele><time>2026-04-06T12:01:53.006Z</time></trkpt><trkpt lat="43.9157931" lon="12.0841632"><ele>539.0</ele><time>2026-04-06T12:01:55.007Z</time></trkpt><trkpt lat="43.9157965" lon="12.0842683"><ele>539.0</ele><time>2026-04-06T12:01:56.011Z</time></trkpt><trkpt lat="43.9158077" lon="12.0843868"><ele>539.0</ele><time>2026-04-06T12:01:57.009Z</time></trkpt><trkpt lat="43.9158311" lon="12.0845113"><ele>539.0</ele><time>2026-04-06T12:01:58.007Z</time></trkpt><trkpt lat="43.9158606" lon="12.0846237"><ele>539.0</ele><time>2026-04-06T12:01:59.007Z</time></trkpt><trkpt lat="43.9158974" lon="12.0847221"><ele>539.0</ele><time>2026-04-06T12:02:00.009Z</time></trkpt><trkpt lat="43.9159465" lon="12.0848092"><ele>539.0</ele><time>2026-04-06T12:02:01.008Z</time></trkpt><trkpt lat="43.916009" lon="12.0848961"><ele>539.0</ele><time>2026-04-06T12:02:02.007Z</time></trkpt><trkpt lat="43.9160838" lon="12.0849739"><ele>539.0</ele><time>2026-04-06T12:02:03.009Z</time></trkpt><trkpt lat="43.9161615" lon="12.0850396"><ele>539.0</ele><time>2026-04-06T12:02:04.007Z</time></trkpt><trkpt lat="43.9162357" lon="12.0851055"><ele>539.0</ele><time>2026-04-06T12:02:05.011Z</time></trkpt><trkpt lat="43.9163009" lon="12.0851707"><ele>539.0</ele><time>2026-04-06T12:02:06.006Z</time></trkpt><trkpt lat="43.9163578" lon="12.0852264"><ele>536.4</ele><time>2026-04-06T12:02:07.009Z</time></trkpt><trkpt lat="43.9164295" lon="12.0853363"><ele>533.8</ele><time>2026-04-06T12:02:09.005Z</time></trkpt><trkpt lat="43.9164432" lon="12.0854506"><ele>531.2</ele><time>2026-04-06T12:02:11.007Z</time></trkpt><trkpt lat="43.9163918" lon="12.0855092"><ele>528.6</ele><time>2026-04-06T12:02:13.007Z</time></trkpt><trkpt lat="43.9163063" lon="12.0854929"><ele>526.0</ele><time>2026-04-06T12:02:15.006Z</time></trkpt><trkpt lat="43.9161935" lon="12.0854002"><ele>526.0</ele><time>2026-04-06T12:02:17.007Z</time></trkpt><trkpt lat="43.916131" lon="12.0853485"><ele>526.0</ele><time>2026-04-06T12:02:18.007Z</time></trkpt><trkpt lat="43.9160653" lon="12.0853098"><ele>526.0</ele><time>2026-04-06T12:02:19.008Z</time></trkpt><trkpt lat="43.9159821" lon="12.0852783"><ele>526.0</ele><time>2026-04-06T12:02:20.007Z</time></trkpt><trkpt lat="43.9158903" lon="12.0852543"><ele>526.0</ele><time>2026-04-06T12:02:21.014Z</time></trkpt><trkpt lat="43.9157946" lon="12.0852303"><ele>526.0</ele><time>2026-04-06T12:02:22.008Z</time></trkpt><trkpt lat="43.9157057" lon="12.0852107"><ele>524.8333333333334</ele><time>2026-04-06T12:02:23.007Z</time></trkpt><trkpt lat="43.915626" lon="12.0851896"><ele>523.6666666666667</ele><time>2026-04-06T12:02:24.007Z</time></trkpt><trkpt lat="43.9155526" lon="12.0851658"><ele>522.5</ele><time>2026-04-06T12:02:25.007Z</time></trkpt><trkpt lat="43.9154881" lon="12.0851319"><ele>521.3333333333334</ele><time>2026-04-06T12:02:26.009Z</time></trkpt><trkpt lat="43.9154323" lon="12.0850854"><ele>520.1666666666666</ele><time>2026-04-06T12:02:27.009Z</time></trkpt><trkpt lat="43.9153505" lon="12.0849606"><ele>519.0</ele><time>2026-04-06T12:02:29.011Z</time></trkpt><trkpt lat="43.9153202" lon="12.0848734"><ele>519.0</ele><time>2026-04-06T12:02:30.008Z</time></trkpt><trkpt lat="43.9152937" lon="12.0847694"><ele>519.0</ele><time>2026-04-06T12:02:31.008Z</time></trkpt><trkpt lat="43.9152691" lon="12.0846559"><ele>519.0</ele><time>2026-04-06T12:02:32.008Z</time></trkpt><trkpt lat="43.9152392" lon="12.0845529"><ele>519.0</ele><time>2026-04-06T12:02:33.007Z</time></trkpt><trkpt lat="43.9152017" lon="12.0844618"><ele>519.0</ele><time>2026-04-06T12:02:34.009Z</time></trkpt><trkpt lat="43.9151531" lon="12.084381"><ele>519.0</ele><time>2026-04-06T12:02:35.008Z</time></trkpt><trkpt lat="43.9150924" lon="12.0843058"><ele>515.6</ele><time>2026-04-06T12:02:36.007Z</time></trkpt><trkpt lat="43.9150212" lon="12.0842467"><ele>512.2</ele><time>2026-04-06T12:02:37.006Z</time></trkpt><trkpt lat="43.9149366" lon="12.0842069"><ele>508.80000000000007</ele><time>2026-04-06T12:02:38.007Z</time></trkpt><trkpt lat="43.9148406" lon="12.0841869"><ele>505.40000000000003</ele><time>2026-04-06T12:02:39.008Z</time></trkpt><trkpt lat="43.914717" lon="12.0841995"><ele>502.0</ele><time>2026-04-06T12:02:40.009Z</time></trkpt><trkpt lat="43.9145853" lon="12.0842215"><ele>502.0</ele><time>2026-04-06T12:02:41.011Z</time></trkpt><trkpt lat="43.9144422" lon="12.0842338"><ele>502.0</ele><time>2026-04-06T12:02:42.006Z</time></trkpt><trkpt lat="43.9142961" lon="12.0842443"><ele>502.0</ele><time>2026-04-06T12:02:43.005Z</time></trkpt><trkpt lat="43.9141568" lon="12.0842516"><ele>502.0</ele><time>2026-04-06T12:02:44.007Z</time></trkpt><trkpt lat="43.9140278" lon="12.0842575"><ele>499.6</ele><time>2026-04-06T12:02:45.007Z</time></trkpt><trkpt lat="43.9139116" lon="12.084266"><ele>497.20000000000005</ele><time>2026-04-06T12:02:46.007Z</time></trkpt><trkpt lat="43.9138104" lon="12.0842849"><ele>494.8</ele><time>2026-04-06T12:02:47.006Z</time></trkpt><trkpt lat="43.9137317" lon="12.0843183"><ele>492.4</ele><time>2026-04-06T12:02:48.008Z</time></trkpt><trkpt lat="43.9136533" lon="12.08436"><ele>490.0</ele><time>2026-04-06T12:02:49.006Z</time></trkpt><trkpt lat="43.9135767" lon="12.084395"><ele>490.00000000000006</ele><time>2026-04-06T12:02:50.012Z</time></trkpt><trkpt lat="43.9135083" lon="12.0844167"><ele>490.0</ele><time>2026-04-06T12:02:51.007Z</time></trkpt><trkpt lat="43.9134383" lon="12.0844133"><ele>490.0</ele><time>2026-04-06T12:02:52.007Z</time></trkpt><trkpt lat="43.9133733" lon="12.08438"><ele>490.0</ele><time>2026-04-06T12:02:53.006Z</time></trkpt><trkpt lat="43.9133183" lon="12.08433"><ele>490.00000000000006</ele><time>2026-04-06T12:02:54.005Z</time></trkpt><trkpt lat="43.913255" lon="12.0841933"><ele>490.0</ele><time>2026-04-06T12:02:56.008Z</time></trkpt><trkpt lat="43.9132767" lon="12.0840083"><ele>488.33333333333337</ele><time>2026-04-06T12:02:58.01Z</time></trkpt><trkpt lat="43.913305" lon="12.0838933"><ele>486.6666666666667</ele><time>2026-04-06T12:02:59.007Z</time></trkpt><trkpt lat="43.9133183" lon="12.0837767"><ele>485.0</ele><time>2026-04-06T12:03:00.009Z</time></trkpt><trkpt lat="43.9133117" lon="12.083665"><ele>483.33333333333337</ele><time>2026-04-06T12:03:01.006Z</time></trkpt><trkpt lat="43.9132817" lon="12.083555"><ele>481.6666666666667</ele><time>2026-04-06T12:03:02.009Z</time></trkpt><trkpt lat="43.9132417" lon="12.0834567"><ele>480.0</ele><time>2026-04-06T12:03:03.007Z</time></trkpt><trkpt lat="43.9131933" lon="12.083365"><ele>480.0</ele><time>2026-04-06T12:03:04.007Z</time></trkpt><trkpt lat="43.9131467" lon="12.08327"><ele>480.0</ele><time>2026-04-06T12:03:05.01Z</time></trkpt><trkpt lat="43.9131083" lon="12.083165"><ele>480.0</ele><time>2026-04-06T12:03:06.006Z</time></trkpt><trkpt lat="43.9130783" lon="12.0830417"><ele>480.0</ele><time>2026-04-06T12:03:07.014Z</time></trkpt><trkpt lat="43.913055" lon="12.0829167"><ele>480.0</ele><time>2026-04-06T12:03:08.006Z</time></trkpt><trkpt lat="43.9130467" lon="12.0827867"><ele>480.0</ele><time>2026-04-06T12:03:09.008Z</time></trkpt><trkpt lat="43.913045" lon="12.082655"><ele>479.6</ele><time>2026-04-06T12:03:10.007Z</time></trkpt><trkpt lat="43.91304" lon="12.08252"><ele>479.2</ele><time>2026-04-06T12:03:11.006Z</time></trkpt><trkpt lat="43.9130217" lon="12.08238"><ele>478.79999999999995</ele><time>2026-04-06T12:03:12.008Z</time></trkpt><trkpt lat="43.9129967" lon="12.08224"><ele>478.4</ele><time>2026-04-06T12:03:13.008Z</time></trkpt><trkpt lat="43.9129683" lon="12.0821117"><ele>478.0</ele><time>2026-04-06T12:03:14.008Z</time></trkpt><trkpt lat="43.91294" lon="12.0819967"><ele>477.83333333333337</ele><time>2026-04-06T12:03:15.007Z</time></trkpt><trkpt lat="43.9129167" lon="12.0818867"><ele>477.6666666666667</ele><time>2026-04-06T12:03:16.011Z</time></trkpt><trkpt lat="43.9129117" lon="12.0817833"><ele>477.5</ele><time>2026-04-06T12:03:17.009Z</time></trkpt><trkpt lat="43.9129233" lon="12.0816833"><ele>477.33333333333337</ele><time>2026-04-06T12:03:18.008Z</time></trkpt><trkpt lat="43.9129467" lon="12.0815833"><ele>477.1666666666667</ele><time>2026-04-06T12:03:19.007Z</time></trkpt><trkpt lat="43.9129767" lon="12.0814883"><ele>477.0</ele><time>2026-04-06T12:03:20.007Z</time></trkpt><trkpt lat="43.9130117" lon="12.0814"><ele>476.6</ele><time>2026-04-06T12:03:21.007Z</time></trkpt><trkpt lat="43.9130433" lon="12.0813217"><ele>476.20000000000005</ele><time>2026-04-06T12:03:22.006Z</time></trkpt><trkpt lat="43.9130867" lon="12.08118"><ele>475.8</ele><time>2026-04-06T12:03:24.007Z</time></trkpt><trkpt lat="43.9130617" lon="12.0810567"><ele>475.4</ele><time>2026-04-06T12:03:26.006Z</time></trkpt><trkpt lat="43.912975" lon="12.081005"><ele>475.0</ele><time>2026-04-06T12:03:28.006Z</time></trkpt><trkpt lat="43.9128683" lon="12.08107"><ele>475.0</ele><time>2026-04-06T12:03:30.008Z</time></trkpt><trkpt lat="43.912815" lon="12.0811317"><ele>475.0</ele><time>2026-04-06T12:03:31.007Z</time></trkpt><trkpt lat="43.9127467" lon="12.0812217"><ele>475.0</ele><time>2026-04-06T12:03:32.007Z</time></trkpt><trkpt lat="43.9126767" lon="12.081345"><ele>475.0</ele><time>2026-04-06T12:03:33.007Z</time></trkpt><trkpt lat="43.9126117" lon="12.0815067"><ele>475.0</ele><time>2026-04-06T12:03:34.006Z</time></trkpt><trkpt lat="43.91256" lon="12.081675"><ele>471.0</ele><time>2026-04-06T12:03:35.007Z</time></trkpt><trkpt lat="43.9125067" lon="12.0818667"><ele>467.0</ele><time>2026-04-06T12:03:36.007Z</time></trkpt><trkpt lat="43.9124483" lon="12.082085"><ele>463.0</ele><time>2026-04-06T12:03:37.006Z</time></trkpt><trkpt lat="43.91239" lon="12.0823067"><ele>459.33333333333337</ele><time>2026-04-06T12:03:38.007Z</time></trkpt><trkpt lat="43.91234" lon="12.0825167"><ele>455.66666666666663</ele><time>2026-04-06T12:03:39.009Z</time></trkpt><trkpt lat="43.9122917" lon="12.082715"><ele>452.0</ele><time>2026-04-06T12:03:40.009Z</time></trkpt><trkpt lat="43.9122533" lon="12.0829033"><ele>452.0</ele><time>2026-04-06T12:03:41.01Z</time></trkpt><trkpt lat="43.9122217" lon="12.0830983"><ele>452.0</ele><time>2026-04-06T12:03:42.008Z</time></trkpt><trkpt lat="43.9122067" lon="12.0832917"><ele>452.0</ele><time>2026-04-06T12:03:43.008Z</time></trkpt><trkpt lat="43.9121867" lon="12.0834567"><ele>452.0</ele><time>2026-04-06T12:03:44.007Z</time></trkpt><trkpt lat="43.9121583" lon="12.0835967"><ele>450.99999999999994</ele><time>2026-04-06T12:03:45.01Z</time></trkpt><trkpt lat="43.9121217" lon="12.083715"><ele>450.0</ele><time>2026-04-06T12:03:46.005Z</time></trkpt><trkpt lat="43.9120867" lon="12.0838133"><ele>449.0</ele><time>2026-04-06T12:03:47.006Z</time></trkpt><trkpt lat="43.9120567" lon="12.0839"><ele>448.0</ele><time>2026-04-06T12:03:48.008Z</time></trkpt><trkpt lat="43.9120567" lon="12.083995"><ele>446.99999999999994</ele><time>2026-04-06T12:03:49.008Z</time></trkpt><trkpt lat="43.912075" lon="12.0840883"><ele>446.0</ele><time>2026-04-06T12:03:50.012Z</time></trkpt><trkpt lat="43.9121133" lon="12.0841767"><ele>445.49999999999994</ele><time>2026-04-06T12:03:51.01Z</time></trkpt><trkpt lat="43.9121917" lon="12.0842667"><ele>445.0</ele><time>2026-04-06T12:03:52.009Z</time></trkpt><trkpt lat="43.9122483" lon="12.0843567"><ele>444.5</ele><time>2026-04-06T12:03:53.008Z</time></trkpt><trkpt lat="43.9122833" lon="12.0844567"><ele>444.0</ele><time>2026-04-06T12:03:54.007Z</time></trkpt><trkpt lat="43.9123017" lon="12.084555"><ele>443.49999999999994</ele><time>2026-04-06T12:03:55.009Z</time></trkpt><trkpt lat="43.912315" lon="12.0846417"><ele>443.0</ele><time>2026-04-06T12:03:56.009Z</time></trkpt><trkpt lat="43.9123009" lon="12.0847845"><ele>442.99999999999994</ele><time>2026-04-06T12:03:58.014Z</time></trkpt><trkpt lat="43.9122121" lon="12.0849019"><ele>443.0</ele><time>2026-04-06T12:04:00.009Z</time></trkpt><trkpt lat="43.9121517" lon="12.0849691"><ele>443.0</ele><time>2026-04-06T12:04:01.008Z</time></trkpt><trkpt lat="43.9120979" lon="12.0850504"><ele>443.0</ele><time>2026-04-06T12:04:02.012Z</time></trkpt><trkpt lat="43.9120524" lon="12.0851402"><ele>442.99999999999994</ele><time>2026-04-06T12:04:03.008Z</time></trkpt><trkpt lat="43.9120391" lon="12.0852344"><ele>443.0</ele><time>2026-04-06T12:04:04.009Z</time></trkpt><trkpt lat="43.9120804" lon="12.0853254"><ele>441.66666666666663</ele><time>2026-04-06T12:04:05.008Z</time></trkpt><trkpt lat="43.9121409" lon="12.085413"><ele>440.3333333333333</ele><time>2026-04-06T12:04:06.01Z</time></trkpt><trkpt lat="43.9121919" lon="12.0855115"><ele>439.0</ele><time>2026-04-06T12:04:07.01Z</time></trkpt><trkpt lat="43.9122231" lon="12.0856268"><ele>437.66666666666663</ele><time>2026-04-06T12:04:08.008Z</time></trkpt><trkpt lat="43.9122346" lon="12.0857496"><ele>436.3333333333333</ele><time>2026-04-06T12:04:09.008Z</time></trkpt><trkpt lat="43.9122328" lon="12.0858742"><ele>435.0</ele><time>2026-04-06T12:04:10.008Z</time></trkpt><trkpt lat="43.9122174" lon="12.085982"><ele>434.2</ele><time>2026-04-06T12:04:11.007Z</time></trkpt><trkpt lat="43.9121775" lon="12.086082"><ele>433.4</ele><time>2026-04-06T12:04:12.007Z</time></trkpt><trkpt lat="43.9121267" lon="12.0861853"><ele>432.6</ele><time>2026-04-06T12:04:13.008Z</time></trkpt><trkpt lat="43.9120845" lon="12.0863014"><ele>431.8</ele><time>2026-04-06T12:04:14.009Z</time></trkpt><trkpt lat="43.9120603" lon="12.0864322"><ele>431.0</ele><time>2026-04-06T12:04:15.009Z</time></trkpt><trkpt lat="43.9120295" lon="12.0865759"><ele>431.6</ele><time>2026-04-06T12:04:16.009Z</time></trkpt><trkpt lat="43.9120003" lon="12.0867184"><ele>432.20000000000005</ele><time>2026-04-06T12:04:17.009Z</time></trkpt><trkpt lat="43.9119756" lon="12.0868605"><ele>432.79999999999995</ele><time>2026-04-06T12:04:18.012Z</time></trkpt><trkpt lat="43.9119534" lon="12.0870038"><ele>433.4</ele><time>2026-04-06T12:04:19.008Z</time></trkpt><trkpt lat="43.9119318" lon="12.0871407"><ele>434.0</ele><time>2026-04-06T12:04:20.007Z</time></trkpt><trkpt lat="43.9119143" lon="12.0872631"><ele>433.99999999999994</ele><time>2026-04-06T12:04:21.009Z</time></trkpt><trkpt lat="43.9118995" lon="12.0873818"><ele>434.0</ele><time>2026-04-06T12:04:22.009Z</time></trkpt><trkpt lat="43.9118961" lon="12.0874958"><ele>434.0</ele><time>2026-04-06T12:04:23.009Z</time></trkpt><trkpt lat="43.9119095" lon="12.0875995"><ele>434.0</ele><time>2026-04-06T12:04:24.01Z</time></trkpt><trkpt lat="43.9119391" lon="12.0876867"><ele>433.99999999999994</ele><time>2026-04-06T12:04:25.009Z</time></trkpt><trkpt lat="43.9119804" lon="12.087759"><ele>434.0</ele><time>2026-04-06T12:04:26.008Z</time></trkpt><trkpt lat="43.9120851" lon="12.0877888"><ele>437.0</ele><time>2026-04-06T12:04:27.009Z</time></trkpt><trkpt lat="43.9121983" lon="12.0878023"><ele>440.0</ele><time>2026-04-06T12:04:28.007Z</time></trkpt><trkpt lat="43.9123134" lon="12.0878004"><ele>443.0</ele><time>2026-04-06T12:04:29.01Z</time></trkpt><trkpt lat="43.9124435" lon="12.0877863"><ele>446.0</ele><time>2026-04-06T12:04:30.008Z</time></trkpt><trkpt lat="43.9125659" lon="12.0877756"><ele>441.99999999999994</ele><time>2026-04-06T12:04:31.008Z</time></trkpt><trkpt lat="43.9126637" lon="12.087773"><ele>438.0</ele><time>2026-04-06T12:04:32.008Z</time></trkpt><trkpt lat="43.9127582" lon="12.0877807"><ele>434.0</ele><time>2026-04-06T12:04:33.009Z</time></trkpt><trkpt lat="43.9128323" lon="12.0878152"><ele>430.0</ele><time>2026-04-06T12:04:34.01Z</time></trkpt><trkpt lat="43.9128992" lon="12.0878636"><ele>425.99999999999994</ele><time>2026-04-06T12:04:35.007Z</time></trkpt><trkpt lat="43.9129515" lon="12.0879283"><ele>422.0</ele><time>2026-04-06T12:04:36.008Z</time></trkpt><trkpt lat="43.9129836" lon="12.0880083"><ele>421.99999999999994</ele><time>2026-04-06T12:04:37.008Z</time></trkpt><trkpt lat="43.9130038" lon="12.0881019"><ele>422.0</ele><time>2026-04-06T12:04:38.011Z</time></trkpt><trkpt lat="43.9130103" lon="12.0882048"><ele>422.0</ele><time>2026-04-06T12:04:39.007Z</time></trkpt><trkpt lat="43.9130095" lon="12.0883268"><ele>422.0</ele><time>2026-04-06T12:04:40.008Z</time></trkpt><trkpt lat="43.9130173" lon="12.088457"><ele>421.99999999999994</ele><time>2026-04-06T12:04:41.008Z</time></trkpt><trkpt lat="43.9130595" lon="12.0885978"><ele>422.0</ele><time>2026-04-06T12:04:42.008Z</time></trkpt><trkpt lat="43.9131068" lon="12.0887405"><ele>426.5</ele><time>2026-04-06T12:04:43.009Z</time></trkpt><trkpt lat="43.9131377" lon="12.0888891"><ele>431.0</ele><time>2026-04-06T12:04:44.008Z</time></trkpt><trkpt lat="43.9131594" lon="12.0890476"><ele>435.5</ele><time>2026-04-06T12:04:45.008Z</time></trkpt><trkpt lat="43.9131711" lon="12.0892188"><ele>440.0</ele><time>2026-04-06T12:04:46.009Z</time></trkpt><trkpt lat="43.9131529" lon="12.0893971"><ele>440.0</ele><time>2026-04-06T12:04:47.008Z</time></trkpt><trkpt lat="43.9131239" lon="12.0895716"><ele>440.0</ele><time>2026-04-06T12:04:48.013Z</time></trkpt><trkpt lat="43.9130991" lon="12.0897362"><ele>440.0</ele><time>2026-04-06T12:04:49.009Z</time></trkpt><trkpt lat="43.9130802" lon="12.0898857"><ele>440.0</ele><time>2026-04-06T12:04:50.008Z</time></trkpt><trkpt lat="43.9130762" lon="12.0900254"><ele>440.0</ele><time>2026-04-06T12:04:51.008Z</time></trkpt><trkpt lat="43.9130885" lon="12.0901568"><ele>440.0</ele><time>2026-04-06T12:04:52.009Z</time></trkpt><trkpt lat="43.9131062" lon="12.0902795"><ele>440.0</ele><time>2026-04-06T12:04:53.008Z</time></trkpt><trkpt lat="43.9131114" lon="12.0904079"><ele>440.0</ele><time>2026-04-06T12:04:54.008Z</time></trkpt><trkpt lat="43.9131064" lon="12.0905443"><ele>440.0</ele><time>2026-04-06T12:04:55.008Z</time></trkpt><trkpt lat="43.9130934" lon="12.090687"><ele>438.4</ele><time>2026-04-06T12:04:56.008Z</time></trkpt><trkpt lat="43.9130709" lon="12.090831"><ele>436.8</ele><time>2026-04-06T12:04:57.008Z</time></trkpt><trkpt lat="43.9130381" lon="12.0909722"><ele>435.20000000000005</ele><time>2026-04-06T12:04:58.009Z</time></trkpt><trkpt lat="43.9129946" lon="12.0911122"><ele>433.6</ele><time>2026-04-06T12:04:59.005Z</time></trkpt><trkpt lat="43.9129435" lon="12.0912427"><ele>432.0</ele><time>2026-04-06T12:05:00.008Z</time></trkpt><trkpt lat="43.912884" lon="12.0913513"><ele>432.0</ele><time>2026-04-06T12:05:01.008Z</time></trkpt><trkpt lat="43.9128243" lon="12.0914485"><ele>432.0</ele><time>2026-04-06T12:05:02.009Z</time></trkpt><trkpt lat="43.9127556" lon="12.0915315"><ele>432.0</ele><time>2026-04-06T12:05:03.006Z</time></trkpt><trkpt lat="43.9127149" lon="12.0916118"><ele>432.0</ele><time>2026-04-06T12:05:04.007Z</time></trkpt><trkpt lat="43.912684" lon="12.0916912"><ele>432.0</ele><time>2026-04-06T12:05:05.008Z</time></trkpt><trkpt lat="43.9126878" lon="12.0918579"><ele>432.0</ele><time>2026-04-06T12:05:07.007Z</time></trkpt><trkpt lat="43.9127182" lon="12.0919376"><ele>430.1666666666667</ele><time>2026-04-06T12:05:08.011Z</time></trkpt><trkpt lat="43.9127845" lon="12.0920069"><ele>428.33333333333337</ele><time>2026-04-06T12:05:09.009Z</time></trkpt><trkpt lat="43.9128502" lon="12.0920804"><ele>426.5</ele><time>2026-04-06T12:05:10.006Z</time></trkpt><trkpt lat="43.9129028" lon="12.0921743"><ele>424.6666666666667</ele><time>2026-04-06T12:05:11.008Z</time></trkpt><trkpt lat="43.9129407" lon="12.0922925"><ele>422.83333333333337</ele><time>2026-04-06T12:05:12.008Z</time></trkpt><trkpt lat="43.912973" lon="12.0924228"><ele>421.0</ele><time>2026-04-06T12:05:13.008Z</time></trkpt><trkpt lat="43.9129914" lon="12.0925616"><ele>420.50000000000006</ele><time>2026-04-06T12:05:14.019Z</time></trkpt><trkpt lat="43.912984" lon="12.0926932"><ele>420.0</ele><time>2026-04-06T12:05:15.009Z</time></trkpt><trkpt lat="43.9129594" lon="12.0928142"><ele>419.5</ele><time>2026-04-06T12:05:16.006Z</time></trkpt><trkpt lat="43.9129243" lon="12.0929244"><ele>419.0</ele><time>2026-04-06T12:05:17.008Z</time></trkpt><trkpt lat="43.912883" lon="12.0930254"><ele>418.50000000000006</ele><time>2026-04-06T12:05:18.008Z</time></trkpt><trkpt lat="43.9128466" lon="12.0931167"><ele>418.0</ele><time>2026-04-06T12:05:19.012Z</time></trkpt><trkpt lat="43.9128439" lon="12.0932927"><ele>417.00000000000006</ele><time>2026-04-06T12:05:21.007Z</time></trkpt><trkpt lat="43.9128763" lon="12.0933975"><ele>416.0</ele><time>2026-04-06T12:05:22.008Z</time></trkpt><trkpt lat="43.9129368" lon="12.0934983"><ele>415.0</ele><time>2026-04-06T12:05:23.007Z</time></trkpt><trkpt lat="43.9129779" lon="12.0936104"><ele>414.0</ele><time>2026-04-06T12:05:24.007Z</time></trkpt><trkpt lat="43.9130142" lon="12.0937215"><ele>413.00000000000006</ele><time>2026-04-06T12:05:25.008Z</time></trkpt><trkpt lat="43.9130459" lon="12.0938442"><ele>412.0</ele><time>2026-04-06T12:05:26.009Z</time></trkpt><trkpt lat="43.9130587" lon="12.0940058"><ele>413.0</ele><time>2026-04-06T12:05:27.007Z</time></trkpt><trkpt lat="43.913068" lon="12.0942021"><ele>414.0</ele><time>2026-04-06T12:05:28.007Z</time></trkpt><trkpt lat="43.9130972" lon="12.0943892"><ele>415.0</ele><time>2026-04-06T12:05:29.009Z</time></trkpt><trkpt lat="43.9131105" lon="12.0945652"><ele>416.0</ele><time>2026-04-06T12:05:30.006Z</time></trkpt><trkpt lat="43.9131297" lon="12.0947173"><ele>416.0</ele><time>2026-04-06T12:05:31.008Z</time></trkpt><trkpt lat="43.9131337" lon="12.0948644"><ele>416.0</ele><time>2026-04-06T12:05:32.007Z</time></trkpt><trkpt lat="43.9131324" lon="12.0950107"><ele>416.0</ele><time>2026-04-06T12:05:33.008Z</time></trkpt><trkpt lat="43.9131227" lon="12.0951461"><ele>416.0</ele><time>2026-04-06T12:05:34.008Z</time></trkpt><trkpt lat="43.9131039" lon="12.0952655"><ele>416.0</ele><time>2026-04-06T12:05:35.008Z</time></trkpt><trkpt lat="43.913066" lon="12.0953693"><ele>415.3333333333333</ele><time>2026-04-06T12:05:36.007Z</time></trkpt><trkpt lat="43.913016" lon="12.0954618"><ele>414.66666666666663</ele><time>2026-04-06T12:05:37.006Z</time></trkpt><trkpt lat="43.9129461" lon="12.095537"><ele>414.0</ele><time>2026-04-06T12:05:38.009Z</time></trkpt><trkpt lat="43.9128725" lon="12.0955974"><ele>413.33333333333337</ele><time>2026-04-06T12:05:39.008Z</time></trkpt><trkpt lat="43.9127978" lon="12.0956387"><ele>412.6666666666667</ele><time>2026-04-06T12:05:40.009Z</time></trkpt><trkpt lat="43.9127204" lon="12.0956558"><ele>412.0</ele><time>2026-04-06T12:05:41.008Z</time></trkpt><trkpt lat="43.91265" lon="12.0956658"><ele>411.99999999999994</ele><time>2026-04-06T12:05:42.01Z</time></trkpt><trkpt lat="43.9125843" lon="12.0956889"><ele>412.0</ele><time>2026-04-06T12:05:43.009Z</time></trkpt><trkpt lat="43.9125253" lon="12.0957369"><ele>412.0</ele><time>2026-04-06T12:05:44.009Z</time></trkpt><trkpt lat="43.9124777" lon="12.095802"><ele>412.0</ele><time>2026-04-06T12:05:45.011Z</time></trkpt><trkpt lat="43.9124557" lon="12.0958856"><ele>412.0</ele><time>2026-04-06T12:05:46.009Z</time></trkpt><trkpt lat="43.9124494" lon="12.0959914"><ele>411.99999999999994</ele><time>2026-04-06T12:05:47.008Z</time></trkpt><trkpt lat="43.9124955" lon="12.096104"><ele>412.0</ele><time>2026-04-06T12:05:48.009Z</time></trkpt><trkpt lat="43.9125491" lon="12.0961953"><ele>411.83333333333337</ele><time>2026-04-06T12:05:49.008Z</time></trkpt><trkpt lat="43.9125827" lon="12.0962849"><ele>411.6666666666667</ele><time>2026-04-06T12:05:50.007Z</time></trkpt><trkpt lat="43.9125964" lon="12.0963749"><ele>411.5</ele><time>2026-04-06T12:05:51.008Z</time></trkpt><trkpt lat="43.9125927" lon="12.0964721"><ele>411.33333333333337</ele><time>2026-04-06T12:05:52.009Z</time></trkpt><trkpt lat="43.9125689" lon="12.0965806"><ele>411.1666666666667</ele><time>2026-04-06T12:05:53.008Z</time></trkpt><trkpt lat="43.9125291" lon="12.0967095"><ele>411.0</ele><time>2026-04-06T12:05:54.008Z</time></trkpt><trkpt lat="43.9124619" lon="12.0968476"><ele>411.0</ele><time>2026-04-06T12:05:55.009Z</time></trkpt><trkpt lat="43.9123864" lon="12.096981"><ele>411.0</ele><time>2026-04-06T12:05:56.008Z</time></trkpt><trkpt lat="43.912311" lon="12.097116"><ele>411.0</ele><time>2026-04-06T12:05:57.01Z</time></trkpt><trkpt lat="43.9122402" lon="12.097253"><ele>411.0</ele><time>2026-04-06T12:05:58.008Z</time></trkpt><trkpt lat="43.9121696" lon="12.0973849"><ele>405.20000000000005</ele><time>2026-04-06T12:05:59.009Z</time></trkpt><trkpt lat="43.9121133" lon="12.0975119"><ele>399.40000000000003</ele><time>2026-04-06T12:06:00.008Z</time></trkpt><trkpt lat="43.9120688" lon="12.0976298"><ele>393.6</ele><time>2026-04-06T12:06:01.007Z</time></trkpt><trkpt lat="43.9120296" lon="12.0977388"><ele>387.8</ele><time>2026-04-06T12:06:02.008Z</time></trkpt><trkpt lat="43.9119889" lon="12.0978489"><ele>382.0</ele><time>2026-04-06T12:06:03.007Z</time></trkpt><trkpt lat="43.9119468" lon="12.0979673"><ele>382.0</ele><time>2026-04-06T12:06:04.008Z</time></trkpt><trkpt lat="43.9118998" lon="12.0980892"><ele>382.0</ele><time>2026-04-06T12:06:05.007Z</time></trkpt><trkpt lat="43.9118538" lon="12.0981967"><ele>382.0</ele><time>2026-04-06T12:06:06.006Z</time></trkpt><trkpt lat="43.9117965" lon="12.0982883"><ele>382.0</ele><time>2026-04-06T12:06:07.007Z</time></trkpt><trkpt lat="43.9117329" lon="12.0983689"><ele>382.0</ele><time>2026-04-06T12:06:08.006Z</time></trkpt><trkpt lat="43.911648" lon="12.0984503"><ele>387.0</ele><time>2026-04-06T12:06:09.008Z</time></trkpt><trkpt lat="43.9115331" lon="12.0985553"><ele>392.0</ele><time>2026-04-06T12:06:10.006Z</time></trkpt><trkpt lat="43.9114125" lon="12.0986739"><ele>397.0</ele><time>2026-04-06T12:06:11.007Z</time></trkpt><trkpt lat="43.9112947" lon="12.0987984"><ele>402.0</ele><time>2026-04-06T12:06:12.009Z</time></trkpt><trkpt lat="43.9111956" lon="12.0989291"><ele>402.0</ele><time>2026-04-06T12:06:13.007Z</time></trkpt><trkpt lat="43.9111102" lon="12.0990559"><ele>402.0</ele><time>2026-04-06T12:06:14.008Z</time></trkpt><trkpt lat="43.9110329" lon="12.0992016"><ele>402.0</ele><time>2026-04-06T12:06:15.01Z</time></trkpt><trkpt lat="43.9109707" lon="12.0993665"><ele>402.0</ele><time>2026-04-06T12:06:16.006Z</time></trkpt><trkpt lat="43.9109237" lon="12.0995361"><ele>404.6</ele><time>2026-04-06T12:06:17.009Z</time></trkpt><trkpt lat="43.910886" lon="12.0996953"><ele>407.20000000000005</ele><time>2026-04-06T12:06:18.009Z</time></trkpt><trkpt lat="43.9108455" lon="12.0998362"><ele>409.8</ele><time>2026-04-06T12:06:19.007Z</time></trkpt><trkpt lat="43.9108055" lon="12.0999471"><ele>412.4</ele><time>2026-04-06T12:06:20.008Z</time></trkpt><trkpt lat="43.910769" lon="12.100029"><ele>415.0</ele><time>2026-04-06T12:06:21.008Z</time></trkpt><trkpt lat="43.9106833" lon="12.100129"><ele>408.4</ele><time>2026-04-06T12:06:23.009Z</time></trkpt><trkpt lat="43.9105563" lon="12.1001355"><ele>401.8</ele><time>2026-04-06T12:06:25.009Z</time></trkpt><trkpt lat="43.9104843" lon="12.1001251"><ele>395.20000000000005</ele><time>2026-04-06T12:06:26.007Z</time></trkpt><trkpt lat="43.9103987" lon="12.1001294"><ele>388.6</ele><time>2026-04-06T12:06:27.008Z</time></trkpt><trkpt lat="43.910308" lon="12.1001483"><ele>382.0</ele><time>2026-04-06T12:06:28.008Z</time></trkpt><trkpt lat="43.9102129" lon="12.10019"><ele>382.0</ele><time>2026-04-06T12:06:29.007Z</time></trkpt><trkpt lat="43.9101173" lon="12.1002581"><ele>382.0</ele><time>2026-04-06T12:06:30.008Z</time></trkpt><trkpt lat="43.9100389" lon="12.1003212"><ele>382.0</ele><time>2026-04-06T12:06:31.008Z</time></trkpt><trkpt lat="43.9099716" lon="12.1003853"><ele>382.0</ele><time>2026-04-06T12:06:32.008Z</time></trkpt><trkpt lat="43.9099217" lon="12.1004576"><ele>382.0</ele><time>2026-04-06T12:06:33.012Z</time></trkpt><trkpt lat="43.9098803" lon="12.1005378"><ele>382.0</ele><time>2026-04-06T12:06:34.008Z</time></trkpt><trkpt lat="43.9098583" lon="12.1006276"><ele>382.3333333333333</ele><time>2026-04-06T12:06:35.008Z</time></trkpt><trkpt lat="43.9098392" lon="12.1007382"><ele>382.66666666666663</ele><time>2026-04-06T12:06:36.008Z</time></trkpt><trkpt lat="43.9098333" lon="12.1008575"><ele>383.0</ele><time>2026-04-06T12:06:37.009Z</time></trkpt><trkpt lat="43.909849" lon="12.1009854"><ele>383.3333333333333</ele><time>2026-04-06T12:06:38.008Z</time></trkpt><trkpt lat="43.9098849" lon="12.1011006"><ele>383.6666666666667</ele><time>2026-04-06T12:06:39.008Z</time></trkpt><trkpt lat="43.9099144" lon="12.1012032"><ele>384.0</ele><time>2026-04-06T12:06:40.01Z</time></trkpt><trkpt lat="43.9099346" lon="12.1012924"><ele>384.0</ele><time>2026-04-06T12:06:41.012Z</time></trkpt><trkpt lat="43.9099341" lon="12.1014485"><ele>384.0</ele><time>2026-04-06T12:06:43.007Z</time></trkpt><trkpt lat="43.9098399" lon="12.1015374"><ele>384.0</ele><time>2026-04-06T12:06:45.008Z</time></trkpt><trkpt lat="43.9097627" lon="12.1015674"><ele>384.0</ele><time>2026-04-06T12:06:46.01Z</time></trkpt><trkpt lat="43.9096884" lon="12.1016005"><ele>384.0</ele><time>2026-04-06T12:06:47.009Z</time></trkpt><trkpt lat="43.9096168" lon="12.1016429"><ele>380.6666666666667</ele><time>2026-04-06T12:06:48.007Z</time></trkpt><trkpt lat="43.9095394" lon="12.1016944"><ele>377.3333333333333</ele><time>2026-04-06T12:06:49.008Z</time></trkpt><trkpt lat="43.9094664" lon="12.1017555"><ele>374.0</ele><time>2026-04-06T12:06:50.005Z</time></trkpt><trkpt lat="43.9094016" lon="12.1018212"><ele>370.66666666666663</ele><time>2026-04-06T12:06:51.009Z</time></trkpt><trkpt lat="43.9093464" lon="12.101887"><ele>367.3333333333333</ele><time>2026-04-06T12:06:52.008Z</time></trkpt><trkpt lat="43.9092973" lon="12.1019502"><ele>364.0</ele><time>2026-04-06T12:06:53.007Z</time></trkpt><trkpt lat="43.9092513" lon="12.1020125"><ele>368.8333333333333</ele><time>2026-04-06T12:06:54.008Z</time></trkpt><trkpt lat="43.9091483" lon="12.1020997"><ele>373.66666666666663</ele><time>2026-04-06T12:06:56.009Z</time></trkpt><trkpt lat="43.9090327" lon="12.1020791"><ele>378.5</ele><time>2026-04-06T12:06:58.007Z</time></trkpt><trkpt lat="43.9089741" lon="12.1020349"><ele>383.3333333333333</ele><time>2026-04-06T12:06:59.005Z</time></trkpt><trkpt lat="43.9089115" lon="12.1019837"><ele>388.1666666666667</ele><time>2026-04-06T12:07:00.007Z</time></trkpt><trkpt lat="43.9088492" lon="12.1019388"><ele>393.0</ele><time>2026-04-06T12:07:01.007Z</time></trkpt><trkpt lat="43.908781" lon="12.1019176"><ele>393.0</ele><time>2026-04-06T12:07:02.005Z</time></trkpt><trkpt lat="43.9087082" lon="12.1019081"><ele>393.0</ele><time>2026-04-06T12:07:03.006Z</time></trkpt><trkpt lat="43.9086379" lon="12.1019215"><ele>393.0</ele><time>2026-04-06T12:07:04.008Z</time></trkpt><trkpt lat="43.9085752" lon="12.101959"><ele>393.0</ele><time>2026-04-06T12:07:05.008Z</time></trkpt><trkpt lat="43.9085251" lon="12.1020345"><ele>393.0</ele><time>2026-04-06T12:07:06.007Z</time></trkpt><trkpt lat="43.9085045" lon="12.102184"><ele>393.0</ele><time>2026-04-06T12:07:07.007Z</time></trkpt><trkpt lat="43.9084907" lon="12.1023359"><ele>388.1666666666667</ele><time>2026-04-06T12:07:08.006Z</time></trkpt><trkpt lat="43.908478" lon="12.1024716"><ele>383.3333333333333</ele><time>2026-04-06T12:07:09.012Z</time></trkpt><trkpt lat="43.9084608" lon="12.1025905"><ele>378.5</ele><time>2026-04-06T12:07:10.006Z</time></trkpt><trkpt lat="43.9084342" lon="12.1026859"><ele>373.66666666666663</ele><time>2026-04-06T12:07:11.007Z</time></trkpt><trkpt lat="43.9083949" lon="12.1027572"><ele>368.8333333333333</ele><time>2026-04-06T12:07:12.008Z</time></trkpt><trkpt lat="43.908299" lon="12.1028019"><ele>364.0</ele><time>2026-04-06T12:07:14.011Z</time></trkpt><trkpt lat="43.9082175" lon="12.1027114"><ele>364.0</ele><time>2026-04-06T12:07:16.007Z</time></trkpt><trkpt lat="43.9081832" lon="12.10263"><ele>364.0</ele><time>2026-04-06T12:07:17.005Z</time></trkpt><trkpt lat="43.9081322" lon="12.1025168"><ele>364.0</ele><time>2026-04-06T12:07:18.006Z</time></trkpt><trkpt lat="43.9080659" lon="12.1024073"><ele>364.0</ele><time>2026-04-06T12:07:19.009Z</time></trkpt><trkpt lat="43.9079846" lon="12.1023087"><ele>364.0</ele><time>2026-04-06T12:07:20.007Z</time></trkpt><trkpt lat="43.9079041" lon="12.1022279"><ele>367.66666666666663</ele><time>2026-04-06T12:07:21.008Z</time></trkpt><trkpt lat="43.9078329" lon="12.1021709"><ele>371.3333333333333</ele><time>2026-04-06T12:07:22.007Z</time></trkpt><trkpt lat="43.9077601" lon="12.1021283"><ele>375.0</ele><time>2026-04-06T12:07:23.005Z</time></trkpt><trkpt lat="43.9076871" lon="12.1021272"><ele>378.66666666666663</ele><time>2026-04-06T12:07:24.007Z</time></trkpt><trkpt lat="43.9076217" lon="12.1021679"><ele>382.3333333333333</ele><time>2026-04-06T12:07:25.008Z</time></trkpt><trkpt lat="43.9075614" lon="12.1022396"><ele>386.0</ele><time>2026-04-06T12:07:26.007Z</time></trkpt><trkpt lat="43.9075159" lon="12.1023552"><ele>381.5</ele><time>2026-04-06T12:07:27.007Z</time></trkpt><trkpt lat="43.907476" lon="12.1024978"><ele>377.0</ele><time>2026-04-06T12:07:28.007Z</time></trkpt><trkpt lat="43.907452" lon="12.1026589"><ele>372.5</ele><time>2026-04-06T12:07:29.008Z</time></trkpt><trkpt lat="43.9074482" lon="12.1028313"><ele>368.0</ele><time>2026-04-06T12:07:30.006Z</time></trkpt><trkpt lat="43.9074588" lon="12.1030087"><ele>368.0</ele><time>2026-04-06T12:07:31.008Z</time></trkpt><trkpt lat="43.9074767" lon="12.103187"><ele>368.0</ele><time>2026-04-06T12:07:32.006Z</time></trkpt><trkpt lat="43.9074928" lon="12.103358"><ele>368.0</ele><time>2026-04-06T12:07:33.008Z</time></trkpt><trkpt lat="43.9074974" lon="12.103505"><ele>368.0</ele><time>2026-04-06T12:07:34.008Z</time></trkpt><trkpt lat="43.9074911" lon="12.1036231"><ele>368.0</ele><time>2026-04-06T12:07:35.005Z</time></trkpt><trkpt lat="43.9074787" lon="12.1037331"><ele>365.79999999999995</ele><time>2026-04-06T12:07:36.007Z</time></trkpt><trkpt lat="43.9074543" lon="12.1038252"><ele>363.6</ele><time>2026-04-06T12:07:37.009Z</time></trkpt><trkpt lat="43.9074166" lon="12.103899"><ele>361.4</ele><time>2026-04-06T12:07:38.014Z</time></trkpt><trkpt lat="43.9072775" lon="12.1039585"><ele>359.20000000000005</ele><time>2026-04-06T12:07:40.007Z</time></trkpt><trkpt lat="43.907167" lon="12.1039737"><ele>357.0</ele><time>2026-04-06T12:07:41.006Z</time></trkpt><trkpt lat="43.9070578" lon="12.1040036"><ele>357.0</ele><time>2026-04-06T12:07:42.009Z</time></trkpt><trkpt lat="43.9069591" lon="12.104053"><ele>357.0</ele><time>2026-04-06T12:07:43.007Z</time></trkpt><trkpt lat="43.90687" lon="12.1041283"><ele>357.0</ele><time>2026-04-06T12:07:44.007Z</time></trkpt><trkpt lat="43.9067906" lon="12.1042207"><ele>357.0</ele><time>2026-04-06T12:07:45.009Z</time></trkpt><trkpt lat="43.9067219" lon="12.1043097"><ele>357.0</ele><time>2026-04-06T12:07:46.005Z</time></trkpt><trkpt lat="43.9066623" lon="12.1043902"><ele>356.42857142857144</ele><time>2026-04-06T12:07:47.011Z</time></trkpt><trkpt lat="43.9066066" lon="12.104455"><ele>355.8571428571429</ele><time>2026-04-06T12:07:48.006Z</time></trkpt><trkpt lat="43.9065489" lon="12.1044953"><ele>355.2857142857143</ele><time>2026-04-06T12:07:49.008Z</time></trkpt><trkpt lat="43.9064851" lon="12.1045113"><ele>354.7142857142857</ele><time>2026-04-06T12:07:50.006Z</time></trkpt><trkpt lat="43.906418" lon="12.1045059"><ele>354.14285714285717</ele><time>2026-04-06T12:07:51.007Z</time></trkpt><trkpt lat="43.9063428" lon="12.1044837"><ele>353.57142857142856</ele><time>2026-04-06T12:07:52.007Z</time></trkpt><trkpt lat="43.9062623" lon="12.1044602"><ele>353.0</ele><time>2026-04-06T12:07:53.007Z</time></trkpt><trkpt lat="43.9061798" lon="12.1044523"><ele>353.0</ele><time>2026-04-06T12:07:54.008Z</time></trkpt><trkpt lat="43.9061" lon="12.1044722"><ele>353.0</ele><time>2026-04-06T12:07:55.008Z</time></trkpt><trkpt lat="43.9060243" lon="12.1045124"><ele>353.0</ele><time>2026-04-06T12:07:56.01Z</time></trkpt><trkpt lat="43.9059512" lon="12.1045476"><ele>353.0</ele><time>2026-04-06T12:07:57.009Z</time></trkpt><trkpt lat="43.905878" lon="12.1045694"><ele>353.0</ele><time>2026-04-06T12:07:58.009Z</time></trkpt><trkpt lat="43.9058017" lon="12.1045711"><ele>353.0</ele><time>2026-04-06T12:07:59.011Z</time></trkpt><trkpt lat="43.9057222" lon="12.1045687"><ele>354.0</ele><time>2026-04-06T12:08:00.008Z</time></trkpt><trkpt lat="43.9056393" lon="12.1045777"><ele>355.0</ele><time>2026-04-06T12:08:01.008Z</time></trkpt><trkpt lat="43.905557" lon="12.1045971"><ele>356.0</ele><time>2026-04-06T12:08:02.007Z</time></trkpt><trkpt lat="43.9054698" lon="12.1046227"><ele>357.0</ele><time>2026-04-06T12:08:03.009Z</time></trkpt><trkpt lat="43.9053774" lon="12.1046524"><ele>358.0</ele><time>2026-04-06T12:08:04.007Z</time></trkpt><trkpt lat="43.9052891" lon="12.1046999"><ele>359.0</ele><time>2026-04-06T12:08:05.008Z</time></trkpt><trkpt lat="43.9052011" lon="12.1047719"><ele>359.0</ele><time>2026-04-06T12:08:06.01Z</time></trkpt><trkpt lat="43.9051144" lon="12.1048577"><ele>359.0</ele><time>2026-04-06T12:08:07.008Z</time></trkpt><trkpt lat="43.9050274" lon="12.1049573"><ele>359.0</ele><time>2026-04-06T12:08:08.008Z</time></trkpt><trkpt lat="43.9049513" lon="12.1050639"><ele>359.0</ele><time>2026-04-06T12:08:09.008Z</time></trkpt><trkpt lat="43.9048917" lon="12.1051653"><ele>359.0</ele><time>2026-04-06T12:08:10.008Z</time></trkpt><trkpt lat="43.9048394" lon="12.1052517"><ele>354.1666666666667</ele><time>2026-04-06T12:08:11.008Z</time></trkpt><trkpt lat="43.9047863" lon="12.1053207"><ele>349.33333333333337</ele><time>2026-04-06T12:08:12.013Z</time></trkpt><trkpt lat="43.9047216" lon="12.1053704"><ele>344.5</ele><time>2026-04-06T12:08:13.009Z</time></trkpt><trkpt lat="43.9046453" lon="12.1054072"><ele>339.6666666666667</ele><time>2026-04-06T12:08:14.007Z</time></trkpt><trkpt lat="43.9045577" lon="12.1054304"><ele>334.8333333333333</ele><time>2026-04-06T12:08:15.01Z</time></trkpt><trkpt lat="43.9044581" lon="12.1054382"><ele>330.0</ele><time>2026-04-06T12:08:16.008Z</time></trkpt><trkpt lat="43.9043585" lon="12.1054423"><ele>330.0</ele><time>2026-04-06T12:08:17.01Z</time></trkpt><trkpt lat="43.9042625" lon="12.1054472"><ele>330.0</ele><time>2026-04-06T12:08:18.009Z</time></trkpt><trkpt lat="43.9041703" lon="12.1054532"><ele>330.0</ele><time>2026-04-06T12:08:19.008Z</time></trkpt><trkpt lat="43.9040818" lon="12.1054643"><ele>330.0</ele><time>2026-04-06T12:08:20.008Z</time></trkpt><trkpt lat="43.9039939" lon="12.1054935"><ele>330.0</ele><time>2026-04-06T12:08:21.008Z</time></trkpt><trkpt lat="43.9039095" lon="12.105554"><ele>333.2</ele><time>2026-04-06T12:08:22.01Z</time></trkpt><trkpt lat="43.9038277" lon="12.1056367"><ele>336.4</ele><time>2026-04-06T12:08:23.009Z</time></trkpt><trkpt lat="43.9037508" lon="12.1057387"><ele>339.6</ele><time>2026-04-06T12:08:24.009Z</time></trkpt><trkpt lat="43.9036833" lon="12.105849"><ele>342.8</ele><time>2026-04-06T12:08:25.009Z</time></trkpt><trkpt lat="43.9036182" lon="12.1059548"><ele>346.0</ele><time>2026-04-06T12:08:26.012Z</time></trkpt><trkpt lat="43.9035533" lon="12.1060383"><ele>341.0</ele><time>2026-04-06T12:08:27.01Z</time></trkpt><trkpt lat="43.9034767" lon="12.1061"><ele>336.0</ele><time>2026-04-06T12:08:28.007Z</time></trkpt><trkpt lat="43.9033933" lon="12.106145"><ele>331.0</ele><time>2026-04-06T12:08:29.007Z</time></trkpt><trkpt lat="43.9032983" lon="12.106175"><ele>326.0</ele><time>2026-04-06T12:08:30.007Z</time></trkpt><trkpt lat="43.9031967" lon="12.1062033"><ele>321.0</ele><time>2026-04-06T12:08:31.008Z</time></trkpt><trkpt lat="43.9030983" lon="12.1062333"><ele>321.0</ele><time>2026-04-06T12:08:32.01Z</time></trkpt><trkpt lat="43.90301" lon="12.1062683"><ele>321.0</ele><time>2026-04-06T12:08:33.009Z</time></trkpt><trkpt lat="43.9029167" lon="12.1063083"><ele>321.0</ele><time>2026-04-06T12:08:34.007Z</time></trkpt><trkpt lat="43.9028383" lon="12.1063317"><ele>321.0</ele><time>2026-04-06T12:08:35.007Z</time></trkpt><trkpt lat="43.9027517" lon="12.1063967"><ele>321.0</ele><time>2026-04-06T12:08:36.008Z</time></trkpt><trkpt lat="43.90267" lon="12.1064917"><ele>318.0</ele><time>2026-04-06T12:08:37.009Z</time></trkpt><trkpt lat="43.902595" lon="12.1066017"><ele>315.0</ele><time>2026-04-06T12:08:38.008Z</time></trkpt><trkpt lat="43.9025283" lon="12.1067267"><ele>312.0</ele><time>2026-04-06T12:08:39.01Z</time></trkpt><trkpt lat="43.9024733" lon="12.1068583"><ele>309.0</ele><time>2026-04-06T12:08:40.008Z</time></trkpt><trkpt lat="43.9024283" lon="12.10698"><ele>306.0</ele><time>2026-04-06T12:08:41.011Z</time></trkpt><trkpt lat="43.90237" lon="12.1070867"><ele>306.0</ele><time>2026-04-06T12:08:42.008Z</time></trkpt><trkpt lat="43.9023017" lon="12.1071817"><ele>306.0</ele><time>2026-04-06T12:08:43.008Z</time></trkpt><trkpt lat="43.902225" lon="12.1072733"><ele>306.0</ele><time>2026-04-06T12:08:44.009Z</time></trkpt><trkpt lat="43.902155" lon="12.107365"><ele>306.0</ele><time>2026-04-06T12:08:45.01Z</time></trkpt><trkpt lat="43.902085" lon="12.10746"><ele>306.0</ele><time>2026-04-06T12:08:46.008Z</time></trkpt><trkpt lat="43.9020033" lon="12.10755"><ele>300.5</ele><time>2026-04-06T12:08:47.009Z</time></trkpt><trkpt lat="43.9019083" lon="12.1076517"><ele>295.0</ele><time>2026-04-06T12:08:48.009Z</time></trkpt><trkpt lat="43.90181" lon="12.1077467"><ele>289.5</ele><time>2026-04-06T12:08:49.007Z</time></trkpt><trkpt lat="43.9017183" lon="12.10784"><ele>284.0</ele><time>2026-04-06T12:08:50.009Z</time></trkpt><trkpt lat="43.9016233" lon="12.107935"><ele>284.0</ele><time>2026-04-06T12:08:51.009Z</time></trkpt><trkpt lat="43.9015283" lon="12.1080267"><ele>284.0</ele><time>2026-04-06T12:08:52.013Z</time></trkpt><trkpt lat="43.9014483" lon="12.1081183"><ele>284.0</ele><time>2026-04-06T12:08:53.008Z</time></trkpt><trkpt lat="43.901355" lon="12.1082133"><ele>284.0</ele><time>2026-04-06T12:08:54.008Z</time></trkpt><trkpt lat="43.9012717" lon="12.1083233"><ele>279.8</ele><time>2026-04-06T12:08:55.008Z</time></trkpt><trkpt lat="43.9012" lon="12.1084417"><ele>275.59999999999997</ele><time>2026-04-06T12:08:56.012Z</time></trkpt><trkpt lat="43.9011367" lon="12.10856"><ele>271.4</ele><time>2026-04-06T12:08:57.008Z</time></trkpt><trkpt lat="43.9010733" lon="12.108675"><ele>267.2</ele><time>2026-04-06T12:08:58.013Z</time></trkpt><trkpt lat="43.9010067" lon="12.1087817"><ele>263.0</ele><time>2026-04-06T12:08:59.007Z</time></trkpt><trkpt lat="43.9009533" lon="12.1088783"><ele>262.83333333333337</ele><time>2026-04-06T12:09:00.007Z</time></trkpt><trkpt lat="43.9009125" lon="12.1089743"><ele>262.6666666666667</ele><time>2026-04-06T12:09:01.009Z</time></trkpt><trkpt lat="43.9008887" lon="12.1090791"><ele>262.5</ele><time>2026-04-06T12:09:02.008Z</time></trkpt><trkpt lat="43.9008977" lon="12.1091851"><ele>262.3333333333333</ele><time>2026-04-06T12:09:03.009Z</time></trkpt><trkpt lat="43.9009297" lon="12.1092944"><ele>262.16666666666663</ele><time>2026-04-06T12:09:04.01Z</time></trkpt><trkpt lat="43.9009901" lon="12.1094111"><ele>262.0</ele><time>2026-04-06T12:09:05.01Z</time></trkpt><trkpt lat="43.9010394" lon="12.1095297"><ele>260.6</ele><time>2026-04-06T12:09:06.008Z</time></trkpt><trkpt lat="43.9010707" lon="12.1096437"><ele>259.2</ele><time>2026-04-06T12:09:07.007Z</time></trkpt><trkpt lat="43.9010893" lon="12.1097409"><ele>257.8</ele><time>2026-04-06T12:09:08.009Z</time></trkpt><trkpt lat="43.9010926" lon="12.1098606"><ele>256.4</ele><time>2026-04-06T12:09:10.008Z</time></trkpt><trkpt lat="43.9010731" lon="12.1099693"><ele>255.0</ele><time>2026-04-06T12:09:15.01Z</time></trkpt><trkpt lat="43.9011304" lon="12.1101472"><ele>254.75</ele><time>2026-04-06T12:09:17.013Z</time></trkpt><trkpt lat="43.9011972" lon="12.1102913"><ele>254.5</ele><time>2026-04-06T12:09:18.008Z</time></trkpt><trkpt lat="43.9012907" lon="12.1104637"><ele>254.25</ele><time>2026-04-06T12:09:19.008Z</time></trkpt><trkpt lat="43.9013735" lon="12.1106245"><ele>254.0</ele><time>2026-04-06T12:09:20.009Z</time></trkpt><trkpt lat="43.9014407" lon="12.1107668"><ele>255.0</ele><time>2026-04-06T12:09:21.008Z</time></trkpt><trkpt lat="43.901491" lon="12.1108998"><ele>255.99999999999997</ele><time>2026-04-06T12:09:22.01Z</time></trkpt><trkpt lat="43.9015137" lon="12.1110279"><ele>257.0</ele><time>2026-04-06T12:09:23.009Z</time></trkpt><trkpt lat="43.9015066" lon="12.1111565"><ele>258.0</ele><time>2026-04-06T12:09:24.007Z</time></trkpt><trkpt lat="43.9014772" lon="12.1112784"><ele>259.0</ele><time>2026-04-06T12:09:25.009Z</time></trkpt><trkpt lat="43.901425" lon="12.111407"><ele>259.0</ele><time>2026-04-06T12:09:26.007Z</time></trkpt><trkpt lat="43.9013792" lon="12.1115443"><ele>259.0</ele><time>2026-04-06T12:09:27.007Z</time></trkpt><trkpt lat="43.9013384" lon="12.1116868"><ele>259.0</ele><time>2026-04-06T12:09:28.006Z</time></trkpt><trkpt lat="43.9013086" lon="12.1118323"><ele>259.0</ele><time>2026-04-06T12:09:29.008Z</time></trkpt><trkpt lat="43.9013066" lon="12.1119788"><ele>259.0</ele><time>2026-04-06T12:09:30.009Z</time></trkpt><trkpt lat="43.9013305" lon="12.1121192"><ele>260.0</ele><time>2026-04-06T12:09:31.008Z</time></trkpt><trkpt lat="43.901375" lon="12.112241"><ele>261.0</ele><time>2026-04-06T12:09:32.007Z</time></trkpt><trkpt lat="43.9014348" lon="12.1123486"><ele>262.0</ele><time>2026-04-06T12:09:33.008Z</time></trkpt><trkpt lat="43.9014828" lon="12.1124595"><ele>263.0</ele><time>2026-04-06T12:09:34.009Z</time></trkpt><trkpt lat="43.9015346" lon="12.1125687"><ele>264.0</ele><time>2026-04-06T12:09:35.007Z</time></trkpt><trkpt lat="43.9015907" lon="12.1126739"><ele>264.0</ele><time>2026-04-06T12:09:36.01Z</time></trkpt><trkpt lat="43.9016472" lon="12.112781"><ele>264.0</ele><time>2026-04-06T12:09:37.008Z</time></trkpt><trkpt lat="43.9017043" lon="12.1128893"><ele>264.0</ele><time>2026-04-06T12:09:38.009Z</time></trkpt><trkpt lat="43.9017581" lon="12.1130004"><ele>264.0</ele><time>2026-04-06T12:09:39.014Z</time></trkpt><trkpt lat="43.901815" lon="12.11311"><ele>264.0</ele><time>2026-04-06T12:09:40.006Z</time></trkpt><trkpt lat="43.9018718" lon="12.1132207"><ele>265.2</ele><time>2026-04-06T12:09:41.008Z</time></trkpt><trkpt lat="43.9019286" lon="12.1133346"><ele>266.4</ele><time>2026-04-06T12:09:42.008Z</time></trkpt><trkpt lat="43.9019869" lon="12.1134496"><ele>267.6</ele><time>2026-04-06T12:09:43.008Z</time></trkpt><trkpt lat="43.9020427" lon="12.1135613"><ele>268.8</ele><time>2026-04-06T12:09:44.008Z</time></trkpt><trkpt lat="43.9020939" lon="12.1136612"><ele>270.0</ele><time>2026-04-06T12:09:45.007Z</time></trkpt><trkpt lat="43.9021419" lon="12.113751"><ele>270.0</ele><time>2026-04-06T12:09:46.008Z</time></trkpt><trkpt lat="43.9021912" lon="12.1138363"><ele>270.0</ele><time>2026-04-06T12:09:47.006Z</time></trkpt><trkpt lat="43.9022505" lon="12.1139174"><ele>270.0</ele><time>2026-04-06T12:09:48.006Z</time></trkpt><trkpt lat="43.9023185" lon="12.1139959"><ele>270.0</ele><time>2026-04-06T12:09:49.007Z</time></trkpt><trkpt lat="43.9023894" lon="12.1140719"><ele>270.0</ele><time>2026-04-06T12:09:50.006Z</time></trkpt><trkpt lat="43.9024676" lon="12.1141229"><ele>270.0</ele><time>2026-04-06T12:09:51.011Z</time></trkpt><trkpt lat="43.9025456" lon="12.1141414"><ele>268.3333333333333</ele><time>2026-04-06T12:09:52.007Z</time></trkpt><trkpt lat="43.9026186" lon="12.1141359"><ele>266.6666666666667</ele><time>2026-04-06T12:09:53.007Z</time></trkpt><trkpt lat="43.9026902" lon="12.1141179"><ele>265.0</ele><time>2026-04-06T12:09:54.012Z</time></trkpt><trkpt lat="43.9027602" lon="12.1140811"><ele>263.33333333333337</ele><time>2026-04-06T12:09:55.01Z</time></trkpt><trkpt lat="43.9028324" lon="12.1140117"><ele>261.6666666666667</ele><time>2026-04-06T12:09:56.008Z</time></trkpt><trkpt lat="43.9029059" lon="12.1139306"><ele>260.0</ele><time>2026-04-06T12:09:57.011Z</time></trkpt><trkpt lat="43.902989" lon="12.1138438"><ele>260.0</ele><time>2026-04-06T12:09:58.007Z</time></trkpt><trkpt lat="43.9030985" lon="12.1137234"><ele>260.0</ele><time>2026-04-06T12:09:59.007Z</time></trkpt><trkpt lat="43.9032131" lon="12.1135976"><ele>260.0</ele><time>2026-04-06T12:10:00.009Z</time></trkpt><trkpt lat="43.9033322" lon="12.1134767"><ele>260.0</ele><time>2026-04-06T12:10:01.008Z</time></trkpt><trkpt lat="43.9034481" lon="12.1133662"><ele>258.25</ele><time>2026-04-06T12:10:02.008Z</time></trkpt><trkpt lat="43.9035564" lon="12.1132721"><ele>256.5</ele><time>2026-04-06T12:10:03.008Z</time></trkpt><trkpt lat="43.9036691" lon="12.1131905"><ele>254.75</ele><time>2026-04-06T12:10:04.007Z</time></trkpt><trkpt lat="43.9037929" lon="12.1131209"><ele>253.0</ele><time>2026-04-06T12:10:05.006Z</time></trkpt><trkpt lat="43.9039269" lon="12.1130555"><ele>260.3333333333333</ele><time>2026-04-06T12:10:06.007Z</time></trkpt><trkpt lat="43.9040711" lon="12.1130077"><ele>267.6666666666667</ele><time>2026-04-06T12:10:07.008Z</time></trkpt><trkpt lat="43.9042255" lon="12.112981"><ele>275.0</ele><time>2026-04-06T12:10:08.008Z</time></trkpt><trkpt lat="43.9043903" lon="12.112972"><ele>275.0</ele><time>2026-04-06T12:10:09.009Z</time></trkpt><trkpt lat="43.9045651" lon="12.112978"><ele>275.0</ele><time>2026-04-06T12:10:10.008Z</time></trkpt><trkpt lat="43.9047463" lon="12.1130013"><ele>275.0</ele><time>2026-04-06T12:10:11.01Z</time></trkpt><trkpt lat="43.9049334" lon="12.1130451"><ele>279.6666666666667</ele><time>2026-04-06T12:10:12.007Z</time></trkpt><trkpt lat="43.9051212" lon="12.1130934"><ele>284.3333333333333</ele><time>2026-04-06T12:10:13.009Z</time></trkpt><trkpt lat="43.9053006" lon="12.1131416"><ele>289.0</ele><time>2026-04-06T12:10:14.008Z</time></trkpt><trkpt lat="43.905466" lon="12.1131948"><ele>285.66666666666663</ele><time>2026-04-06T12:10:15.007Z</time></trkpt><trkpt lat="43.9056236" lon="12.1132529"><ele>282.3333333333333</ele><time>2026-04-06T12:10:16.007Z</time></trkpt><trkpt lat="43.9057769" lon="12.1132873"><ele>279.0</ele><time>2026-04-06T12:10:17.006Z</time></trkpt><trkpt lat="43.9059271" lon="12.1133167"><ele>279.0</ele><time>2026-04-06T12:10:18.011Z</time></trkpt><trkpt lat="43.9060771" lon="12.113356"><ele>279.0</ele><time>2026-04-06T12:10:19.008Z</time></trkpt><trkpt lat="43.9062296" lon="12.113406"><ele>279.0</ele><time>2026-04-06T12:10:20.009Z</time></trkpt><trkpt lat="43.9063781" lon="12.1134806"><ele>279.0</ele><time>2026-04-06T12:10:21.008Z</time></trkpt><trkpt lat="43.9065173" lon="12.1135968"><ele>279.0</ele><time>2026-04-06T12:10:22.009Z</time></trkpt><trkpt lat="43.9066424" lon="12.1137548"><ele>279.0</ele><time>2026-04-06T12:10:23.006Z</time></trkpt><trkpt lat="43.9067603" lon="12.1139456"><ele>278.0</ele><time>2026-04-06T12:10:24.009Z</time></trkpt><trkpt lat="43.9068841" lon="12.114138"><ele>277.0</ele><time>2026-04-06T12:10:25.009Z</time></trkpt><trkpt lat="43.907013" lon="12.1143244"><ele>276.0</ele><time>2026-04-06T12:10:26.006Z</time></trkpt><trkpt lat="43.9071356" lon="12.1145102"><ele>276.0</ele><time>2026-04-06T12:10:27.008Z</time></trkpt><trkpt lat="43.9072505" lon="12.114691"><ele>276.0</ele><time>2026-04-06T12:10:28.008Z</time></trkpt><trkpt lat="43.9073542" lon="12.1148703"><ele>276.0</ele><time>2026-04-06T12:10:29.008Z</time></trkpt><trkpt lat="43.9074362" lon="12.1150626"><ele>272.3333333333333</ele><time>2026-04-06T12:10:30.006Z</time></trkpt><trkpt lat="43.9074978" lon="12.1152749"><ele>268.66666666666663</ele><time>2026-04-06T12:10:31.007Z</time></trkpt><trkpt lat="43.9075512" lon="12.1154987"><ele>265.0</ele><time>2026-04-06T12:10:32.008Z</time></trkpt><trkpt lat="43.9076021" lon="12.1157265"><ele>270.66666666666663</ele><time>2026-04-06T12:10:33.008Z</time></trkpt><trkpt lat="43.9076561" lon="12.1159609"><ele>276.3333333333333</ele><time>2026-04-06T12:10:34.016Z</time></trkpt><trkpt lat="43.9077071" lon="12.1161935"><ele>282.0</ele><time>2026-04-06T12:10:35.01Z</time></trkpt><trkpt lat="43.9077598" lon="12.1164135"><ele>275.75</ele><time>2026-04-06T12:10:36.007Z</time></trkpt><trkpt lat="43.907806" lon="12.1166102"><ele>269.5</ele><time>2026-04-06T12:10:37.008Z</time></trkpt><trkpt lat="43.9078619" lon="12.1167674"><ele>263.25</ele><time>2026-04-06T12:10:38.007Z</time></trkpt><trkpt lat="43.9079371" lon="12.1168689"><ele>257.0</ele><time>2026-04-06T12:10:39.011Z</time></trkpt><trkpt lat="43.9080314" lon="12.1169056"><ele>257.0</ele><time>2026-04-06T12:10:40.006Z</time></trkpt><trkpt lat="43.9081303" lon="12.1168965"><ele>257.0</ele><time>2026-04-06T12:10:41.009Z</time></trkpt><trkpt lat="43.9082335" lon="12.1168473"><ele>257.0</ele><time>2026-04-06T12:10:42.008Z</time></trkpt><trkpt lat="43.9083426" lon="12.1167676"><ele>257.0</ele><time>2026-04-06T12:10:43.01Z</time></trkpt><trkpt lat="43.9084605" lon="12.1166784"><ele>258.6</ele><time>2026-04-06T12:10:44.008Z</time></trkpt><trkpt lat="43.9085769" lon="12.116612"><ele>260.2</ele><time>2026-04-06T12:10:45.007Z</time></trkpt><trkpt lat="43.9086875" lon="12.1165857"><ele>261.8</ele><time>2026-04-06T12:10:46.009Z</time></trkpt><trkpt lat="43.9087902" lon="12.1166042"><ele>263.4</ele><time>2026-04-06T12:10:47.008Z</time></trkpt><trkpt lat="43.9088798" lon="12.1166616"><ele>265.0</ele><time>2026-04-06T12:10:48.005Z</time></trkpt><trkpt lat="43.9089444" lon="12.1167525"><ele>265.0</ele><time>2026-04-06T12:10:49.008Z</time></trkpt><trkpt lat="43.9089675" lon="12.1168685"><ele>265.0</ele><time>2026-04-06T12:10:50.007Z</time></trkpt><trkpt lat="43.9089729" lon="12.1169899"><ele>265.0</ele><time>2026-04-06T12:10:51.007Z</time></trkpt><trkpt lat="43.9089674" lon="12.1171097"><ele>265.0</ele><time>2026-04-06T12:10:52.007Z</time></trkpt><trkpt lat="43.9089424" lon="12.1172218"><ele>265.0</ele><time>2026-04-06T12:10:53.007Z</time></trkpt><trkpt lat="43.9088801" lon="12.1173295"><ele>265.0</ele><time>2026-04-06T12:10:54.008Z</time></trkpt><trkpt lat="43.9087974" lon="12.1174343"><ele>267.0</ele><time>2026-04-06T12:10:55.008Z</time></trkpt><trkpt lat="43.9086964" lon="12.1175365"><ele>269.0</ele><time>2026-04-06T12:10:56.009Z</time></trkpt><trkpt lat="43.9085936" lon="12.117638"><ele>271.0</ele><time>2026-04-06T12:10:57.008Z</time></trkpt><trkpt lat="43.9085073" lon="12.1177436"><ele>273.0</ele><time>2026-04-06T12:10:58.007Z</time></trkpt><trkpt lat="43.9084489" lon="12.1178563"><ele>273.0</ele><time>2026-04-06T12:10:59.007Z</time></trkpt><trkpt lat="43.9084279" lon="12.1179828"><ele>273.0</ele><time>2026-04-06T12:11:00.007Z</time></trkpt><trkpt lat="43.9084371" lon="12.1181195"><ele>273.0</ele><time>2026-04-06T12:11:01.008Z</time></trkpt><trkpt lat="43.9084796" lon="12.1182577"><ele>273.0</ele><time>2026-04-06T12:11:02.007Z</time></trkpt><trkpt lat="43.9085817" lon="12.118395"><ele>273.0</ele><time>2026-04-06T12:11:03.009Z</time></trkpt><trkpt lat="43.9086617" lon="12.118545"><ele>272.0</ele><time>2026-04-06T12:11:04.01Z</time></trkpt><trkpt lat="43.9087333" lon="12.1187167"><ele>271.0</ele><time>2026-04-06T12:11:05.008Z</time></trkpt><trkpt lat="43.9088233" lon="12.1188867"><ele>270.0</ele><time>2026-04-06T12:11:06.011Z</time></trkpt><trkpt lat="43.908915" lon="12.11907"><ele>267.0</ele><time>2026-04-06T12:11:07.009Z</time></trkpt><trkpt lat="43.9090167" lon="12.11925"><ele>264.0</ele><time>2026-04-06T12:11:08.008Z</time></trkpt><trkpt lat="43.909115" lon="12.1194383"><ele>261.0</ele><time>2026-04-06T12:11:09.008Z</time></trkpt><trkpt lat="43.9092033" lon="12.1196283"><ele>263.3333333333333</ele><time>2026-04-06T12:11:10.006Z</time></trkpt><trkpt lat="43.9092983" lon="12.1198083"><ele>265.66666666666663</ele><time>2026-04-06T12:11:11.018Z</time></trkpt><trkpt lat="43.90938" lon="12.1199817"><ele>268.0</ele><time>2026-04-06T12:11:12.006Z</time></trkpt><trkpt lat="43.90946" lon="12.1201517"><ele>268.0</ele><time>2026-04-06T12:11:13.006Z</time></trkpt><trkpt lat="43.90954" lon="12.1203183"><ele>268.0</ele><time>2026-04-06T12:11:14.007Z</time></trkpt><trkpt lat="43.9096217" lon="12.12049"><ele>268.0</ele><time>2026-04-06T12:11:15.007Z</time></trkpt><trkpt lat="43.9097017" lon="12.1206667"><ele>268.0</ele><time>2026-04-06T12:11:16.011Z</time></trkpt><trkpt lat="43.9097733" lon="12.1208517"><ele>270.0</ele><time>2026-04-06T12:11:17.006Z</time></trkpt><trkpt lat="43.9098683" lon="12.121025"><ele>272.0</ele><time>2026-04-06T12:11:18.009Z</time></trkpt><trkpt lat="43.9099733" lon="12.1211917"><ele>274.0</ele><time>2026-04-06T12:11:19.009Z</time></trkpt><trkpt lat="43.910085" lon="12.1213483"><ele>274.0</ele><time>2026-04-06T12:11:20.008Z</time></trkpt><trkpt lat="43.9101983" lon="12.1215"><ele>274.0</ele><time>2026-04-06T12:11:21.007Z</time></trkpt><trkpt lat="43.910315" lon="12.12164"><ele>274.0</ele><time>2026-04-06T12:11:22.01Z</time></trkpt><trkpt lat="43.91043" lon="12.121775"><ele>269.5</ele><time>2026-04-06T12:11:23.008Z</time></trkpt><trkpt lat="43.9105383" lon="12.12191"><ele>265.0</ele><time>2026-04-06T12:11:24.009Z</time></trkpt><trkpt lat="43.91064" lon="12.12204"><ele>260.5</ele><time>2026-04-06T12:11:25.008Z</time></trkpt><trkpt lat="43.9107383" lon="12.122175"><ele>256.0</ele><time>2026-04-06T12:11:26.008Z</time></trkpt><trkpt lat="43.9108317" lon="12.122325"><ele>257.75</ele><time>2026-04-06T12:11:27.007Z</time></trkpt><trkpt lat="43.91092" lon="12.1224867"><ele>259.5</ele><time>2026-04-06T12:11:28.006Z</time></trkpt><trkpt lat="43.9110017" lon="12.1226483"><ele>261.25</ele><time>2026-04-06T12:11:29.015Z</time></trkpt><trkpt lat="43.9110733" lon="12.122805"><ele>263.0</ele><time>2026-04-06T12:11:30.008Z</time></trkpt><trkpt lat="43.9111417" lon="12.1229733"><ele>263.0</ele><time>2026-04-06T12:11:31.01Z</time></trkpt><trkpt lat="43.9112167" lon="12.1231467"><ele>263.0</ele><time>2026-04-06T12:11:32.006Z</time></trkpt><trkpt lat="43.9113" lon="12.1233233"><ele>263.0</ele><time>2026-04-06T12:11:33.006Z</time></trkpt><trkpt lat="43.91139" lon="12.1234867"><ele>263.0</ele><time>2026-04-06T12:11:34.008Z</time></trkpt><trkpt lat="43.9114867" lon="12.1236367"><ele>261.75</ele><time>2026-04-06T12:11:35.007Z</time></trkpt><trkpt lat="43.911575" lon="12.123785"><ele>260.5</ele><time>2026-04-06T12:11:36.009Z</time></trkpt><trkpt lat="43.9116617" lon="12.1239317"><ele>259.25</ele><time>2026-04-06T12:11:37.008Z</time></trkpt><trkpt lat="43.9117559" lon="12.124065"><ele>258.0</ele><time>2026-04-06T12:11:38.01Z</time></trkpt><trkpt lat="43.9118665" lon="12.1241623"><ele>258.5</ele><time>2026-04-06T12:11:39.008Z</time></trkpt><trkpt lat="43.9119861" lon="12.1242124"><ele>259.0</ele><time>2026-04-06T12:11:40.006Z</time></trkpt><trkpt lat="43.9121003" lon="12.1241957"><ele>259.5</ele><time>2026-04-06T12:11:41.01Z</time></trkpt><trkpt lat="43.9122036" lon="12.1241282"><ele>260.0</ele><time>2026-04-06T12:11:42.009Z</time></trkpt><trkpt lat="43.9122955" lon="12.1240367"><ele>260.0</ele><time>2026-04-06T12:11:43.01Z</time></trkpt><trkpt lat="43.9123875" lon="12.1240051"><ele>260.0</ele><time>2026-04-06T12:11:44.009Z</time></trkpt><trkpt lat="43.912473" lon="12.1240466"><ele>260.0</ele><time>2026-04-06T12:11:45.011Z</time></trkpt><trkpt lat="43.9125424" lon="12.1241453"><ele>260.0</ele><time>2026-04-06T12:11:46.009Z</time></trkpt><trkpt lat="43.9125847" lon="12.1242774"><ele>260.0</ele><time>2026-04-06T12:11:47.007Z</time></trkpt><trkpt lat="43.9125925" lon="12.1244332"><ele>258.83333333333337</ele><time>2026-04-06T12:11:48.008Z</time></trkpt><trkpt lat="43.9125833" lon="12.1245724"><ele>257.6666666666667</ele><time>2026-04-06T12:11:49.008Z</time></trkpt><trkpt lat="43.9125532" lon="12.1247019"><ele>256.5</ele><time>2026-04-06T12:11:50.009Z</time></trkpt><trkpt lat="43.9125178" lon="12.1248241"><ele>255.33333333333331</ele><time>2026-04-06T12:11:51.011Z</time></trkpt><trkpt lat="43.9124738" lon="12.1249279"><ele>254.16666666666666</ele><time>2026-04-06T12:11:52.009Z</time></trkpt><trkpt lat="43.912435" lon="12.1250054"><ele>253.0</ele><time>2026-04-06T12:11:53.008Z</time></trkpt><trkpt lat="43.9123849" lon="12.1250865"><ele>253.0</ele><time>2026-04-06T12:11:55.009Z</time></trkpt><trkpt lat="43.9123767" lon="12.1251833"><ele>253.0</ele><time>2026-04-06T12:12:08.01Z</time></trkpt><trkpt lat="43.912455" lon="12.1251117"><ele>253.0</ele><time>2026-04-06T12:12:11.009Z</time></trkpt><trkpt lat="43.9124983" lon="12.125005"><ele>253.0</ele><time>2026-04-06T12:12:12.012Z</time></trkpt><trkpt lat="43.91254" lon="12.1247417"><ele>253.0</ele><time>2026-04-06T12:12:13.011Z</time></trkpt><trkpt lat="43.9125633" lon="12.1245333"><ele>253.0</ele><time>2026-04-06T12:12:14.01Z</time></trkpt><trkpt lat="43.9125633" lon="12.12436"><ele>253.0</ele><time>2026-04-06T12:12:15.009Z</time></trkpt><trkpt lat="43.912535" lon="12.1242167"><ele>253.0</ele><time>2026-04-06T12:12:16.007Z</time></trkpt><trkpt lat="43.912485" lon="12.1241"><ele>253.0</ele><time>2026-04-06T12:12:17.008Z</time></trkpt><trkpt lat="43.91242" lon="12.1240283"><ele>253.0</ele><time>2026-04-06T12:12:18.009Z</time></trkpt><trkpt lat="43.9123467" lon="12.12398"><ele>254.4</ele><time>2026-04-06T12:12:19.008Z</time></trkpt><trkpt lat="43.9122683" lon="12.12396"><ele>255.8</ele><time>2026-04-06T12:12:20.008Z</time></trkpt><trkpt lat="43.9121867" lon="12.1239783"><ele>257.2</ele><time>2026-04-06T12:12:21.008Z</time></trkpt><trkpt lat="43.91209" lon="12.124005"><ele>258.6</ele><time>2026-04-06T12:12:22.013Z</time></trkpt><trkpt lat="43.91199" lon="12.1240067"><ele>260.0</ele><time>2026-04-06T12:12:23.008Z</time></trkpt><trkpt lat="43.9118817" lon="12.12396"><ele>260.0</ele><time>2026-04-06T12:12:24.009Z</time></trkpt><trkpt lat="43.9117633" lon="12.123865"><ele>260.0</ele><time>2026-04-06T12:12:25.011Z</time></trkpt><trkpt lat="43.9116367" lon="12.1237283"><ele>260.0</ele><time>2026-04-06T12:12:26.011Z</time></trkpt><trkpt lat="43.91151" lon="12.1235417"><ele>259.33333333333337</ele><time>2026-04-06T12:12:27.007Z</time></trkpt><trkpt lat="43.9113933" lon="12.123345"><ele>258.6666666666667</ele><time>2026-04-06T12:12:28.01Z</time></trkpt><trkpt lat="43.911295" lon="12.1231567"><ele>258.0</ele><time>2026-04-06T12:12:29.008Z</time></trkpt><trkpt lat="43.9112217" lon="12.1229967"><ele>259.0</ele><time>2026-04-06T12:12:30.009Z</time></trkpt><trkpt lat="43.9111617" lon="12.1228567"><ele>260.0</ele><time>2026-04-06T12:12:31.008Z</time></trkpt><trkpt lat="43.91113" lon="12.1227117"><ele>261.0</ele><time>2026-04-06T12:12:32.008Z</time></trkpt><trkpt lat="43.9111217" lon="12.1225883"><ele>262.0</ele><time>2026-04-06T12:12:33.008Z</time></trkpt><trkpt lat="43.9111317" lon="12.1224867"><ele>263.0</ele><time>2026-04-06T12:12:34.012Z</time></trkpt><trkpt lat="43.9111583" lon="12.1223617"><ele>263.0</ele><time>2026-04-06T12:12:36.009Z</time></trkpt><trkpt lat="43.9111417" lon="12.1221783"><ele>263.0</ele><time>2026-04-06T12:20:00.007Z</time></trkpt><trkpt lat="43.9110933" lon="12.1222633"><ele>263.0</ele><time>2026-04-06T12:20:03.007Z</time></trkpt><trkpt lat="43.9110983" lon="12.1223883"><ele>263.0</ele><time>2026-04-06T12:20:06.01Z</time></trkpt><trkpt lat="43.911074" lon="12.1225105"><ele>263.0</ele><time>2026-04-06T12:20:09.017Z</time></trkpt><trkpt lat="43.9110216" lon="12.1226159"><ele>263.0</ele><time>2026-04-06T12:20:13.029Z</time></trkpt><trkpt lat="43.9110135" lon="12.1227315"><ele>263.0</ele><time>2026-04-06T12:20:15.036Z</time></trkpt><trkpt lat="43.9110998" lon="12.1228642"><ele>263.0</ele><time>2026-04-06T12:20:17.045Z</time></trkpt><trkpt lat="43.9112243" lon="12.1231071"><ele>263.0</ele><time>2026-04-06T12:20:19.04Z</time></trkpt><trkpt lat="43.9113658" lon="12.1233607"><ele>261.33333333333337</ele><time>2026-04-06T12:20:20.005Z</time></trkpt><trkpt lat="43.9114738" lon="12.1235739"><ele>259.6666666666667</ele><time>2026-04-06T12:20:21.009Z</time></trkpt><trkpt lat="43.9115755" lon="12.1237579"><ele>258.0</ele><time>2026-04-06T12:20:22.01Z</time></trkpt><trkpt lat="43.9116774" lon="12.1239136"><ele>258.5</ele><time>2026-04-06T12:20:23.008Z</time></trkpt><trkpt lat="43.9117802" lon="12.1240371"><ele>259.0</ele><time>2026-04-06T12:20:24.009Z</time></trkpt><trkpt lat="43.9118841" lon="12.1241273"><ele>259.5</ele><time>2026-04-06T12:20:25.008Z</time></trkpt><trkpt lat="43.9119864" lon="12.12417"><ele>260.0</ele><time>2026-04-06T12:20:26.006Z</time></trkpt><trkpt lat="43.9120858" lon="12.1241634"><ele>260.0</ele><time>2026-04-06T12:20:27.008Z</time></trkpt><trkpt lat="43.9121747" lon="12.1241058"><ele>260.0</ele><time>2026-04-06T12:20:28.006Z</time></trkpt><trkpt lat="43.9122566" lon="12.1240348"><ele>260.0</ele><time>2026-04-06T12:20:29.007Z</time></trkpt><trkpt lat="43.91234" lon="12.1240157"><ele>260.0</ele><time>2026-04-06T12:20:30.01Z</time></trkpt><trkpt lat="43.9124177" lon="12.1240357"><ele>260.0</ele><time>2026-04-06T12:20:31.006Z</time></trkpt><trkpt lat="43.9124893" lon="12.1241093"><ele>260.0</ele><time>2026-04-06T12:20:32.006Z</time></trkpt><trkpt lat="43.9125451" lon="12.124227"><ele>258.25</ele><time>2026-04-06T12:20:33.01Z</time></trkpt><trkpt lat="43.912585" lon="12.1243651"><ele>256.5</ele><time>2026-04-06T12:20:34.009Z</time></trkpt><trkpt lat="43.9126185" lon="12.1245138"><ele>254.75</ele><time>2026-04-06T12:20:35.007Z</time></trkpt><trkpt lat="43.9126087" lon="12.1246753"><ele>253.0</ele><time>2026-04-06T12:20:36.007Z</time></trkpt><trkpt lat="43.9125646" lon="12.1248428"><ele>252.0</ele><time>2026-04-06T12:20:37.01Z</time></trkpt><trkpt lat="43.9125099" lon="12.1250139"><ele>251.0</ele><time>2026-04-06T12:20:38.009Z</time></trkpt><trkpt lat="43.912447" lon="12.1251887"><ele>250.0</ele><time>2026-04-06T12:20:39.008Z</time></trkpt><trkpt lat="43.9123942" lon="12.1253715"><ele>249.0</ele><time>2026-04-06T12:20:40.008Z</time></trkpt><trkpt lat="43.9123562" lon="12.1255649"><ele>248.25</ele><time>2026-04-06T12:20:41.007Z</time></trkpt><trkpt lat="43.9123386" lon="12.1257662"><ele>247.5</ele><time>2026-04-06T12:20:42.009Z</time></trkpt><trkpt lat="43.9123451" lon="12.1259678"><ele>246.75</ele><time>2026-04-06T12:20:43.01Z</time></trkpt><trkpt lat="43.9123827" lon="12.126161"><ele>246.0</ele><time>2026-04-06T12:20:44.01Z</time></trkpt><trkpt lat="43.9124387" lon="12.1263508"><ele>246.0</ele><time>2026-04-06T12:20:45.008Z</time></trkpt><trkpt lat="43.9125037" lon="12.1265319"><ele>246.0</ele><time>2026-04-06T12:20:46.009Z</time></trkpt><trkpt lat="43.9125745" lon="12.1267094"><ele>246.0</ele><time>2026-04-06T12:20:47.006Z</time></trkpt><trkpt lat="43.9126537" lon="12.126884"><ele>246.0</ele><time>2026-04-06T12:20:48.007Z</time></trkpt><trkpt lat="43.9127318" lon="12.127066"><ele>247.5</ele><time>2026-04-06T12:20:49.011Z</time></trkpt><trkpt lat="43.9128118" lon="12.1272437"><ele>249.0</ele><time>2026-04-06T12:20:50.007Z</time></trkpt><trkpt lat="43.9129001" lon="12.1273955"><ele>250.5</ele><time>2026-04-06T12:20:51.007Z</time></trkpt><trkpt lat="43.91299" lon="12.1275276"><ele>252.0</ele><time>2026-04-06T12:20:52.007Z</time></trkpt><trkpt lat="43.9130811" lon="12.127643"><ele>252.0</ele><time>2026-04-06T12:20:53.008Z</time></trkpt><trkpt lat="43.9131657" lon="12.1277515"><ele>252.0</ele><time>2026-04-06T12:20:54.006Z</time></trkpt><trkpt lat="43.9132432" lon="12.1278555"><ele>252.0</ele><time>2026-04-06T12:20:55.009Z</time></trkpt><trkpt lat="43.913319" lon="12.1279631"><ele>252.0</ele><time>2026-04-06T12:20:56.008Z</time></trkpt><trkpt lat="43.9133967" lon="12.1280799"><ele>252.0</ele><time>2026-04-06T12:20:57.007Z</time></trkpt><trkpt lat="43.9134768" lon="12.1282142"><ele>254.5</ele><time>2026-04-06T12:20:58.009Z</time></trkpt><trkpt lat="43.9135697" lon="12.1283497"><ele>257.0</ele><time>2026-04-06T12:20:59.008Z</time></trkpt><trkpt lat="43.9136832" lon="12.1284749"><ele>259.5</ele><time>2026-04-06T12:21:00.011Z</time></trkpt><trkpt lat="43.9138065" lon="12.1285938"><ele>262.0</ele><time>2026-04-06T12:21:01.009Z</time></trkpt><trkpt lat="43.913925" lon="12.1287209"><ele>262.0</ele><time>2026-04-06T12:21:02.009Z</time></trkpt><trkpt lat="43.9140281" lon="12.1288675"><ele>262.0</ele><time>2026-04-06T12:21:03.007Z</time></trkpt><trkpt lat="43.9141098" lon="12.1290356"><ele>262.0</ele><time>2026-04-06T12:21:04.008Z</time></trkpt><trkpt lat="43.9141822" lon="12.1292084"><ele>262.0</ele><time>2026-04-06T12:21:05.008Z</time></trkpt><trkpt lat="43.9142499" lon="12.1293813"><ele>266.5</ele><time>2026-04-06T12:21:06.007Z</time></trkpt><trkpt lat="43.9143206" lon="12.1295397"><ele>271.0</ele><time>2026-04-06T12:21:07.008Z</time></trkpt><trkpt lat="43.9143813" lon="12.129694"><ele>275.5</ele><time>2026-04-06T12:21:08.009Z</time></trkpt><trkpt lat="43.9144217" lon="12.1298542"><ele>280.0</ele><time>2026-04-06T12:21:09.01Z</time></trkpt><trkpt lat="43.9144396" lon="12.1300252"><ele>280.0</ele><time>2026-04-06T12:21:10.009Z</time></trkpt><trkpt lat="43.9144403" lon="12.1302065"><ele>280.0</ele><time>2026-04-06T12:21:11.006Z</time></trkpt><trkpt lat="43.9144385" lon="12.1303941"><ele>280.0</ele><time>2026-04-06T12:21:12.008Z</time></trkpt><trkpt lat="43.9144401" lon="12.13058"><ele>280.0</ele><time>2026-04-06T12:21:13.008Z</time></trkpt><trkpt lat="43.9144445" lon="12.1307577"><ele>278.5</ele><time>2026-04-06T12:21:14.009Z</time></trkpt><trkpt lat="43.9144478" lon="12.130932"><ele>277.0</ele><time>2026-04-06T12:21:15.007Z</time></trkpt><trkpt lat="43.9144473" lon="12.1311146"><ele>275.5</ele><time>2026-04-06T12:21:16.007Z</time></trkpt><trkpt lat="43.9144456" lon="12.1313008"><ele>274.0</ele><time>2026-04-06T12:21:17.006Z</time></trkpt><trkpt lat="43.9144445" lon="12.1314937"><ele>272.0</ele><time>2026-04-06T12:21:18.006Z</time></trkpt><trkpt lat="43.9144401" lon="12.1316935"><ele>270.0</ele><time>2026-04-06T12:21:19.009Z</time></trkpt><trkpt lat="43.9144302" lon="12.1318878"><ele>268.0</ele><time>2026-04-06T12:21:20.008Z</time></trkpt><trkpt lat="43.914419" lon="12.1320653"><ele>266.0</ele><time>2026-04-06T12:21:21.011Z</time></trkpt><trkpt lat="43.9144098" lon="12.132214"><ele>266.0</ele><time>2026-04-06T12:21:22.007Z</time></trkpt><trkpt lat="43.9144039" lon="12.1323334"><ele>266.0</ele><time>2026-04-06T12:21:23.009Z</time></trkpt><trkpt lat="43.91439" lon="12.1324291"><ele>266.0</ele><time>2026-04-06T12:21:24.007Z</time></trkpt><trkpt lat="43.914352" lon="12.132541"><ele>266.0</ele><time>2026-04-06T12:21:26.008Z</time></trkpt><trkpt lat="43.9142808" lon="12.1325365"><ele>266.0</ele><time>2026-04-06T12:21:28.009Z</time></trkpt><trkpt lat="43.9142516" lon="12.1324522"><ele>266.0</ele><time>2026-04-06T12:21:29.008Z</time></trkpt><trkpt lat="43.9142443" lon="12.1323299"><ele>259.1666666666667</ele><time>2026-04-06T12:21:30.008Z</time></trkpt><trkpt lat="43.9142185" lon="12.1322165"><ele>252.33333333333334</ele><time>2026-04-06T12:21:31.011Z</time></trkpt><trkpt lat="43.9141655" lon="12.1321336"><ele>245.5</ele><time>2026-04-06T12:21:32.006Z</time></trkpt><trkpt lat="43.9141019" lon="12.132078"><ele>238.66666666666669</ele><time>2026-04-06T12:21:33.007Z</time></trkpt><trkpt lat="43.9140253" lon="12.1320657"><ele>231.83333333333334</ele><time>2026-04-06T12:21:34.009Z</time></trkpt><trkpt lat="43.9139503" lon="12.1320914"><ele>225.0</ele><time>2026-04-06T12:21:35.008Z</time></trkpt><trkpt lat="43.9138784" lon="12.1321413"><ele>225.0</ele><time>2026-04-06T12:21:36.01Z</time></trkpt><trkpt lat="43.9138177" lon="12.1322351"><ele>225.0</ele><time>2026-04-06T12:21:37.006Z</time></trkpt><trkpt lat="43.9137624" lon="12.1323647"><ele>225.0</ele><time>2026-04-06T12:21:38.01Z</time></trkpt><trkpt lat="43.913723" lon="12.1325237"><ele>225.0</ele><time>2026-04-06T12:21:39.008Z</time></trkpt><trkpt lat="43.9137106" lon="12.1326893"><ele>225.0</ele><time>2026-04-06T12:21:40.008Z</time></trkpt><trkpt lat="43.9137306" lon="12.1328541"><ele>225.0</ele><time>2026-04-06T12:21:41.008Z</time></trkpt><trkpt lat="43.9137604" lon="12.1330177"><ele>225.0</ele><time>2026-04-06T12:21:42.008Z</time></trkpt><trkpt lat="43.9137549" lon="12.1331679"><ele>225.0</ele><time>2026-04-06T12:21:43.008Z</time></trkpt><trkpt lat="43.9137327" lon="12.1333035"><ele>225.0</ele><time>2026-04-06T12:21:44.009Z</time></trkpt><trkpt lat="43.9136925" lon="12.1334352"><ele>225.0</ele><time>2026-04-06T12:21:45.006Z</time></trkpt><trkpt lat="43.9136532" lon="12.1335659"><ele>225.2</ele><time>2026-04-06T12:21:46.007Z</time></trkpt><trkpt lat="43.9136221" lon="12.1337034"><ele>225.4</ele><time>2026-04-06T12:21:47.008Z</time></trkpt><trkpt lat="43.9136211" lon="12.1338438"><ele>225.60000000000002</ele><time>2026-04-06T12:21:48.006Z</time></trkpt><trkpt lat="43.9136438" lon="12.1339728"><ele>225.8</ele><time>2026-04-06T12:21:49.01Z</time></trkpt><trkpt lat="43.9136995" lon="12.1340978"><ele>226.0</ele><time>2026-04-06T12:21:50.008Z</time></trkpt><trkpt lat="43.9137765" lon="12.1342164"><ele>225.4</ele><time>2026-04-06T12:21:51.009Z</time></trkpt><trkpt lat="43.9138598" lon="12.1343239"><ele>224.8</ele><time>2026-04-06T12:21:52.009Z</time></trkpt><trkpt lat="43.9139433" lon="12.1344235"><ele>224.20000000000002</ele><time>2026-04-06T12:21:53.007Z</time></trkpt><trkpt lat="43.9140195" lon="12.1345108"><ele>223.60000000000002</ele><time>2026-04-06T12:21:54.009Z</time></trkpt><trkpt lat="43.9140784" lon="12.1345893"><ele>223.0</ele><time>2026-04-06T12:21:55.007Z</time></trkpt><trkpt lat="43.9141173" lon="12.1346648"><ele>223.0</ele><time>2026-04-06T12:21:56.008Z</time></trkpt><trkpt lat="43.9140974" lon="12.1347733"><ele>223.0</ele><time>2026-04-06T12:21:58.007Z</time></trkpt><trkpt lat="43.9139941" lon="12.1347631"><ele>223.0</ele><time>2026-04-06T12:22:00.006Z</time></trkpt><trkpt lat="43.9139232" lon="12.1346976"><ele>223.0</ele><time>2026-04-06T12:22:01.007Z</time></trkpt><trkpt lat="43.9138262" lon="12.1345913"><ele>223.0</ele><time>2026-04-06T12:22:02.007Z</time></trkpt><trkpt lat="43.9137176" lon="12.1344401"><ele>223.0</ele><time>2026-04-06T12:22:03.006Z</time></trkpt><trkpt lat="43.9135919" lon="12.1342907"><ele>223.0</ele><time>2026-04-06T12:22:04.007Z</time></trkpt><trkpt lat="43.9134558" lon="12.1341273"><ele>223.0</ele><time>2026-04-06T12:22:05.006Z</time></trkpt><trkpt lat="43.9133061" lon="12.1339599"><ele>216.33333333333331</ele><time>2026-04-06T12:22:06.008Z</time></trkpt><trkpt lat="43.9131376" lon="12.1337977"><ele>209.66666666666669</ele><time>2026-04-06T12:22:07.008Z</time></trkpt><trkpt lat="43.9129538" lon="12.1336598"><ele>203.0</ele><time>2026-04-06T12:22:08.008Z</time></trkpt><trkpt lat="43.9127681" lon="12.1335326"><ele>203.0</ele><time>2026-04-06T12:22:09.009Z</time></trkpt><trkpt lat="43.912595" lon="12.1334197"><ele>203.0</ele><time>2026-04-06T12:22:10.006Z</time></trkpt><trkpt lat="43.9124497" lon="12.1333178"><ele>203.0</ele><time>2026-04-06T12:22:11.008Z</time></trkpt><trkpt lat="43.9123347" lon="12.1332185"><ele>202.8</ele><time>2026-04-06T12:22:12.006Z</time></trkpt><trkpt lat="43.9122593" lon="12.1331148"><ele>202.60000000000002</ele><time>2026-04-06T12:22:13.007Z</time></trkpt><trkpt lat="43.9122231" lon="12.133013"><ele>202.39999999999998</ele><time>2026-04-06T12:22:14.007Z</time></trkpt><trkpt lat="43.9122103" lon="12.1328949"><ele>202.2</ele><time>2026-04-06T12:22:15.007Z</time></trkpt><trkpt lat="43.9122149" lon="12.1327583"><ele>202.0</ele><time>2026-04-06T12:22:16.007Z</time></trkpt><trkpt lat="43.9122784" lon="12.1325897"><ele>202.0</ele><time>2026-04-06T12:22:17.008Z</time></trkpt><trkpt lat="43.9123505" lon="12.1324192"><ele>202.0</ele><time>2026-04-06T12:22:18.009Z</time></trkpt><trkpt lat="43.9123893" lon="12.1322501"><ele>202.0</ele><time>2026-04-06T12:22:19.007Z</time></trkpt><trkpt lat="43.9123898" lon="12.1320664"><ele>202.0</ele><time>2026-04-06T12:22:20.007Z</time></trkpt><trkpt lat="43.9123632" lon="12.1318748"><ele>202.75</ele><time>2026-04-06T12:22:21.012Z</time></trkpt><trkpt lat="43.912352" lon="12.1316822"><ele>203.5</ele><time>2026-04-06T12:22:22.008Z</time></trkpt><trkpt lat="43.9123581" lon="12.1314942"><ele>204.25</ele><time>2026-04-06T12:22:23.009Z</time></trkpt><trkpt lat="43.9123362" lon="12.1313141"><ele>205.0</ele><time>2026-04-06T12:22:24.006Z</time></trkpt><trkpt lat="43.9122832" lon="12.131157"><ele>205.0</ele><time>2026-04-06T12:22:25.008Z</time></trkpt><trkpt lat="43.9122134" lon="12.1310191"><ele>205.0</ele><time>2026-04-06T12:22:26.007Z</time></trkpt><trkpt lat="43.9121176" lon="12.1309098"><ele>205.0</ele><time>2026-04-06T12:22:27.009Z</time></trkpt><trkpt lat="43.9120099" lon="12.1308356"><ele>205.0</ele><time>2026-04-06T12:22:28.006Z</time></trkpt><trkpt lat="43.9119282" lon="12.1307505"><ele>206.2</ele><time>2026-04-06T12:22:29.009Z</time></trkpt><trkpt lat="43.9118805" lon="12.1306328"><ele>207.4</ele><time>2026-04-06T12:22:30.007Z</time></trkpt><trkpt lat="43.9118517" lon="12.1304843"><ele>208.60000000000002</ele><time>2026-04-06T12:22:31.008Z</time></trkpt><trkpt lat="43.9118168" lon="12.1303226"><ele>209.8</ele><time>2026-04-06T12:22:32.008Z</time></trkpt><trkpt lat="43.911771" lon="12.1301758"><ele>211.0</ele><time>2026-04-06T12:22:33.008Z</time></trkpt><trkpt lat="43.9117274" lon="12.1300544"><ele>210.99999999999997</ele><time>2026-04-06T12:22:34.008Z</time></trkpt><trkpt lat="43.9116799" lon="12.1299747"><ele>211.0</ele><time>2026-04-06T12:22:35.006Z</time></trkpt><trkpt lat="43.9116197" lon="12.12994"><ele>211.0</ele><time>2026-04-06T12:22:36.009Z</time></trkpt><trkpt lat="43.9115066" lon="12.1299735"><ele>211.0</ele><time>2026-04-06T12:22:38.006Z</time></trkpt><trkpt lat="43.9114817" lon="12.1300554"><ele>210.99999999999997</ele><time>2026-04-06T12:22:39.008Z</time></trkpt><trkpt lat="43.9114861" lon="12.1302013"><ele>211.0</ele><time>2026-04-06T12:22:40.008Z</time></trkpt><trkpt lat="43.9114821" lon="12.1303732"><ele>211.0</ele><time>2026-04-06T12:22:41.009Z</time></trkpt><trkpt lat="43.9114587" lon="12.1305684"><ele>211.0</ele><time>2026-04-06T12:22:42.008Z</time></trkpt><trkpt lat="43.9114198" lon="12.1307455"><ele>211.0</ele><time>2026-04-06T12:22:43.008Z</time></trkpt><trkpt lat="43.9113824" lon="12.1309016"><ele>211.0</ele><time>2026-04-06T12:22:44.007Z</time></trkpt><trkpt lat="43.9114012" lon="12.1310523"><ele>215.0</ele><time>2026-04-06T12:22:45.008Z</time></trkpt><trkpt lat="43.9114514" lon="12.1311924"><ele>219.0</ele><time>2026-04-06T12:22:46.008Z</time></trkpt><trkpt lat="43.9115204" lon="12.131306"><ele>223.00000000000003</ele><time>2026-04-06T12:22:47.005Z</time></trkpt><trkpt lat="43.9115686" lon="12.1314064"><ele>227.0</ele><time>2026-04-06T12:22:48.006Z</time></trkpt><trkpt lat="43.9115511" lon="12.131548"><ele>231.0</ele><time>2026-04-06T12:22:50.007Z</time></trkpt><trkpt lat="43.9114426" lon="12.1314986"><ele>231.0</ele><time>2026-04-06T12:22:53.013Z</time></trkpt><trkpt lat="43.9113833" lon="12.1313879"><ele>231.0</ele><time>2026-04-06T12:22:54.007Z</time></trkpt><trkpt lat="43.9113016" lon="12.1312224"><ele>231.0</ele><time>2026-04-06T12:22:55.009Z</time></trkpt><trkpt lat="43.9112367" lon="12.1310402"><ele>231.0</ele><time>2026-04-06T12:22:56.009Z</time></trkpt><trkpt lat="43.9112003" lon="12.130847"><ele>226.0</ele><time>2026-04-06T12:22:57.01Z</time></trkpt><trkpt lat="43.9111852" lon="12.1306562"><ele>221.0</ele><time>2026-04-06T12:22:58.009Z</time></trkpt><trkpt lat="43.9111732" lon="12.1304906"><ele>216.0</ele><time>2026-04-06T12:22:59.007Z</time></trkpt><trkpt lat="43.9111394" lon="12.1303561"><ele>211.0</ele><time>2026-04-06T12:23:00.009Z</time></trkpt><trkpt lat="43.9110798" lon="12.1302427"><ele>211.0</ele><time>2026-04-06T12:23:01.009Z</time></trkpt><trkpt lat="43.9109948" lon="12.1301526"><ele>211.0</ele><time>2026-04-06T12:23:02.009Z</time></trkpt><trkpt lat="43.9108945" lon="12.1300694"><ele>211.0</ele><time>2026-04-06T12:23:03.009Z</time></trkpt><trkpt lat="43.9107666" lon="12.1300053"><ele>211.0</ele><time>2026-04-06T12:23:04.008Z</time></trkpt><trkpt lat="43.9106137" lon="12.1299326"><ele>207.66666666666666</ele><time>2026-04-06T12:23:05.009Z</time></trkpt><trkpt lat="43.9104426" lon="12.1298504"><ele>204.33333333333331</ele><time>2026-04-06T12:23:06.008Z</time></trkpt><trkpt lat="43.9102619" lon="12.1297619"><ele>201.0</ele><time>2026-04-06T12:23:07.009Z</time></trkpt><trkpt lat="43.9100904" lon="12.1296762"><ele>213.0</ele><time>2026-04-06T12:23:08.008Z</time></trkpt><trkpt lat="43.9099338" lon="12.1295829"><ele>225.0</ele><time>2026-04-06T12:23:09.007Z</time></trkpt><trkpt lat="43.9097903" lon="12.1294775"><ele>237.0</ele><time>2026-04-06T12:23:10.01Z</time></trkpt><trkpt lat="43.9096674" lon="12.1293176"><ele>237.0</ele><time>2026-04-06T12:23:11.007Z</time></trkpt><trkpt lat="43.9095568" lon="12.1291259"><ele>237.0</ele><time>2026-04-06T12:23:12.008Z</time></trkpt><trkpt lat="43.9094424" lon="12.1289322"><ele>237.0</ele><time>2026-04-06T12:23:13.007Z</time></trkpt><trkpt lat="43.9093236" lon="12.128732"><ele>236.33333333333331</ele><time>2026-04-06T12:23:14.008Z</time></trkpt><trkpt lat="43.9092028" lon="12.1285359"><ele>235.66666666666666</ele><time>2026-04-06T12:23:15.009Z</time></trkpt><trkpt lat="43.909085" lon="12.1283465"><ele>235.0</ele><time>2026-04-06T12:23:16.008Z</time></trkpt><trkpt lat="43.9089819" lon="12.1281666"><ele>235.0</ele><time>2026-04-06T12:23:17.008Z</time></trkpt><trkpt lat="43.9088953" lon="12.1280022"><ele>235.0</ele><time>2026-04-06T12:23:18.008Z</time></trkpt><trkpt lat="43.9088112" lon="12.1278551"><ele>235.0</ele><time>2026-04-06T12:23:19.008Z</time></trkpt><trkpt lat="43.9087177" lon="12.1277431"><ele>235.0</ele><time>2026-04-06T12:23:20.009Z</time></trkpt><trkpt lat="43.9086143" lon="12.1276654"><ele>235.0</ele><time>2026-04-06T12:23:21.007Z</time></trkpt><trkpt lat="43.9084966" lon="12.1276349"><ele>235.0</ele><time>2026-04-06T12:23:22.009Z</time></trkpt><trkpt lat="43.9083687" lon="12.1276534"><ele>235.0</ele><time>2026-04-06T12:23:23.008Z</time></trkpt><trkpt lat="43.9082291" lon="12.1277035"><ele>235.0</ele><time>2026-04-06T12:23:24.008Z</time></trkpt><trkpt lat="43.9080784" lon="12.127774"><ele>248.66666666666666</ele><time>2026-04-06T12:23:25.012Z</time></trkpt><trkpt lat="43.907923" lon="12.1278446"><ele>262.3333333333333</ele><time>2026-04-06T12:23:26.008Z</time></trkpt><trkpt lat="43.9077579" lon="12.1279146"><ele>276.0</ele><time>2026-04-06T12:23:27.008Z</time></trkpt><trkpt lat="43.9075801" lon="12.1279855"><ele>277.0</ele><time>2026-04-06T12:23:28.006Z</time></trkpt><trkpt lat="43.9073913" lon="12.1280634"><ele>278.0</ele><time>2026-04-06T12:23:29.009Z</time></trkpt><trkpt lat="43.907197" lon="12.1281443"><ele>279.0</ele><time>2026-04-06T12:23:30.009Z</time></trkpt><trkpt lat="43.9070011" lon="12.1282373"><ele>279.3333333333333</ele><time>2026-04-06T12:23:31.007Z</time></trkpt><trkpt lat="43.9068072" lon="12.1283315"><ele>279.66666666666663</ele><time>2026-04-06T12:23:32.009Z</time></trkpt><trkpt lat="43.9066258" lon="12.1284202"><ele>280.0</ele><time>2026-04-06T12:23:33.008Z</time></trkpt><trkpt lat="43.9064756" lon="12.1284925"><ele>281.6</ele><time>2026-04-06T12:23:34.009Z</time></trkpt><trkpt lat="43.9063526" lon="12.1285556"><ele>283.2</ele><time>2026-04-06T12:23:35.006Z</time></trkpt><trkpt lat="43.9062592" lon="12.1286281"><ele>284.8</ele><time>2026-04-06T12:23:36.009Z</time></trkpt><trkpt lat="43.9061922" lon="12.1287291"><ele>286.4</ele><time>2026-04-06T12:23:37.008Z</time></trkpt><trkpt lat="43.9061531" lon="12.128853"><ele>288.0</ele><time>2026-04-06T12:23:38.007Z</time></trkpt><trkpt lat="43.9061563" lon="12.1289957"><ele>290.3333333333333</ele><time>2026-04-06T12:23:39.008Z</time></trkpt><trkpt lat="43.9061968" lon="12.1291558"><ele>292.66666666666663</ele><time>2026-04-06T12:23:40.009Z</time></trkpt><trkpt lat="43.9062739" lon="12.129347"><ele>295.0</ele><time>2026-04-06T12:23:41.008Z</time></trkpt><trkpt lat="43.9063645" lon="12.129563"><ele>295.0</ele><time>2026-04-06T12:23:42.008Z</time></trkpt><trkpt lat="43.9064503" lon="12.1297799"><ele>295.0</ele><time>2026-04-06T12:23:43.01Z</time></trkpt><trkpt lat="43.9065325" lon="12.1299841"><ele>295.0</ele><time>2026-04-06T12:23:44.009Z</time></trkpt><trkpt lat="43.9066167" lon="12.1301862"><ele>294.75</ele><time>2026-04-06T12:23:45.012Z</time></trkpt><trkpt lat="43.9066957" lon="12.1303764"><ele>294.5</ele><time>2026-04-06T12:23:46.011Z</time></trkpt><trkpt lat="43.9067731" lon="12.1305469"><ele>294.25</ele><time>2026-04-06T12:23:47.01Z</time></trkpt><trkpt lat="43.9068376" lon="12.1306948"><ele>294.0</ele><time>2026-04-06T12:23:48.01Z</time></trkpt><trkpt lat="43.9068819" lon="12.1308126"><ele>294.0</ele><time>2026-04-06T12:23:49.009Z</time></trkpt><trkpt lat="43.9068998" lon="12.1309099"><ele>294.0</ele><time>2026-04-06T12:23:50.01Z</time></trkpt><trkpt lat="43.9068866" lon="12.1310564"><ele>294.0</ele><time>2026-04-06T12:23:52.012Z</time></trkpt><trkpt lat="43.9067831" lon="12.1310208"><ele>294.0</ele><time>2026-04-06T12:23:54.009Z</time></trkpt><trkpt lat="43.9067189" lon="12.1309252"><ele>294.0</ele><time>2026-04-06T12:23:55.009Z</time></trkpt><trkpt lat="43.9066238" lon="12.1307268"><ele>298.3333333333333</ele><time>2026-04-06T12:23:56.008Z</time></trkpt><trkpt lat="43.9065193" lon="12.1305274"><ele>302.66666666666663</ele><time>2026-04-06T12:23:57.009Z</time></trkpt><trkpt lat="43.9064057" lon="12.1303258"><ele>307.0</ele><time>2026-04-06T12:23:58.008Z</time></trkpt><trkpt lat="43.9062857" lon="12.130137"><ele>307.0</ele><time>2026-04-06T12:23:59.009Z</time></trkpt><trkpt lat="43.9061837" lon="12.1299724"><ele>307.0</ele><time>2026-04-06T12:24:00.008Z</time></trkpt><trkpt lat="43.9060921" lon="12.1298428"><ele>307.0</ele><time>2026-04-06T12:24:01.012Z</time></trkpt><trkpt lat="43.9060114" lon="12.1297647"><ele>307.0</ele><time>2026-04-06T12:24:02.01Z</time></trkpt><trkpt lat="43.9059256" lon="12.1297316"><ele>308.25</ele><time>2026-04-06T12:24:03.008Z</time></trkpt><trkpt lat="43.9058385" lon="12.1297285"><ele>309.5</ele><time>2026-04-06T12:24:04.007Z</time></trkpt><trkpt lat="43.9057238" lon="12.1297807"><ele>310.75</ele><time>2026-04-06T12:24:05.007Z</time></trkpt><trkpt lat="43.905579" lon="12.1298505"><ele>312.0</ele><time>2026-04-06T12:24:06.009Z</time></trkpt><trkpt lat="43.905433" lon="12.1298962"><ele>312.0</ele><time>2026-04-06T12:24:07.008Z</time></trkpt><trkpt lat="43.90529" lon="12.1298919"><ele>312.0</ele><time>2026-04-06T12:24:08.008Z</time></trkpt><trkpt lat="43.9051505" lon="12.1298354"><ele>312.0</ele><time>2026-04-06T12:24:09.007Z</time></trkpt><trkpt lat="43.905024" lon="12.1297354"><ele>312.0</ele><time>2026-04-06T12:24:10.009Z</time></trkpt><trkpt lat="43.9049081" lon="12.1296038"><ele>319.0</ele><time>2026-04-06T12:24:11.008Z</time></trkpt><trkpt lat="43.9048093" lon="12.1294433"><ele>326.0</ele><time>2026-04-06T12:24:12.009Z</time></trkpt><trkpt lat="43.9047297" lon="12.1292582"><ele>333.0</ele><time>2026-04-06T12:24:13.007Z</time></trkpt><trkpt lat="43.9046685" lon="12.1290506"><ele>333.0</ele><time>2026-04-06T12:24:14.007Z</time></trkpt><trkpt lat="43.9046233" lon="12.1288228"><ele>333.0</ele><time>2026-04-06T12:24:15.008Z</time></trkpt><trkpt lat="43.9045867" lon="12.1285833"><ele>333.0</ele><time>2026-04-06T12:24:16.009Z</time></trkpt><trkpt lat="43.9045504" lon="12.1283474"><ele>331.75</ele><time>2026-04-06T12:24:17.008Z</time></trkpt><trkpt lat="43.9045173" lon="12.1281284"><ele>330.5</ele><time>2026-04-06T12:24:18.008Z</time></trkpt><trkpt lat="43.9044926" lon="12.1279328"><ele>329.25</ele><time>2026-04-06T12:24:19.008Z</time></trkpt><trkpt lat="43.9044751" lon="12.1277572"><ele>328.0</ele><time>2026-04-06T12:24:20.008Z</time></trkpt><trkpt lat="43.9044537" lon="12.1275975"><ele>328.0</ele><time>2026-04-06T12:24:21.009Z</time></trkpt><trkpt lat="43.9044301" lon="12.1274656"><ele>328.0</ele><time>2026-04-06T12:24:22.007Z</time></trkpt><trkpt lat="43.9043938" lon="12.1273496"><ele>328.0</ele><time>2026-04-06T12:24:23.008Z</time></trkpt><trkpt lat="43.9043459" lon="12.1272529"><ele>328.0</ele><time>2026-04-06T12:24:24.007Z</time></trkpt><trkpt lat="43.9042846" lon="12.1271829"><ele>328.0</ele><time>2026-04-06T12:24:25.007Z</time></trkpt><trkpt lat="43.9042222" lon="12.1271328"><ele>328.0</ele><time>2026-04-06T12:24:26.007Z</time></trkpt><trkpt lat="43.904149" lon="12.1271105"><ele>331.0</ele><time>2026-04-06T12:24:27.008Z</time></trkpt><trkpt lat="43.9040771" lon="12.1270904"><ele>334.0</ele><time>2026-04-06T12:24:28.006Z</time></trkpt><trkpt lat="43.9039886" lon="12.1272653"><ele>337.0</ele><time>2026-04-06T12:24:29.007Z</time></trkpt><trkpt lat="43.9039187" lon="12.1274443"><ele>340.0</ele><time>2026-04-06T12:24:30.01Z</time></trkpt><trkpt lat="43.9038778" lon="12.1276313"><ele>346.3333333333333</ele><time>2026-04-06T12:24:31.007Z</time></trkpt><trkpt lat="43.9038471" lon="12.1278493"><ele>352.6666666666667</ele><time>2026-04-06T12:24:32.008Z</time></trkpt><trkpt lat="43.9038014" lon="12.1280645"><ele>359.0</ele><time>2026-04-06T12:24:33.008Z</time></trkpt><trkpt lat="43.9037361" lon="12.1282549"><ele>361.0</ele><time>2026-04-06T12:24:34.008Z</time></trkpt><trkpt lat="43.9036816" lon="12.1284221"><ele>363.0</ele><time>2026-04-06T12:24:35.007Z</time></trkpt><trkpt lat="43.9036506" lon="12.1285825"><ele>365.0</ele><time>2026-04-06T12:24:36.006Z</time></trkpt><trkpt lat="43.9036495" lon="12.1287486"><ele>367.0</ele><time>2026-04-06T12:24:37.007Z</time></trkpt><trkpt lat="43.9036828" lon="12.1289227"><ele>368.66666666666663</ele><time>2026-04-06T12:24:38.007Z</time></trkpt><trkpt lat="43.903744" lon="12.1291119"><ele>370.3333333333333</ele><time>2026-04-06T12:24:39.008Z</time></trkpt><trkpt lat="43.9038254" lon="12.1293078"><ele>372.0</ele><time>2026-04-06T12:24:40.006Z</time></trkpt><trkpt lat="43.9039214" lon="12.1295065"><ele>372.0</ele><time>2026-04-06T12:24:41.009Z</time></trkpt><trkpt lat="43.9040134" lon="12.1297105"><ele>372.0</ele><time>2026-04-06T12:24:42.006Z</time></trkpt><trkpt lat="43.9040958" lon="12.1299263"><ele>372.0</ele><time>2026-04-06T12:24:43.007Z</time></trkpt><trkpt lat="43.9041556" lon="12.1301585"><ele>373.3333333333333</ele><time>2026-04-06T12:24:44.009Z</time></trkpt><trkpt lat="43.9041952" lon="12.130394"><ele>374.66666666666663</ele><time>2026-04-06T12:24:45.007Z</time></trkpt><trkpt lat="43.9042107" lon="12.1306184"><ele>376.0</ele><time>2026-04-06T12:24:46.009Z</time></trkpt><trkpt lat="43.9041964" lon="12.1308352"><ele>380.0</ele><time>2026-04-06T12:24:47.006Z</time></trkpt><trkpt lat="43.904148" lon="12.1310482"><ele>384.0</ele><time>2026-04-06T12:24:48.008Z</time></trkpt><trkpt lat="43.9040816" lon="12.1312546"><ele>388.0</ele><time>2026-04-06T12:24:49.008Z</time></trkpt><trkpt lat="43.9040266" lon="12.1314697"><ele>393.0</ele><time>2026-04-06T12:24:50.008Z</time></trkpt><trkpt lat="43.9039938" lon="12.1316908"><ele>398.0</ele><time>2026-04-06T12:24:51.008Z</time></trkpt><trkpt lat="43.9039674" lon="12.1319112"><ele>403.0</ele><time>2026-04-06T12:24:52.008Z</time></trkpt><trkpt lat="43.903928" lon="12.1321111"><ele>403.0</ele><time>2026-04-06T12:24:53.009Z</time></trkpt><trkpt lat="43.9038719" lon="12.1322749"><ele>403.0</ele><time>2026-04-06T12:24:54.008Z</time></trkpt><trkpt lat="43.9038011" lon="12.1324053"><ele>403.0</ele><time>2026-04-06T12:24:55.008Z</time></trkpt><trkpt lat="43.9037117" lon="12.1324924"><ele>403.0</ele><time>2026-04-06T12:24:56.008Z</time></trkpt><trkpt lat="43.9036093" lon="12.132555"><ele>403.75</ele><time>2026-04-06T12:24:57.007Z</time></trkpt><trkpt lat="43.9034981" lon="12.1326168"><ele>404.5</ele><time>2026-04-06T12:24:58.007Z</time></trkpt><trkpt lat="43.9033842" lon="12.1326851"><ele>405.25</ele><time>2026-04-06T12:24:59.009Z</time></trkpt><trkpt lat="43.9032601" lon="12.1327419"><ele>406.0</ele><time>2026-04-06T12:25:00.009Z</time></trkpt><trkpt lat="43.903114" lon="12.1327757"><ele>404.0</ele><time>2026-04-06T12:25:01.01Z</time></trkpt><trkpt lat="43.9029663" lon="12.1328058"><ele>402.0</ele><time>2026-04-06T12:25:02.008Z</time></trkpt><trkpt lat="43.902818" lon="12.1328269"><ele>400.0</ele><time>2026-04-06T12:25:03.008Z</time></trkpt><trkpt lat="43.9026684" lon="12.1328243"><ele>398.0</ele><time>2026-04-06T12:25:04.012Z</time></trkpt><trkpt lat="43.9025275" lon="12.1328288"><ele>398.0</ele><time>2026-04-06T12:25:05.007Z</time></trkpt><trkpt lat="43.902394" lon="12.1328653"><ele>398.0</ele><time>2026-04-06T12:25:06.009Z</time></trkpt><trkpt lat="43.9022627" lon="12.1329291"><ele>398.0</ele><time>2026-04-06T12:25:07.009Z</time></trkpt><trkpt lat="43.9021278" lon="12.1330149"><ele>398.0</ele><time>2026-04-06T12:25:08.009Z</time></trkpt><trkpt lat="43.9019955" lon="12.1331276"><ele>399.66666666666663</ele><time>2026-04-06T12:25:09.008Z</time></trkpt><trkpt lat="43.9018696" lon="12.1332677"><ele>401.33333333333337</ele><time>2026-04-06T12:25:10.008Z</time></trkpt><trkpt lat="43.9017499" lon="12.1334244"><ele>403.0</ele><time>2026-04-06T12:25:11.008Z</time></trkpt><trkpt lat="43.9016335" lon="12.1335728"><ele>403.0</ele><time>2026-04-06T12:25:12.008Z</time></trkpt><trkpt lat="43.9015163" lon="12.1337095"><ele>403.0</ele><time>2026-04-06T12:25:13.008Z</time></trkpt><trkpt lat="43.9013849" lon="12.1338284"><ele>403.0</ele><time>2026-04-06T12:25:14.007Z</time></trkpt><trkpt lat="43.9012349" lon="12.1339304"><ele>403.0</ele><time>2026-04-06T12:25:15.012Z</time></trkpt><trkpt lat="43.9010722" lon="12.1340386"><ele>403.0</ele><time>2026-04-06T12:25:16.011Z</time></trkpt><trkpt lat="43.9009083" lon="12.1341556"><ele>403.0</ele><time>2026-04-06T12:25:17.008Z</time></trkpt><trkpt lat="43.9007578" lon="12.1342679"><ele>403.25</ele><time>2026-04-06T12:25:18.008Z</time></trkpt><trkpt lat="43.9006247" lon="12.1343743"><ele>403.5</ele><time>2026-04-06T12:25:19.008Z</time></trkpt><trkpt lat="43.9005016" lon="12.1344666"><ele>403.75</ele><time>2026-04-06T12:25:20.009Z</time></trkpt><trkpt lat="43.9003791" lon="12.1345264"><ele>404.0</ele><time>2026-04-06T12:25:21.009Z</time></trkpt><trkpt lat="43.9002545" lon="12.1345404"><ele>404.0</ele><time>2026-04-06T12:25:22.008Z</time></trkpt><trkpt lat="43.9001242" lon="12.1345025"><ele>404.0</ele><time>2026-04-06T12:25:23.009Z</time></trkpt><trkpt lat="43.8999911" lon="12.1344174"><ele>404.0</ele><time>2026-04-06T12:25:24.009Z</time></trkpt><trkpt lat="43.8998597" lon="12.1343106"><ele>404.0</ele><time>2026-04-06T12:25:25.009Z</time></trkpt><trkpt lat="43.8997223" lon="12.134204"><ele>401.0</ele><time>2026-04-06T12:25:26.008Z</time></trkpt><trkpt lat="43.8995812" lon="12.1340872"><ele>398.0</ele><time>2026-04-06T12:25:27.008Z</time></trkpt><trkpt lat="43.899439" lon="12.1339507"><ele>395.0</ele><time>2026-04-06T12:25:28.009Z</time></trkpt><trkpt lat="43.8993028" lon="12.1338059"><ele>401.75</ele><time>2026-04-06T12:25:29.007Z</time></trkpt><trkpt lat="43.8991823" lon="12.1336766"><ele>408.5</ele><time>2026-04-06T12:25:30.011Z</time></trkpt><trkpt lat="43.8990808" lon="12.1335675"><ele>415.25</ele><time>2026-04-06T12:25:31.01Z</time></trkpt><trkpt lat="43.8989913" lon="12.1334829"><ele>422.0</ele><time>2026-04-06T12:25:32.008Z</time></trkpt><trkpt lat="43.8989219" lon="12.1334338"><ele>422.0</ele><time>2026-04-06T12:25:33.009Z</time></trkpt><trkpt lat="43.8988238" lon="12.1334467"><ele>422.0</ele><time>2026-04-06T12:25:35.01Z</time></trkpt><trkpt lat="43.8988429" lon="12.1336073"><ele>422.0</ele><time>2026-04-06T12:25:37.008Z</time></trkpt><trkpt lat="43.8989108" lon="12.1337139"><ele>422.0</ele><time>2026-04-06T12:25:38.007Z</time></trkpt><trkpt lat="43.8990284" lon="12.1338121"><ele>422.0</ele><time>2026-04-06T12:25:39.007Z</time></trkpt><trkpt lat="43.8991575" lon="12.1339308"><ele>422.0</ele><time>2026-04-06T12:25:40.008Z</time></trkpt><trkpt lat="43.8992792" lon="12.1340865"><ele>422.0</ele><time>2026-04-06T12:25:41.01Z</time></trkpt><trkpt lat="43.8993964" lon="12.1342696"><ele>420.3333333333333</ele><time>2026-04-06T12:25:42.009Z</time></trkpt><trkpt lat="43.8995164" lon="12.1344723"><ele>418.66666666666663</ele><time>2026-04-06T12:25:43.008Z</time></trkpt><trkpt lat="43.8996381" lon="12.134675"><ele>417.0</ele><time>2026-04-06T12:25:44.01Z</time></trkpt><trkpt lat="43.8997616" lon="12.1348627"><ele>423.75</ele><time>2026-04-06T12:25:45.007Z</time></trkpt><trkpt lat="43.8998698" lon="12.1350296"><ele>430.5</ele><time>2026-04-06T12:25:46.008Z</time></trkpt><trkpt lat="43.8999489" lon="12.1351699"><ele>437.25</ele><time>2026-04-06T12:25:47.007Z</time></trkpt><trkpt lat="43.8999916" lon="12.1352716"><ele>444.0</ele><time>2026-04-06T12:25:48.007Z</time></trkpt><trkpt lat="43.9000426" lon="12.1353619"><ele>440.2</ele><time>2026-04-06T12:25:50.007Z</time></trkpt><trkpt lat="43.9001061" lon="12.1354747"><ele>436.4</ele><time>2026-04-06T12:26:05.009Z</time></trkpt><trkpt lat="43.9001474" lon="12.1355585"><ele>432.6</ele><time>2026-04-06T12:26:06.009Z</time></trkpt><trkpt lat="43.9001714" lon="12.1356752"><ele>428.8</ele><time>2026-04-06T12:26:07.009Z</time></trkpt><trkpt lat="43.9001769" lon="12.1358047"><ele>425.0</ele><time>2026-04-06T12:26:08.01Z</time></trkpt><trkpt lat="43.900161" lon="12.135942"><ele>425.0</ele><time>2026-04-06T12:26:09.012Z</time></trkpt><trkpt lat="43.9001367" lon="12.1360643"><ele>425.0</ele><time>2026-04-06T12:26:10.009Z</time></trkpt><trkpt lat="43.9001088" lon="12.1361638"><ele>425.0</ele><time>2026-04-06T12:26:11.008Z</time></trkpt><trkpt lat="43.90004" lon="12.1362918"><ele>425.0</ele><time>2026-04-06T12:26:13.007Z</time></trkpt><trkpt lat="43.8999398" lon="12.1363427"><ele>425.0</ele><time>2026-04-06T12:26:15.009Z</time></trkpt><trkpt lat="43.8998487" lon="12.1362611"><ele>435.3333333333333</ele><time>2026-04-06T12:26:16.009Z</time></trkpt><trkpt lat="43.8997389" lon="12.1361456"><ele>445.66666666666663</ele><time>2026-04-06T12:26:17.009Z</time></trkpt><trkpt lat="43.8996109" lon="12.1360271"><ele>456.0</ele><time>2026-04-06T12:26:18.008Z</time></trkpt><trkpt lat="43.899466" lon="12.1359127"><ele>456.0</ele><time>2026-04-06T12:26:19.009Z</time></trkpt><trkpt lat="43.8993048" lon="12.1357957"><ele>456.0</ele><time>2026-04-06T12:26:20.009Z</time></trkpt><trkpt lat="43.8991349" lon="12.1356771"><ele>456.0</ele><time>2026-04-06T12:26:21.01Z</time></trkpt><trkpt lat="43.8989577" lon="12.1355576"><ele>460.33333333333337</ele><time>2026-04-06T12:26:22.007Z</time></trkpt><trkpt lat="43.8987805" lon="12.1354475"><ele>464.6666666666667</ele><time>2026-04-06T12:26:23.01Z</time></trkpt><trkpt lat="43.8986147" lon="12.135357"><ele>469.0</ele><time>2026-04-06T12:26:24.009Z</time></trkpt><trkpt lat="43.8984544" lon="12.1353012"><ele>472.6666666666667</ele><time>2026-04-06T12:26:25.009Z</time></trkpt><trkpt lat="43.8983011" lon="12.1352866"><ele>476.33333333333337</ele><time>2026-04-06T12:26:26.008Z</time></trkpt><trkpt lat="43.8981515" lon="12.1353174"><ele>480.0</ele><time>2026-04-06T12:26:27.01Z</time></trkpt><trkpt lat="43.8980038" lon="12.1353804"><ele>480.0</ele><time>2026-04-06T12:26:28.009Z</time></trkpt><trkpt lat="43.8978653" lon="12.135461"><ele>480.0</ele><time>2026-04-06T12:26:29.009Z</time></trkpt><trkpt lat="43.8977431" lon="12.1355375"><ele>480.0</ele><time>2026-04-06T12:26:30.007Z</time></trkpt><trkpt lat="43.8976315" lon="12.1355765"><ele>480.0</ele><time>2026-04-06T12:26:31.009Z</time></trkpt><trkpt lat="43.8975286" lon="12.135556"><ele>483.25</ele><time>2026-04-06T12:26:32.007Z</time></trkpt><trkpt lat="43.8974406" lon="12.1354797"><ele>486.5</ele><time>2026-04-06T12:26:33.009Z</time></trkpt><trkpt lat="43.8973622" lon="12.1353653"><ele>489.75</ele><time>2026-04-06T12:26:34.008Z</time></trkpt><trkpt lat="43.8972756" lon="12.1352485"><ele>493.0</ele><time>2026-04-06T12:26:35.008Z</time></trkpt><trkpt lat="43.8971653" lon="12.1351647"><ele>493.0</ele><time>2026-04-06T12:26:36.009Z</time></trkpt><trkpt lat="43.8970381" lon="12.135111"><ele>493.0</ele><time>2026-04-06T12:26:37.009Z</time></trkpt><trkpt lat="43.8968979" lon="12.1350804"><ele>493.0</ele><time>2026-04-06T12:26:38.008Z</time></trkpt><trkpt lat="43.8967528" lon="12.135056"><ele>493.0</ele><time>2026-04-06T12:26:39.008Z</time></trkpt><trkpt lat="43.8966174" lon="12.1350251"><ele>493.79999999999995</ele><time>2026-04-06T12:26:40.009Z</time></trkpt><trkpt lat="43.8964998" lon="12.1349779"><ele>494.59999999999997</ele><time>2026-04-06T12:26:41.01Z</time></trkpt><trkpt lat="43.8964045" lon="12.1349108"><ele>495.40000000000003</ele><time>2026-04-06T12:26:42.009Z</time></trkpt><trkpt lat="43.8963407" lon="12.1348112"><ele>496.20000000000005</ele><time>2026-04-06T12:26:43.012Z</time></trkpt><trkpt lat="43.8963072" lon="12.1346914"><ele>497.0</ele><time>2026-04-06T12:26:44.009Z</time></trkpt><trkpt lat="43.8962972" lon="12.1345423"><ele>498.75</ele><time>2026-04-06T12:26:45.01Z</time></trkpt><trkpt lat="43.8962791" lon="12.1343827"><ele>500.5</ele><time>2026-04-06T12:26:46.007Z</time></trkpt><trkpt lat="43.8962353" lon="12.1342138"><ele>502.25</ele><time>2026-04-06T12:26:47.011Z</time></trkpt><trkpt lat="43.8961582" lon="12.1340463"><ele>504.0</ele><time>2026-04-06T12:26:48.008Z</time></trkpt><trkpt lat="43.8960708" lon="12.1338783"><ele>504.0</ele><time>2026-04-06T12:26:49.008Z</time></trkpt><trkpt lat="43.8959934" lon="12.1337117"><ele>504.0</ele><time>2026-04-06T12:26:50.008Z</time></trkpt><trkpt lat="43.8959368" lon="12.1335485"><ele>504.0</ele><time>2026-04-06T12:26:51.009Z</time></trkpt><trkpt lat="43.8958882" lon="12.1334024"><ele>504.0</ele><time>2026-04-06T12:26:52.008Z</time></trkpt><trkpt lat="43.8958206" lon="12.1332733"><ele>505.25</ele><time>2026-04-06T12:26:53.008Z</time></trkpt><trkpt lat="43.8957259" lon="12.1331546"><ele>506.5</ele><time>2026-04-06T12:26:54.008Z</time></trkpt><trkpt lat="43.8956089" lon="12.133047"><ele>507.75</ele><time>2026-04-06T12:26:55.01Z</time></trkpt><trkpt lat="43.8954795" lon="12.1329464"><ele>509.0</ele><time>2026-04-06T12:26:56.008Z</time></trkpt><trkpt lat="43.8953365" lon="12.1328681"><ele>509.0</ele><time>2026-04-06T12:26:57.011Z</time></trkpt><trkpt lat="43.8951843" lon="12.1328117"><ele>509.0</ele><time>2026-04-06T12:26:58.009Z</time></trkpt><trkpt lat="43.8950374" lon="12.13278"><ele>509.0</ele><time>2026-04-06T12:26:59.008Z</time></trkpt><trkpt lat="43.8949008" lon="12.1327509"><ele>509.0</ele><time>2026-04-06T12:27:00.008Z</time></trkpt><trkpt lat="43.8947696" lon="12.1326992"><ele>513.0</ele><time>2026-04-06T12:27:01.008Z</time></trkpt><trkpt lat="43.8946422" lon="12.1326133"><ele>517.0</ele><time>2026-04-06T12:27:02.008Z</time></trkpt><trkpt lat="43.8945117" lon="12.1325143"><ele>521.0</ele><time>2026-04-06T12:27:03.008Z</time></trkpt><trkpt lat="43.8943748" lon="12.1324322"><ele>525.0</ele><time>2026-04-06T12:27:04.011Z</time></trkpt><trkpt lat="43.894223" lon="12.1323866"><ele>532.6666666666666</ele><time>2026-04-06T12:27:05.01Z</time></trkpt><trkpt lat="43.894059" lon="12.1323771"><ele>540.3333333333333</ele><time>2026-04-06T12:27:06.009Z</time></trkpt><trkpt lat="43.8938904" lon="12.1323802"><ele>548.0</ele><time>2026-04-06T12:27:07.008Z</time></trkpt><trkpt lat="43.8937224" lon="12.1323709"><ele>548.0</ele><time>2026-04-06T12:27:08.01Z</time></trkpt><trkpt lat="43.893556" lon="12.1323481"><ele>548.0</ele><time>2026-04-06T12:27:09.008Z</time></trkpt><trkpt lat="43.8933973" lon="12.1323119"><ele>548.0</ele><time>2026-04-06T12:27:10.009Z</time></trkpt><trkpt lat="43.893254" lon="12.1322669"><ele>551.25</ele><time>2026-04-06T12:27:11.012Z</time></trkpt><trkpt lat="43.8931217" lon="12.1322126"><ele>554.5</ele><time>2026-04-06T12:27:12.009Z</time></trkpt><trkpt lat="43.8930001" lon="12.1321219"><ele>557.75</ele><time>2026-04-06T12:27:13.008Z</time></trkpt><trkpt lat="43.892897" lon="12.1319902"><ele>561.0</ele><time>2026-04-06T12:27:14.01Z</time></trkpt><trkpt lat="43.8928134" lon="12.1318266"><ele>561.0</ele><time>2026-04-06T12:27:15.008Z</time></trkpt><trkpt lat="43.8927505" lon="12.1316456"><ele>561.0</ele><time>2026-04-06T12:27:16.008Z</time></trkpt><trkpt lat="43.8926923" lon="12.131472"><ele>561.0</ele><time>2026-04-06T12:27:17.008Z</time></trkpt><trkpt lat="43.8926048" lon="12.1313234"><ele>561.0</ele><time>2026-04-06T12:27:18.013Z</time></trkpt><trkpt lat="43.8924893" lon="12.1311859"><ele>563.6666666666666</ele><time>2026-04-06T12:27:19.009Z</time></trkpt><trkpt lat="43.892366" lon="12.1310484"><ele>566.3333333333333</ele><time>2026-04-06T12:27:20.008Z</time></trkpt><trkpt lat="43.8922371" lon="12.1309097"><ele>569.0</ele><time>2026-04-06T12:27:21.009Z</time></trkpt><trkpt lat="43.8920996" lon="12.1307751"><ele>572.0</ele><time>2026-04-06T12:27:22.009Z</time></trkpt><trkpt lat="43.8919499" lon="12.130647"><ele>575.0</ele><time>2026-04-06T12:27:23.007Z</time></trkpt><trkpt lat="43.8917761" lon="12.1305458"><ele>578.0</ele><time>2026-04-06T12:27:24.008Z</time></trkpt><trkpt lat="43.8915961" lon="12.130456"><ele>578.0</ele><time>2026-04-06T12:27:25.009Z</time></trkpt><trkpt lat="43.8914066" lon="12.1303862"><ele>578.0</ele><time>2026-04-06T12:27:26.01Z</time></trkpt><trkpt lat="43.8912124" lon="12.1303284"><ele>578.0</ele><time>2026-04-06T12:27:27.011Z</time></trkpt><trkpt lat="43.8910196" lon="12.1302609"><ele>577.0</ele><time>2026-04-06T12:27:28.008Z</time></trkpt><trkpt lat="43.8908337" lon="12.1301772"><ele>576.0</ele><time>2026-04-06T12:27:29.007Z</time></trkpt><trkpt lat="43.8906595" lon="12.1300755"><ele>575.0</ele><time>2026-04-06T12:27:30.007Z</time></trkpt><trkpt lat="43.8904974" lon="12.1299741"><ele>571.0</ele><time>2026-04-06T12:27:31.007Z</time></trkpt><trkpt lat="43.8903492" lon="12.1298832"><ele>567.0</ele><time>2026-04-06T12:27:32.007Z</time></trkpt><trkpt lat="43.8902122" lon="12.1298068"><ele>563.0</ele><time>2026-04-06T12:27:33.009Z</time></trkpt><trkpt lat="43.8900828" lon="12.1297484"><ele>559.0</ele><time>2026-04-06T12:27:34.01Z</time></trkpt><trkpt lat="43.8899524" lon="12.1297117"><ele>559.0</ele><time>2026-04-06T12:27:35.009Z</time></trkpt><trkpt lat="43.8898153" lon="12.1296968"><ele>559.0</ele><time>2026-04-06T12:27:36.009Z</time></trkpt><trkpt lat="43.8896709" lon="12.1297151"><ele>559.0</ele><time>2026-04-06T12:27:37.008Z</time></trkpt><trkpt lat="43.8895348" lon="12.1297328"><ele>559.0</ele><time>2026-04-06T12:27:38.01Z</time></trkpt><trkpt lat="43.8894136" lon="12.1297352"><ele>559.0</ele><time>2026-04-06T12:27:39.01Z</time></trkpt><trkpt lat="43.8893014" lon="12.1297141"><ele>559.0</ele><time>2026-04-06T12:27:40.01Z</time></trkpt><trkpt lat="43.889195" lon="12.1296571"><ele>559.0</ele><time>2026-04-06T12:27:41.009Z</time></trkpt><trkpt lat="43.8890962" lon="12.129574"><ele>559.0</ele><time>2026-04-06T12:27:42.011Z</time></trkpt><trkpt lat="43.8889979" lon="12.1294813"><ele>561.6</ele><time>2026-04-06T12:27:43.01Z</time></trkpt><trkpt lat="43.8889004" lon="12.1293919"><ele>564.2</ele><time>2026-04-06T12:27:44.01Z</time></trkpt><trkpt lat="43.8888044" lon="12.1293171"><ele>566.8000000000001</ele><time>2026-04-06T12:27:45.01Z</time></trkpt><trkpt lat="43.888714" lon="12.129276"><ele>569.4</ele><time>2026-04-06T12:27:46.009Z</time></trkpt><trkpt lat="43.8886296" lon="12.1292671"><ele>572.0</ele><time>2026-04-06T12:27:47.009Z</time></trkpt><trkpt lat="43.8885416" lon="12.1292853"><ele>572.0</ele><time>2026-04-06T12:27:48.009Z</time></trkpt><trkpt lat="43.8884562" lon="12.1293664"><ele>572.0</ele><time>2026-04-06T12:27:49.008Z</time></trkpt><trkpt lat="43.8883681" lon="12.129489"><ele>572.0</ele><time>2026-04-06T12:27:50.009Z</time></trkpt><trkpt lat="43.8882701" lon="12.1296251"><ele>572.0</ele><time>2026-04-06T12:27:51.008Z</time></trkpt><trkpt lat="43.8881564" lon="12.129768"><ele>580.3333333333333</ele><time>2026-04-06T12:27:52.01Z</time></trkpt><trkpt lat="43.8880226" lon="12.1299135"><ele>588.6666666666666</ele><time>2026-04-06T12:27:53.008Z</time></trkpt><trkpt lat="43.8878628" lon="12.1300302"><ele>597.0</ele><time>2026-04-06T12:27:54.006Z</time></trkpt><trkpt lat="43.8876834" lon="12.1301255"><ele>597.3333333333334</ele><time>2026-04-06T12:27:55.008Z</time></trkpt><trkpt lat="43.8875083" lon="12.1302171"><ele>597.6666666666667</ele><time>2026-04-06T12:27:56.009Z</time></trkpt><trkpt lat="43.8873561" lon="12.1303011"><ele>598.0</ele><time>2026-04-06T12:27:57.007Z</time></trkpt><trkpt lat="43.8872377" lon="12.1303683"><ele>598.0</ele><time>2026-04-06T12:27:58.008Z</time></trkpt><trkpt lat="43.8871382" lon="12.1303919"><ele>598.0</ele><time>2026-04-06T12:27:59.007Z</time></trkpt><trkpt lat="43.8870498" lon="12.1303519"><ele>598.0</ele><time>2026-04-06T12:28:00.006Z</time></trkpt><trkpt lat="43.886976" lon="12.130262"><ele>598.0</ele><time>2026-04-06T12:28:01.006Z</time></trkpt><trkpt lat="43.8868909" lon="12.1301617"><ele>598.0</ele><time>2026-04-06T12:28:02.007Z</time></trkpt><trkpt lat="43.8867913" lon="12.1301054"><ele>601.5</ele><time>2026-04-06T12:28:03.009Z</time></trkpt><trkpt lat="43.8866759" lon="12.1300841"><ele>605.0</ele><time>2026-04-06T12:28:04.006Z</time></trkpt><trkpt lat="43.8865649" lon="12.1300636"><ele>608.5</ele><time>2026-04-06T12:28:05.009Z</time></trkpt><trkpt lat="43.8864546" lon="12.1300735"><ele>612.0</ele><time>2026-04-06T12:28:06.008Z</time></trkpt><trkpt lat="43.8863442" lon="12.1301397"><ele>612.0</ele><time>2026-04-06T12:28:07.008Z</time></trkpt><trkpt lat="43.8862374" lon="12.1302379"><ele>612.0</ele><time>2026-04-06T12:28:08.009Z</time></trkpt><trkpt lat="43.8861385" lon="12.1303122"><ele>612.0</ele><time>2026-04-06T12:28:09.011Z</time></trkpt><trkpt lat="43.8860444" lon="12.1303208"><ele>612.0</ele><time>2026-04-06T12:28:10.007Z</time></trkpt><trkpt lat="43.8859608" lon="12.1302681"><ele>612.0</ele><time>2026-04-06T12:28:11.011Z</time></trkpt><trkpt lat="43.8858861" lon="12.1301835"><ele>612.0</ele><time>2026-04-06T12:28:12.009Z</time></trkpt><trkpt lat="43.8858163" lon="12.1301611"><ele>612.0</ele><time>2026-04-06T12:28:13.009Z</time></trkpt><trkpt lat="43.8857519" lon="12.1301939"><ele>612.0</ele><time>2026-04-06T12:28:14.009Z</time></trkpt><trkpt lat="43.8856772" lon="12.1302791"><ele>612.0</ele><time>2026-04-06T12:28:15.008Z</time></trkpt><trkpt lat="43.8855925" lon="12.1304053"><ele>612.0</ele><time>2026-04-06T12:28:16.008Z</time></trkpt><trkpt lat="43.885492" lon="12.1305097"><ele>612.0</ele><time>2026-04-06T12:28:17.007Z</time></trkpt><trkpt lat="43.8853862" lon="12.1305828"><ele>612.0</ele><time>2026-04-06T12:28:18.01Z</time></trkpt><trkpt lat="43.8852738" lon="12.1305978"><ele>612.0</ele><time>2026-04-06T12:28:19.008Z</time></trkpt><trkpt lat="43.8851698" lon="12.1305957"><ele>612.0</ele><time>2026-04-06T12:28:20.007Z</time></trkpt><trkpt lat="43.8850927" lon="12.1306725"><ele>612.0</ele><time>2026-04-06T12:28:21.009Z</time></trkpt><trkpt lat="43.8850029" lon="12.1307754"><ele>619.0</ele><time>2026-04-06T12:28:22.009Z</time></trkpt><trkpt lat="43.884894" lon="12.1308651"><ele>626.0</ele><time>2026-04-06T12:28:23.012Z</time></trkpt><trkpt lat="43.8847691" lon="12.1309227"><ele>633.0</ele><time>2026-04-06T12:28:24.01Z</time></trkpt><trkpt lat="43.8846354" lon="12.1309518"><ele>640.0</ele><time>2026-04-06T12:28:25.01Z</time></trkpt><trkpt lat="43.8845095" lon="12.130964"><ele>640.0</ele><time>2026-04-06T12:28:26.01Z</time></trkpt><trkpt lat="43.8843899" lon="12.1309354"><ele>640.0</ele><time>2026-04-06T12:28:27.008Z</time></trkpt><trkpt lat="43.8842816" lon="12.1308565"><ele>640.0</ele><time>2026-04-06T12:28:28.009Z</time></trkpt><trkpt lat="43.884188" lon="12.1307265"><ele>640.0</ele><time>2026-04-06T12:28:29.007Z</time></trkpt><trkpt lat="43.884106" lon="12.1305709"><ele>637.2</ele><time>2026-04-06T12:28:30.005Z</time></trkpt><trkpt lat="43.8840121" lon="12.1304564"><ele>634.4</ele><time>2026-04-06T12:28:31.008Z</time></trkpt><trkpt lat="43.8839111" lon="12.1303622"><ele>631.6</ele><time>2026-04-06T12:28:32.008Z</time></trkpt><trkpt lat="43.8838394" lon="12.1302735"><ele>628.8</ele><time>2026-04-06T12:28:33.009Z</time></trkpt><trkpt lat="43.8837801" lon="12.1302112"><ele>626.0</ele><time>2026-04-06T12:28:34.008Z</time></trkpt><trkpt lat="43.8837089" lon="12.130204"><ele>626.0</ele><time>2026-04-06T12:28:35.008Z</time></trkpt><trkpt lat="43.883622" lon="12.130243"><ele>626.0</ele><time>2026-04-06T12:28:36.008Z</time></trkpt><trkpt lat="43.8835154" lon="12.1303161"><ele>626.0</ele><time>2026-04-06T12:28:37.007Z</time></trkpt><trkpt lat="43.8834044" lon="12.1303657"><ele>626.0</ele><time>2026-04-06T12:28:38.005Z</time></trkpt><trkpt lat="43.8832851" lon="12.130343"><ele>626.0</ele><time>2026-04-06T12:28:39.007Z</time></trkpt><trkpt lat="43.883164" lon="12.1302699"><ele>624.5</ele><time>2026-04-06T12:28:40.007Z</time></trkpt><trkpt lat="43.8830518" lon="12.1301762"><ele>623.0</ele><time>2026-04-06T12:28:41.007Z</time></trkpt><trkpt lat="43.8829338" lon="12.1300686"><ele>621.5</ele><time>2026-04-06T12:28:42.007Z</time></trkpt><trkpt lat="43.8828256" lon="12.1299336"><ele>620.0</ele><time>2026-04-06T12:28:43.012Z</time></trkpt><trkpt lat="43.8827276" lon="12.1298033"><ele>620.0</ele><time>2026-04-06T12:28:44.008Z</time></trkpt><trkpt lat="43.8826563" lon="12.129681"><ele>620.0</ele><time>2026-04-06T12:28:45.012Z</time></trkpt><trkpt lat="43.8826078" lon="12.129566"><ele>620.0</ele><time>2026-04-06T12:28:46.01Z</time></trkpt><trkpt lat="43.8825543" lon="12.1294884"><ele>620.0</ele><time>2026-04-06T12:28:47.007Z</time></trkpt><trkpt lat="43.8824906" lon="12.1294576"><ele>620.0</ele><time>2026-04-06T12:28:48.01Z</time></trkpt><trkpt lat="43.8824297" lon="12.1295707"><ele>626.25</ele><time>2026-04-06T12:28:50.01Z</time></trkpt><trkpt lat="43.8824444" lon="12.1296903"><ele>632.5</ele><time>2026-04-06T12:28:51.008Z</time></trkpt><trkpt lat="43.8825108" lon="12.1298335"><ele>638.75</ele><time>2026-04-06T12:28:52.009Z</time></trkpt><trkpt lat="43.8825714" lon="12.1299812"><ele>645.0</ele><time>2026-04-06T12:28:53.01Z</time></trkpt><trkpt lat="43.8826255" lon="12.130136"><ele>645.0</ele><time>2026-04-06T12:28:54.009Z</time></trkpt><trkpt lat="43.8827356" lon="12.130305"><ele>645.0</ele><time>2026-04-06T12:28:55.01Z</time></trkpt><trkpt lat="43.8828743" lon="12.1304636"><ele>645.0</ele><time>2026-04-06T12:28:56.01Z</time></trkpt><trkpt lat="43.8830108" lon="12.1306062"><ele>649.6</ele><time>2026-04-06T12:28:57.009Z</time></trkpt><trkpt lat="43.8831273" lon="12.1307352"><ele>654.2</ele><time>2026-04-06T12:28:58.009Z</time></trkpt><trkpt lat="43.8832215" lon="12.1308432"><ele>658.8</ele><time>2026-04-06T12:28:59.008Z</time></trkpt><trkpt lat="43.8832961" lon="12.1309223"><ele>663.4</ele><time>2026-04-06T12:29:00.009Z</time></trkpt><trkpt lat="43.883342" lon="12.1309965"><ele>668.0</ele><time>2026-04-06T12:29:01.011Z</time></trkpt><trkpt lat="43.8833152" lon="12.131119"><ele>668.0</ele><time>2026-04-06T12:29:03.009Z</time></trkpt><trkpt lat="43.8831879" lon="12.1310217"><ele>668.0</ele><time>2026-04-06T12:29:05.009Z</time></trkpt><trkpt lat="43.8831141" lon="12.130912"><ele>668.0</ele><time>2026-04-06T12:29:06.011Z</time></trkpt><trkpt lat="43.8830388" lon="12.1308248"><ele>668.0</ele><time>2026-04-06T12:29:07.011Z</time></trkpt><trkpt lat="43.8829548" lon="12.1307638"><ele>668.0</ele><time>2026-04-06T12:29:08.009Z</time></trkpt><trkpt lat="43.8828563" lon="12.1307163"><ele>672.0</ele><time>2026-04-06T12:29:09.011Z</time></trkpt><trkpt lat="43.8827333" lon="12.1306999"><ele>676.0</ele><time>2026-04-06T12:29:10.009Z</time></trkpt><trkpt lat="43.8825906" lon="12.1307266"><ele>680.0</ele><time>2026-04-06T12:29:11.008Z</time></trkpt><trkpt lat="43.8824433" lon="12.1307599"><ele>684.0</ele><time>2026-04-06T12:29:12.01Z</time></trkpt><trkpt lat="43.8822972" lon="12.1307821"><ele>684.0</ele><time>2026-04-06T12:29:13.009Z</time></trkpt><trkpt lat="43.8821637" lon="12.130788"><ele>684.0</ele><time>2026-04-06T12:29:14.009Z</time></trkpt><trkpt lat="43.8820376" lon="12.1307678"><ele>684.0</ele><time>2026-04-06T12:29:15.008Z</time></trkpt><trkpt lat="43.8819149" lon="12.1307153"><ele>684.0</ele><time>2026-04-06T12:29:16.008Z</time></trkpt><trkpt lat="43.8817912" lon="12.1306261"><ele>686.6666666666666</ele><time>2026-04-06T12:29:17.009Z</time></trkpt><trkpt lat="43.8816547" lon="12.1305348"><ele>689.3333333333333</ele><time>2026-04-06T12:29:18.009Z</time></trkpt><trkpt lat="43.8814946" lon="12.13046"><ele>692.0</ele><time>2026-04-06T12:29:19.015Z</time></trkpt><trkpt lat="43.8813212" lon="12.1304024"><ele>692.0</ele><time>2026-04-06T12:29:20.01Z</time></trkpt><trkpt lat="43.8811459" lon="12.1303578"><ele>692.0</ele><time>2026-04-06T12:29:21.008Z</time></trkpt><trkpt lat="43.8809777" lon="12.1303296"><ele>692.0</ele><time>2026-04-06T12:29:22.009Z</time></trkpt><trkpt lat="43.8808254" lon="12.1303249"><ele>698.25</ele><time>2026-04-06T12:29:23.008Z</time></trkpt><trkpt lat="43.8806812" lon="12.1303445"><ele>704.5</ele><time>2026-04-06T12:29:24.008Z</time></trkpt><trkpt lat="43.8805375" lon="12.130402"><ele>710.75</ele><time>2026-04-06T12:29:25.011Z</time></trkpt><trkpt lat="43.8803976" lon="12.1304866"><ele>717.0</ele><time>2026-04-06T12:29:26.009Z</time></trkpt><trkpt lat="43.880262" lon="12.1305755"><ele>717.0</ele><time>2026-04-06T12:29:27.012Z</time></trkpt><trkpt lat="43.8801442" lon="12.1306555"><ele>717.0</ele><time>2026-04-06T12:29:28.009Z</time></trkpt><trkpt lat="43.8800589" lon="12.13074"><ele>717.0</ele><time>2026-04-06T12:29:29.007Z</time></trkpt><trkpt lat="43.8800001" lon="12.1308408"><ele>717.0</ele><time>2026-04-06T12:29:30.008Z</time></trkpt><trkpt lat="43.8799642" lon="12.1309735"><ele>717.0</ele><time>2026-04-06T12:29:31.008Z</time></trkpt><trkpt lat="43.8799536" lon="12.1311216"><ele>715.6</ele><time>2026-04-06T12:29:32.009Z</time></trkpt><trkpt lat="43.8799403" lon="12.1312663"><ele>714.2</ele><time>2026-04-06T12:29:33.009Z</time></trkpt><trkpt lat="43.8799089" lon="12.1313818"><ele>712.8</ele><time>2026-04-06T12:29:34.01Z</time></trkpt><trkpt lat="43.8798631" lon="12.1314825"><ele>711.4</ele><time>2026-04-06T12:29:35.013Z</time></trkpt><trkpt lat="43.8798029" lon="12.1315726"><ele>710.0</ele><time>2026-04-06T12:29:36.007Z</time></trkpt><trkpt lat="43.8797046" lon="12.1316209"><ele>710.0</ele><time>2026-04-06T12:29:37.01Z</time></trkpt><trkpt lat="43.8795805" lon="12.1316571"><ele>710.0</ele><time>2026-04-06T12:29:38.009Z</time></trkpt><trkpt lat="43.8794559" lon="12.1316986"><ele>710.0</ele><time>2026-04-06T12:29:39.01Z</time></trkpt><trkpt lat="43.8793477" lon="12.1317628"><ele>710.0</ele><time>2026-04-06T12:29:40.009Z</time></trkpt><trkpt lat="43.879258" lon="12.1318714"><ele>716.5</ele><time>2026-04-06T12:29:41.007Z</time></trkpt><trkpt lat="43.879181" lon="12.1320175"><ele>723.0</ele><time>2026-04-06T12:29:42.01Z</time></trkpt><trkpt lat="43.8791096" lon="12.1321851"><ele>729.5</ele><time>2026-04-06T12:29:43.009Z</time></trkpt><trkpt lat="43.8790442" lon="12.1323557"><ele>736.0</ele><time>2026-04-06T12:29:44.01Z</time></trkpt><trkpt lat="43.8789945" lon="12.1325264"><ele>736.0</ele><time>2026-04-06T12:29:45.009Z</time></trkpt><trkpt lat="43.8789645" lon="12.132699"><ele>736.0</ele><time>2026-04-06T12:29:46.009Z</time></trkpt><trkpt lat="43.8789342" lon="12.132872"><ele>736.0</ele><time>2026-04-06T12:29:47.008Z</time></trkpt><trkpt lat="43.8788899" lon="12.1330367"><ele>736.0</ele><time>2026-04-06T12:29:48.01Z</time></trkpt><trkpt lat="43.8788459" lon="12.1331988"><ele>735.0</ele><time>2026-04-06T12:29:49.01Z</time></trkpt><trkpt lat="43.8788223" lon="12.1333646"><ele>734.0</ele><time>2026-04-06T12:29:50.008Z</time></trkpt><trkpt lat="43.878837" lon="12.1335449"><ele>733.0</ele><time>2026-04-06T12:29:51.008Z</time></trkpt><trkpt lat="43.8788783" lon="12.133729"><ele>732.0</ele><time>2026-04-06T12:29:52.008Z</time></trkpt><trkpt lat="43.8789292" lon="12.1339232"><ele>735.75</ele><time>2026-04-06T12:29:53.008Z</time></trkpt><trkpt lat="43.8789661" lon="12.134119"><ele>739.5</ele><time>2026-04-06T12:29:54.008Z</time></trkpt><trkpt lat="43.878997" lon="12.134304"><ele>743.25</ele><time>2026-04-06T12:29:55.008Z</time></trkpt><trkpt lat="43.8790341" lon="12.1344545"><ele>747.0</ele><time>2026-04-06T12:29:56.007Z</time></trkpt><trkpt lat="43.879082" lon="12.1345694"><ele>747.0</ele><time>2026-04-06T12:29:57.008Z</time></trkpt><trkpt lat="43.8791622" lon="12.1346424"><ele>747.0</ele><time>2026-04-06T12:29:58.011Z</time></trkpt><trkpt lat="43.8792565" lon="12.1346842"><ele>747.0</ele><time>2026-04-06T12:29:59.008Z</time></trkpt><trkpt lat="43.8793445" lon="12.1347392"><ele>747.0</ele><time>2026-04-06T12:30:00.008Z</time></trkpt><trkpt lat="43.8794158" lon="12.1348107"><ele>747.0</ele><time>2026-04-06T12:30:01.008Z</time></trkpt><trkpt lat="43.8794725" lon="12.1349068"><ele>743.0</ele><time>2026-04-06T12:30:02.008Z</time></trkpt><trkpt lat="43.8794879" lon="12.1350546"><ele>739.0</ele><time>2026-04-06T12:30:03.008Z</time></trkpt><trkpt lat="43.8794809" lon="12.1352153"><ele>735.0</ele><time>2026-04-06T12:30:04.007Z</time></trkpt><trkpt lat="43.8794528" lon="12.1353614"><ele>731.0</ele><time>2026-04-06T12:30:05.008Z</time></trkpt><trkpt lat="43.8794011" lon="12.1354909"><ele>727.0</ele><time>2026-04-06T12:30:06.008Z</time></trkpt><trkpt lat="43.879327" lon="12.1356091"><ele>736.0</ele><time>2026-04-06T12:30:07.008Z</time></trkpt><trkpt lat="43.8792415" lon="12.1357289"><ele>745.0</ele><time>2026-04-06T12:30:08.01Z</time></trkpt><trkpt lat="43.8791677" lon="12.1358575"><ele>754.0</ele><time>2026-04-06T12:30:09.009Z</time></trkpt><trkpt lat="43.8791159" lon="12.1359967"><ele>763.0</ele><time>2026-04-06T12:30:10.011Z</time></trkpt><trkpt lat="43.8790787" lon="12.1361258"><ele>763.0</ele><time>2026-04-06T12:30:11.009Z</time></trkpt><trkpt lat="43.8790372" lon="12.136227"><ele>763.0</ele><time>2026-04-06T12:30:12.008Z</time></trkpt><trkpt lat="43.878963" lon="12.1363091"><ele>763.0</ele><time>2026-04-06T12:30:13.008Z</time></trkpt><trkpt lat="43.8788676" lon="12.1363112"><ele>763.0</ele><time>2026-04-06T12:30:14.01Z</time></trkpt><trkpt lat="43.8787761" lon="12.1362985"><ele>763.0</ele><time>2026-04-06T12:30:15.008Z</time></trkpt><trkpt lat="43.8786763" lon="12.1362686"><ele>763.0</ele><time>2026-04-06T12:30:16.008Z</time></trkpt><trkpt lat="43.878569" lon="12.1361803"><ele>763.0</ele><time>2026-04-06T12:30:17.007Z</time></trkpt><trkpt lat="43.8784866" lon="12.136073"><ele>763.0</ele><time>2026-04-06T12:30:18.008Z</time></trkpt><trkpt lat="43.8784375" lon="12.1359332"><ele>763.0</ele><time>2026-04-06T12:30:19.009Z</time></trkpt><trkpt lat="43.878409" lon="12.1357586"><ele>766.3333333333334</ele><time>2026-04-06T12:30:20.009Z</time></trkpt><trkpt lat="43.8783929" lon="12.1355501"><ele>769.6666666666667</ele><time>2026-04-06T12:30:21.009Z</time></trkpt><trkpt lat="43.8783768" lon="12.1353298"><ele>773.0</ele><time>2026-04-06T12:30:22.008Z</time></trkpt><trkpt lat="43.8783562" lon="12.1351139"><ele>773.0</ele><time>2026-04-06T12:30:23.007Z</time></trkpt><trkpt lat="43.8783189" lon="12.1349196"><ele>773.0</ele><time>2026-04-06T12:30:24.008Z</time></trkpt><trkpt lat="43.8782563" lon="12.1347507"><ele>773.0</ele><time>2026-04-06T12:30:25.009Z</time></trkpt><trkpt lat="43.8781774" lon="12.1345988"><ele>773.0</ele><time>2026-04-06T12:30:26.009Z</time></trkpt><trkpt lat="43.8781012" lon="12.1344533"><ele>773.75</ele><time>2026-04-06T12:30:27.007Z</time></trkpt><trkpt lat="43.8780462" lon="12.1342856"><ele>774.5</ele><time>2026-04-06T12:30:28.008Z</time></trkpt><trkpt lat="43.8780059" lon="12.1340906"><ele>775.25</ele><time>2026-04-06T12:30:29.009Z</time></trkpt><trkpt lat="43.8779679" lon="12.1338831"><ele>776.0</ele><time>2026-04-06T12:30:30.008Z</time></trkpt><trkpt lat="43.87793" lon="12.1336809"><ele>776.25</ele><time>2026-04-06T12:30:31.01Z</time></trkpt><trkpt lat="43.8778901" lon="12.1334891"><ele>776.5</ele><time>2026-04-06T12:30:32.01Z</time></trkpt><trkpt lat="43.8778552" lon="12.1333141"><ele>776.75</ele><time>2026-04-06T12:30:33.008Z</time></trkpt><trkpt lat="43.8778367" lon="12.1331422"><ele>777.0</ele><time>2026-04-06T12:30:34.008Z</time></trkpt><trkpt lat="43.8778444" lon="12.1329663"><ele>777.5</ele><time>2026-04-06T12:30:35.008Z</time></trkpt><trkpt lat="43.8778773" lon="12.132797"><ele>778.0</ele><time>2026-04-06T12:30:36.01Z</time></trkpt><trkpt lat="43.8779189" lon="12.1326249"><ele>778.5</ele><time>2026-04-06T12:30:37.009Z</time></trkpt><trkpt lat="43.8779454" lon="12.1324479"><ele>779.0</ele><time>2026-04-06T12:30:38.009Z</time></trkpt><trkpt lat="43.8779481" lon="12.1322686"><ele>781.5</ele><time>2026-04-06T12:30:39.008Z</time></trkpt><trkpt lat="43.877929" lon="12.1320871"><ele>784.0</ele><time>2026-04-06T12:30:40.008Z</time></trkpt><trkpt lat="43.8778973" lon="12.131904"><ele>786.5</ele><time>2026-04-06T12:30:41.008Z</time></trkpt><trkpt lat="43.877851" lon="12.1317196"><ele>789.0</ele><time>2026-04-06T12:30:42.01Z</time></trkpt><trkpt lat="43.8777946" lon="12.1315391"><ele>790.0</ele><time>2026-04-06T12:30:43.008Z</time></trkpt><trkpt lat="43.8777168" lon="12.1313717"><ele>791.0</ele><time>2026-04-06T12:30:44.008Z</time></trkpt><trkpt lat="43.8776221" lon="12.1312199"><ele>792.0</ele><time>2026-04-06T12:30:45.008Z</time></trkpt><trkpt lat="43.8775121" lon="12.1310798"><ele>793.0</ele><time>2026-04-06T12:30:46.008Z</time></trkpt><trkpt lat="43.8773982" lon="12.1309623"><ele>790.25</ele><time>2026-04-06T12:30:47.008Z</time></trkpt><trkpt lat="43.8772877" lon="12.130862"><ele>787.5</ele><time>2026-04-06T12:30:48.011Z</time></trkpt><trkpt lat="43.8771709" lon="12.1307777"><ele>784.75</ele><time>2026-04-06T12:30:49.007Z</time></trkpt><trkpt lat="43.8770459" lon="12.1306969"><ele>782.0</ele><time>2026-04-06T12:30:50.007Z</time></trkpt><trkpt lat="43.8769117" lon="12.1306048"><ele>782.3333333333334</ele><time>2026-04-06T12:30:51.012Z</time></trkpt><trkpt lat="43.876767" lon="12.1305025"><ele>782.6666666666667</ele><time>2026-04-06T12:30:52.008Z</time></trkpt><trkpt lat="43.8766119" lon="12.1304017"><ele>783.0</ele><time>2026-04-06T12:30:53.009Z</time></trkpt><trkpt lat="43.8764466" lon="12.1303141"><ele>783.0</ele><time>2026-04-06T12:30:54.009Z</time></trkpt><trkpt lat="43.8762732" lon="12.1302408"><ele>783.0</ele><time>2026-04-06T12:30:55.007Z</time></trkpt><trkpt lat="43.8760981" lon="12.1301768"><ele>783.0</ele><time>2026-04-06T12:30:56.009Z</time></trkpt><trkpt lat="43.8759212" lon="12.1301199"><ele>787.3333333333333</ele><time>2026-04-06T12:30:57.008Z</time></trkpt><trkpt lat="43.8757385" lon="12.1300937"><ele>791.6666666666666</ele><time>2026-04-06T12:30:58.008Z</time></trkpt><trkpt lat="43.8755533" lon="12.1300848"><ele>796.0</ele><time>2026-04-06T12:30:59.007Z</time></trkpt><trkpt lat="43.8753685" lon="12.130072"><ele>796.0</ele><time>2026-04-06T12:31:00.009Z</time></trkpt><trkpt lat="43.8751835" lon="12.1300449"><ele>796.0</ele><time>2026-04-06T12:31:01.009Z</time></trkpt><trkpt lat="43.8750041" lon="12.1300082"><ele>796.0</ele><time>2026-04-06T12:31:02.008Z</time></trkpt><trkpt lat="43.8748334" lon="12.1299618"><ele>795.0</ele><time>2026-04-06T12:31:03.008Z</time></trkpt><trkpt lat="43.874676" lon="12.129914"><ele>794.0</ele><time>2026-04-06T12:31:04.01Z</time></trkpt><trkpt lat="43.874532" lon="12.1298495"><ele>793.0</ele><time>2026-04-06T12:31:05.008Z</time></trkpt><trkpt lat="43.8743929" lon="12.1297703"><ele>793.6666666666666</ele><time>2026-04-06T12:31:06.008Z</time></trkpt><trkpt lat="43.8742476" lon="12.1296944"><ele>794.3333333333333</ele><time>2026-04-06T12:31:07.008Z</time></trkpt><trkpt lat="43.8740955" lon="12.1296353"><ele>795.0</ele><time>2026-04-06T12:31:08.009Z</time></trkpt><trkpt lat="43.8739321" lon="12.1295907"><ele>795.0</ele><time>2026-04-06T12:31:09.011Z</time></trkpt><trkpt lat="43.873758" lon="12.1295617"><ele>795.0</ele><time>2026-04-06T12:31:10.008Z</time></trkpt><trkpt lat="43.8735731" lon="12.1295476"><ele>795.0</ele><time>2026-04-06T12:31:11.008Z</time></trkpt><trkpt lat="43.8733795" lon="12.1295302"><ele>793.0</ele><time>2026-04-06T12:31:12.009Z</time></trkpt><trkpt lat="43.87318" lon="12.1294948"><ele>791.0</ele><time>2026-04-06T12:31:13.009Z</time></trkpt><trkpt lat="43.8729743" lon="12.1294509"><ele>789.0</ele><time>2026-04-06T12:31:14.012Z</time></trkpt><trkpt lat="43.8727706" lon="12.1294135"><ele>790.3333333333333</ele><time>2026-04-06T12:31:15.008Z</time></trkpt><trkpt lat="43.8725802" lon="12.1293672"><ele>791.6666666666666</ele><time>2026-04-06T12:31:16.008Z</time></trkpt><trkpt lat="43.872405" lon="12.1293168"><ele>793.0</ele><time>2026-04-06T12:31:17.008Z</time></trkpt><trkpt lat="43.8722424" lon="12.1292609"><ele>793.0</ele><time>2026-04-06T12:31:18.01Z</time></trkpt><trkpt lat="43.8720925" lon="12.1292216"><ele>793.0</ele><time>2026-04-06T12:31:19.009Z</time></trkpt><trkpt lat="43.8719523" lon="12.1292031"><ele>793.0</ele><time>2026-04-06T12:31:20.009Z</time></trkpt><trkpt lat="43.8718184" lon="12.1292326"><ele>793.0</ele><time>2026-04-06T12:31:21.01Z</time></trkpt><trkpt lat="43.8716973" lon="12.1293072"><ele>795.25</ele><time>2026-04-06T12:31:22.008Z</time></trkpt><trkpt lat="43.8715847" lon="12.1294013"><ele>797.5</ele><time>2026-04-06T12:31:23.009Z</time></trkpt><trkpt lat="43.8714647" lon="12.1294772"><ele>799.75</ele><time>2026-04-06T12:31:24.011Z</time></trkpt><trkpt lat="43.8713259" lon="12.1295126"><ele>802.0</ele><time>2026-04-06T12:31:25.007Z</time></trkpt><trkpt lat="43.8711692" lon="12.129515"><ele>802.0</ele><time>2026-04-06T12:31:26.01Z</time></trkpt><trkpt lat="43.8709977" lon="12.1295086"><ele>802.0</ele><time>2026-04-06T12:31:27.009Z</time></trkpt><trkpt lat="43.8708261" lon="12.1295178"><ele>802.0</ele><time>2026-04-06T12:31:28.007Z</time></trkpt><trkpt lat="43.8706695" lon="12.129548"><ele>802.25</ele><time>2026-04-06T12:31:29.008Z</time></trkpt><trkpt lat="43.8705343" lon="12.1295776"><ele>802.5</ele><time>2026-04-06T12:31:30.008Z</time></trkpt><trkpt lat="43.8704207" lon="12.1295772"><ele>802.75</ele><time>2026-04-06T12:31:31.012Z</time></trkpt><trkpt lat="43.8703273" lon="12.1295235"><ele>803.0</ele><time>2026-04-06T12:31:32.006Z</time></trkpt><trkpt lat="43.870242" lon="12.1294213"><ele>803.0</ele><time>2026-04-06T12:31:33.008Z</time></trkpt><trkpt lat="43.8701685" lon="12.1292838"><ele>803.0</ele><time>2026-04-06T12:31:34.008Z</time></trkpt><trkpt lat="43.8701118" lon="12.129122"><ele>803.0</ele><time>2026-04-06T12:31:35.008Z</time></trkpt><trkpt lat="43.87007" lon="12.1289554"><ele>803.0</ele><time>2026-04-06T12:31:36.007Z</time></trkpt><trkpt lat="43.8700529" lon="12.1287947"><ele>804.25</ele><time>2026-04-06T12:31:37.008Z</time></trkpt><trkpt lat="43.8700727" lon="12.1286246"><ele>805.5</ele><time>2026-04-06T12:31:38.009Z</time></trkpt><trkpt lat="43.8701175" lon="12.1284422"><ele>806.75</ele><time>2026-04-06T12:31:39.009Z</time></trkpt><trkpt lat="43.8701647" lon="12.1282581"><ele>808.0</ele><time>2026-04-06T12:31:40.01Z</time></trkpt><trkpt lat="43.8701981" lon="12.1280771"><ele>808.0</ele><time>2026-04-06T12:31:41.009Z</time></trkpt><trkpt lat="43.8702036" lon="12.1278972"><ele>808.0</ele><time>2026-04-06T12:31:42.011Z</time></trkpt><trkpt lat="43.8701777" lon="12.1277156"><ele>808.0</ele><time>2026-04-06T12:31:43.008Z</time></trkpt><trkpt lat="43.8701309" lon="12.1275294"><ele>808.0</ele><time>2026-04-06T12:31:44.009Z</time></trkpt><trkpt lat="43.8700766" lon="12.1273491"><ele>803.5</ele><time>2026-04-06T12:31:45.008Z</time></trkpt><trkpt lat="43.8700182" lon="12.1271955"><ele>799.0</ele><time>2026-04-06T12:31:46.008Z</time></trkpt><trkpt lat="43.8699428" lon="12.127072"><ele>794.5</ele><time>2026-04-06T12:31:47.01Z</time></trkpt><trkpt lat="43.8698464" lon="12.1269804"><ele>790.0</ele><time>2026-04-06T12:31:48.007Z</time></trkpt><trkpt lat="43.8697257" lon="12.1269084"><ele>790.0</ele><time>2026-04-06T12:31:49.008Z</time></trkpt><trkpt lat="43.869587" lon="12.1268526"><ele>790.0</ele><time>2026-04-06T12:31:50.008Z</time></trkpt><trkpt lat="43.8694542" lon="12.12678"><ele>790.0</ele><time>2026-04-06T12:31:51.007Z</time></trkpt><trkpt lat="43.8693403" lon="12.1266766"><ele>790.0</ele><time>2026-04-06T12:31:52.007Z</time></trkpt><trkpt lat="43.8692504" lon="12.1265482"><ele>786.6</ele><time>2026-04-06T12:31:53.007Z</time></trkpt><trkpt lat="43.8691743" lon="12.1264188"><ele>783.2</ele><time>2026-04-06T12:31:54.009Z</time></trkpt><trkpt lat="43.8690999" lon="12.1263009"><ele>779.8</ele><time>2026-04-06T12:31:55.008Z</time></trkpt><trkpt lat="43.8690232" lon="12.1262049"><ele>776.4</ele><time>2026-04-06T12:31:56.008Z</time></trkpt><trkpt lat="43.8689481" lon="12.1261292"><ele>773.0</ele><time>2026-04-06T12:31:57.007Z</time></trkpt><trkpt lat="43.8688763" lon="12.1260747"><ele>773.0000000000001</ele><time>2026-04-06T12:31:58.008Z</time></trkpt><trkpt lat="43.8688181" lon="12.1260288"><ele>773.0</ele><time>2026-04-06T12:31:59.008Z</time></trkpt><trkpt lat="43.8687303" lon="12.1259758"><ele>773.0</ele><time>2026-04-06T12:32:01.008Z</time></trkpt><trkpt lat="43.8687098" lon="12.1260702"><ele>773.0</ele><time>2026-04-06T12:32:05.008Z</time></trkpt><trkpt lat="43.8688048" lon="12.126194"><ele>773.0000000000001</ele><time>2026-04-06T12:32:07.008Z</time></trkpt><trkpt lat="43.8688511" lon="12.1262843"><ele>773.0</ele><time>2026-04-06T12:32:08.009Z</time></trkpt><trkpt lat="43.8688994" lon="12.1263838"><ele>773.0000000000001</ele><time>2026-04-06T12:32:09.011Z</time></trkpt><trkpt lat="43.8689367" lon="12.1264879"><ele>773.0</ele><time>2026-04-06T12:32:10.007Z</time></trkpt><trkpt lat="43.8689494" lon="12.1265893"><ele>773.0</ele><time>2026-04-06T12:32:11.009Z</time></trkpt><trkpt lat="43.868951" lon="12.1266804"><ele>773.0</ele><time>2026-04-06T12:32:12.008Z</time></trkpt><trkpt lat="43.8689896" lon="12.1268346"><ele>773.0000000000001</ele><time>2026-04-06T12:32:14.008Z</time></trkpt><trkpt lat="43.8690264" lon="12.1269075"><ele>773.0</ele><time>2026-04-06T12:32:15.009Z</time></trkpt><trkpt lat="43.8690663" lon="12.1269864"><ele>774.0</ele><time>2026-04-06T12:32:16.009Z</time></trkpt><trkpt lat="43.8691353" lon="12.127056"><ele>775.0</ele><time>2026-04-06T12:32:17.007Z</time></trkpt><trkpt lat="43.8692062" lon="12.127143"><ele>776.0</ele><time>2026-04-06T12:32:18.009Z</time></trkpt><trkpt lat="43.8692784" lon="12.1272389"><ele>777.0</ele><time>2026-04-06T12:32:19.008Z</time></trkpt><trkpt lat="43.8693315" lon="12.1273459"><ele>778.0</ele><time>2026-04-06T12:32:20.009Z</time></trkpt><trkpt lat="43.8693794" lon="12.1274522"><ele>778.0</ele><time>2026-04-06T12:32:21.009Z</time></trkpt><trkpt lat="43.869412" lon="12.1275542"><ele>778.0</ele><time>2026-04-06T12:32:22.008Z</time></trkpt><trkpt lat="43.8694412" lon="12.1276427"><ele>778.0</ele><time>2026-04-06T12:32:23.008Z</time></trkpt><trkpt lat="43.8694515" lon="12.1277342"><ele>778.0</ele><time>2026-04-06T12:32:24.007Z</time></trkpt><trkpt lat="43.8694356" lon="12.1278224"><ele>778.0</ele><time>2026-04-06T12:32:25.008Z</time></trkpt><trkpt lat="43.8694007" lon="12.1279012"><ele>778.0</ele><time>2026-04-06T12:32:26.007Z</time></trkpt><trkpt lat="43.8693378" lon="12.1279617"><ele>778.0</ele><time>2026-04-06T12:32:27.008Z</time></trkpt><trkpt lat="43.8692623" lon="12.1280112"><ele>772.3333333333333</ele><time>2026-04-06T12:32:28.006Z</time></trkpt><trkpt lat="43.8691835" lon="12.1280522"><ele>766.6666666666666</ele><time>2026-04-06T12:32:29.009Z</time></trkpt><trkpt lat="43.8691153" lon="12.1281023"><ele>761.0</ele><time>2026-04-06T12:32:30.009Z</time></trkpt><trkpt lat="43.8690473" lon="12.1281527"><ele>755.3333333333333</ele><time>2026-04-06T12:32:31.007Z</time></trkpt><trkpt lat="43.8689805" lon="12.1282084"><ele>749.6666666666666</ele><time>2026-04-06T12:32:32.01Z</time></trkpt><trkpt lat="43.8689197" lon="12.1282816"><ele>744.0</ele><time>2026-04-06T12:32:33.01Z</time></trkpt><trkpt lat="43.8688721" lon="12.1283618"><ele>744.0</ele><time>2026-04-06T12:32:34.006Z</time></trkpt><trkpt lat="43.8688418" lon="12.1284558"><ele>744.0</ele><time>2026-04-06T12:32:35.008Z</time></trkpt><trkpt lat="43.868826" lon="12.1285541"><ele>744.0</ele><time>2026-04-06T12:32:36.009Z</time></trkpt><trkpt lat="43.8688286" lon="12.128664"><ele>744.0</ele><time>2026-04-06T12:32:37.007Z</time></trkpt><trkpt lat="43.8688507" lon="12.128773"><ele>744.0</ele><time>2026-04-06T12:32:38.009Z</time></trkpt><trkpt lat="43.8688737" lon="12.1288787"><ele>744.0</ele><time>2026-04-06T12:32:39.011Z</time></trkpt><trkpt lat="43.8688834" lon="12.1289806"><ele>745.0</ele><time>2026-04-06T12:32:40.01Z</time></trkpt><trkpt lat="43.8688756" lon="12.1290703"><ele>746.0</ele><time>2026-04-06T12:32:41.008Z</time></trkpt><trkpt lat="43.868824" lon="12.1292112"><ele>747.0</ele><time>2026-04-06T12:32:43.007Z</time></trkpt><trkpt lat="43.8687624" lon="12.1292713"><ele>748.0</ele><time>2026-04-06T12:32:44.008Z</time></trkpt><trkpt lat="43.8686503" lon="12.1293077"><ele>749.0</ele><time>2026-04-06T12:32:45.01Z</time></trkpt><trkpt lat="43.8685209" lon="12.1293406"><ele>741.25</ele><time>2026-04-06T12:32:46.008Z</time></trkpt><trkpt lat="43.8683997" lon="12.1293884"><ele>733.5</ele><time>2026-04-06T12:32:47.01Z</time></trkpt><trkpt lat="43.8682863" lon="12.1294442"><ele>725.75</ele><time>2026-04-06T12:32:48.008Z</time></trkpt><trkpt lat="43.8681892" lon="12.1295063"><ele>718.0</ele><time>2026-04-06T12:32:49.007Z</time></trkpt><trkpt lat="43.8681032" lon="12.1295672"><ele>718.0</ele><time>2026-04-06T12:32:50.008Z</time></trkpt><trkpt lat="43.8680307" lon="12.1296301"><ele>718.0</ele><time>2026-04-06T12:32:51.008Z</time></trkpt><trkpt lat="43.8679749" lon="12.1297049"><ele>718.0</ele><time>2026-04-06T12:32:52.008Z</time></trkpt><trkpt lat="43.8679305" lon="12.1297936"><ele>718.0</ele><time>2026-04-06T12:32:53.01Z</time></trkpt><trkpt lat="43.8678963" lon="12.1298951"><ele>718.0</ele><time>2026-04-06T12:32:54.009Z</time></trkpt><trkpt lat="43.8678775" lon="12.130008"><ele>718.0</ele><time>2026-04-06T12:32:55.009Z</time></trkpt><trkpt lat="43.8678859" lon="12.1301357"><ele>720.1666666666667</ele><time>2026-04-06T12:32:56.008Z</time></trkpt><trkpt lat="43.8679069" lon="12.1302593"><ele>722.3333333333334</ele><time>2026-04-06T12:32:57.009Z</time></trkpt><trkpt lat="43.8679298" lon="12.1303688"><ele>724.5</ele><time>2026-04-06T12:32:58.009Z</time></trkpt><trkpt lat="43.867953" lon="12.1304638"><ele>726.6666666666666</ele><time>2026-04-06T12:32:59.007Z</time></trkpt><trkpt lat="43.8679245" lon="12.1306251"><ele>728.8333333333333</ele><time>2026-04-06T12:33:01.007Z</time></trkpt><trkpt lat="43.8678777" lon="12.1306853"><ele>731.0</ele><time>2026-04-06T12:33:02.007Z</time></trkpt><trkpt lat="43.867793" lon="12.1307092"><ele>731.0</ele><time>2026-04-06T12:33:03.009Z</time></trkpt><trkpt lat="43.8676954" lon="12.1307234"><ele>731.0</ele><time>2026-04-06T12:33:04.007Z</time></trkpt><trkpt lat="43.867587" lon="12.1307541"><ele>731.0</ele><time>2026-04-06T12:33:05.013Z</time></trkpt><trkpt lat="43.8674769" lon="12.1308015"><ele>731.0</ele><time>2026-04-06T12:33:06.008Z</time></trkpt><trkpt lat="43.8673674" lon="12.1308592"><ele>731.0</ele><time>2026-04-06T12:33:07.009Z</time></trkpt><trkpt lat="43.8672722" lon="12.130926"><ele>728.1666666666666</ele><time>2026-04-06T12:33:08.008Z</time></trkpt><trkpt lat="43.8671851" lon="12.1309859"><ele>725.3333333333333</ele><time>2026-04-06T12:33:09.009Z</time></trkpt><trkpt lat="43.8671091" lon="12.1310481"><ele>722.5</ele><time>2026-04-06T12:33:10.008Z</time></trkpt><trkpt lat="43.8670464" lon="12.13112"><ele>719.6666666666666</ele><time>2026-04-06T12:33:11.006Z</time></trkpt><trkpt lat="43.8669955" lon="12.1312185"><ele>716.8333333333334</ele><time>2026-04-06T12:33:12.01Z</time></trkpt><trkpt lat="43.8669518" lon="12.1313322"><ele>714.0</ele><time>2026-04-06T12:33:13.008Z</time></trkpt><trkpt lat="43.8669248" lon="12.1314639"><ele>715.6666666666666</ele><time>2026-04-06T12:33:14.008Z</time></trkpt><trkpt lat="43.8669047" lon="12.1315732"><ele>717.3333333333334</ele><time>2026-04-06T12:33:15.008Z</time></trkpt><trkpt lat="43.8669199" lon="12.1316855"><ele>719.0</ele><time>2026-04-06T12:33:16.007Z</time></trkpt><trkpt lat="43.8669422" lon="12.1317999"><ele>720.6666666666667</ele><time>2026-04-06T12:33:17.007Z</time></trkpt><trkpt lat="43.8669793" lon="12.1319191"><ele>722.3333333333334</ele><time>2026-04-06T12:33:18.008Z</time></trkpt><trkpt lat="43.8670242" lon="12.1320365"><ele>724.0</ele><time>2026-04-06T12:33:19.01Z</time></trkpt><trkpt lat="43.8670462" lon="12.13216"><ele>724.0</ele><time>2026-04-06T12:33:20.008Z</time></trkpt><trkpt lat="43.8670585" lon="12.1322826"><ele>724.0</ele><time>2026-04-06T12:33:21.011Z</time></trkpt><trkpt lat="43.867068" lon="12.1323939"><ele>724.0</ele><time>2026-04-06T12:33:22.009Z</time></trkpt><trkpt lat="43.8670474" lon="12.1324927"><ele>724.0</ele><time>2026-04-06T12:33:23.013Z</time></trkpt><trkpt lat="43.8670169" lon="12.1325943"><ele>724.0</ele><time>2026-04-06T12:33:24.009Z</time></trkpt><trkpt lat="43.8669937" lon="12.1327083"><ele>724.0</ele><time>2026-04-06T12:33:25.009Z</time></trkpt><trkpt lat="43.8669748" lon="12.1328249"><ele>722.8571428571429</ele><time>2026-04-06T12:33:26.01Z</time></trkpt><trkpt lat="43.8669599" lon="12.1329289"><ele>721.7142857142857</ele><time>2026-04-06T12:33:27.009Z</time></trkpt><trkpt lat="43.8669577" lon="12.133027"><ele>720.5714285714287</ele><time>2026-04-06T12:33:28.007Z</time></trkpt><trkpt lat="43.8669638" lon="12.1331258"><ele>719.4285714285714</ele><time>2026-04-06T12:33:29.006Z</time></trkpt><trkpt lat="43.8669692" lon="12.1332202"><ele>718.2857142857143</ele><time>2026-04-06T12:33:30.007Z</time></trkpt><trkpt lat="43.866951" lon="12.1333039"><ele>717.1428571428572</ele><time>2026-04-06T12:33:31.01Z</time></trkpt><trkpt lat="43.8669093" lon="12.1333712"><ele>716.0</ele><time>2026-04-06T12:33:32.008Z</time></trkpt><trkpt lat="43.8668246" lon="12.1334833"><ele>710.0</ele><time>2026-04-06T12:33:34.01Z</time></trkpt><trkpt lat="43.8667516" lon="12.1335684"><ele>704.0</ele><time>2026-04-06T12:33:36.007Z</time></trkpt><trkpt lat="43.8666762" lon="12.1335571"><ele>698.0</ele><time>2026-04-06T12:33:38.012Z</time></trkpt><trkpt lat="43.866634" lon="12.1334641"><ele>692.0</ele><time>2026-04-06T12:33:40.009Z</time></trkpt><trkpt lat="43.8666556" lon="12.1333647"><ele>686.0</ele><time>2026-04-06T12:33:42.008Z</time></trkpt><trkpt lat="43.8667496" lon="12.1331902"><ele>685.5</ele><time>2026-04-06T12:33:46.02Z</time></trkpt><trkpt lat="43.8667814" lon="12.1330311"><ele>685.0</ele><time>2026-04-06T12:33:47.011Z</time></trkpt><trkpt lat="43.8667821" lon="12.132894"><ele>684.5</ele><time>2026-04-06T12:33:48.008Z</time></trkpt><trkpt lat="43.8667626" lon="12.132734"><ele>684.0</ele><time>2026-04-06T12:33:49.008Z</time></trkpt><trkpt lat="43.8667457" lon="12.1325693"><ele>684.0</ele><time>2026-04-06T12:33:50.012Z</time></trkpt><trkpt lat="43.8667356" lon="12.1324096"><ele>684.0</ele><time>2026-04-06T12:33:51.008Z</time></trkpt><trkpt lat="43.8667194" lon="12.1322658"><ele>684.0</ele><time>2026-04-06T12:33:52.012Z</time></trkpt><trkpt lat="43.8666877" lon="12.1321326"><ele>684.0</ele><time>2026-04-06T12:33:53.008Z</time></trkpt><trkpt lat="43.8666387" lon="12.1320112"><ele>684.0</ele><time>2026-04-06T12:33:54.008Z</time></trkpt><trkpt lat="43.8665815" lon="12.1319112"><ele>684.6</ele><time>2026-04-06T12:33:55.009Z</time></trkpt><trkpt lat="43.8665139" lon="12.1318084"><ele>685.2</ele><time>2026-04-06T12:33:56.01Z</time></trkpt><trkpt lat="43.8664513" lon="12.1317006"><ele>685.8000000000001</ele><time>2026-04-06T12:33:57.011Z</time></trkpt><trkpt lat="43.8663943" lon="12.1315855"><ele>686.4000000000001</ele><time>2026-04-06T12:33:58.008Z</time></trkpt><trkpt lat="43.8663476" lon="12.1314763"><ele>687.0</ele><time>2026-04-06T12:33:59.007Z</time></trkpt><trkpt lat="43.8663077" lon="12.1313592"><ele>687.0</ele><time>2026-04-06T12:34:00.008Z</time></trkpt><trkpt lat="43.8662802" lon="12.131239"><ele>687.0</ele><time>2026-04-06T12:34:01.01Z</time></trkpt><trkpt lat="43.86627" lon="12.1311079"><ele>687.0</ele><time>2026-04-06T12:34:02.009Z</time></trkpt><trkpt lat="43.8662804" lon="12.1309741"><ele>687.0</ele><time>2026-04-06T12:34:03.009Z</time></trkpt><trkpt lat="43.8663038" lon="12.1308446"><ele>687.0</ele><time>2026-04-06T12:34:04.009Z</time></trkpt><trkpt lat="43.8663356" lon="12.1307246"><ele>685.3333333333334</ele><time>2026-04-06T12:34:05.007Z</time></trkpt><trkpt lat="43.8663675" lon="12.1306152"><ele>683.6666666666666</ele><time>2026-04-06T12:34:06.01Z</time></trkpt><trkpt lat="43.8663927" lon="12.1305182"><ele>682.0</ele><time>2026-04-06T12:34:07.011Z</time></trkpt><trkpt lat="43.8664184" lon="12.1304316"><ele>680.3333333333333</ele><time>2026-04-06T12:34:08.01Z</time></trkpt><trkpt lat="43.8664707" lon="12.1302884"><ele>678.6666666666666</ele><time>2026-04-06T12:34:10.009Z</time></trkpt><trkpt lat="43.8664825" lon="12.1301631"><ele>677.0</ele><time>2026-04-06T12:34:12.009Z</time></trkpt><trkpt lat="43.8664233" lon="12.1301116"><ele>677.0</ele><time>2026-04-06T12:34:14.008Z</time></trkpt><trkpt lat="43.8663165" lon="12.1302061"><ele>677.0</ele><time>2026-04-06T12:34:16.008Z</time></trkpt><trkpt lat="43.8662393" lon="12.130318"><ele>677.0</ele><time>2026-04-06T12:34:17.008Z</time></trkpt><trkpt lat="43.8661547" lon="12.1304653"><ele>677.0</ele><time>2026-04-06T12:34:18.009Z</time></trkpt><trkpt lat="43.8660653" lon="12.1306201"><ele>679.5</ele><time>2026-04-06T12:34:19.009Z</time></trkpt><trkpt lat="43.8659801" lon="12.1307568"><ele>682.0</ele><time>2026-04-06T12:34:20.009Z</time></trkpt><trkpt lat="43.8658936" lon="12.1308824"><ele>684.5</ele><time>2026-04-06T12:34:21.008Z</time></trkpt><trkpt lat="43.8658098" lon="12.1309933"><ele>687.0</ele><time>2026-04-06T12:34:22.009Z</time></trkpt><trkpt lat="43.86573" lon="12.1310969"><ele>682.1666666666666</ele><time>2026-04-06T12:34:23.008Z</time></trkpt><trkpt lat="43.865658" lon="12.1311878"><ele>677.3333333333334</ele><time>2026-04-06T12:34:24.008Z</time></trkpt><trkpt lat="43.8655979" lon="12.131265"><ele>672.5</ele><time>2026-04-06T12:34:25.009Z</time></trkpt><trkpt lat="43.8655486" lon="12.1313249"><ele>667.6666666666667</ele><time>2026-04-06T12:34:26.013Z</time></trkpt><trkpt lat="43.8654567" lon="12.1313938"><ele>662.8333333333334</ele><time>2026-04-06T12:34:28.009Z</time></trkpt><trkpt lat="43.8653744" lon="12.131428"><ele>658.0</ele><time>2026-04-06T12:34:30.009Z</time></trkpt><trkpt lat="43.865318" lon="12.1315362"><ele>658.1666666666667</ele><time>2026-04-06T12:34:32.01Z</time></trkpt><trkpt lat="43.8652881" lon="12.1316246"><ele>658.3333333333334</ele><time>2026-04-06T12:34:33.01Z</time></trkpt><trkpt lat="43.8652488" lon="12.1317254"><ele>658.5</ele><time>2026-04-06T12:34:34.008Z</time></trkpt><trkpt lat="43.8652086" lon="12.1318344"><ele>658.6666666666666</ele><time>2026-04-06T12:34:35.007Z</time></trkpt><trkpt lat="43.8651696" lon="12.1319445"><ele>658.8333333333333</ele><time>2026-04-06T12:34:36.008Z</time></trkpt><trkpt lat="43.865127" lon="12.1320501"><ele>659.0</ele><time>2026-04-06T12:34:37.009Z</time></trkpt><trkpt lat="43.8650728" lon="12.1321454"><ele>655.4000000000001</ele><time>2026-04-06T12:34:38.01Z</time></trkpt><trkpt lat="43.8650088" lon="12.1322259"><ele>651.8</ele><time>2026-04-06T12:34:39.009Z</time></trkpt><trkpt lat="43.8649277" lon="12.1322874"><ele>648.2</ele><time>2026-04-06T12:34:40.009Z</time></trkpt><trkpt lat="43.8648304" lon="12.1323288"><ele>644.5999999999999</ele><time>2026-04-06T12:34:41.012Z</time></trkpt><trkpt lat="43.864719" lon="12.1323498"><ele>641.0</ele><time>2026-04-06T12:34:42.008Z</time></trkpt><trkpt lat="43.8646163" lon="12.1323793"><ele>642.0</ele><time>2026-04-06T12:34:43.012Z</time></trkpt><trkpt lat="43.8645234" lon="12.132423"><ele>643.0</ele><time>2026-04-06T12:34:44.009Z</time></trkpt><trkpt lat="43.8644405" lon="12.1324741"><ele>644.0</ele><time>2026-04-06T12:34:45.011Z</time></trkpt><trkpt lat="43.8643667" lon="12.1325339"><ele>645.0</ele><time>2026-04-06T12:34:46.01Z</time></trkpt><trkpt lat="43.8643031" lon="12.1326051"><ele>646.0</ele><time>2026-04-06T12:34:47.009Z</time></trkpt><trkpt lat="43.8642568" lon="12.1326798"><ele>647.0</ele><time>2026-04-06T12:34:48.011Z</time></trkpt><trkpt lat="43.8641937" lon="12.1328021"><ele>644.4</ele><time>2026-04-06T12:34:50.009Z</time></trkpt><trkpt lat="43.8641208" lon="12.132859"><ele>641.8000000000001</ele><time>2026-04-06T12:34:52.01Z</time></trkpt><trkpt lat="43.864033" lon="12.1328254"><ele>639.2</ele><time>2026-04-06T12:34:54.008Z</time></trkpt><trkpt lat="43.8639693" lon="12.1327057"><ele>636.6</ele><time>2026-04-06T12:34:56.008Z</time></trkpt><trkpt lat="43.8639759" lon="12.1325244"><ele>634.0</ele><time>2026-04-06T12:34:58.007Z</time></trkpt><trkpt lat="43.8639751" lon="12.1323972"><ele>634.0</ele><time>2026-04-06T12:35:00.009Z</time></trkpt><trkpt lat="43.863918" lon="12.1323277"><ele>634.0</ele><time>2026-04-06T12:35:02.012Z</time></trkpt><trkpt lat="43.863831" lon="12.1323256"><ele>634.0</ele><time>2026-04-06T12:35:04.009Z</time></trkpt><trkpt lat="43.8637757" lon="12.1323767"><ele>634.0</ele><time>2026-04-06T12:35:05.008Z</time></trkpt><trkpt lat="43.8636756" lon="12.1325416"><ele>634.0</ele><time>2026-04-06T12:35:08.082Z</time></trkpt><trkpt lat="43.8636275" lon="12.1328819"><ele>634.0</ele><time>2026-04-06T12:35:10.008Z</time></trkpt><trkpt lat="43.8636004" lon="12.1330743"><ele>634.0</ele><time>2026-04-06T12:35:11.007Z</time></trkpt><trkpt lat="43.863568" lon="12.1332246"><ele>634.0</ele><time>2026-04-06T12:35:12.01Z</time></trkpt><trkpt lat="43.863529" lon="12.1333609"><ele>634.0</ele><time>2026-04-06T12:35:13.01Z</time></trkpt><trkpt lat="43.86348" lon="12.1334936"><ele>627.75</ele><time>2026-04-06T12:35:14.009Z</time></trkpt><trkpt lat="43.86342" lon="12.1336283"><ele>621.5</ele><time>2026-04-06T12:35:15.011Z</time></trkpt><trkpt lat="43.863355" lon="12.13376"><ele>615.25</ele><time>2026-04-06T12:35:16.009Z</time></trkpt><trkpt lat="43.8632883" lon="12.133895"><ele>609.0</ele><time>2026-04-06T12:35:17.014Z</time></trkpt><trkpt lat="43.86323" lon="12.1340217"><ele>609.25</ele><time>2026-04-06T12:35:18.008Z</time></trkpt><trkpt lat="43.8631633" lon="12.13416"><ele>609.5</ele><time>2026-04-06T12:35:19.012Z</time></trkpt><trkpt lat="43.8631017" lon="12.1343083"><ele>609.75</ele><time>2026-04-06T12:35:20.009Z</time></trkpt><trkpt lat="43.8630517" lon="12.1344667"><ele>610.0</ele><time>2026-04-06T12:35:21.009Z</time></trkpt><trkpt lat="43.8630183" lon="12.13462"><ele>610.0</ele><time>2026-04-06T12:35:22.01Z</time></trkpt><trkpt lat="43.8630017" lon="12.1347667"><ele>610.0</ele><time>2026-04-06T12:35:23.009Z</time></trkpt><trkpt lat="43.8630067" lon="12.13492"><ele>610.0</ele><time>2026-04-06T12:35:24.012Z</time></trkpt><trkpt lat="43.86303" lon="12.1350717"><ele>610.0</ele><time>2026-04-06T12:35:25.01Z</time></trkpt><trkpt lat="43.863065" lon="12.1352083"><ele>610.0</ele><time>2026-04-06T12:35:26.01Z</time></trkpt><trkpt lat="43.8630983" lon="12.1353367"><ele>609.4</ele><time>2026-04-06T12:35:27.01Z</time></trkpt><trkpt lat="43.8631133" lon="12.1354683"><ele>608.8</ele><time>2026-04-06T12:35:28.008Z</time></trkpt><trkpt lat="43.863115" lon="12.1356"><ele>608.2</ele><time>2026-04-06T12:35:29.009Z</time></trkpt><trkpt lat="43.8630933" lon="12.1357317"><ele>607.6</ele><time>2026-04-06T12:35:30.008Z</time></trkpt><trkpt lat="43.863045" lon="12.13585"><ele>607.0</ele><time>2026-04-06T12:35:31.012Z</time></trkpt><trkpt lat="43.8629817" lon="12.13597"><ele>606.6</ele><time>2026-04-06T12:35:32.01Z</time></trkpt><trkpt lat="43.8629167" lon="12.13609"><ele>606.2</ele><time>2026-04-06T12:35:33.01Z</time></trkpt><trkpt lat="43.86286" lon="12.13621"><ele>605.8</ele><time>2026-04-06T12:35:34.009Z</time></trkpt><trkpt lat="43.8628" lon="12.1363317"><ele>605.4</ele><time>2026-04-06T12:35:35.01Z</time></trkpt><trkpt lat="43.8627383" lon="12.1364417"><ele>605.0</ele><time>2026-04-06T12:35:36.008Z</time></trkpt><trkpt lat="43.8626733" lon="12.1365367"><ele>601.5</ele><time>2026-04-06T12:35:37.011Z</time></trkpt><trkpt lat="43.86261" lon="12.136625"><ele>598.0</ele><time>2026-04-06T12:35:38.007Z</time></trkpt><trkpt lat="43.8625417" lon="12.13671"><ele>594.5</ele><time>2026-04-06T12:35:39.008Z</time></trkpt><trkpt lat="43.8624833" lon="12.1368"><ele>591.0</ele><time>2026-04-06T12:35:40.01Z</time></trkpt><trkpt lat="43.8624333" lon="12.1368933"><ele>587.5</ele><time>2026-04-06T12:35:41.008Z</time></trkpt><trkpt lat="43.8623983" lon="12.1369667"><ele>584.0</ele><time>2026-04-06T12:35:42.009Z</time></trkpt><trkpt lat="43.8623517" lon="12.13708"><ele>584.0</ele><time>2026-04-06T12:35:44.008Z</time></trkpt><trkpt lat="43.8623317" lon="12.1371883"><ele>584.0</ele><time>2026-04-06T12:35:46.009Z</time></trkpt><trkpt lat="43.8623717" lon="12.13729"><ele>584.0</ele><time>2026-04-06T12:35:48.009Z</time></trkpt><trkpt lat="43.86245" lon="12.1373267"><ele>584.0</ele><time>2026-04-06T12:35:50.01Z</time></trkpt><trkpt lat="43.8625321" lon="12.1373033"><ele>584.0</ele><time>2026-04-06T12:35:53.014Z</time></trkpt><trkpt lat="43.8625966" lon="12.1373155"><ele>584.0</ele><time>2026-04-06T12:35:56.024Z</time></trkpt><trkpt lat="43.8625383" lon="12.1373533"><ele>578.6666666666666</ele><time>2026-04-06T12:35:59.004Z</time></trkpt><trkpt lat="43.8623555" lon="12.1375119"><ele>573.3333333333334</ele><time>2026-04-06T12:36:02.009Z</time></trkpt><trkpt lat="43.8622615" lon="12.1376531"><ele>568.0</ele><time>2026-04-06T12:36:03.009Z</time></trkpt><trkpt lat="43.8621829" lon="12.1377613"><ele>568.0</ele><time>2026-04-06T12:36:04.007Z</time></trkpt><trkpt lat="43.862107" lon="12.137843"><ele>568.0</ele><time>2026-04-06T12:36:05.008Z</time></trkpt><trkpt lat="43.8620297" lon="12.1379013"><ele>568.0</ele><time>2026-04-06T12:36:06.008Z</time></trkpt><trkpt lat="43.8619469" lon="12.1379328"><ele>568.0</ele><time>2026-04-06T12:36:07.01Z</time></trkpt><trkpt lat="43.8618639" lon="12.1379531"><ele>568.0</ele><time>2026-04-06T12:36:08.008Z</time></trkpt><trkpt lat="43.8617815" lon="12.1379819"><ele>568.0</ele><time>2026-04-06T12:36:09.01Z</time></trkpt><trkpt lat="43.8616996" lon="12.1380181"><ele>566.3333333333334</ele><time>2026-04-06T12:36:10.008Z</time></trkpt><trkpt lat="43.8616215" lon="12.1380616"><ele>564.6666666666667</ele><time>2026-04-06T12:36:11.009Z</time></trkpt><trkpt lat="43.8615436" lon="12.1381085"><ele>563.0</ele><time>2026-04-06T12:36:12.012Z</time></trkpt><trkpt lat="43.8614631" lon="12.1381631"><ele>561.3333333333334</ele><time>2026-04-06T12:36:13.009Z</time></trkpt><trkpt lat="43.8613811" lon="12.1382286"><ele>559.6666666666666</ele><time>2026-04-06T12:36:14.009Z</time></trkpt><trkpt lat="43.8612993" lon="12.1382929"><ele>558.0</ele><time>2026-04-06T12:36:15.01Z</time></trkpt><trkpt lat="43.8612177" lon="12.1383612"><ele>556.8</ele><time>2026-04-06T12:36:16.008Z</time></trkpt><trkpt lat="43.861134" lon="12.1384354"><ele>555.5999999999999</ele><time>2026-04-06T12:36:17.009Z</time></trkpt><trkpt lat="43.8610518" lon="12.1385081"><ele>554.4000000000001</ele><time>2026-04-06T12:36:18.01Z</time></trkpt><trkpt lat="43.8609753" lon="12.1385819"><ele>553.2</ele><time>2026-04-06T12:36:19.007Z</time></trkpt><trkpt lat="43.8609047" lon="12.1386599"><ele>552.0</ele><time>2026-04-06T12:36:20.007Z</time></trkpt><trkpt lat="43.8608454" lon="12.1387427"><ele>549.8333333333334</ele><time>2026-04-06T12:36:21.008Z</time></trkpt><trkpt lat="43.8608032" lon="12.1388308"><ele>547.6666666666666</ele><time>2026-04-06T12:36:22.013Z</time></trkpt><trkpt lat="43.8607746" lon="12.1389222"><ele>545.5</ele><time>2026-04-06T12:36:23.007Z</time></trkpt><trkpt lat="43.8607596" lon="12.139021"><ele>543.3333333333333</ele><time>2026-04-06T12:36:24.008Z</time></trkpt><trkpt lat="43.8607599" lon="12.1391179"><ele>541.1666666666666</ele><time>2026-04-06T12:36:25.008Z</time></trkpt><trkpt lat="43.8607772" lon="12.139203"><ele>539.0</ele><time>2026-04-06T12:36:26.007Z</time></trkpt><trkpt lat="43.860867" lon="12.1393301"><ele>538.8333333333333</ele><time>2026-04-06T12:36:28.007Z</time></trkpt><trkpt lat="43.8609248" lon="12.1393679"><ele>538.6666666666666</ele><time>2026-04-06T12:36:29.008Z</time></trkpt><trkpt lat="43.8610186" lon="12.1394178"><ele>538.5</ele><time>2026-04-06T12:36:31.009Z</time></trkpt><trkpt lat="43.8610547" lon="12.1394903"><ele>538.3333333333334</ele><time>2026-04-06T12:36:33.008Z</time></trkpt><trkpt lat="43.8609716" lon="12.1395224"><ele>538.1666666666667</ele><time>2026-04-06T12:36:37.011Z</time></trkpt><trkpt lat="43.8609056" lon="12.1394807"><ele>538.0</ele><time>2026-04-06T12:36:38.008Z</time></trkpt><trkpt lat="43.8608278" lon="12.1394364"><ele>538.0</ele><time>2026-04-06T12:36:39.007Z</time></trkpt><trkpt lat="43.8607544" lon="12.1394006"><ele>538.0</ele><time>2026-04-06T12:36:40.009Z</time></trkpt><trkpt lat="43.8606842" lon="12.139367"><ele>538.0</ele><time>2026-04-06T12:36:41.007Z</time></trkpt><trkpt lat="43.8606119" lon="12.139324"><ele>538.0</ele><time>2026-04-06T12:36:42.008Z</time></trkpt><trkpt lat="43.8605437" lon="12.1392752"><ele>538.0</ele><time>2026-04-06T12:36:43.007Z</time></trkpt><trkpt lat="43.8604869" lon="12.1392268"><ele>538.0</ele><time>2026-04-06T12:36:44.007Z</time></trkpt><trkpt lat="43.8604023" lon="12.1391497"><ele>538.0</ele><time>2026-04-06T12:36:46.008Z</time></trkpt><trkpt lat="43.8603397" lon="12.1391364"><ele>538.0</ele><time>2026-04-06T12:36:48.008Z</time></trkpt><trkpt lat="43.8603299" lon="12.1392924"><ele>538.0</ele><time>2026-04-06T12:36:51.007Z</time></trkpt><trkpt lat="43.8603697" lon="12.1393783"><ele>538.0</ele><time>2026-04-06T12:36:52.008Z</time></trkpt><trkpt lat="43.860429" lon="12.1394565"><ele>538.0</ele><time>2026-04-06T12:36:53.007Z</time></trkpt><trkpt lat="43.860508" lon="12.1395287"><ele>538.0</ele><time>2026-04-06T12:36:54.008Z</time></trkpt><trkpt lat="43.8605972" lon="12.1395948"><ele>538.0</ele><time>2026-04-06T12:36:55.01Z</time></trkpt><trkpt lat="43.8606809" lon="12.1396599"><ele>538.0</ele><time>2026-04-06T12:36:56.008Z</time></trkpt><trkpt lat="43.8607546" lon="12.1397213"><ele>538.0</ele><time>2026-04-06T12:36:57.009Z</time></trkpt><trkpt lat="43.8608106" lon="12.1397728"><ele>538.0</ele><time>2026-04-06T12:36:58.008Z</time></trkpt><trkpt lat="43.860854" lon="12.1398649"><ele>538.0</ele><time>2026-04-06T12:37:00.009Z</time></trkpt><trkpt lat="43.8608121" lon="12.1399343"><ele>538.0</ele><time>2026-04-06T12:37:03.008Z</time></trkpt><trkpt lat="43.8678777" lon="12.1306853"><ele>573.2</ele><time>2026-04-06T12:33:02.007Z</time></trkpt><trkpt lat="43.867793" lon="12.1307092"><ele>608.4</ele><time>2026-04-06T12:33:03.009Z</time></trkpt><trkpt lat="43.8676954" lon="12.1307234"><ele>643.6</ele><time>2026-04-06T12:33:04.007Z</time></trkpt><trkpt lat="43.867587" lon="12.1307541"><ele>678.8000000000001</ele><time>2026-04-06T12:33:05.013Z</time></trkpt><trkpt lat="43.8674769" lon="12.1308015"><ele>714.0</ele><time>2026-04-06T12:33:06.008Z</time></trkpt><trkpt lat="43.8673674" lon="12.1308592"><ele>714.0</ele><time>2026-04-06T12:33:07.009Z</time></trkpt><trkpt lat="43.8672722" lon="12.130926"><ele>714.0</ele><time>2026-04-06T12:33:08.008Z</time></trkpt><trkpt lat="43.8671851" lon="12.1309859"><ele>714.0</ele><time>2026-04-06T12:33:09.009Z</time></trkpt><trkpt lat="43.8671091" lon="12.1310481"><ele>714.0</ele><time>2026-04-06T12:33:10.008Z</time></trkpt><trkpt lat="43.8670464" lon="12.13112"><ele>714.0</ele><time>2026-04-06T12:33:11.006Z</time></trkpt><trkpt lat="43.8669955" lon="12.1312185"><ele>714.0</ele><time>2026-04-06T12:33:12.01Z</time></trkpt><trkpt lat="43.8669518" lon="12.1313322"><ele>714.0</ele><time>2026-04-06T12:33:13.008Z</time></trkpt><trkpt lat="43.8669248" lon="12.1314639"><ele>714.0</ele><time>2026-04-06T12:33:14.008Z</time></trkpt><trkpt lat="43.8669047" lon="12.1315732"><ele>714.0</ele><time>2026-04-06T12:33:15.008Z</time></trkpt><trkpt lat="43.8669199" lon="12.1316855"><ele>714.0</ele><time>2026-04-06T12:33:16.007Z</time></trkpt><trkpt lat="43.8669422" lon="12.1317999"><ele>714.0</ele><time>2026-04-06T12:33:17.007Z</time></trkpt><trkpt lat="43.8669793" lon="12.1319191"><ele>714.3333333333334</ele><time>2026-04-06T12:33:18.008Z</time></trkpt><trkpt lat="43.8670242" lon="12.1320365"><ele>714.6666666666666</ele><time>2026-04-06T12:33:19.01Z</time></trkpt><trkpt lat="43.8670462" lon="12.13216"><ele>715.0</ele><time>2026-04-06T12:33:20.008Z</time></trkpt><trkpt lat="43.8670585" lon="12.1322826"><ele>715.3333333333333</ele><time>2026-04-06T12:33:21.011Z</time></trkpt><trkpt lat="43.867068" lon="12.1323939"><ele>715.6666666666666</ele><time>2026-04-06T12:33:22.009Z</time></trkpt><trkpt lat="43.8670474" lon="12.1324927"><ele>716.0</ele><time>2026-04-06T12:33:23.013Z</time></trkpt><trkpt lat="43.8670169" lon="12.1325943"><ele>716.0</ele><time>2026-04-06T12:33:24.009Z</time></trkpt><trkpt lat="43.8669937" lon="12.1327083"><ele>716.0</ele><time>2026-04-06T12:33:25.009Z</time></trkpt><trkpt lat="43.8669748" lon="12.1328249"><ele>716.0</ele><time>2026-04-06T12:33:26.01Z</time></trkpt><trkpt lat="43.8669599" lon="12.1329289"><ele>716.0</ele><time>2026-04-06T12:33:27.009Z</time></trkpt><trkpt lat="43.8669577" lon="12.133027"><ele>716.0</ele><time>2026-04-06T12:33:28.007Z</time></trkpt><trkpt lat="43.8669638" lon="12.1331258"><ele>716.0</ele><time>2026-04-06T12:33:29.006Z</time></trkpt><trkpt lat="43.8669692" lon="12.1332202"><ele>712.5</ele><time>2026-04-06T12:33:30.007Z</time></trkpt><trkpt lat="43.866951" lon="12.1333039"><ele>709.0</ele><time>2026-04-06T12:33:31.01Z</time></trkpt><trkpt lat="43.8669093" lon="12.1333712"><ele>705.5</ele><time>2026-04-06T12:33:32.008Z</time></trkpt><trkpt lat="43.8668246" lon="12.1334833"><ele>702.0</ele><time>2026-04-06T12:33:34.01Z</time></trkpt><trkpt lat="43.8667516" lon="12.1335684"><ele>698.5</ele><time>2026-04-06T12:33:36.007Z</time></trkpt><trkpt lat="43.8666762" lon="12.1335571"><ele>695.0</ele><time>2026-04-06T12:33:38.012Z</time></trkpt><trkpt lat="43.866634" lon="12.1334641"><ele>692.75</ele><time>2026-04-06T12:33:40.009Z</time></trkpt><trkpt lat="43.8666556" lon="12.1333647"><ele>690.5</ele><time>2026-04-06T12:33:42.008Z</time></trkpt><trkpt lat="43.8667496" lon="12.1331902"><ele>688.25</ele><time>2026-04-06T12:33:46.02Z</time></trkpt><trkpt lat="43.8667814" lon="12.1330311"><ele>686.0</ele><time>2026-04-06T12:33:47.011Z</time></trkpt><trkpt lat="43.8667821" lon="12.132894"><ele>685.5</ele><time>2026-04-06T12:33:48.008Z</time></trkpt><trkpt lat="43.8667626" lon="12.132734"><ele>685.0</ele><time>2026-04-06T12:33:49.008Z</time></trkpt><trkpt lat="43.8667457" lon="12.1325693"><ele>684.5</ele><time>2026-04-06T12:33:50.012Z</time></trkpt><trkpt lat="43.8667356" lon="12.1324096"><ele>684.0</ele><time>2026-04-06T12:33:51.008Z</time></trkpt><trkpt lat="43.8667194" lon="12.1322658"><ele>685.6</ele><time>2026-04-06T12:33:52.012Z</time></trkpt><trkpt lat="43.8666877" lon="12.1321326"><ele>687.2</ele><time>2026-04-06T12:33:53.008Z</time></trkpt><trkpt lat="43.8666387" lon="12.1320112"><ele>688.8000000000001</ele><time>2026-04-06T12:33:54.008Z</time></trkpt><trkpt lat="43.8665815" lon="12.1319112"><ele>690.4000000000001</ele><time>2026-04-06T12:33:55.009Z</time></trkpt><trkpt lat="43.8665139" lon="12.1318084"><ele>692.0</ele><time>2026-04-06T12:33:56.01Z</time></trkpt><trkpt lat="43.8664513" lon="12.1317006"><ele>692.0</ele><time>2026-04-06T12:33:57.011Z</time></trkpt><trkpt lat="43.8663943" lon="12.1315855"><ele>692.0</ele><time>2026-04-06T12:33:58.008Z</time></trkpt><trkpt lat="43.8663476" lon="12.1314763"><ele>692.0</ele><time>2026-04-06T12:33:59.007Z</time></trkpt><trkpt lat="43.8663077" lon="12.1313592"><ele>692.0</ele><time>2026-04-06T12:34:00.008Z</time></trkpt><trkpt lat="43.8662802" lon="12.131239"><ele>692.0</ele><time>2026-04-06T12:34:01.01Z</time></trkpt><trkpt lat="43.86627" lon="12.1311079"><ele>691.1666666666666</ele><time>2026-04-06T12:34:02.009Z</time></trkpt><trkpt lat="43.8662804" lon="12.1309741"><ele>690.3333333333333</ele><time>2026-04-06T12:34:03.009Z</time></trkpt><trkpt lat="43.8663038" lon="12.1308446"><ele>689.5</ele><time>2026-04-06T12:34:04.009Z</time></trkpt><trkpt lat="43.8663356" lon="12.1307246"><ele>688.6666666666666</ele><time>2026-04-06T12:34:05.007Z</time></trkpt><trkpt lat="43.8663675" lon="12.1306152"><ele>687.8333333333334</ele><time>2026-04-06T12:34:06.01Z</time></trkpt><trkpt lat="43.8663927" lon="12.1305182"><ele>687.0</ele><time>2026-04-06T12:34:07.011Z</time></trkpt><trkpt lat="43.8664184" lon="12.1304316"><ele>685.0</ele><time>2026-04-06T12:34:08.01Z</time></trkpt><trkpt lat="43.8664707" lon="12.1302884"><ele>683.0</ele><time>2026-04-06T12:34:10.009Z</time></trkpt><trkpt lat="43.8664825" lon="12.1301631"><ele>681.0</ele><time>2026-04-06T12:34:12.009Z</time></trkpt><trkpt lat="43.8664233" lon="12.1301116"><ele>679.0</ele><time>2026-04-06T12:34:14.008Z</time></trkpt><trkpt lat="43.8663165" lon="12.1302061"><ele>677.0</ele><time>2026-04-06T12:34:16.008Z</time></trkpt><trkpt lat="43.8662393" lon="12.130318"><ele>677.0</ele><time>2026-04-06T12:34:17.008Z</time></trkpt><trkpt lat="43.8661547" lon="12.1304653"><ele>677.0</ele><time>2026-04-06T12:34:18.009Z</time></trkpt><trkpt lat="43.8660653" lon="12.1306201"><ele>677.0</ele><time>2026-04-06T12:34:19.009Z</time></trkpt><trkpt lat="43.8659801" lon="12.1307568"><ele>677.0</ele><time>2026-04-06T12:34:20.009Z</time></trkpt><trkpt lat="43.8658936" lon="12.1308824"><ele>673.2</ele><time>2026-04-06T12:34:21.008Z</time></trkpt><trkpt lat="43.8658098" lon="12.1309933"><ele>669.4000000000001</ele><time>2026-04-06T12:34:22.009Z</time></trkpt><trkpt lat="43.86573" lon="12.1310969"><ele>665.5999999999999</ele><time>2026-04-06T12:34:23.008Z</time></trkpt><trkpt lat="43.865658" lon="12.1311878"><ele>661.8</ele><time>2026-04-06T12:34:24.008Z</time></trkpt><trkpt lat="43.8655979" lon="12.131265"><ele>658.0</ele><time>2026-04-06T12:34:25.009Z</time></trkpt><trkpt lat="43.8655486" lon="12.1313249"><ele>658.0</ele><time>2026-04-06T12:34:26.013Z</time></trkpt><trkpt lat="43.8654567" lon="12.1313938"><ele>658.0</ele><time>2026-04-06T12:34:28.009Z</time></trkpt><trkpt lat="43.8653744" lon="12.131428"><ele>658.0</ele><time>2026-04-06T12:34:30.009Z</time></trkpt><trkpt lat="43.865318" lon="12.1315362"><ele>658.0</ele><time>2026-04-06T12:34:32.01Z</time></trkpt><trkpt lat="43.8652881" lon="12.1316246"><ele>658.0</ele><time>2026-04-06T12:34:33.01Z</time></trkpt><trkpt lat="43.8652488" lon="12.1317254"><ele>658.0</ele><time>2026-04-06T12:34:34.008Z</time></trkpt><trkpt lat="43.8652086" lon="12.1318344"><ele>658.1666666666667</ele><time>2026-04-06T12:34:35.007Z</time></trkpt><trkpt lat="43.8651696" lon="12.1319445"><ele>658.3333333333334</ele><time>2026-04-06T12:34:36.008Z</time></trkpt><trkpt lat="43.865127" lon="12.1320501"><ele>658.5</ele><time>2026-04-06T12:34:37.009Z</time></trkpt><trkpt lat="43.8650728" lon="12.1321454"><ele>658.6666666666666</ele><time>2026-04-06T12:34:38.01Z</time></trkpt><trkpt lat="43.8650088" lon="12.1322259"><ele>658.8333333333333</ele><time>2026-04-06T12:34:39.009Z</time></trkpt><trkpt lat="43.8649277" lon="12.1322874"><ele>659.0</ele><time>2026-04-06T12:34:40.009Z</time></trkpt><trkpt lat="43.8648304" lon="12.1323288"><ele>656.6</ele><time>2026-04-06T12:34:41.012Z</time></trkpt><trkpt lat="43.864719" lon="12.1323498"><ele>654.2</ele><time>2026-04-06T12:34:42.008Z</time></trkpt><trkpt lat="43.8646163" lon="12.1323793"><ele>651.8000000000001</ele><time>2026-04-06T12:34:43.012Z</time></trkpt><trkpt lat="43.8645234" lon="12.132423"><ele>649.4000000000001</ele><time>2026-04-06T12:34:44.009Z</time></trkpt><trkpt lat="43.8644405" lon="12.1324741"><ele>647.0</ele><time>2026-04-06T12:34:45.011Z</time></trkpt><trkpt lat="43.8643667" lon="12.1325339"><ele>647.0</ele><time>2026-04-06T12:34:46.01Z</time></trkpt><trkpt lat="43.8643031" lon="12.1326051"><ele>647.0</ele><time>2026-04-06T12:34:47.009Z</time></trkpt><trkpt lat="43.8642568" lon="12.1326798"><ele>647.0</ele><time>2026-04-06T12:34:48.011Z</time></trkpt><trkpt lat="43.8641937" lon="12.1328021"><ele>647.0</ele><time>2026-04-06T12:34:50.009Z</time></trkpt><trkpt lat="43.8641208" lon="12.132859"><ele>647.0</ele><time>2026-04-06T12:34:52.01Z</time></trkpt><trkpt lat="43.864033" lon="12.1328254"><ele>647.0</ele><time>2026-04-06T12:34:54.008Z</time></trkpt><trkpt lat="43.8639693" lon="12.1327057"><ele>644.4</ele><time>2026-04-06T12:34:56.008Z</time></trkpt><trkpt lat="43.8639759" lon="12.1325244"><ele>641.8000000000001</ele><time>2026-04-06T12:34:58.007Z</time></trkpt><trkpt lat="43.8639751" lon="12.1323972"><ele>639.2</ele><time>2026-04-06T12:35:00.009Z</time></trkpt><trkpt lat="43.863918" lon="12.1323277"><ele>636.6</ele><time>2026-04-06T12:35:02.012Z</time></trkpt><trkpt lat="43.863831" lon="12.1323256"><ele>634.0</ele><time>2026-04-06T12:35:04.009Z</time></trkpt><trkpt lat="43.8637757" lon="12.1323767"><ele>634.0</ele><time>2026-04-06T12:35:05.008Z</time></trkpt><trkpt lat="43.8636756" lon="12.1325416"><ele>634.0</ele><time>2026-04-06T12:35:08.082Z</time></trkpt><trkpt lat="43.8636275" lon="12.1328819"><ele>634.0</ele><time>2026-04-06T12:35:10.008Z</time></trkpt><trkpt lat="43.8636004" lon="12.1330743"><ele>633.4</ele><time>2026-04-06T12:35:11.007Z</time></trkpt><trkpt lat="43.863568" lon="12.1332246"><ele>632.8</ele><time>2026-04-06T12:35:12.01Z</time></trkpt><trkpt lat="43.863529" lon="12.1333609"><ele>632.2</ele><time>2026-04-06T12:35:13.01Z</time></trkpt><trkpt lat="43.86348" lon="12.1334936"><ele>631.6</ele><time>2026-04-06T12:35:14.009Z</time></trkpt><trkpt lat="43.86342" lon="12.1336283"><ele>631.0</ele><time>2026-04-06T12:35:15.011Z</time></trkpt><trkpt lat="43.863355" lon="12.13376"><ele>625.75</ele><time>2026-04-06T12:35:16.009Z</time></trkpt><trkpt lat="43.8632883" lon="12.133895"><ele>620.5</ele><time>2026-04-06T12:35:17.014Z</time></trkpt><trkpt lat="43.86323" lon="12.1340217"><ele>615.25</ele><time>2026-04-06T12:35:18.008Z</time></trkpt><trkpt lat="43.8631633" lon="12.13416"><ele>610.0</ele><time>2026-04-06T12:35:19.012Z</time></trkpt><trkpt lat="43.8631017" lon="12.1343083"><ele>610.0</ele><time>2026-04-06T12:35:20.009Z</time></trkpt><trkpt lat="43.8630517" lon="12.1344667"><ele>610.0</ele><time>2026-04-06T12:35:21.009Z</time></trkpt><trkpt lat="43.8630183" lon="12.13462"><ele>610.0</ele><time>2026-04-06T12:35:22.01Z</time></trkpt><trkpt lat="43.8630017" lon="12.1347667"><ele>610.0</ele><time>2026-04-06T12:35:23.009Z</time></trkpt><trkpt lat="43.8630067" lon="12.13492"><ele>609.4</ele><time>2026-04-06T12:35:24.012Z</time></trkpt><trkpt lat="43.86303" lon="12.1350717"><ele>608.8</ele><time>2026-04-06T12:35:25.01Z</time></trkpt><trkpt lat="43.863065" lon="12.1352083"><ele>608.2</ele><time>2026-04-06T12:35:26.01Z</time></trkpt><trkpt lat="43.8630983" lon="12.1353367"><ele>607.6</ele><time>2026-04-06T12:35:27.01Z</time></trkpt><trkpt lat="43.8631133" lon="12.1354683"><ele>607.0</ele><time>2026-04-06T12:35:28.008Z</time></trkpt><trkpt lat="43.863115" lon="12.1356"><ele>606.6</ele><time>2026-04-06T12:35:29.009Z</time></trkpt><trkpt lat="43.8630933" lon="12.1357317"><ele>606.2</ele><time>2026-04-06T12:35:30.008Z</time></trkpt><trkpt lat="43.863045" lon="12.13585"><ele>605.8</ele><time>2026-04-06T12:35:31.012Z</time></trkpt><trkpt lat="43.8629817" lon="12.13597"><ele>605.4</ele><time>2026-04-06T12:35:32.01Z</time></trkpt><trkpt lat="43.8629167" lon="12.13609"><ele>605.0</ele><time>2026-04-06T12:35:33.01Z</time></trkpt><trkpt lat="43.86286" lon="12.13621"><ele>605.0</ele><time>2026-04-06T12:35:34.009Z</time></trkpt><trkpt lat="43.8628" lon="12.1363317"><ele>605.0</ele><time>2026-04-06T12:35:35.01Z</time></trkpt><trkpt lat="43.8627383" lon="12.1364417"><ele>605.0</ele><time>2026-04-06T12:35:36.008Z</time></trkpt><trkpt lat="43.8626733" lon="12.1365367"><ele>605.0</ele><time>2026-04-06T12:35:37.011Z</time></trkpt><trkpt lat="43.86261" lon="12.136625"><ele>605.0</ele><time>2026-04-06T12:35:38.007Z</time></trkpt><trkpt lat="43.8625417" lon="12.13671"><ele>601.5</ele><time>2026-04-06T12:35:39.008Z</time></trkpt><trkpt lat="43.8624833" lon="12.1368"><ele>598.0</ele><time>2026-04-06T12:35:40.01Z</time></trkpt><trkpt lat="43.8624333" lon="12.1368933"><ele>594.5</ele><time>2026-04-06T12:35:41.008Z</time></trkpt><trkpt lat="43.8623983" lon="12.1369667"><ele>591.0</ele><time>2026-04-06T12:35:42.009Z</time></trkpt><trkpt lat="43.8623517" lon="12.13708"><ele>587.5</ele><time>2026-04-06T12:35:44.008Z</time></trkpt><trkpt lat="43.8623317" lon="12.1371883"><ele>584.0</ele><time>2026-04-06T12:35:46.009Z</time></trkpt><trkpt lat="43.8623717" lon="12.13729"><ele>584.0</ele><time>2026-04-06T12:35:48.009Z</time></trkpt><trkpt lat="43.86245" lon="12.1373267"><ele>584.0</ele><time>2026-04-06T12:35:50.01Z</time></trkpt><trkpt lat="43.8625321" lon="12.1373033"><ele>584.0</ele><time>2026-04-06T12:35:53.014Z</time></trkpt><trkpt lat="43.8625966" lon="12.1373155"><ele>584.0</ele><time>2026-04-06T12:35:56.024Z</time></trkpt><trkpt lat="43.8625383" lon="12.1373533"><ele>584.0</ele><time>2026-04-06T12:35:59.004Z</time></trkpt><trkpt lat="43.8623555" lon="12.1375119"><ele>580.8</ele><time>2026-04-06T12:36:02.009Z</time></trkpt><trkpt lat="43.8622615" lon="12.1376531"><ele>577.5999999999999</ele><time>2026-04-06T12:36:03.009Z</time></trkpt><trkpt lat="43.8621829" lon="12.1377613"><ele>574.4</ele><time>2026-04-06T12:36:04.007Z</time></trkpt><trkpt lat="43.862107" lon="12.137843"><ele>571.1999999999999</ele><time>2026-04-06T12:36:05.008Z</time></trkpt><trkpt lat="43.8620297" lon="12.1379013"><ele>568.0</ele><time>2026-04-06T12:36:06.008Z</time></trkpt><trkpt lat="43.8619469" lon="12.1379328"><ele>568.0</ele><time>2026-04-06T12:36:07.01Z</time></trkpt><trkpt lat="43.8618639" lon="12.1379531"><ele>568.0</ele><time>2026-04-06T12:36:08.008Z</time></trkpt><trkpt lat="43.8617815" lon="12.1379819"><ele>568.0</ele><time>2026-04-06T12:36:09.01Z</time></trkpt><trkpt lat="43.8616996" lon="12.1380181"><ele>568.0</ele><time>2026-04-06T12:36:10.008Z</time></trkpt><trkpt lat="43.8616215" lon="12.1380616"><ele>568.0</ele><time>2026-04-06T12:36:11.009Z</time></trkpt><trkpt lat="43.8615436" lon="12.1381085"><ele>568.0</ele><time>2026-04-06T12:36:12.012Z</time></trkpt><trkpt lat="43.8614631" lon="12.1381631"><ele>564.8</ele><time>2026-04-06T12:36:13.009Z</time></trkpt><trkpt lat="43.8613811" lon="12.1382286"><ele>561.5999999999999</ele><time>2026-04-06T12:36:14.009Z</time></trkpt><trkpt lat="43.8612993" lon="12.1382929"><ele>558.4000000000001</ele><time>2026-04-06T12:36:15.01Z</time></trkpt><trkpt lat="43.8612177" lon="12.1383612"><ele>555.2</ele><time>2026-04-06T12:36:16.008Z</time></trkpt><trkpt lat="43.861134" lon="12.1384354"><ele>552.0</ele><time>2026-04-06T12:36:17.009Z</time></trkpt><trkpt lat="43.8610518" lon="12.1385081"><ele>552.0</ele><time>2026-04-06T12:36:18.01Z</time></trkpt><trkpt lat="43.8609753" lon="12.1385819"><ele>552.0</ele><time>2026-04-06T12:36:19.007Z</time></trkpt><trkpt lat="43.8609047" lon="12.1386599"><ele>552.0</ele><time>2026-04-06T12:36:20.007Z</time></trkpt><trkpt lat="43.8608454" lon="12.1387427"><ele>552.0</ele><time>2026-04-06T12:36:21.008Z</time></trkpt><trkpt lat="43.8608032" lon="12.1388308"><ele>552.0</ele><time>2026-04-06T12:36:22.013Z</time></trkpt><trkpt lat="43.8607746" lon="12.1389222"><ele>552.0</ele><time>2026-04-06T12:36:23.007Z</time></trkpt><trkpt lat="43.8607596" lon="12.139021"><ele>549.6666666666666</ele><time>2026-04-06T12:36:24.008Z</time></trkpt><trkpt lat="43.8607599" lon="12.1391179"><ele>547.3333333333334</ele><time>2026-04-06T12:36:25.008Z</time></trkpt><trkpt lat="43.8607772" lon="12.139203"><ele>545.0</ele><time>2026-04-06T12:36:26.007Z</time></trkpt><trkpt lat="43.860867" lon="12.1393301"><ele>542.6666666666667</ele><time>2026-04-06T12:36:28.007Z</time></trkpt><trkpt lat="43.8609248" lon="12.1393679"><ele>540.3333333333334</ele><time>2026-04-06T12:36:29.008Z</time></trkpt><trkpt lat="43.8610186" lon="12.1394178"><ele>538.0</ele><time>2026-04-06T12:36:31.009Z</time></trkpt><trkpt lat="43.8610547" lon="12.1394903"><ele>538.0</ele><time>2026-04-06T12:36:33.008Z</time></trkpt><trkpt lat="43.8609716" lon="12.1395224"><ele>538.0</ele><time>2026-04-06T12:36:37.011Z</time></trkpt><trkpt lat="43.8609056" lon="12.1394807"><ele>538.0</ele><time>2026-04-06T12:36:38.008Z</time></trkpt><trkpt lat="43.8608278" lon="12.1394364"><ele>538.0</ele><time>2026-04-06T12:36:39.007Z</time></trkpt><trkpt lat="43.8607544" lon="12.1394006"><ele>538.0</ele><time>2026-04-06T12:36:40.009Z</time></trkpt><trkpt lat="43.8606842" lon="12.139367"><ele>538.0</ele><time>2026-04-06T12:36:41.007Z</time></trkpt><trkpt lat="43.8606119" lon="12.139324"><ele>538.0</ele><time>2026-04-06T12:36:42.008Z</time></trkpt><trkpt lat="43.8605437" lon="12.1392752"><ele>538.0</ele><time>2026-04-06T12:36:43.007Z</time></trkpt><trkpt lat="43.8604869" lon="12.1392268"><ele>538.0</ele><time>2026-04-06T12:36:44.007Z</time></trkpt><trkpt lat="43.8604023" lon="12.1391497"><ele>538.0</ele><time>2026-04-06T12:36:46.008Z</time></trkpt><trkpt lat="43.8603397" lon="12.1391364"><ele>538.0</ele><time>2026-04-06T12:36:48.008Z</time></trkpt><trkpt lat="43.8603299" lon="12.1392924"><ele>538.0</ele><time>2026-04-06T12:36:51.007Z</time></trkpt><trkpt lat="43.8603697" lon="12.1393783"><ele>538.0</ele><time>2026-04-06T12:36:52.008Z</time></trkpt><trkpt lat="43.860429" lon="12.1394565"><ele>538.0</ele><time>2026-04-06T12:36:53.007Z</time></trkpt><trkpt lat="43.860508" lon="12.1395287"><ele>538.0</ele><time>2026-04-06T12:36:54.008Z</time></trkpt><trkpt lat="43.8605972" lon="12.1395948"><ele>538.0</ele><time>2026-04-06T12:36:55.01Z</time></trkpt><trkpt lat="43.8606809" lon="12.1396599"><ele>538.0</ele><time>2026-04-06T12:36:56.008Z</time></trkpt><trkpt lat="43.8607546" lon="12.1397213"><ele>538.0</ele><time>2026-04-06T12:36:57.009Z</time></trkpt><trkpt lat="43.8608106" lon="12.1397728"><ele>538.0</ele><time>2026-04-06T12:36:58.008Z</time></trkpt><trkpt lat="43.860854" lon="12.1398649"><ele>538.0</ele><time>2026-04-06T12:37:00.009Z</time></trkpt><trkpt lat="43.8608121" lon="12.1399343"><ele>538.0</ele><time>2026-04-06T12:37:03.008Z</time></trkpt><trkpt lat="43.8607259" lon="12.1398671"><ele>538.0</ele><time>2026-04-06T12:37:05.01Z</time></trkpt><trkpt lat="43.8606631" lon="12.139826"><ele>538.0</ele><time>2026-04-06T12:37:06.008Z</time></trkpt><trkpt lat="43.860578" lon="12.1397843"><ele>538.0</ele><time>2026-04-06T12:37:07.008Z</time></trkpt><trkpt lat="43.8604752" lon="12.1397478"><ele>538.0</ele><time>2026-04-06T12:37:08.008Z</time></trkpt><trkpt lat="43.8603519" lon="12.1397161"><ele>538.0</ele><time>2026-04-06T12:37:09.008Z</time></trkpt><trkpt lat="43.8602233" lon="12.1397102"><ele>538.0</ele><time>2026-04-06T12:37:10.008Z</time></trkpt><trkpt lat="43.8601024" lon="12.1397125"><ele>533.4</ele><time>2026-04-06T12:37:11.007Z</time></trkpt><trkpt lat="43.8599752" lon="12.1396913"><ele>528.8</ele><time>2026-04-06T12:37:12.01Z</time></trkpt><trkpt lat="43.8598578" lon="12.1396734"><ele>524.2</ele><time>2026-04-06T12:37:13.008Z</time></trkpt><trkpt lat="43.8597658" lon="12.1396379"><ele>519.6</ele><time>2026-04-06T12:37:14.009Z</time></trkpt><trkpt lat="43.8596908" lon="12.1395825"><ele>515.0</ele><time>2026-04-06T12:37:15.007Z</time></trkpt><trkpt lat="43.8596219" lon="12.1395182"><ele>515.0</ele><time>2026-04-06T12:37:16.011Z</time></trkpt><trkpt lat="43.8595645" lon="12.139444"><ele>515.0</ele><time>2026-04-06T12:37:17.007Z</time></trkpt><trkpt lat="43.859513" lon="12.1393518"><ele>515.0</ele><time>2026-04-06T12:37:18.006Z</time></trkpt><trkpt lat="43.8594608" lon="12.1392206"><ele>515.0</ele><time>2026-04-06T12:37:19.009Z</time></trkpt><trkpt lat="43.8593992" lon="12.1390789"><ele>515.0</ele><time>2026-04-06T12:37:20.007Z</time></trkpt><trkpt lat="43.8593278" lon="12.1389534"><ele>511.0</ele><time>2026-04-06T12:37:21.008Z</time></trkpt><trkpt lat="43.8592522" lon="12.1388399"><ele>507.0</ele><time>2026-04-06T12:37:22.007Z</time></trkpt><trkpt lat="43.8591789" lon="12.1387412"><ele>503.0</ele><time>2026-04-06T12:37:23.01Z</time></trkpt><trkpt lat="43.8591205" lon="12.1386419"><ele>499.0</ele><time>2026-04-06T12:37:24.01Z</time></trkpt><trkpt lat="43.8590734" lon="12.1385332"><ele>495.0</ele><time>2026-04-06T12:37:25.006Z</time></trkpt><trkpt lat="43.8590463" lon="12.1384012"><ele>495.0</ele><time>2026-04-06T12:37:26.009Z</time></trkpt><trkpt lat="43.8590233" lon="12.1382589"><ele>495.0</ele><time>2026-04-06T12:37:27.006Z</time></trkpt><trkpt lat="43.8589962" lon="12.1381197"><ele>495.0</ele><time>2026-04-06T12:37:28.008Z</time></trkpt><trkpt lat="43.8589571" lon="12.1379868"><ele>495.0</ele><time>2026-04-06T12:37:29.006Z</time></trkpt><trkpt lat="43.85892" lon="12.1378594"><ele>495.0</ele><time>2026-04-06T12:37:30.007Z</time></trkpt><trkpt lat="43.8588916" lon="12.1377379"><ele>495.3333333333333</ele><time>2026-04-06T12:37:31.011Z</time></trkpt><trkpt lat="43.8588779" lon="12.1376176"><ele>495.66666666666663</ele><time>2026-04-06T12:37:32.006Z</time></trkpt><trkpt lat="43.8588745" lon="12.1375023"><ele>496.0</ele><time>2026-04-06T12:37:33.009Z</time></trkpt><trkpt lat="43.8588653" lon="12.1373948"><ele>496.3333333333333</ele><time>2026-04-06T12:37:34.007Z</time></trkpt><trkpt lat="43.8588425" lon="12.1372921"><ele>496.66666666666663</ele><time>2026-04-06T12:37:35.088Z</time></trkpt><trkpt lat="43.8588085" lon="12.1372096"><ele>497.0</ele><time>2026-04-06T12:37:36.008Z</time></trkpt><trkpt lat="43.8587595" lon="12.1371367"><ele>497.16666666666663</ele><time>2026-04-06T12:37:37.007Z</time></trkpt><trkpt lat="43.8587016" lon="12.1370841"><ele>497.3333333333333</ele><time>2026-04-06T12:37:38.005Z</time></trkpt><trkpt lat="43.8586253" lon="12.1370533"><ele>497.5</ele><time>2026-04-06T12:37:39.007Z</time></trkpt><trkpt lat="43.8585424" lon="12.1370379"><ele>497.66666666666663</ele><time>2026-04-06T12:37:40.007Z</time></trkpt><trkpt lat="43.8584448" lon="12.1370659"><ele>497.8333333333333</ele><time>2026-04-06T12:37:41.006Z</time></trkpt><trkpt lat="43.8583461" lon="12.137145"><ele>498.0</ele><time>2026-04-06T12:37:42.005Z</time></trkpt><trkpt lat="43.8582468" lon="12.1372467"><ele>498.5</ele><time>2026-04-06T12:37:43.006Z</time></trkpt><trkpt lat="43.8581755" lon="12.1373772"><ele>499.0</ele><time>2026-04-06T12:37:44.006Z</time></trkpt><trkpt lat="43.8581262" lon="12.1375019"><ele>499.5</ele><time>2026-04-06T12:37:45.009Z</time></trkpt><trkpt lat="43.8580947" lon="12.1376427"><ele>500.0</ele><time>2026-04-06T12:37:46.006Z</time></trkpt><trkpt lat="43.8580884" lon="12.1378162"><ele>498.8</ele><time>2026-04-06T12:37:47.009Z</time></trkpt><trkpt lat="43.8580588" lon="12.1379593"><ele>497.6</ele><time>2026-04-06T12:37:48.006Z</time></trkpt><trkpt lat="43.8580134" lon="12.138093"><ele>496.4</ele><time>2026-04-06T12:37:49.005Z</time></trkpt><trkpt lat="43.8579803" lon="12.1382386"><ele>495.2</ele><time>2026-04-06T12:37:50.007Z</time></trkpt><trkpt lat="43.857961" lon="12.1383906"><ele>494.0</ele><time>2026-04-06T12:37:51.008Z</time></trkpt><trkpt lat="43.8579622" lon="12.1385545"><ele>493.0</ele><time>2026-04-06T12:37:52.01Z</time></trkpt><trkpt lat="43.8579736" lon="12.138705"><ele>492.0</ele><time>2026-04-06T12:37:53.008Z</time></trkpt><trkpt lat="43.8579808" lon="12.1388649"><ele>491.0</ele><time>2026-04-06T12:37:54.007Z</time></trkpt><trkpt lat="43.8579733" lon="12.1390297"><ele>490.0</ele><time>2026-04-06T12:37:55.007Z</time></trkpt><trkpt lat="43.8579454" lon="12.139182"><ele>489.5</ele><time>2026-04-06T12:37:56.007Z</time></trkpt><trkpt lat="43.8579143" lon="12.1393393"><ele>489.0</ele><time>2026-04-06T12:37:57.009Z</time></trkpt><trkpt lat="43.8578945" lon="12.1395038"><ele>488.5</ele><time>2026-04-06T12:37:58.012Z</time></trkpt><trkpt lat="43.857877" lon="12.1396525"><ele>488.0</ele><time>2026-04-06T12:37:59.006Z</time></trkpt><trkpt lat="43.8578721" lon="12.1398036"><ele>488.2</ele><time>2026-04-06T12:38:00.007Z</time></trkpt><trkpt lat="43.8578525" lon="12.1399434"><ele>488.4</ele><time>2026-04-06T12:38:01.007Z</time></trkpt><trkpt lat="43.8578165" lon="12.1400658"><ele>488.59999999999997</ele><time>2026-04-06T12:38:02.005Z</time></trkpt><trkpt lat="43.8577633" lon="12.1401661"><ele>488.79999999999995</ele><time>2026-04-06T12:38:03.013Z</time></trkpt><trkpt lat="43.8577005" lon="12.1402535"><ele>489.0</ele><time>2026-04-06T12:38:04.007Z</time></trkpt><trkpt lat="43.8576276" lon="12.1403261"><ele>501.25</ele><time>2026-04-06T12:38:05.007Z</time></trkpt><trkpt lat="43.8575263" lon="12.1403792"><ele>513.5</ele><time>2026-04-06T12:38:06.006Z</time></trkpt><trkpt lat="43.8574056" lon="12.1404271"><ele>525.75</ele><time>2026-04-06T12:38:07.006Z</time></trkpt><trkpt lat="43.8572989" lon="12.1404847"><ele>538.0</ele><time>2026-04-06T12:38:08.008Z</time></trkpt><trkpt lat="43.8572169" lon="12.1405712"><ele>538.0</ele><time>2026-04-06T12:38:09.009Z</time></trkpt><trkpt lat="43.8571513" lon="12.1406418"><ele>538.0</ele><time>2026-04-06T12:38:10.007Z</time></trkpt><trkpt lat="43.8570897" lon="12.1406852"><ele>538.0</ele><time>2026-04-06T12:38:11.007Z</time></trkpt><trkpt lat="43.8570249" lon="12.140711"><ele>538.0</ele><time>2026-04-06T12:38:12.009Z</time></trkpt><trkpt lat="43.8569491" lon="12.1407275"><ele>538.0</ele><time>2026-04-06T12:38:13.009Z</time></trkpt><trkpt lat="43.8568643" lon="12.1407164"><ele>538.0</ele><time>2026-04-06T12:38:14.008Z</time></trkpt><trkpt lat="43.856772" lon="12.1407055"><ele>544.1999999999999</ele><time>2026-04-06T12:38:15.007Z</time></trkpt><trkpt lat="43.8566823" lon="12.1406845"><ele>550.4</ele><time>2026-04-06T12:38:16.006Z</time></trkpt><trkpt lat="43.8565971" lon="12.1406489"><ele>556.5999999999999</ele><time>2026-04-06T12:38:17.007Z</time></trkpt><trkpt lat="43.8565135" lon="12.1406059"><ele>562.8</ele><time>2026-04-06T12:38:18.006Z</time></trkpt><trkpt lat="43.8564368" lon="12.1405331"><ele>569.0</ele><time>2026-04-06T12:38:19.009Z</time></trkpt><trkpt lat="43.8563622" lon="12.1404498"><ele>569.0</ele><time>2026-04-06T12:38:20.006Z</time></trkpt><trkpt lat="43.8562816" lon="12.1403799"><ele>569.0</ele><time>2026-04-06T12:38:21.012Z</time></trkpt><trkpt lat="43.8561963" lon="12.1403322"><ele>569.0</ele><time>2026-04-06T12:38:22.008Z</time></trkpt><trkpt lat="43.8561161" lon="12.1402865"><ele>569.0</ele><time>2026-04-06T12:38:23.007Z</time></trkpt><trkpt lat="43.8560364" lon="12.1402824"><ele>569.0</ele><time>2026-04-06T12:38:24.009Z</time></trkpt><trkpt lat="43.8559555" lon="12.1403029"><ele>569.0</ele><time>2026-04-06T12:38:25.007Z</time></trkpt><trkpt lat="43.8558729" lon="12.1403517"><ele>568.6666666666666</ele><time>2026-04-06T12:38:26.007Z</time></trkpt><trkpt lat="43.8558069" lon="12.1404047"><ele>568.3333333333333</ele><time>2026-04-06T12:38:27.013Z</time></trkpt><trkpt lat="43.8557354" lon="12.1404341"><ele>568.0</ele><time>2026-04-06T12:38:28.008Z</time></trkpt><trkpt lat="43.8556634" lon="12.1404435"><ele>567.6666666666666</ele><time>2026-04-06T12:38:29.007Z</time></trkpt><trkpt lat="43.8555901" lon="12.1404344"><ele>567.3333333333334</ele><time>2026-04-06T12:38:30.005Z</time></trkpt><trkpt lat="43.8555063" lon="12.1404299"><ele>567.0</ele><time>2026-04-06T12:38:31.009Z</time></trkpt><trkpt lat="43.8554077" lon="12.1404485"><ele>567.0</ele><time>2026-04-06T12:38:32.007Z</time></trkpt><trkpt lat="43.8552948" lon="12.1404753"><ele>567.0</ele><time>2026-04-06T12:38:33.009Z</time></trkpt><trkpt lat="43.8551815" lon="12.1405102"><ele>567.0</ele><time>2026-04-06T12:38:34.006Z</time></trkpt><trkpt lat="43.8550807" lon="12.1405509"><ele>567.0</ele><time>2026-04-06T12:38:35.008Z</time></trkpt><trkpt lat="43.8549948" lon="12.1405975"><ele>567.0</ele><time>2026-04-06T12:38:36.008Z</time></trkpt><trkpt lat="43.8549166" lon="12.140628"><ele>567.6666666666666</ele><time>2026-04-06T12:38:37.008Z</time></trkpt><trkpt lat="43.8548455" lon="12.1406271"><ele>568.3333333333334</ele><time>2026-04-06T12:38:38.006Z</time></trkpt><trkpt lat="43.854779" lon="12.1405959"><ele>569.0</ele><time>2026-04-06T12:38:39.007Z</time></trkpt><trkpt lat="43.8547236" lon="12.1405351"><ele>569.6666666666667</ele><time>2026-04-06T12:38:40.008Z</time></trkpt><trkpt lat="43.854677" lon="12.1404534"><ele>570.3333333333334</ele><time>2026-04-06T12:38:41.006Z</time></trkpt><trkpt lat="43.8546334" lon="12.1403534"><ele>571.0</ele><time>2026-04-06T12:38:42.007Z</time></trkpt><trkpt lat="43.8545845" lon="12.1402431"><ele>571.0</ele><time>2026-04-06T12:38:43.007Z</time></trkpt><trkpt lat="43.8545266" lon="12.1401381"><ele>571.0</ele><time>2026-04-06T12:38:44.007Z</time></trkpt><trkpt lat="43.8544591" lon="12.1400499"><ele>571.0</ele><time>2026-04-06T12:38:45.007Z</time></trkpt><trkpt lat="43.8543803" lon="12.1399793"><ele>571.0</ele><time>2026-04-06T12:38:46.008Z</time></trkpt><trkpt lat="43.8542948" lon="12.1399203"><ele>571.0</ele><time>2026-04-06T12:38:47.014Z</time></trkpt><trkpt lat="43.8542141" lon="12.1398598"><ele>574.0</ele><time>2026-04-06T12:38:48.007Z</time></trkpt><trkpt lat="43.8541381" lon="12.1397821"><ele>577.0</ele><time>2026-04-06T12:38:49.009Z</time></trkpt><trkpt lat="43.8540647" lon="12.1396854"><ele>580.0</ele><time>2026-04-06T12:38:50.007Z</time></trkpt><trkpt lat="43.8539918" lon="12.1395844"><ele>583.0</ele><time>2026-04-06T12:38:51.007Z</time></trkpt><trkpt lat="43.8539235" lon="12.1394949"><ele>586.0</ele><time>2026-04-06T12:38:52.086Z</time></trkpt><trkpt lat="43.8538674" lon="12.1394274"><ele>586.0</ele><time>2026-04-06T12:38:53.006Z</time></trkpt><trkpt lat="43.8538121" lon="12.1393633"><ele>586.0</ele><time>2026-04-06T12:38:54.008Z</time></trkpt><trkpt lat="43.8537604" lon="12.1393049"><ele>586.0</ele><time>2026-04-06T12:38:55.009Z</time></trkpt><trkpt lat="43.8536636" lon="12.1392113"><ele>586.0</ele><time>2026-04-06T12:38:57.008Z</time></trkpt><trkpt lat="43.8536119" lon="12.1391591"><ele>586.0</ele><time>2026-04-06T12:38:58.01Z</time></trkpt><trkpt lat="43.8535623" lon="12.1391036"><ele>586.0</ele><time>2026-04-06T12:38:59.008Z</time></trkpt><trkpt lat="43.8534934" lon="12.1389876"><ele>586.2</ele><time>2026-04-06T12:39:01.009Z</time></trkpt><trkpt lat="43.8534353" lon="12.1388607"><ele>586.4000000000001</ele><time>2026-04-06T12:39:03.01Z</time></trkpt><trkpt lat="43.8533656" lon="12.1387731"><ele>586.6</ele><time>2026-04-06T12:39:05.008Z</time></trkpt><trkpt lat="43.8533121" lon="12.1387106"><ele>586.8000000000001</ele><time>2026-04-06T12:39:07.008Z</time></trkpt><trkpt lat="43.8532442" lon="12.1386116"><ele>587.0</ele><time>2026-04-06T12:39:09.009Z</time></trkpt><trkpt lat="43.8531676" lon="12.1385186"><ele>587.0</ele><time>2026-04-06T12:39:11.007Z</time></trkpt><trkpt lat="43.8530875" lon="12.1384157"><ele>587.0</ele><time>2026-04-06T12:39:13.009Z</time></trkpt><trkpt lat="43.8530305" lon="12.1382724"><ele>587.0</ele><time>2026-04-06T12:39:15.01Z</time></trkpt><trkpt lat="43.8529975" lon="12.1381789"><ele>587.0</ele><time>2026-04-06T12:39:16.012Z</time></trkpt><trkpt lat="43.8529598" lon="12.1380782"><ele>587.0</ele><time>2026-04-06T12:39:17.009Z</time></trkpt><trkpt lat="43.8529116" lon="12.1379755"><ele>588.6</ele><time>2026-04-06T12:39:18.012Z</time></trkpt><trkpt lat="43.8528539" lon="12.1378788"><ele>590.2</ele><time>2026-04-06T12:39:19.009Z</time></trkpt><trkpt lat="43.8527797" lon="12.1377966"><ele>591.8</ele><time>2026-04-06T12:39:20.008Z</time></trkpt><trkpt lat="43.8526929" lon="12.1377249"><ele>593.4</ele><time>2026-04-06T12:39:21.008Z</time></trkpt><trkpt lat="43.8525922" lon="12.1376634"><ele>595.0</ele><time>2026-04-06T12:39:22.007Z</time></trkpt><trkpt lat="43.8524829" lon="12.1376104"><ele>595.0</ele><time>2026-04-06T12:39:23.008Z</time></trkpt><trkpt lat="43.8523725" lon="12.1375742"><ele>595.0</ele><time>2026-04-06T12:39:24.007Z</time></trkpt><trkpt lat="43.8522678" lon="12.1375493"><ele>595.0</ele><time>2026-04-06T12:39:25.007Z</time></trkpt><trkpt lat="43.8521808" lon="12.1375475"><ele>595.0</ele><time>2026-04-06T12:39:26.007Z</time></trkpt><trkpt lat="43.8521063" lon="12.1375617"><ele>595.0</ele><time>2026-04-06T12:39:27.009Z</time></trkpt><trkpt lat="43.852037" lon="12.1375932"><ele>595.0</ele><time>2026-04-06T12:39:28.012Z</time></trkpt><trkpt lat="43.8519698" lon="12.1376431"><ele>595.0</ele><time>2026-04-06T12:39:29.011Z</time></trkpt><trkpt lat="43.8519302" lon="12.1377303"><ele>595.0</ele><time>2026-04-06T12:39:30.008Z</time></trkpt><trkpt lat="43.8519063" lon="12.1378278"><ele>595.0</ele><time>2026-04-06T12:39:31.01Z</time></trkpt><trkpt lat="43.8519179" lon="12.1379483"><ele>595.0</ele><time>2026-04-06T12:39:32.008Z</time></trkpt><trkpt lat="43.8519341" lon="12.1380875"><ele>595.0</ele><time>2026-04-06T12:39:33.009Z</time></trkpt><trkpt lat="43.8519732" lon="12.138256"><ele>590.25</ele><time>2026-04-06T12:39:34.008Z</time></trkpt><trkpt lat="43.8520182" lon="12.1384189"><ele>585.5</ele><time>2026-04-06T12:39:35.008Z</time></trkpt><trkpt lat="43.8520579" lon="12.1385764"><ele>580.75</ele><time>2026-04-06T12:39:36.008Z</time></trkpt><trkpt lat="43.8520894" lon="12.1387281"><ele>576.0</ele><time>2026-04-06T12:39:37.011Z</time></trkpt><trkpt lat="43.8521087" lon="12.1388708"><ele>576.0</ele><time>2026-04-06T12:39:38.011Z</time></trkpt><trkpt lat="43.8521161" lon="12.1390059"><ele>576.0</ele><time>2026-04-06T12:39:39.008Z</time></trkpt><trkpt lat="43.8521114" lon="12.1391397"><ele>576.0</ele><time>2026-04-06T12:39:40.009Z</time></trkpt><trkpt lat="43.8520965" lon="12.1392754"><ele>576.0</ele><time>2026-04-06T12:39:41.008Z</time></trkpt><trkpt lat="43.852074" lon="12.139418"><ele>576.0</ele><time>2026-04-06T12:39:42.009Z</time></trkpt><trkpt lat="43.8520413" lon="12.1395547"><ele>574.5</ele><time>2026-04-06T12:39:43.008Z</time></trkpt><trkpt lat="43.852019" lon="12.1396746"><ele>573.0</ele><time>2026-04-06T12:39:44.008Z</time></trkpt><trkpt lat="43.8519969" lon="12.139776"><ele>571.5</ele><time>2026-04-06T12:39:45.01Z</time></trkpt><trkpt lat="43.8519694" lon="12.1398636"><ele>570.0</ele><time>2026-04-06T12:39:46.009Z</time></trkpt><trkpt lat="43.8518735" lon="12.1399834"><ele>568.5</ele><time>2026-04-06T12:39:48.008Z</time></trkpt><trkpt lat="43.8518105" lon="12.1400131"><ele>567.0</ele><time>2026-04-06T12:39:49.01Z</time></trkpt><trkpt lat="43.8517437" lon="12.1400222"><ele>567.0</ele><time>2026-04-06T12:39:50.009Z</time></trkpt><trkpt lat="43.8514951" lon="12.1398699"><ele>567.0</ele><time>2026-04-06T12:39:53.009Z</time></trkpt><trkpt lat="43.8512676" lon="12.1399426"><ele>572.6666666666666</ele><time>2026-04-06T12:39:54.21Z</time></trkpt><trkpt lat="43.8510006" lon="12.1398338"><ele>578.3333333333333</ele><time>2026-04-06T12:39:56.008Z</time></trkpt><trkpt lat="43.8508871" lon="12.1397279"><ele>584.0</ele><time>2026-04-06T12:39:57.008Z</time></trkpt><trkpt lat="43.8507796" lon="12.1396339"><ele>584.0</ele><time>2026-04-06T12:39:58.007Z</time></trkpt><trkpt lat="43.8506704" lon="12.1396114"><ele>584.0</ele><time>2026-04-06T12:39:59.008Z</time></trkpt><trkpt lat="43.8505662" lon="12.1395694"><ele>584.0</ele><time>2026-04-06T12:40:00.011Z</time></trkpt><trkpt lat="43.8504736" lon="12.1395328"><ele>584.0</ele><time>2026-04-06T12:40:01.009Z</time></trkpt><trkpt lat="43.8503874" lon="12.1395073"><ele>584.0</ele><time>2026-04-06T12:40:02.009Z</time></trkpt><trkpt lat="43.8503167" lon="12.1395059"><ele>584.0</ele><time>2026-04-06T12:40:03.011Z</time></trkpt><trkpt lat="43.8502513" lon="12.1395158"><ele>584.0</ele><time>2026-04-06T12:40:04.01Z</time></trkpt><trkpt lat="43.8501941" lon="12.139563"><ele>584.0</ele><time>2026-04-06T12:40:05.01Z</time></trkpt><trkpt lat="43.8501352" lon="12.1396469"><ele>584.0</ele><time>2026-04-06T12:40:06.009Z</time></trkpt><trkpt lat="43.8500825" lon="12.1397415"><ele>584.0</ele><time>2026-04-06T12:40:07.007Z</time></trkpt><trkpt lat="43.8500341" lon="12.1398664"><ele>584.0</ele><time>2026-04-06T12:40:08.009Z</time></trkpt><trkpt lat="43.850013" lon="12.1400326"><ele>579.0</ele><time>2026-04-06T12:40:09.009Z</time></trkpt><trkpt lat="43.8500054" lon="12.140206"><ele>574.0</ele><time>2026-04-06T12:40:10.011Z</time></trkpt><trkpt lat="43.8500098" lon="12.1403737"><ele>569.0</ele><time>2026-04-06T12:40:11.009Z</time></trkpt><trkpt lat="43.8500349" lon="12.1405346"><ele>564.0</ele><time>2026-04-06T12:40:12.007Z</time></trkpt><trkpt lat="43.8500897" lon="12.140699"><ele>558.6</ele><time>2026-04-06T12:40:13.01Z</time></trkpt><trkpt lat="43.8501569" lon="12.1408627"><ele>553.2</ele><time>2026-04-06T12:40:14.007Z</time></trkpt><trkpt lat="43.8502148" lon="12.1410082"><ele>547.8000000000001</ele><time>2026-04-06T12:40:15.009Z</time></trkpt><trkpt lat="43.850255" lon="12.1411274"><ele>542.4</ele><time>2026-04-06T12:40:16.008Z</time></trkpt><trkpt lat="43.8502788" lon="12.1412261"><ele>537.0</ele><time>2026-04-06T12:40:17.01Z</time></trkpt><trkpt lat="43.8502805" lon="12.1413823"><ele>537.0</ele><time>2026-04-06T12:40:19.007Z</time></trkpt><trkpt lat="43.8502117" lon="12.1415182"><ele>537.0</ele><time>2026-04-06T12:40:21.01Z</time></trkpt><trkpt lat="43.8501554" lon="12.1415839"><ele>537.0</ele><time>2026-04-06T12:40:22.009Z</time></trkpt><trkpt lat="43.8500608" lon="12.1416472"><ele>537.0</ele><time>2026-04-06T12:40:23.008Z</time></trkpt><trkpt lat="43.8499566" lon="12.141725"><ele>537.0</ele><time>2026-04-06T12:40:24.008Z</time></trkpt><trkpt lat="43.8498592" lon="12.1417984"><ele>540.2</ele><time>2026-04-06T12:40:25.01Z</time></trkpt><trkpt lat="43.8497676" lon="12.1418519"><ele>543.4000000000001</ele><time>2026-04-06T12:40:26.007Z</time></trkpt><trkpt lat="43.8496834" lon="12.1419026"><ele>546.5999999999999</ele><time>2026-04-06T12:40:27.008Z</time></trkpt><trkpt lat="43.8496088" lon="12.1419644"><ele>549.8</ele><time>2026-04-06T12:40:28.009Z</time></trkpt><trkpt lat="43.8495383" lon="12.1420526"><ele>553.0</ele><time>2026-04-06T12:40:29.008Z</time></trkpt><trkpt lat="43.849478" lon="12.142172"><ele>553.0</ele><time>2026-04-06T12:40:30.007Z</time></trkpt><trkpt lat="43.8494286" lon="12.1423084"><ele>553.0</ele><time>2026-04-06T12:40:31.008Z</time></trkpt><trkpt lat="43.849387" lon="12.1424372"><ele>553.0</ele><time>2026-04-06T12:40:32.01Z</time></trkpt><trkpt lat="43.8493412" lon="12.1425503"><ele>553.0</ele><time>2026-04-06T12:40:33.009Z</time></trkpt><trkpt lat="43.8492815" lon="12.1426476"><ele>553.0</ele><time>2026-04-06T12:40:34.008Z</time></trkpt><trkpt lat="43.8492059" lon="12.1427263"><ele>553.1999999999999</ele><time>2026-04-06T12:40:35.009Z</time></trkpt><trkpt lat="43.8491212" lon="12.1427861"><ele>553.4</ele><time>2026-04-06T12:40:36.01Z</time></trkpt><trkpt lat="43.849035" lon="12.1428314"><ele>553.5999999999999</ele><time>2026-04-06T12:40:37.009Z</time></trkpt><trkpt lat="43.8489437" lon="12.1428571"><ele>553.8</ele><time>2026-04-06T12:40:38.01Z</time></trkpt><trkpt lat="43.8488527" lon="12.1428644"><ele>554.0</ele><time>2026-04-06T12:40:39.011Z</time></trkpt><trkpt lat="43.8487661" lon="12.1428462"><ele>554.0</ele><time>2026-04-06T12:40:40.009Z</time></trkpt><trkpt lat="43.8486838" lon="12.1427979"><ele>554.0</ele><time>2026-04-06T12:40:41.008Z</time></trkpt><trkpt lat="43.8486087" lon="12.1427447"><ele>554.0</ele><time>2026-04-06T12:40:42.008Z</time></trkpt><trkpt lat="43.8485355" lon="12.1426892"><ele>554.0</ele><time>2026-04-06T12:40:43.009Z</time></trkpt><trkpt lat="43.8484663" lon="12.1426406"><ele>554.0</ele><time>2026-04-06T12:40:44.008Z</time></trkpt><trkpt lat="43.8484035" lon="12.1426008"><ele>554.0</ele><time>2026-04-06T12:40:45.01Z</time></trkpt><trkpt lat="43.8482925" lon="12.1425543"><ele>554.0</ele><time>2026-04-06T12:40:47.01Z</time></trkpt><trkpt lat="43.8481776" lon="12.1425855"><ele>554.0</ele><time>2026-04-06T12:40:49.008Z</time></trkpt><trkpt lat="43.8481176" lon="12.142633"><ele>554.0</ele><time>2026-04-06T12:40:50.011Z</time></trkpt><trkpt lat="43.84806" lon="12.1427066"><ele>554.0</ele><time>2026-04-06T12:40:51.009Z</time></trkpt><trkpt lat="43.8480095" lon="12.1428272"><ele>554.0</ele><time>2026-04-06T12:40:52.007Z</time></trkpt><trkpt lat="43.8479638" lon="12.1429988"><ele>554.0</ele><time>2026-04-06T12:40:53.009Z</time></trkpt><trkpt lat="43.8479188" lon="12.1431531"><ele>554.0</ele><time>2026-04-06T12:40:54.011Z</time></trkpt><trkpt lat="43.8478676" lon="12.1433057"><ele>554.0</ele><time>2026-04-06T12:40:55.01Z</time></trkpt><trkpt lat="43.8478047" lon="12.1434541"><ele>554.0</ele><time>2026-04-06T12:40:56.01Z</time></trkpt><trkpt lat="43.8477384" lon="12.1435949"><ele>552.25</ele><time>2026-04-06T12:40:57.009Z</time></trkpt><trkpt lat="43.8476805" lon="12.1437329"><ele>550.5</ele><time>2026-04-06T12:40:58.009Z</time></trkpt><trkpt lat="43.8476316" lon="12.1438754"><ele>548.75</ele><time>2026-04-06T12:40:59.009Z</time></trkpt><trkpt lat="43.8476081" lon="12.1440324"><ele>547.0</ele><time>2026-04-06T12:41:00.011Z</time></trkpt><trkpt lat="43.8476068" lon="12.1442116"><ele>547.0</ele><time>2026-04-06T12:41:01.009Z</time></trkpt><trkpt lat="43.8476169" lon="12.1443886"><ele>547.0</ele><time>2026-04-06T12:41:02.008Z</time></trkpt><trkpt lat="43.8476319" lon="12.1445427"><ele>547.0</ele><time>2026-04-06T12:41:03.009Z</time></trkpt><trkpt lat="43.8476413" lon="12.1446824"><ele>547.0</ele><time>2026-04-06T12:41:04.008Z</time></trkpt><trkpt lat="43.8476373" lon="12.1448211"><ele>547.0</ele><time>2026-04-06T12:41:05.009Z</time></trkpt><trkpt lat="43.8476133" lon="12.1449691"><ele>545.4</ele><time>2026-04-06T12:41:06.01Z</time></trkpt><trkpt lat="43.8475686" lon="12.1451161"><ele>543.8000000000001</ele><time>2026-04-06T12:41:07.008Z</time></trkpt><trkpt lat="43.8475185" lon="12.1452453"><ele>542.2</ele><time>2026-04-06T12:41:08.01Z</time></trkpt><trkpt lat="43.847475" lon="12.1453609"><ele>540.6</ele><time>2026-04-06T12:41:09.01Z</time></trkpt><trkpt lat="43.847454" lon="12.1454784"><ele>539.0</ele><time>2026-04-06T12:41:10.009Z</time></trkpt><trkpt lat="43.8474596" lon="12.1456102"><ele>538.6</ele><time>2026-04-06T12:41:11.008Z</time></trkpt><trkpt lat="43.8474881" lon="12.145754"><ele>538.2</ele><time>2026-04-06T12:41:12.008Z</time></trkpt><trkpt lat="43.8475292" lon="12.1458944"><ele>537.8000000000001</ele><time>2026-04-06T12:41:13.009Z</time></trkpt><trkpt lat="43.8475725" lon="12.1460227"><ele>537.4</ele><time>2026-04-06T12:41:14.007Z</time></trkpt><trkpt lat="43.8476145" lon="12.1461424"><ele>537.0</ele><time>2026-04-06T12:41:15.008Z</time></trkpt><trkpt lat="43.8476532" lon="12.1462455"><ele>539.0</ele><time>2026-04-06T12:41:16.009Z</time></trkpt><trkpt lat="43.8476887" lon="12.146325"><ele>541.0</ele><time>2026-04-06T12:41:17.008Z</time></trkpt><trkpt lat="43.8477698" lon="12.146417"><ele>543.0</ele><time>2026-04-06T12:41:19.01Z</time></trkpt><trkpt lat="43.8478406" lon="12.1463861"><ele>545.0</ele><time>2026-04-06T12:41:20.008Z</time></trkpt><trkpt lat="43.8479184" lon="12.1463097"><ele>547.0</ele><time>2026-04-06T12:41:21.009Z</time></trkpt><trkpt lat="43.848017" lon="12.1462011"><ele>547.0</ele><time>2026-04-06T12:41:22.009Z</time></trkpt><trkpt lat="43.8481192" lon="12.1460944"><ele>547.0</ele><time>2026-04-06T12:41:23.008Z</time></trkpt><trkpt lat="43.8482191" lon="12.1459802"><ele>547.0</ele><time>2026-04-06T12:41:24.009Z</time></trkpt><trkpt lat="43.8483184" lon="12.1458544"><ele>547.0</ele><time>2026-04-06T12:41:25.009Z</time></trkpt><trkpt lat="43.8484126" lon="12.1457318"><ele>547.0</ele><time>2026-04-06T12:41:26.008Z</time></trkpt><trkpt lat="43.8484956" lon="12.1456289"><ele>547.0</ele><time>2026-04-06T12:41:27.009Z</time></trkpt><trkpt lat="43.8485604" lon="12.1455497"><ele>547.0</ele><time>2026-04-06T12:41:28.01Z</time></trkpt><trkpt lat="43.8486195" lon="12.1454876"><ele>547.0</ele><time>2026-04-06T12:41:29.009Z</time></trkpt><trkpt lat="43.8487165" lon="12.1454521"><ele>547.0</ele><time>2026-04-06T12:41:31.01Z</time></trkpt><trkpt lat="43.8487727" lon="12.1455119"><ele>547.0</ele><time>2026-04-06T12:41:33.008Z</time></trkpt><trkpt lat="43.8487868" lon="12.1456695"><ele>550.4</ele><time>2026-04-06T12:41:35.011Z</time></trkpt><trkpt lat="43.8487512" lon="12.1457956"><ele>553.8000000000001</ele><time>2026-04-06T12:41:36.009Z</time></trkpt><trkpt lat="43.8487077" lon="12.1459375"><ele>557.2</ele><time>2026-04-06T12:41:37.008Z</time></trkpt><trkpt lat="43.8486711" lon="12.1461014"><ele>560.6</ele><time>2026-04-06T12:41:38.01Z</time></trkpt><trkpt lat="43.8486536" lon="12.146251"><ele>564.0</ele><time>2026-04-06T12:41:39.009Z</time></trkpt><trkpt lat="43.8486586" lon="12.1463765"><ele>564.0</ele><time>2026-04-06T12:41:40.009Z</time></trkpt><trkpt lat="43.8486785" lon="12.1464808"><ele>564.0</ele><time>2026-04-06T12:41:41.008Z</time></trkpt><trkpt lat="43.8487018" lon="12.1465687"><ele>564.0</ele><time>2026-04-06T12:41:42.009Z</time></trkpt><trkpt lat="43.8487385" lon="12.1467089"><ele>564.0</ele><time>2026-04-06T12:41:44.012Z</time></trkpt><trkpt lat="43.8487635" lon="12.1468344"><ele>564.0</ele><time>2026-04-06T12:41:46.008Z</time></trkpt><trkpt lat="43.8487722" lon="12.1469936"><ele>565.6</ele><time>2026-04-06T12:41:48.008Z</time></trkpt><trkpt lat="43.8487749" lon="12.1470905"><ele>567.2</ele><time>2026-04-06T12:41:49.008Z</time></trkpt><trkpt lat="43.8487759" lon="12.1471847"><ele>568.8000000000001</ele><time>2026-04-06T12:41:50.007Z</time></trkpt><trkpt lat="43.8487421" lon="12.147332"><ele>570.4</ele><time>2026-04-06T12:41:52.01Z</time></trkpt><trkpt lat="43.8486524" lon="12.1474272"><ele>572.0</ele><time>2026-04-06T12:41:54.007Z</time></trkpt><trkpt lat="43.8485488" lon="12.1475172"><ele>571.0</ele><time>2026-04-06T12:41:56.007Z</time></trkpt><trkpt lat="43.8484966" lon="12.1475763"><ele>570.0</ele><time>2026-04-06T12:41:57.008Z</time></trkpt><trkpt lat="43.8484487" lon="12.1476484"><ele>569.0</ele><time>2026-04-06T12:41:58.008Z</time></trkpt><trkpt lat="43.848392" lon="12.1477345"><ele>568.0</ele><time>2026-04-06T12:41:59.009Z</time></trkpt><trkpt lat="43.8483291" lon="12.1478233"><ele>567.0</ele><time>2026-04-06T12:42:00.007Z</time></trkpt><trkpt lat="43.8482589" lon="12.1479028"><ele>566.0</ele><time>2026-04-06T12:42:01.009Z</time></trkpt><trkpt lat="43.8481874" lon="12.1479792"><ele>566.0</ele><time>2026-04-06T12:42:02.007Z</time></trkpt><trkpt lat="43.8481305" lon="12.1480757"><ele>566.0</ele><time>2026-04-06T12:42:03.008Z</time></trkpt><trkpt lat="43.8480749" lon="12.1481866"><ele>566.0</ele><time>2026-04-06T12:42:04.007Z</time></trkpt><trkpt lat="43.8480275" lon="12.1483159"><ele>566.0</ele><time>2026-04-06T12:42:05.007Z</time></trkpt><trkpt lat="43.8479828" lon="12.1484416"><ele>566.0</ele><time>2026-04-06T12:42:06.009Z</time></trkpt><trkpt lat="43.8479304" lon="12.1485547"><ele>566.8</ele><time>2026-04-06T12:42:07.007Z</time></trkpt><trkpt lat="43.8478653" lon="12.1486466"><ele>567.6</ele><time>2026-04-06T12:42:08.011Z</time></trkpt><trkpt lat="43.8477834" lon="12.1487094"><ele>568.4</ele><time>2026-04-06T12:42:09.01Z</time></trkpt><trkpt lat="43.8476853" lon="12.1487466"><ele>569.2</ele><time>2026-04-06T12:42:10.008Z</time></trkpt><trkpt lat="43.8475674" lon="12.1487713"><ele>570.0</ele><time>2026-04-06T12:42:11.007Z</time></trkpt><trkpt lat="43.8474353" lon="12.1487904"><ele>570.0</ele><time>2026-04-06T12:42:12.007Z</time></trkpt><trkpt lat="43.8473059" lon="12.1487712"><ele>570.0</ele><time>2026-04-06T12:42:13.008Z</time></trkpt><trkpt lat="43.8471954" lon="12.1487374"><ele>570.0</ele><time>2026-04-06T12:42:14.008Z</time></trkpt><trkpt lat="43.8471015" lon="12.1487478"><ele>570.0</ele><time>2026-04-06T12:42:15.01Z</time></trkpt><trkpt lat="43.8470099" lon="12.1487694"><ele>570.0</ele><time>2026-04-06T12:42:16.008Z</time></trkpt><trkpt lat="43.8469133" lon="12.1488204"><ele>570.0</ele><time>2026-04-06T12:42:17.008Z</time></trkpt><trkpt lat="43.8468015" lon="12.1488899"><ele>570.0</ele><time>2026-04-06T12:42:18.01Z</time></trkpt><trkpt lat="43.8466786" lon="12.1489614"><ele>570.0</ele><time>2026-04-06T12:42:19.008Z</time></trkpt><trkpt lat="43.8465614" lon="12.1490258"><ele>570.0</ele><time>2026-04-06T12:42:20.008Z</time></trkpt><trkpt lat="43.846455" lon="12.1490661"><ele>573.8</ele><time>2026-04-06T12:42:21.01Z</time></trkpt><trkpt lat="43.8463589" lon="12.1490805"><ele>577.6</ele><time>2026-04-06T12:42:22.008Z</time></trkpt><trkpt lat="43.8462671" lon="12.1490998"><ele>581.4</ele><time>2026-04-06T12:42:23.007Z</time></trkpt><trkpt lat="43.8461775" lon="12.1491595"><ele>585.2</ele><time>2026-04-06T12:42:24.009Z</time></trkpt><trkpt lat="43.8460884" lon="12.1492125"><ele>589.0</ele><time>2026-04-06T12:42:25.01Z</time></trkpt><trkpt lat="43.8460047" lon="12.1492417"><ele>587.5</ele><time>2026-04-06T12:42:26.008Z</time></trkpt><trkpt lat="43.8459311" lon="12.1492644"><ele>586.0</ele><time>2026-04-06T12:42:27.009Z</time></trkpt><trkpt lat="43.8458714" lon="12.1493153"><ele>584.5</ele><time>2026-04-06T12:42:28.011Z</time></trkpt><trkpt lat="43.8458138" lon="12.1493927"><ele>583.0</ele><time>2026-04-06T12:42:29.008Z</time></trkpt><trkpt lat="43.8457539" lon="12.1494995"><ele>581.5</ele><time>2026-04-06T12:42:30.005Z</time></trkpt><trkpt lat="43.8456878" lon="12.149611"><ele>580.0</ele><time>2026-04-06T12:42:31.007Z</time></trkpt><trkpt lat="43.8456065" lon="12.1497211"><ele>580.0</ele><time>2026-04-06T12:42:32.007Z</time></trkpt><trkpt lat="43.8455239" lon="12.1498378"><ele>580.0</ele><time>2026-04-06T12:42:33.009Z</time></trkpt><trkpt lat="43.8454439" lon="12.1499544"><ele>580.0</ele><time>2026-04-06T12:42:34.01Z</time></trkpt><trkpt lat="43.8453781" lon="12.1501041"><ele>580.0</ele><time>2026-04-06T12:42:35.006Z</time></trkpt><trkpt lat="43.8453122" lon="12.15025"><ele>582.4</ele><time>2026-04-06T12:42:36.008Z</time></trkpt><trkpt lat="43.8452527" lon="12.15038"><ele>584.8</ele><time>2026-04-06T12:42:37.009Z</time></trkpt><trkpt lat="43.8452046" lon="12.1504833"><ele>587.2</ele><time>2026-04-06T12:42:38.007Z</time></trkpt><trkpt lat="43.8451673" lon="12.1505798"><ele>589.6</ele><time>2026-04-06T12:42:39.007Z</time></trkpt><trkpt lat="43.8451358" lon="12.1506833"><ele>592.0</ele><time>2026-04-06T12:42:40.006Z</time></trkpt><trkpt lat="43.8451113" lon="12.1508046"><ele>592.0</ele><time>2026-04-06T12:42:41.006Z</time></trkpt><trkpt lat="43.8451095" lon="12.1509639"><ele>592.0</ele><time>2026-04-06T12:42:42.008Z</time></trkpt><trkpt lat="43.8451139" lon="12.1511366"><ele>592.0</ele><time>2026-04-06T12:42:43.011Z</time></trkpt><trkpt lat="43.8451095" lon="12.1513063"><ele>592.0</ele><time>2026-04-06T12:42:44.008Z</time></trkpt><trkpt lat="43.8450964" lon="12.1514716"><ele>593.8000000000001</ele><time>2026-04-06T12:42:45.008Z</time></trkpt><trkpt lat="43.8450717" lon="12.1516345"><ele>595.6</ele><time>2026-04-06T12:42:46.007Z</time></trkpt><trkpt lat="43.8450417" lon="12.151787"><ele>597.4000000000001</ele><time>2026-04-06T12:42:47.008Z</time></trkpt><trkpt lat="43.8450061" lon="12.1519277"><ele>599.2</ele><time>2026-04-06T12:42:48.007Z</time></trkpt><trkpt lat="43.8449665" lon="12.1520577"><ele>601.0</ele><time>2026-04-06T12:42:49.008Z</time></trkpt><trkpt lat="43.8449203" lon="12.1521875"><ele>601.0</ele><time>2026-04-06T12:42:50.006Z</time></trkpt><trkpt lat="43.8448686" lon="12.1523129"><ele>601.0</ele><time>2026-04-06T12:42:51.005Z</time></trkpt><trkpt lat="43.8448142" lon="12.1524232"><ele>601.0</ele><time>2026-04-06T12:42:52.007Z</time></trkpt><trkpt lat="43.84476" lon="12.1525235"><ele>601.0</ele><time>2026-04-06T12:42:53.007Z</time></trkpt><trkpt lat="43.8447103" lon="12.1526328"><ele>601.0</ele><time>2026-04-06T12:42:54.008Z</time></trkpt><trkpt lat="43.8446669" lon="12.1527524"><ele>603.4</ele><time>2026-04-06T12:42:55.008Z</time></trkpt><trkpt lat="43.8446372" lon="12.1528885"><ele>605.8</ele><time>2026-04-06T12:42:56.007Z</time></trkpt><trkpt lat="43.8446108" lon="12.1530283"><ele>608.1999999999999</ele><time>2026-04-06T12:42:57.008Z</time></trkpt><trkpt lat="43.8445842" lon="12.1531733"><ele>610.6</ele><time>2026-04-06T12:42:58.006Z</time></trkpt><trkpt lat="43.8445614" lon="12.1533129"><ele>613.0</ele><time>2026-04-06T12:42:59.007Z</time></trkpt><trkpt lat="43.8445462" lon="12.153436"><ele>613.4</ele><time>2026-04-06T12:43:00.007Z</time></trkpt><trkpt lat="43.8445445" lon="12.1535523"><ele>613.8</ele><time>2026-04-06T12:43:01.006Z</time></trkpt><trkpt lat="43.8445609" lon="12.1536656"><ele>614.2</ele><time>2026-04-06T12:43:02.005Z</time></trkpt><trkpt lat="43.8445983" lon="12.1537798"><ele>614.6</ele><time>2026-04-06T12:43:03.008Z</time></trkpt><trkpt lat="43.8446522" lon="12.1538984"><ele>615.0</ele><time>2026-04-06T12:43:04.009Z</time></trkpt><trkpt lat="43.8447068" lon="12.1540172"><ele>615.0</ele><time>2026-04-06T12:43:05.008Z</time></trkpt><trkpt lat="43.8447612" lon="12.1541303"><ele>615.0</ele><time>2026-04-06T12:43:06.01Z</time></trkpt><trkpt lat="43.8448195" lon="12.1542328"><ele>615.0</ele><time>2026-04-06T12:43:07.007Z</time></trkpt><trkpt lat="43.8448817" lon="12.1543136"><ele>615.0</ele><time>2026-04-06T12:43:08.009Z</time></trkpt><trkpt lat="43.8449515" lon="12.1543724"><ele>615.0</ele><time>2026-04-06T12:43:09.009Z</time></trkpt><trkpt lat="43.8450295" lon="12.1544134"><ele>615.0</ele><time>2026-04-06T12:43:10.009Z</time></trkpt><trkpt lat="43.8451107" lon="12.1544524"><ele>617.1666666666666</ele><time>2026-04-06T12:43:11.01Z</time></trkpt><trkpt lat="43.8451919" lon="12.154507"><ele>619.3333333333334</ele><time>2026-04-06T12:43:12.007Z</time></trkpt><trkpt lat="43.8452685" lon="12.1545765"><ele>621.5</ele><time>2026-04-06T12:43:13.01Z</time></trkpt><trkpt lat="43.84533" lon="12.1546521"><ele>623.6666666666667</ele><time>2026-04-06T12:43:14.009Z</time></trkpt><trkpt lat="43.8453734" lon="12.15473"><ele>625.8333333333334</ele><time>2026-04-06T12:43:15.007Z</time></trkpt><trkpt lat="43.8454015" lon="12.1548157"><ele>628.0</ele><time>2026-04-06T12:43:16.007Z</time></trkpt><trkpt lat="43.8454203" lon="12.1549084"><ele>628.0</ele><time>2026-04-06T12:43:17.008Z</time></trkpt><trkpt lat="43.8454439" lon="12.1549924"><ele>628.0</ele><time>2026-04-06T12:43:18.011Z</time></trkpt><trkpt lat="43.8455011" lon="12.1550904"><ele>628.0</ele><time>2026-04-06T12:43:20.008Z</time></trkpt><trkpt lat="43.8456113" lon="12.1550347"><ele>628.0</ele><time>2026-04-06T12:43:22.007Z</time></trkpt><trkpt lat="43.8456641" lon="12.1549679"><ele>628.0</ele><time>2026-04-06T12:43:23.01Z</time></trkpt><trkpt lat="43.8456997" lon="12.1548741"><ele>628.0</ele><time>2026-04-06T12:43:24.008Z</time></trkpt><trkpt lat="43.8457417" lon="12.1547865"><ele>628.6666666666667</ele><time>2026-04-06T12:43:25.009Z</time></trkpt><trkpt lat="43.8457879" lon="12.1547178"><ele>629.3333333333334</ele><time>2026-04-06T12:43:26.008Z</time></trkpt><trkpt lat="43.8458391" lon="12.1546667"><ele>630.0</ele><time>2026-04-06T12:43:27.009Z</time></trkpt><trkpt lat="43.8459015" lon="12.1546491"><ele>630.6666666666666</ele><time>2026-04-06T12:43:28.01Z</time></trkpt><trkpt lat="43.8459751" lon="12.154662"><ele>631.3333333333333</ele><time>2026-04-06T12:43:29.01Z</time></trkpt><trkpt lat="43.8460637" lon="12.1547008"><ele>632.0</ele><time>2026-04-06T12:43:30.008Z</time></trkpt><trkpt lat="43.8461496" lon="12.1547464"><ele>633.6</ele><time>2026-04-06T12:43:31.008Z</time></trkpt><trkpt lat="43.8462336" lon="12.1547908"><ele>635.2</ele><time>2026-04-06T12:43:32.007Z</time></trkpt><trkpt lat="43.8463215" lon="12.1548274"><ele>636.8</ele><time>2026-04-06T12:43:33.008Z</time></trkpt><trkpt lat="43.8464128" lon="12.1548609"><ele>638.4</ele><time>2026-04-06T12:43:34.01Z</time></trkpt><trkpt lat="43.8464997" lon="12.1548951"><ele>640.0</ele><time>2026-04-06T12:43:35.009Z</time></trkpt><trkpt lat="43.8465899" lon="12.1549321"><ele>640.0</ele><time>2026-04-06T12:43:36.008Z</time></trkpt><trkpt lat="43.8466806" lon="12.1549839"><ele>640.0</ele><time>2026-04-06T12:43:37.007Z</time></trkpt><trkpt lat="43.8467676" lon="12.1550414"><ele>640.0</ele><time>2026-04-06T12:43:38.008Z</time></trkpt><trkpt lat="43.8468418" lon="12.1550915"><ele>640.0</ele><time>2026-04-06T12:43:39.01Z</time></trkpt><trkpt lat="43.8469028" lon="12.1551331"><ele>640.0</ele><time>2026-04-06T12:43:40.009Z</time></trkpt><trkpt lat="43.8470111" lon="12.1552201"><ele>641.8</ele><time>2026-04-06T12:43:42.007Z</time></trkpt><trkpt lat="43.8470703" lon="12.1552917"><ele>643.6</ele><time>2026-04-06T12:43:43.007Z</time></trkpt><trkpt lat="43.8471346" lon="12.1553921"><ele>645.4000000000001</ele><time>2026-04-06T12:43:44.009Z</time></trkpt><trkpt lat="43.8472076" lon="12.1555325"><ele>647.2</ele><time>2026-04-06T12:43:45.01Z</time></trkpt><trkpt lat="43.8472852" lon="12.1557052"><ele>649.0</ele><time>2026-04-06T12:43:46.009Z</time></trkpt><trkpt lat="43.8473656" lon="12.1558969"><ele>649.0</ele><time>2026-04-06T12:43:47.008Z</time></trkpt><trkpt lat="43.8474366" lon="12.1560895"><ele>649.0</ele><time>2026-04-06T12:43:48.008Z</time></trkpt><trkpt lat="43.8475002" lon="12.1562761"><ele>649.0</ele><time>2026-04-06T12:43:49.009Z</time></trkpt><trkpt lat="43.847565" lon="12.156464"><ele>674.0</ele><time>2026-04-06T12:43:50.008Z</time></trkpt><trkpt lat="43.8481475" lon="12.1572144"><ele>661.0</ele><time>2026-04-06T12:43:56.008Z</time></trkpt><trkpt lat="43.8483329" lon="12.1563155"><ele>667.5</ele><time>2026-04-06T12:44:01.007Z</time></trkpt><trkpt lat="43.8481441" lon="12.1566349"><ele>674.0</ele><time>2026-04-06T12:44:02.007Z</time></trkpt><trkpt lat="43.8480395" lon="12.1568166"><ele>674.0</ele><time>2026-04-06T12:44:03.008Z</time></trkpt><trkpt lat="43.8479482" lon="12.1569979"><ele>674.0</ele><time>2026-04-06T12:44:04.008Z</time></trkpt><trkpt lat="43.8478596" lon="12.1572358"><ele>674.0</ele><time>2026-04-06T12:44:05.01Z</time></trkpt><trkpt lat="43.8477965" lon="12.1574458"><ele>675.25</ele><time>2026-04-06T12:44:06.008Z</time></trkpt><trkpt lat="43.8477727" lon="12.1576085"><ele>676.5</ele><time>2026-04-06T12:44:07.009Z</time></trkpt><trkpt lat="43.8478188" lon="12.1577868"><ele>677.75</ele><time>2026-04-06T12:44:08.007Z</time></trkpt><trkpt lat="43.8478664" lon="12.1579789"><ele>679.0</ele><time>2026-04-06T12:44:09.008Z</time></trkpt><trkpt lat="43.8479377" lon="12.1581273"><ele>678.75</ele><time>2026-04-06T12:44:10.008Z</time></trkpt><trkpt lat="43.8480326" lon="12.158273"><ele>678.5</ele><time>2026-04-06T12:44:11.007Z</time></trkpt><trkpt lat="43.8481234" lon="12.1584284"><ele>678.25</ele><time>2026-04-06T12:44:12.007Z</time></trkpt><trkpt lat="43.8482018" lon="12.1586095"><ele>678.0</ele><time>2026-04-06T12:44:13.009Z</time></trkpt><trkpt lat="43.8482772" lon="12.1587989"><ele>678.0</ele><time>2026-04-06T12:44:14.008Z</time></trkpt><trkpt lat="43.8483566" lon="12.1589615"><ele>678.0</ele><time>2026-04-06T12:44:15.008Z</time></trkpt><trkpt lat="43.8484378" lon="12.1590875"><ele>678.0</ele><time>2026-04-06T12:44:16.009Z</time></trkpt><trkpt lat="43.8485104" lon="12.1591851"><ele>678.0</ele><time>2026-04-06T12:44:17.008Z</time></trkpt><trkpt lat="43.8485858" lon="12.1592494"><ele>680.6666666666666</ele><time>2026-04-06T12:44:18.007Z</time></trkpt><trkpt lat="43.8486734" lon="12.1592949"><ele>683.3333333333334</ele><time>2026-04-06T12:44:19.008Z</time></trkpt><trkpt lat="43.8487616" lon="12.1593358"><ele>686.0</ele><time>2026-04-06T12:44:20.008Z</time></trkpt><trkpt lat="43.8488352" lon="12.1593887"><ele>688.6666666666667</ele><time>2026-04-06T12:44:21.008Z</time></trkpt><trkpt lat="43.8488906" lon="12.1594496"><ele>691.3333333333334</ele><time>2026-04-06T12:44:22.009Z</time></trkpt><trkpt lat="43.8489564" lon="12.1595676"><ele>694.0</ele><time>2026-04-06T12:44:24.008Z</time></trkpt><trkpt lat="43.8489554" lon="12.1597302"><ele>694.0</ele><time>2026-04-06T12:44:26.009Z</time></trkpt><trkpt lat="43.8489474" lon="12.1598299"><ele>694.0</ele><time>2026-04-06T12:44:27.008Z</time></trkpt><trkpt lat="43.8489299" lon="12.1599548"><ele>694.0</ele><time>2026-04-06T12:44:28.009Z</time></trkpt><trkpt lat="43.8488996" lon="12.1600994"><ele>694.0</ele><time>2026-04-06T12:44:29.008Z</time></trkpt><trkpt lat="43.8488872" lon="12.1602332"><ele>694.0</ele><time>2026-04-06T12:44:30.009Z</time></trkpt><trkpt lat="43.8488834" lon="12.1603506"><ele>694.6666666666667</ele><time>2026-04-06T12:44:31.008Z</time></trkpt><trkpt lat="43.8488979" lon="12.1604525"><ele>695.3333333333334</ele><time>2026-04-06T12:44:32.009Z</time></trkpt><trkpt lat="43.8489199" lon="12.1605535"><ele>696.0</ele><time>2026-04-06T12:44:33.009Z</time></trkpt><trkpt lat="43.8489644" lon="12.1606328"><ele>696.6666666666666</ele><time>2026-04-06T12:44:34.007Z</time></trkpt><trkpt lat="43.8490395" lon="12.1606911"><ele>697.3333333333333</ele><time>2026-04-06T12:44:35.008Z</time></trkpt><trkpt lat="43.8491197" lon="12.1607523"><ele>698.0</ele><time>2026-04-06T12:44:36.008Z</time></trkpt><trkpt lat="43.849208" lon="12.1608115"><ele>699.2</ele><time>2026-04-06T12:44:37.009Z</time></trkpt><trkpt lat="43.8493049" lon="12.1608577"><ele>700.4</ele><time>2026-04-06T12:44:38.008Z</time></trkpt><trkpt lat="43.8494032" lon="12.1608942"><ele>701.6</ele><time>2026-04-06T12:44:39.012Z</time></trkpt><trkpt lat="43.8494954" lon="12.1609308"><ele>702.8000000000001</ele><time>2026-04-06T12:44:40.008Z</time></trkpt><trkpt lat="43.8495778" lon="12.1609741"><ele>704.0</ele><time>2026-04-06T12:44:41.008Z</time></trkpt><trkpt lat="43.8496488" lon="12.1610199"><ele>704.0</ele><time>2026-04-06T12:44:42.008Z</time></trkpt><trkpt lat="43.8497097" lon="12.1610664"><ele>704.0</ele><time>2026-04-06T12:44:43.009Z</time></trkpt><trkpt lat="43.8497656" lon="12.1611154"><ele>704.0</ele><time>2026-04-06T12:44:44.008Z</time></trkpt><trkpt lat="43.8498624" lon="12.1611795"><ele>704.0</ele><time>2026-04-06T12:44:46.012Z</time></trkpt><trkpt lat="43.8499663" lon="12.1611711"><ele>704.0</ele><time>2026-04-06T12:44:48.007Z</time></trkpt><trkpt lat="43.8500304" lon="12.1611348"><ele>704.0</ele><time>2026-04-06T12:44:49.008Z</time></trkpt><trkpt lat="43.8500936" lon="12.1610761"><ele>699.4000000000001</ele><time>2026-04-06T12:44:50.008Z</time></trkpt><trkpt lat="43.8501585" lon="12.1609819"><ele>694.8</ele><time>2026-04-06T12:44:51.009Z</time></trkpt><trkpt lat="43.8502227" lon="12.1608583"><ele>690.2</ele><time>2026-04-06T12:44:52.008Z</time></trkpt><trkpt lat="43.8502788" lon="12.1607338"><ele>685.5999999999999</ele><time>2026-04-06T12:44:53.007Z</time></trkpt><trkpt lat="43.8503347" lon="12.1606116"><ele>681.0</ele><time>2026-04-06T12:44:54.01Z</time></trkpt><trkpt lat="43.8503951" lon="12.1604938"><ele>681.0</ele><time>2026-04-06T12:44:55.009Z</time></trkpt><trkpt lat="43.8504607" lon="12.1603774"><ele>681.0</ele><time>2026-04-06T12:44:56.01Z</time></trkpt><trkpt lat="43.8505271" lon="12.1602638"><ele>681.0</ele><time>2026-04-06T12:44:57.01Z</time></trkpt><trkpt lat="43.8505942" lon="12.1601532"><ele>681.0</ele><time>2026-04-06T12:44:58.011Z</time></trkpt><trkpt lat="43.8506651" lon="12.1600496"><ele>681.0</ele><time>2026-04-06T12:44:59.007Z</time></trkpt><trkpt lat="43.85074" lon="12.1599492"><ele>682.0</ele><time>2026-04-06T12:45:00.009Z</time></trkpt><trkpt lat="43.8508214" lon="12.1598588"><ele>683.0</ele><time>2026-04-06T12:45:01.009Z</time></trkpt><trkpt lat="43.8509094" lon="12.1597824"><ele>684.0</ele><time>2026-04-06T12:45:02.007Z</time></trkpt><trkpt lat="43.8510005" lon="12.1597189"><ele>685.0</ele><time>2026-04-06T12:45:03.008Z</time></trkpt><trkpt lat="43.8510885" lon="12.1596698"><ele>686.0</ele><time>2026-04-06T12:45:04.007Z</time></trkpt><trkpt lat="43.8511737" lon="12.1596424"><ele>686.0</ele><time>2026-04-06T12:45:05.008Z</time></trkpt><trkpt lat="43.8512571" lon="12.1596347"><ele>686.0</ele><time>2026-04-06T12:45:06.006Z</time></trkpt><trkpt lat="43.851333" lon="12.1596385"><ele>686.0</ele><time>2026-04-06T12:45:07.007Z</time></trkpt><trkpt lat="43.8513979" lon="12.1596531"><ele>686.0</ele><time>2026-04-06T12:45:08.009Z</time></trkpt><trkpt lat="43.851498" lon="12.1596663"><ele>686.0</ele><time>2026-04-06T12:45:10.01Z</time></trkpt><trkpt lat="43.8515883" lon="12.1596051"><ele>686.0</ele><time>2026-04-06T12:45:12.007Z</time></trkpt><trkpt lat="43.8516414" lon="12.1595453"><ele>686.0</ele><time>2026-04-06T12:45:13.008Z</time></trkpt><trkpt lat="43.8517046" lon="12.1594726"><ele>686.0</ele><time>2026-04-06T12:45:14.007Z</time></trkpt><trkpt lat="43.8517785" lon="12.1593846"><ele>686.0</ele><time>2026-04-06T12:45:15.009Z</time></trkpt><trkpt lat="43.8518563" lon="12.1592973"><ele>686.0</ele><time>2026-04-06T12:45:16.006Z</time></trkpt><trkpt lat="43.8519317" lon="12.1592146"><ele>686.0</ele><time>2026-04-06T12:45:17.006Z</time></trkpt><trkpt lat="43.8520006" lon="12.1591433"><ele>682.1666666666666</ele><time>2026-04-06T12:45:18.01Z</time></trkpt><trkpt lat="43.8520671" lon="12.1591014"><ele>678.3333333333333</ele><time>2026-04-06T12:45:19.01Z</time></trkpt><trkpt lat="43.852135" lon="12.1590801"><ele>674.5</ele><time>2026-04-06T12:45:20.008Z</time></trkpt><trkpt lat="43.8522151" lon="12.1590757"><ele>670.6666666666666</ele><time>2026-04-06T12:45:21.008Z</time></trkpt><trkpt lat="43.8523109" lon="12.1590866"><ele>666.8333333333334</ele><time>2026-04-06T12:45:22.007Z</time></trkpt><trkpt lat="43.8524181" lon="12.1591061"><ele>663.0</ele><time>2026-04-06T12:45:23.007Z</time></trkpt><trkpt lat="43.8525313" lon="12.1591307"><ele>664.2</ele><time>2026-04-06T12:45:24.007Z</time></trkpt><trkpt lat="43.8526401" lon="12.1591459"><ele>665.4</ele><time>2026-04-06T12:45:25.008Z</time></trkpt><trkpt lat="43.8527479" lon="12.1591421"><ele>666.6</ele><time>2026-04-06T12:45:26.008Z</time></trkpt><trkpt lat="43.8528541" lon="12.1591223"><ele>667.8000000000001</ele><time>2026-04-06T12:45:27.008Z</time></trkpt><trkpt lat="43.8529441" lon="12.1591112"><ele>669.0</ele><time>2026-04-06T12:45:28.008Z</time></trkpt><trkpt lat="43.853029" lon="12.1591233"><ele>669.0</ele><time>2026-04-06T12:45:29.009Z</time></trkpt><trkpt lat="43.8531092" lon="12.159156"><ele>669.0</ele><time>2026-04-06T12:45:30.007Z</time></trkpt><trkpt lat="43.8531668" lon="12.1592197"><ele>669.0</ele><time>2026-04-06T12:45:31.008Z</time></trkpt><trkpt lat="43.8532127" lon="12.1593134"><ele>669.0</ele><time>2026-04-06T12:45:32.01Z</time></trkpt><trkpt lat="43.8532752" lon="12.1593979"><ele>669.0</ele><time>2026-04-06T12:45:33.006Z</time></trkpt><trkpt lat="43.8533477" lon="12.1594625"><ele>669.0</ele><time>2026-04-06T12:45:34.006Z</time></trkpt><trkpt lat="43.8534294" lon="12.1594959"><ele>668.6</ele><time>2026-04-06T12:45:35.011Z</time></trkpt><trkpt lat="43.8535106" lon="12.1595015"><ele>668.2</ele><time>2026-04-06T12:45:36.008Z</time></trkpt><trkpt lat="43.8535991" lon="12.1594829"><ele>667.8000000000001</ele><time>2026-04-06T12:45:37.01Z</time></trkpt><trkpt lat="43.8536963" lon="12.1594499"><ele>667.4000000000001</ele><time>2026-04-06T12:45:38.008Z</time></trkpt><trkpt lat="43.8537869" lon="12.1594175"><ele>667.0</ele><time>2026-04-06T12:45:39.007Z</time></trkpt><trkpt lat="43.8538775" lon="12.159417"><ele>667.0</ele><time>2026-04-06T12:45:40.007Z</time></trkpt><trkpt lat="43.8539649" lon="12.1594468"><ele>667.0</ele><time>2026-04-06T12:45:41.01Z</time></trkpt><trkpt lat="43.854058" lon="12.1594919"><ele>667.0</ele><time>2026-04-06T12:45:42.01Z</time></trkpt><trkpt lat="43.8541611" lon="12.1595366"><ele>667.0</ele><time>2026-04-06T12:45:43.006Z</time></trkpt><trkpt lat="43.8542647" lon="12.1595813"><ele>667.0</ele><time>2026-04-06T12:45:44.006Z</time></trkpt><trkpt lat="43.8543703" lon="12.1596263"><ele>660.2</ele><time>2026-04-06T12:45:45.008Z</time></trkpt><trkpt lat="43.8544802" lon="12.1596601"><ele>653.4000000000001</ele><time>2026-04-06T12:45:46.008Z</time></trkpt><trkpt lat="43.8545927" lon="12.1596912"><ele>646.5999999999999</ele><time>2026-04-06T12:45:47.011Z</time></trkpt><trkpt lat="43.8547021" lon="12.1597162"><ele>639.8</ele><time>2026-04-06T12:45:48.007Z</time></trkpt><trkpt lat="43.8548095" lon="12.1597374"><ele>633.0</ele><time>2026-04-06T12:45:49.009Z</time></trkpt><trkpt lat="43.8549057" lon="12.1597496"><ele>633.0</ele><time>2026-04-06T12:45:50.007Z</time></trkpt><trkpt lat="43.854989" lon="12.1597518"><ele>633.0</ele><time>2026-04-06T12:45:51.012Z</time></trkpt><trkpt lat="43.8550621" lon="12.1597375"><ele>633.0</ele><time>2026-04-06T12:45:52.009Z</time></trkpt><trkpt lat="43.8551245" lon="12.1597048"><ele>633.0</ele><time>2026-04-06T12:45:53.008Z</time></trkpt><trkpt lat="43.8552178" lon="12.1596265"><ele>633.0</ele><time>2026-04-06T12:45:55.009Z</time></trkpt><trkpt lat="43.8552987" lon="12.1596251"><ele>633.0</ele><time>2026-04-06T12:45:57.009Z</time></trkpt><trkpt lat="43.8553217" lon="12.1597258"><ele>631.4</ele><time>2026-04-06T12:45:59.009Z</time></trkpt><trkpt lat="43.8552765" lon="12.1598273"><ele>629.8</ele><time>2026-04-06T12:46:01.009Z</time></trkpt><trkpt lat="43.8552207" lon="12.1598755"><ele>628.2</ele><time>2026-04-06T12:46:02.007Z</time></trkpt><trkpt lat="43.8551465" lon="12.1599246"><ele>626.6</ele><time>2026-04-06T12:46:03.009Z</time></trkpt><trkpt lat="43.8550086" lon="12.1600186"><ele>625.0</ele><time>2026-04-06T12:46:05.009Z</time></trkpt><trkpt lat="43.8549056" lon="12.1600902"><ele>625.0</ele><time>2026-04-06T12:46:06.009Z</time></trkpt><trkpt lat="43.8548231" lon="12.160146"><ele>625.0</ele><time>2026-04-06T12:46:07.009Z</time></trkpt><trkpt lat="43.8547497" lon="12.1601793"><ele>625.0</ele><time>2026-04-06T12:46:08.008Z</time></trkpt><trkpt lat="43.8546838" lon="12.160197"><ele>625.0</ele><time>2026-04-06T12:46:09.009Z</time></trkpt><trkpt lat="43.8545761" lon="12.160229"><ele>625.0</ele><time>2026-04-06T12:46:11.008Z</time></trkpt><trkpt lat="43.8545455" lon="12.160312"><ele>625.0</ele><time>2026-04-06T12:46:13.009Z</time></trkpt><trkpt lat="43.8545761" lon="12.1604216"><ele>625.0</ele><time>2026-04-06T12:46:15.01Z</time></trkpt><trkpt lat="43.8546561" lon="12.1604747"><ele>625.0</ele><time>2026-04-06T12:46:17.008Z</time></trkpt><trkpt lat="43.8547523" lon="12.1604376"><ele>625.0</ele><time>2026-04-06T12:46:18.009Z</time></trkpt><trkpt lat="43.8548513" lon="12.1604059"><ele>625.0</ele><time>2026-04-06T12:46:19.008Z</time></trkpt><trkpt lat="43.854963" lon="12.1603441"><ele>625.0</ele><time>2026-04-06T12:46:20.007Z</time></trkpt><trkpt lat="43.8550715" lon="12.1602931"><ele>619.8</ele><time>2026-04-06T12:46:21.013Z</time></trkpt><trkpt lat="43.8551713" lon="12.1602689"><ele>614.6</ele><time>2026-04-06T12:46:22.008Z</time></trkpt><trkpt lat="43.8552693" lon="12.1602561"><ele>609.4</ele><time>2026-04-06T12:46:23.009Z</time></trkpt><trkpt lat="43.8553662" lon="12.160233"><ele>604.2</ele><time>2026-04-06T12:46:24.009Z</time></trkpt><trkpt lat="43.8554574" lon="12.1601963"><ele>599.0</ele><time>2026-04-06T12:46:25.009Z</time></trkpt><trkpt lat="43.8555438" lon="12.1601521"><ele>599.0</ele><time>2026-04-06T12:46:26.01Z</time></trkpt><trkpt lat="43.8556198" lon="12.1601123"><ele>599.0</ele><time>2026-04-06T12:46:27.01Z</time></trkpt><trkpt lat="43.8556894" lon="12.1600796"><ele>599.0</ele><time>2026-04-06T12:46:28.011Z</time></trkpt><trkpt lat="43.8557554" lon="12.1600636"><ele>599.0</ele><time>2026-04-06T12:46:29.009Z</time></trkpt><trkpt lat="43.8558191" lon="12.1600648"><ele>599.0</ele><time>2026-04-06T12:46:30.009Z</time></trkpt><trkpt lat="43.8559032" lon="12.1601098"><ele>599.0</ele><time>2026-04-06T12:46:32.009Z</time></trkpt><trkpt lat="43.8558866" lon="12.1602188"><ele>599.0</ele><time>2026-04-06T12:46:35.01Z</time></trkpt><trkpt lat="43.8559367" lon="12.1602767"><ele>599.0</ele><time>2026-04-06T12:47:08.007Z</time></trkpt><trkpt lat="43.856035" lon="12.1603017"><ele>599.0</ele><time>2026-04-06T12:47:10.006Z</time></trkpt><trkpt lat="43.856105" lon="12.1603033"><ele>599.0</ele><time>2026-04-06T12:47:11.006Z</time></trkpt><trkpt lat="43.8561983" lon="12.160325"><ele>599.0</ele><time>2026-04-06T12:47:12.009Z</time></trkpt><trkpt lat="43.8563017" lon="12.1603533"><ele>599.0</ele><time>2026-04-06T12:47:13.01Z</time></trkpt><trkpt lat="43.8564283" lon="12.1603967"><ele>597.6666666666666</ele><time>2026-04-06T12:47:14.008Z</time></trkpt><trkpt lat="43.8565398" lon="12.160439"><ele>596.3333333333333</ele><time>2026-04-06T12:47:15.009Z</time></trkpt><trkpt lat="43.8566284" lon="12.1604794"><ele>595.0</ele><time>2026-04-06T12:47:16.013Z</time></trkpt><trkpt lat="43.8566981" lon="12.160525"><ele>593.6666666666666</ele><time>2026-04-06T12:47:17.01Z</time></trkpt><trkpt lat="43.8567394" lon="12.1605923"><ele>592.3333333333334</ele><time>2026-04-06T12:47:18.008Z</time></trkpt><trkpt lat="43.8567644" lon="12.1606738"><ele>591.0</ele><time>2026-04-06T12:47:19.009Z</time></trkpt><trkpt lat="43.8567855" lon="12.1608311"><ele>587.1666666666666</ele><time>2026-04-06T12:47:21.008Z</time></trkpt><trkpt lat="43.8568293" lon="12.1609729"><ele>583.3333333333334</ele><time>2026-04-06T12:47:23.007Z</time></trkpt><trkpt lat="43.8568741" lon="12.161063"><ele>579.5</ele><time>2026-04-06T12:47:25.007Z</time></trkpt><trkpt lat="43.8569161" lon="12.1611336"><ele>575.6666666666667</ele><time>2026-04-06T12:47:28.008Z</time></trkpt><trkpt lat="43.856915" lon="12.1612397"><ele>571.8333333333334</ele><time>2026-04-06T12:47:31.009Z</time></trkpt><trkpt lat="43.8569818" lon="12.1612737"><ele>568.0</ele><time>2026-04-06T12:47:36.075Z</time></trkpt><trkpt lat="43.8569933" lon="12.1611583"><ele>568.0</ele><time>2026-04-06T12:47:44.008Z</time></trkpt><trkpt lat="43.856935" lon="12.1610633"><ele>568.0</ele><time>2026-04-06T12:47:46.008Z</time></trkpt><trkpt lat="43.8568483" lon="12.1608983"><ele>568.0</ele><time>2026-04-06T12:47:48.007Z</time></trkpt><trkpt lat="43.8568017" lon="12.160775"><ele>568.0</ele><time>2026-04-06T12:47:49.008Z</time></trkpt><trkpt lat="43.8567733" lon="12.1606517"><ele>568.0</ele><time>2026-04-06T12:47:50.007Z</time></trkpt><trkpt lat="43.8567367" lon="12.1605383"><ele>570.1999999999999</ele><time>2026-04-06T12:47:51.009Z</time></trkpt><trkpt lat="43.8566817" lon="12.1604617"><ele>572.4</ele><time>2026-04-06T12:47:52.008Z</time></trkpt><trkpt lat="43.856595" lon="12.160415"><ele>574.5999999999999</ele><time>2026-04-06T12:47:53.008Z</time></trkpt><trkpt lat="43.8565183" lon="12.160365"><ele>576.8</ele><time>2026-04-06T12:47:54.008Z</time></trkpt><trkpt lat="43.8564233" lon="12.16031"><ele>579.0</ele><time>2026-04-06T12:47:55.011Z</time></trkpt><trkpt lat="43.8563033" lon="12.1602533"><ele>579.0</ele><time>2026-04-06T12:47:56.007Z</time></trkpt><trkpt lat="43.85619" lon="12.1601833"><ele>579.0</ele><time>2026-04-06T12:47:57.009Z</time></trkpt><trkpt lat="43.85608" lon="12.16014"><ele>579.0</ele><time>2026-04-06T12:47:58.007Z</time></trkpt><trkpt lat="43.8559733" lon="12.16014"><ele>579.0</ele><time>2026-04-06T12:47:59.008Z</time></trkpt><trkpt lat="43.8558617" lon="12.1601633"><ele>584.0</ele><time>2026-04-06T12:48:00.01Z</time></trkpt><trkpt lat="43.8557417" lon="12.1602167"><ele>589.0</ele><time>2026-04-06T12:48:01.007Z</time></trkpt><trkpt lat="43.8556267" lon="12.1602767"><ele>594.0</ele><time>2026-04-06T12:48:02.01Z</time></trkpt><trkpt lat="43.8555167" lon="12.1603283"><ele>599.0</ele><time>2026-04-06T12:48:03.009Z</time></trkpt><trkpt lat="43.855415" lon="12.16034"><ele>599.0</ele><time>2026-04-06T12:48:04.008Z</time></trkpt><trkpt lat="43.8553267" lon="12.1603233"><ele>599.0</ele><time>2026-04-06T12:48:05.008Z</time></trkpt><trkpt lat="43.855255" lon="12.1603683"><ele>599.0</ele><time>2026-04-06T12:48:06.013Z</time></trkpt><trkpt lat="43.8551733" lon="12.16041"><ele>599.0</ele><time>2026-04-06T12:48:07.007Z</time></trkpt><trkpt lat="43.8550917" lon="12.1604733"><ele>599.0</ele><time>2026-04-06T12:48:08.008Z</time></trkpt><trkpt lat="43.8550433" lon="12.1605883"><ele>599.0</ele><time>2026-04-06T12:48:09.008Z</time></trkpt><trkpt lat="43.855" lon="12.1607117"><ele>599.8333333333333</ele><time>2026-04-06T12:48:10.009Z</time></trkpt><trkpt lat="43.8549767" lon="12.1608467"><ele>600.6666666666666</ele><time>2026-04-06T12:48:11.006Z</time></trkpt><trkpt lat="43.8549433" lon="12.1609667"><ele>601.5</ele><time>2026-04-06T12:48:12.008Z</time></trkpt><trkpt lat="43.8549" lon="12.161065"><ele>602.3333333333334</ele><time>2026-04-06T12:48:13.008Z</time></trkpt><trkpt lat="43.8548817" lon="12.1611567"><ele>603.1666666666667</ele><time>2026-04-06T12:48:14.009Z</time></trkpt><trkpt lat="43.85483" lon="12.1612083"><ele>604.0</ele><time>2026-04-06T12:48:15.009Z</time></trkpt><trkpt lat="43.8547567" lon="12.1612233"><ele>604.0</ele><time>2026-04-06T12:48:16.006Z</time></trkpt><trkpt lat="43.8546767" lon="12.1612317"><ele>604.0</ele><time>2026-04-06T12:48:17.007Z</time></trkpt><trkpt lat="43.854585" lon="12.1611817"><ele>604.0</ele><time>2026-04-06T12:48:18.006Z</time></trkpt><trkpt lat="43.8544967" lon="12.1611283"><ele>604.0</ele><time>2026-04-06T12:48:19.011Z</time></trkpt><trkpt lat="43.854385" lon="12.1609967"><ele>604.0</ele><time>2026-04-06T12:48:20.007Z</time></trkpt><trkpt lat="43.8543" lon="12.1608767"><ele>603.8</ele><time>2026-04-06T12:48:21.008Z</time></trkpt><trkpt lat="43.8542183" lon="12.1607633"><ele>603.5999999999999</ele><time>2026-04-06T12:48:22.008Z</time></trkpt><trkpt lat="43.8541367" lon="12.1606683"><ele>603.4</ele><time>2026-04-06T12:48:23.008Z</time></trkpt><trkpt lat="43.85408" lon="12.1605717"><ele>603.1999999999999</ele><time>2026-04-06T12:48:24.008Z</time></trkpt><trkpt lat="43.85401" lon="12.1604817"><ele>603.0</ele><time>2026-04-06T12:48:25.006Z</time></trkpt><trkpt lat="43.853925" lon="12.1604233"><ele>609.25</ele><time>2026-04-06T12:48:26.011Z</time></trkpt><trkpt lat="43.8538267" lon="12.160395"><ele>615.5</ele><time>2026-04-06T12:48:27.009Z</time></trkpt><trkpt lat="43.8537033" lon="12.1604"><ele>621.75</ele><time>2026-04-06T12:48:28.008Z</time></trkpt><trkpt lat="43.8535717" lon="12.160435"><ele>628.0</ele><time>2026-04-06T12:48:29.007Z</time></trkpt><trkpt lat="43.853455" lon="12.1604083"><ele>628.0</ele><time>2026-04-06T12:48:30.007Z</time></trkpt><trkpt lat="43.8533367" lon="12.16037"><ele>628.0</ele><time>2026-04-06T12:48:31.006Z</time></trkpt><trkpt lat="43.8532217" lon="12.1603367"><ele>628.0</ele><time>2026-04-06T12:48:32.008Z</time></trkpt><trkpt lat="43.85311" lon="12.1603283"><ele>628.0</ele><time>2026-04-06T12:48:33.006Z</time></trkpt><trkpt lat="43.853" lon="12.1603033"><ele>628.0</ele><time>2026-04-06T12:48:34.006Z</time></trkpt><trkpt lat="43.8528933" lon="12.1603117"><ele>628.0</ele><time>2026-04-06T12:48:35.007Z</time></trkpt><trkpt lat="43.8527867" lon="12.16034"><ele>628.0</ele><time>2026-04-06T12:48:36.007Z</time></trkpt><trkpt lat="43.852685" lon="12.160395"><ele>628.0</ele><time>2026-04-06T12:48:37.011Z</time></trkpt><trkpt lat="43.85258" lon="12.1604367"><ele>628.0</ele><time>2026-04-06T12:48:38.007Z</time></trkpt><trkpt lat="43.8524717" lon="12.160495"><ele>627.5</ele><time>2026-04-06T12:48:39.007Z</time></trkpt><trkpt lat="43.85237" lon="12.160595"><ele>627.0</ele><time>2026-04-06T12:48:40.007Z</time></trkpt><trkpt lat="43.8522917" lon="12.160715"><ele>626.5</ele><time>2026-04-06T12:48:41.006Z</time></trkpt><trkpt lat="43.8522083" lon="12.1608133"><ele>626.0</ele><time>2026-04-06T12:48:42.006Z</time></trkpt><trkpt lat="43.8521483" lon="12.1609433"><ele>619.8</ele><time>2026-04-06T12:48:43.008Z</time></trkpt><trkpt lat="43.8521083" lon="12.16109"><ele>613.6</ele><time>2026-04-06T12:48:44.009Z</time></trkpt><trkpt lat="43.8520783" lon="12.1612267"><ele>607.4</ele><time>2026-04-06T12:48:45.011Z</time></trkpt><trkpt lat="43.8520333" lon="12.1613367"><ele>601.2</ele><time>2026-04-06T12:48:46.009Z</time></trkpt><trkpt lat="43.8519983" lon="12.1614367"><ele>595.0</ele><time>2026-04-06T12:48:47.008Z</time></trkpt><trkpt lat="43.8519633" lon="12.16153"><ele>595.6</ele><time>2026-04-06T12:48:48.008Z</time></trkpt><trkpt lat="43.8518867" lon="12.1615783"><ele>596.2</ele><time>2026-04-06T12:48:49.008Z</time></trkpt><trkpt lat="43.8518417" lon="12.1616483"><ele>596.8</ele><time>2026-04-06T12:48:50.008Z</time></trkpt><trkpt lat="43.8518217" lon="12.16175"><ele>597.4</ele><time>2026-04-06T12:48:51.01Z</time></trkpt><trkpt lat="43.8517867" lon="12.16188"><ele>598.0</ele><time>2026-04-06T12:48:52.007Z</time></trkpt><trkpt lat="43.8516833" lon="12.1620183"><ele>598.0</ele><time>2026-04-06T12:48:53.007Z</time></trkpt><trkpt lat="43.8515917" lon="12.1621667"><ele>598.0</ele><time>2026-04-06T12:48:54.009Z</time></trkpt><trkpt lat="43.8515033" lon="12.16234"><ele>598.0</ele><time>2026-04-06T12:48:55.008Z</time></trkpt><trkpt lat="43.8513967" lon="12.16252"><ele>592.6666666666667</ele><time>2026-04-06T12:48:56.008Z</time></trkpt><trkpt lat="43.85132" lon="12.1626983"><ele>587.3333333333334</ele><time>2026-04-06T12:48:57.009Z</time></trkpt><trkpt lat="43.8512217" lon="12.16286"><ele>582.0</ele><time>2026-04-06T12:48:58.009Z</time></trkpt><trkpt lat="43.851135" lon="12.1630267"><ele>582.0</ele><time>2026-04-06T12:48:59.008Z</time></trkpt><trkpt lat="43.8510717" lon="12.1631883"><ele>582.0</ele><time>2026-04-06T12:49:00.009Z</time></trkpt><trkpt lat="43.8510383" lon="12.1633483"><ele>582.0</ele><time>2026-04-06T12:49:01.007Z</time></trkpt><trkpt lat="43.8510117" lon="12.1634867"><ele>582.0</ele><time>2026-04-06T12:49:02.008Z</time></trkpt><trkpt lat="43.8509683" lon="12.1635867"><ele>582.0</ele><time>2026-04-06T12:49:03.01Z</time></trkpt><trkpt lat="43.85093" lon="12.1636583"><ele>585.0</ele><time>2026-04-06T12:49:04.008Z</time></trkpt><trkpt lat="43.8508683" lon="12.163685"><ele>588.0</ele><time>2026-04-06T12:49:05.008Z</time></trkpt><trkpt lat="43.8507883" lon="12.1636533"><ele>591.0</ele><time>2026-04-06T12:49:06.008Z</time></trkpt><trkpt lat="43.8507167" lon="12.163635"><ele>594.0</ele><time>2026-04-06T12:49:07.011Z</time></trkpt><trkpt lat="43.850635" lon="12.1636483"><ele>597.0</ele><time>2026-04-06T12:49:08.008Z</time></trkpt><trkpt lat="43.8505083" lon="12.1635667"><ele>600.0</ele><time>2026-04-06T12:49:09.009Z</time></trkpt><trkpt lat="43.8503833" lon="12.1634817"><ele>600.0</ele><time>2026-04-06T12:49:10.007Z</time></trkpt><trkpt lat="43.8502517" lon="12.1634717"><ele>600.0</ele><time>2026-04-06T12:49:11.007Z</time></trkpt><trkpt lat="43.8501117" lon="12.1634883"><ele>600.0</ele><time>2026-04-06T12:49:12.008Z</time></trkpt><trkpt lat="43.84997" lon="12.1635233"><ele>600.0</ele><time>2026-04-06T12:49:13.008Z</time></trkpt><trkpt lat="43.84984" lon="12.1635367"><ele>602.5</ele><time>2026-04-06T12:49:14.006Z</time></trkpt><trkpt lat="43.8497217" lon="12.1635533"><ele>605.0</ele><time>2026-04-06T12:49:15.008Z</time></trkpt><trkpt lat="43.8496083" lon="12.163535"><ele>607.5</ele><time>2026-04-06T12:49:16.008Z</time></trkpt><trkpt lat="43.849505" lon="12.1635617"><ele>610.0</ele><time>2026-04-06T12:49:17.009Z</time></trkpt><trkpt lat="43.8494133" lon="12.163665"><ele>610.0</ele><time>2026-04-06T12:49:18.007Z</time></trkpt><trkpt lat="43.8493283" lon="12.163795"><ele>610.0</ele><time>2026-04-06T12:49:19.009Z</time></trkpt><trkpt lat="43.8492133" lon="12.16392"><ele>610.0</ele><time>2026-04-06T12:49:20.006Z</time></trkpt><trkpt lat="43.8490833" lon="12.1640467"><ele>610.0</ele><time>2026-04-06T12:49:21.009Z</time></trkpt><trkpt lat="43.84898" lon="12.1642033"><ele>606.25</ele><time>2026-04-06T12:49:22.007Z</time></trkpt><trkpt lat="43.8488933" lon="12.1643633"><ele>602.5</ele><time>2026-04-06T12:49:23.008Z</time></trkpt><trkpt lat="43.848815" lon="12.164525"><ele>598.75</ele><time>2026-04-06T12:49:24.009Z</time></trkpt><trkpt lat="43.84875" lon="12.1647067"><ele>595.0</ele><time>2026-04-06T12:49:25.01Z</time></trkpt><trkpt lat="43.8487233" lon="12.164885"><ele>591.25</ele><time>2026-04-06T12:49:26.008Z</time></trkpt><trkpt lat="43.848695" lon="12.16506"><ele>587.5</ele><time>2026-04-06T12:49:27.01Z</time></trkpt><trkpt lat="43.8486417" lon="12.165215"><ele>583.75</ele><time>2026-04-06T12:49:28.008Z</time></trkpt><trkpt lat="43.848565" lon="12.1653383"><ele>580.0</ele><time>2026-04-06T12:49:29.009Z</time></trkpt><trkpt lat="43.8485017" lon="12.1654467"><ele>580.0</ele><time>2026-04-06T12:49:30.008Z</time></trkpt><trkpt lat="43.84847" lon="12.1655433"><ele>580.0</ele><time>2026-04-06T12:49:31.009Z</time></trkpt><trkpt lat="43.8484233" lon="12.1656783"><ele>580.0</ele><time>2026-04-06T12:49:33.009Z</time></trkpt><trkpt lat="43.8484417" lon="12.1658433"><ele>580.0</ele><time>2026-04-06T12:49:35.008Z</time></trkpt><trkpt lat="43.848465" lon="12.1659433"><ele>580.0</ele><time>2026-04-06T12:49:36.007Z</time></trkpt><trkpt lat="43.8485017" lon="12.1660433"><ele>579.5</ele><time>2026-04-06T12:49:37.006Z</time></trkpt><trkpt lat="43.8485633" lon="12.1661667"><ele>579.0</ele><time>2026-04-06T12:49:38.009Z</time></trkpt><trkpt lat="43.848615" lon="12.166295"><ele>578.5</ele><time>2026-04-06T12:49:39.008Z</time></trkpt><trkpt lat="43.8486533" lon="12.1664467"><ele>578.0</ele><time>2026-04-06T12:49:40.008Z</time></trkpt><trkpt lat="43.8486617" lon="12.1666217"><ele>580.5</ele><time>2026-04-06T12:49:41.009Z</time></trkpt><trkpt lat="43.84868" lon="12.1667983"><ele>583.0</ele><time>2026-04-06T12:49:42.008Z</time></trkpt><trkpt lat="43.8486967" lon="12.167"><ele>585.5</ele><time>2026-04-06T12:49:43.008Z</time></trkpt><trkpt lat="43.8487222" lon="12.1672075"><ele>588.0</ele><time>2026-04-06T12:49:44.007Z</time></trkpt><trkpt lat="43.8487693" lon="12.1674016"><ele>591.0</ele><time>2026-04-06T12:49:45.008Z</time></trkpt><trkpt lat="43.8488186" lon="12.1675676"><ele>594.0</ele><time>2026-04-06T12:49:46.008Z</time></trkpt><trkpt lat="43.8488419" lon="12.1677198"><ele>597.0</ele><time>2026-04-06T12:49:47.006Z</time></trkpt><trkpt lat="43.848845" lon="12.1678668"><ele>600.0</ele><time>2026-04-06T12:49:48.008Z</time></trkpt><trkpt lat="43.8488333" lon="12.1680236"><ele>600.0</ele><time>2026-04-06T12:49:49.009Z</time></trkpt><trkpt lat="43.848812" lon="12.1681884"><ele>600.0</ele><time>2026-04-06T12:49:50.009Z</time></trkpt><trkpt lat="43.8487732" lon="12.1683548"><ele>600.0</ele><time>2026-04-06T12:49:51.009Z</time></trkpt><trkpt lat="43.8487267" lon="12.1685138"><ele>600.0</ele><time>2026-04-06T12:49:52.007Z</time></trkpt><trkpt lat="43.8486752" lon="12.1686612"><ele>599.4</ele><time>2026-04-06T12:49:53.006Z</time></trkpt><trkpt lat="43.8486082" lon="12.168777"><ele>598.8</ele><time>2026-04-06T12:49:54.008Z</time></trkpt><trkpt lat="43.8485396" lon="12.168872"><ele>598.2</ele><time>2026-04-06T12:49:55.009Z</time></trkpt><trkpt lat="43.8484669" lon="12.1689627"><ele>597.6</ele><time>2026-04-06T12:49:56.011Z</time></trkpt><trkpt lat="43.8483801" lon="12.1690489"><ele>597.0</ele><time>2026-04-06T12:49:57.011Z</time></trkpt><trkpt lat="43.8482777" lon="12.1691044"><ele>601.25</ele><time>2026-04-06T12:49:58.01Z</time></trkpt><trkpt lat="43.848168" lon="12.169154"><ele>605.5</ele><time>2026-04-06T12:49:59.008Z</time></trkpt><trkpt lat="43.8480593" lon="12.1692199"><ele>609.75</ele><time>2026-04-06T12:50:00.007Z</time></trkpt><trkpt lat="43.8479609" lon="12.1693118"><ele>614.0</ele><time>2026-04-06T12:50:01.012Z</time></trkpt><trkpt lat="43.8478743" lon="12.1694275"><ele>614.0</ele><time>2026-04-06T12:50:02.008Z</time></trkpt><trkpt lat="43.8477909" lon="12.1695609"><ele>614.0</ele><time>2026-04-06T12:50:03.009Z</time></trkpt><trkpt lat="43.8477119" lon="12.1697009"><ele>614.0</ele><time>2026-04-06T12:50:04.009Z</time></trkpt><trkpt lat="43.8476373" lon="12.1698322"><ele>614.0</ele><time>2026-04-06T12:50:05.009Z</time></trkpt><trkpt lat="43.8475612" lon="12.1699599"><ele>613.5</ele><time>2026-04-06T12:50:06.011Z</time></trkpt><trkpt lat="43.8474866" lon="12.1700848"><ele>613.0</ele><time>2026-04-06T12:50:07.009Z</time></trkpt><trkpt lat="43.8474091" lon="12.170207"><ele>612.5</ele><time>2026-04-06T12:50:08.007Z</time></trkpt><trkpt lat="43.8473308" lon="12.1703268"><ele>612.0</ele><time>2026-04-06T12:50:09.009Z</time></trkpt><trkpt lat="43.8472542" lon="12.1704539"><ele>612.0</ele><time>2026-04-06T12:50:10.008Z</time></trkpt><trkpt lat="43.8471851" lon="12.1705976"><ele>612.0</ele><time>2026-04-06T12:50:11.008Z</time></trkpt><trkpt lat="43.847128" lon="12.1707555"><ele>612.0</ele><time>2026-04-06T12:50:12.008Z</time></trkpt><trkpt lat="43.8470676" lon="12.1709334"><ele>612.0</ele><time>2026-04-06T12:50:13.009Z</time></trkpt><trkpt lat="43.8470081" lon="12.1711143"><ele>609.0</ele><time>2026-04-06T12:50:14.007Z</time></trkpt><trkpt lat="43.8469314" lon="12.1713018"><ele>606.0</ele><time>2026-04-06T12:50:15.01Z</time></trkpt><trkpt lat="43.8468547" lon="12.1714832"><ele>603.0</ele><time>2026-04-06T12:50:16.007Z</time></trkpt><trkpt lat="43.8467807" lon="12.1716611"><ele>603.0</ele><time>2026-04-06T12:50:17.008Z</time></trkpt><trkpt lat="43.8467248" lon="12.1718182"><ele>603.0</ele><time>2026-04-06T12:50:18.008Z</time></trkpt><trkpt lat="43.8466778" lon="12.1719677"><ele>603.0</ele><time>2026-04-06T12:50:19.008Z</time></trkpt><trkpt lat="43.8466407" lon="12.1721123"><ele>603.0</ele><time>2026-04-06T12:50:20.008Z</time></trkpt><trkpt lat="43.8466226" lon="12.1722533"><ele>601.8</ele><time>2026-04-06T12:50:21.01Z</time></trkpt><trkpt lat="43.8466152" lon="12.1723917"><ele>600.5999999999999</ele><time>2026-04-06T12:50:22.008Z</time></trkpt><trkpt lat="43.8466133" lon="12.1725261"><ele>599.4000000000001</ele><time>2026-04-06T12:50:23.007Z</time></trkpt><trkpt lat="43.8466152" lon="12.1726586"><ele>598.2</ele><time>2026-04-06T12:50:24.008Z</time></trkpt><trkpt lat="43.8466122" lon="12.1727934"><ele>597.0</ele><time>2026-04-06T12:50:25.008Z</time></trkpt><trkpt lat="43.8466144" lon="12.1729238"><ele>597.0</ele><time>2026-04-06T12:50:26.007Z</time></trkpt><trkpt lat="43.8466239" lon="12.1730494"><ele>597.0</ele><time>2026-04-06T12:50:27.01Z</time></trkpt><trkpt lat="43.8466453" lon="12.1731737"><ele>597.0</ele><time>2026-04-06T12:50:28.013Z</time></trkpt><trkpt lat="43.8466782" lon="12.1732902"><ele>597.0</ele><time>2026-04-06T12:50:29.008Z</time></trkpt><trkpt lat="43.8467355" lon="12.1733949"><ele>597.0</ele><time>2026-04-06T12:50:30.008Z</time></trkpt><trkpt lat="43.846819" lon="12.1734884"><ele>591.5</ele><time>2026-04-06T12:50:31.009Z</time></trkpt><trkpt lat="43.8469179" lon="12.1735792"><ele>586.0</ele><time>2026-04-06T12:50:32.008Z</time></trkpt><trkpt lat="43.8470104" lon="12.173693"><ele>580.5</ele><time>2026-04-06T12:50:33.009Z</time></trkpt><trkpt lat="43.8471271" lon="12.1738201"><ele>575.0</ele><time>2026-04-06T12:50:34.008Z</time></trkpt><trkpt lat="43.8472283" lon="12.1739696"><ele>580.25</ele><time>2026-04-06T12:50:35.008Z</time></trkpt><trkpt lat="43.8473368" lon="12.1741218"><ele>585.5</ele><time>2026-04-06T12:50:36.008Z</time></trkpt><trkpt lat="43.8474444" lon="12.1742685"><ele>590.75</ele><time>2026-04-06T12:50:37.011Z</time></trkpt><trkpt lat="43.8475215" lon="12.1744136"><ele>596.0</ele><time>2026-04-06T12:50:38.008Z</time></trkpt><trkpt lat="43.8475742" lon="12.1745566"><ele>596.0</ele><time>2026-04-06T12:50:39.009Z</time></trkpt><trkpt lat="43.8476093" lon="12.1747156"><ele>596.0</ele><time>2026-04-06T12:50:40.008Z</time></trkpt><trkpt lat="43.8476381" lon="12.1748797"><ele>596.0</ele><time>2026-04-06T12:50:41.008Z</time></trkpt><trkpt lat="43.8476718" lon="12.1750358"><ele>596.0</ele><time>2026-04-06T12:50:42.008Z</time></trkpt><trkpt lat="43.8477213" lon="12.1751794"><ele>594.0</ele><time>2026-04-06T12:50:43.008Z</time></trkpt><trkpt lat="43.8477932" lon="12.1753039"><ele>592.0</ele><time>2026-04-06T12:50:44.01Z</time></trkpt><trkpt lat="43.8478856" lon="12.1754218"><ele>590.0</ele><time>2026-04-06T12:50:45.009Z</time></trkpt><trkpt lat="43.8479975" lon="12.1755443"><ele>588.0</ele><time>2026-04-06T12:50:46.008Z</time></trkpt><trkpt lat="43.8481103" lon="12.1756668"><ele>586.4</ele><time>2026-04-06T12:50:47.008Z</time></trkpt><trkpt lat="43.8482194" lon="12.1757686"><ele>584.8</ele><time>2026-04-06T12:50:48.009Z</time></trkpt><trkpt lat="43.8483039" lon="12.1758576"><ele>583.2</ele><time>2026-04-06T12:50:49.007Z</time></trkpt><trkpt lat="43.8483741" lon="12.1759402"><ele>581.6</ele><time>2026-04-06T12:50:50.007Z</time></trkpt><trkpt lat="43.8484243" lon="12.1760144"><ele>580.0</ele><time>2026-04-06T12:50:51.008Z</time></trkpt><trkpt lat="43.8484627" lon="12.1761003"><ele>580.0</ele><time>2026-04-06T12:50:52.008Z</time></trkpt><trkpt lat="43.8484907" lon="12.1761917"><ele>580.0</ele><time>2026-04-06T12:50:53.007Z</time></trkpt><trkpt lat="43.8484974" lon="12.1762976"><ele>580.0</ele><time>2026-04-06T12:50:54.008Z</time></trkpt><trkpt lat="43.848483" lon="12.1764023"><ele>580.0</ele><time>2026-04-06T12:50:55.012Z</time></trkpt><trkpt lat="43.8484324" lon="12.1764809"><ele>580.0</ele><time>2026-04-06T12:50:56.008Z</time></trkpt><trkpt lat="43.8483686" lon="12.1765396"><ele>580.0</ele><time>2026-04-06T12:50:57.009Z</time></trkpt><trkpt lat="43.8482845" lon="12.1765831"><ele>586.75</ele><time>2026-04-06T12:50:58.008Z</time></trkpt><trkpt lat="43.8481681" lon="12.1766014"><ele>593.5</ele><time>2026-04-06T12:50:59.007Z</time></trkpt><trkpt lat="43.8480096" lon="12.1766094"><ele>600.25</ele><time>2026-04-06T12:51:00.009Z</time></trkpt><trkpt lat="43.8478537" lon="12.1766423"><ele>607.0</ele><time>2026-04-06T12:51:01.011Z</time></trkpt><trkpt lat="43.8477149" lon="12.1767086"><ele>608.6666666666667</ele><time>2026-04-06T12:51:02.009Z</time></trkpt><trkpt lat="43.8475798" lon="12.1767968"><ele>610.3333333333334</ele><time>2026-04-06T12:51:03.009Z</time></trkpt><trkpt lat="43.8474411" lon="12.1769008"><ele>612.0</ele><time>2026-04-06T12:51:04.007Z</time></trkpt><trkpt lat="43.8472889" lon="12.1769891"><ele>612.0</ele><time>2026-04-06T12:51:05.008Z</time></trkpt><trkpt lat="43.8471372" lon="12.1770793"><ele>612.0</ele><time>2026-04-06T12:51:06.01Z</time></trkpt><trkpt lat="43.8469938" lon="12.1771861"><ele>612.0</ele><time>2026-04-06T12:51:07.011Z</time></trkpt><trkpt lat="43.8468547" lon="12.1772938"><ele>611.5</ele><time>2026-04-06T12:51:08.01Z</time></trkpt><trkpt lat="43.8467261" lon="12.1773962"><ele>611.0</ele><time>2026-04-06T12:51:09.009Z</time></trkpt><trkpt lat="43.8466109" lon="12.1774962"><ele>610.5</ele><time>2026-04-06T12:51:10.007Z</time></trkpt><trkpt lat="43.8465035" lon="12.1775725"><ele>610.0</ele><time>2026-04-06T12:51:11.008Z</time></trkpt><trkpt lat="43.8464033" lon="12.177632"><ele>610.0</ele><time>2026-04-06T12:51:12.008Z</time></trkpt><trkpt lat="43.8463123" lon="12.1776921"><ele>610.0</ele><time>2026-04-06T12:51:13.012Z</time></trkpt><trkpt lat="43.8462297" lon="12.1777614"><ele>610.0</ele><time>2026-04-06T12:51:14.011Z</time></trkpt><trkpt lat="43.8461605" lon="12.1778754"><ele>610.0</ele><time>2026-04-06T12:51:15.009Z</time></trkpt><trkpt lat="43.8460862" lon="12.178014"><ele>610.0</ele><time>2026-04-06T12:51:16.008Z</time></trkpt><trkpt lat="43.8460019" lon="12.1781479"><ele>611.25</ele><time>2026-04-06T12:51:17.008Z</time></trkpt><trkpt lat="43.8458976" lon="12.178277"><ele>612.5</ele><time>2026-04-06T12:51:18.01Z</time></trkpt><trkpt lat="43.8457945" lon="12.1784044"><ele>613.75</ele><time>2026-04-06T12:51:19.008Z</time></trkpt><trkpt lat="43.8457122" lon="12.1785332"><ele>615.0</ele><time>2026-04-06T12:51:20.01Z</time></trkpt><trkpt lat="43.8456553" lon="12.1786625"><ele>615.0</ele><time>2026-04-06T12:51:21.009Z</time></trkpt><trkpt lat="43.8456165" lon="12.1787851"><ele>615.0</ele><time>2026-04-06T12:51:22.008Z</time></trkpt><trkpt lat="43.8455802" lon="12.1788888"><ele>615.0</ele><time>2026-04-06T12:51:23.008Z</time></trkpt><trkpt lat="43.8455412" lon="12.1789742"><ele>615.0</ele><time>2026-04-06T12:51:24.007Z</time></trkpt><trkpt lat="43.8454946" lon="12.1790417"><ele>615.0</ele><time>2026-04-06T12:51:25.01Z</time></trkpt><trkpt lat="43.8454244" lon="12.1790423"><ele>615.0</ele><time>2026-04-06T12:51:26.009Z</time></trkpt><trkpt lat="43.8453525" lon="12.1790255"><ele>615.0</ele><time>2026-04-06T12:51:27.009Z</time></trkpt><trkpt lat="43.8452734" lon="12.1789927"><ele>615.0</ele><time>2026-04-06T12:51:28.01Z</time></trkpt><trkpt lat="43.8451663" lon="12.1789094"><ele>615.0</ele><time>2026-04-06T12:51:29.008Z</time></trkpt><trkpt lat="43.8450529" lon="12.1788434"><ele>615.0</ele><time>2026-04-06T12:51:30.009Z</time></trkpt><trkpt lat="43.8449347" lon="12.178835"><ele>615.0</ele><time>2026-04-06T12:51:31.009Z</time></trkpt><trkpt lat="43.8448147" lon="12.178871"><ele>615.0</ele><time>2026-04-06T12:51:32.008Z</time></trkpt><trkpt lat="43.8446855" lon="12.1789174"><ele>615.0</ele><time>2026-04-06T12:51:33.008Z</time></trkpt><trkpt lat="43.844553" lon="12.1789868"><ele>615.0</ele><time>2026-04-06T12:51:34.008Z</time></trkpt><trkpt lat="43.8444334" lon="12.1790731"><ele>615.0</ele><time>2026-04-06T12:51:35.009Z</time></trkpt><trkpt lat="43.8443145" lon="12.1791631"><ele>617.0</ele><time>2026-04-06T12:51:36.008Z</time></trkpt><trkpt lat="43.8441873" lon="12.1792566"><ele>619.0</ele><time>2026-04-06T12:51:37.01Z</time></trkpt><trkpt lat="43.8440475" lon="12.1793196"><ele>621.0</ele><time>2026-04-06T12:51:38.01Z</time></trkpt><trkpt lat="43.8439023" lon="12.1793499"><ele>623.0</ele><time>2026-04-06T12:51:39.009Z</time></trkpt><trkpt lat="43.8437474" lon="12.1793343"><ele>623.0</ele><time>2026-04-06T12:51:40.007Z</time></trkpt><trkpt lat="43.8435905" lon="12.179287"><ele>623.0</ele><time>2026-04-06T12:51:41.01Z</time></trkpt><trkpt lat="43.8434537" lon="12.1792606"><ele>623.0</ele><time>2026-04-06T12:51:42.009Z</time></trkpt><trkpt lat="43.8433354" lon="12.1792513"><ele>623.0</ele><time>2026-04-06T12:51:43.008Z</time></trkpt><trkpt lat="43.8432336" lon="12.1792877"><ele>625.75</ele><time>2026-04-06T12:51:44.008Z</time></trkpt><trkpt lat="43.8431329" lon="12.1793601"><ele>628.5</ele><time>2026-04-06T12:51:45.009Z</time></trkpt><trkpt lat="43.8430278" lon="12.179441"><ele>631.25</ele><time>2026-04-06T12:51:46.008Z</time></trkpt><trkpt lat="43.8429107" lon="12.1795026"><ele>634.0</ele><time>2026-04-06T12:51:47.007Z</time></trkpt><trkpt lat="43.8427855" lon="12.1795487"><ele>634.0</ele><time>2026-04-06T12:51:48.008Z</time></trkpt><trkpt lat="43.8426698" lon="12.1796015"><ele>634.0</ele><time>2026-04-06T12:51:49.009Z</time></trkpt><trkpt lat="43.8425745" lon="12.179675"><ele>634.0</ele><time>2026-04-06T12:51:50.008Z</time></trkpt><trkpt lat="43.8424931" lon="12.1797729"><ele>634.0</ele><time>2026-04-06T12:51:51.011Z</time></trkpt><trkpt lat="43.8424231" lon="12.1798634"><ele>634.0</ele><time>2026-04-06T12:51:52.009Z</time></trkpt><trkpt lat="43.8423552" lon="12.1799252"><ele>632.0</ele><time>2026-04-06T12:51:53.008Z</time></trkpt><trkpt lat="43.8422826" lon="12.1799616"><ele>630.0</ele><time>2026-04-06T12:51:54.007Z</time></trkpt><trkpt lat="43.8421959" lon="12.179957"><ele>628.0</ele><time>2026-04-06T12:51:55.009Z</time></trkpt><trkpt lat="43.8420957" lon="12.179914"><ele>626.0</ele><time>2026-04-06T12:51:56.008Z</time></trkpt><trkpt lat="43.8419854" lon="12.1798498"><ele>624.0</ele><time>2026-04-06T12:51:57.01Z</time></trkpt><trkpt lat="43.8418777" lon="12.1798117"><ele>626.2</ele><time>2026-04-06T12:51:58.009Z</time></trkpt><trkpt lat="43.8417824" lon="12.1798203"><ele>628.4</ele><time>2026-04-06T12:51:59.009Z</time></trkpt><trkpt lat="43.8416949" lon="12.1798627"><ele>630.6</ele><time>2026-04-06T12:52:00.008Z</time></trkpt><trkpt lat="43.8416121" lon="12.1799282"><ele>632.8</ele><time>2026-04-06T12:52:01.009Z</time></trkpt><trkpt lat="43.8415363" lon="12.1800193"><ele>635.0</ele><time>2026-04-06T12:52:02.009Z</time></trkpt><trkpt lat="43.8414613" lon="12.1801332"><ele>635.0</ele><time>2026-04-06T12:52:03.011Z</time></trkpt><trkpt lat="43.8414047" lon="12.1802882"><ele>635.0</ele><time>2026-04-06T12:52:04.01Z</time></trkpt><trkpt lat="43.8413449" lon="12.1804552"><ele>635.0</ele><time>2026-04-06T12:52:05.009Z</time></trkpt><trkpt lat="43.841281" lon="12.1806118"><ele>635.0</ele><time>2026-04-06T12:52:06.008Z</time></trkpt><trkpt lat="43.8412152" lon="12.1807559"><ele>636.8</ele><time>2026-04-06T12:52:07.008Z</time></trkpt><trkpt lat="43.84116" lon="12.1808942"><ele>638.6</ele><time>2026-04-06T12:52:08.008Z</time></trkpt><trkpt lat="43.8411118" lon="12.1810293"><ele>640.4000000000001</ele><time>2026-04-06T12:52:09.008Z</time></trkpt><trkpt lat="43.8410692" lon="12.1811463"><ele>642.2</ele><time>2026-04-06T12:52:10.007Z</time></trkpt><trkpt lat="43.8410203" lon="12.1812424"><ele>644.0</ele><time>2026-04-06T12:52:11.009Z</time></trkpt><trkpt lat="43.8409622" lon="12.1813174"><ele>644.0</ele><time>2026-04-06T12:52:12.009Z</time></trkpt><trkpt lat="43.8408882" lon="12.181383"><ele>644.0</ele><time>2026-04-06T12:52:13.011Z</time></trkpt><trkpt lat="43.8408082" lon="12.181442"><ele>644.0</ele><time>2026-04-06T12:52:14.009Z</time></trkpt><trkpt lat="43.8407202" lon="12.1814594"><ele>644.0</ele><time>2026-04-06T12:52:15.009Z</time></trkpt><trkpt lat="43.8405765" lon="12.1814073"><ele>644.0</ele><time>2026-04-06T12:52:16.008Z</time></trkpt><trkpt lat="43.8404119" lon="12.1813633"><ele>644.0</ele><time>2026-04-06T12:52:17.009Z</time></trkpt><trkpt lat="43.8402475" lon="12.1813472"><ele>644.0</ele><time>2026-04-06T12:52:18.014Z</time></trkpt><trkpt lat="43.8400795" lon="12.1813669"><ele>644.0</ele><time>2026-04-06T12:52:19.009Z</time></trkpt><trkpt lat="43.8399142" lon="12.181417"><ele>640.3333333333333</ele><time>2026-04-06T12:52:20.01Z</time></trkpt><trkpt lat="43.8397532" lon="12.1814862"><ele>636.6666666666666</ele><time>2026-04-06T12:52:21.01Z</time></trkpt><trkpt lat="43.8396055" lon="12.1815833"><ele>633.0</ele><time>2026-04-06T12:52:22.008Z</time></trkpt><trkpt lat="43.8394759" lon="12.1816686"><ele>633.0</ele><time>2026-04-06T12:52:23.009Z</time></trkpt><trkpt lat="43.8393667" lon="12.1817534"><ele>633.0</ele><time>2026-04-06T12:52:24.009Z</time></trkpt><trkpt lat="43.8392778" lon="12.1818443"><ele>633.0</ele><time>2026-04-06T12:52:25.009Z</time></trkpt><trkpt lat="43.8392168" lon="12.1819477"><ele>633.0</ele><time>2026-04-06T12:52:26.009Z</time></trkpt><trkpt lat="43.8391797" lon="12.1820759"><ele>633.0</ele><time>2026-04-06T12:52:27.013Z</time></trkpt><trkpt lat="43.8391655" lon="12.1822048"><ele>634.8333333333334</ele><time>2026-04-06T12:52:28.009Z</time></trkpt><trkpt lat="43.8391626" lon="12.1823313"><ele>636.6666666666666</ele><time>2026-04-06T12:52:29.007Z</time></trkpt><trkpt lat="43.8391578" lon="12.1824459"><ele>638.5</ele><time>2026-04-06T12:52:30.009Z</time></trkpt><trkpt lat="43.8391415" lon="12.1825471"><ele>640.3333333333333</ele><time>2026-04-06T12:52:31.01Z</time></trkpt><trkpt lat="43.8390901" lon="12.1826181"><ele>642.1666666666666</ele><time>2026-04-06T12:52:32.01Z</time></trkpt><trkpt lat="43.8390174" lon="12.1826745"><ele>644.0</ele><time>2026-04-06T12:52:33.009Z</time></trkpt><trkpt lat="43.8389319" lon="12.1827315"><ele>644.0</ele><time>2026-04-06T12:52:34.008Z</time></trkpt><trkpt lat="43.8388515" lon="12.1827984"><ele>644.0</ele><time>2026-04-06T12:52:35.008Z</time></trkpt><trkpt lat="43.8387786" lon="12.1828768"><ele>644.0</ele><time>2026-04-06T12:52:36.008Z</time></trkpt><trkpt lat="43.8387175" lon="12.1829526"><ele>644.0</ele><time>2026-04-06T12:52:37.011Z</time></trkpt><trkpt lat="43.838665" lon="12.1830188"><ele>644.0</ele><time>2026-04-06T12:52:38.009Z</time></trkpt><trkpt lat="43.8385708" lon="12.1831085"><ele>646.8000000000001</ele><time>2026-04-06T12:52:40.009Z</time></trkpt><trkpt lat="43.83843" lon="12.1830983"><ele>649.6</ele><time>2026-04-06T13:01:23.007Z</time></trkpt><trkpt lat="43.838325" lon="12.1829967"><ele>652.4</ele><time>2026-04-06T13:01:25.007Z</time></trkpt><trkpt lat="43.8382833" lon="12.182915"><ele>655.2</ele><time>2026-04-06T13:01:26.009Z</time></trkpt><trkpt lat="43.8382767" lon="12.1828183"><ele>658.0</ele><time>2026-04-06T13:01:27.008Z</time></trkpt><trkpt lat="43.83837" lon="12.18269"><ele>658.0</ele><time>2026-04-06T13:01:29.008Z</time></trkpt><trkpt lat="43.8384388" lon="12.1826564"><ele>658.0</ele><time>2026-04-06T13:01:30.007Z</time></trkpt><trkpt lat="43.8385115" lon="12.1826225"><ele>658.0</ele><time>2026-04-06T13:01:31.01Z</time></trkpt><trkpt lat="43.8385711" lon="12.1825795"><ele>658.0</ele><time>2026-04-06T13:01:32.009Z</time></trkpt><trkpt lat="43.8386138" lon="12.1824557"><ele>658.0</ele><time>2026-04-06T13:01:34.006Z</time></trkpt><trkpt lat="43.8385338" lon="12.1822952"><ele>663.0</ele><time>2026-04-06T13:01:36.007Z</time></trkpt><trkpt lat="43.838467" lon="12.1822058"><ele>668.0</ele><time>2026-04-06T13:01:37.006Z</time></trkpt><trkpt lat="43.8383833" lon="12.1821074"><ele>673.0</ele><time>2026-04-06T13:01:38.008Z</time></trkpt><trkpt lat="43.8382405" lon="12.1820249"><ele>678.0</ele><time>2026-04-06T13:01:39.008Z</time></trkpt><trkpt lat="43.838087" lon="12.1819608"><ele>678.0</ele><time>2026-04-06T13:01:40.01Z</time></trkpt><trkpt lat="43.8379497" lon="12.1818906"><ele>678.0</ele><time>2026-04-06T13:01:41.011Z</time></trkpt><trkpt lat="43.8378187" lon="12.1818162"><ele>678.0</ele><time>2026-04-06T13:01:42.006Z</time></trkpt><trkpt lat="43.837693" lon="12.1817207"><ele>678.0</ele><time>2026-04-06T13:01:43.008Z</time></trkpt><trkpt lat="43.8375649" lon="12.1816207"><ele>682.6666666666666</ele><time>2026-04-06T13:01:44.008Z</time></trkpt><trkpt lat="43.8374469" lon="12.1814942"><ele>687.3333333333333</ele><time>2026-04-06T13:01:45.007Z</time></trkpt><trkpt lat="43.8373221" lon="12.1813759"><ele>692.0</ele><time>2026-04-06T13:01:46.007Z</time></trkpt><trkpt lat="43.8371966" lon="12.1812621"><ele>692.0</ele><time>2026-04-06T13:01:47.007Z</time></trkpt><trkpt lat="43.8370771" lon="12.1811608"><ele>692.0</ele><time>2026-04-06T13:01:48.008Z</time></trkpt><trkpt lat="43.8369743" lon="12.1810629"><ele>692.0</ele><time>2026-04-06T13:01:49.007Z</time></trkpt><trkpt lat="43.8368966" lon="12.1809464"><ele>692.0</ele><time>2026-04-06T13:01:50.009Z</time></trkpt><trkpt lat="43.836841" lon="12.1808256"><ele>694.4000000000001</ele><time>2026-04-06T13:01:51.006Z</time></trkpt><trkpt lat="43.8367792" lon="12.1807273"><ele>696.8000000000001</ele><time>2026-04-06T13:01:52.008Z</time></trkpt><trkpt lat="43.8367011" lon="12.1806666"><ele>699.2</ele><time>2026-04-06T13:01:53.007Z</time></trkpt><trkpt lat="43.8366058" lon="12.1806466"><ele>701.6</ele><time>2026-04-06T13:01:54.007Z</time></trkpt><trkpt lat="43.8365073" lon="12.1806465"><ele>704.0</ele><time>2026-04-06T13:01:55.006Z</time></trkpt><trkpt lat="43.8364088" lon="12.180675"><ele>699.2</ele><time>2026-04-06T13:01:56.007Z</time></trkpt><trkpt lat="43.8363193" lon="12.1807317"><ele>694.4000000000001</ele><time>2026-04-06T13:01:57.012Z</time></trkpt><trkpt lat="43.8362357" lon="12.1808118"><ele>689.6</ele><time>2026-04-06T13:01:58.007Z</time></trkpt><trkpt lat="43.8361486" lon="12.1808647"><ele>684.8</ele><time>2026-04-06T13:01:59.007Z</time></trkpt><trkpt lat="43.8360603" lon="12.1808962"><ele>680.0</ele><time>2026-04-06T13:02:00.007Z</time></trkpt><trkpt lat="43.8359642" lon="12.1809028"><ele>680.0</ele><time>2026-04-06T13:02:01.007Z</time></trkpt><trkpt lat="43.8358619" lon="12.1809023"><ele>680.0</ele><time>2026-04-06T13:02:02.006Z</time></trkpt><trkpt lat="43.8357519" lon="12.1808985"><ele>680.0</ele><time>2026-04-06T13:02:03.006Z</time></trkpt><trkpt lat="43.8356366" lon="12.1808847"><ele>680.0</ele><time>2026-04-06T13:02:04.009Z</time></trkpt><trkpt lat="43.8355128" lon="12.1808677"><ele>680.0</ele><time>2026-04-06T13:02:05.007Z</time></trkpt><trkpt lat="43.8353804" lon="12.1808488"><ele>680.0</ele><time>2026-04-06T13:02:06.007Z</time></trkpt><trkpt lat="43.8352524" lon="12.1807923"><ele>680.0</ele><time>2026-04-06T13:02:07.008Z</time></trkpt><trkpt lat="43.8351391" lon="12.1807278"><ele>680.0</ele><time>2026-04-06T13:02:08.006Z</time></trkpt><trkpt lat="43.8350448" lon="12.1806512"><ele>684.0</ele><time>2026-04-06T13:02:09.011Z</time></trkpt><trkpt lat="43.8349873" lon="12.1805907"><ele>688.0</ele><time>2026-04-06T13:02:10.006Z</time></trkpt><trkpt lat="43.8349195" lon="12.1805408"><ele>692.0</ele><time>2026-04-06T13:02:12.008Z</time></trkpt><trkpt lat="43.8347867" lon="12.1804667"><ele>696.0</ele><time>2026-04-06T13:02:52.007Z</time></trkpt><trkpt lat="43.8346867" lon="12.18035"><ele>700.0</ele><time>2026-04-06T13:02:53.007Z</time></trkpt><trkpt lat="43.8345833" lon="12.1802283"><ele>700.0</ele><time>2026-04-06T13:02:54.008Z</time></trkpt><trkpt lat="43.8344917" lon="12.1801017"><ele>700.0</ele><time>2026-04-06T13:02:55.006Z</time></trkpt><trkpt lat="43.834405" lon="12.179965"><ele>700.0</ele><time>2026-04-06T13:02:56.008Z</time></trkpt><trkpt lat="43.83434" lon="12.1798217"><ele>700.0</ele><time>2026-04-06T13:02:57.006Z</time></trkpt><trkpt lat="43.8343017" lon="12.1796767"><ele>701.8</ele><time>2026-04-06T13:02:58.006Z</time></trkpt><trkpt lat="43.834295" lon="12.1795317"><ele>703.6</ele><time>2026-04-06T13:02:59.009Z</time></trkpt><trkpt lat="43.83429" lon="12.1793933"><ele>705.4000000000001</ele><time>2026-04-06T13:03:00.008Z</time></trkpt><trkpt lat="43.8343183" lon="12.1792483"><ele>707.2</ele><time>2026-04-06T13:03:01.007Z</time></trkpt><trkpt lat="43.834375" lon="12.1791083"><ele>709.0</ele><time>2026-04-06T13:03:02.012Z</time></trkpt><trkpt lat="43.8344333" lon="12.1789733"><ele>709.0</ele><time>2026-04-06T13:03:03.008Z</time></trkpt><trkpt lat="43.8344983" lon="12.17885"><ele>709.0</ele><time>2026-04-06T13:03:04.01Z</time></trkpt><trkpt lat="43.8345883" lon="12.1787367"><ele>709.0</ele><time>2026-04-06T13:03:05.008Z</time></trkpt><trkpt lat="43.834685" lon="12.1786233"><ele>709.0</ele><time>2026-04-06T13:03:06.006Z</time></trkpt><trkpt lat="43.8347833" lon="12.1785167"><ele>709.0</ele><time>2026-04-06T13:03:07.01Z</time></trkpt><trkpt lat="43.834855" lon="12.17839"><ele>709.0</ele><time>2026-04-06T13:03:08.007Z</time></trkpt><trkpt lat="43.8349083" lon="12.1782517"><ele>709.0</ele><time>2026-04-06T13:03:09.006Z</time></trkpt><trkpt lat="43.834955" lon="12.1781283"><ele>709.0</ele><time>2026-04-06T13:03:10.007Z</time></trkpt><trkpt lat="43.83498" lon="12.1780083"><ele>709.0</ele><time>2026-04-06T13:03:11.007Z</time></trkpt><trkpt lat="43.8349383" lon="12.1778717"><ele>711.4000000000001</ele><time>2026-04-06T13:03:12.012Z</time></trkpt><trkpt lat="43.8349217" lon="12.1777667"><ele>713.8</ele><time>2026-04-06T13:03:13.007Z</time></trkpt><trkpt lat="43.8348833" lon="12.17766"><ele>716.2</ele><time>2026-04-06T13:03:14.009Z</time></trkpt><trkpt lat="43.83482" lon="12.1775383"><ele>718.5999999999999</ele><time>2026-04-06T13:03:15.008Z</time></trkpt><trkpt lat="43.834725" lon="12.1774"><ele>721.0</ele><time>2026-04-06T13:03:16.007Z</time></trkpt><trkpt lat="43.8345683" lon="12.1772517"><ele>722.0</ele><time>2026-04-06T13:03:17.009Z</time></trkpt><trkpt lat="43.8343967" lon="12.1771333"><ele>723.0</ele><time>2026-04-06T13:03:18.006Z</time></trkpt><trkpt lat="43.8342517" lon="12.1770333"><ele>724.0</ele><time>2026-04-06T13:03:19.012Z</time></trkpt><trkpt lat="43.834115" lon="12.1769467"><ele>724.0</ele><time>2026-04-06T13:03:20.007Z</time></trkpt><trkpt lat="43.8340017" lon="12.1768467"><ele>724.0</ele><time>2026-04-06T13:03:21.01Z</time></trkpt><trkpt lat="43.8339017" lon="12.1767167"><ele>724.0</ele><time>2026-04-06T13:03:22.007Z</time></trkpt><trkpt lat="43.8338" lon="12.1765883"><ele>724.0</ele><time>2026-04-06T13:03:23.005Z</time></trkpt><trkpt lat="43.8336967" lon="12.1764733"><ele>727.25</ele><time>2026-04-06T13:03:24.007Z</time></trkpt><trkpt lat="43.8335967" lon="12.1763633"><ele>730.5</ele><time>2026-04-06T13:03:25.008Z</time></trkpt><trkpt lat="43.8335" lon="12.1762617"><ele>733.75</ele><time>2026-04-06T13:03:26.008Z</time></trkpt><trkpt lat="43.8334167" lon="12.176165"><ele>737.0</ele><time>2026-04-06T13:03:27.01Z</time></trkpt><trkpt lat="43.83335" lon="12.1760683"><ele>732.5</ele><time>2026-04-06T13:03:28.006Z</time></trkpt><trkpt lat="43.8333017" lon="12.1759717"><ele>728.0</ele><time>2026-04-06T13:03:29.011Z</time></trkpt><trkpt lat="43.8332767" lon="12.1758733"><ele>723.5</ele><time>2026-04-06T13:03:30.007Z</time></trkpt><trkpt lat="43.8332683" lon="12.1757667"><ele>719.0</ele><time>2026-04-06T13:03:31.007Z</time></trkpt><trkpt lat="43.8332883" lon="12.175645"><ele>714.5</ele><time>2026-04-06T13:03:32.007Z</time></trkpt><trkpt lat="43.833315" lon="12.1755"><ele>710.0</ele><time>2026-04-06T13:03:33.007Z</time></trkpt><trkpt lat="43.8333317" lon="12.1753133"><ele>709.5</ele><time>2026-04-06T13:03:34.008Z</time></trkpt><trkpt lat="43.8333367" lon="12.17514"><ele>709.0</ele><time>2026-04-06T13:03:35.009Z</time></trkpt><trkpt lat="43.8333383" lon="12.17497"><ele>708.5</ele><time>2026-04-06T13:03:36.007Z</time></trkpt><trkpt lat="43.8333533" lon="12.1748133"><ele>708.0</ele><time>2026-04-06T13:03:37.007Z</time></trkpt><trkpt lat="43.8333933" lon="12.174675"><ele>705.75</ele><time>2026-04-06T13:03:38.009Z</time></trkpt><trkpt lat="43.8334517" lon="12.1745383"><ele>703.5</ele><time>2026-04-06T13:03:39.009Z</time></trkpt><trkpt lat="43.8335133" lon="12.1743983"><ele>701.25</ele><time>2026-04-06T13:03:40.009Z</time></trkpt><trkpt lat="43.83357" lon="12.174265"><ele>699.0</ele><time>2026-04-06T13:03:41.008Z</time></trkpt><trkpt lat="43.83363" lon="12.1741133"><ele>700.0</ele><time>2026-04-06T13:03:42.009Z</time></trkpt><trkpt lat="43.8336933" lon="12.1739583"><ele>701.0</ele><time>2026-04-06T13:03:43.007Z</time></trkpt><trkpt lat="43.833775" lon="12.17382"><ele>702.0</ele><time>2026-04-06T13:03:44.005Z</time></trkpt><trkpt lat="43.83387" lon="12.17369"><ele>703.0</ele><time>2026-04-06T13:03:45.01Z</time></trkpt><trkpt lat="43.8339783" lon="12.1735867"><ele>703.0</ele><time>2026-04-06T13:03:46.007Z</time></trkpt><trkpt lat="43.8340883" lon="12.1734983"><ele>703.0</ele><time>2026-04-06T13:03:47.007Z</time></trkpt><trkpt lat="43.8342083" lon="12.173435"><ele>703.0</ele><time>2026-04-06T13:03:48.006Z</time></trkpt><trkpt lat="43.8343283" lon="12.1734"><ele>703.0</ele><time>2026-04-06T13:03:49.006Z</time></trkpt><trkpt lat="43.834445" lon="12.173385"><ele>702.4</ele><time>2026-04-06T13:03:50.009Z</time></trkpt><trkpt lat="43.8345567" lon="12.173365"><ele>701.8</ele><time>2026-04-06T13:03:51.008Z</time></trkpt><trkpt lat="43.83466" lon="12.173335"><ele>701.2</ele><time>2026-04-06T13:03:52.006Z</time></trkpt><trkpt lat="43.8347567" lon="12.17328"><ele>700.6</ele><time>2026-04-06T13:03:53.007Z</time></trkpt><trkpt lat="43.83484" lon="12.1732033"><ele>700.0</ele><time>2026-04-06T13:03:54.007Z</time></trkpt><trkpt lat="43.8349133" lon="12.1731283"><ele>700.0</ele><time>2026-04-06T13:03:55.008Z</time></trkpt><trkpt lat="43.8349867" lon="12.1730717"><ele>700.0</ele><time>2026-04-06T13:03:56.007Z</time></trkpt><trkpt lat="43.8350617" lon="12.1730417"><ele>700.0</ele><time>2026-04-06T13:03:57.008Z</time></trkpt><trkpt lat="43.8351517" lon="12.173045"><ele>700.0</ele><time>2026-04-06T13:03:58.008Z</time></trkpt><trkpt lat="43.8352583" lon="12.17308"><ele>700.0</ele><time>2026-04-06T13:03:59.011Z</time></trkpt><trkpt lat="43.8353883" lon="12.1731133"><ele>704.75</ele><time>2026-04-06T13:04:00.006Z</time></trkpt><trkpt lat="43.835515" lon="12.173135"><ele>709.5</ele><time>2026-04-06T13:04:01.01Z</time></trkpt><trkpt lat="43.8356333" lon="12.173135"><ele>714.25</ele><time>2026-04-06T13:04:02.007Z</time></trkpt><trkpt lat="43.8357383" lon="12.1730983"><ele>719.0</ele><time>2026-04-06T13:04:03.007Z</time></trkpt><trkpt lat="43.83584" lon="12.1730167"><ele>719.0</ele><time>2026-04-06T13:04:04.006Z</time></trkpt><trkpt lat="43.8359417" lon="12.172905"><ele>719.0</ele><time>2026-04-06T13:04:05.007Z</time></trkpt><trkpt lat="43.8360483" lon="12.1727883"><ele>719.0</ele><time>2026-04-06T13:04:06.008Z</time></trkpt><trkpt lat="43.8361533" lon="12.17267"><ele>719.0</ele><time>2026-04-06T13:04:07.009Z</time></trkpt><trkpt lat="43.836245" lon="12.172535"><ele>720.4000000000001</ele><time>2026-04-06T13:04:08.008Z</time></trkpt><trkpt lat="43.836315" lon="12.1723783"><ele>721.8</ele><time>2026-04-06T13:04:09.009Z</time></trkpt><trkpt lat="43.8363617" lon="12.1722217"><ele>723.2</ele><time>2026-04-06T13:04:10.008Z</time></trkpt><trkpt lat="43.8364033" lon="12.172095"><ele>724.5999999999999</ele><time>2026-04-06T13:04:11.011Z</time></trkpt><trkpt lat="43.8364517" lon="12.1720033"><ele>726.0</ele><time>2026-04-06T13:04:12.007Z</time></trkpt><trkpt lat="43.836505" lon="12.17193"><ele>726.0</ele><time>2026-04-06T13:04:13.009Z</time></trkpt><trkpt lat="43.8365733" lon="12.1718883"><ele>726.0</ele><time>2026-04-06T13:04:14.009Z</time></trkpt><trkpt lat="43.8366817" lon="12.1718633"><ele>726.0</ele><time>2026-04-06T13:04:15.012Z</time></trkpt><trkpt lat="43.8367883" lon="12.17181"><ele>726.0</ele><time>2026-04-06T13:04:16.008Z</time></trkpt><trkpt lat="43.8368967" lon="12.1717217"><ele>726.0</ele><time>2026-04-06T13:04:17.007Z</time></trkpt><trkpt lat="43.8369867" lon="12.1716083"><ele>726.4</ele><time>2026-04-06T13:04:18.009Z</time></trkpt><trkpt lat="43.8370617" lon="12.1714967"><ele>726.8</ele><time>2026-04-06T13:04:19.008Z</time></trkpt><trkpt lat="43.83714" lon="12.1714083"><ele>727.1999999999999</ele><time>2026-04-06T13:04:20.008Z</time></trkpt><trkpt lat="43.8372333" lon="12.1713467"><ele>727.5999999999999</ele><time>2026-04-06T13:04:21.011Z</time></trkpt><trkpt lat="43.8373533" lon="12.1713067"><ele>728.0</ele><time>2026-04-06T13:04:22.007Z</time></trkpt><trkpt lat="43.8374883" lon="12.1712817"><ele>733.6666666666666</ele><time>2026-04-06T13:04:23.011Z</time></trkpt><trkpt lat="43.8376367" lon="12.1712717"><ele>739.3333333333334</ele><time>2026-04-06T13:04:24.009Z</time></trkpt><trkpt lat="43.8377967" lon="12.1712583"><ele>745.0</ele><time>2026-04-06T13:04:25.01Z</time></trkpt><trkpt lat="43.8379533" lon="12.1712383"><ele>745.0</ele><time>2026-04-06T13:04:26.007Z</time></trkpt><trkpt lat="43.8380967" lon="12.1712083"><ele>745.0</ele><time>2026-04-06T13:04:27.009Z</time></trkpt><trkpt lat="43.8382133" lon="12.1711683"><ele>745.0</ele><time>2026-04-06T13:04:28.009Z</time></trkpt><trkpt lat="43.8383117" lon="12.1711083"><ele>745.0</ele><time>2026-04-06T13:04:29.007Z</time></trkpt><trkpt lat="43.8383833" lon="12.1710233"><ele>745.0</ele><time>2026-04-06T13:04:30.01Z</time></trkpt><trkpt lat="43.8384233" lon="12.17092"><ele>745.0</ele><time>2026-04-06T13:04:31.008Z</time></trkpt><trkpt lat="43.8384456" lon="12.1708166"><ele>745.0</ele><time>2026-04-06T13:04:32.007Z</time></trkpt><trkpt lat="43.8384518" lon="12.1707162"><ele>745.0</ele><time>2026-04-06T13:04:33.011Z</time></trkpt><trkpt lat="43.8384276" lon="12.1706177"><ele>745.0</ele><time>2026-04-06T13:04:34.008Z</time></trkpt><trkpt lat="43.8383731" lon="12.1705151"><ele>745.0</ele><time>2026-04-06T13:04:35.008Z</time></trkpt><trkpt lat="43.8383335" lon="12.170407"><ele>746.0</ele><time>2026-04-06T13:04:36.008Z</time></trkpt><trkpt lat="43.8383095" lon="12.1702997"><ele>747.0</ele><time>2026-04-06T13:04:37.01Z</time></trkpt><trkpt lat="43.838316" lon="12.1701881"><ele>748.0</ele><time>2026-04-06T13:04:38.009Z</time></trkpt><trkpt lat="43.8383555" lon="12.1700727"><ele>749.0</ele><time>2026-04-06T13:04:39.008Z</time></trkpt><trkpt lat="43.8384099" lon="12.1699592"><ele>750.0</ele><time>2026-04-06T13:04:40.007Z</time></trkpt><trkpt lat="43.8384754" lon="12.1698525"><ele>753.0</ele><time>2026-04-06T13:04:41.007Z</time></trkpt><trkpt lat="43.8385083" lon="12.1697471"><ele>756.0</ele><time>2026-04-06T13:04:42.011Z</time></trkpt><trkpt lat="43.8385205" lon="12.1696477"><ele>759.0</ele><time>2026-04-06T13:04:43.009Z</time></trkpt><trkpt lat="43.8385088" lon="12.1695597"><ele>762.0</ele><time>2026-04-06T13:04:44.008Z</time></trkpt><trkpt lat="43.8384746" lon="12.169477"><ele>765.0</ele><time>2026-04-06T13:04:45.007Z</time></trkpt><trkpt lat="43.8384252" lon="12.1694068"><ele>768.0</ele><time>2026-04-06T13:04:46.008Z</time></trkpt><trkpt lat="43.8383498" lon="12.1693475"><ele>771.0</ele><time>2026-04-06T13:04:47.011Z</time></trkpt><trkpt lat="43.8382753" lon="12.1692954"><ele>771.0</ele><time>2026-04-06T13:04:48.009Z</time></trkpt><trkpt lat="43.8381809" lon="12.169261"><ele>771.0</ele><time>2026-04-06T13:04:49.088Z</time></trkpt><trkpt lat="43.8380773" lon="12.1692517"><ele>771.0</ele><time>2026-04-06T13:04:50.007Z</time></trkpt><trkpt lat="43.8379786" lon="12.1692409"><ele>771.0</ele><time>2026-04-06T13:04:51.009Z</time></trkpt><trkpt lat="43.8378989" lon="12.1691988"><ele>771.0</ele><time>2026-04-06T13:04:52.008Z</time></trkpt><trkpt lat="43.8378283" lon="12.1691381"><ele>771.0</ele><time>2026-04-06T13:04:53.008Z</time></trkpt><trkpt lat="43.8377365" lon="12.1691224"><ele>771.0</ele><time>2026-04-06T13:04:54.01Z</time></trkpt><trkpt lat="43.8376458" lon="12.1691006"><ele>771.0</ele><time>2026-04-06T13:04:55.009Z</time></trkpt><trkpt lat="43.8375533" lon="12.1690906"><ele>771.0</ele><time>2026-04-06T13:04:56.009Z</time></trkpt><trkpt lat="43.837455" lon="12.1690878"><ele>771.0</ele><time>2026-04-06T13:04:57.01Z</time></trkpt><trkpt lat="43.8373518" lon="12.1690653"><ele>773.8</ele><time>2026-04-06T13:04:58.008Z</time></trkpt><trkpt lat="43.8372612" lon="12.1690149"><ele>776.5999999999999</ele><time>2026-04-06T13:04:59.008Z</time></trkpt><trkpt lat="43.837195" lon="12.1689185"><ele>779.4</ele><time>2026-04-06T13:05:00.009Z</time></trkpt><trkpt lat="43.8371342" lon="12.1687923"><ele>782.2</ele><time>2026-04-06T13:05:01.012Z</time></trkpt><trkpt lat="43.8370531" lon="12.168703"><ele>785.0</ele><time>2026-04-06T13:05:02.007Z</time></trkpt><trkpt lat="43.8369573" lon="12.168645"><ele>785.0000000000001</ele><time>2026-04-06T13:05:03.012Z</time></trkpt><trkpt lat="43.8368653" lon="12.1686104"><ele>785.0</ele><time>2026-04-06T13:05:04.01Z</time></trkpt><trkpt lat="43.8368072" lon="12.1685357"><ele>785.0</ele><time>2026-04-06T13:05:05.009Z</time></trkpt><trkpt lat="43.8367722" lon="12.1684417"><ele>785.0</ele><time>2026-04-06T13:05:06.009Z</time></trkpt><trkpt lat="43.8367546" lon="12.1683359"><ele>785.0000000000001</ele><time>2026-04-06T13:05:07.01Z</time></trkpt><trkpt lat="43.836762" lon="12.1682151"><ele>785.0</ele><time>2026-04-06T13:05:08.01Z</time></trkpt><trkpt lat="43.8367682" lon="12.1681021"><ele>785.6666666666667</ele><time>2026-04-06T13:05:09.008Z</time></trkpt><trkpt lat="43.8368008" lon="12.1679793"><ele>786.3333333333334</ele><time>2026-04-06T13:05:10.01Z</time></trkpt><trkpt lat="43.8368401" lon="12.1678528"><ele>787.0</ele><time>2026-04-06T13:05:11.009Z</time></trkpt><trkpt lat="43.8368632" lon="12.1677351"><ele>787.6666666666667</ele><time>2026-04-06T13:05:12.008Z</time></trkpt><trkpt lat="43.8368554" lon="12.1676324"><ele>788.3333333333334</ele><time>2026-04-06T13:05:13.009Z</time></trkpt><trkpt lat="43.8368175" lon="12.1675471"><ele>789.0</ele><time>2026-04-06T13:05:14.007Z</time></trkpt><trkpt lat="43.8367465" lon="12.1674866"><ele>792.2</ele><time>2026-04-06T13:05:15.009Z</time></trkpt><trkpt lat="43.8366552" lon="12.1674442"><ele>795.4000000000001</ele><time>2026-04-06T13:05:16.009Z</time></trkpt><trkpt lat="43.8365496" lon="12.1674031"><ele>798.6</ele><time>2026-04-06T13:05:17.013Z</time></trkpt><trkpt lat="43.8364315" lon="12.1673956"><ele>801.8</ele><time>2026-04-06T13:05:18.009Z</time></trkpt><trkpt lat="43.8363292" lon="12.1673561"><ele>805.0</ele><time>2026-04-06T13:05:19.009Z</time></trkpt><trkpt lat="43.8362388" lon="12.1672881"><ele>805.0</ele><time>2026-04-06T13:05:20.006Z</time></trkpt><trkpt lat="43.8361478" lon="12.1672259"><ele>805.0</ele><time>2026-04-06T13:05:21.009Z</time></trkpt><trkpt lat="43.8360597" lon="12.1672068"><ele>805.0</ele><time>2026-04-06T13:05:22.009Z</time></trkpt><trkpt lat="43.8359737" lon="12.1672215"><ele>805.0</ele><time>2026-04-06T13:05:23.008Z</time></trkpt><trkpt lat="43.8358887" lon="12.1672735"><ele>805.0</ele><time>2026-04-06T13:05:24.005Z</time></trkpt><trkpt lat="43.835793" lon="12.1673603"><ele>792.6666666666666</ele><time>2026-04-06T13:05:25.01Z</time></trkpt><trkpt lat="43.8356779" lon="12.1674775"><ele>780.3333333333333</ele><time>2026-04-06T13:05:26.009Z</time></trkpt><trkpt lat="43.8355424" lon="12.1675798"><ele>768.0</ele><time>2026-04-06T13:05:27.007Z</time></trkpt><trkpt lat="43.8354106" lon="12.1676889"><ele>768.0</ele><time>2026-04-06T13:05:28.007Z</time></trkpt><trkpt lat="43.8353086" lon="12.1677971"><ele>768.0</ele><time>2026-04-06T13:05:29.008Z</time></trkpt><trkpt lat="43.8352324" lon="12.1679155"><ele>768.0</ele><time>2026-04-06T13:05:30.008Z</time></trkpt><trkpt lat="43.8351737" lon="12.1680564"><ele>768.0</ele><time>2026-04-06T13:05:31.007Z</time></trkpt><trkpt lat="43.8351238" lon="12.1682025"><ele>768.5999999999999</ele><time>2026-04-06T13:05:32.008Z</time></trkpt><trkpt lat="43.8350751" lon="12.1683392"><ele>769.1999999999999</ele><time>2026-04-06T13:05:33.008Z</time></trkpt><trkpt lat="43.8350179" lon="12.1684578"><ele>769.8</ele><time>2026-04-06T13:05:34.011Z</time></trkpt><trkpt lat="43.8349545" lon="12.1685454"><ele>770.4</ele><time>2026-04-06T13:05:35.008Z</time></trkpt><trkpt lat="43.8348823" lon="12.168607"><ele>771.0</ele><time>2026-04-06T13:05:36.007Z</time></trkpt><trkpt lat="43.8348061" lon="12.1686288"><ele>771.0</ele><time>2026-04-06T13:05:37.008Z</time></trkpt><trkpt lat="43.8347278" lon="12.1686188"><ele>771.0</ele><time>2026-04-06T13:05:38.007Z</time></trkpt><trkpt lat="43.8346492" lon="12.1685602"><ele>771.0</ele><time>2026-04-06T13:05:39.008Z</time></trkpt><trkpt lat="43.8345642" lon="12.1684706"><ele>771.0</ele><time>2026-04-06T13:05:40.009Z</time></trkpt><trkpt lat="43.8344731" lon="12.1684121"><ele>771.0</ele><time>2026-04-06T13:05:41.008Z</time></trkpt><trkpt lat="43.8343767" lon="12.1683774"><ele>771.75</ele><time>2026-04-06T13:05:42.01Z</time></trkpt><trkpt lat="43.834274" lon="12.16835"><ele>772.5</ele><time>2026-04-06T13:05:43.009Z</time></trkpt><trkpt lat="43.834169" lon="12.1683003"><ele>773.25</ele><time>2026-04-06T13:05:44.009Z</time></trkpt><trkpt lat="43.8340623" lon="12.1682282"><ele>774.0</ele><time>2026-04-06T13:05:45.007Z</time></trkpt><trkpt lat="43.8339554" lon="12.1681516"><ele>780.0</ele><time>2026-04-06T13:05:46.009Z</time></trkpt><trkpt lat="43.8338515" lon="12.168068"><ele>786.0</ele><time>2026-04-06T13:05:47.01Z</time></trkpt><trkpt lat="43.8337511" lon="12.1679798"><ele>792.0</ele><time>2026-04-06T13:05:48.007Z</time></trkpt><trkpt lat="43.8336501" lon="12.1678932"><ele>798.0</ele><time>2026-04-06T13:05:49.008Z</time></trkpt><trkpt lat="43.8335646" lon="12.1677835"><ele>798.0</ele><time>2026-04-06T13:05:50.007Z</time></trkpt><trkpt lat="43.8334864" lon="12.1676776"><ele>798.0</ele><time>2026-04-06T13:05:51.008Z</time></trkpt><trkpt lat="43.8334264" lon="12.1675684"><ele>798.0</ele><time>2026-04-06T13:05:52.008Z</time></trkpt><trkpt lat="43.8333889" lon="12.1674492"><ele>798.0</ele><time>2026-04-06T13:05:53.008Z</time></trkpt><trkpt lat="43.8333844" lon="12.1673105"><ele>798.0</ele><time>2026-04-06T13:05:54.008Z</time></trkpt><trkpt lat="43.833418" lon="12.1671549"><ele>802.5</ele><time>2026-04-06T13:05:55.009Z</time></trkpt><trkpt lat="43.8334823" lon="12.1669997"><ele>807.0</ele><time>2026-04-06T13:05:56.008Z</time></trkpt><trkpt lat="43.8335302" lon="12.1668439"><ele>811.5</ele><time>2026-04-06T13:05:57.008Z</time></trkpt><trkpt lat="43.8335454" lon="12.1666936"><ele>816.0</ele><time>2026-04-06T13:05:58.008Z</time></trkpt><trkpt lat="43.8335211" lon="12.1665511"><ele>813.75</ele><time>2026-04-06T13:05:59.007Z</time></trkpt><trkpt lat="43.8334539" lon="12.1664145"><ele>811.5</ele><time>2026-04-06T13:06:00.01Z</time></trkpt><trkpt lat="43.8333591" lon="12.1662888"><ele>809.25</ele><time>2026-04-06T13:06:01.009Z</time></trkpt><trkpt lat="43.8332959" lon="12.1661544"><ele>807.0</ele><time>2026-04-06T13:06:02.007Z</time></trkpt><trkpt lat="43.8332616" lon="12.1659973"><ele>807.0</ele><time>2026-04-06T13:06:03.008Z</time></trkpt><trkpt lat="43.8332613" lon="12.1658259"><ele>807.0</ele><time>2026-04-06T13:06:04.008Z</time></trkpt><trkpt lat="43.8332734" lon="12.1656512"><ele>807.0</ele><time>2026-04-06T13:06:05.009Z</time></trkpt><trkpt lat="43.8332684" lon="12.1654904"><ele>807.0</ele><time>2026-04-06T13:06:06.01Z</time></trkpt><trkpt lat="43.8332283" lon="12.1653628"><ele>811.0</ele><time>2026-04-06T13:06:07.008Z</time></trkpt><trkpt lat="43.8331818" lon="12.16528"><ele>815.0</ele><time>2026-04-06T13:06:08.007Z</time></trkpt><trkpt lat="43.8331106" lon="12.165223"><ele>819.0</ele><time>2026-04-06T13:06:10.009Z</time></trkpt><trkpt lat="43.8330231" lon="12.1652282"><ele>823.0</ele><time>2026-04-06T13:06:13.008Z</time></trkpt><trkpt lat="43.8331363" lon="12.1653231"><ele>827.0</ele><time>2026-04-06T13:06:44.008Z</time></trkpt><trkpt lat="43.8332261" lon="12.1654274"><ele>827.0</ele><time>2026-04-06T13:06:45.009Z</time></trkpt><trkpt lat="43.8332936" lon="12.1655548"><ele>827.0</ele><time>2026-04-06T13:06:46.008Z</time></trkpt><trkpt lat="43.8333301" lon="12.1656994"><ele>827.0</ele><time>2026-04-06T13:06:47.009Z</time></trkpt><trkpt lat="43.8333242" lon="12.1658765"><ele>827.0</ele><time>2026-04-06T13:06:48.008Z</time></trkpt><trkpt lat="43.8333141" lon="12.1660425"><ele>828.2</ele><time>2026-04-06T13:06:49.01Z</time></trkpt><trkpt lat="43.8333225" lon="12.1661824"><ele>829.4000000000001</ele><time>2026-04-06T13:06:50.008Z</time></trkpt><trkpt lat="43.833356" lon="12.1663045"><ele>830.5999999999999</ele><time>2026-04-06T13:06:51.007Z</time></trkpt><trkpt lat="43.8334139" lon="12.1664053"><ele>831.8</ele><time>2026-04-06T13:06:52.008Z</time></trkpt><trkpt lat="43.8334815" lon="12.1665018"><ele>833.0</ele><time>2026-04-06T13:06:53.008Z</time></trkpt><trkpt lat="43.8335363" lon="12.1666073"><ele>829.5999999999999</ele><time>2026-04-06T13:06:54.007Z</time></trkpt><trkpt lat="43.8335651" lon="12.1667293"><ele>826.1999999999999</ele><time>2026-04-06T13:06:55.011Z</time></trkpt><trkpt lat="43.8335776" lon="12.1668555"><ele>822.8</ele><time>2026-04-06T13:06:56.009Z</time></trkpt><trkpt lat="43.8335629" lon="12.1669909"><ele>819.4</ele><time>2026-04-06T13:06:57.009Z</time></trkpt><trkpt lat="43.8335193" lon="12.1671236"><ele>816.0</ele><time>2026-04-06T13:06:58.008Z</time></trkpt><trkpt lat="43.8334745" lon="12.1672509"><ele>813.0</ele><time>2026-04-06T13:06:59.009Z</time></trkpt><trkpt lat="43.8334455" lon="12.1673752"><ele>810.0</ele><time>2026-04-06T13:07:00.011Z</time></trkpt><trkpt lat="43.8334312" lon="12.1674941"><ele>807.0</ele><time>2026-04-06T13:07:01.009Z</time></trkpt><trkpt lat="43.8334246" lon="12.1676082"><ele>804.0</ele><time>2026-04-06T13:07:02.012Z</time></trkpt><trkpt lat="43.8334489" lon="12.167713"><ele>801.0</ele><time>2026-04-06T13:07:03.01Z</time></trkpt><trkpt lat="43.8334899" lon="12.1678014"><ele>798.0</ele><time>2026-04-06T13:07:04.007Z</time></trkpt><trkpt lat="43.8335389" lon="12.1678636"><ele>798.0</ele><time>2026-04-06T13:07:05.007Z</time></trkpt><trkpt lat="43.8335999" lon="12.1679345"><ele>798.0</ele><time>2026-04-06T13:07:07.01Z</time></trkpt><trkpt lat="43.8335216" lon="12.1679102"><ele>798.0</ele><time>2026-04-06T13:07:11.006Z</time></trkpt><trkpt lat="43.8334439" lon="12.1678026"><ele>798.0</ele><time>2026-04-06T13:07:13.009Z</time></trkpt><trkpt lat="43.833393" lon="12.1677318"><ele>798.0</ele><time>2026-04-06T13:07:14.009Z</time></trkpt><trkpt lat="43.8333487" lon="12.1676559"><ele>798.0</ele><time>2026-04-06T13:07:15.007Z</time></trkpt><trkpt lat="43.83331" lon="12.1675762"><ele>796.6666666666666</ele><time>2026-04-06T13:07:16.007Z</time></trkpt><trkpt lat="43.8332726" lon="12.1674883"><ele>795.3333333333333</ele><time>2026-04-06T13:07:17.008Z</time></trkpt><trkpt lat="43.8332359" lon="12.1673933"><ele>794.0</ele><time>2026-04-06T13:07:18.007Z</time></trkpt><trkpt lat="43.8331977" lon="12.1673022"><ele>792.6666666666666</ele><time>2026-04-06T13:07:19.007Z</time></trkpt><trkpt lat="43.8331637" lon="12.1672265"><ele>791.3333333333333</ele><time>2026-04-06T13:07:20.011Z</time></trkpt><trkpt lat="43.8330786" lon="12.1671493"><ele>790.0</ele><time>2026-04-06T13:07:22.009Z</time></trkpt><trkpt lat="43.8330045" lon="12.1672103"><ele>789.9999999999999</ele><time>2026-04-06T13:07:24.007Z</time></trkpt><trkpt lat="43.8329876" lon="12.1672959"><ele>790.0</ele><time>2026-04-06T13:07:25.007Z</time></trkpt><trkpt lat="43.8329814" lon="12.1673847"><ele>790.0</ele><time>2026-04-06T13:07:26.006Z</time></trkpt><trkpt lat="43.8329668" lon="12.1675304"><ele>790.0</ele><time>2026-04-06T13:07:28.008Z</time></trkpt><trkpt lat="43.8329017" lon="12.1675208"><ele>789.9999999999999</ele><time>2026-04-06T13:07:30.009Z</time></trkpt><trkpt lat="43.8328264" lon="12.1674144"><ele>790.0</ele><time>2026-04-06T13:07:32.008Z</time></trkpt><trkpt lat="43.8327948" lon="12.1673205"><ele>790.0</ele><time>2026-04-06T13:07:33.008Z</time></trkpt><trkpt lat="43.8327594" lon="12.1672116"><ele>790.0</ele><time>2026-04-06T13:07:34.008Z</time></trkpt><trkpt lat="43.8327282" lon="12.1670816"><ele>790.0</ele><time>2026-04-06T13:07:35.006Z</time></trkpt><trkpt lat="43.8327088" lon="12.1669446"><ele>790.0</ele><time>2026-04-06T13:07:36.007Z</time></trkpt><trkpt lat="43.8326948" lon="12.166815"><ele>790.0</ele><time>2026-04-06T13:07:37.007Z</time></trkpt><trkpt lat="43.8326825" lon="12.1666966"><ele>789.9999999999999</ele><time>2026-04-06T13:07:38.007Z</time></trkpt><trkpt lat="43.8326626" lon="12.1665825"><ele>790.0</ele><time>2026-04-06T13:07:39.008Z</time></trkpt><trkpt lat="43.8326259" lon="12.1664798"><ele>790.0</ele><time>2026-04-06T13:07:40.006Z</time></trkpt><trkpt lat="43.8325764" lon="12.1663867"><ele>790.0</ele><time>2026-04-06T13:07:41.007Z</time></trkpt><trkpt lat="43.8325033" lon="12.1663184"><ele>789.9999999999999</ele><time>2026-04-06T13:07:42.008Z</time></trkpt><trkpt lat="43.8324088" lon="12.1662545"><ele>790.0</ele><time>2026-04-06T13:07:43.007Z</time></trkpt><trkpt lat="43.8323098" lon="12.1661872"><ele>788.2</ele><time>2026-04-06T13:07:44.005Z</time></trkpt><trkpt lat="43.8322149" lon="12.1661118"><ele>786.4</ele><time>2026-04-06T13:07:45.006Z</time></trkpt><trkpt lat="43.8321336" lon="12.166029"><ele>784.5999999999999</ele><time>2026-04-06T13:07:46.005Z</time></trkpt><trkpt lat="43.8320704" lon="12.1659324"><ele>782.8</ele><time>2026-04-06T13:07:47.008Z</time></trkpt><trkpt lat="43.8320336" lon="12.165822"><ele>781.0</ele><time>2026-04-06T13:07:48.007Z</time></trkpt><trkpt lat="43.832011" lon="12.1657176"><ele>781.1999999999999</ele><time>2026-04-06T13:07:49.007Z</time></trkpt><trkpt lat="43.8319628" lon="12.1655787"><ele>781.4</ele><time>2026-04-06T13:07:51.011Z</time></trkpt><trkpt lat="43.8318514" lon="12.1655237"><ele>781.6</ele><time>2026-04-06T13:07:53.006Z</time></trkpt><trkpt lat="43.831779" lon="12.1655373"><ele>781.8</ele><time>2026-04-06T13:07:54.007Z</time></trkpt><trkpt lat="43.8317008" lon="12.1655752"><ele>782.0</ele><time>2026-04-06T13:07:55.006Z</time></trkpt><trkpt lat="43.8316194" lon="12.1656312"><ele>782.0</ele><time>2026-04-06T13:07:56.008Z</time></trkpt><trkpt lat="43.8315347" lon="12.1656851"><ele>782.0</ele><time>2026-04-06T13:07:57.007Z</time></trkpt><trkpt lat="43.8314444" lon="12.1657206"><ele>782.0</ele><time>2026-04-06T13:07:58.007Z</time></trkpt><trkpt lat="43.8313541" lon="12.1657275"><ele>782.0</ele><time>2026-04-06T13:07:59.006Z</time></trkpt><trkpt lat="43.8312609" lon="12.1657074"><ele>782.0</ele><time>2026-04-06T13:08:00.008Z</time></trkpt><trkpt lat="43.8311587" lon="12.1656482"><ele>782.0</ele><time>2026-04-06T13:08:01.009Z</time></trkpt><trkpt lat="43.8310478" lon="12.1655685"><ele>782.0</ele><time>2026-04-06T13:08:02.008Z</time></trkpt><trkpt lat="43.8309345" lon="12.1654891"><ele>782.0</ele><time>2026-04-06T13:08:03.009Z</time></trkpt><trkpt lat="43.8308243" lon="12.1654172"><ele>782.0</ele><time>2026-04-06T13:08:04.007Z</time></trkpt><trkpt lat="43.8307196" lon="12.1653598"><ele>780.6</ele><time>2026-04-06T13:08:05.007Z</time></trkpt><trkpt lat="43.8306152" lon="12.1653198"><ele>779.2</ele><time>2026-04-06T13:08:06.008Z</time></trkpt><trkpt lat="43.8305107" lon="12.165307"><ele>777.8</ele><time>2026-04-06T13:08:07.006Z</time></trkpt><trkpt lat="43.8304111" lon="12.1653159"><ele>776.4</ele><time>2026-04-06T13:08:08.008Z</time></trkpt><trkpt lat="43.8303198" lon="12.1653358"><ele>775.0</ele><time>2026-04-06T13:08:09.007Z</time></trkpt><trkpt lat="43.8302363" lon="12.1653697"><ele>774.9999999999999</ele><time>2026-04-06T13:08:10.007Z</time></trkpt><trkpt lat="43.8301572" lon="12.1654161"><ele>775.0</ele><time>2026-04-06T13:08:11.008Z</time></trkpt><trkpt lat="43.8300872" lon="12.1654779"><ele>775.0</ele><time>2026-04-06T13:08:12.008Z</time></trkpt><trkpt lat="43.8300247" lon="12.1655524"><ele>775.0</ele><time>2026-04-06T13:08:13.009Z</time></trkpt><trkpt lat="43.8299752" lon="12.1656505"><ele>774.9999999999999</ele><time>2026-04-06T13:08:14.006Z</time></trkpt><trkpt lat="43.8299358" lon="12.1657864"><ele>775.0</ele><time>2026-04-06T13:08:15.01Z</time></trkpt><trkpt lat="43.8298929" lon="12.1659296"><ele>771.0</ele><time>2026-04-06T13:08:16.007Z</time></trkpt><trkpt lat="43.8298439" lon="12.166072"><ele>767.0</ele><time>2026-04-06T13:08:17.005Z</time></trkpt><trkpt lat="43.8297854" lon="12.1662129"><ele>763.0</ele><time>2026-04-06T13:08:18.008Z</time></trkpt><trkpt lat="43.8297192" lon="12.1663492"><ele>759.0</ele><time>2026-04-06T13:08:19.008Z</time></trkpt><trkpt lat="43.8296435" lon="12.1664791"><ele>757.3333333333334</ele><time>2026-04-06T13:08:20.007Z</time></trkpt><trkpt lat="43.8295711" lon="12.1666022"><ele>755.6666666666666</ele><time>2026-04-06T13:08:21.007Z</time></trkpt><trkpt lat="43.8295088" lon="12.1667157"><ele>754.0</ele><time>2026-04-06T13:08:22.007Z</time></trkpt><trkpt lat="43.829457" lon="12.1668156"><ele>752.3333333333333</ele><time>2026-04-06T13:08:23.007Z</time></trkpt><trkpt lat="43.829405" lon="12.1668881"><ele>750.6666666666666</ele><time>2026-04-06T13:08:24.007Z</time></trkpt><trkpt lat="43.8293485" lon="12.166941"><ele>749.0</ele><time>2026-04-06T13:08:25.006Z</time></trkpt><trkpt lat="43.8292864" lon="12.1669607"><ele>749.0</ele><time>2026-04-06T13:08:26.007Z</time></trkpt><trkpt lat="43.8292241" lon="12.1669446"><ele>749.0</ele><time>2026-04-06T13:08:27.009Z</time></trkpt><trkpt lat="43.8291676" lon="12.1669044"><ele>749.0</ele><time>2026-04-06T13:08:28.007Z</time></trkpt><trkpt lat="43.8291152" lon="12.1668405"><ele>749.0</ele><time>2026-04-06T13:08:29.007Z</time></trkpt><trkpt lat="43.8290592" lon="12.166742"><ele>749.0</ele><time>2026-04-06T13:08:30.006Z</time></trkpt><trkpt lat="43.8289932" lon="12.1666143"><ele>749.0</ele><time>2026-04-06T13:08:31.008Z</time></trkpt><trkpt lat="43.8289256" lon="12.1664898"><ele>751.8333333333333</ele><time>2026-04-06T13:08:32.007Z</time></trkpt><trkpt lat="43.8288703" lon="12.1663684"><ele>754.6666666666666</ele><time>2026-04-06T13:08:33.007Z</time></trkpt><trkpt lat="43.8288269" lon="12.1662481"><ele>757.5</ele><time>2026-04-06T13:08:34.007Z</time></trkpt><trkpt lat="43.8288069" lon="12.1661268"><ele>760.3333333333334</ele><time>2026-04-06T13:08:35.007Z</time></trkpt><trkpt lat="43.8287976" lon="12.1660192"><ele>763.1666666666667</ele><time>2026-04-06T13:08:36.006Z</time></trkpt><trkpt lat="43.8287928" lon="12.1659233"><ele>766.0</ele><time>2026-04-06T13:08:37.007Z</time></trkpt><trkpt lat="43.8288233" lon="12.1658317"><ele>770.3333333333334</ele><time>2026-04-06T13:09:00.006Z</time></trkpt><trkpt lat="43.8287967" lon="12.1656733"><ele>774.6666666666667</ele><time>2026-04-06T13:09:02.006Z</time></trkpt><trkpt lat="43.8287783" lon="12.165585"><ele>779.0</ele><time>2026-04-06T13:09:03.009Z</time></trkpt><trkpt lat="43.82872" lon="12.1654833"><ele>783.3333333333334</ele><time>2026-04-06T13:09:04.007Z</time></trkpt><trkpt lat="43.82867" lon="12.1654033"><ele>787.6666666666666</ele><time>2026-04-06T13:09:05.005Z</time></trkpt><trkpt lat="43.82859" lon="12.16534"><ele>792.0</ele><time>2026-04-06T13:09:06.009Z</time></trkpt><trkpt lat="43.8285067" lon="12.1652833"><ele>791.8</ele><time>2026-04-06T13:09:07.006Z</time></trkpt><trkpt lat="43.8284233" lon="12.1652083"><ele>791.6</ele><time>2026-04-06T13:09:08.009Z</time></trkpt><trkpt lat="43.8283483" lon="12.1651283"><ele>791.4</ele><time>2026-04-06T13:09:09.007Z</time></trkpt><trkpt lat="43.82827" lon="12.165015"><ele>791.1999999999999</ele><time>2026-04-06T13:09:10.008Z</time></trkpt><trkpt lat="43.8281833" lon="12.1648883"><ele>791.0</ele><time>2026-04-06T13:09:11.007Z</time></trkpt><trkpt lat="43.8281044" lon="12.1647731"><ele>791.0000000000001</ele><time>2026-04-06T13:09:12.006Z</time></trkpt><trkpt lat="43.8280464" lon="12.1646629"><ele>791.0</ele><time>2026-04-06T13:09:13.007Z</time></trkpt><trkpt lat="43.8280074" lon="12.1645612"><ele>791.0</ele><time>2026-04-06T13:09:14.005Z</time></trkpt><trkpt lat="43.8279832" lon="12.1644661"><ele>791.0</ele><time>2026-04-06T13:09:15.007Z</time></trkpt><trkpt lat="43.8279856" lon="12.1643734"><ele>791.0000000000001</ele><time>2026-04-06T13:09:16.01Z</time></trkpt><trkpt lat="43.8279732" lon="12.1642175"><ele>791.0</ele><time>2026-04-06T13:09:18.008Z</time></trkpt><trkpt lat="43.827881" lon="12.1641429"><ele>791.0</ele><time>2026-04-06T13:09:20.006Z</time></trkpt><trkpt lat="43.8278061" lon="12.1641478"><ele>791.0</ele><time>2026-04-06T13:09:21.008Z</time></trkpt><trkpt lat="43.8277048" lon="12.1641672"><ele>791.0</ele><time>2026-04-06T13:09:22.008Z</time></trkpt><trkpt lat="43.8275863" lon="12.1641777"><ele>791.0</ele><time>2026-04-06T13:09:23.007Z</time></trkpt><trkpt lat="43.8274775" lon="12.1641959"><ele>791.0</ele><time>2026-04-06T13:09:24.006Z</time></trkpt><trkpt lat="43.8273936" lon="12.1642273"><ele>788.1666666666667</ele><time>2026-04-06T13:09:25.007Z</time></trkpt><trkpt lat="43.8273265" lon="12.1642683"><ele>785.3333333333334</ele><time>2026-04-06T13:09:26.007Z</time></trkpt><trkpt lat="43.8272932" lon="12.1644041"><ele>782.5</ele><time>2026-04-06T13:09:28.007Z</time></trkpt><trkpt lat="43.8273273" lon="12.1645084"><ele>779.6666666666667</ele><time>2026-04-06T13:09:29.008Z</time></trkpt><trkpt lat="43.8273668" lon="12.1646181"><ele>776.8333333333334</ele><time>2026-04-06T13:09:30.008Z</time></trkpt><trkpt lat="43.827398" lon="12.1647368"><ele>774.0</ele><time>2026-04-06T13:09:31.007Z</time></trkpt><trkpt lat="43.8274056" lon="12.1648784"><ele>769.5</ele><time>2026-04-06T13:09:32.008Z</time></trkpt><trkpt lat="43.8273929" lon="12.1650415"><ele>765.0</ele><time>2026-04-06T13:09:33.009Z</time></trkpt><trkpt lat="43.8273682" lon="12.165219"><ele>760.5</ele><time>2026-04-06T13:09:34.01Z</time></trkpt><trkpt lat="43.8273339" lon="12.1653938"><ele>756.0</ele><time>2026-04-06T13:09:35.009Z</time></trkpt><trkpt lat="43.8273076" lon="12.1655715"><ele>754.75</ele><time>2026-04-06T13:09:36.008Z</time></trkpt><trkpt lat="43.8273073" lon="12.1657544"><ele>753.5</ele><time>2026-04-06T13:09:37.008Z</time></trkpt><trkpt lat="43.8273275" lon="12.1659614"><ele>752.25</ele><time>2026-04-06T13:09:38.008Z</time></trkpt><trkpt lat="43.8273537" lon="12.1661738"><ele>751.0</ele><time>2026-04-06T13:09:39.009Z</time></trkpt><trkpt lat="43.8273771" lon="12.1663686"><ele>750.1999999999999</ele><time>2026-04-06T13:09:40.009Z</time></trkpt><trkpt lat="43.8273938" lon="12.1665449"><ele>749.4</ele><time>2026-04-06T13:09:41.008Z</time></trkpt><trkpt lat="43.8273951" lon="12.1667003"><ele>748.6</ele><time>2026-04-06T13:09:42.01Z</time></trkpt><trkpt lat="43.8273745" lon="12.16684"><ele>747.8</ele><time>2026-04-06T13:09:43.008Z</time></trkpt><trkpt lat="43.8273291" lon="12.1669691"><ele>747.0</ele><time>2026-04-06T13:09:44.009Z</time></trkpt><trkpt lat="43.8272769" lon="12.1670965"><ele>747.0</ele><time>2026-04-06T13:09:45.008Z</time></trkpt><trkpt lat="43.8272335" lon="12.1672164"><ele>747.0</ele><time>2026-04-06T13:09:46.007Z</time></trkpt><trkpt lat="43.8271799" lon="12.1673137"><ele>747.0</ele><time>2026-04-06T13:09:47.007Z</time></trkpt><trkpt lat="43.8271184" lon="12.1673913"><ele>747.0</ele><time>2026-04-06T13:09:48.008Z</time></trkpt><trkpt lat="43.8270457" lon="12.1674516"><ele>747.0</ele><time>2026-04-06T13:09:49.01Z</time></trkpt><trkpt lat="43.8269647" lon="12.1674874"><ele>747.0</ele><time>2026-04-06T13:09:50.006Z</time></trkpt><trkpt lat="43.8268711" lon="12.167493"><ele>750.0</ele><time>2026-04-06T13:09:51.011Z</time></trkpt><trkpt lat="43.8267639" lon="12.1674878"><ele>753.0</ele><time>2026-04-06T13:09:52.009Z</time></trkpt><trkpt lat="43.8266755" lon="12.1675061"><ele>756.0</ele><time>2026-04-06T13:09:53.006Z</time></trkpt><trkpt lat="43.826618" lon="12.1675681"><ele>759.0</ele><time>2026-04-06T13:09:54.008Z</time></trkpt><trkpt lat="43.8265819" lon="12.1676602"><ele>762.0</ele><time>2026-04-06T13:09:55.008Z</time></trkpt><trkpt lat="43.8265473" lon="12.1677823"><ele>765.0</ele><time>2026-04-06T13:09:56.008Z</time></trkpt><trkpt lat="43.8265679" lon="12.1679504"><ele>765.0</ele><time>2026-04-06T13:09:57.009Z</time></trkpt><trkpt lat="43.8266162" lon="12.1681443"><ele>765.0</ele><time>2026-04-06T13:09:58.007Z</time></trkpt><trkpt lat="43.8266847" lon="12.1683445"><ele>765.0</ele><time>2026-04-06T13:09:59.008Z</time></trkpt><trkpt lat="43.8267758" lon="12.1685312"><ele>753.75</ele><time>2026-04-06T13:10:00.008Z</time></trkpt><trkpt lat="43.8268731" lon="12.1686903"><ele>742.5</ele><time>2026-04-06T13:10:01.013Z</time></trkpt><trkpt lat="43.8269584" lon="12.1688214"><ele>731.25</ele><time>2026-04-06T13:10:02.008Z</time></trkpt><trkpt lat="43.8270254" lon="12.1689385"><ele>720.0</ele><time>2026-04-06T13:10:03.008Z</time></trkpt><trkpt lat="43.8270678" lon="12.1690618"><ele>720.0</ele><time>2026-04-06T13:10:04.007Z</time></trkpt><trkpt lat="43.8271025" lon="12.169219"><ele>720.0</ele><time>2026-04-06T13:10:05.007Z</time></trkpt><trkpt lat="43.8271241" lon="12.1694055"><ele>720.0</ele><time>2026-04-06T13:10:06.01Z</time></trkpt><trkpt lat="43.8271415" lon="12.1695899"><ele>720.0</ele><time>2026-04-06T13:10:07.007Z</time></trkpt><trkpt lat="43.8271649" lon="12.169754"><ele>720.0</ele><time>2026-04-06T13:10:08.009Z</time></trkpt><trkpt lat="43.8271781" lon="12.1698904"><ele>720.0</ele><time>2026-04-06T13:10:09.008Z</time></trkpt><trkpt lat="43.8271707" lon="12.1699954"><ele>720.0</ele><time>2026-04-06T13:10:10.007Z</time></trkpt><trkpt lat="43.827153" lon="12.1700795"><ele>720.0</ele><time>2026-04-06T13:10:11.008Z</time></trkpt><trkpt lat="43.8270168" lon="12.1700653"><ele>720.0</ele><time>2026-04-06T13:10:13.009Z</time></trkpt><trkpt lat="43.8269445" lon="12.1700132"><ele>720.0</ele><time>2026-04-06T13:10:14.007Z</time></trkpt><trkpt lat="43.8268745" lon="12.1699486"><ele>720.0</ele><time>2026-04-06T13:10:15.008Z</time></trkpt><trkpt lat="43.8267943" lon="12.1698583"><ele>720.0</ele><time>2026-04-06T13:10:16.009Z</time></trkpt><trkpt lat="43.8266955" lon="12.1697784"><ele>720.0</ele><time>2026-04-06T13:10:17.008Z</time></trkpt><trkpt lat="43.8265795" lon="12.1697251"><ele>720.0</ele><time>2026-04-06T13:10:18.01Z</time></trkpt><trkpt lat="43.8264543" lon="12.1697007"><ele>730.75</ele><time>2026-04-06T13:10:19.009Z</time></trkpt><trkpt lat="43.8263264" lon="12.1696968"><ele>741.5</ele><time>2026-04-06T13:10:20.008Z</time></trkpt><trkpt lat="43.8262047" lon="12.1696903"><ele>752.25</ele><time>2026-04-06T13:10:21.007Z</time></trkpt><trkpt lat="43.8260911" lon="12.169668"><ele>763.0</ele><time>2026-04-06T13:10:22.008Z</time></trkpt><trkpt lat="43.8259907" lon="12.1696228"><ele>765.1666666666667</ele><time>2026-04-06T13:10:23.008Z</time></trkpt><trkpt lat="43.8259003" lon="12.1695672"><ele>767.3333333333334</ele><time>2026-04-06T13:10:24.007Z</time></trkpt><trkpt lat="43.8258182" lon="12.169519"><ele>769.5</ele><time>2026-04-06T13:10:25.013Z</time></trkpt><trkpt lat="43.8257424" lon="12.1694885"><ele>771.6666666666667</ele><time>2026-04-06T13:10:26.008Z</time></trkpt><trkpt lat="43.8256687" lon="12.1694827"><ele>773.8333333333334</ele><time>2026-04-06T13:10:27.009Z</time></trkpt><trkpt lat="43.8255963" lon="12.1694941"><ele>776.0</ele><time>2026-04-06T13:10:28.008Z</time></trkpt><trkpt lat="43.8255274" lon="12.169516"><ele>776.0</ele><time>2026-04-06T13:10:29.01Z</time></trkpt><trkpt lat="43.8254664" lon="12.1696417"><ele>776.0</ele><time>2026-04-06T13:10:30.006Z</time></trkpt><trkpt lat="43.8254077" lon="12.1697756"><ele>776.0</ele><time>2026-04-06T13:10:31.008Z</time></trkpt><trkpt lat="43.8253648" lon="12.1699302"><ele>776.0</ele><time>2026-04-06T13:10:32.012Z</time></trkpt><trkpt lat="43.8253588" lon="12.1700997"><ele>768.5</ele><time>2026-04-06T13:10:33.009Z</time></trkpt><trkpt lat="43.8253887" lon="12.170265"><ele>761.0</ele><time>2026-04-06T13:10:34.007Z</time></trkpt><trkpt lat="43.8254381" lon="12.1704282"><ele>753.5</ele><time>2026-04-06T13:10:35.007Z</time></trkpt><trkpt lat="43.8254907" lon="12.1705805"><ele>746.0</ele><time>2026-04-06T13:10:36.009Z</time></trkpt><trkpt lat="43.8255186" lon="12.170714"><ele>743.8333333333333</ele><time>2026-04-06T13:10:37.008Z</time></trkpt><trkpt lat="43.8255258" lon="12.1708344"><ele>741.6666666666666</ele><time>2026-04-06T13:10:38.012Z</time></trkpt><trkpt lat="43.8254843" lon="12.1709187"><ele>739.5</ele><time>2026-04-06T13:10:39.008Z</time></trkpt><trkpt lat="43.8254224" lon="12.1709902"><ele>737.3333333333334</ele><time>2026-04-06T13:10:40.007Z</time></trkpt><trkpt lat="43.8253274" lon="12.1710552"><ele>735.1666666666667</ele><time>2026-04-06T13:10:41.008Z</time></trkpt><trkpt lat="43.8252431" lon="12.1711333"><ele>733.0</ele><time>2026-04-06T13:10:42.008Z</time></trkpt><trkpt lat="43.8251844" lon="12.171234"><ele>732.4</ele><time>2026-04-06T13:10:43.011Z</time></trkpt><trkpt lat="43.8251456" lon="12.1713522"><ele>731.8</ele><time>2026-04-06T13:10:44.008Z</time></trkpt><trkpt lat="43.825128" lon="12.1714832"><ele>731.2</ele><time>2026-04-06T13:10:45.007Z</time></trkpt><trkpt lat="43.8251406" lon="12.1716116"><ele>730.6</ele><time>2026-04-06T13:10:46.01Z</time></trkpt><trkpt lat="43.8251909" lon="12.1717305"><ele>730.0</ele><time>2026-04-06T13:10:47.009Z</time></trkpt><trkpt lat="43.8252575" lon="12.1718412"><ele>730.0</ele><time>2026-04-06T13:10:48.01Z</time></trkpt><trkpt lat="43.8253242" lon="12.1719513"><ele>730.0</ele><time>2026-04-06T13:10:49.008Z</time></trkpt><trkpt lat="43.8253737" lon="12.1720684"><ele>730.0</ele><time>2026-04-06T13:10:50.012Z</time></trkpt><trkpt lat="43.8254032" lon="12.1721979"><ele>730.0</ele><time>2026-04-06T13:10:51.007Z</time></trkpt><trkpt lat="43.8254146" lon="12.1723186"><ele>730.0</ele><time>2026-04-06T13:10:52.008Z</time></trkpt><trkpt lat="43.8254102" lon="12.1724222"><ele>731.0</ele><time>2026-04-06T13:10:53.008Z</time></trkpt><trkpt lat="43.8253872" lon="12.1725194"><ele>732.0</ele><time>2026-04-06T13:10:54.009Z</time></trkpt><trkpt lat="43.8253396" lon="12.1726166"><ele>733.0</ele><time>2026-04-06T13:10:55.009Z</time></trkpt><trkpt lat="43.8252878" lon="12.1727207"><ele>734.0</ele><time>2026-04-06T13:10:56.009Z</time></trkpt><trkpt lat="43.8252416" lon="12.1728355"><ele>735.0</ele><time>2026-04-06T13:10:57.008Z</time></trkpt><trkpt lat="43.825232" lon="12.1729795"><ele>736.0</ele><time>2026-04-06T13:10:58.009Z</time></trkpt><trkpt lat="43.8252347" lon="12.1731414"><ele>740.0</ele><time>2026-04-06T13:10:59.008Z</time></trkpt><trkpt lat="43.8252551" lon="12.1733179"><ele>744.0</ele><time>2026-04-06T13:11:00.009Z</time></trkpt><trkpt lat="43.8252838" lon="12.1734941"><ele>748.0</ele><time>2026-04-06T13:11:01.009Z</time></trkpt><trkpt lat="43.8253195" lon="12.1736527"><ele>752.0</ele><time>2026-04-06T13:11:02.008Z</time></trkpt><trkpt lat="43.8253418" lon="12.1737802"><ele>752.0</ele><time>2026-04-06T13:11:03.009Z</time></trkpt><trkpt lat="43.8253543" lon="12.1738818"><ele>752.0</ele><time>2026-04-06T13:11:04.009Z</time></trkpt><trkpt lat="43.8253294" lon="12.1740193"><ele>752.0</ele><time>2026-04-06T13:11:06.009Z</time></trkpt><trkpt lat="43.8252146" lon="12.1740921"><ele>752.0</ele><time>2026-04-06T13:11:08.008Z</time></trkpt><trkpt lat="43.8251221" lon="12.1740664"><ele>752.0</ele><time>2026-04-06T13:11:09.01Z</time></trkpt><trkpt lat="43.825025" lon="12.1740252"><ele>755.8</ele><time>2026-04-06T13:11:10.008Z</time></trkpt><trkpt lat="43.8249336" lon="12.1739678"><ele>759.6</ele><time>2026-04-06T13:11:11.008Z</time></trkpt><trkpt lat="43.824851" lon="12.1739005"><ele>763.4</ele><time>2026-04-06T13:11:12.008Z</time></trkpt><trkpt lat="43.8247732" lon="12.1738268"><ele>767.1999999999999</ele><time>2026-04-06T13:11:13.007Z</time></trkpt><trkpt lat="43.8246948" lon="12.1737526"><ele>771.0</ele><time>2026-04-06T13:11:14.009Z</time></trkpt><trkpt lat="43.8246159" lon="12.1736811"><ele>771.0</ele><time>2026-04-06T13:11:15.008Z</time></trkpt><trkpt lat="43.8245378" lon="12.1736143"><ele>771.0</ele><time>2026-04-06T13:11:16.01Z</time></trkpt><trkpt lat="43.8244668" lon="12.1735489"><ele>771.0</ele><time>2026-04-06T13:11:17.009Z</time></trkpt><trkpt lat="43.8244005" lon="12.1734914"><ele>771.0</ele><time>2026-04-06T13:11:18.009Z</time></trkpt><trkpt lat="43.8243414" lon="12.1734327"><ele>771.0</ele><time>2026-04-06T13:11:19.009Z</time></trkpt><trkpt lat="43.824288" lon="12.173373"><ele>771.0</ele><time>2026-04-06T13:11:20.007Z</time></trkpt><trkpt lat="43.8242353" lon="12.1733227"><ele>767.25</ele><time>2026-04-06T13:11:21.008Z</time></trkpt><trkpt lat="43.8241249" lon="12.1732665"><ele>763.5</ele><time>2026-04-06T13:11:23.012Z</time></trkpt><trkpt lat="43.8240094" lon="12.1732306"><ele>759.75</ele><time>2026-04-06T13:11:25.009Z</time></trkpt><trkpt lat="43.8238979" lon="12.1731819"><ele>756.0</ele><time>2026-04-06T13:11:27.009Z</time></trkpt><trkpt lat="43.8238161" lon="12.1730895"><ele>758.0</ele><time>2026-04-06T13:11:29.008Z</time></trkpt><trkpt lat="43.8237433" lon="12.1729718"><ele>760.0</ele><time>2026-04-06T13:11:31.008Z</time></trkpt><trkpt lat="43.8236652" lon="12.1728728"><ele>762.0</ele><time>2026-04-06T13:11:33.009Z</time></trkpt><trkpt lat="43.8235794" lon="12.1728071"><ele>764.0</ele><time>2026-04-06T13:11:35.009Z</time></trkpt><trkpt lat="43.8234774" lon="12.1727653"><ele>766.0</ele><time>2026-04-06T13:11:37.01Z</time></trkpt><trkpt lat="43.8233516" lon="12.1727554"><ele>766.0</ele><time>2026-04-06T13:11:39.01Z</time></trkpt><trkpt lat="43.8232359" lon="12.1727725"><ele>766.0</ele><time>2026-04-06T13:11:41.009Z</time></trkpt><trkpt lat="43.8231263" lon="12.1728025"><ele>766.0</ele><time>2026-04-06T13:11:43.006Z</time></trkpt><trkpt lat="43.8229993" lon="12.1727759"><ele>766.0</ele><time>2026-04-06T13:11:45.008Z</time></trkpt><trkpt lat="43.8229407" lon="12.1727265"><ele>766.0</ele><time>2026-04-06T13:11:46.008Z</time></trkpt><trkpt lat="43.8228869" lon="12.1726663"><ele>766.0</ele><time>2026-04-06T13:11:47.006Z</time></trkpt><trkpt lat="43.8228287" lon="12.1726121"><ele>766.0</ele><time>2026-04-06T13:11:48.008Z</time></trkpt><trkpt lat="43.8227672" lon="12.1725754"><ele>766.0</ele><time>2026-04-06T13:11:49.008Z</time></trkpt><trkpt lat="43.8227031" lon="12.1725588"><ele>766.0</ele><time>2026-04-06T13:11:50.008Z</time></trkpt><trkpt lat="43.8226337" lon="12.1725525"><ele>766.0</ele><time>2026-04-06T13:11:51.011Z</time></trkpt><trkpt lat="43.8225603" lon="12.1725523"><ele>766.0</ele><time>2026-04-06T13:11:52.007Z</time></trkpt><trkpt lat="43.8224854" lon="12.1725739"><ele>766.0</ele><time>2026-04-06T13:11:53.007Z</time></trkpt><trkpt lat="43.822409" lon="12.172623"><ele>764.3333333333334</ele><time>2026-04-06T13:11:54.007Z</time></trkpt><trkpt lat="43.8223359" lon="12.1726867"><ele>762.6666666666667</ele><time>2026-04-06T13:11:55.007Z</time></trkpt><trkpt lat="43.8222672" lon="12.1727478"><ele>761.0</ele><time>2026-04-06T13:11:56.007Z</time></trkpt><trkpt lat="43.8222062" lon="12.1728024"><ele>759.3333333333334</ele><time>2026-04-06T13:11:57.008Z</time></trkpt><trkpt lat="43.8221457" lon="12.1728475"><ele>757.6666666666666</ele><time>2026-04-06T13:11:58.01Z</time></trkpt><trkpt lat="43.8220801" lon="12.1728845"><ele>756.0</ele><time>2026-04-06T13:11:59.008Z</time></trkpt><trkpt lat="43.8220033" lon="12.1729075"><ele>756.0</ele><time>2026-04-06T13:12:00.007Z</time></trkpt><trkpt lat="43.8219127" lon="12.1729285"><ele>756.0</ele><time>2026-04-06T13:12:01.013Z</time></trkpt><trkpt lat="43.8218194" lon="12.1729558"><ele>756.0</ele><time>2026-04-06T13:12:02.009Z</time></trkpt><trkpt lat="43.8217293" lon="12.1729947"><ele>756.0</ele><time>2026-04-06T13:12:03.008Z</time></trkpt><trkpt lat="43.8216501" lon="12.1730524"><ele>756.0</ele><time>2026-04-06T13:12:04.007Z</time></trkpt><trkpt lat="43.8215822" lon="12.1731258"><ele>752.0</ele><time>2026-04-06T13:12:05.009Z</time></trkpt><trkpt lat="43.8215279" lon="12.173216"><ele>748.0</ele><time>2026-04-06T13:12:06.012Z</time></trkpt><trkpt lat="43.8214855" lon="12.1733188"><ele>744.0</ele><time>2026-04-06T13:12:07.012Z</time></trkpt><trkpt lat="43.8214447" lon="12.1734145"><ele>740.0</ele><time>2026-04-06T13:12:08.008Z</time></trkpt><trkpt lat="43.8213943" lon="12.1735002"><ele>736.0</ele><time>2026-04-06T13:12:09.007Z</time></trkpt><trkpt lat="43.8213268" lon="12.1735736"><ele>732.0</ele><time>2026-04-06T13:12:10.008Z</time></trkpt><trkpt lat="43.8212457" lon="12.1736498"><ele>732.0</ele><time>2026-04-06T13:12:11.011Z</time></trkpt><trkpt lat="43.8211581" lon="12.173746"><ele>732.0</ele><time>2026-04-06T13:12:12.011Z</time></trkpt><trkpt lat="43.8210731" lon="12.1738537"><ele>732.0</ele><time>2026-04-06T13:12:13.008Z</time></trkpt><trkpt lat="43.8209934" lon="12.1739618"><ele>732.0</ele><time>2026-04-06T13:12:14.008Z</time></trkpt><trkpt lat="43.8209171" lon="12.1740664"><ele>732.0</ele><time>2026-04-06T13:12:15.007Z</time></trkpt><trkpt lat="43.8208437" lon="12.1741657"><ele>733.2</ele><time>2026-04-06T13:12:16.008Z</time></trkpt><trkpt lat="43.8207755" lon="12.1742664"><ele>734.4000000000001</ele><time>2026-04-06T13:12:17.008Z</time></trkpt><trkpt lat="43.8207187" lon="12.1743844"><ele>735.5999999999999</ele><time>2026-04-06T13:12:18.007Z</time></trkpt><trkpt lat="43.8206773" lon="12.174522"><ele>736.8</ele><time>2026-04-06T13:12:19.01Z</time></trkpt><trkpt lat="43.8206395" lon="12.1746597"><ele>738.0</ele><time>2026-04-06T13:12:20.008Z</time></trkpt><trkpt lat="43.8205938" lon="12.1747879"><ele>732.2</ele><time>2026-04-06T13:12:21.01Z</time></trkpt><trkpt lat="43.8205321" lon="12.174898"><ele>726.4</ele><time>2026-04-06T13:12:22.009Z</time></trkpt><trkpt lat="43.8204595" lon="12.1749925"><ele>720.6</ele><time>2026-04-06T13:12:23.007Z</time></trkpt><trkpt lat="43.8203796" lon="12.17506"><ele>714.8000000000001</ele><time>2026-04-06T13:12:24.008Z</time></trkpt><trkpt lat="43.8202967" lon="12.1751138"><ele>709.0</ele><time>2026-04-06T13:12:25.008Z</time></trkpt><trkpt lat="43.8202135" lon="12.1751564"><ele>712.75</ele><time>2026-04-06T13:12:26.011Z</time></trkpt><trkpt lat="43.8201212" lon="12.1751824"><ele>716.5</ele><time>2026-04-06T13:12:27.008Z</time></trkpt><trkpt lat="43.8200081" lon="12.1751969"><ele>720.25</ele><time>2026-04-06T13:12:28.007Z</time></trkpt><trkpt lat="43.8198601" lon="12.1751997"><ele>724.0</ele><time>2026-04-06T13:12:29.008Z</time></trkpt><trkpt lat="43.8197058" lon="12.175197"><ele>724.0</ele><time>2026-04-06T13:12:30.009Z</time></trkpt><trkpt lat="43.8195595" lon="12.1751884"><ele>724.0</ele><time>2026-04-06T13:12:31.009Z</time></trkpt><trkpt lat="43.819423" lon="12.1751792"><ele>724.0</ele><time>2026-04-06T13:12:32.008Z</time></trkpt><trkpt lat="43.8192975" lon="12.1751643"><ele>724.0</ele><time>2026-04-06T13:12:33.008Z</time></trkpt><trkpt lat="43.8191917" lon="12.1751183"><ele>723.0</ele><time>2026-04-06T13:12:34.008Z</time></trkpt><trkpt lat="43.819105" lon="12.1750517"><ele>722.0</ele><time>2026-04-06T13:12:35.01Z</time></trkpt><trkpt lat="43.8190267" lon="12.174985"><ele>721.0</ele><time>2026-04-06T13:12:36.007Z</time></trkpt><trkpt lat="43.8189433" lon="12.17494"><ele>720.0</ele><time>2026-04-06T13:12:37.009Z</time></trkpt><trkpt lat="43.8188567" lon="12.17494"><ele>719.0</ele><time>2026-04-06T13:12:38.01Z</time></trkpt><trkpt lat="43.8187783" lon="12.1749883"><ele>719.0</ele><time>2026-04-06T13:12:39.008Z</time></trkpt><trkpt lat="43.8186983" lon="12.17508"><ele>719.0</ele><time>2026-04-06T13:12:40.009Z</time></trkpt><trkpt lat="43.81862" lon="12.1751717"><ele>719.0</ele><time>2026-04-06T13:12:41.008Z</time></trkpt><trkpt lat="43.8185483" lon="12.17524"><ele>719.0</ele><time>2026-04-06T13:12:42.008Z</time></trkpt><trkpt lat="43.8184767" lon="12.1752883"><ele>719.0</ele><time>2026-04-06T13:12:43.01Z</time></trkpt><trkpt lat="43.818405" lon="12.1753033"><ele>719.0</ele><time>2026-04-06T13:12:44.009Z</time></trkpt><trkpt lat="43.8183167" lon="12.1753017"><ele>720.8000000000001</ele><time>2026-04-06T13:12:45.009Z</time></trkpt><trkpt lat="43.8182333" lon="12.1753167"><ele>722.6</ele><time>2026-04-06T13:12:46.008Z</time></trkpt><trkpt lat="43.81815" lon="12.1753367"><ele>724.4</ele><time>2026-04-06T13:12:47.007Z</time></trkpt><trkpt lat="43.818075" lon="12.1753883"><ele>726.2</ele><time>2026-04-06T13:12:48.01Z</time></trkpt><trkpt lat="43.81801" lon="12.1755483"><ele>728.0</ele><time>2026-04-06T13:12:49.008Z</time></trkpt><trkpt lat="43.81796" lon="12.175705"><ele>719.25</ele><time>2026-04-06T13:12:50.009Z</time></trkpt><trkpt lat="43.81792" lon="12.17587"><ele>710.5</ele><time>2026-04-06T13:12:51.006Z</time></trkpt><trkpt lat="43.8178817" lon="12.1760283"><ele>701.75</ele><time>2026-04-06T13:12:52.007Z</time></trkpt><trkpt lat="43.8178533" lon="12.176175"><ele>693.0</ele><time>2026-04-06T13:12:53.008Z</time></trkpt><trkpt lat="43.8178283" lon="12.1763267"><ele>693.0</ele><time>2026-04-06T13:12:54.007Z</time></trkpt><trkpt lat="43.8178117" lon="12.1764633"><ele>693.0</ele><time>2026-04-06T13:12:55.007Z</time></trkpt><trkpt lat="43.8177867" lon="12.176585"><ele>693.0</ele><time>2026-04-06T13:12:56.013Z</time></trkpt><trkpt lat="43.8177583" lon="12.1766917"><ele>693.0</ele><time>2026-04-06T13:12:57.008Z</time></trkpt><trkpt lat="43.8177167" lon="12.176775"><ele>693.0</ele><time>2026-04-06T13:12:58.006Z</time></trkpt><trkpt lat="43.8176317" lon="12.1768"><ele>693.0</ele><time>2026-04-06T13:12:59.006Z</time></trkpt><trkpt lat="43.817545" lon="12.1768133"><ele>693.8</ele><time>2026-04-06T13:13:00.008Z</time></trkpt><trkpt lat="43.8174583" lon="12.1768133"><ele>694.5999999999999</ele><time>2026-04-06T13:13:01.007Z</time></trkpt><trkpt lat="43.817365" lon="12.1768"><ele>695.4000000000001</ele><time>2026-04-06T13:13:02.007Z</time></trkpt><trkpt lat="43.8172483" lon="12.17677"><ele>696.2</ele><time>2026-04-06T13:13:03.01Z</time></trkpt><trkpt lat="43.8171367" lon="12.1767317"><ele>697.0</ele><time>2026-04-06T13:13:04.008Z</time></trkpt><trkpt lat="43.8170233" lon="12.17669"><ele>697.0</ele><time>2026-04-06T13:13:05.01Z</time></trkpt><trkpt lat="43.8169233" lon="12.1766367"><ele>697.0</ele><time>2026-04-06T13:13:06.007Z</time></trkpt><trkpt lat="43.8168333" lon="12.1765633"><ele>697.0</ele><time>2026-04-06T13:13:07.008Z</time></trkpt><trkpt lat="43.8167533" lon="12.1764767"><ele>697.0</ele><time>2026-04-06T13:13:08.008Z</time></trkpt><trkpt lat="43.81668" lon="12.176395"><ele>697.0</ele><time>2026-04-06T13:13:09.009Z</time></trkpt><trkpt lat="43.81661" lon="12.1763167"><ele>702.8</ele><time>2026-04-06T13:13:10.008Z</time></trkpt><trkpt lat="43.8165317" lon="12.1762533"><ele>708.6</ele><time>2026-04-06T13:13:11.009Z</time></trkpt><trkpt lat="43.81644" lon="12.1762117"><ele>714.4</ele><time>2026-04-06T13:13:12.008Z</time></trkpt><trkpt lat="43.8163467" lon="12.1761717"><ele>720.1999999999999</ele><time>2026-04-06T13:13:13.008Z</time></trkpt><trkpt lat="43.8162617" lon="12.1761317"><ele>726.0</ele><time>2026-04-06T13:13:14.011Z</time></trkpt><trkpt lat="43.8161817" lon="12.1761017"><ele>726.0</ele><time>2026-04-06T13:13:15.009Z</time></trkpt><trkpt lat="43.816105" lon="12.1760883"><ele>726.0</ele><time>2026-04-06T13:13:16.01Z</time></trkpt><trkpt lat="43.816035" lon="12.1760883"><ele>726.0</ele><time>2026-04-06T13:13:17.009Z</time></trkpt><trkpt lat="43.8159617" lon="12.1761267"><ele>726.0</ele><time>2026-04-06T13:13:18.01Z</time></trkpt><trkpt lat="43.815915" lon="12.1761933"><ele>726.0</ele><time>2026-04-06T13:13:19.008Z</time></trkpt><trkpt lat="43.8159783" lon="12.1763583"><ele>726.0</ele><time>2026-04-06T13:13:20.008Z</time></trkpt><trkpt lat="43.8159817" lon="12.1764833"><ele>721.0</ele><time>2026-04-06T13:13:21.006Z</time></trkpt><trkpt lat="43.8159767" lon="12.1765933"><ele>716.0</ele><time>2026-04-06T13:13:22.006Z</time></trkpt><trkpt lat="43.8159517" lon="12.1766933"><ele>711.0</ele><time>2026-04-06T13:13:23.007Z</time></trkpt><trkpt lat="43.81591" lon="12.176795"><ele>706.0</ele><time>2026-04-06T13:13:24.008Z</time></trkpt><trkpt lat="43.8158483" lon="12.1768783"><ele>701.0</ele><time>2026-04-06T13:13:25.008Z</time></trkpt><trkpt lat="43.8157467" lon="12.1769483"><ele>696.0</ele><time>2026-04-06T13:13:26.009Z</time></trkpt><trkpt lat="43.8156517" lon="12.1769883"><ele>696.0</ele><time>2026-04-06T13:13:27.008Z</time></trkpt><trkpt lat="43.8155717" lon="12.1770217"><ele>696.0</ele><time>2026-04-06T13:13:28.006Z</time></trkpt><trkpt lat="43.8154917" lon="12.17706"><ele>696.0</ele><time>2026-04-06T13:13:29.008Z</time></trkpt><trkpt lat="43.8154183" lon="12.177125"><ele>696.0</ele><time>2026-04-06T13:13:30.006Z</time></trkpt><trkpt lat="43.8153583" lon="12.1772067"><ele>696.0</ele><time>2026-04-06T13:13:31.008Z</time></trkpt><trkpt lat="43.8153233" lon="12.1773267"><ele>696.0</ele><time>2026-04-06T13:13:32.006Z</time></trkpt><trkpt lat="43.81534" lon="12.1774983"><ele>692.25</ele><time>2026-04-06T13:13:33.006Z</time></trkpt><trkpt lat="43.815365" lon="12.1776817"><ele>688.5</ele><time>2026-04-06T13:13:34.008Z</time></trkpt><trkpt lat="43.81539" lon="12.1778683"><ele>684.75</ele><time>2026-04-06T13:13:35.007Z</time></trkpt><trkpt lat="43.8154133" lon="12.1780467"><ele>681.0</ele><time>2026-04-06T13:13:36.011Z</time></trkpt><trkpt lat="43.8154233" lon="12.178205"><ele>680.4</ele><time>2026-04-06T13:13:37.006Z</time></trkpt><trkpt lat="43.81543" lon="12.1783533"><ele>679.8</ele><time>2026-04-06T13:13:38.008Z</time></trkpt><trkpt lat="43.8154317" lon="12.1784917"><ele>679.1999999999999</ele><time>2026-04-06T13:13:39.007Z</time></trkpt><trkpt lat="43.81545" lon="12.1786133"><ele>678.5999999999999</ele><time>2026-04-06T13:13:40.007Z</time></trkpt><trkpt lat="43.8154967" lon="12.1787183"><ele>678.0</ele><time>2026-04-06T13:13:41.007Z</time></trkpt><trkpt lat="43.8155633" lon="12.17882"><ele>678.0</ele><time>2026-04-06T13:13:42.01Z</time></trkpt><trkpt lat="43.8156217" lon="12.1789333"><ele>678.0</ele><time>2026-04-06T13:13:43.006Z</time></trkpt><trkpt lat="43.8156583" lon="12.1790583"><ele>678.0</ele><time>2026-04-06T13:13:44.007Z</time></trkpt><trkpt lat="43.8156883" lon="12.1791817"><ele>678.0</ele><time>2026-04-06T13:13:45.008Z</time></trkpt><trkpt lat="43.8156883" lon="12.1792967"><ele>678.0</ele><time>2026-04-06T13:13:46.007Z</time></trkpt><trkpt lat="43.8156767" lon="12.1794067"><ele>679.5999999999999</ele><time>2026-04-06T13:13:47.006Z</time></trkpt><trkpt lat="43.8156467" lon="12.1795067"><ele>681.1999999999999</ele><time>2026-04-06T13:13:48.007Z</time></trkpt><trkpt lat="43.815585" lon="12.1795833"><ele>682.8</ele><time>2026-04-06T13:13:49.011Z</time></trkpt><trkpt lat="43.8155167" lon="12.1796617"><ele>684.4</ele><time>2026-04-06T13:13:50.007Z</time></trkpt><trkpt lat="43.8154233" lon="12.179735"><ele>686.0</ele><time>2026-04-06T13:13:51.008Z</time></trkpt><trkpt lat="43.81528" lon="12.1798283"><ele>689.25</ele><time>2026-04-06T13:13:52.006Z</time></trkpt><trkpt lat="43.81517" lon="12.1799517"><ele>692.5</ele><time>2026-04-06T13:13:53.008Z</time></trkpt><trkpt lat="43.81508" lon="12.1801067"><ele>695.75</ele><time>2026-04-06T13:13:54.006Z</time></trkpt><trkpt lat="43.8149767" lon="12.1802683"><ele>699.0</ele><time>2026-04-06T13:13:55.011Z</time></trkpt><trkpt lat="43.8148767" lon="12.18043"><ele>699.0</ele><time>2026-04-06T13:13:56.007Z</time></trkpt><trkpt lat="43.8147867" lon="12.1805867"><ele>699.0</ele><time>2026-04-06T13:13:57.007Z</time></trkpt><trkpt lat="43.814715" lon="12.1807533"><ele>699.0</ele><time>2026-04-06T13:13:58.007Z</time></trkpt><trkpt lat="43.814665" lon="12.1809467"><ele>699.0</ele><time>2026-04-06T13:13:59.007Z</time></trkpt><trkpt lat="43.8146167" lon="12.1811383"><ele>694.25</ele><time>2026-04-06T13:14:00.007Z</time></trkpt><trkpt lat="43.8145683" lon="12.1813167"><ele>689.5</ele><time>2026-04-06T13:14:01.006Z</time></trkpt><trkpt lat="43.8145117" lon="12.1814867"><ele>684.75</ele><time>2026-04-06T13:14:02.007Z</time></trkpt><trkpt lat="43.8144667" lon="12.181655"><ele>680.0</ele><time>2026-04-06T13:14:03.01Z</time></trkpt><trkpt lat="43.8144417" lon="12.1818383"><ele>676.75</ele><time>2026-04-06T13:14:04.006Z</time></trkpt><trkpt lat="43.8144233" lon="12.18203"><ele>673.5</ele><time>2026-04-06T13:14:05.012Z</time></trkpt><trkpt lat="43.81442" lon="12.1822167"><ele>670.25</ele><time>2026-04-06T13:14:06.007Z</time></trkpt><trkpt lat="43.81443" lon="12.1823917"><ele>667.0</ele><time>2026-04-06T13:14:07.009Z</time></trkpt><trkpt lat="43.8144483" lon="12.1825517"><ele>666.6666666666667</ele><time>2026-04-06T13:14:08.008Z</time></trkpt><trkpt lat="43.8144683" lon="12.182695"><ele>666.3333333333334</ele><time>2026-04-06T13:14:09.008Z</time></trkpt><trkpt lat="43.81448" lon="12.1828217"><ele>666.0</ele><time>2026-04-06T13:14:10.008Z</time></trkpt><trkpt lat="43.81448" lon="12.182935"><ele>665.6666666666666</ele><time>2026-04-06T13:14:11.009Z</time></trkpt><trkpt lat="43.8144683" lon="12.1830417"><ele>665.3333333333333</ele><time>2026-04-06T13:14:12.007Z</time></trkpt><trkpt lat="43.8144633" lon="12.183145"><ele>665.0</ele><time>2026-04-06T13:14:13.006Z</time></trkpt><trkpt lat="43.8144667" lon="12.1832417"><ele>665.0</ele><time>2026-04-06T13:14:14.008Z</time></trkpt><trkpt lat="43.8144792" lon="12.1833997"><ele>665.0</ele><time>2026-04-06T13:14:16.01Z</time></trkpt><trkpt lat="43.8144633" lon="12.18327"><ele>665.0</ele><time>2026-04-06T13:15:25.01Z</time></trkpt><trkpt lat="43.8144533" lon="12.1831217"><ele>665.0</ele><time>2026-04-06T13:15:27.009Z</time></trkpt><trkpt lat="43.81446" lon="12.1829533"><ele>665.0</ele><time>2026-04-06T13:15:29.01Z</time></trkpt><trkpt lat="43.814465" lon="12.182865"><ele>665.0</ele><time>2026-04-06T13:15:30.009Z</time></trkpt><trkpt lat="43.8144718" lon="12.1827743"><ele>665.0</ele><time>2026-04-06T13:15:31.008Z</time></trkpt><trkpt lat="43.8144666" lon="12.1826781"><ele>665.0</ele><time>2026-04-06T13:15:32.008Z</time></trkpt><trkpt lat="43.8144519" lon="12.1825636"><ele>665.0</ele><time>2026-04-06T13:15:33.009Z</time></trkpt><trkpt lat="43.814425" lon="12.1824263"><ele>665.0</ele><time>2026-04-06T13:15:34.008Z</time></trkpt><trkpt lat="43.8144204" lon="12.1822612"><ele>665.0</ele><time>2026-04-06T13:15:35.008Z</time></trkpt><trkpt lat="43.8144111" lon="12.1820889"><ele>665.5</ele><time>2026-04-06T13:15:36.012Z</time></trkpt><trkpt lat="43.8144227" lon="12.1819139"><ele>666.0</ele><time>2026-04-06T13:15:37.011Z</time></trkpt><trkpt lat="43.8144394" lon="12.1817448"><ele>666.5</ele><time>2026-04-06T13:15:38.007Z</time></trkpt><trkpt lat="43.8144603" lon="12.181589"><ele>667.0</ele><time>2026-04-06T13:15:39.01Z</time></trkpt><trkpt lat="43.8144804" lon="12.1814505"><ele>670.25</ele><time>2026-04-06T13:15:40.009Z</time></trkpt><trkpt lat="43.8145185" lon="12.1813171"><ele>673.5</ele><time>2026-04-06T13:15:41.009Z</time></trkpt><trkpt lat="43.8145631" lon="12.18117"><ele>676.75</ele><time>2026-04-06T13:15:42.01Z</time></trkpt><trkpt lat="43.8146083" lon="12.1810109"><ele>680.0</ele><time>2026-04-06T13:15:43.008Z</time></trkpt><trkpt lat="43.8146519" lon="12.1808568"><ele>680.0</ele><time>2026-04-06T13:15:44.008Z</time></trkpt><trkpt lat="43.814702" lon="12.1807089"><ele>680.0</ele><time>2026-04-06T13:15:45.008Z</time></trkpt><trkpt lat="43.8147669" lon="12.1805644"><ele>680.0</ele><time>2026-04-06T13:15:46.009Z</time></trkpt><trkpt lat="43.8148559" lon="12.1804175"><ele>680.0</ele><time>2026-04-06T13:15:47.009Z</time></trkpt><trkpt lat="43.8149511" lon="12.1802724"><ele>681.5</ele><time>2026-04-06T13:15:48.009Z</time></trkpt><trkpt lat="43.8150379" lon="12.18013"><ele>683.0</ele><time>2026-04-06T13:15:49.007Z</time></trkpt><trkpt lat="43.8151217" lon="12.1799908"><ele>684.5</ele><time>2026-04-06T13:15:50.01Z</time></trkpt><trkpt lat="43.8152054" lon="12.1798586"><ele>686.0</ele><time>2026-04-06T13:15:51.007Z</time></trkpt><trkpt lat="43.8153017" lon="12.1797534"><ele>686.0</ele><time>2026-04-06T13:15:52.006Z</time></trkpt><trkpt lat="43.8154114" lon="12.179674"><ele>686.0</ele><time>2026-04-06T13:15:53.009Z</time></trkpt><trkpt lat="43.8155231" lon="12.1796105"><ele>686.0</ele><time>2026-04-06T13:15:54.007Z</time></trkpt><trkpt lat="43.8156228" lon="12.1795416"><ele>686.0</ele><time>2026-04-06T13:15:55.009Z</time></trkpt><trkpt lat="43.8156939" lon="12.1794635"><ele>686.0</ele><time>2026-04-06T13:15:56.009Z</time></trkpt><trkpt lat="43.8157417" lon="12.1793744"><ele>686.0</ele><time>2026-04-06T13:15:57.011Z</time></trkpt><trkpt lat="43.8157716" lon="12.1792706"><ele>686.0</ele><time>2026-04-06T13:15:58.009Z</time></trkpt><trkpt lat="43.8157896" lon="12.1791602"><ele>686.0</ele><time>2026-04-06T13:15:59.008Z</time></trkpt><trkpt lat="43.8157926" lon="12.179052"><ele>686.0</ele><time>2026-04-06T13:16:00.009Z</time></trkpt><trkpt lat="43.8157725" lon="12.1789411"><ele>686.0</ele><time>2026-04-06T13:16:01.011Z</time></trkpt><trkpt lat="43.81573" lon="12.1788319"><ele>686.0</ele><time>2026-04-06T13:16:02.007Z</time></trkpt><trkpt lat="43.8156723" lon="12.1787378"><ele>685.1666666666666</ele><time>2026-04-06T13:16:03.01Z</time></trkpt><trkpt lat="43.8156236" lon="12.1786438"><ele>684.3333333333333</ele><time>2026-04-06T13:16:04.009Z</time></trkpt><trkpt lat="43.8155842" lon="12.1785476"><ele>683.5</ele><time>2026-04-06T13:16:05.008Z</time></trkpt><trkpt lat="43.815555" lon="12.1784498"><ele>682.6666666666666</ele><time>2026-04-06T13:16:06.006Z</time></trkpt><trkpt lat="43.8155293" lon="12.1783501"><ele>681.8333333333334</ele><time>2026-04-06T13:16:07.008Z</time></trkpt><trkpt lat="43.8155093" lon="12.1782185"><ele>681.0</ele><time>2026-04-06T13:16:08.009Z</time></trkpt><trkpt lat="43.8154979" lon="12.1780357"><ele>681.0</ele><time>2026-04-06T13:16:09.007Z</time></trkpt><trkpt lat="43.8154811" lon="12.1778581"><ele>681.0</ele><time>2026-04-06T13:16:10.007Z</time></trkpt><trkpt lat="43.8154631" lon="12.177693"><ele>681.0</ele><time>2026-04-06T13:16:11.009Z</time></trkpt><trkpt lat="43.8154454" lon="12.1775308"><ele>681.0</ele><time>2026-04-06T13:16:12.007Z</time></trkpt><trkpt lat="43.8154357" lon="12.1773805"><ele>683.5</ele><time>2026-04-06T13:16:13.01Z</time></trkpt><trkpt lat="43.8154443" lon="12.177247"><ele>686.0</ele><time>2026-04-06T13:16:14.008Z</time></trkpt><trkpt lat="43.8154674" lon="12.177129"><ele>688.5</ele><time>2026-04-06T13:16:15.007Z</time></trkpt><trkpt lat="43.8155152" lon="12.1770464"><ele>691.0</ele><time>2026-04-06T13:16:16.009Z</time></trkpt><trkpt lat="43.8155773" lon="12.1769898"><ele>693.5</ele><time>2026-04-06T13:16:17.008Z</time></trkpt><trkpt lat="43.8156484" lon="12.1769425"><ele>696.0</ele><time>2026-04-06T13:16:18.008Z</time></trkpt><trkpt lat="43.8157369" lon="12.1768896"><ele>696.0</ele><time>2026-04-06T13:16:19.01Z</time></trkpt><trkpt lat="43.8158299" lon="12.1768225"><ele>696.0</ele><time>2026-04-06T13:16:20.008Z</time></trkpt><trkpt lat="43.8159102" lon="12.1767511"><ele>696.0</ele><time>2026-04-06T13:16:21.009Z</time></trkpt><trkpt lat="43.8159733" lon="12.1766751"><ele>696.0</ele><time>2026-04-06T13:16:22.01Z</time></trkpt><trkpt lat="43.816011" lon="12.1765956"><ele>696.0</ele><time>2026-04-06T13:16:23.008Z</time></trkpt><trkpt lat="43.8160307" lon="12.1765073"><ele>696.0</ele><time>2026-04-06T13:16:24.012Z</time></trkpt><trkpt lat="43.8160289" lon="12.1763999"><ele>702.0</ele><time>2026-04-06T13:16:25.007Z</time></trkpt><trkpt lat="43.8160301" lon="12.1762936"><ele>708.0</ele><time>2026-04-06T13:16:26.008Z</time></trkpt><trkpt lat="43.816032" lon="12.1761904"><ele>714.0</ele><time>2026-04-06T13:16:27.009Z</time></trkpt><trkpt lat="43.8160641" lon="12.1760323"><ele>720.0</ele><time>2026-04-06T13:16:29.01Z</time></trkpt><trkpt lat="43.8161702" lon="12.1760144"><ele>726.0</ele><time>2026-04-06T13:16:31.008Z</time></trkpt><trkpt lat="43.8162612" lon="12.1760789"><ele>726.0</ele><time>2026-04-06T13:16:32.008Z</time></trkpt><trkpt lat="43.8163624" lon="12.1761439"><ele>726.0</ele><time>2026-04-06T13:16:33.009Z</time></trkpt><trkpt lat="43.8164627" lon="12.1762059"><ele>726.0</ele><time>2026-04-06T13:16:34.007Z</time></trkpt><trkpt lat="43.8165481" lon="12.1762752"><ele>726.0</ele><time>2026-04-06T13:16:35.008Z</time></trkpt><trkpt lat="43.8166229" lon="12.1763636"><ele>726.0</ele><time>2026-04-06T13:16:36.01Z</time></trkpt><trkpt lat="43.8166978" lon="12.1764499"><ele>718.75</ele><time>2026-04-06T13:16:37.008Z</time></trkpt><trkpt lat="43.8167868" lon="12.1765506"><ele>711.5</ele><time>2026-04-06T13:16:38.01Z</time></trkpt><trkpt lat="43.8168827" lon="12.1766283"><ele>704.25</ele><time>2026-04-06T13:16:39.009Z</time></trkpt><trkpt lat="43.8169874" lon="12.1766961"><ele>697.0</ele><time>2026-04-06T13:16:40.008Z</time></trkpt><trkpt lat="43.8170937" lon="12.1767355"><ele>697.0</ele><time>2026-04-06T13:16:41.009Z</time></trkpt><trkpt lat="43.8172041" lon="12.1767577"><ele>697.0</ele><time>2026-04-06T13:16:42.009Z</time></trkpt><trkpt lat="43.817317" lon="12.1767776"><ele>697.0</ele><time>2026-04-06T13:16:43.008Z</time></trkpt><trkpt lat="43.8174197" lon="12.1768126"><ele>697.0</ele><time>2026-04-06T13:16:44.005Z</time></trkpt><trkpt lat="43.8175104" lon="12.1768441"><ele>697.0</ele><time>2026-04-06T13:16:45.01Z</time></trkpt><trkpt lat="43.8175945" lon="12.176853"><ele>696.3333333333334</ele><time>2026-04-06T13:16:46.008Z</time></trkpt><trkpt lat="43.8176723" lon="12.1768313"><ele>695.6666666666667</ele><time>2026-04-06T13:16:47.008Z</time></trkpt><trkpt lat="43.8177355" lon="12.1767783"><ele>695.0</ele><time>2026-04-06T13:16:48.009Z</time></trkpt><trkpt lat="43.8177878" lon="12.1766851"><ele>694.3333333333334</ele><time>2026-04-06T13:16:49.01Z</time></trkpt><trkpt lat="43.8178235" lon="12.1765626"><ele>693.6666666666666</ele><time>2026-04-06T13:16:50.011Z</time></trkpt><trkpt lat="43.8178537" lon="12.1764293"><ele>693.0</ele><time>2026-04-06T13:16:51.009Z</time></trkpt><trkpt lat="43.8178744" lon="12.1762464"><ele>693.0</ele><time>2026-04-06T13:16:52.008Z</time></trkpt><trkpt lat="43.8179026" lon="12.1760713"><ele>693.0</ele><time>2026-04-06T13:16:53.009Z</time></trkpt><trkpt lat="43.8179329" lon="12.1759192"><ele>693.0</ele><time>2026-04-06T13:16:54.008Z</time></trkpt><trkpt lat="43.817964" lon="12.1757953"><ele>693.0</ele><time>2026-04-06T13:16:55.008Z</time></trkpt><trkpt lat="43.8179973" lon="12.1756889"><ele>693.0</ele><time>2026-04-06T13:16:56.008Z</time></trkpt><trkpt lat="43.818036" lon="12.1755905"><ele>698.8333333333334</ele><time>2026-04-06T13:16:57.007Z</time></trkpt><trkpt lat="43.8180757" lon="12.1755019"><ele>704.6666666666666</ele><time>2026-04-06T13:16:58.008Z</time></trkpt><trkpt lat="43.8181178" lon="12.1754233"><ele>710.5</ele><time>2026-04-06T13:16:59.006Z</time></trkpt><trkpt lat="43.8181663" lon="12.1753586"><ele>716.3333333333333</ele><time>2026-04-06T13:17:00.011Z</time></trkpt><trkpt lat="43.818271" lon="12.1752914"><ele>722.1666666666666</ele><time>2026-04-06T13:17:02.008Z</time></trkpt><trkpt lat="43.8183907" lon="12.1753124"><ele>728.0</ele><time>2026-04-06T13:17:04.006Z</time></trkpt><trkpt lat="43.8184536" lon="12.1753193"><ele>726.2</ele><time>2026-04-06T13:17:05.008Z</time></trkpt><trkpt lat="43.818561" lon="12.1752834"><ele>724.4</ele><time>2026-04-06T13:17:07.007Z</time></trkpt><trkpt lat="43.818644" lon="12.1751921"><ele>722.6</ele><time>2026-04-06T13:17:09.007Z</time></trkpt><trkpt lat="43.8187334" lon="12.1750607"><ele>720.8000000000001</ele><time>2026-04-06T13:17:11.008Z</time></trkpt><trkpt lat="43.8187805" lon="12.1749966"><ele>719.0</ele><time>2026-04-06T13:17:12.006Z</time></trkpt><trkpt lat="43.8188791" lon="12.1749262"><ele>719.0</ele><time>2026-04-06T13:17:14.008Z</time></trkpt><trkpt lat="43.818992" lon="12.1749685"><ele>719.0</ele><time>2026-04-06T13:17:16.011Z</time></trkpt><trkpt lat="43.8190634" lon="12.1750247"><ele>719.0</ele><time>2026-04-06T13:17:17.007Z</time></trkpt><trkpt lat="43.8191359" lon="12.1750837"><ele>719.0</ele><time>2026-04-06T13:17:18.008Z</time></trkpt><trkpt lat="43.819218" lon="12.1751322"><ele>719.0</ele><time>2026-04-06T13:17:19.009Z</time></trkpt><trkpt lat="43.8193111" lon="12.1751613"><ele>720.25</ele><time>2026-04-06T13:17:20.008Z</time></trkpt><trkpt lat="43.8194089" lon="12.1751756"><ele>721.5</ele><time>2026-04-06T13:17:21.009Z</time></trkpt><trkpt lat="43.8195159" lon="12.1751802"><ele>722.75</ele><time>2026-04-06T13:17:22.005Z</time></trkpt><trkpt lat="43.8196364" lon="12.1751734"><ele>724.0</ele><time>2026-04-06T13:17:23.008Z</time></trkpt><trkpt lat="43.8197625" lon="12.175159"><ele>724.0</ele><time>2026-04-06T13:17:24.005Z</time></trkpt><trkpt lat="43.8198892" lon="12.1751414"><ele>724.0</ele><time>2026-04-06T13:17:25.009Z</time></trkpt><trkpt lat="43.8200051" lon="12.1751349"><ele>724.0</ele><time>2026-04-06T13:17:26.01Z</time></trkpt><trkpt lat="43.8201143" lon="12.1751361"><ele>724.0</ele><time>2026-04-06T13:17:27.007Z</time></trkpt><trkpt lat="43.8202181" lon="12.1751295"><ele>726.8000000000001</ele><time>2026-04-06T13:17:28.008Z</time></trkpt><trkpt lat="43.8203132" lon="12.1751036"><ele>729.6</ele><time>2026-04-06T13:17:29.008Z</time></trkpt><trkpt lat="43.8204024" lon="12.1750439"><ele>732.4</ele><time>2026-04-06T13:17:30.007Z</time></trkpt><trkpt lat="43.8204817" lon="12.174955"><ele>735.2</ele><time>2026-04-06T13:17:31.01Z</time></trkpt><trkpt lat="43.8205482" lon="12.1748552"><ele>738.0</ele><time>2026-04-06T13:17:32.007Z</time></trkpt><trkpt lat="43.8206005" lon="12.174742"><ele>738.0</ele><time>2026-04-06T13:17:33.008Z</time></trkpt><trkpt lat="43.8206351" lon="12.1746107"><ele>738.0</ele><time>2026-04-06T13:17:34.008Z</time></trkpt><trkpt lat="43.8206687" lon="12.1744707"><ele>738.0</ele><time>2026-04-06T13:17:35.008Z</time></trkpt><trkpt lat="43.820713" lon="12.1743474"><ele>738.0</ele><time>2026-04-06T13:17:36.007Z</time></trkpt><trkpt lat="43.8207653" lon="12.1742422"><ele>738.0</ele><time>2026-04-06T13:17:37.009Z</time></trkpt><trkpt lat="43.8208194" lon="12.1741524"><ele>738.0</ele><time>2026-04-06T13:17:38.009Z</time></trkpt><trkpt lat="43.8208743" lon="12.1740768"><ele>738.0</ele><time>2026-04-06T13:17:39.007Z</time></trkpt><trkpt lat="43.8209275" lon="12.1740066"><ele>738.0</ele><time>2026-04-06T13:17:40.007Z</time></trkpt><trkpt lat="43.8209818" lon="12.1739391"><ele>738.0</ele><time>2026-04-06T13:17:41.008Z</time></trkpt><trkpt lat="43.821037" lon="12.173866"><ele>738.0</ele><time>2026-04-06T13:17:42.007Z</time></trkpt><trkpt lat="43.8210933" lon="12.1737927"><ele>738.0</ele><time>2026-04-06T13:17:43.009Z</time></trkpt><trkpt lat="43.8211487" lon="12.1737239"><ele>737.0</ele><time>2026-04-06T13:17:44.006Z</time></trkpt><trkpt lat="43.8212041" lon="12.1736583"><ele>736.0</ele><time>2026-04-06T13:17:45.007Z</time></trkpt><trkpt lat="43.821263" lon="12.1736029"><ele>735.0</ele><time>2026-04-06T13:17:46.005Z</time></trkpt><trkpt lat="43.8213247" lon="12.17355"><ele>734.0</ele><time>2026-04-06T13:17:47.009Z</time></trkpt><trkpt lat="43.8213828" lon="12.1734898"><ele>733.0</ele><time>2026-04-06T13:17:48.009Z</time></trkpt><trkpt lat="43.8214391" lon="12.1734095"><ele>732.0</ele><time>2026-04-06T13:17:49.008Z</time></trkpt><trkpt lat="43.8214825" lon="12.1733106"><ele>732.0</ele><time>2026-04-06T13:17:50.008Z</time></trkpt><trkpt lat="43.8215398" lon="12.1731993"><ele>732.0</ele><time>2026-04-06T13:17:51.007Z</time></trkpt><trkpt lat="43.8215979" lon="12.1731006"><ele>732.0</ele><time>2026-04-06T13:17:52.006Z</time></trkpt><trkpt lat="43.8216636" lon="12.1730201"><ele>732.0</ele><time>2026-04-06T13:17:53.011Z</time></trkpt><trkpt lat="43.8217357" lon="12.1729561"><ele>732.0</ele><time>2026-04-06T13:17:54.009Z</time></trkpt><trkpt lat="43.8218201" lon="12.172914"><ele>736.8</ele><time>2026-04-06T13:17:55.007Z</time></trkpt><trkpt lat="43.8219178" lon="12.1728833"><ele>741.6</ele><time>2026-04-06T13:17:56.009Z</time></trkpt><trkpt lat="43.8220183" lon="12.1728527"><ele>746.4</ele><time>2026-04-06T13:17:57.007Z</time></trkpt><trkpt lat="43.8221157" lon="12.1728072"><ele>751.1999999999999</ele><time>2026-04-06T13:17:58.009Z</time></trkpt><trkpt lat="43.8222086" lon="12.1727509"><ele>756.0</ele><time>2026-04-06T13:17:59.007Z</time></trkpt><trkpt lat="43.8222955" lon="12.1726901"><ele>756.0</ele><time>2026-04-06T13:18:00.011Z</time></trkpt><trkpt lat="43.8223785" lon="12.1726319"><ele>756.0</ele><time>2026-04-06T13:18:01.009Z</time></trkpt><trkpt lat="43.8224558" lon="12.1725791"><ele>756.0</ele><time>2026-04-06T13:18:02.007Z</time></trkpt><trkpt lat="43.8225308" lon="12.1725434"><ele>756.0</ele><time>2026-04-06T13:18:03.012Z</time></trkpt><trkpt lat="43.8226108" lon="12.1725369"><ele>756.0</ele><time>2026-04-06T13:18:04.007Z</time></trkpt><trkpt lat="43.8226967" lon="12.1725578"><ele>756.0</ele><time>2026-04-06T13:18:05.007Z</time></trkpt><trkpt lat="43.8227827" lon="12.1726082"><ele>757.6666666666666</ele><time>2026-04-06T13:18:06.008Z</time></trkpt><trkpt lat="43.8228626" lon="12.1726783"><ele>759.3333333333334</ele><time>2026-04-06T13:18:07.009Z</time></trkpt><trkpt lat="43.8229361" lon="12.1727484"><ele>761.0</ele><time>2026-04-06T13:18:08.011Z</time></trkpt><trkpt lat="43.823012" lon="12.1727999"><ele>762.6666666666667</ele><time>2026-04-06T13:18:09.009Z</time></trkpt><trkpt lat="43.8230914" lon="12.1728341"><ele>764.3333333333334</ele><time>2026-04-06T13:18:10.008Z</time></trkpt><trkpt lat="43.8231815" lon="12.1728403"><ele>766.0</ele><time>2026-04-06T13:18:11.009Z</time></trkpt><trkpt lat="43.8232851" lon="12.1728265"><ele>766.0</ele><time>2026-04-06T13:18:12.009Z</time></trkpt><trkpt lat="43.8233883" lon="12.1728279"><ele>766.0</ele><time>2026-04-06T13:18:13.009Z</time></trkpt><trkpt lat="43.8234913" lon="12.1728488"><ele>766.0</ele><time>2026-04-06T13:18:14.008Z</time></trkpt><trkpt lat="43.8235931" lon="12.1729086"><ele>766.0</ele><time>2026-04-06T13:18:15.009Z</time></trkpt><trkpt lat="43.8236828" lon="12.1729976"><ele>766.0</ele><time>2026-04-06T13:18:16.009Z</time></trkpt><trkpt lat="43.8237528" lon="12.1730953"><ele>764.0</ele><time>2026-04-06T13:18:17.01Z</time></trkpt><trkpt lat="43.8238147" lon="12.1731828"><ele>762.0</ele><time>2026-04-06T13:18:18.008Z</time></trkpt><trkpt lat="43.8238842" lon="12.173251"><ele>760.0</ele><time>2026-04-06T13:18:19.01Z</time></trkpt><trkpt lat="43.8239741" lon="12.173295"><ele>758.0</ele><time>2026-04-06T13:18:20.008Z</time></trkpt><trkpt lat="43.824072" lon="12.1733246"><ele>756.0</ele><time>2026-04-06T13:18:21.01Z</time></trkpt><trkpt lat="43.8241723" lon="12.1733692"><ele>756.0</ele><time>2026-04-06T13:18:22.012Z</time></trkpt><trkpt lat="43.8242694" lon="12.1734321"><ele>756.0</ele><time>2026-04-06T13:18:23.007Z</time></trkpt><trkpt lat="43.8243597" lon="12.1735169"><ele>756.0</ele><time>2026-04-06T13:18:24.009Z</time></trkpt><trkpt lat="43.8244492" lon="12.1736032"><ele>756.0</ele><time>2026-04-06T13:18:25.01Z</time></trkpt><trkpt lat="43.8245395" lon="12.1736856"><ele>756.0</ele><time>2026-04-06T13:18:26.007Z</time></trkpt><trkpt lat="43.8246286" lon="12.1737642"><ele>757.8</ele><time>2026-04-06T13:18:27.009Z</time></trkpt><trkpt lat="43.8247165" lon="12.1738389"><ele>759.5999999999999</ele><time>2026-04-06T13:18:28.008Z</time></trkpt><trkpt lat="43.8248045" lon="12.1739166"><ele>761.4</ele><time>2026-04-06T13:18:29.006Z</time></trkpt><trkpt lat="43.824889" lon="12.1739887"><ele>763.2</ele><time>2026-04-06T13:18:30.007Z</time></trkpt><trkpt lat="43.8249652" lon="12.1740505"><ele>765.0</ele><time>2026-04-06T13:18:31.007Z</time></trkpt><trkpt lat="43.8250367" lon="12.1740968"><ele>765.0</ele><time>2026-04-06T13:18:32.007Z</time></trkpt><trkpt lat="43.8251025" lon="12.1741199"><ele>765.0</ele><time>2026-04-06T13:18:33.01Z</time></trkpt><trkpt lat="43.8252153" lon="12.1740949"><ele>765.0</ele><time>2026-04-06T13:18:35.006Z</time></trkpt><trkpt lat="43.8252993" lon="12.1740319"><ele>765.0</ele><time>2026-04-06T13:18:37.007Z</time></trkpt><trkpt lat="43.825354" lon="12.1739409"><ele>765.0</ele><time>2026-04-06T13:18:41.007Z</time></trkpt><trkpt lat="43.8253555" lon="12.173853"><ele>765.0</ele><time>2026-04-06T13:18:45.006Z</time></trkpt><trkpt lat="43.8253479" lon="12.1737165"><ele>761.75</ele><time>2026-04-06T13:18:55.041Z</time></trkpt><trkpt lat="43.8252886" lon="12.1735201"><ele>758.5</ele><time>2026-04-06T13:18:57.028Z</time></trkpt><trkpt lat="43.8252615" lon="12.1734328"><ele>755.25</ele><time>2026-04-06T13:18:58.051Z</time></trkpt><trkpt lat="43.825229" lon="12.1732576"><ele>752.0</ele><time>2026-04-06T13:18:59.008Z</time></trkpt><trkpt lat="43.8251979" lon="12.1731034"><ele>748.8</ele><time>2026-04-06T13:19:00.006Z</time></trkpt><trkpt lat="43.8251878" lon="12.1729604"><ele>745.6</ele><time>2026-04-06T13:19:01.007Z</time></trkpt><trkpt lat="43.8251895" lon="12.1728259"><ele>742.4</ele><time>2026-04-06T13:19:02.009Z</time></trkpt><trkpt lat="43.8252155" lon="12.1727051"><ele>739.1999999999999</ele><time>2026-04-06T13:19:03.008Z</time></trkpt><trkpt lat="43.825254" lon="12.172601"><ele>736.0</ele><time>2026-04-06T13:19:04.007Z</time></trkpt><trkpt lat="43.8252955" lon="12.1725068"><ele>736.0</ele><time>2026-04-06T13:19:05.007Z</time></trkpt><trkpt lat="43.8253417" lon="12.1724163"><ele>736.0</ele><time>2026-04-06T13:19:06.007Z</time></trkpt><trkpt lat="43.8253746" lon="12.1723228"><ele>736.0</ele><time>2026-04-06T13:19:07.008Z</time></trkpt><trkpt lat="43.8253947" lon="12.1722293"><ele>736.0</ele><time>2026-04-06T13:19:08.007Z</time></trkpt><trkpt lat="43.825403" lon="12.1721316"><ele>736.0</ele><time>2026-04-06T13:19:09.007Z</time></trkpt><trkpt lat="43.8253955" lon="12.1720279"><ele>736.0</ele><time>2026-04-06T13:19:10.006Z</time></trkpt><trkpt lat="43.825369" lon="12.1719284"><ele>736.0</ele><time>2026-04-06T13:19:11.007Z</time></trkpt><trkpt lat="43.825324" lon="12.1718433"><ele>735.0</ele><time>2026-04-06T13:19:12.007Z</time></trkpt><trkpt lat="43.8252637" lon="12.171774"><ele>734.0</ele><time>2026-04-06T13:19:13.01Z</time></trkpt><trkpt lat="43.8252003" lon="12.1717056"><ele>733.0</ele><time>2026-04-06T13:19:14.008Z</time></trkpt><trkpt lat="43.8251386" lon="12.1716246"><ele>732.0</ele><time>2026-04-06T13:19:15.009Z</time></trkpt><trkpt lat="43.8250909" lon="12.1715345"><ele>731.0</ele><time>2026-04-06T13:19:16.007Z</time></trkpt><trkpt lat="43.8250601" lon="12.1714324"><ele>730.0</ele><time>2026-04-06T13:19:17.005Z</time></trkpt><trkpt lat="43.8250342" lon="12.1713321"><ele>730.5</ele><time>2026-04-06T13:19:18.008Z</time></trkpt><trkpt lat="43.8250316" lon="12.1712203"><ele>731.0</ele><time>2026-04-06T13:19:19.007Z</time></trkpt><trkpt lat="43.8250458" lon="12.1711133"><ele>731.5</ele><time>2026-04-06T13:19:20.008Z</time></trkpt><trkpt lat="43.8250829" lon="12.1710201"><ele>732.0</ele><time>2026-04-06T13:19:21.007Z</time></trkpt><trkpt lat="43.8251449" lon="12.1709418"><ele>732.5</ele><time>2026-04-06T13:19:22.006Z</time></trkpt><trkpt lat="43.8252692" lon="12.1709001"><ele>733.0</ele><time>2026-04-06T13:19:23.007Z</time></trkpt><trkpt lat="43.8253556" lon="12.1708586"><ele>733.0</ele><time>2026-04-06T13:19:24.005Z</time></trkpt><trkpt lat="43.8254116" lon="12.1707848"><ele>733.0</ele><time>2026-04-06T13:19:25.008Z</time></trkpt><trkpt lat="43.825437" lon="12.1706937"><ele>733.0</ele><time>2026-04-06T13:19:26.008Z</time></trkpt><trkpt lat="43.8254307" lon="12.1705918"><ele>733.0</ele><time>2026-04-06T13:19:27.007Z</time></trkpt><trkpt lat="43.8253976" lon="12.1704855"><ele>733.0</ele><time>2026-04-06T13:19:28.007Z</time></trkpt><trkpt lat="43.8253647" lon="12.1703695"><ele>733.0</ele><time>2026-04-06T13:19:29.005Z</time></trkpt><trkpt lat="43.825339" lon="12.1702392"><ele>735.1666666666667</ele><time>2026-04-06T13:19:30.007Z</time></trkpt><trkpt lat="43.825327" lon="12.1701025"><ele>737.3333333333334</ele><time>2026-04-06T13:19:31.007Z</time></trkpt><trkpt lat="43.8253279" lon="12.1699707"><ele>739.5</ele><time>2026-04-06T13:19:32.007Z</time></trkpt><trkpt lat="43.8253242" lon="12.1698532"><ele>741.6666666666666</ele><time>2026-04-06T13:19:33.008Z</time></trkpt><trkpt lat="43.8253157" lon="12.1697515"><ele>743.8333333333333</ele><time>2026-04-06T13:19:34.007Z</time></trkpt><trkpt lat="43.8253285" lon="12.1696479"><ele>746.0</ele><time>2026-04-06T13:19:35.009Z</time></trkpt><trkpt lat="43.8254293" lon="12.1695646"><ele>752.0</ele><time>2026-04-06T13:19:36.008Z</time></trkpt><trkpt lat="43.8255397" lon="12.169523"><ele>758.0</ele><time>2026-04-06T13:19:37.01Z</time></trkpt><trkpt lat="43.8256401" lon="12.1695176"><ele>764.0</ele><time>2026-04-06T13:19:38.008Z</time></trkpt><trkpt lat="43.8257331" lon="12.1695456"><ele>770.0</ele><time>2026-04-06T13:19:39.009Z</time></trkpt><trkpt lat="43.8258305" lon="12.1696148"><ele>776.0</ele><time>2026-04-06T13:19:40.007Z</time></trkpt><trkpt lat="43.8259254" lon="12.1696828"><ele>773.4</ele><time>2026-04-06T13:19:41.009Z</time></trkpt><trkpt lat="43.8260225" lon="12.1697259"><ele>770.8</ele><time>2026-04-06T13:19:42.008Z</time></trkpt><trkpt lat="43.826125" lon="12.1697433"><ele>768.1999999999999</ele><time>2026-04-06T13:19:43.007Z</time></trkpt><trkpt lat="43.8262342" lon="12.16974"><ele>765.5999999999999</ele><time>2026-04-06T13:19:44.009Z</time></trkpt><trkpt lat="43.8263451" lon="12.1697458"><ele>763.0</ele><time>2026-04-06T13:19:45.008Z</time></trkpt><trkpt lat="43.8264578" lon="12.1697468"><ele>763.0</ele><time>2026-04-06T13:19:46.009Z</time></trkpt><trkpt lat="43.8265692" lon="12.1697557"><ele>763.0</ele><time>2026-04-06T13:19:47.009Z</time></trkpt><trkpt lat="43.8266716" lon="12.169787"><ele>763.0</ele><time>2026-04-06T13:19:48.007Z</time></trkpt><trkpt lat="43.8267566" lon="12.1698434"><ele>763.0</ele><time>2026-04-06T13:19:49.009Z</time></trkpt><trkpt lat="43.826824" lon="12.1699189"><ele>763.0</ele><time>2026-04-06T13:19:50.007Z</time></trkpt><trkpt lat="43.826881" lon="12.1700078"><ele>755.8333333333334</ele><time>2026-04-06T13:19:51.007Z</time></trkpt><trkpt lat="43.8269416" lon="12.1700671"><ele>748.6666666666667</ele><time>2026-04-06T13:19:52.007Z</time></trkpt><trkpt lat="43.8270043" lon="12.1700954"><ele>741.5</ele><time>2026-04-06T13:19:53.011Z</time></trkpt><trkpt lat="43.827122" lon="12.1700711"><ele>734.3333333333334</ele><time>2026-04-06T13:19:55.008Z</time></trkpt><trkpt lat="43.8271945" lon="12.1699425"><ele>727.1666666666666</ele><time>2026-04-06T13:19:57.007Z</time></trkpt><trkpt lat="43.8272082" lon="12.1698524"><ele>720.0</ele><time>2026-04-06T13:19:58.009Z</time></trkpt><trkpt lat="43.8271962" lon="12.1697438"><ele>720.0</ele><time>2026-04-06T13:19:59.009Z</time></trkpt><trkpt lat="43.8271782" lon="12.1696217"><ele>720.0</ele><time>2026-04-06T13:20:00.009Z</time></trkpt><trkpt lat="43.8271412" lon="12.1694698"><ele>720.0</ele><time>2026-04-06T13:20:01.008Z</time></trkpt><trkpt lat="43.827101" lon="12.1693112"><ele>720.0</ele><time>2026-04-06T13:20:02.008Z</time></trkpt><trkpt lat="43.8270654" lon="12.1691629"><ele>720.0</ele><time>2026-04-06T13:20:03.008Z</time></trkpt><trkpt lat="43.8270353" lon="12.1690387"><ele>719.4</ele><time>2026-04-06T13:20:04.007Z</time></trkpt><trkpt lat="43.8270014" lon="12.1689311"><ele>718.8</ele><time>2026-04-06T13:20:05.009Z</time></trkpt><trkpt lat="43.8269558" lon="12.168838"><ele>718.2</ele><time>2026-04-06T13:20:06.008Z</time></trkpt><trkpt lat="43.8268927" lon="12.1687463"><ele>717.6</ele><time>2026-04-06T13:20:07.007Z</time></trkpt><trkpt lat="43.8268291" lon="12.1686416"><ele>717.0</ele><time>2026-04-06T13:20:08.009Z</time></trkpt><trkpt lat="43.8267554" lon="12.1685288"><ele>727.75</ele><time>2026-04-06T13:20:09.009Z</time></trkpt><trkpt lat="43.8266854" lon="12.168391"><ele>738.5</ele><time>2026-04-06T13:20:10.008Z</time></trkpt><trkpt lat="43.8266143" lon="12.1682552"><ele>749.25</ele><time>2026-04-06T13:20:11.009Z</time></trkpt><trkpt lat="43.8265614" lon="12.1681131"><ele>760.0</ele><time>2026-04-06T13:20:12.007Z</time></trkpt><trkpt lat="43.8265325" lon="12.1679613"><ele>761.0</ele><time>2026-04-06T13:20:13.007Z</time></trkpt><trkpt lat="43.826507" lon="12.1678141"><ele>762.0</ele><time>2026-04-06T13:20:14.008Z</time></trkpt><trkpt lat="43.8264953" lon="12.1676857"><ele>763.0</ele><time>2026-04-06T13:20:15.007Z</time></trkpt><trkpt lat="43.8265018" lon="12.1675667"><ele>764.0</ele><time>2026-04-06T13:20:16.008Z</time></trkpt><trkpt lat="43.8265203" lon="12.1674597"><ele>765.0</ele><time>2026-04-06T13:20:17.007Z</time></trkpt><trkpt lat="43.8266036" lon="12.1674056"><ele>765.0</ele><time>2026-04-06T13:20:18.008Z</time></trkpt><trkpt lat="43.8267157" lon="12.1674055"><ele>765.0</ele><time>2026-04-06T13:20:19.008Z</time></trkpt><trkpt lat="43.8268269" lon="12.1674036"><ele>765.0</ele><time>2026-04-06T13:20:20.008Z</time></trkpt><trkpt lat="43.8269353" lon="12.1674008"><ele>765.0</ele><time>2026-04-06T13:20:21.009Z</time></trkpt><trkpt lat="43.8270419" lon="12.1673977"><ele>765.0</ele><time>2026-04-06T13:20:22.008Z</time></trkpt><trkpt lat="43.8271219" lon="12.1673739"><ele>761.4</ele><time>2026-04-06T13:20:23.007Z</time></trkpt><trkpt lat="43.8271805" lon="12.1673092"><ele>757.8</ele><time>2026-04-06T13:20:24.007Z</time></trkpt><trkpt lat="43.8272289" lon="12.167207"><ele>754.2</ele><time>2026-04-06T13:20:25.009Z</time></trkpt><trkpt lat="43.8272701" lon="12.1670802"><ele>750.6</ele><time>2026-04-06T13:20:26.008Z</time></trkpt><trkpt lat="43.8273178" lon="12.1669551"><ele>747.0</ele><time>2026-04-06T13:20:27.007Z</time></trkpt><trkpt lat="43.8273836" lon="12.1668447"><ele>747.0</ele><time>2026-04-06T13:20:28.007Z</time></trkpt><trkpt lat="43.8274328" lon="12.1667373"><ele>747.0</ele><time>2026-04-06T13:20:29.005Z</time></trkpt><trkpt lat="43.8274486" lon="12.1666155"><ele>747.0</ele><time>2026-04-06T13:20:30.007Z</time></trkpt><trkpt lat="43.8274488" lon="12.1664843"><ele>747.0</ele><time>2026-04-06T13:20:31.007Z</time></trkpt><trkpt lat="43.8274254" lon="12.1663433"><ele>747.0</ele><time>2026-04-06T13:20:32.008Z</time></trkpt><trkpt lat="43.8273939" lon="12.1661894"><ele>748.0</ele><time>2026-04-06T13:20:33.008Z</time></trkpt><trkpt lat="43.8273692" lon="12.1660261"><ele>749.0</ele><time>2026-04-06T13:20:34.006Z</time></trkpt><trkpt lat="43.8273404" lon="12.1658591"><ele>750.0</ele><time>2026-04-06T13:20:35.01Z</time></trkpt><trkpt lat="43.827316" lon="12.1656905"><ele>751.0</ele><time>2026-04-06T13:20:36.005Z</time></trkpt><trkpt lat="43.8273179" lon="12.1655217"><ele>752.0</ele><time>2026-04-06T13:20:37.007Z</time></trkpt><trkpt lat="43.8273369" lon="12.1653579"><ele>753.0</ele><time>2026-04-06T13:20:38.008Z</time></trkpt><trkpt lat="43.8273629" lon="12.1651988"><ele>754.0</ele><time>2026-04-06T13:20:39.01Z</time></trkpt><trkpt lat="43.8273966" lon="12.165051"><ele>755.0</ele><time>2026-04-06T13:20:40.011Z</time></trkpt><trkpt lat="43.8274172" lon="12.1649234"><ele>756.0</ele><time>2026-04-06T13:20:41.01Z</time></trkpt><trkpt lat="43.8274329" lon="12.1648063"><ele>759.0</ele><time>2026-04-06T13:20:42.007Z</time></trkpt><trkpt lat="43.8274391" lon="12.1646978"><ele>762.0</ele><time>2026-04-06T13:20:43.008Z</time></trkpt><trkpt lat="43.8274307" lon="12.1645977"><ele>765.0</ele><time>2026-04-06T13:20:44.009Z</time></trkpt><trkpt lat="43.8274104" lon="12.164507"><ele>768.0</ele><time>2026-04-06T13:20:45.01Z</time></trkpt><trkpt lat="43.8273696" lon="12.1643683"><ele>771.0</ele><time>2026-04-06T13:20:47.008Z</time></trkpt><trkpt lat="43.827386" lon="12.1642482"><ele>774.0</ele><time>2026-04-06T13:20:49.01Z</time></trkpt><trkpt lat="43.8274378" lon="12.1641539"><ele>774.0</ele><time>2026-04-06T13:20:51.008Z</time></trkpt><trkpt lat="43.8275686" lon="12.1641137"><ele>774.0</ele><time>2026-04-06T13:20:53.007Z</time></trkpt><trkpt lat="43.827663" lon="12.1641143"><ele>774.0</ele><time>2026-04-06T13:20:54.007Z</time></trkpt><trkpt lat="43.8277498" lon="12.164112"><ele>774.0</ele><time>2026-04-06T13:20:55.008Z</time></trkpt><trkpt lat="43.8278264" lon="12.1641171"><ele>774.0</ele><time>2026-04-06T13:20:56.007Z</time></trkpt><trkpt lat="43.8278935" lon="12.1641373"><ele>777.4000000000001</ele><time>2026-04-06T13:20:57.011Z</time></trkpt><trkpt lat="43.8279554" lon="12.1641699"><ele>780.8</ele><time>2026-04-06T13:20:58.006Z</time></trkpt><trkpt lat="43.8280222" lon="12.1642645"><ele>784.2</ele><time>2026-04-06T13:21:00.007Z</time></trkpt><trkpt lat="43.8280082" lon="12.1644492"><ele>787.5999999999999</ele><time>2026-04-06T13:21:02.008Z</time></trkpt><trkpt lat="43.8279975" lon="12.1645776"><ele>791.0</ele><time>2026-04-06T13:21:03.008Z</time></trkpt><trkpt lat="43.828009" lon="12.164684"><ele>791.0</ele><time>2026-04-06T13:21:04.007Z</time></trkpt><trkpt lat="43.8280602" lon="12.1647932"><ele>791.0</ele><time>2026-04-06T13:21:05.009Z</time></trkpt><trkpt lat="43.8281487" lon="12.164918"><ele>791.0</ele><time>2026-04-06T13:21:06.007Z</time></trkpt><trkpt lat="43.8282247" lon="12.16504"><ele>791.0</ele><time>2026-04-06T13:21:07.006Z</time></trkpt><trkpt lat="43.8282913" lon="12.1651583"><ele>791.0</ele><time>2026-04-06T13:21:08.006Z</time></trkpt><trkpt lat="43.8283524" lon="12.1652565"><ele>791.1666666666667</ele><time>2026-04-06T13:21:09.008Z</time></trkpt><trkpt lat="43.8284149" lon="12.1653343"><ele>791.3333333333334</ele><time>2026-04-06T13:21:10.012Z</time></trkpt><trkpt lat="43.8284874" lon="12.1653893"><ele>791.5</ele><time>2026-04-06T13:21:11.007Z</time></trkpt><trkpt lat="43.8285716" lon="12.1654327"><ele>791.6666666666667</ele><time>2026-04-06T13:21:12.006Z</time></trkpt><trkpt lat="43.8286532" lon="12.1654828"><ele>791.8333333333334</ele><time>2026-04-06T13:21:13.006Z</time></trkpt><trkpt lat="43.8287275" lon="12.1655479"><ele>792.0</ele><time>2026-04-06T13:21:14.007Z</time></trkpt><trkpt lat="43.8287891" lon="12.1656269"><ele>786.8</ele><time>2026-04-06T13:21:15.007Z</time></trkpt><trkpt lat="43.828828" lon="12.1657301"><ele>781.6</ele><time>2026-04-06T13:21:16.006Z</time></trkpt><trkpt lat="43.8288389" lon="12.1658661"><ele>776.4</ele><time>2026-04-06T13:21:17.009Z</time></trkpt><trkpt lat="43.8288368" lon="12.1660156"><ele>771.1999999999999</ele><time>2026-04-06T13:21:18.007Z</time></trkpt><trkpt lat="43.8288455" lon="12.1661521"><ele>766.0</ele><time>2026-04-06T13:21:19.011Z</time></trkpt><trkpt lat="43.8288694" lon="12.1662792"><ele>766.0</ele><time>2026-04-06T13:21:20.009Z</time></trkpt><trkpt lat="43.8289179" lon="12.1664008"><ele>766.0</ele><time>2026-04-06T13:21:21.007Z</time></trkpt><trkpt lat="43.8289837" lon="12.1665197"><ele>766.0</ele><time>2026-04-06T13:21:22.009Z</time></trkpt><trkpt lat="43.8290472" lon="12.1666391"><ele>766.0</ele><time>2026-04-06T13:21:23.007Z</time></trkpt><trkpt lat="43.8291044" lon="12.1667485"><ele>766.0</ele><time>2026-04-06T13:21:24.007Z</time></trkpt><trkpt lat="43.8291621" lon="12.166832"><ele>763.1666666666667</ele><time>2026-04-06T13:21:25.006Z</time></trkpt><trkpt lat="43.8292215" lon="12.1668892"><ele>760.3333333333334</ele><time>2026-04-06T13:21:26.008Z</time></trkpt><trkpt lat="43.8292801" lon="12.1669235"><ele>757.5</ele><time>2026-04-06T13:21:27.008Z</time></trkpt><trkpt lat="43.829401" lon="12.1669157"><ele>754.6666666666666</ele><time>2026-04-06T13:21:29.01Z</time></trkpt><trkpt lat="43.8294575" lon="12.1668493"><ele>751.8333333333333</ele><time>2026-04-06T13:21:30.007Z</time></trkpt><trkpt lat="43.8295137" lon="12.166754"><ele>749.0</ele><time>2026-04-06T13:21:31.008Z</time></trkpt><trkpt lat="43.8295798" lon="12.1666251"><ele>751.5</ele><time>2026-04-06T13:21:32.009Z</time></trkpt><trkpt lat="43.8296534" lon="12.1664763"><ele>754.0</ele><time>2026-04-06T13:21:33.009Z</time></trkpt><trkpt lat="43.8297309" lon="12.1663265"><ele>756.5</ele><time>2026-04-06T13:21:34.009Z</time></trkpt><trkpt lat="43.8298096" lon="12.1661744"><ele>759.0</ele><time>2026-04-06T13:21:35.007Z</time></trkpt><trkpt lat="43.8298778" lon="12.166024"><ele>759.0</ele><time>2026-04-06T13:21:36.007Z</time></trkpt><trkpt lat="43.8299382" lon="12.1658824"><ele>759.0</ele><time>2026-04-06T13:21:37.008Z</time></trkpt><trkpt lat="43.8299843" lon="12.1657528"><ele>759.0</ele><time>2026-04-06T13:21:38.007Z</time></trkpt><trkpt lat="43.830012" lon="12.1656337"><ele>759.0</ele><time>2026-04-06T13:21:39.009Z</time></trkpt><trkpt lat="43.8300425" lon="12.1655339"><ele>759.0</ele><time>2026-04-06T13:21:40.008Z</time></trkpt><trkpt lat="43.830071" lon="12.1654475"><ele>762.2</ele><time>2026-04-06T13:21:41.008Z</time></trkpt><trkpt lat="43.8301091" lon="12.1653726"><ele>765.4000000000001</ele><time>2026-04-06T13:21:42.009Z</time></trkpt><trkpt lat="43.8301805" lon="12.1653233"><ele>768.6</ele><time>2026-04-06T13:21:43.008Z</time></trkpt><trkpt lat="43.8302718" lon="12.1652912"><ele>771.8</ele><time>2026-04-06T13:21:44.011Z</time></trkpt><trkpt lat="43.8303817" lon="12.1652768"><ele>775.0</ele><time>2026-04-06T13:21:45.008Z</time></trkpt><trkpt lat="43.8305141" lon="12.1652947"><ele>775.0</ele><time>2026-04-06T13:21:46.007Z</time></trkpt><trkpt lat="43.8306452" lon="12.1653369"><ele>775.0</ele><time>2026-04-06T13:21:47.006Z</time></trkpt><trkpt lat="43.8307707" lon="12.1654024"><ele>775.0</ele><time>2026-04-06T13:21:48.008Z</time></trkpt><trkpt lat="43.8308969" lon="12.1654863"><ele>775.0</ele><time>2026-04-06T13:21:49.007Z</time></trkpt><trkpt lat="43.8310173" lon="12.1655727"><ele>776.4</ele><time>2026-04-06T13:21:50.007Z</time></trkpt><trkpt lat="43.8311299" lon="12.1656478"><ele>777.8</ele><time>2026-04-06T13:21:51.009Z</time></trkpt><trkpt lat="43.8312354" lon="12.1657062"><ele>779.2</ele><time>2026-04-06T13:21:52.01Z</time></trkpt><trkpt lat="43.831334" lon="12.1657402"><ele>780.6</ele><time>2026-04-06T13:21:53.008Z</time></trkpt><trkpt lat="43.8314223" lon="12.1657504"><ele>782.0</ele><time>2026-04-06T13:21:54.01Z</time></trkpt><trkpt lat="43.8315087" lon="12.1657261"><ele>782.0000000000001</ele><time>2026-04-06T13:21:55.007Z</time></trkpt><trkpt lat="43.8315933" lon="12.1656781"><ele>782.0</ele><time>2026-04-06T13:21:56.007Z</time></trkpt><trkpt lat="43.8316776" lon="12.1656282"><ele>782.0</ele><time>2026-04-06T13:21:57.009Z</time></trkpt><trkpt lat="43.8317582" lon="12.165593"><ele>782.0</ele><time>2026-04-06T13:21:58.007Z</time></trkpt><trkpt lat="43.8318367" lon="12.1655758"><ele>782.0000000000001</ele><time>2026-04-06T13:21:59.007Z</time></trkpt><trkpt lat="43.8319111" lon="12.1655815"><ele>782.0</ele><time>2026-04-06T13:22:00.014Z</time></trkpt><trkpt lat="43.8319665" lon="12.1656303"><ele>781.8333333333334</ele><time>2026-04-06T13:22:01.009Z</time></trkpt><trkpt lat="43.8320187" lon="12.1656984"><ele>781.6666666666667</ele><time>2026-04-06T13:22:02.008Z</time></trkpt><trkpt lat="43.8320618" lon="12.1657875"><ele>781.5</ele><time>2026-04-06T13:22:03.009Z</time></trkpt><trkpt lat="43.8320898" lon="12.1658932"><ele>781.3333333333333</ele><time>2026-04-06T13:22:04.01Z</time></trkpt><trkpt lat="43.8321304" lon="12.1659996"><ele>781.1666666666666</ele><time>2026-04-06T13:22:05.008Z</time></trkpt><trkpt lat="43.8321908" lon="12.1660976"><ele>781.0</ele><time>2026-04-06T13:22:06.008Z</time></trkpt><trkpt lat="43.8322747" lon="12.1661827"><ele>781.0</ele><time>2026-04-06T13:22:07.01Z</time></trkpt><trkpt lat="43.8323694" lon="12.1662541"><ele>781.0</ele><time>2026-04-06T13:22:08.007Z</time></trkpt><trkpt lat="43.8324576" lon="12.1663159"><ele>781.0</ele><time>2026-04-06T13:22:09.009Z</time></trkpt><trkpt lat="43.8325363" lon="12.1663837"><ele>781.0</ele><time>2026-04-06T13:22:10.007Z</time></trkpt><trkpt lat="43.8326006" lon="12.1664619"><ele>781.0</ele><time>2026-04-06T13:22:11.007Z</time></trkpt><trkpt lat="43.8326549" lon="12.1665545"><ele>782.8</ele><time>2026-04-06T13:22:12.007Z</time></trkpt><trkpt lat="43.8326948" lon="12.166672"><ele>784.5999999999999</ele><time>2026-04-06T13:22:13.007Z</time></trkpt><trkpt lat="43.8327119" lon="12.166822"><ele>786.4</ele><time>2026-04-06T13:22:14.007Z</time></trkpt><trkpt lat="43.8327265" lon="12.1669815"><ele>788.2</ele><time>2026-04-06T13:22:15.011Z</time></trkpt><trkpt lat="43.832755" lon="12.1671384"><ele>790.0</ele><time>2026-04-06T13:22:16.007Z</time></trkpt><trkpt lat="43.832794" lon="12.1672782"><ele>788.4</ele><time>2026-04-06T13:22:17.007Z</time></trkpt><trkpt lat="43.8328328" lon="12.1673952"><ele>786.8</ele><time>2026-04-06T13:22:18.009Z</time></trkpt><trkpt lat="43.8328672" lon="12.1674905"><ele>785.2</ele><time>2026-04-06T13:22:19.009Z</time></trkpt><trkpt lat="43.8329341" lon="12.1676003"><ele>783.6</ele><time>2026-04-06T13:22:21.008Z</time></trkpt><trkpt lat="43.8330144" lon="12.1674929"><ele>782.0</ele><time>2026-04-06T13:22:24.008Z</time></trkpt><trkpt lat="43.8330262" lon="12.1673787"><ele>782.0</ele><time>2026-04-06T13:22:25.008Z</time></trkpt><trkpt lat="43.8330398" lon="12.1672731"><ele>782.0</ele><time>2026-04-06T13:22:26.01Z</time></trkpt><trkpt lat="43.8330868" lon="12.1671441"><ele>782.0</ele><time>2026-04-06T13:22:28.007Z</time></trkpt><trkpt lat="43.8331636" lon="12.1672617"><ele>782.0</ele><time>2026-04-06T13:22:30.007Z</time></trkpt><trkpt lat="43.8332066" lon="12.1673566"><ele>782.0</ele><time>2026-04-06T13:22:31.007Z</time></trkpt><trkpt lat="43.8332532" lon="12.1674606"><ele>782.0000000000001</ele><time>2026-04-06T13:22:32.005Z</time></trkpt><trkpt lat="43.8332967" lon="12.1675612"><ele>782.0</ele><time>2026-04-06T13:22:33.007Z</time></trkpt><trkpt lat="43.8333333" lon="12.1676456"><ele>782.0</ele><time>2026-04-06T13:22:34.009Z</time></trkpt><trkpt lat="43.8333962" lon="12.1677699"><ele>782.0</ele><time>2026-04-06T13:22:36.006Z</time></trkpt><trkpt lat="43.8334593" lon="12.1678399"><ele>782.0000000000001</ele><time>2026-04-06T13:22:38.007Z</time></trkpt><trkpt lat="43.8335061" lon="12.1679031"><ele>782.0</ele><time>2026-04-06T13:22:41.006Z</time></trkpt><trkpt lat="43.8336033" lon="12.1679667"><ele>779.3333333333334</ele><time>2026-04-06T13:22:58.008Z</time></trkpt><trkpt lat="43.8338217" lon="12.1681317"><ele>776.6666666666667</ele><time>2026-04-06T13:23:01.01Z</time></trkpt><trkpt lat="43.8339367" lon="12.1682117"><ele>774.0</ele><time>2026-04-06T13:23:02.01Z</time></trkpt><trkpt lat="43.8340483" lon="12.1682883"><ele>774.0</ele><time>2026-04-06T13:23:03.008Z</time></trkpt><trkpt lat="43.834165" lon="12.1683583"><ele>774.0</ele><time>2026-04-06T13:23:04.009Z</time></trkpt><trkpt lat="43.8342867" lon="12.168405"><ele>774.0</ele><time>2026-04-06T13:23:05.009Z</time></trkpt><trkpt lat="43.8344017" lon="12.1684283"><ele>774.0</ele><time>2026-04-06T13:23:06.007Z</time></trkpt><trkpt lat="43.83451" lon="12.1684517"><ele>773.4000000000001</ele><time>2026-04-06T13:23:07.007Z</time></trkpt><trkpt lat="43.8346" lon="12.168505"><ele>772.8</ele><time>2026-04-06T13:23:08.009Z</time></trkpt><trkpt lat="43.8346867" lon="12.16857"><ele>772.2</ele><time>2026-04-06T13:23:09.01Z</time></trkpt><trkpt lat="43.8347717" lon="12.1686183"><ele>771.5999999999999</ele><time>2026-04-06T13:23:10.008Z</time></trkpt><trkpt lat="43.834855" lon="12.1686533"><ele>771.0</ele><time>2026-04-06T13:23:11.008Z</time></trkpt><trkpt lat="43.83494" lon="12.1686533"><ele>771.0</ele><time>2026-04-06T13:23:12.009Z</time></trkpt><trkpt lat="43.8350183" lon="12.1686383"><ele>771.0</ele><time>2026-04-06T13:23:13.01Z</time></trkpt><trkpt lat="43.8350833" lon="12.1685233"><ele>771.0</ele><time>2026-04-06T13:23:14.006Z</time></trkpt><trkpt lat="43.835135" lon="12.168425"><ele>771.0</ele><time>2026-04-06T13:23:15.008Z</time></trkpt><trkpt lat="43.83517" lon="12.1683167"><ele>771.0</ele><time>2026-04-06T13:23:16.011Z</time></trkpt><trkpt lat="43.8351933" lon="12.1682017"><ele>771.0</ele><time>2026-04-06T13:23:17.008Z</time></trkpt><trkpt lat="43.8352217" lon="12.168085"><ele>770.4</ele><time>2026-04-06T13:23:18.009Z</time></trkpt><trkpt lat="43.8352433" lon="12.16796"><ele>769.8</ele><time>2026-04-06T13:23:19.009Z</time></trkpt><trkpt lat="43.8353067" lon="12.1678517"><ele>769.1999999999999</ele><time>2026-04-06T13:23:20.009Z</time></trkpt><trkpt lat="43.8353883" lon="12.1677583"><ele>768.5999999999999</ele><time>2026-04-06T13:23:21.01Z</time></trkpt><trkpt lat="43.8354867" lon="12.167675"><ele>768.0</ele><time>2026-04-06T13:23:22.007Z</time></trkpt><trkpt lat="43.835595" lon="12.1675883"><ele>768.0</ele><time>2026-04-06T13:23:23.008Z</time></trkpt><trkpt lat="43.8357017" lon="12.1674917"><ele>768.0</ele><time>2026-04-06T13:23:24.009Z</time></trkpt><trkpt lat="43.8358017" lon="12.1673983"><ele>768.0</ele><time>2026-04-06T13:23:25.006Z</time></trkpt><trkpt lat="43.8359017" lon="12.167315"><ele>768.0</ele><time>2026-04-06T13:23:26.008Z</time></trkpt><trkpt lat="43.8359983" lon="12.16725"><ele>767.6666666666666</ele><time>2026-04-06T13:23:27.008Z</time></trkpt><trkpt lat="43.8360867" lon="12.1672233"><ele>767.3333333333334</ele><time>2026-04-06T13:23:28.007Z</time></trkpt><trkpt lat="43.8361633" lon="12.167245"><ele>767.0</ele><time>2026-04-06T13:23:29.009Z</time></trkpt><trkpt lat="43.8362367" lon="12.1672883"><ele>766.6666666666667</ele><time>2026-04-06T13:23:30.008Z</time></trkpt><trkpt lat="43.8363167" lon="12.1673483"><ele>766.3333333333334</ele><time>2026-04-06T13:23:31.008Z</time></trkpt><trkpt lat="43.8364017" lon="12.1673967"><ele>766.0</ele><time>2026-04-06T13:23:32.01Z</time></trkpt><trkpt lat="43.8365017" lon="12.1674233"><ele>766.0</ele><time>2026-04-06T13:23:33.012Z</time></trkpt><trkpt lat="43.8366" lon="12.1674467"><ele>766.0</ele><time>2026-04-06T13:23:34.006Z</time></trkpt><trkpt lat="43.836695" lon="12.167485"><ele>766.0</ele><time>2026-04-06T13:23:35.009Z</time></trkpt><trkpt lat="43.83678" lon="12.1675367"><ele>766.0</ele><time>2026-04-06T13:23:36.007Z</time></trkpt><trkpt lat="43.8368517" lon="12.1676017"><ele>766.0</ele><time>2026-04-06T13:23:37.009Z</time></trkpt><trkpt lat="43.836905" lon="12.1676717"><ele>769.8</ele><time>2026-04-06T13:23:38.008Z</time></trkpt><trkpt lat="43.8369441" lon="12.1677559"><ele>773.5999999999999</ele><time>2026-04-06T13:23:39.008Z</time></trkpt><trkpt lat="43.8369553" lon="12.1678554"><ele>777.4</ele><time>2026-04-06T13:23:40.007Z</time></trkpt><trkpt lat="43.8369085" lon="12.1680075"><ele>781.2</ele><time>2026-04-06T13:23:41.009Z</time></trkpt><trkpt lat="43.8368507" lon="12.168162"><ele>785.0</ele><time>2026-04-06T13:23:42.006Z</time></trkpt><trkpt lat="43.8368103" lon="12.1683054"><ele>785.0000000000001</ele><time>2026-04-06T13:23:43.006Z</time></trkpt><trkpt lat="43.8367952" lon="12.1684307"><ele>785.0</ele><time>2026-04-06T13:23:44.011Z</time></trkpt><trkpt lat="43.8367996" lon="12.1685453"><ele>785.0</ele><time>2026-04-06T13:23:45.007Z</time></trkpt><trkpt lat="43.8368254" lon="12.1686433"><ele>785.0</ele><time>2026-04-06T13:23:46.012Z</time></trkpt><trkpt lat="43.8368895" lon="12.1686958"><ele>785.0000000000001</ele><time>2026-04-06T13:23:47.005Z</time></trkpt><trkpt lat="43.8369696" lon="12.1687356"><ele>785.0</ele><time>2026-04-06T13:23:48.008Z</time></trkpt><trkpt lat="43.8370599" lon="12.1687903"><ele>785.0</ele><time>2026-04-06T13:23:49.008Z</time></trkpt><trkpt lat="43.8371344" lon="12.1688789"><ele>785.0</ele><time>2026-04-06T13:23:50.007Z</time></trkpt><trkpt lat="43.8372031" lon="12.1689768"><ele>785.0</ele><time>2026-04-06T13:23:51.008Z</time></trkpt><trkpt lat="43.837275" lon="12.169058"><ele>785.0</ele><time>2026-04-06T13:23:52.008Z</time></trkpt><trkpt lat="43.8373506" lon="12.1691111"><ele>785.0</ele><time>2026-04-06T13:23:53.009Z</time></trkpt><trkpt lat="43.8374296" lon="12.1691377"><ele>783.0</ele><time>2026-04-06T13:23:54.007Z</time></trkpt><trkpt lat="43.8375163" lon="12.1691439"><ele>781.0</ele><time>2026-04-06T13:23:55.009Z</time></trkpt><trkpt lat="43.8375933" lon="12.1691583"><ele>779.0</ele><time>2026-04-06T13:23:56.006Z</time></trkpt><trkpt lat="43.8376602" lon="12.1691835"><ele>777.0</ele><time>2026-04-06T13:23:57.008Z</time></trkpt><trkpt lat="43.8377135" lon="12.1692331"><ele>775.0</ele><time>2026-04-06T13:23:58.006Z</time></trkpt><trkpt lat="43.8377617" lon="12.1692963"><ele>773.0</ele><time>2026-04-06T13:23:59.008Z</time></trkpt><trkpt lat="43.8378142" lon="12.1693646"><ele>771.0</ele><time>2026-04-06T13:24:00.006Z</time></trkpt><trkpt lat="43.8378771" lon="12.1694197"><ele>771.0</ele><time>2026-04-06T13:24:01.006Z</time></trkpt><trkpt lat="43.8379513" lon="12.1694585"><ele>771.0</ele><time>2026-04-06T13:24:02.007Z</time></trkpt><trkpt lat="43.8380591" lon="12.1694714"><ele>771.0</ele><time>2026-04-06T13:24:03.009Z</time></trkpt><trkpt lat="43.838172" lon="12.1694793"><ele>771.0</ele><time>2026-04-06T13:24:04.007Z</time></trkpt><trkpt lat="43.8382712" lon="12.169511"><ele>771.0</ele><time>2026-04-06T13:24:05.007Z</time></trkpt><trkpt lat="43.8383561" lon="12.1695605"><ele>771.0</ele><time>2026-04-06T13:24:06.008Z</time></trkpt><trkpt lat="43.8384237" lon="12.1696262"><ele>771.0</ele><time>2026-04-06T13:24:07.007Z</time></trkpt><trkpt lat="43.8384578" lon="12.1697093"><ele>771.0</ele><time>2026-04-06T13:24:08.007Z</time></trkpt><trkpt lat="43.8384737" lon="12.1698578"><ele>771.0</ele><time>2026-04-06T13:24:10.006Z</time></trkpt><trkpt lat="43.8384275" lon="12.1700216"><ele>771.0</ele><time>2026-04-06T13:24:12.007Z</time></trkpt><trkpt lat="43.8383819" lon="12.1701198"><ele>767.5</ele><time>2026-04-06T13:24:13.008Z</time></trkpt><trkpt lat="43.8383288" lon="12.1702221"><ele>764.0</ele><time>2026-04-06T13:24:14.011Z</time></trkpt><trkpt lat="43.838284" lon="12.1703203"><ele>760.5</ele><time>2026-04-06T13:24:15.008Z</time></trkpt><trkpt lat="43.838251" lon="12.1704163"><ele>757.0</ele><time>2026-04-06T13:24:16.009Z</time></trkpt><trkpt lat="43.8382365" lon="12.1705108"><ele>753.5</ele><time>2026-04-06T13:24:17.008Z</time></trkpt><trkpt lat="43.8382744" lon="12.1706131"><ele>750.0</ele><time>2026-04-06T13:24:18.007Z</time></trkpt><trkpt lat="43.838328" lon="12.1707129"><ele>749.1666666666666</ele><time>2026-04-06T13:24:19.011Z</time></trkpt><trkpt lat="43.838373" lon="12.1708126"><ele>748.3333333333334</ele><time>2026-04-06T13:24:20.008Z</time></trkpt><trkpt lat="43.8384019" lon="12.170916"><ele>747.5</ele><time>2026-04-06T13:24:21.008Z</time></trkpt><trkpt lat="43.8383954" lon="12.1710179"><ele>746.6666666666667</ele><time>2026-04-06T13:24:22.009Z</time></trkpt><trkpt lat="43.8383589" lon="12.171113"><ele>745.8333333333334</ele><time>2026-04-06T13:24:23.008Z</time></trkpt><trkpt lat="43.8382683" lon="12.1711849"><ele>745.0</ele><time>2026-04-06T13:24:24.01Z</time></trkpt><trkpt lat="43.8381545" lon="12.1712417"><ele>745.0</ele><time>2026-04-06T13:24:25.01Z</time></trkpt><trkpt lat="43.8380189" lon="12.1712825"><ele>745.0</ele><time>2026-04-06T13:24:26.008Z</time></trkpt><trkpt lat="43.8378603" lon="12.1713035"><ele>745.0</ele><time>2026-04-06T13:24:27.009Z</time></trkpt><trkpt lat="43.8376996" lon="12.1713105"><ele>740.75</ele><time>2026-04-06T13:24:28.009Z</time></trkpt><trkpt lat="43.837546" lon="12.1713141"><ele>736.5</ele><time>2026-04-06T13:24:29.008Z</time></trkpt><trkpt lat="43.8374043" lon="12.1713242"><ele>732.25</ele><time>2026-04-06T13:24:30.009Z</time></trkpt><trkpt lat="43.8372746" lon="12.1713542"><ele>728.0</ele><time>2026-04-06T13:24:31.009Z</time></trkpt><trkpt lat="43.8371611" lon="12.1714104"><ele>728.0</ele><time>2026-04-06T13:24:32.009Z</time></trkpt><trkpt lat="43.8370692" lon="12.1714937"><ele>728.0</ele><time>2026-04-06T13:24:33.011Z</time></trkpt><trkpt lat="43.8369942" lon="12.1716062"><ele>728.0</ele><time>2026-04-06T13:24:34.011Z</time></trkpt><trkpt lat="43.83692" lon="12.1717311"><ele>728.0</ele><time>2026-04-06T13:24:35.007Z</time></trkpt><trkpt lat="43.836831" lon="12.1718409"><ele>727.5999999999999</ele><time>2026-04-06T13:24:36.01Z</time></trkpt><trkpt lat="43.8367238" lon="12.1719097"><ele>727.1999999999999</ele><time>2026-04-06T13:24:37.009Z</time></trkpt><trkpt lat="43.836613" lon="12.1719392"><ele>726.8</ele><time>2026-04-06T13:24:38.009Z</time></trkpt><trkpt lat="43.8365115" lon="12.1719684"><ele>726.4</ele><time>2026-04-06T13:24:39.014Z</time></trkpt><trkpt lat="43.836433" lon="12.1720298"><ele>726.0</ele><time>2026-04-06T13:24:40.009Z</time></trkpt><trkpt lat="43.8363645" lon="12.1721214"><ele>726.0</ele><time>2026-04-06T13:24:41.008Z</time></trkpt><trkpt lat="43.8363231" lon="12.172257"><ele>726.0</ele><time>2026-04-06T13:24:42.01Z</time></trkpt><trkpt lat="43.8362834" lon="12.1724121"><ele>726.0</ele><time>2026-04-06T13:24:43.008Z</time></trkpt><trkpt lat="43.8362237" lon="12.17257"><ele>726.0</ele><time>2026-04-06T13:24:44.007Z</time></trkpt><trkpt lat="43.8361363" lon="12.1727084"><ele>724.25</ele><time>2026-04-06T13:24:45.008Z</time></trkpt><trkpt lat="43.8360358" lon="12.1728257"><ele>722.5</ele><time>2026-04-06T13:24:46.008Z</time></trkpt><trkpt lat="43.8359401" lon="12.1729416"><ele>720.75</ele><time>2026-04-06T13:24:47.007Z</time></trkpt><trkpt lat="43.8358501" lon="12.1730538"><ele>719.0</ele><time>2026-04-06T13:24:48.01Z</time></trkpt><trkpt lat="43.8357588" lon="12.173135"><ele>719.0</ele><time>2026-04-06T13:24:49.005Z</time></trkpt><trkpt lat="43.8356538" lon="12.1731796"><ele>719.0</ele><time>2026-04-06T13:24:50.007Z</time></trkpt><trkpt lat="43.8355294" lon="12.1731912"><ele>719.0</ele><time>2026-04-06T13:24:51.011Z</time></trkpt><trkpt lat="43.8353937" lon="12.1731709"><ele>719.0</ele><time>2026-04-06T13:24:52.007Z</time></trkpt><trkpt lat="43.8352584" lon="12.173134"><ele>719.0</ele><time>2026-04-06T13:24:53.009Z</time></trkpt><trkpt lat="43.83514" lon="12.1730941"><ele>719.0</ele><time>2026-04-06T13:24:54.008Z</time></trkpt><trkpt lat="43.8350385" lon="12.1730726"><ele>719.0</ele><time>2026-04-06T13:24:55.011Z</time></trkpt><trkpt lat="43.8349505" lon="12.1730913"><ele>719.0</ele><time>2026-04-06T13:24:56.008Z</time></trkpt><trkpt lat="43.8348765" lon="12.1731457"><ele>719.0</ele><time>2026-04-06T13:24:57.009Z</time></trkpt><trkpt lat="43.8348081" lon="12.173223"><ele>719.4000000000001</ele><time>2026-04-06T13:24:58.008Z</time></trkpt><trkpt lat="43.8347328" lon="12.1732985"><ele>719.8</ele><time>2026-04-06T13:24:59.008Z</time></trkpt><trkpt lat="43.8346451" lon="12.1733567"><ele>720.2</ele><time>2026-04-06T13:25:00.011Z</time></trkpt><trkpt lat="43.8345502" lon="12.1733824"><ele>720.5999999999999</ele><time>2026-04-06T13:25:01.007Z</time></trkpt><trkpt lat="43.834452" lon="12.1733898"><ele>721.0</ele><time>2026-04-06T13:25:02.01Z</time></trkpt><trkpt lat="43.8343459" lon="12.1734022"><ele>716.5</ele><time>2026-04-06T13:25:03.008Z</time></trkpt><trkpt lat="43.8342284" lon="12.1734328"><ele>712.0</ele><time>2026-04-06T13:25:04.007Z</time></trkpt><trkpt lat="43.8341052" lon="12.1734923"><ele>707.5</ele><time>2026-04-06T13:25:05.006Z</time></trkpt><trkpt lat="43.8339878" lon="12.1735746"><ele>703.0</ele><time>2026-04-06T13:25:06.007Z</time></trkpt><trkpt lat="43.8338787" lon="12.1736731"><ele>703.0</ele><time>2026-04-06T13:25:07.006Z</time></trkpt><trkpt lat="43.8337908" lon="12.1737775"><ele>703.0</ele><time>2026-04-06T13:25:08.008Z</time></trkpt><trkpt lat="43.8337189" lon="12.1738885"><ele>703.0</ele><time>2026-04-06T13:25:09.007Z</time></trkpt><trkpt lat="43.8336585" lon="12.1740058"><ele>703.0</ele><time>2026-04-06T13:25:10.007Z</time></trkpt><trkpt lat="43.8336072" lon="12.1741321"><ele>703.0</ele><time>2026-04-06T13:25:11.005Z</time></trkpt><trkpt lat="43.8335543" lon="12.1742712"><ele>702.0</ele><time>2026-04-06T13:25:12.009Z</time></trkpt><trkpt lat="43.8334962" lon="12.1744137"><ele>701.0</ele><time>2026-04-06T13:25:13.007Z</time></trkpt><trkpt lat="43.8334322" lon="12.1745565"><ele>700.0</ele><time>2026-04-06T13:25:14.008Z</time></trkpt><trkpt lat="43.8333799" lon="12.1747014"><ele>699.0</ele><time>2026-04-06T13:25:15.012Z</time></trkpt><trkpt lat="43.8333518" lon="12.1748468"><ele>700.8000000000001</ele><time>2026-04-06T13:25:16.008Z</time></trkpt><trkpt lat="43.8333447" lon="12.1749967"><ele>702.6</ele><time>2026-04-06T13:25:17.006Z</time></trkpt><trkpt lat="43.8333449" lon="12.1751507"><ele>704.4</ele><time>2026-04-06T13:25:18.006Z</time></trkpt><trkpt lat="43.8333486" lon="12.1753079"><ele>706.2</ele><time>2026-04-06T13:25:19.01Z</time></trkpt><trkpt lat="43.8333355" lon="12.1754567"><ele>708.0</ele><time>2026-04-06T13:25:20.007Z</time></trkpt><trkpt lat="43.833309" lon="12.1755865"><ele>708.3333333333334</ele><time>2026-04-06T13:25:21.012Z</time></trkpt><trkpt lat="43.8332809" lon="12.1757037"><ele>708.6666666666666</ele><time>2026-04-06T13:25:22.008Z</time></trkpt><trkpt lat="43.8332637" lon="12.1758175"><ele>709.0</ele><time>2026-04-06T13:25:23.007Z</time></trkpt><trkpt lat="43.8332633" lon="12.1759294"><ele>709.3333333333333</ele><time>2026-04-06T13:25:24.008Z</time></trkpt><trkpt lat="43.8332813" lon="12.1760258"><ele>709.6666666666666</ele><time>2026-04-06T13:25:25.007Z</time></trkpt><trkpt lat="43.8333349" lon="12.1761173"><ele>710.0</ele><time>2026-04-06T13:25:26.008Z</time></trkpt><trkpt lat="43.8334213" lon="12.1762161"><ele>714.6666666666666</ele><time>2026-04-06T13:25:27.008Z</time></trkpt><trkpt lat="43.8335497" lon="12.1763399"><ele>719.3333333333334</ele><time>2026-04-06T13:25:28.008Z</time></trkpt><trkpt lat="43.8336717" lon="12.1764661"><ele>724.0</ele><time>2026-04-06T13:25:29.008Z</time></trkpt><trkpt lat="43.8337832" lon="12.1766062"><ele>724.0</ele><time>2026-04-06T13:25:30.008Z</time></trkpt><trkpt lat="43.8338848" lon="12.176746"><ele>724.0</ele><time>2026-04-06T13:25:31.007Z</time></trkpt><trkpt lat="43.8339837" lon="12.1768784"><ele>724.0</ele><time>2026-04-06T13:25:32.01Z</time></trkpt><trkpt lat="43.834091" lon="12.176993"><ele>724.0</ele><time>2026-04-06T13:25:33.008Z</time></trkpt><trkpt lat="43.834211" lon="12.1770944"><ele>723.25</ele><time>2026-04-06T13:25:34.008Z</time></trkpt><trkpt lat="43.8343334" lon="12.1771934"><ele>722.5</ele><time>2026-04-06T13:25:35.005Z</time></trkpt><trkpt lat="43.8344462" lon="12.1773016"><ele>721.75</ele><time>2026-04-06T13:25:36.009Z</time></trkpt><trkpt lat="43.834544" lon="12.1774154"><ele>721.0</ele><time>2026-04-06T13:25:37.007Z</time></trkpt><trkpt lat="43.8346334" lon="12.1775351"><ele>721.0</ele><time>2026-04-06T13:25:38.008Z</time></trkpt><trkpt lat="43.8347091" lon="12.17766"><ele>721.0</ele><time>2026-04-06T13:25:39.009Z</time></trkpt><trkpt lat="43.8347679" lon="12.1777865"><ele>721.0</ele><time>2026-04-06T13:25:40.007Z</time></trkpt><trkpt lat="43.8348127" lon="12.1779056"><ele>721.0</ele><time>2026-04-06T13:25:41.009Z</time></trkpt><trkpt lat="43.8348419" lon="12.1780261"><ele>721.0</ele><time>2026-04-06T13:25:42.006Z</time></trkpt><trkpt lat="43.8348543" lon="12.1781489"><ele>718.5999999999999</ele><time>2026-04-06T13:25:43.007Z</time></trkpt><trkpt lat="43.8348502" lon="12.1782739"><ele>716.2</ele><time>2026-04-06T13:25:44.012Z</time></trkpt><trkpt lat="43.8348127" lon="12.1784007"><ele>713.8</ele><time>2026-04-06T13:25:45.008Z</time></trkpt><trkpt lat="43.8347504" lon="12.1785243"><ele>711.4000000000001</ele><time>2026-04-06T13:25:46.007Z</time></trkpt><trkpt lat="43.8346608" lon="12.1786376"><ele>709.0</ele><time>2026-04-06T13:25:47.008Z</time></trkpt><trkpt lat="43.8345611" lon="12.1787408"><ele>709.0</ele><time>2026-04-06T13:25:48.006Z</time></trkpt><trkpt lat="43.8344648" lon="12.1788477"><ele>709.0</ele><time>2026-04-06T13:25:49.006Z</time></trkpt><trkpt lat="43.8343829" lon="12.178968"><ele>709.0</ele><time>2026-04-06T13:25:50.008Z</time></trkpt><trkpt lat="43.8343177" lon="12.1791068"><ele>709.0</ele><time>2026-04-06T13:25:51.007Z</time></trkpt><trkpt lat="43.8342702" lon="12.1792526"><ele>707.2</ele><time>2026-04-06T13:25:52.007Z</time></trkpt><trkpt lat="43.8342493" lon="12.1794013"><ele>705.4000000000001</ele><time>2026-04-06T13:25:53.007Z</time></trkpt><trkpt lat="43.8342482" lon="12.1795444"><ele>703.6</ele><time>2026-04-06T13:25:54.006Z</time></trkpt><trkpt lat="43.8342642" lon="12.1796859"><ele>701.8</ele><time>2026-04-06T13:25:55.01Z</time></trkpt><trkpt lat="43.8343004" lon="12.1798229"><ele>700.0</ele><time>2026-04-06T13:25:56.007Z</time></trkpt><trkpt lat="43.8343637" lon="12.1799621"><ele>700.0</ele><time>2026-04-06T13:25:57.007Z</time></trkpt><trkpt lat="43.8344509" lon="12.1801072"><ele>700.0</ele><time>2026-04-06T13:25:58.009Z</time></trkpt><trkpt lat="43.8345565" lon="12.180254"><ele>700.0</ele><time>2026-04-06T13:25:59.006Z</time></trkpt><trkpt lat="43.8346778" lon="12.1803978"><ele>700.0</ele><time>2026-04-06T13:26:00.009Z</time></trkpt><trkpt lat="43.8348053" lon="12.1805284"><ele>700.0</ele><time>2026-04-06T13:26:01.01Z</time></trkpt><trkpt lat="43.8349316" lon="12.1806488"><ele>700.0</ele><time>2026-04-06T13:26:02.009Z</time></trkpt><trkpt lat="43.8350531" lon="12.1807548"><ele>700.0</ele><time>2026-04-06T13:26:03.009Z</time></trkpt><trkpt lat="43.8351703" lon="12.1808415"><ele>700.0</ele><time>2026-04-06T13:26:04.008Z</time></trkpt><trkpt lat="43.8352881" lon="12.1809047"><ele>695.0</ele><time>2026-04-06T13:26:05.009Z</time></trkpt><trkpt lat="43.8354133" lon="12.1809405"><ele>690.0</ele><time>2026-04-06T13:26:06.008Z</time></trkpt><trkpt lat="43.8355507" lon="12.1809553"><ele>685.0</ele><time>2026-04-06T13:26:07.009Z</time></trkpt><trkpt lat="43.8356958" lon="12.1809593"><ele>680.0</ele><time>2026-04-06T13:26:08.008Z</time></trkpt><trkpt lat="43.8358366" lon="12.1809635"><ele>680.0</ele><time>2026-04-06T13:26:09.008Z</time></trkpt><trkpt lat="43.8359685" lon="12.1809678"><ele>680.0</ele><time>2026-04-06T13:26:10.01Z</time></trkpt><trkpt lat="43.8360829" lon="12.1809562"><ele>680.0</ele><time>2026-04-06T13:26:11.01Z</time></trkpt><trkpt lat="43.836189" lon="12.1809156"><ele>680.0</ele><time>2026-04-06T13:26:12.012Z</time></trkpt><trkpt lat="43.8362897" lon="12.1808445"><ele>679.0</ele><time>2026-04-06T13:26:13.006Z</time></trkpt><trkpt lat="43.8363888" lon="12.1807697"><ele>678.0</ele><time>2026-04-06T13:26:14.006Z</time></trkpt><trkpt lat="43.8364887" lon="12.1807178"><ele>677.0</ele><time>2026-04-06T13:26:15.008Z</time></trkpt><trkpt lat="43.8365862" lon="12.1807044"><ele>676.0</ele><time>2026-04-06T13:26:16.007Z</time></trkpt><trkpt lat="43.836676" lon="12.1807205"><ele>675.0</ele><time>2026-04-06T13:26:17.01Z</time></trkpt><trkpt lat="43.8367551" lon="12.1807678"><ele>678.4</ele><time>2026-04-06T13:26:18.006Z</time></trkpt><trkpt lat="43.8368251" lon="12.1808411"><ele>681.8</ele><time>2026-04-06T13:26:19.007Z</time></trkpt><trkpt lat="43.8368833" lon="12.1809384"><ele>685.2</ele><time>2026-04-06T13:26:20.008Z</time></trkpt><trkpt lat="43.8369453" lon="12.1810535"><ele>688.6</ele><time>2026-04-06T13:26:21.01Z</time></trkpt><trkpt lat="43.8370258" lon="12.1811631"><ele>692.0</ele><time>2026-04-06T13:26:22.01Z</time></trkpt><trkpt lat="43.8371309" lon="12.1812622"><ele>692.0</ele><time>2026-04-06T13:26:23.006Z</time></trkpt><trkpt lat="43.8372503" lon="12.1813672"><ele>692.0</ele><time>2026-04-06T13:26:24.007Z</time></trkpt><trkpt lat="43.837375" lon="12.1814883"><ele>692.0</ele><time>2026-04-06T13:26:25.008Z</time></trkpt><trkpt lat="43.8374987" lon="12.1816169"><ele>692.0</ele><time>2026-04-06T13:26:26.009Z</time></trkpt><trkpt lat="43.8376216" lon="12.1817378"><ele>688.5</ele><time>2026-04-06T13:26:27.008Z</time></trkpt><trkpt lat="43.8377463" lon="12.1818495"><ele>685.0</ele><time>2026-04-06T13:26:28.007Z</time></trkpt><trkpt lat="43.8378774" lon="12.1819419"><ele>681.5</ele><time>2026-04-06T13:26:29.008Z</time></trkpt><trkpt lat="43.838017" lon="12.1820197"><ele>678.0</ele><time>2026-04-06T13:26:30.009Z</time></trkpt><trkpt lat="43.8381567" lon="12.1820995"><ele>678.0</ele><time>2026-04-06T13:26:31.01Z</time></trkpt><trkpt lat="43.8382866" lon="12.1821864"><ele>678.0</ele><time>2026-04-06T13:26:32.008Z</time></trkpt><trkpt lat="43.8383981" lon="12.1822752"><ele>678.0</ele><time>2026-04-06T13:26:33.01Z</time></trkpt><trkpt lat="43.8384885" lon="12.1823566"><ele>678.0</ele><time>2026-04-06T13:26:34.007Z</time></trkpt><trkpt lat="43.838551" lon="12.1824278"><ele>674.6666666666666</ele><time>2026-04-06T13:26:35.008Z</time></trkpt><trkpt lat="43.8385905" lon="12.1824975"><ele>671.3333333333334</ele><time>2026-04-06T13:26:36.008Z</time></trkpt><trkpt lat="43.8385797" lon="12.1826322"><ele>668.0</ele><time>2026-04-06T13:26:38.009Z</time></trkpt><trkpt lat="43.8384656" lon="12.1827033"><ele>664.6666666666667</ele><time>2026-04-06T13:26:40.01Z</time></trkpt><trkpt lat="43.8383897" lon="12.1827364"><ele>661.3333333333334</ele><time>2026-04-06T13:26:41.007Z</time></trkpt><trkpt lat="43.8383151" lon="12.1827862"><ele>658.0</ele><time>2026-04-06T13:26:42.01Z</time></trkpt><trkpt lat="43.8382841" lon="12.1828641"><ele>658.0</ele><time>2026-04-06T13:26:43.009Z</time></trkpt><trkpt lat="43.8382841" lon="12.1829517"><ele>658.0</ele><time>2026-04-06T13:26:44.007Z</time></trkpt><trkpt lat="43.8383293" lon="12.1830547"><ele>658.0</ele><time>2026-04-06T13:26:45.009Z</time></trkpt><trkpt lat="43.8383953" lon="12.1831733"><ele>658.0</ele><time>2026-04-06T13:26:46.008Z</time></trkpt><trkpt lat="43.8384611" lon="12.1833114"><ele>658.0</ele><time>2026-04-06T13:26:47.007Z</time></trkpt><trkpt lat="43.8385078" lon="12.1834654"><ele>655.5</ele><time>2026-04-06T13:26:48.007Z</time></trkpt><trkpt lat="43.8385193" lon="12.1836328"><ele>653.0</ele><time>2026-04-06T13:26:49.009Z</time></trkpt><trkpt lat="43.8384917" lon="12.1838008"><ele>650.5</ele><time>2026-04-06T13:26:50.007Z</time></trkpt><trkpt lat="43.8384256" lon="12.1839619"><ele>648.0</ele><time>2026-04-06T13:26:51.007Z</time></trkpt><trkpt lat="43.8383431" lon="12.184119"><ele>648.0</ele><time>2026-04-06T13:26:52.007Z</time></trkpt><trkpt lat="43.8382657" lon="12.1842807"><ele>648.0</ele><time>2026-04-06T13:26:53.006Z</time></trkpt><trkpt lat="43.8381917" lon="12.1844566"><ele>648.0</ele><time>2026-04-06T13:26:54.008Z</time></trkpt><trkpt lat="43.8381244" lon="12.1846464"><ele>648.0</ele><time>2026-04-06T13:26:55.01Z</time></trkpt><trkpt lat="43.8380635" lon="12.1848526"><ele>648.0</ele><time>2026-04-06T13:26:56.008Z</time></trkpt><trkpt lat="43.8380071" lon="12.1850743"><ele>648.0</ele><time>2026-04-06T13:26:57.008Z</time></trkpt><trkpt lat="43.837957" lon="12.1853127"><ele>648.0</ele><time>2026-04-06T13:26:58.009Z</time></trkpt><trkpt lat="43.8379166" lon="12.1855621"><ele>649.6666666666666</ele><time>2026-04-06T13:26:59.007Z</time></trkpt><trkpt lat="43.8378944" lon="12.1858186"><ele>651.3333333333333</ele><time>2026-04-06T13:27:00.009Z</time></trkpt><trkpt lat="43.837891" lon="12.1860816"><ele>653.0</ele><time>2026-04-06T13:27:01.007Z</time></trkpt><trkpt lat="43.8378984" lon="12.1863482"><ele>654.6666666666666</ele><time>2026-04-06T13:27:02.008Z</time></trkpt><trkpt lat="43.8379025" lon="12.1866142"><ele>656.3333333333334</ele><time>2026-04-06T13:27:03.008Z</time></trkpt><trkpt lat="43.8379092" lon="12.1868766"><ele>658.0</ele><time>2026-04-06T13:27:04.007Z</time></trkpt><trkpt lat="43.837922" lon="12.1871294"><ele>659.6666666666667</ele><time>2026-04-06T13:27:05.006Z</time></trkpt><trkpt lat="43.8379358" lon="12.1873698"><ele>661.3333333333334</ele><time>2026-04-06T13:27:06.009Z</time></trkpt><trkpt lat="43.8379426" lon="12.187592"><ele>663.0</ele><time>2026-04-06T13:27:07.008Z</time></trkpt><trkpt lat="43.8379374" lon="12.1878026"><ele>663.0</ele><time>2026-04-06T13:27:08.009Z</time></trkpt><trkpt lat="43.8379137" lon="12.1880066"><ele>663.0</ele><time>2026-04-06T13:27:09.007Z</time></trkpt><trkpt lat="43.8378692" lon="12.1882035"><ele>663.0</ele><time>2026-04-06T13:27:10.011Z</time></trkpt><trkpt lat="43.8378095" lon="12.1883926"><ele>663.0</ele><time>2026-04-06T13:27:11.006Z</time></trkpt><trkpt lat="43.8377408" lon="12.1885638"><ele>664.75</ele><time>2026-04-06T13:27:12.007Z</time></trkpt><trkpt lat="43.8376678" lon="12.1887089"><ele>666.5</ele><time>2026-04-06T13:27:13.006Z</time></trkpt><trkpt lat="43.8375977" lon="12.1888328"><ele>668.25</ele><time>2026-04-06T13:27:14.008Z</time></trkpt><trkpt lat="43.8375246" lon="12.1889588"><ele>670.0</ele><time>2026-04-06T13:27:15.007Z</time></trkpt><trkpt lat="43.8374354" lon="12.1890941"><ele>672.5</ele><time>2026-04-06T13:27:16.007Z</time></trkpt><trkpt lat="43.8373316" lon="12.1892402"><ele>675.0</ele><time>2026-04-06T13:27:17.008Z</time></trkpt><trkpt lat="43.8372411" lon="12.1893967"><ele>677.5</ele><time>2026-04-06T13:27:18.008Z</time></trkpt><trkpt lat="43.8371702" lon="12.1895656"><ele>680.0</ele><time>2026-04-06T13:27:19.011Z</time></trkpt><trkpt lat="43.8371276" lon="12.1897567"><ele>681.0</ele><time>2026-04-06T13:27:20.007Z</time></trkpt><trkpt lat="43.8370938" lon="12.189966"><ele>682.0</ele><time>2026-04-06T13:27:21.008Z</time></trkpt><trkpt lat="43.8370529" lon="12.190178"><ele>683.0</ele><time>2026-04-06T13:27:22.008Z</time></trkpt><trkpt lat="43.8369997" lon="12.1903794"><ele>683.0</ele><time>2026-04-06T13:27:23.006Z</time></trkpt><trkpt lat="43.8369406" lon="12.1905568"><ele>683.0</ele><time>2026-04-06T13:27:24.008Z</time></trkpt><trkpt lat="43.836893" lon="12.1907227"><ele>683.0</ele><time>2026-04-06T13:27:25.009Z</time></trkpt><trkpt lat="43.8368609" lon="12.1908892"><ele>683.0</ele><time>2026-04-06T13:27:26.007Z</time></trkpt><trkpt lat="43.8368427" lon="12.1910578"><ele>683.25</ele><time>2026-04-06T13:27:27.008Z</time></trkpt><trkpt lat="43.8368254" lon="12.1912254"><ele>683.5</ele><time>2026-04-06T13:27:28.008Z</time></trkpt><trkpt lat="43.8367971" lon="12.191389"><ele>683.75</ele><time>2026-04-06T13:27:29.006Z</time></trkpt><trkpt lat="43.8367448" lon="12.1915403"><ele>684.0</ele><time>2026-04-06T13:27:30.011Z</time></trkpt><trkpt lat="43.8366653" lon="12.1916712"><ele>679.0</ele><time>2026-04-06T13:27:31.009Z</time></trkpt><trkpt lat="43.8365546" lon="12.1917771"><ele>674.0</ele><time>2026-04-06T13:27:32.007Z</time></trkpt><trkpt lat="43.8364281" lon="12.1918667"><ele>669.0</ele><time>2026-04-06T13:27:33.007Z</time></trkpt><trkpt lat="43.8363026" lon="12.1919482"><ele>664.0</ele><time>2026-04-06T13:27:34.008Z</time></trkpt><trkpt lat="43.8361819" lon="12.1920227"><ele>664.0</ele><time>2026-04-06T13:27:35.012Z</time></trkpt><trkpt lat="43.836072" lon="12.1920895"><ele>664.0</ele><time>2026-04-06T13:27:36.008Z</time></trkpt><trkpt lat="43.8359693" lon="12.1921533"><ele>664.0</ele><time>2026-04-06T13:27:37.008Z</time></trkpt><trkpt lat="43.8358821" lon="12.1922169"><ele>664.0</ele><time>2026-04-06T13:27:38.01Z</time></trkpt><trkpt lat="43.8358081" lon="12.1922813"><ele>664.0</ele><time>2026-04-06T13:27:39.009Z</time></trkpt><trkpt lat="43.835747" lon="12.1923463"><ele>662.3333333333334</ele><time>2026-04-06T13:27:40.007Z</time></trkpt><trkpt lat="43.835696" lon="12.1924107"><ele>660.6666666666667</ele><time>2026-04-06T13:27:41.007Z</time></trkpt><trkpt lat="43.83565" lon="12.1924715"><ele>659.0</ele><time>2026-04-06T13:27:42.007Z</time></trkpt><trkpt lat="43.8355988" lon="12.1925795"><ele>657.3333333333334</ele><time>2026-04-06T13:27:44.006Z</time></trkpt><trkpt lat="43.8356747" lon="12.1924599"><ele>655.6666666666666</ele><time>2026-04-06T13:28:10.008Z</time></trkpt><trkpt lat="43.8357188" lon="12.1923684"><ele>654.0</ele><time>2026-04-06T13:28:11.008Z</time></trkpt><trkpt lat="43.8357713" lon="12.1922804"><ele>653.5</ele><time>2026-04-06T13:28:12.006Z</time></trkpt><trkpt lat="43.8358424" lon="12.1922077"><ele>653.0</ele><time>2026-04-06T13:28:13.009Z</time></trkpt><trkpt lat="43.8359169" lon="12.1921558"><ele>652.5</ele><time>2026-04-06T13:28:14.007Z</time></trkpt><trkpt lat="43.8359798" lon="12.1921244"><ele>652.0</ele><time>2026-04-06T13:28:15.007Z</time></trkpt><trkpt lat="43.8360508" lon="12.1921144"><ele>651.5</ele><time>2026-04-06T13:28:17.006Z</time></trkpt><trkpt lat="43.8361018" lon="12.1922256"><ele>651.0</ele><time>2026-04-06T13:28:26.006Z</time></trkpt><trkpt lat="43.836167" lon="12.1922903"><ele>653.0</ele><time>2026-04-06T13:28:27.007Z</time></trkpt><trkpt lat="43.8362458" lon="12.1923574"><ele>655.0</ele><time>2026-04-06T13:28:28.007Z</time></trkpt><trkpt lat="43.8363312" lon="12.1924359"><ele>657.0</ele><time>2026-04-06T13:28:29.007Z</time></trkpt><trkpt lat="43.8364297" lon="12.1925475"><ele>659.0</ele><time>2026-04-06T13:28:30.009Z</time></trkpt><trkpt lat="43.8365172" lon="12.1926963"><ele>659.0</ele><time>2026-04-06T13:28:31.008Z</time></trkpt><trkpt lat="43.8365907" lon="12.1928532"><ele>659.0</ele><time>2026-04-06T13:28:32.012Z</time></trkpt><trkpt lat="43.8366623" lon="12.1929984"><ele>659.0</ele><time>2026-04-06T13:28:33.011Z</time></trkpt><trkpt lat="43.8367314" lon="12.1931279"><ele>659.0</ele><time>2026-04-06T13:28:34.007Z</time></trkpt><trkpt lat="43.836808" lon="12.1932271"><ele>657.6</ele><time>2026-04-06T13:28:35.01Z</time></trkpt><trkpt lat="43.8368931" lon="12.1932921"><ele>656.2</ele><time>2026-04-06T13:28:36.009Z</time></trkpt><trkpt lat="43.8369767" lon="12.1933256"><ele>654.8000000000001</ele><time>2026-04-06T13:28:37.014Z</time></trkpt><trkpt lat="43.8370601" lon="12.1933256"><ele>653.4000000000001</ele><time>2026-04-06T13:28:38.008Z</time></trkpt><trkpt lat="43.8371524" lon="12.1932829"><ele>652.0</ele><time>2026-04-06T13:28:39.01Z</time></trkpt><trkpt lat="43.8372599" lon="12.1932283"><ele>652.0</ele><time>2026-04-06T13:28:40.009Z</time></trkpt><trkpt lat="43.8374077" lon="12.1931829"><ele>652.0</ele><time>2026-04-06T13:28:41.007Z</time></trkpt><trkpt lat="43.8375779" lon="12.1931451"><ele>652.0</ele><time>2026-04-06T13:28:42.007Z</time></trkpt><trkpt lat="43.8377535" lon="12.1931148"><ele>653.6666666666667</ele><time>2026-04-06T13:28:43.012Z</time></trkpt><trkpt lat="43.8379258" lon="12.1931015"><ele>655.3333333333334</ele><time>2026-04-06T13:28:44.01Z</time></trkpt><trkpt lat="43.8380918" lon="12.1931082"><ele>657.0</ele><time>2026-04-06T13:28:45.007Z</time></trkpt><trkpt lat="43.8382434" lon="12.1931348"><ele>654.0</ele><time>2026-04-06T13:28:46.007Z</time></trkpt><trkpt lat="43.8383843" lon="12.1931771"><ele>651.0</ele><time>2026-04-06T13:28:47.008Z</time></trkpt><trkpt lat="43.8385164" lon="12.1932513"><ele>648.0</ele><time>2026-04-06T13:28:48.009Z</time></trkpt><trkpt lat="43.8386453" lon="12.1933572"><ele>645.0</ele><time>2026-04-06T13:28:49.008Z</time></trkpt><trkpt lat="43.8387675" lon="12.1934725"><ele>644.25</ele><time>2026-04-06T13:28:50.007Z</time></trkpt><trkpt lat="43.8388813" lon="12.1935724"><ele>643.5</ele><time>2026-04-06T13:28:51.008Z</time></trkpt><trkpt lat="43.8389874" lon="12.1936387"><ele>642.75</ele><time>2026-04-06T13:28:52.007Z</time></trkpt><trkpt lat="43.8390924" lon="12.1936783"><ele>642.0</ele><time>2026-04-06T13:28:53.008Z</time></trkpt><trkpt lat="43.8392072" lon="12.1936912"><ele>641.0</ele><time>2026-04-06T13:28:54.009Z</time></trkpt><trkpt lat="43.8393438" lon="12.1936846"><ele>640.0</ele><time>2026-04-06T13:28:55.009Z</time></trkpt><trkpt lat="43.8394914" lon="12.1936795"><ele>639.0</ele><time>2026-04-06T13:28:56.007Z</time></trkpt><trkpt lat="43.8396358" lon="12.1937096"><ele>638.0</ele><time>2026-04-06T13:28:57.007Z</time></trkpt><trkpt lat="43.8397649" lon="12.1937845"><ele>638.0</ele><time>2026-04-06T13:28:58.007Z</time></trkpt><trkpt lat="43.8398817" lon="12.1938979"><ele>638.0</ele><time>2026-04-06T13:28:59.009Z</time></trkpt><trkpt lat="43.8399973" lon="12.1940325"><ele>638.0</ele><time>2026-04-06T13:29:00.007Z</time></trkpt><trkpt lat="43.8401123" lon="12.1941661"><ele>638.0</ele><time>2026-04-06T13:29:01.007Z</time></trkpt><trkpt lat="43.8402294" lon="12.1942949"><ele>638.5</ele><time>2026-04-06T13:29:02.008Z</time></trkpt><trkpt lat="43.8403439" lon="12.1944089"><ele>639.0</ele><time>2026-04-06T13:29:03.011Z</time></trkpt><trkpt lat="43.8404627" lon="12.1945012"><ele>639.5</ele><time>2026-04-06T13:29:04.008Z</time></trkpt><trkpt lat="43.8405897" lon="12.1945816"><ele>640.0</ele><time>2026-04-06T13:29:05.007Z</time></trkpt><trkpt lat="43.8407124" lon="12.1946757"><ele>640.0</ele><time>2026-04-06T13:29:06.011Z</time></trkpt><trkpt lat="43.8408201" lon="12.1948"><ele>640.0</ele><time>2026-04-06T13:29:07.008Z</time></trkpt><trkpt lat="43.8409113" lon="12.1949469"><ele>640.0</ele><time>2026-04-06T13:29:08.007Z</time></trkpt><trkpt lat="43.8409759" lon="12.1951256"><ele>640.0</ele><time>2026-04-06T13:29:09.008Z</time></trkpt><trkpt lat="43.8410168" lon="12.1953286"><ele>638.75</ele><time>2026-04-06T13:29:10.008Z</time></trkpt><trkpt lat="43.8410414" lon="12.1955335"><ele>637.5</ele><time>2026-04-06T13:29:11.007Z</time></trkpt><trkpt lat="43.8410653" lon="12.1957213"><ele>636.25</ele><time>2026-04-06T13:29:12.007Z</time></trkpt><trkpt lat="43.8411096" lon="12.1958831"><ele>635.0</ele><time>2026-04-06T13:29:13.008Z</time></trkpt><trkpt lat="43.8411796" lon="12.1960169"><ele>634.6</ele><time>2026-04-06T13:29:14.006Z</time></trkpt><trkpt lat="43.8412725" lon="12.1961171"><ele>634.2</ele><time>2026-04-06T13:29:15.008Z</time></trkpt><trkpt lat="43.84137" lon="12.1961942"><ele>633.8</ele><time>2026-04-06T13:29:16.007Z</time></trkpt><trkpt lat="43.8414562" lon="12.1962538"><ele>633.4</ele><time>2026-04-06T13:29:17.007Z</time></trkpt><trkpt lat="43.8415269" lon="12.1963126"><ele>633.0</ele><time>2026-04-06T13:29:18.008Z</time></trkpt><trkpt lat="43.8415787" lon="12.19642"><ele>633.0</ele><time>2026-04-06T13:29:20.009Z</time></trkpt><trkpt lat="43.8415015" lon="12.1964611"><ele>633.0</ele><time>2026-04-06T13:29:22.01Z</time></trkpt><trkpt lat="43.841433" lon="12.1964529"><ele>633.0</ele><time>2026-04-06T13:29:23.009Z</time></trkpt><trkpt lat="43.8413592" lon="12.1964437"><ele>633.0</ele><time>2026-04-06T13:29:24.007Z</time></trkpt><trkpt lat="43.8412577" lon="12.1964267"><ele>633.0</ele><time>2026-04-06T13:29:25.014Z</time></trkpt><trkpt lat="43.8411362" lon="12.1964071"><ele>633.0</ele><time>2026-04-06T13:29:26.007Z</time></trkpt><trkpt lat="43.8410199" lon="12.1963763"><ele>633.0</ele><time>2026-04-06T13:29:27.011Z</time></trkpt><trkpt lat="43.8409188" lon="12.1963281"><ele>633.0</ele><time>2026-04-06T13:29:28.006Z</time></trkpt><trkpt lat="43.8408346" lon="12.1962707"><ele>633.0</ele><time>2026-04-06T13:29:29.008Z</time></trkpt><trkpt lat="43.8407638" lon="12.1961915"><ele>633.0</ele><time>2026-04-06T13:29:30.007Z</time></trkpt><trkpt lat="43.8407066" lon="12.1960709"><ele>632.75</ele><time>2026-04-06T13:29:31.008Z</time></trkpt><trkpt lat="43.8406615" lon="12.1959035"><ele>632.5</ele><time>2026-04-06T13:29:32.007Z</time></trkpt><trkpt lat="43.8406241" lon="12.1957114"><ele>632.25</ele><time>2026-04-06T13:29:33.006Z</time></trkpt><trkpt lat="43.8405717" lon="12.195532"><ele>632.0</ele><time>2026-04-06T13:29:34.007Z</time></trkpt><trkpt lat="43.8404985" lon="12.1953846"><ele>631.75</ele><time>2026-04-06T13:29:35.006Z</time></trkpt><trkpt lat="43.8404105" lon="12.1952766"><ele>631.5</ele><time>2026-04-06T13:29:36.007Z</time></trkpt><trkpt lat="43.840302" lon="12.1952156"><ele>631.25</ele><time>2026-04-06T13:29:37.01Z</time></trkpt><trkpt lat="43.8401722" lon="12.1951922"><ele>631.0</ele><time>2026-04-06T13:29:38.009Z</time></trkpt><trkpt lat="43.8400341" lon="12.1951743"><ele>631.0</ele><time>2026-04-06T13:29:39.012Z</time></trkpt><trkpt lat="43.8399016" lon="12.195128"><ele>631.0</ele><time>2026-04-06T13:29:40.008Z</time></trkpt><trkpt lat="43.839774" lon="12.1950347"><ele>631.0</ele><time>2026-04-06T13:29:41.008Z</time></trkpt><trkpt lat="43.8396509" lon="12.1949161"><ele>631.0</ele><time>2026-04-06T13:29:42.013Z</time></trkpt><trkpt lat="43.8395296" lon="12.194814"><ele>632.5</ele><time>2026-04-06T13:29:43.008Z</time></trkpt><trkpt lat="43.8394113" lon="12.1947521"><ele>634.0</ele><time>2026-04-06T13:29:44.009Z</time></trkpt><trkpt lat="43.8392992" lon="12.1947412"><ele>635.5</ele><time>2026-04-06T13:29:45.009Z</time></trkpt><trkpt lat="43.8391895" lon="12.1947748"><ele>637.0</ele><time>2026-04-06T13:29:46.008Z</time></trkpt><trkpt lat="43.839072" lon="12.1948334"><ele>634.0</ele><time>2026-04-06T13:29:47.008Z</time></trkpt><trkpt lat="43.8389458" lon="12.1948986"><ele>631.0</ele><time>2026-04-06T13:29:48.009Z</time></trkpt><trkpt lat="43.8388059" lon="12.1949546"><ele>628.0</ele><time>2026-04-06T13:29:49.012Z</time></trkpt><trkpt lat="43.8386491" lon="12.1950089"><ele>625.0</ele><time>2026-04-06T13:29:50.009Z</time></trkpt><trkpt lat="43.8384841" lon="12.1950603"><ele>626.6666666666667</ele><time>2026-04-06T13:29:51.009Z</time></trkpt><trkpt lat="43.8383207" lon="12.1950975"><ele>628.3333333333334</ele><time>2026-04-06T13:29:52.008Z</time></trkpt><trkpt lat="43.8381659" lon="12.1951168"><ele>630.0</ele><time>2026-04-06T13:29:53.008Z</time></trkpt><trkpt lat="43.8380243" lon="12.1951154"><ele>630.0</ele><time>2026-04-06T13:29:54.01Z</time></trkpt><trkpt lat="43.8378914" lon="12.1950899"><ele>630.0</ele><time>2026-04-06T13:29:55.009Z</time></trkpt><trkpt lat="43.8377671" lon="12.1950327"><ele>630.0</ele><time>2026-04-06T13:29:56.009Z</time></trkpt><trkpt lat="43.8376406" lon="12.1949456"><ele>630.0</ele><time>2026-04-06T13:29:57.009Z</time></trkpt><trkpt lat="43.8375115" lon="12.1948387"><ele>631.6666666666666</ele><time>2026-04-06T13:29:58.01Z</time></trkpt><trkpt lat="43.8373762" lon="12.1947361"><ele>633.3333333333333</ele><time>2026-04-06T13:29:59.008Z</time></trkpt><trkpt lat="43.8372243" lon="12.194653"><ele>635.0</ele><time>2026-04-06T13:30:00.008Z</time></trkpt><trkpt lat="43.8370606" lon="12.1945903"><ele>635.0</ele><time>2026-04-06T13:30:01.01Z</time></trkpt><trkpt lat="43.8368907" lon="12.1945478"><ele>635.0</ele><time>2026-04-06T13:30:02.008Z</time></trkpt><trkpt lat="43.8367178" lon="12.1945303"><ele>635.0</ele><time>2026-04-06T13:30:03.009Z</time></trkpt><trkpt lat="43.8365464" lon="12.1945437"><ele>635.0</ele><time>2026-04-06T13:30:04.01Z</time></trkpt><trkpt lat="43.8363788" lon="12.1945802"><ele>635.0</ele><time>2026-04-06T13:30:05.008Z</time></trkpt><trkpt lat="43.8362177" lon="12.1946231"><ele>635.0</ele><time>2026-04-06T13:30:06.012Z</time></trkpt><trkpt lat="43.8360662" lon="12.1946504"><ele>632.0</ele><time>2026-04-06T13:30:07.009Z</time></trkpt><trkpt lat="43.835921" lon="12.1946437"><ele>629.0</ele><time>2026-04-06T13:30:08.009Z</time></trkpt><trkpt lat="43.8357838" lon="12.1946022"><ele>626.0</ele><time>2026-04-06T13:30:09.009Z</time></trkpt><trkpt lat="43.8356672" lon="12.1945243"><ele>623.0</ele><time>2026-04-06T13:30:10.011Z</time></trkpt><trkpt lat="43.8355733" lon="12.1944228"><ele>623.0</ele><time>2026-04-06T13:30:11.008Z</time></trkpt><trkpt lat="43.8355002" lon="12.1942942"><ele>623.0</ele><time>2026-04-06T13:30:12.011Z</time></trkpt><trkpt lat="43.8354476" lon="12.1941509"><ele>623.0</ele><time>2026-04-06T13:30:13.009Z</time></trkpt><trkpt lat="43.8354036" lon="12.1940017"><ele>623.0</ele><time>2026-04-06T13:30:14.008Z</time></trkpt><trkpt lat="43.8353578" lon="12.1938487"><ele>624.5</ele><time>2026-04-06T13:30:15.008Z</time></trkpt><trkpt lat="43.8352894" lon="12.1937193"><ele>626.0</ele><time>2026-04-06T13:30:16.008Z</time></trkpt><trkpt lat="43.8351961" lon="12.1936278"><ele>627.5</ele><time>2026-04-06T13:30:17.01Z</time></trkpt><trkpt lat="43.8350854" lon="12.1935711"><ele>629.0</ele><time>2026-04-06T13:30:18.008Z</time></trkpt><trkpt lat="43.8349675" lon="12.1935403"><ele>629.0</ele><time>2026-04-06T13:30:19.009Z</time></trkpt><trkpt lat="43.8348552" lon="12.1935358"><ele>629.0</ele><time>2026-04-06T13:30:20.009Z</time></trkpt><trkpt lat="43.8347534" lon="12.1935399"><ele>629.0</ele><time>2026-04-06T13:30:21.008Z</time></trkpt><trkpt lat="43.8346649" lon="12.1935655"><ele>629.0</ele><time>2026-04-06T13:30:22.012Z</time></trkpt><trkpt lat="43.8345954" lon="12.1935878"><ele>629.0</ele><time>2026-04-06T13:30:23.008Z</time></trkpt><trkpt lat="43.8345026" lon="12.1936133"><ele>629.0</ele><time>2026-04-06T13:30:25.008Z</time></trkpt><trkpt lat="43.8344306" lon="12.1936198"><ele>629.0</ele><time>2026-04-06T13:30:27.01Z</time></trkpt></trkseg><trkseg><trkpt lat="43.8344117" lon="12.1937183"><ele>629.0</ele><time>2026-04-06T14:00:19.007Z</time></trkpt><trkpt lat="43.8343" lon="12.193765"><ele>629.0</ele><time>2026-04-06T14:00:21.009Z</time></trkpt><trkpt lat="43.834235" lon="12.1937733"><ele>629.0</ele><time>2026-04-06T14:00:22.008Z</time></trkpt><trkpt lat="43.8341733" lon="12.1937533"><ele>629.0</ele><time>2026-04-06T14:00:23.011Z</time></trkpt><trkpt lat="43.8341733" lon="12.1938433"><ele>629.0</ele><time>2026-04-06T14:00:26.007Z</time></trkpt><trkpt lat="43.8342933" lon="12.19381"><ele>629.0</ele><time>2026-04-06T14:00:28.007Z</time></trkpt><trkpt lat="43.8343683" lon="12.1937717"><ele>629.0</ele><time>2026-04-06T14:00:29.006Z</time></trkpt><trkpt lat="43.8344717" lon="12.1937533"><ele>629.0</ele><time>2026-04-06T14:00:30.007Z</time></trkpt><trkpt lat="43.8345883" lon="12.193695"><ele>629.0</ele><time>2026-04-06T14:00:31.009Z</time></trkpt><trkpt lat="43.8347483" lon="12.1936383"><ele>629.0</ele><time>2026-04-06T14:00:32.007Z</time></trkpt><trkpt lat="43.834905" lon="12.1936467"><ele>629.0</ele><time>2026-04-06T14:00:33.008Z</time></trkpt><trkpt lat="43.835065" lon="12.1936833"><ele>629.0</ele><time>2026-04-06T14:00:34.009Z</time></trkpt><trkpt lat="43.835205" lon="12.1937267"><ele>629.0</ele><time>2026-04-06T14:00:35.009Z</time></trkpt><trkpt lat="43.835315" lon="12.1937983"><ele>629.0</ele><time>2026-04-06T14:00:36.008Z</time></trkpt><trkpt lat="43.8353933" lon="12.193925"><ele>627.5</ele><time>2026-04-06T14:00:37.008Z</time></trkpt><trkpt lat="43.8354467" lon="12.194095"><ele>626.0</ele><time>2026-04-06T14:00:38.007Z</time></trkpt><trkpt lat="43.8354883" lon="12.1942767"><ele>624.5</ele><time>2026-04-06T14:00:39.006Z</time></trkpt><trkpt lat="43.8355633" lon="12.1944083"><ele>623.0</ele><time>2026-04-06T14:00:40.008Z</time></trkpt><trkpt lat="43.8356683" lon="12.1945067"><ele>623.0</ele><time>2026-04-06T14:00:41.008Z</time></trkpt><trkpt lat="43.8357933" lon="12.1945867"><ele>623.0</ele><time>2026-04-06T14:00:42.009Z</time></trkpt><trkpt lat="43.835905" lon="12.1946667"><ele>623.0</ele><time>2026-04-06T14:00:43.008Z</time></trkpt><trkpt lat="43.836025" lon="12.1947133"><ele>623.0</ele><time>2026-04-06T14:00:44.007Z</time></trkpt><trkpt lat="43.83616" lon="12.19472"><ele>627.0</ele><time>2026-04-06T14:00:45.01Z</time></trkpt><trkpt lat="43.83633" lon="12.1946883"><ele>631.0</ele><time>2026-04-06T14:00:46.008Z</time></trkpt><trkpt lat="43.836525" lon="12.1946267"><ele>635.0</ele><time>2026-04-06T14:00:47.008Z</time></trkpt><trkpt lat="43.8367217" lon="12.1946017"><ele>635.0</ele><time>2026-04-06T14:00:48.007Z</time></trkpt><trkpt lat="43.83693" lon="12.194625"><ele>635.0</ele><time>2026-04-06T14:00:49.007Z</time></trkpt><trkpt lat="43.83714" lon="12.1946867"><ele>635.0</ele><time>2026-04-06T14:00:50.007Z</time></trkpt><trkpt lat="43.8373383" lon="12.1947767"><ele>633.3333333333333</ele><time>2026-04-06T14:00:51.008Z</time></trkpt><trkpt lat="43.8375167" lon="12.19485"><ele>631.6666666666666</ele><time>2026-04-06T14:00:52.006Z</time></trkpt><trkpt lat="43.8376688" lon="12.1949822"><ele>630.0</ele><time>2026-04-06T14:00:53.007Z</time></trkpt><trkpt lat="43.8378082" lon="12.1950951"><ele>630.0</ele><time>2026-04-06T14:00:54.011Z</time></trkpt><trkpt lat="43.8379504" lon="12.1951723"><ele>630.0</ele><time>2026-04-06T14:00:55.009Z</time></trkpt><trkpt lat="43.8380968" lon="12.1952004"><ele>630.0</ele><time>2026-04-06T14:00:56.009Z</time></trkpt><trkpt lat="43.8382568" lon="12.195195"><ele>630.0</ele><time>2026-04-06T14:00:57.009Z</time></trkpt><trkpt lat="43.8384345" lon="12.1951674"><ele>630.0</ele><time>2026-04-06T14:00:58.007Z</time></trkpt><trkpt lat="43.8386184" lon="12.1951185"><ele>630.0</ele><time>2026-04-06T14:00:59.009Z</time></trkpt><trkpt lat="43.8388176" lon="12.1950548"><ele>630.3333333333334</ele><time>2026-04-06T14:01:00.008Z</time></trkpt><trkpt lat="43.8390112" lon="12.1949852"><ele>630.6666666666667</ele><time>2026-04-06T14:01:01.009Z</time></trkpt><trkpt lat="43.8391758" lon="12.194915"><ele>631.0</ele><time>2026-04-06T14:01:02.008Z</time></trkpt><trkpt lat="43.8393071" lon="12.1948577"><ele>631.0</ele><time>2026-04-06T14:01:03.009Z</time></trkpt><trkpt lat="43.8394197" lon="12.1948187"><ele>631.0</ele><time>2026-04-06T14:01:04.009Z</time></trkpt><trkpt lat="43.8395268" lon="12.1948187"><ele>631.0</ele><time>2026-04-06T14:01:05.009Z</time></trkpt><trkpt lat="43.8396376" lon="12.1948752"><ele>631.0</ele><time>2026-04-06T14:01:06.009Z</time></trkpt><trkpt lat="43.8397534" lon="12.1949879"><ele>631.0</ele><time>2026-04-06T14:01:07.009Z</time></trkpt><trkpt lat="43.8398674" lon="12.1951126"><ele>631.0</ele><time>2026-04-06T14:01:08.009Z</time></trkpt><trkpt lat="43.8399819" lon="12.1951986"><ele>631.0</ele><time>2026-04-06T14:01:09.008Z</time></trkpt><trkpt lat="43.840116" lon="12.1952416"><ele>631.0</ele><time>2026-04-06T14:01:10.009Z</time></trkpt><trkpt lat="43.8402502" lon="12.1952492"><ele>632.6</ele><time>2026-04-06T14:01:11.008Z</time></trkpt><trkpt lat="43.8403718" lon="12.1952548"><ele>634.2</ele><time>2026-04-06T14:01:12.008Z</time></trkpt><trkpt lat="43.8404716" lon="12.1952865"><ele>635.8</ele><time>2026-04-06T14:01:13.008Z</time></trkpt><trkpt lat="43.8405551" lon="12.1953494"><ele>637.4</ele><time>2026-04-06T14:01:14.007Z</time></trkpt><trkpt lat="43.840612" lon="12.1954378"><ele>639.0</ele><time>2026-04-06T14:01:15.009Z</time></trkpt><trkpt lat="43.8406587" lon="12.1955378"><ele>637.25</ele><time>2026-04-06T14:01:16.008Z</time></trkpt><trkpt lat="43.8406986" lon="12.1956758"><ele>635.5</ele><time>2026-04-06T14:01:17.005Z</time></trkpt><trkpt lat="43.8407341" lon="12.1958502"><ele>633.75</ele><time>2026-04-06T14:01:18.008Z</time></trkpt><trkpt lat="43.8407749" lon="12.1960305"><ele>632.0</ele><time>2026-04-06T14:01:19.006Z</time></trkpt><trkpt lat="43.8408223" lon="12.1961856"><ele>632.0</ele><time>2026-04-06T14:01:20.009Z</time></trkpt><trkpt lat="43.8408873" lon="12.1963007"><ele>632.0</ele><time>2026-04-06T14:01:21.006Z</time></trkpt><trkpt lat="43.8409746" lon="12.1963766"><ele>632.0</ele><time>2026-04-06T14:01:22.006Z</time></trkpt><trkpt lat="43.8410846" lon="12.1964213"><ele>632.0</ele><time>2026-04-06T14:01:23.012Z</time></trkpt><trkpt lat="43.8412167" lon="12.1964538"><ele>632.2</ele><time>2026-04-06T14:01:24.006Z</time></trkpt><trkpt lat="43.8413516" lon="12.1964809"><ele>632.4000000000001</ele><time>2026-04-06T14:01:25.007Z</time></trkpt><trkpt lat="43.8414648" lon="12.1965045"><ele>632.5999999999999</ele><time>2026-04-06T14:01:26.008Z</time></trkpt><trkpt lat="43.841553" lon="12.196516"><ele>632.8</ele><time>2026-04-06T14:01:27.009Z</time></trkpt><trkpt lat="43.841619" lon="12.1965144"><ele>633.0</ele><time>2026-04-06T14:01:28.01Z</time></trkpt><trkpt lat="43.8416931" lon="12.1964614"><ele>633.0</ele><time>2026-04-06T14:01:30.009Z</time></trkpt><trkpt lat="43.841625" lon="12.1963573"><ele>633.0</ele><time>2026-04-06T14:01:32.008Z</time></trkpt><trkpt lat="43.8415411" lon="12.1962824"><ele>633.0</ele><time>2026-04-06T14:01:34.009Z</time></trkpt><trkpt lat="43.8414317" lon="12.19613"><ele>633.0</ele><time>2026-04-06T14:02:36.011Z</time></trkpt><trkpt lat="43.8413667" lon="12.1960683"><ele>633.0</ele><time>2026-04-06T14:02:37.01Z</time></trkpt><trkpt lat="43.841275" lon="12.1959567"><ele>633.0</ele><time>2026-04-06T14:02:38.008Z</time></trkpt><trkpt lat="43.8412133" lon="12.1958083"><ele>633.0</ele><time>2026-04-06T14:02:39.01Z</time></trkpt><trkpt lat="43.84116" lon="12.1956417"><ele>633.0</ele><time>2026-04-06T14:02:40.009Z</time></trkpt><trkpt lat="43.841115" lon="12.1954617"><ele>633.0</ele><time>2026-04-06T14:02:41.008Z</time></trkpt><trkpt lat="43.841075" lon="12.1952767"><ele>633.5</ele><time>2026-04-06T14:02:42.012Z</time></trkpt><trkpt lat="43.84103" lon="12.1950883"><ele>634.0</ele><time>2026-04-06T14:02:43.007Z</time></trkpt><trkpt lat="43.8409571" lon="12.1949168"><ele>634.5</ele><time>2026-04-06T14:02:44.009Z</time></trkpt><trkpt lat="43.8408564" lon="12.194762"><ele>635.0</ele><time>2026-04-06T14:02:45.01Z</time></trkpt><trkpt lat="43.8407394" lon="12.1946368"><ele>636.25</ele><time>2026-04-06T14:02:46.007Z</time></trkpt><trkpt lat="43.840619" lon="12.1945464"><ele>637.5</ele><time>2026-04-06T14:02:47.009Z</time></trkpt><trkpt lat="43.8405053" lon="12.1944725"><ele>638.75</ele><time>2026-04-06T14:02:48.008Z</time></trkpt><trkpt lat="43.8403913" lon="12.1943838"><ele>640.0</ele><time>2026-04-06T14:02:49.007Z</time></trkpt><trkpt lat="43.8402802" lon="12.1942734"><ele>640.0</ele><time>2026-04-06T14:02:50.007Z</time></trkpt><trkpt lat="43.8401609" lon="12.1941451"><ele>640.0</ele><time>2026-04-06T14:02:51.009Z</time></trkpt><trkpt lat="43.8400399" lon="12.1940092"><ele>640.0</ele><time>2026-04-06T14:02:52.01Z</time></trkpt><trkpt lat="43.8399191" lon="12.193872"><ele>639.5</ele><time>2026-04-06T14:02:53.008Z</time></trkpt><trkpt lat="43.8398016" lon="12.1937493"><ele>639.0</ele><time>2026-04-06T14:02:54.007Z</time></trkpt><trkpt lat="43.8396821" lon="12.1936588"><ele>638.5</ele><time>2026-04-06T14:02:55.007Z</time></trkpt><trkpt lat="43.8395512" lon="12.1936136"><ele>638.0</ele><time>2026-04-06T14:02:56.009Z</time></trkpt><trkpt lat="43.8394158" lon="12.1936137"><ele>638.8</ele><time>2026-04-06T14:02:57.007Z</time></trkpt><trkpt lat="43.8392923" lon="12.1936271"><ele>639.5999999999999</ele><time>2026-04-06T14:02:58.008Z</time></trkpt><trkpt lat="43.8391824" lon="12.1936301"><ele>640.4000000000001</ele><time>2026-04-06T14:02:59.007Z</time></trkpt><trkpt lat="43.8390795" lon="12.1936041"><ele>641.2</ele><time>2026-04-06T14:03:00.009Z</time></trkpt><trkpt lat="43.8389803" lon="12.1935497"><ele>642.0</ele><time>2026-04-06T14:03:01.008Z</time></trkpt><trkpt lat="43.8388732" lon="12.1934642"><ele>642.0</ele><time>2026-04-06T14:03:02.008Z</time></trkpt><trkpt lat="43.838753" lon="12.1933497"><ele>642.0</ele><time>2026-04-06T14:03:03.008Z</time></trkpt><trkpt lat="43.8386251" lon="12.1932305"><ele>642.0</ele><time>2026-04-06T14:03:04.008Z</time></trkpt><trkpt lat="43.838493" lon="12.1931358"><ele>642.0</ele><time>2026-04-06T14:03:05.008Z</time></trkpt><trkpt lat="43.8383417" lon="12.1930685"><ele>647.0</ele><time>2026-04-06T14:03:06.009Z</time></trkpt><trkpt lat="43.8381616" lon="12.1930291"><ele>652.0</ele><time>2026-04-06T14:03:07.007Z</time></trkpt><trkpt lat="43.8379748" lon="12.1930235"><ele>657.0</ele><time>2026-04-06T14:03:08.009Z</time></trkpt><trkpt lat="43.8377974" lon="12.1930424"><ele>661.3333333333334</ele><time>2026-04-06T14:03:09.007Z</time></trkpt><trkpt lat="43.8376313" lon="12.1930749"><ele>665.6666666666667</ele><time>2026-04-06T14:03:10.007Z</time></trkpt><trkpt lat="43.8374719" lon="12.1931036"><ele>670.0</ele><time>2026-04-06T14:03:11.009Z</time></trkpt><trkpt lat="43.8373217" lon="12.193136"><ele>666.4</ele><time>2026-04-06T14:03:12.008Z</time></trkpt><trkpt lat="43.83719" lon="12.1931841"><ele>662.8</ele><time>2026-04-06T14:03:13.007Z</time></trkpt><trkpt lat="43.8370751" lon="12.1932342"><ele>659.2</ele><time>2026-04-06T14:03:14.007Z</time></trkpt><trkpt lat="43.8369762" lon="12.1932581"><ele>655.6</ele><time>2026-04-06T14:03:15.008Z</time></trkpt><trkpt lat="43.8368862" lon="12.1932401"><ele>652.0</ele><time>2026-04-06T14:03:16.007Z</time></trkpt><trkpt lat="43.8367968" lon="12.1931808"><ele>653.75</ele><time>2026-04-06T14:03:17.006Z</time></trkpt><trkpt lat="43.8367084" lon="12.193072"><ele>655.5</ele><time>2026-04-06T14:03:18.009Z</time></trkpt><trkpt lat="43.836624" lon="12.1929024"><ele>657.25</ele><time>2026-04-06T14:03:19.008Z</time></trkpt><trkpt lat="43.8365397" lon="12.1927205"><ele>659.0</ele><time>2026-04-06T14:03:20.005Z</time></trkpt><trkpt lat="43.8364487" lon="12.1925617"><ele>659.0</ele><time>2026-04-06T14:03:21.008Z</time></trkpt><trkpt lat="43.8363528" lon="12.1924527"><ele>659.0</ele><time>2026-04-06T14:03:22.009Z</time></trkpt><trkpt lat="43.8362651" lon="12.1923895"><ele>659.0</ele><time>2026-04-06T14:03:23.006Z</time></trkpt><trkpt lat="43.8361948" lon="12.1923487"><ele>659.0</ele><time>2026-04-06T14:03:24.012Z</time></trkpt><trkpt lat="43.8361367" lon="12.1923022"><ele>659.0</ele><time>2026-04-06T14:03:25.007Z</time></trkpt><trkpt lat="43.8360908" lon="12.1922356"><ele>659.0</ele><time>2026-04-06T14:03:26.008Z</time></trkpt><trkpt lat="43.836069" lon="12.1920711"><ele>660.0</ele><time>2026-04-06T14:03:28.007Z</time></trkpt><trkpt lat="43.8361097" lon="12.1919931"><ele>661.0</ele><time>2026-04-06T14:03:29.009Z</time></trkpt><trkpt lat="43.836178" lon="12.191917"><ele>662.0</ele><time>2026-04-06T14:03:30.007Z</time></trkpt><trkpt lat="43.8362482" lon="12.1918285"><ele>663.0</ele><time>2026-04-06T14:03:31.008Z</time></trkpt><trkpt lat="43.8364033" lon="12.1917291"><ele>664.0</ele><time>2026-04-06T14:03:32.008Z</time></trkpt><trkpt lat="43.8365621" lon="12.1916225"><ele>664.0</ele><time>2026-04-06T14:03:33.009Z</time></trkpt><trkpt lat="43.8366898" lon="12.1915126"><ele>664.0</ele><time>2026-04-06T14:03:34.008Z</time></trkpt><trkpt lat="43.8367734" lon="12.1913839"><ele>664.0</ele><time>2026-04-06T14:03:35.007Z</time></trkpt><trkpt lat="43.8368277" lon="12.1912162"><ele>664.0</ele><time>2026-04-06T14:03:36.009Z</time></trkpt><trkpt lat="43.8368544" lon="12.1910275"><ele>668.75</ele><time>2026-04-06T14:03:37.009Z</time></trkpt><trkpt lat="43.8368719" lon="12.1908485"><ele>673.5</ele><time>2026-04-06T14:03:38.007Z</time></trkpt><trkpt lat="43.836897" lon="12.190686"><ele>678.25</ele><time>2026-04-06T14:03:39.008Z</time></trkpt><trkpt lat="43.8369456" lon="12.1905288"><ele>683.0</ele><time>2026-04-06T14:03:40.009Z</time></trkpt><trkpt lat="43.8370042" lon="12.190368"><ele>683.0</ele><time>2026-04-06T14:03:41.007Z</time></trkpt><trkpt lat="43.8370639" lon="12.190182"><ele>683.0</ele><time>2026-04-06T14:03:42.007Z</time></trkpt><trkpt lat="43.8371147" lon="12.1899735"><ele>683.0</ele><time>2026-04-06T14:03:43.008Z</time></trkpt><trkpt lat="43.8371581" lon="12.1897716"><ele>682.25</ele><time>2026-04-06T14:03:44.009Z</time></trkpt><trkpt lat="43.8371978" lon="12.1895923"><ele>681.5</ele><time>2026-04-06T14:03:45.008Z</time></trkpt><trkpt lat="43.8372492" lon="12.1894302"><ele>680.75</ele><time>2026-04-06T14:03:46.009Z</time></trkpt><trkpt lat="43.8373187" lon="12.1892805"><ele>680.0</ele><time>2026-04-06T14:03:47.012Z</time></trkpt><trkpt lat="43.8373965" lon="12.1891485"><ele>680.0</ele><time>2026-04-06T14:03:48.006Z</time></trkpt><trkpt lat="43.8374716" lon="12.1890304"><ele>680.0</ele><time>2026-04-06T14:03:49.008Z</time></trkpt><trkpt lat="43.8375425" lon="12.1889173"><ele>680.0</ele><time>2026-04-06T14:03:50.009Z</time></trkpt><trkpt lat="43.8376157" lon="12.1888052"><ele>680.0</ele><time>2026-04-06T14:03:51.01Z</time></trkpt><trkpt lat="43.837691" lon="12.1886754"><ele>677.5</ele><time>2026-04-06T14:03:52.01Z</time></trkpt><trkpt lat="43.837769" lon="12.1885284"><ele>675.0</ele><time>2026-04-06T14:03:53.008Z</time></trkpt><trkpt lat="43.8378379" lon="12.1883672"><ele>672.5</ele><time>2026-04-06T14:03:54.009Z</time></trkpt><trkpt lat="43.8378957" lon="12.1881969"><ele>670.0</ele><time>2026-04-06T14:03:55.008Z</time></trkpt><trkpt lat="43.8379374" lon="12.1880142"><ele>667.6666666666667</ele><time>2026-04-06T14:03:56.009Z</time></trkpt><trkpt lat="43.8379603" lon="12.1878096"><ele>665.3333333333334</ele><time>2026-04-06T14:03:57.009Z</time></trkpt><trkpt lat="43.8379643" lon="12.1875843"><ele>663.0</ele><time>2026-04-06T14:03:58.011Z</time></trkpt><trkpt lat="43.8379578" lon="12.1873496"><ele>661.3333333333334</ele><time>2026-04-06T14:03:59.009Z</time></trkpt><trkpt lat="43.8379475" lon="12.1871155"><ele>659.6666666666667</ele><time>2026-04-06T14:04:00.009Z</time></trkpt><trkpt lat="43.837939" lon="12.186888"><ele>658.0</ele><time>2026-04-06T14:04:01.009Z</time></trkpt><trkpt lat="43.8379302" lon="12.1866662"><ele>656.3333333333334</ele><time>2026-04-06T14:04:02.008Z</time></trkpt><trkpt lat="43.8379215" lon="12.1864444"><ele>654.6666666666666</ele><time>2026-04-06T14:04:03.012Z</time></trkpt><trkpt lat="43.8379156" lon="12.1862245"><ele>653.0</ele><time>2026-04-06T14:04:04.008Z</time></trkpt><trkpt lat="43.8379106" lon="12.1860086"><ele>653.0</ele><time>2026-04-06T14:04:05.007Z</time></trkpt><trkpt lat="43.8379116" lon="12.1857932"><ele>653.0</ele><time>2026-04-06T14:04:06.008Z</time></trkpt><trkpt lat="43.8379276" lon="12.1855675"><ele>653.0</ele><time>2026-04-06T14:04:07.009Z</time></trkpt><trkpt lat="43.8379623" lon="12.1853283"><ele>651.3333333333333</ele><time>2026-04-06T14:04:08.009Z</time></trkpt><trkpt lat="43.8380097" lon="12.1850931"><ele>649.6666666666666</ele><time>2026-04-06T14:04:09.014Z</time></trkpt><trkpt lat="43.8380572" lon="12.1848757"><ele>648.0</ele><time>2026-04-06T14:04:10.008Z</time></trkpt><trkpt lat="43.8381047" lon="12.184682"><ele>648.0</ele><time>2026-04-06T14:04:11.01Z</time></trkpt><trkpt lat="43.838155" lon="12.1845076"><ele>648.0</ele><time>2026-04-06T14:04:12.008Z</time></trkpt><trkpt lat="43.8382128" lon="12.1843518"><ele>648.0</ele><time>2026-04-06T14:04:13.009Z</time></trkpt><trkpt lat="43.8382763" lon="12.184213"><ele>648.0</ele><time>2026-04-06T14:04:14.011Z</time></trkpt><trkpt lat="43.8383446" lon="12.1840847"><ele>648.0</ele><time>2026-04-06T14:04:15.009Z</time></trkpt><trkpt lat="43.838416" lon="12.1839595"><ele>648.0</ele><time>2026-04-06T14:04:16.01Z</time></trkpt><trkpt lat="43.8384799" lon="12.1838272"><ele>648.0</ele><time>2026-04-06T14:04:17.007Z</time></trkpt><trkpt lat="43.8385235" lon="12.1836874"><ele>648.0</ele><time>2026-04-06T14:04:18.01Z</time></trkpt><trkpt lat="43.8385423" lon="12.1835543"><ele>648.0</ele><time>2026-04-06T14:04:19.007Z</time></trkpt><trkpt lat="43.8385439" lon="12.1834353"><ele>647.2</ele><time>2026-04-06T14:04:20.006Z</time></trkpt><trkpt lat="43.8385391" lon="12.1833334"><ele>646.4</ele><time>2026-04-06T14:04:21.008Z</time></trkpt><trkpt lat="43.8385495" lon="12.183188"><ele>645.6</ele><time>2026-04-06T14:04:23.009Z</time></trkpt><trkpt lat="43.8386071" lon="12.1830509"><ele>644.8000000000001</ele><time>2026-04-06T14:04:25.006Z</time></trkpt><trkpt lat="43.838657" lon="12.182974"><ele>644.0</ele><time>2026-04-06T14:04:26.007Z</time></trkpt><trkpt lat="43.8387357" lon="12.1828806"><ele>644.0</ele><time>2026-04-06T14:04:27.008Z</time></trkpt><trkpt lat="43.8388251" lon="12.1827925"><ele>644.0</ele><time>2026-04-06T14:04:28.007Z</time></trkpt><trkpt lat="43.8389054" lon="12.1827262"><ele>644.0</ele><time>2026-04-06T14:04:29.005Z</time></trkpt><trkpt lat="43.8389827" lon="12.1826833"><ele>644.0</ele><time>2026-04-06T14:04:30.007Z</time></trkpt><trkpt lat="43.8390544" lon="12.182649"><ele>644.0</ele><time>2026-04-06T14:04:31.007Z</time></trkpt><trkpt lat="43.8391216" lon="12.1826023"><ele>644.0</ele><time>2026-04-06T14:04:32.008Z</time></trkpt><trkpt lat="43.8391699" lon="12.1825355"><ele>644.0</ele><time>2026-04-06T14:04:33.012Z</time></trkpt><trkpt lat="43.8391979" lon="12.1824497"><ele>644.0</ele><time>2026-04-06T14:04:34.008Z</time></trkpt><trkpt lat="43.8392122" lon="12.1823463"><ele>644.0</ele><time>2026-04-06T14:04:35.006Z</time></trkpt><trkpt lat="43.8392154" lon="12.1822282"><ele>644.0</ele><time>2026-04-06T14:04:36.007Z</time></trkpt><trkpt lat="43.8392303" lon="12.1821137"><ele>644.0</ele><time>2026-04-06T14:04:37.009Z</time></trkpt><trkpt lat="43.8392564" lon="12.1820099"><ele>644.0</ele><time>2026-04-06T14:04:38.008Z</time></trkpt><trkpt lat="43.8392996" lon="12.1819146"><ele>641.8000000000001</ele><time>2026-04-06T14:04:39.009Z</time></trkpt><trkpt lat="43.8393599" lon="12.181828"><ele>639.6</ele><time>2026-04-06T14:04:40.01Z</time></trkpt><trkpt lat="43.8394387" lon="12.1817453"><ele>637.4</ele><time>2026-04-06T14:04:41.006Z</time></trkpt><trkpt lat="43.8395451" lon="12.1816766"><ele>635.2</ele><time>2026-04-06T14:04:42.006Z</time></trkpt><trkpt lat="43.839644" lon="12.1816175"><ele>633.0</ele><time>2026-04-06T14:04:43.007Z</time></trkpt><trkpt lat="43.8397486" lon="12.1815596"><ele>635.2</ele><time>2026-04-06T14:04:44.006Z</time></trkpt><trkpt lat="43.8398537" lon="12.1815072"><ele>637.4</ele><time>2026-04-06T14:04:45.008Z</time></trkpt><trkpt lat="43.8399557" lon="12.1814634"><ele>639.6</ele><time>2026-04-06T14:04:46.008Z</time></trkpt><trkpt lat="43.8400547" lon="12.1814245"><ele>641.8000000000001</ele><time>2026-04-06T14:04:47.007Z</time></trkpt><trkpt lat="43.8401526" lon="12.1813959"><ele>644.0</ele><time>2026-04-06T14:04:48.006Z</time></trkpt><trkpt lat="43.8402562" lon="12.1813808"><ele>644.0</ele><time>2026-04-06T14:04:49.005Z</time></trkpt><trkpt lat="43.840369" lon="12.1813785"><ele>644.0</ele><time>2026-04-06T14:04:50.013Z</time></trkpt><trkpt lat="43.8404836" lon="12.1813902"><ele>644.0</ele><time>2026-04-06T14:04:51.008Z</time></trkpt><trkpt lat="43.8405996" lon="12.1814096"><ele>644.0</ele><time>2026-04-06T14:04:52.007Z</time></trkpt><trkpt lat="43.8407127" lon="12.1814307"><ele>644.0</ele><time>2026-04-06T14:04:53.008Z</time></trkpt><trkpt lat="43.8408201" lon="12.181444"><ele>644.0</ele><time>2026-04-06T14:04:54.007Z</time></trkpt><trkpt lat="43.8409123" lon="12.181432"><ele>644.0</ele><time>2026-04-06T14:04:55.008Z</time></trkpt><trkpt lat="43.840995" lon="12.181393"><ele>644.0</ele><time>2026-04-06T14:04:56.006Z</time></trkpt><trkpt lat="43.8410703" lon="12.1813357"><ele>644.0</ele><time>2026-04-06T14:04:57.01Z</time></trkpt><trkpt lat="43.8411341" lon="12.1812533"><ele>641.75</ele><time>2026-04-06T14:04:58.007Z</time></trkpt><trkpt lat="43.8411847" lon="12.1811462"><ele>639.5</ele><time>2026-04-06T14:04:59.007Z</time></trkpt><trkpt lat="43.8412283" lon="12.1810121"><ele>637.25</ele><time>2026-04-06T14:05:00.008Z</time></trkpt><trkpt lat="43.8412787" lon="12.1808424"><ele>635.0</ele><time>2026-04-06T14:05:01.006Z</time></trkpt><trkpt lat="43.8413348" lon="12.1806551"><ele>635.0</ele><time>2026-04-06T14:05:02.005Z</time></trkpt><trkpt lat="43.8413888" lon="12.1804637"><ele>635.0</ele><time>2026-04-06T14:05:03.007Z</time></trkpt><trkpt lat="43.8414335" lon="12.1802825"><ele>635.0</ele><time>2026-04-06T14:05:04.008Z</time></trkpt><trkpt lat="43.8414699" lon="12.1801251"><ele>635.0</ele><time>2026-04-06T14:05:05.005Z</time></trkpt><trkpt lat="43.8415065" lon="12.1799945"><ele>635.0</ele><time>2026-04-06T14:05:06.007Z</time></trkpt><trkpt lat="43.841549" lon="12.1798977"><ele>635.0</ele><time>2026-04-06T14:05:07.008Z</time></trkpt><trkpt lat="43.8415911" lon="12.1798225"><ele>635.0</ele><time>2026-04-06T14:05:08.007Z</time></trkpt><trkpt lat="43.8416616" lon="12.179769"><ele>635.0</ele><time>2026-04-06T14:05:09.012Z</time></trkpt><trkpt lat="43.8417238" lon="12.1797362"><ele>635.0</ele><time>2026-04-06T14:05:10.006Z</time></trkpt><trkpt lat="43.8418025" lon="12.1797304"><ele>635.0</ele><time>2026-04-06T14:05:11.006Z</time></trkpt><trkpt lat="43.8418962" lon="12.1797573"><ele>632.8</ele><time>2026-04-06T14:05:12.005Z</time></trkpt><trkpt lat="43.8420094" lon="12.1798156"><ele>630.6</ele><time>2026-04-06T14:05:13.007Z</time></trkpt><trkpt lat="43.842115" lon="12.1798721"><ele>628.4</ele><time>2026-04-06T14:05:14.008Z</time></trkpt><trkpt lat="43.8422125" lon="12.1799025"><ele>626.2</ele><time>2026-04-06T14:05:15.008Z</time></trkpt><trkpt lat="43.8423012" lon="12.1799144"><ele>624.0</ele><time>2026-04-06T14:05:16.008Z</time></trkpt><trkpt lat="43.8423821" lon="12.179901"><ele>626.0</ele><time>2026-04-06T14:05:17.007Z</time></trkpt><trkpt lat="43.8424552" lon="12.1798277"><ele>628.0</ele><time>2026-04-06T14:05:18.006Z</time></trkpt><trkpt lat="43.8425253" lon="12.1797155"><ele>630.0</ele><time>2026-04-06T14:05:19.006Z</time></trkpt><trkpt lat="43.8426064" lon="12.17963"><ele>632.0</ele><time>2026-04-06T14:05:20.006Z</time></trkpt><trkpt lat="43.8426976" lon="12.1795891"><ele>634.0</ele><time>2026-04-06T14:05:21.014Z</time></trkpt><trkpt lat="43.8427957" lon="12.1795802"><ele>634.0</ele><time>2026-04-06T14:05:22.01Z</time></trkpt><trkpt lat="43.8428981" lon="12.1795667"><ele>634.0</ele><time>2026-04-06T14:05:23.008Z</time></trkpt><trkpt lat="43.8429982" lon="12.1795129"><ele>634.0</ele><time>2026-04-06T14:05:24.01Z</time></trkpt><trkpt lat="43.8430926" lon="12.179434"><ele>634.0</ele><time>2026-04-06T14:05:25.007Z</time></trkpt><trkpt lat="43.8431896" lon="12.1793562"><ele>634.0</ele><time>2026-04-06T14:05:26.014Z</time></trkpt><trkpt lat="43.8432938" lon="12.1793146"><ele>634.0</ele><time>2026-04-06T14:05:27.006Z</time></trkpt><trkpt lat="43.8433996" lon="12.1792926"><ele>634.0</ele><time>2026-04-06T14:05:28.008Z</time></trkpt><trkpt lat="43.843512" lon="12.179295"><ele>634.0</ele><time>2026-04-06T14:05:29.007Z</time></trkpt><trkpt lat="43.8436368" lon="12.1793262"><ele>634.0</ele><time>2026-04-06T14:05:30.007Z</time></trkpt><trkpt lat="43.8437645" lon="12.1793594"><ele>631.25</ele><time>2026-04-06T14:05:31.009Z</time></trkpt><trkpt lat="43.8438906" lon="12.1793697"><ele>628.5</ele><time>2026-04-06T14:05:32.007Z</time></trkpt><trkpt lat="43.8440112" lon="12.179349"><ele>625.75</ele><time>2026-04-06T14:05:33.008Z</time></trkpt><trkpt lat="43.8441328" lon="12.1793049"><ele>623.0</ele><time>2026-04-06T14:05:34.009Z</time></trkpt><trkpt lat="43.8442517" lon="12.1792432"><ele>621.0</ele><time>2026-04-06T14:05:35.008Z</time></trkpt><trkpt lat="43.844369" lon="12.1791505"><ele>619.0</ele><time>2026-04-06T14:05:36.008Z</time></trkpt><trkpt lat="43.844486" lon="12.1790384"><ele>617.0</ele><time>2026-04-06T14:05:37.007Z</time></trkpt><trkpt lat="43.8446013" lon="12.1789497"><ele>615.0</ele><time>2026-04-06T14:05:38.013Z</time></trkpt><trkpt lat="43.8447116" lon="12.1788811"><ele>615.0</ele><time>2026-04-06T14:05:39.009Z</time></trkpt><trkpt lat="43.8448197" lon="12.178832"><ele>615.0</ele><time>2026-04-06T14:05:40.007Z</time></trkpt><trkpt lat="43.8449274" lon="12.1788031"><ele>615.0</ele><time>2026-04-06T14:05:41.008Z</time></trkpt><trkpt lat="43.8450309" lon="12.1787974"><ele>615.0</ele><time>2026-04-06T14:05:42.008Z</time></trkpt><trkpt lat="43.8451285" lon="12.1788213"><ele>615.0</ele><time>2026-04-06T14:05:43.007Z</time></trkpt><trkpt lat="43.8452189" lon="12.1788757"><ele>615.0</ele><time>2026-04-06T14:05:44.008Z</time></trkpt><trkpt lat="43.8452975" lon="12.1789376"><ele>615.0</ele><time>2026-04-06T14:05:45.007Z</time></trkpt><trkpt lat="43.8453707" lon="12.1789878"><ele>615.0</ele><time>2026-04-06T14:05:46.007Z</time></trkpt><trkpt lat="43.8454418" lon="12.1790148"><ele>615.0</ele><time>2026-04-06T14:05:47.007Z</time></trkpt><trkpt lat="43.8455152" lon="12.1790162"><ele>615.0</ele><time>2026-04-06T14:05:48.005Z</time></trkpt><trkpt lat="43.8455807" lon="12.1790024"><ele>615.0</ele><time>2026-04-06T14:05:49.006Z</time></trkpt><trkpt lat="43.8456335" lon="12.1789541"><ele>615.0</ele><time>2026-04-06T14:05:50.007Z</time></trkpt><trkpt lat="43.8456781" lon="12.1788717"><ele>615.0</ele><time>2026-04-06T14:05:51.011Z</time></trkpt><trkpt lat="43.8457127" lon="12.1786969"><ele>615.0</ele><time>2026-04-06T14:05:52.008Z</time></trkpt><trkpt lat="43.8457633" lon="12.1785335"><ele>615.0</ele><time>2026-04-06T14:05:53.008Z</time></trkpt><trkpt lat="43.8458246" lon="12.1783787"><ele>615.0</ele><time>2026-04-06T14:05:54.01Z</time></trkpt><trkpt lat="43.845913" lon="12.178253"><ele>613.75</ele><time>2026-04-06T14:05:55.007Z</time></trkpt><trkpt lat="43.8460082" lon="12.1781493"><ele>612.5</ele><time>2026-04-06T14:05:56.007Z</time></trkpt><trkpt lat="43.8460915" lon="12.1780416"><ele>611.25</ele><time>2026-04-06T14:05:57.01Z</time></trkpt><trkpt lat="43.846164" lon="12.1779192"><ele>610.0</ele><time>2026-04-06T14:05:58.009Z</time></trkpt><trkpt lat="43.8462314" lon="12.1777956"><ele>610.0</ele><time>2026-04-06T14:05:59.005Z</time></trkpt><trkpt lat="43.8463033" lon="12.1776801"><ele>610.0</ele><time>2026-04-06T14:06:00.008Z</time></trkpt><trkpt lat="43.8464021" lon="12.1775996"><ele>610.0</ele><time>2026-04-06T14:06:01.006Z</time></trkpt><trkpt lat="43.8465251" lon="12.1775124"><ele>610.0</ele><time>2026-04-06T14:06:02.009Z</time></trkpt><trkpt lat="43.8466622" lon="12.1774151"><ele>610.6666666666667</ele><time>2026-04-06T14:06:03.009Z</time></trkpt><trkpt lat="43.8468044" lon="12.1773046"><ele>611.3333333333334</ele><time>2026-04-06T14:06:04.007Z</time></trkpt><trkpt lat="43.8469564" lon="12.1771878"><ele>612.0</ele><time>2026-04-06T14:06:05.01Z</time></trkpt><trkpt lat="43.847124" lon="12.1770775"><ele>612.0</ele><time>2026-04-06T14:06:06.007Z</time></trkpt><trkpt lat="43.8473027" lon="12.176967"><ele>612.0</ele><time>2026-04-06T14:06:07.008Z</time></trkpt><trkpt lat="43.8474751" lon="12.1768494"><ele>612.0</ele><time>2026-04-06T14:06:08.007Z</time></trkpt><trkpt lat="43.8476328" lon="12.1767549"><ele>610.75</ele><time>2026-04-06T14:06:09.009Z</time></trkpt><trkpt lat="43.8477723" lon="12.1766489"><ele>609.5</ele><time>2026-04-06T14:06:10.007Z</time></trkpt><trkpt lat="43.8479022" lon="12.176549"><ele>608.25</ele><time>2026-04-06T14:06:11.006Z</time></trkpt><trkpt lat="43.8480256" lon="12.1764834"><ele>607.0</ele><time>2026-04-06T14:06:12.01Z</time></trkpt><trkpt lat="43.8481338" lon="12.1764425"><ele>606.0</ele><time>2026-04-06T14:06:13.007Z</time></trkpt><trkpt lat="43.848222" lon="12.1764296"><ele>605.0</ele><time>2026-04-06T14:06:14.006Z</time></trkpt><trkpt lat="43.848291" lon="12.1764232"><ele>604.0</ele><time>2026-04-06T14:06:15.006Z</time></trkpt><trkpt lat="43.8483965" lon="12.176385"><ele>603.0</ele><time>2026-04-06T14:06:17.011Z</time></trkpt><trkpt lat="43.84847" lon="12.1762688"><ele>602.0</ele><time>2026-04-06T14:06:19.009Z</time></trkpt><trkpt lat="43.8484947" lon="12.1761812"><ele>601.0</ele><time>2026-04-06T14:06:20.008Z</time></trkpt><trkpt lat="43.8485019" lon="12.1760757"><ele>601.0</ele><time>2026-04-06T14:06:21.01Z</time></trkpt><trkpt lat="43.848493" lon="12.1759697"><ele>601.0</ele><time>2026-04-06T14:06:22.012Z</time></trkpt><trkpt lat="43.8484573" lon="12.1758628"><ele>601.0</ele><time>2026-04-06T14:06:23.005Z</time></trkpt><trkpt lat="43.8483957" lon="12.175753"><ele>601.0</ele><time>2026-04-06T14:06:24.009Z</time></trkpt><trkpt lat="43.848294" lon="12.1756325"><ele>601.0</ele><time>2026-04-06T14:06:25.008Z</time></trkpt><trkpt lat="43.8481772" lon="12.1755174"><ele>597.75</ele><time>2026-04-06T14:06:26.007Z</time></trkpt><trkpt lat="43.848061" lon="12.1754099"><ele>594.5</ele><time>2026-04-06T14:06:27.007Z</time></trkpt><trkpt lat="43.8479529" lon="12.1753155"><ele>591.25</ele><time>2026-04-06T14:06:28.006Z</time></trkpt><trkpt lat="43.8478641" lon="12.1752226"><ele>588.0</ele><time>2026-04-06T14:06:29.01Z</time></trkpt><trkpt lat="43.8477905" lon="12.1751231"><ele>588.0</ele><time>2026-04-06T14:06:30.009Z</time></trkpt><trkpt lat="43.8477308" lon="12.1750111"><ele>588.0</ele><time>2026-04-06T14:06:31.008Z</time></trkpt><trkpt lat="43.8476858" lon="12.1748796"><ele>588.0</ele><time>2026-04-06T14:06:32.006Z</time></trkpt><trkpt lat="43.8476552" lon="12.1747273"><ele>588.0</ele><time>2026-04-06T14:06:33.008Z</time></trkpt><trkpt lat="43.847629" lon="12.1745679"><ele>588.0</ele><time>2026-04-06T14:06:34.007Z</time></trkpt><trkpt lat="43.8475938" lon="12.1744038"><ele>590.0</ele><time>2026-04-06T14:06:35.006Z</time></trkpt><trkpt lat="43.8475347" lon="12.1742399"><ele>592.0</ele><time>2026-04-06T14:06:36.01Z</time></trkpt><trkpt lat="43.8474418" lon="12.1740796"><ele>594.0</ele><time>2026-04-06T14:06:37.005Z</time></trkpt><trkpt lat="43.8473482" lon="12.1739239"><ele>596.0</ele><time>2026-04-06T14:06:38.011Z</time></trkpt><trkpt lat="43.8472598" lon="12.1737773"><ele>590.75</ele><time>2026-04-06T14:06:39.007Z</time></trkpt><trkpt lat="43.8471747" lon="12.1736436"><ele>585.5</ele><time>2026-04-06T14:06:40.006Z</time></trkpt><trkpt lat="43.8470843" lon="12.1735293"><ele>580.25</ele><time>2026-04-06T14:06:41.007Z</time></trkpt><trkpt lat="43.8469899" lon="12.1734377"><ele>575.0</ele><time>2026-04-06T14:06:42.006Z</time></trkpt><trkpt lat="43.8468945" lon="12.173363"><ele>575.0</ele><time>2026-04-06T14:06:43.011Z</time></trkpt><trkpt lat="43.8468033" lon="12.1732982"><ele>575.0</ele><time>2026-04-06T14:06:44.007Z</time></trkpt><trkpt lat="43.8467211" lon="12.1732332"><ele>575.0</ele><time>2026-04-06T14:06:45.01Z</time></trkpt><trkpt lat="43.8466588" lon="12.1731514"><ele>575.0</ele><time>2026-04-06T14:06:46.008Z</time></trkpt><trkpt lat="43.8466161" lon="12.1730491"><ele>575.0</ele><time>2026-04-06T14:06:47.007Z</time></trkpt><trkpt lat="43.8465939" lon="12.1729319"><ele>580.5</ele><time>2026-04-06T14:06:48.007Z</time></trkpt><trkpt lat="43.8465876" lon="12.1727753"><ele>586.0</ele><time>2026-04-06T14:06:49.006Z</time></trkpt><trkpt lat="43.8465916" lon="12.1725932"><ele>591.5</ele><time>2026-04-06T14:06:50.007Z</time></trkpt><trkpt lat="43.8465992" lon="12.172398"><ele>597.0</ele><time>2026-04-06T14:06:51.009Z</time></trkpt><trkpt lat="43.8466185" lon="12.1721988"><ele>599.0</ele><time>2026-04-06T14:06:52.006Z</time></trkpt><trkpt lat="43.8466551" lon="12.1719997"><ele>601.0</ele><time>2026-04-06T14:06:53.008Z</time></trkpt><trkpt lat="43.8467102" lon="12.1717984"><ele>603.0</ele><time>2026-04-06T14:06:54.009Z</time></trkpt><trkpt lat="43.8467846" lon="12.1715859"><ele>601.6666666666666</ele><time>2026-04-06T14:06:55.006Z</time></trkpt><trkpt lat="43.8468647" lon="12.1713769"><ele>600.3333333333333</ele><time>2026-04-06T14:06:56.005Z</time></trkpt><trkpt lat="43.8469424" lon="12.1711744"><ele>599.0</ele><time>2026-04-06T14:06:57.009Z</time></trkpt><trkpt lat="43.8470147" lon="12.1709796"><ele>599.0</ele><time>2026-04-06T14:06:58.009Z</time></trkpt><trkpt lat="43.8470784" lon="12.17079"><ele>599.0</ele><time>2026-04-06T14:06:59.006Z</time></trkpt><trkpt lat="43.8471455" lon="12.1706172"><ele>599.0</ele><time>2026-04-06T14:07:00.009Z</time></trkpt><trkpt lat="43.8472194" lon="12.1704637"><ele>599.0</ele><time>2026-04-06T14:07:01.007Z</time></trkpt><trkpt lat="43.8473039" lon="12.1703145"><ele>602.25</ele><time>2026-04-06T14:07:02.009Z</time></trkpt><trkpt lat="43.8473949" lon="12.1701731"><ele>605.5</ele><time>2026-04-06T14:07:03.008Z</time></trkpt><trkpt lat="43.8474797" lon="12.1700391"><ele>608.75</ele><time>2026-04-06T14:07:04.008Z</time></trkpt><trkpt lat="43.8475636" lon="12.1699077"><ele>612.0</ele><time>2026-04-06T14:07:05.011Z</time></trkpt><trkpt lat="43.8476483" lon="12.169773"><ele>612.5</ele><time>2026-04-06T14:07:06.007Z</time></trkpt><trkpt lat="43.847731" lon="12.1696342"><ele>613.0</ele><time>2026-04-06T14:07:07.007Z</time></trkpt><trkpt lat="43.847813" lon="12.1694963"><ele>613.5</ele><time>2026-04-06T14:07:08.008Z</time></trkpt><trkpt lat="43.8479016" lon="12.1693684"><ele>614.0</ele><time>2026-04-06T14:07:09.01Z</time></trkpt><trkpt lat="43.8479985" lon="12.1692619"><ele>614.0</ele><time>2026-04-06T14:07:10.009Z</time></trkpt><trkpt lat="43.848104" lon="12.1691761"><ele>614.0</ele><time>2026-04-06T14:07:11.007Z</time></trkpt><trkpt lat="43.8482155" lon="12.1691044"><ele>614.0</ele><time>2026-04-06T14:07:12.009Z</time></trkpt><trkpt lat="43.8483133" lon="12.1690483"><ele>614.0</ele><time>2026-04-06T14:07:13.009Z</time></trkpt><trkpt lat="43.8484" lon="12.1689783"><ele>610.6</ele><time>2026-04-06T14:07:14.007Z</time></trkpt><trkpt lat="43.8484783" lon="12.1688867"><ele>607.2</ele><time>2026-04-06T14:07:15.01Z</time></trkpt><trkpt lat="43.8485533" lon="12.1687833"><ele>603.8000000000001</ele><time>2026-04-06T14:07:16.008Z</time></trkpt><trkpt lat="43.848625" lon="12.168675"><ele>600.4</ele><time>2026-04-06T14:07:17.007Z</time></trkpt><trkpt lat="43.8486867" lon="12.1685583"><ele>597.0</ele><time>2026-04-06T14:07:18.006Z</time></trkpt><trkpt lat="43.8487333" lon="12.1684333"><ele>597.0</ele><time>2026-04-06T14:07:19.009Z</time></trkpt><trkpt lat="43.8487683" lon="12.1683033"><ele>597.0</ele><time>2026-04-06T14:07:20.006Z</time></trkpt><trkpt lat="43.8487983" lon="12.1681733"><ele>597.0</ele><time>2026-04-06T14:07:21.008Z</time></trkpt><trkpt lat="43.84882" lon="12.16804"><ele>597.0</ele><time>2026-04-06T14:07:22.009Z</time></trkpt><trkpt lat="43.8488317" lon="12.1679"><ele>597.0</ele><time>2026-04-06T14:07:23.007Z</time></trkpt><trkpt lat="43.8488283" lon="12.167755"><ele>597.75</ele><time>2026-04-06T14:07:24.009Z</time></trkpt><trkpt lat="43.848805" lon="12.1675983"><ele>598.5</ele><time>2026-04-06T14:07:25.008Z</time></trkpt><trkpt lat="43.84877" lon="12.16743"><ele>599.25</ele><time>2026-04-06T14:07:26.01Z</time></trkpt><trkpt lat="43.8487333" lon="12.167245"><ele>600.0</ele><time>2026-04-06T14:07:27.01Z</time></trkpt><trkpt lat="43.8487033" lon="12.1670583"><ele>597.0</ele><time>2026-04-06T14:07:28.007Z</time></trkpt><trkpt lat="43.8486783" lon="12.16688"><ele>594.0</ele><time>2026-04-06T14:07:29.007Z</time></trkpt><trkpt lat="43.8486683" lon="12.1667133"><ele>591.0</ele><time>2026-04-06T14:07:30.008Z</time></trkpt><trkpt lat="43.8486483" lon="12.1665567"><ele>588.0</ele><time>2026-04-06T14:07:31.013Z</time></trkpt><trkpt lat="43.8486283" lon="12.1664033"><ele>586.3333333333334</ele><time>2026-04-06T14:07:32.007Z</time></trkpt><trkpt lat="43.8485983" lon="12.1662667"><ele>584.6666666666666</ele><time>2026-04-06T14:07:33.008Z</time></trkpt><trkpt lat="43.8485517" lon="12.16615"><ele>583.0</ele><time>2026-04-06T14:07:34.009Z</time></trkpt><trkpt lat="43.8485033" lon="12.1660483"><ele>581.3333333333333</ele><time>2026-04-06T14:07:35.007Z</time></trkpt><trkpt lat="43.848465" lon="12.1659517"><ele>579.6666666666666</ele><time>2026-04-06T14:07:36.011Z</time></trkpt><trkpt lat="43.84843" lon="12.1658583"><ele>578.0</ele><time>2026-04-06T14:07:37.009Z</time></trkpt><trkpt lat="43.8484433" lon="12.16575"><ele>578.5</ele><time>2026-04-06T14:07:38.01Z</time></trkpt><trkpt lat="43.8484667" lon="12.165615"><ele>579.0</ele><time>2026-04-06T14:07:39.007Z</time></trkpt><trkpt lat="43.848515" lon="12.16547"><ele>579.5</ele><time>2026-04-06T14:07:40.007Z</time></trkpt><trkpt lat="43.84858" lon="12.165325"><ele>580.0</ele><time>2026-04-06T14:07:41.011Z</time></trkpt><trkpt lat="43.8486383" lon="12.1651767"><ele>580.0</ele><time>2026-04-06T14:07:42.008Z</time></trkpt><trkpt lat="43.8486917" lon="12.1650217"><ele>580.0</ele><time>2026-04-06T14:07:43.006Z</time></trkpt><trkpt lat="43.84873" lon="12.1648583"><ele>580.0</ele><time>2026-04-06T14:07:44.005Z</time></trkpt><trkpt lat="43.8487783" lon="12.1646883"><ele>580.0</ele><time>2026-04-06T14:07:45.007Z</time></trkpt><trkpt lat="43.848815" lon="12.1645183"><ele>583.75</ele><time>2026-04-06T14:07:46.009Z</time></trkpt><trkpt lat="43.848885" lon="12.1643567"><ele>587.5</ele><time>2026-04-06T14:07:47.009Z</time></trkpt><trkpt lat="43.8489724" lon="12.164208"><ele>591.25</ele><time>2026-04-06T14:07:48.008Z</time></trkpt><trkpt lat="43.8490599" lon="12.1640703"><ele>595.0</ele><time>2026-04-06T14:07:49.007Z</time></trkpt><trkpt lat="43.849154" lon="12.1639427"><ele>598.0</ele><time>2026-04-06T14:07:50.009Z</time></trkpt><trkpt lat="43.8492462" lon="12.163827"><ele>601.0</ele><time>2026-04-06T14:07:51.013Z</time></trkpt><trkpt lat="43.8493401" lon="12.1637247"><ele>604.0</ele><time>2026-04-06T14:07:52.009Z</time></trkpt><trkpt lat="43.8494257" lon="12.1636372"><ele>607.0</ele><time>2026-04-06T14:07:53.009Z</time></trkpt><trkpt lat="43.8495062" lon="12.1635725"><ele>610.0</ele><time>2026-04-06T14:07:54.006Z</time></trkpt><trkpt lat="43.8495929" lon="12.163534"><ele>610.0</ele><time>2026-04-06T14:07:55.007Z</time></trkpt><trkpt lat="43.8496858" lon="12.1635087"><ele>610.0</ele><time>2026-04-06T14:07:56.007Z</time></trkpt><trkpt lat="43.849817" lon="12.1634916"><ele>610.0</ele><time>2026-04-06T14:07:57.009Z</time></trkpt><trkpt lat="43.8499492" lon="12.1634675"><ele>610.0</ele><time>2026-04-06T14:07:58.011Z</time></trkpt><trkpt lat="43.8500752" lon="12.1634392"><ele>607.5</ele><time>2026-04-06T14:07:59.007Z</time></trkpt><trkpt lat="43.8501922" lon="12.1634281"><ele>605.0</ele><time>2026-04-06T14:08:00.007Z</time></trkpt><trkpt lat="43.8503039" lon="12.1634437"><ele>602.5</ele><time>2026-04-06T14:08:01.006Z</time></trkpt><trkpt lat="43.8504237" lon="12.1634907"><ele>600.0</ele><time>2026-04-06T14:08:02.008Z</time></trkpt><trkpt lat="43.8505377" lon="12.1635602"><ele>600.0</ele><time>2026-04-06T14:08:03.006Z</time></trkpt><trkpt lat="43.8506439" lon="12.1636339"><ele>600.0</ele><time>2026-04-06T14:08:04.009Z</time></trkpt><trkpt lat="43.8507362" lon="12.1636901"><ele>600.0</ele><time>2026-04-06T14:08:05.01Z</time></trkpt><trkpt lat="43.8508093" lon="12.1637133"><ele>600.0</ele><time>2026-04-06T14:08:06.009Z</time></trkpt><trkpt lat="43.8509327" lon="12.1636758"><ele>600.0</ele><time>2026-04-06T14:08:08.007Z</time></trkpt><trkpt lat="43.8510082" lon="12.1635224"><ele>595.5</ele><time>2026-04-06T14:08:10.01Z</time></trkpt><trkpt lat="43.8510376" lon="12.1633841"><ele>591.0</ele><time>2026-04-06T14:08:11.009Z</time></trkpt><trkpt lat="43.8510846" lon="12.1632215"><ele>586.5</ele><time>2026-04-06T14:08:12.009Z</time></trkpt><trkpt lat="43.8511471" lon="12.1630475"><ele>582.0</ele><time>2026-04-06T14:08:13.006Z</time></trkpt><trkpt lat="43.8512223" lon="12.1628607"><ele>582.0</ele><time>2026-04-06T14:08:14.007Z</time></trkpt><trkpt lat="43.8513033" lon="12.1626708"><ele>582.0</ele><time>2026-04-06T14:08:15.007Z</time></trkpt><trkpt lat="43.8513883" lon="12.162487"><ele>582.0</ele><time>2026-04-06T14:08:16.009Z</time></trkpt><trkpt lat="43.851479" lon="12.1623038"><ele>585.2</ele><time>2026-04-06T14:08:17.006Z</time></trkpt><trkpt lat="43.8515585" lon="12.1621469"><ele>588.4000000000001</ele><time>2026-04-06T14:08:18.011Z</time></trkpt><trkpt lat="43.8516177" lon="12.1620156"><ele>591.5999999999999</ele><time>2026-04-06T14:08:19.007Z</time></trkpt><trkpt lat="43.851659" lon="12.1618946"><ele>594.8</ele><time>2026-04-06T14:08:20.011Z</time></trkpt><trkpt lat="43.8516935" lon="12.1617802"><ele>598.0</ele><time>2026-04-06T14:08:21.008Z</time></trkpt><trkpt lat="43.8517358" lon="12.1616714"><ele>598.0</ele><time>2026-04-06T14:08:22.009Z</time></trkpt><trkpt lat="43.8517854" lon="12.1615768"><ele>598.0</ele><time>2026-04-06T14:08:23.006Z</time></trkpt><trkpt lat="43.85184" lon="12.1614998"><ele>598.0</ele><time>2026-04-06T14:08:24.009Z</time></trkpt><trkpt lat="43.8519089" lon="12.1614512"><ele>598.0</ele><time>2026-04-06T14:08:25.01Z</time></trkpt><trkpt lat="43.8519772" lon="12.1613956"><ele>598.0</ele><time>2026-04-06T14:08:26.009Z</time></trkpt><trkpt lat="43.8520399" lon="12.1613258"><ele>598.0</ele><time>2026-04-06T14:08:27.011Z</time></trkpt><trkpt lat="43.8520942" lon="12.1612303"><ele>597.4</ele><time>2026-04-06T14:08:28.008Z</time></trkpt><trkpt lat="43.8521418" lon="12.1611108"><ele>596.8</ele><time>2026-04-06T14:08:29.01Z</time></trkpt><trkpt lat="43.8522017" lon="12.1609843"><ele>596.2</ele><time>2026-04-06T14:08:30.008Z</time></trkpt><trkpt lat="43.8522716" lon="12.1608595"><ele>595.6</ele><time>2026-04-06T14:08:31.01Z</time></trkpt><trkpt lat="43.8523531" lon="12.1607404"><ele>595.0</ele><time>2026-04-06T14:08:32.01Z</time></trkpt><trkpt lat="43.8524474" lon="12.1606395"><ele>602.75</ele><time>2026-04-06T14:08:33.009Z</time></trkpt><trkpt lat="43.8525546" lon="12.160557"><ele>610.5</ele><time>2026-04-06T14:08:34.009Z</time></trkpt><trkpt lat="43.8526591" lon="12.1604919"><ele>618.25</ele><time>2026-04-06T14:08:35.006Z</time></trkpt><trkpt lat="43.8527675" lon="12.16044"><ele>626.0</ele><time>2026-04-06T14:08:36.006Z</time></trkpt><trkpt lat="43.8528798" lon="12.1604076"><ele>626.5</ele><time>2026-04-06T14:08:37.009Z</time></trkpt><trkpt lat="43.8529981" lon="12.1603994"><ele>627.0</ele><time>2026-04-06T14:08:38.008Z</time></trkpt><trkpt lat="43.8531362" lon="12.1604078"><ele>627.5</ele><time>2026-04-06T14:08:39.009Z</time></trkpt><trkpt lat="43.8532853" lon="12.1604159"><ele>628.0</ele><time>2026-04-06T14:08:40.007Z</time></trkpt><trkpt lat="43.85343" lon="12.1604222"><ele>628.6</ele><time>2026-04-06T14:08:41.007Z</time></trkpt><trkpt lat="43.8535622" lon="12.1604239"><ele>629.1999999999999</ele><time>2026-04-06T14:08:42.009Z</time></trkpt><trkpt lat="43.853676" lon="12.1604174"><ele>629.8</ele><time>2026-04-06T14:08:43.01Z</time></trkpt><trkpt lat="43.8537748" lon="12.1604118"><ele>630.4</ele><time>2026-04-06T14:08:44.007Z</time></trkpt><trkpt lat="43.853869" lon="12.1604233"><ele>631.0</ele><time>2026-04-06T14:08:45.011Z</time></trkpt><trkpt lat="43.8539595" lon="12.1604653"><ele>631.0</ele><time>2026-04-06T14:08:46.007Z</time></trkpt><trkpt lat="43.8540449" lon="12.1605448"><ele>631.0</ele><time>2026-04-06T14:08:47.007Z</time></trkpt><trkpt lat="43.8541333" lon="12.1606625"><ele>631.0</ele><time>2026-04-06T14:08:48.009Z</time></trkpt><trkpt lat="43.8542239" lon="12.1607963"><ele>631.0</ele><time>2026-04-06T14:08:49.009Z</time></trkpt><trkpt lat="43.8543098" lon="12.1609285"><ele>625.6</ele><time>2026-04-06T14:08:50.007Z</time></trkpt><trkpt lat="43.8543928" lon="12.1610412"><ele>620.2</ele><time>2026-04-06T14:08:51.007Z</time></trkpt><trkpt lat="43.8544716" lon="12.1611371"><ele>614.8</ele><time>2026-04-06T14:08:52.008Z</time></trkpt><trkpt lat="43.8545484" lon="12.1612015"><ele>609.4</ele><time>2026-04-06T14:08:53.008Z</time></trkpt><trkpt lat="43.854623" lon="12.1612345"><ele>604.0</ele><time>2026-04-06T14:08:54.008Z</time></trkpt><trkpt lat="43.8546948" lon="12.1612461"><ele>604.0</ele><time>2026-04-06T14:08:55.009Z</time></trkpt><trkpt lat="43.8547641" lon="12.161231"><ele>604.0</ele><time>2026-04-06T14:08:56.012Z</time></trkpt><trkpt lat="43.8548297" lon="12.1611957"><ele>604.0</ele><time>2026-04-06T14:08:57.01Z</time></trkpt><trkpt lat="43.8548927" lon="12.1611374"><ele>604.0</ele><time>2026-04-06T14:08:58.008Z</time></trkpt><trkpt lat="43.8549479" lon="12.1610609"><ele>604.0</ele><time>2026-04-06T14:08:59.009Z</time></trkpt><trkpt lat="43.854989" lon="12.1609447"><ele>604.0</ele><time>2026-04-06T14:09:00.008Z</time></trkpt><trkpt lat="43.8550139" lon="12.160799"><ele>603.1666666666667</ele><time>2026-04-06T14:09:01.014Z</time></trkpt><trkpt lat="43.8550398" lon="12.1606726"><ele>602.3333333333334</ele><time>2026-04-06T14:09:02.006Z</time></trkpt><trkpt lat="43.8550764" lon="12.1605746"><ele>601.5</ele><time>2026-04-06T14:09:03.007Z</time></trkpt><trkpt lat="43.855126" lon="12.1605051"><ele>600.6666666666666</ele><time>2026-04-06T14:09:04.009Z</time></trkpt><trkpt lat="43.8551826" lon="12.1604598"><ele>599.8333333333333</ele><time>2026-04-06T14:09:05.01Z</time></trkpt><trkpt lat="43.855253" lon="12.1604374"><ele>599.0</ele><time>2026-04-06T14:09:06.009Z</time></trkpt><trkpt lat="43.855333" lon="12.1604383"><ele>599.0</ele><time>2026-04-06T14:09:07.009Z</time></trkpt><trkpt lat="43.8554153" lon="12.1604395"><ele>599.0</ele><time>2026-04-06T14:09:08.01Z</time></trkpt><trkpt lat="43.8554996" lon="12.1604202"><ele>599.0</ele><time>2026-04-06T14:09:09.008Z</time></trkpt><trkpt lat="43.8555774" lon="12.160379"><ele>599.0</ele><time>2026-04-06T14:09:10.01Z</time></trkpt><trkpt lat="43.8556521" lon="12.16033"><ele>599.0</ele><time>2026-04-06T14:09:11.008Z</time></trkpt><trkpt lat="43.8557172" lon="12.1602949"><ele>599.0</ele><time>2026-04-06T14:09:12.009Z</time></trkpt><trkpt lat="43.8557975" lon="12.1602614"><ele>599.0</ele><time>2026-04-06T14:09:14.009Z</time></trkpt><trkpt lat="43.8558602" lon="12.1602374"><ele>599.0</ele><time>2026-04-06T14:09:22.011Z</time></trkpt><trkpt lat="43.8558517" lon="12.1601433"><ele>599.0</ele><time>2026-04-06T14:09:48.009Z</time></trkpt><trkpt lat="43.8557682" lon="12.1601159"><ele>599.0</ele><time>2026-04-06T14:09:51.008Z</time></trkpt><trkpt lat="43.855685" lon="12.1601025"><ele>599.0</ele><time>2026-04-06T14:09:52.008Z</time></trkpt><trkpt lat="43.8555922" lon="12.160099"><ele>599.0</ele><time>2026-04-06T14:09:53.009Z</time></trkpt><trkpt lat="43.8554899" lon="12.1601319"><ele>599.0</ele><time>2026-04-06T14:09:54.01Z</time></trkpt><trkpt lat="43.8553822" lon="12.1601717"><ele>599.0</ele><time>2026-04-06T14:09:55.011Z</time></trkpt><trkpt lat="43.855272" lon="12.1602022"><ele>599.0</ele><time>2026-04-06T14:09:56.008Z</time></trkpt><trkpt lat="43.8551516" lon="12.1602168"><ele>599.0</ele><time>2026-04-06T14:09:57.008Z</time></trkpt><trkpt lat="43.85503" lon="12.160245"><ele>604.2</ele><time>2026-04-06T14:09:58.009Z</time></trkpt><trkpt lat="43.8549189" lon="12.1602932"><ele>609.4</ele><time>2026-04-06T14:09:59.007Z</time></trkpt><trkpt lat="43.8548237" lon="12.160361"><ele>614.6</ele><time>2026-04-06T14:10:00.009Z</time></trkpt><trkpt lat="43.8547344" lon="12.1604151"><ele>619.8</ele><time>2026-04-06T14:10:01.006Z</time></trkpt><trkpt lat="43.8546534" lon="12.1604426"><ele>625.0</ele><time>2026-04-06T14:10:02.009Z</time></trkpt><trkpt lat="43.8545775" lon="12.1604449"><ele>625.0</ele><time>2026-04-06T14:10:03.008Z</time></trkpt><trkpt lat="43.8544683" lon="12.1604119"><ele>625.0</ele><time>2026-04-06T14:10:05.009Z</time></trkpt><trkpt lat="43.8544791" lon="12.1603209"><ele>625.0</ele><time>2026-04-06T14:10:08.007Z</time></trkpt><trkpt lat="43.8545754" lon="12.1602693"><ele>625.0</ele><time>2026-04-06T14:10:10.007Z</time></trkpt><trkpt lat="43.8546451" lon="12.1602377"><ele>625.0</ele><time>2026-04-06T14:10:11.01Z</time></trkpt><trkpt lat="43.8547144" lon="12.1601785"><ele>625.0</ele><time>2026-04-06T14:10:12.007Z</time></trkpt><trkpt lat="43.8547901" lon="12.1601037"><ele>625.0</ele><time>2026-04-06T14:10:13.008Z</time></trkpt><trkpt lat="43.8548851" lon="12.1600191"><ele>625.0</ele><time>2026-04-06T14:10:14.009Z</time></trkpt><trkpt lat="43.8549903" lon="12.1599533"><ele>625.0</ele><time>2026-04-06T14:10:15.006Z</time></trkpt><trkpt lat="43.8550851" lon="12.1598976"><ele>625.0</ele><time>2026-04-06T14:10:16.008Z</time></trkpt><trkpt lat="43.8551646" lon="12.1598531"><ele>625.0</ele><time>2026-04-06T14:10:17.009Z</time></trkpt><trkpt lat="43.8552565" lon="12.1597639"><ele>626.3333333333334</ele><time>2026-04-06T14:10:19.009Z</time></trkpt><trkpt lat="43.855269" lon="12.1596718"><ele>627.6666666666667</ele><time>2026-04-06T14:10:21.008Z</time></trkpt><trkpt lat="43.8551684" lon="12.1596672"><ele>629.0</ele><time>2026-04-06T14:10:23.008Z</time></trkpt><trkpt lat="43.8551001" lon="12.1597162"><ele>630.3333333333334</ele><time>2026-04-06T14:10:24.008Z</time></trkpt><trkpt lat="43.8550337" lon="12.1597556"><ele>631.6666666666666</ele><time>2026-04-06T14:10:25.007Z</time></trkpt><trkpt lat="43.8549554" lon="12.1597693"><ele>633.0</ele><time>2026-04-06T14:10:26.008Z</time></trkpt><trkpt lat="43.8548584" lon="12.1597847"><ele>633.0</ele><time>2026-04-06T14:10:27.009Z</time></trkpt><trkpt lat="43.8547476" lon="12.1597762"><ele>633.0</ele><time>2026-04-06T14:10:28.009Z</time></trkpt><trkpt lat="43.8546325" lon="12.1597512"><ele>633.0</ele><time>2026-04-06T14:10:29.008Z</time></trkpt><trkpt lat="43.8545125" lon="12.1597201"><ele>633.0</ele><time>2026-04-06T14:10:30.009Z</time></trkpt><trkpt lat="43.8543929" lon="12.1596845"><ele>639.8</ele><time>2026-04-06T14:10:31.01Z</time></trkpt><trkpt lat="43.8542793" lon="12.1596471"><ele>646.5999999999999</ele><time>2026-04-06T14:10:32.008Z</time></trkpt><trkpt lat="43.8541739" lon="12.1596082"><ele>653.4000000000001</ele><time>2026-04-06T14:10:33.009Z</time></trkpt><trkpt lat="43.8540767" lon="12.1595592"><ele>660.2</ele><time>2026-04-06T14:10:34.007Z</time></trkpt><trkpt lat="43.8539885" lon="12.1594948"><ele>667.0</ele><time>2026-04-06T14:10:35.008Z</time></trkpt><trkpt lat="43.853907" lon="12.1594417"><ele>667.0</ele><time>2026-04-06T14:10:36.007Z</time></trkpt><trkpt lat="43.8538244" lon="12.1594175"><ele>667.0</ele><time>2026-04-06T14:10:37.007Z</time></trkpt><trkpt lat="43.8537377" lon="12.1594197"><ele>667.0</ele><time>2026-04-06T14:10:38.007Z</time></trkpt><trkpt lat="43.853647" lon="12.1594427"><ele>667.0</ele><time>2026-04-06T14:10:39.009Z</time></trkpt><trkpt lat="43.8535594" lon="12.1594868"><ele>667.0</ele><time>2026-04-06T14:10:40.007Z</time></trkpt><trkpt lat="43.8534781" lon="12.1595232"><ele>667.0</ele><time>2026-04-06T14:10:41.008Z</time></trkpt><trkpt lat="43.8534001" lon="12.15953"><ele>667.3333333333334</ele><time>2026-04-06T14:10:42.007Z</time></trkpt><trkpt lat="43.8533286" lon="12.1595024"><ele>667.6666666666667</ele><time>2026-04-06T14:10:43.012Z</time></trkpt><trkpt lat="43.8532574" lon="12.1594595"><ele>668.0</ele><time>2026-04-06T14:10:44.007Z</time></trkpt><trkpt lat="43.8531847" lon="12.1593897"><ele>668.3333333333334</ele><time>2026-04-06T14:10:45.009Z</time></trkpt><trkpt lat="43.8531226" lon="12.1592941"><ele>668.6666666666666</ele><time>2026-04-06T14:10:46.008Z</time></trkpt><trkpt lat="43.8530565" lon="12.1592173"><ele>669.0</ele><time>2026-04-06T14:10:47.006Z</time></trkpt><trkpt lat="43.8529811" lon="12.1591729"><ele>669.0</ele><time>2026-04-06T14:10:48.009Z</time></trkpt><trkpt lat="43.8528937" lon="12.1591637"><ele>669.0</ele><time>2026-04-06T14:10:49.006Z</time></trkpt><trkpt lat="43.8527937" lon="12.1591721"><ele>669.0</ele><time>2026-04-06T14:10:50.008Z</time></trkpt><trkpt lat="43.8526792" lon="12.1591767"><ele>669.0</ele><time>2026-04-06T14:10:51.008Z</time></trkpt><trkpt lat="43.8525543" lon="12.1591685"><ele>669.0</ele><time>2026-04-06T14:10:52.009Z</time></trkpt><trkpt lat="43.852421" lon="12.159154"><ele>667.8000000000001</ele><time>2026-04-06T14:10:53.008Z</time></trkpt><trkpt lat="43.8522972" lon="12.1591294"><ele>666.6</ele><time>2026-04-06T14:10:54.006Z</time></trkpt><trkpt lat="43.8521936" lon="12.1591045"><ele>665.4</ele><time>2026-04-06T14:10:55.007Z</time></trkpt><trkpt lat="43.8521059" lon="12.1591044"><ele>664.2</ele><time>2026-04-06T14:10:56.007Z</time></trkpt><trkpt lat="43.852023" lon="12.1591307"><ele>663.0</ele><time>2026-04-06T14:10:57.007Z</time></trkpt><trkpt lat="43.8519401" lon="12.1591885"><ele>663.0</ele><time>2026-04-06T14:10:58.007Z</time></trkpt><trkpt lat="43.8518502" lon="12.159275"><ele>663.0</ele><time>2026-04-06T14:10:59.007Z</time></trkpt><trkpt lat="43.8517491" lon="12.1593886"><ele>663.0</ele><time>2026-04-06T14:11:00.009Z</time></trkpt><trkpt lat="43.8516567" lon="12.159493"><ele>663.0</ele><time>2026-04-06T14:11:01.008Z</time></trkpt><trkpt lat="43.8515747" lon="12.1595796"><ele>667.5999999999999</ele><time>2026-04-06T14:11:02.006Z</time></trkpt><trkpt lat="43.8514988" lon="12.1596382"><ele>672.1999999999999</ele><time>2026-04-06T14:11:03.009Z</time></trkpt><trkpt lat="43.8514197" lon="12.1596677"><ele>676.8</ele><time>2026-04-06T14:11:04.008Z</time></trkpt><trkpt lat="43.851326" lon="12.1596665"><ele>681.4</ele><time>2026-04-06T14:11:05.007Z</time></trkpt><trkpt lat="43.8512166" lon="12.1596582"><ele>686.0</ele><time>2026-04-06T14:11:06.01Z</time></trkpt><trkpt lat="43.8511063" lon="12.1596625"><ele>686.0</ele><time>2026-04-06T14:11:07.007Z</time></trkpt><trkpt lat="43.8509995" lon="12.1596927"><ele>686.0</ele><time>2026-04-06T14:11:08.007Z</time></trkpt><trkpt lat="43.8508978" lon="12.1597465"><ele>686.0</ele><time>2026-04-06T14:11:09.008Z</time></trkpt><trkpt lat="43.8507968" lon="12.1598258"><ele>686.0</ele><time>2026-04-06T14:11:10.007Z</time></trkpt><trkpt lat="43.8506993" lon="12.1599192"><ele>684.75</ele><time>2026-04-06T14:11:11.01Z</time></trkpt><trkpt lat="43.8506088" lon="12.1600271"><ele>683.5</ele><time>2026-04-06T14:11:12.007Z</time></trkpt><trkpt lat="43.8505221" lon="12.1601584"><ele>682.25</ele><time>2026-04-06T14:11:13.007Z</time></trkpt><trkpt lat="43.8504257" lon="12.1603075"><ele>681.0</ele><time>2026-04-06T14:11:14.008Z</time></trkpt><trkpt lat="43.8503311" lon="12.1604716"><ele>681.0</ele><time>2026-04-06T14:11:15.008Z</time></trkpt><trkpt lat="43.8502524" lon="12.1606276"><ele>681.0</ele><time>2026-04-06T14:11:16.007Z</time></trkpt><trkpt lat="43.8501865" lon="12.1607657"><ele>681.0</ele><time>2026-04-06T14:11:17.006Z</time></trkpt><trkpt lat="43.8501312" lon="12.1608899"><ele>681.0</ele><time>2026-04-06T14:11:18.01Z</time></trkpt><trkpt lat="43.8500846" lon="12.1609948"><ele>684.8333333333334</ele><time>2026-04-06T14:11:19.007Z</time></trkpt><trkpt lat="43.8500356" lon="12.1610805"><ele>688.6666666666666</ele><time>2026-04-06T14:11:20.008Z</time></trkpt><trkpt lat="43.8499835" lon="12.1611429"><ele>692.5</ele><time>2026-04-06T14:11:21.009Z</time></trkpt><trkpt lat="43.849914" lon="12.1611621"><ele>696.3333333333333</ele><time>2026-04-06T14:11:22.01Z</time></trkpt><trkpt lat="43.8498406" lon="12.1611515"><ele>700.1666666666666</ele><time>2026-04-06T14:11:23.006Z</time></trkpt><trkpt lat="43.8497535" lon="12.1611202"><ele>704.0</ele><time>2026-04-06T14:11:24.009Z</time></trkpt><trkpt lat="43.8496449" lon="12.1610636"><ele>704.0</ele><time>2026-04-06T14:11:25.008Z</time></trkpt><trkpt lat="43.8495235" lon="12.1610006"><ele>704.0</ele><time>2026-04-06T14:11:26.01Z</time></trkpt><trkpt lat="43.8494004" lon="12.1609431"><ele>704.0</ele><time>2026-04-06T14:11:27.009Z</time></trkpt><trkpt lat="43.8492886" lon="12.1608939"><ele>704.0</ele><time>2026-04-06T14:11:28.01Z</time></trkpt><trkpt lat="43.8491895" lon="12.1608428"><ele>703.6</ele><time>2026-04-06T14:11:29.007Z</time></trkpt><trkpt lat="43.8490931" lon="12.1607852"><ele>703.2</ele><time>2026-04-06T14:11:30.01Z</time></trkpt><trkpt lat="43.8489986" lon="12.1607243"><ele>702.8000000000001</ele><time>2026-04-06T14:11:31.009Z</time></trkpt><trkpt lat="43.848911" lon="12.1606646"><ele>702.4000000000001</ele><time>2026-04-06T14:11:32.008Z</time></trkpt><trkpt lat="43.8488415" lon="12.1605965"><ele>702.0</ele><time>2026-04-06T14:11:33.01Z</time></trkpt><trkpt lat="43.8487866" lon="12.160513"><ele>701.2</ele><time>2026-04-06T14:11:34.009Z</time></trkpt><trkpt lat="43.8487532" lon="12.1604163"><ele>700.4000000000001</ele><time>2026-04-06T14:11:35.011Z</time></trkpt><trkpt lat="43.848735" lon="12.1603051"><ele>699.5999999999999</ele><time>2026-04-06T14:11:36.011Z</time></trkpt><trkpt lat="43.8487382" lon="12.1601785"><ele>698.8</ele><time>2026-04-06T14:11:37.009Z</time></trkpt><trkpt lat="43.8487755" lon="12.1600395"><ele>698.0</ele><time>2026-04-06T14:11:38.008Z</time></trkpt><trkpt lat="43.848817" lon="12.1599104"><ele>697.2</ele><time>2026-04-06T14:11:39.008Z</time></trkpt><trkpt lat="43.8488555" lon="12.1597994"><ele>696.4</ele><time>2026-04-06T14:11:40.006Z</time></trkpt><trkpt lat="43.8488867" lon="12.1597018"><ele>695.6</ele><time>2026-04-06T14:11:41.008Z</time></trkpt><trkpt lat="43.8489034" lon="12.1596135"><ele>694.8000000000001</ele><time>2026-04-06T14:11:42.007Z</time></trkpt><trkpt lat="43.8488892" lon="12.1594521"><ele>694.0</ele><time>2026-04-06T14:11:44.013Z</time></trkpt><trkpt lat="43.8488178" lon="12.1593203"><ele>694.0</ele><time>2026-04-06T14:11:46.008Z</time></trkpt><trkpt lat="43.8486698" lon="12.1592438"><ele>694.0</ele><time>2026-04-06T14:11:48.007Z</time></trkpt><trkpt lat="43.8485748" lon="12.1591976"><ele>694.0</ele><time>2026-04-06T14:11:49.009Z</time></trkpt><trkpt lat="43.8484921" lon="12.159122"><ele>694.0</ele><time>2026-04-06T14:11:50.008Z</time></trkpt><trkpt lat="43.8484001" lon="12.158994"><ele>690.0</ele><time>2026-04-06T14:11:51.006Z</time></trkpt><trkpt lat="43.8483011" lon="12.1588393"><ele>686.0</ele><time>2026-04-06T14:11:52.008Z</time></trkpt><trkpt lat="43.848203" lon="12.1586805"><ele>682.0</ele><time>2026-04-06T14:11:53.007Z</time></trkpt><trkpt lat="43.848118" lon="12.1585145"><ele>678.0</ele><time>2026-04-06T14:11:54.008Z</time></trkpt><trkpt lat="43.84803" lon="12.1583703"><ele>678.0</ele><time>2026-04-06T14:11:55.009Z</time></trkpt><trkpt lat="43.8479432" lon="12.1582488"><ele>678.0</ele><time>2026-04-06T14:11:56.011Z</time></trkpt><trkpt lat="43.8478592" lon="12.1581478"><ele>678.0</ele><time>2026-04-06T14:11:57.008Z</time></trkpt><trkpt lat="43.8477859" lon="12.1580586"><ele>678.0</ele><time>2026-04-06T14:11:58.007Z</time></trkpt><trkpt lat="43.8477234" lon="12.1579821"><ele>678.0</ele><time>2026-04-06T14:11:59.007Z</time></trkpt><trkpt lat="43.8476736" lon="12.1579123"><ele>678.2</ele><time>2026-04-06T14:12:00.007Z</time></trkpt><trkpt lat="43.8476381" lon="12.1577584"><ele>678.4</ele><time>2026-04-06T14:12:02.008Z</time></trkpt><trkpt lat="43.8476958" lon="12.1576236"><ele>678.6</ele><time>2026-04-06T14:12:04.011Z</time></trkpt><trkpt lat="43.8478119" lon="12.1575652"><ele>678.8000000000001</ele><time>2026-04-06T14:12:06.007Z</time></trkpt><trkpt lat="43.8478703" lon="12.1575294"><ele>679.0</ele><time>2026-04-06T14:12:07.008Z</time></trkpt><trkpt lat="43.8479593" lon="12.1574077"><ele>678.0</ele><time>2026-04-06T14:12:09.01Z</time></trkpt><trkpt lat="43.8479714" lon="12.1573195"><ele>677.0</ele><time>2026-04-06T14:12:10.008Z</time></trkpt><trkpt lat="43.8479621" lon="12.1572212"><ele>676.0</ele><time>2026-04-06T14:12:11.007Z</time></trkpt><trkpt lat="43.847869" lon="12.157082"><ele>675.0</ele><time>2026-04-06T14:12:12.006Z</time></trkpt><trkpt lat="43.8477647" lon="12.1569252"><ele>674.0</ele><time>2026-04-06T14:12:13.009Z</time></trkpt><trkpt lat="43.847672" lon="12.1567559"><ele>669.75</ele><time>2026-04-06T14:12:14.007Z</time></trkpt><trkpt lat="43.8475912" lon="12.1565799"><ele>665.5</ele><time>2026-04-06T14:12:15.008Z</time></trkpt><trkpt lat="43.8475113" lon="12.1564148"><ele>661.25</ele><time>2026-04-06T14:12:16.008Z</time></trkpt><trkpt lat="43.8474534" lon="12.1562489"><ele>657.0</ele><time>2026-04-06T14:12:17.009Z</time></trkpt><trkpt lat="43.8474001" lon="12.1560837"><ele>658.25</ele><time>2026-04-06T14:12:18.008Z</time></trkpt><trkpt lat="43.8473474" lon="12.1559224"><ele>659.5</ele><time>2026-04-06T14:12:19.008Z</time></trkpt><trkpt lat="43.8472951" lon="12.1557682"><ele>660.75</ele><time>2026-04-06T14:12:20.008Z</time></trkpt><trkpt lat="43.8472448" lon="12.1556312"><ele>662.0</ele><time>2026-04-06T14:12:21.008Z</time></trkpt><trkpt lat="43.8471963" lon="12.1555093"><ele>662.0</ele><time>2026-04-06T14:12:22.009Z</time></trkpt><trkpt lat="43.8471435" lon="12.1553966"><ele>662.0</ele><time>2026-04-06T14:12:23.009Z</time></trkpt><trkpt lat="43.8470869" lon="12.155293"><ele>662.0</ele><time>2026-04-06T14:12:24.008Z</time></trkpt><trkpt lat="43.8470166" lon="12.1552013"><ele>662.0</ele><time>2026-04-06T14:12:25.008Z</time></trkpt><trkpt lat="43.8469327" lon="12.1551106"><ele>662.0</ele><time>2026-04-06T14:12:26.007Z</time></trkpt><trkpt lat="43.8468346" lon="12.1550279"><ele>657.25</ele><time>2026-04-06T14:12:27.009Z</time></trkpt><trkpt lat="43.846729" lon="12.1549564"><ele>652.5</ele><time>2026-04-06T14:12:28.006Z</time></trkpt><trkpt lat="43.8466185" lon="12.154889"><ele>647.75</ele><time>2026-04-06T14:12:29.007Z</time></trkpt><trkpt lat="43.8465054" lon="12.1548357"><ele>643.0</ele><time>2026-04-06T14:12:30.007Z</time></trkpt><trkpt lat="43.846388" lon="12.1547995"><ele>643.0</ele><time>2026-04-06T14:12:31.009Z</time></trkpt><trkpt lat="43.8462748" lon="12.1547604"><ele>643.0</ele><time>2026-04-06T14:12:32.008Z</time></trkpt><trkpt lat="43.846168" lon="12.1547291"><ele>643.0</ele><time>2026-04-06T14:12:33.009Z</time></trkpt><trkpt lat="43.8460694" lon="12.1546997"><ele>643.0</ele><time>2026-04-06T14:12:34.007Z</time></trkpt><trkpt lat="43.8459824" lon="12.1546687"><ele>643.0</ele><time>2026-04-06T14:12:35.009Z</time></trkpt><trkpt lat="43.8459054" lon="12.1546365"><ele>641.1666666666667</ele><time>2026-04-06T14:12:36.007Z</time></trkpt><trkpt lat="43.8458293" lon="12.1546174"><ele>639.3333333333334</ele><time>2026-04-06T14:12:37.082Z</time></trkpt><trkpt lat="43.8457617" lon="12.1546127"><ele>637.5</ele><time>2026-04-06T14:12:38.007Z</time></trkpt><trkpt lat="43.8456923" lon="12.1546327"><ele>635.6666666666666</ele><time>2026-04-06T14:12:39.008Z</time></trkpt><trkpt lat="43.8456341" lon="12.1546849"><ele>633.8333333333333</ele><time>2026-04-06T14:12:40.01Z</time></trkpt><trkpt lat="43.8455879" lon="12.1548314"><ele>632.0</ele><time>2026-04-06T14:12:42.01Z</time></trkpt><trkpt lat="43.8455315" lon="12.1549538"><ele>632.0</ele><time>2026-04-06T14:12:44.011Z</time></trkpt><trkpt lat="43.8454517" lon="12.1550194"><ele>632.0</ele><time>2026-04-06T14:12:46.008Z</time></trkpt><trkpt lat="43.8453671" lon="12.1549545"><ele>632.0</ele><time>2026-04-06T14:12:48.008Z</time></trkpt><trkpt lat="43.8453543" lon="12.1548396"><ele>632.0</ele><time>2026-04-06T14:12:49.009Z</time></trkpt><trkpt lat="43.8453376" lon="12.154727"><ele>632.0</ele><time>2026-04-06T14:12:50.008Z</time></trkpt><trkpt lat="43.8453065" lon="12.1546274"><ele>632.0</ele><time>2026-04-06T14:12:51.01Z</time></trkpt><trkpt lat="43.8452564" lon="12.1545526"><ele>632.0000000000001</ele><time>2026-04-06T14:12:52.008Z</time></trkpt><trkpt lat="43.8451963" lon="12.1544946"><ele>632.0</ele><time>2026-04-06T14:12:53.007Z</time></trkpt><trkpt lat="43.8451368" lon="12.154447"><ele>632.0</ele><time>2026-04-06T14:12:54.008Z</time></trkpt><trkpt lat="43.8450834" lon="12.1543835"><ele>632.0</ele><time>2026-04-06T14:12:55.008Z</time></trkpt><trkpt lat="43.8450219" lon="12.1543386"><ele>632.0</ele><time>2026-04-06T14:12:56.008Z</time></trkpt><trkpt lat="43.8449535" lon="12.1542996"><ele>632.0000000000001</ele><time>2026-04-06T14:12:57.01Z</time></trkpt><trkpt lat="43.8448887" lon="12.1542516"><ele>632.0</ele><time>2026-04-06T14:12:58.007Z</time></trkpt><trkpt lat="43.8448304" lon="12.1541932"><ele>629.1666666666666</ele><time>2026-04-06T14:12:59.008Z</time></trkpt><trkpt lat="43.8447858" lon="12.1541136"><ele>626.3333333333333</ele><time>2026-04-06T14:13:00.006Z</time></trkpt><trkpt lat="43.8447462" lon="12.1540213"><ele>623.5</ele><time>2026-04-06T14:13:01.008Z</time></trkpt><trkpt lat="43.8447042" lon="12.1539171"><ele>620.6666666666666</ele><time>2026-04-06T14:13:02.007Z</time></trkpt><trkpt lat="43.8446604" lon="12.1538112"><ele>617.8333333333334</ele><time>2026-04-06T14:13:03.01Z</time></trkpt><trkpt lat="43.8446197" lon="12.1537092"><ele>615.0</ele><time>2026-04-06T14:13:04.009Z</time></trkpt><trkpt lat="43.8445778" lon="12.1536183"><ele>615.0</ele><time>2026-04-06T14:13:05.01Z</time></trkpt><trkpt lat="43.8445494" lon="12.1535295"><ele>615.0</ele><time>2026-04-06T14:13:06.007Z</time></trkpt><trkpt lat="43.8445412" lon="12.1534373"><ele>615.0</ele><time>2026-04-06T14:13:07.008Z</time></trkpt><trkpt lat="43.8445454" lon="12.1533361"><ele>615.0</ele><time>2026-04-06T14:13:08.007Z</time></trkpt><trkpt lat="43.844552" lon="12.1532222"><ele>615.0</ele><time>2026-04-06T14:13:09.008Z</time></trkpt><trkpt lat="43.8445646" lon="12.1530917"><ele>615.0</ele><time>2026-04-06T14:13:10.008Z</time></trkpt><trkpt lat="43.8446023" lon="12.1529546"><ele>614.6</ele><time>2026-04-06T14:13:11.007Z</time></trkpt><trkpt lat="43.8446418" lon="12.1528272"><ele>614.2</ele><time>2026-04-06T14:13:12.007Z</time></trkpt><trkpt lat="43.8446839" lon="12.1527048"><ele>613.8</ele><time>2026-04-06T14:13:13.016Z</time></trkpt><trkpt lat="43.8447399" lon="12.1525855"><ele>613.4</ele><time>2026-04-06T14:13:14.007Z</time></trkpt><trkpt lat="43.8448018" lon="12.1524639"><ele>613.0</ele><time>2026-04-06T14:13:15.009Z</time></trkpt><trkpt lat="43.8448735" lon="12.1523413"><ele>610.0</ele><time>2026-04-06T14:13:16.008Z</time></trkpt><trkpt lat="43.8449343" lon="12.1522037"><ele>607.0</ele><time>2026-04-06T14:13:17.006Z</time></trkpt><trkpt lat="43.84498" lon="12.1520433"><ele>604.0</ele><time>2026-04-06T14:13:18.008Z</time></trkpt><trkpt lat="43.8450267" lon="12.15189"><ele>601.0</ele><time>2026-04-06T14:13:19.007Z</time></trkpt><trkpt lat="43.8450617" lon="12.151735"><ele>601.0</ele><time>2026-04-06T14:13:20.007Z</time></trkpt><trkpt lat="43.845095" lon="12.1515867"><ele>601.0</ele><time>2026-04-06T14:13:21.009Z</time></trkpt><trkpt lat="43.84512" lon="12.15143"><ele>601.0</ele><time>2026-04-06T14:13:22.008Z</time></trkpt><trkpt lat="43.84513" lon="12.1512733"><ele>601.0</ele><time>2026-04-06T14:13:23.008Z</time></trkpt><trkpt lat="43.8451317" lon="12.1511267"><ele>601.0</ele><time>2026-04-06T14:13:24.01Z</time></trkpt><trkpt lat="43.845135" lon="12.1509933"><ele>601.1666666666667</ele><time>2026-04-06T14:13:25.008Z</time></trkpt><trkpt lat="43.8451233" lon="12.15087"><ele>601.3333333333334</ele><time>2026-04-06T14:13:26.007Z</time></trkpt><trkpt lat="43.8451183" lon="12.150755"><ele>601.5</ele><time>2026-04-06T14:13:27.008Z</time></trkpt><trkpt lat="43.8451317" lon="12.1506433"><ele>601.6666666666666</ele><time>2026-04-06T14:13:28.007Z</time></trkpt><trkpt lat="43.845155" lon="12.1505317"><ele>601.8333333333333</ele><time>2026-04-06T14:13:29.012Z</time></trkpt><trkpt lat="43.8451983" lon="12.1504117"><ele>602.0</ele><time>2026-04-06T14:13:30.008Z</time></trkpt><trkpt lat="43.845265" lon="12.150285"><ele>602.0</ele><time>2026-04-06T14:13:31.008Z</time></trkpt><trkpt lat="43.8453117" lon="12.1501533"><ele>602.0</ele><time>2026-04-06T14:13:32.007Z</time></trkpt><trkpt lat="43.845365" lon="12.150035"><ele>602.0</ele><time>2026-04-06T14:13:33.007Z</time></trkpt><trkpt lat="43.8454183" lon="12.1499167"><ele>602.0</ele><time>2026-04-06T14:13:34.006Z</time></trkpt><trkpt lat="43.8454733" lon="12.1497883"><ele>602.0</ele><time>2026-04-06T14:13:35.006Z</time></trkpt><trkpt lat="43.84556" lon="12.149695"><ele>597.6</ele><time>2026-04-06T14:13:36.007Z</time></trkpt><trkpt lat="43.8456417" lon="12.1495883"><ele>593.2</ele><time>2026-04-06T14:13:37.012Z</time></trkpt><trkpt lat="43.8457117" lon="12.1494867"><ele>588.8</ele><time>2026-04-06T14:13:38.006Z</time></trkpt><trkpt lat="43.84576" lon="12.149365"><ele>584.4</ele><time>2026-04-06T14:13:39.012Z</time></trkpt><trkpt lat="43.8458317" lon="12.1492933"><ele>580.0</ele><time>2026-04-06T14:13:40.007Z</time></trkpt><trkpt lat="43.8459033" lon="12.1492467"><ele>581.8</ele><time>2026-04-06T14:13:41.007Z</time></trkpt><trkpt lat="43.8459867" lon="12.1492017"><ele>583.6</ele><time>2026-04-06T14:13:42.008Z</time></trkpt><trkpt lat="43.846085" lon="12.1491567"><ele>585.4</ele><time>2026-04-06T14:13:43.007Z</time></trkpt><trkpt lat="43.8461833" lon="12.1491"><ele>587.2</ele><time>2026-04-06T14:13:44.007Z</time></trkpt><trkpt lat="43.8462983" lon="12.1490567"><ele>589.0</ele><time>2026-04-06T14:13:45.013Z</time></trkpt><trkpt lat="43.8464167" lon="12.1490467"><ele>584.25</ele><time>2026-04-06T14:13:46.005Z</time></trkpt><trkpt lat="43.8465383" lon="12.1490167"><ele>579.5</ele><time>2026-04-06T14:13:47.008Z</time></trkpt><trkpt lat="43.8466533" lon="12.1489767"><ele>574.75</ele><time>2026-04-06T14:13:48.01Z</time></trkpt><trkpt lat="43.8467633" lon="12.148925"><ele>570.0</ele><time>2026-04-06T14:13:49.007Z</time></trkpt><trkpt lat="43.8468717" lon="12.1488683"><ele>570.0</ele><time>2026-04-06T14:13:50.007Z</time></trkpt><trkpt lat="43.84696" lon="12.1488183"><ele>570.0</ele><time>2026-04-06T14:13:51.005Z</time></trkpt><trkpt lat="43.8470417" lon="12.1487833"><ele>570.0</ele><time>2026-04-06T14:13:52.006Z</time></trkpt><trkpt lat="43.84713" lon="12.14877"><ele>570.0</ele><time>2026-04-06T14:13:53.007Z</time></trkpt><trkpt lat="43.8472483" lon="12.148775"><ele>570.0</ele><time>2026-04-06T14:13:54.005Z</time></trkpt><trkpt lat="43.8473683" lon="12.1487817"><ele>570.0</ele><time>2026-04-06T14:13:55.006Z</time></trkpt><trkpt lat="43.8474817" lon="12.1487817"><ele>570.0</ele><time>2026-04-06T14:13:56.008Z</time></trkpt><trkpt lat="43.8475917" lon="12.1487633"><ele>570.0</ele><time>2026-04-06T14:13:57.006Z</time></trkpt><trkpt lat="43.8476983" lon="12.1487317"><ele>570.0</ele><time>2026-04-06T14:13:58.005Z</time></trkpt><trkpt lat="43.8477933" lon="12.1486783"><ele>570.0</ele><time>2026-04-06T14:13:59.008Z</time></trkpt><trkpt lat="43.84787" lon="12.1486067"><ele>569.2</ele><time>2026-04-06T14:14:00.007Z</time></trkpt><trkpt lat="43.8479333" lon="12.14851"><ele>568.4</ele><time>2026-04-06T14:14:01.006Z</time></trkpt><trkpt lat="43.8479817" lon="12.148395"><ele>567.6</ele><time>2026-04-06T14:14:02.006Z</time></trkpt><trkpt lat="43.8480317" lon="12.1482767"><ele>566.8</ele><time>2026-04-06T14:14:03.01Z</time></trkpt><trkpt lat="43.8480833" lon="12.1481683"><ele>566.0</ele><time>2026-04-06T14:14:04.008Z</time></trkpt><trkpt lat="43.84814" lon="12.14807"><ele>566.0</ele><time>2026-04-06T14:14:05.007Z</time></trkpt><trkpt lat="43.8482033" lon="12.147975"><ele>566.0</ele><time>2026-04-06T14:14:06.007Z</time></trkpt><trkpt lat="43.84827" lon="12.147885"><ele>566.0</ele><time>2026-04-06T14:14:07.007Z</time></trkpt><trkpt lat="43.84833" lon="12.14779"><ele>566.0</ele><time>2026-04-06T14:14:08.008Z</time></trkpt><trkpt lat="43.8483833" lon="12.1476967"><ele>566.0</ele><time>2026-04-06T14:14:09.008Z</time></trkpt><trkpt lat="43.8484383" lon="12.1476117"><ele>566.0</ele><time>2026-04-06T14:14:10.007Z</time></trkpt><trkpt lat="43.848495" lon="12.14754"><ele>566.8571428571429</ele><time>2026-04-06T14:14:11.006Z</time></trkpt><trkpt lat="43.8485567" lon="12.1474933"><ele>567.7142857142858</ele><time>2026-04-06T14:14:12.007Z</time></trkpt><trkpt lat="43.8486167" lon="12.1474567"><ele>568.5714285714286</ele><time>2026-04-06T14:14:13.008Z</time></trkpt><trkpt lat="43.84867" lon="12.14741"><ele>569.4285714285714</ele><time>2026-04-06T14:14:14.01Z</time></trkpt><trkpt lat="43.8487183" lon="12.1473517"><ele>570.2857142857142</ele><time>2026-04-06T14:14:15.007Z</time></trkpt><trkpt lat="43.8487433" lon="12.1472667"><ele>571.1428571428571</ele><time>2026-04-06T14:14:16.006Z</time></trkpt><trkpt lat="43.8487383" lon="12.147115"><ele>572.0</ele><time>2026-04-06T14:14:18.007Z</time></trkpt><trkpt lat="43.8487333" lon="12.1469867"><ele>572.0</ele><time>2026-04-06T14:14:20.01Z</time></trkpt><trkpt lat="43.848735" lon="12.1468517"><ele>572.0</ele><time>2026-04-06T14:14:22.009Z</time></trkpt><trkpt lat="43.8487183" lon="12.146715"><ele>572.0</ele><time>2026-04-06T14:14:24.008Z</time></trkpt><trkpt lat="43.8486683" lon="12.1465917"><ele>572.0</ele><time>2026-04-06T14:14:26.006Z</time></trkpt><trkpt lat="43.8486167" lon="12.1464567"><ele>572.0</ele><time>2026-04-06T14:14:28.009Z</time></trkpt><trkpt lat="43.848605" lon="12.1463683"><ele>570.6666666666666</ele><time>2026-04-06T14:14:29.007Z</time></trkpt><trkpt lat="43.8486083" lon="12.146265"><ele>569.3333333333333</ele><time>2026-04-06T14:14:30.007Z</time></trkpt><trkpt lat="43.8486189" lon="12.1461691"><ele>568.0</ele><time>2026-04-06T14:14:31.008Z</time></trkpt><trkpt lat="43.8486321" lon="12.1460753"><ele>566.6666666666666</ele><time>2026-04-06T14:14:32.008Z</time></trkpt><trkpt lat="43.8486459" lon="12.1459864"><ele>565.3333333333334</ele><time>2026-04-06T14:14:33.011Z</time></trkpt><trkpt lat="43.8486589" lon="12.1458979"><ele>564.0</ele><time>2026-04-06T14:14:34.007Z</time></trkpt><trkpt lat="43.8486829" lon="12.1457331"><ele>560.6</ele><time>2026-04-06T14:14:36.007Z</time></trkpt><trkpt lat="43.8487159" lon="12.1455956"><ele>557.2</ele><time>2026-04-06T14:14:38.013Z</time></trkpt><trkpt lat="43.8487076" lon="12.145472"><ele>553.8000000000001</ele><time>2026-04-06T14:14:40.007Z</time></trkpt><trkpt lat="43.8486465" lon="12.1454123"><ele>550.4</ele><time>2026-04-06T14:14:42.009Z</time></trkpt><trkpt lat="43.8485442" lon="12.1454764"><ele>547.0</ele><time>2026-04-06T14:14:44.008Z</time></trkpt><trkpt lat="43.8484741" lon="12.1455544"><ele>547.0</ele><time>2026-04-06T14:14:45.006Z</time></trkpt><trkpt lat="43.8484002" lon="12.1456548"><ele>547.0</ele><time>2026-04-06T14:14:46.005Z</time></trkpt><trkpt lat="43.8483302" lon="12.1457563"><ele>547.0</ele><time>2026-04-06T14:14:47.007Z</time></trkpt><trkpt lat="43.8482609" lon="12.1458559"><ele>547.0</ele><time>2026-04-06T14:14:48.009Z</time></trkpt><trkpt lat="43.8481947" lon="12.1459421"><ele>547.0</ele><time>2026-04-06T14:14:49.01Z</time></trkpt><trkpt lat="43.8481309" lon="12.1460168"><ele>547.0</ele><time>2026-04-06T14:14:50.006Z</time></trkpt><trkpt lat="43.8480696" lon="12.1460846"><ele>547.0</ele><time>2026-04-06T14:14:51.009Z</time></trkpt><trkpt lat="43.8480139" lon="12.1461474"><ele>547.0</ele><time>2026-04-06T14:14:52.005Z</time></trkpt><trkpt lat="43.8479609" lon="12.1462139"><ele>547.0</ele><time>2026-04-06T14:14:53.006Z</time></trkpt><trkpt lat="43.847908" lon="12.1462786"><ele>547.0</ele><time>2026-04-06T14:14:54.006Z</time></trkpt><trkpt lat="43.8478018" lon="12.1463457"><ele>547.0</ele><time>2026-04-06T14:14:56.007Z</time></trkpt><trkpt lat="43.8477049" lon="12.146279"><ele>547.0</ele><time>2026-04-06T14:14:58.006Z</time></trkpt><trkpt lat="43.8476542" lon="12.1461894"><ele>547.0</ele><time>2026-04-06T14:14:59.006Z</time></trkpt><trkpt lat="43.8476061" lon="12.1460788"><ele>547.0</ele><time>2026-04-06T14:15:00.006Z</time></trkpt><trkpt lat="43.8475556" lon="12.1459353"><ele>547.0</ele><time>2026-04-06T14:15:01.011Z</time></trkpt><trkpt lat="43.8475099" lon="12.1457852"><ele>547.0</ele><time>2026-04-06T14:15:02.005Z</time></trkpt><trkpt lat="43.8474731" lon="12.1456426"><ele>545.4</ele><time>2026-04-06T14:15:03.007Z</time></trkpt><trkpt lat="43.8474617" lon="12.1455117"><ele>543.8000000000001</ele><time>2026-04-06T14:15:04.007Z</time></trkpt><trkpt lat="43.84746" lon="12.1453967"><ele>542.2</ele><time>2026-04-06T14:15:05.005Z</time></trkpt><trkpt lat="43.8474733" lon="12.1452883"><ele>540.6</ele><time>2026-04-06T14:15:06.005Z</time></trkpt><trkpt lat="43.8475083" lon="12.14517"><ele>539.0</ele><time>2026-04-06T14:15:07.006Z</time></trkpt><trkpt lat="43.8475583" lon="12.145045"><ele>539.0</ele><time>2026-04-06T14:15:08.009Z</time></trkpt><trkpt lat="43.847595" lon="12.1449117"><ele>539.0</ele><time>2026-04-06T14:15:09.007Z</time></trkpt><trkpt lat="43.8476183" lon="12.1447733"><ele>539.0</ele><time>2026-04-06T14:15:10.007Z</time></trkpt><trkpt lat="43.84763" lon="12.1446233"><ele>539.0</ele><time>2026-04-06T14:15:11.011Z</time></trkpt><trkpt lat="43.8476217" lon="12.1444517"><ele>539.0</ele><time>2026-04-06T14:15:12.006Z</time></trkpt><trkpt lat="43.8476083" lon="12.1442833"><ele>540.6</ele><time>2026-04-06T14:15:13.007Z</time></trkpt><trkpt lat="43.8476017" lon="12.14412"><ele>542.2</ele><time>2026-04-06T14:15:14.005Z</time></trkpt><trkpt lat="43.8476067" lon="12.1439733"><ele>543.8000000000001</ele><time>2026-04-06T14:15:15.008Z</time></trkpt><trkpt lat="43.8476283" lon="12.1438333"><ele>545.4</ele><time>2026-04-06T14:15:16.011Z</time></trkpt><trkpt lat="43.8476683" lon="12.1437033"><ele>547.0</ele><time>2026-04-06T14:15:17.007Z</time></trkpt><trkpt lat="43.8477267" lon="12.14358"><ele>548.4</ele><time>2026-04-06T14:15:18.007Z</time></trkpt><trkpt lat="43.8477917" lon="12.1434633"><ele>549.8000000000001</ele><time>2026-04-06T14:15:19.005Z</time></trkpt><trkpt lat="43.8478517" lon="12.143345"><ele>551.2</ele><time>2026-04-06T14:15:20.009Z</time></trkpt><trkpt lat="43.847905" lon="12.1432167"><ele>552.6</ele><time>2026-04-06T14:15:21.005Z</time></trkpt><trkpt lat="43.8479583" lon="12.14307"><ele>554.0</ele><time>2026-04-06T14:15:22.007Z</time></trkpt><trkpt lat="43.84801" lon="12.142915"><ele>554.0</ele><time>2026-04-06T14:15:23.007Z</time></trkpt><trkpt lat="43.848055" lon="12.14278"><ele>554.0</ele><time>2026-04-06T14:15:24.006Z</time></trkpt><trkpt lat="43.8480967" lon="12.142675"><ele>554.0</ele><time>2026-04-06T14:15:25.009Z</time></trkpt><trkpt lat="43.8481467" lon="12.1425983"><ele>554.0</ele><time>2026-04-06T14:15:26.006Z</time></trkpt><trkpt lat="43.848265" lon="12.142545"><ele>554.0</ele><time>2026-04-06T14:15:28.011Z</time></trkpt><trkpt lat="43.8483383" lon="12.1425617"><ele>554.0</ele><time>2026-04-06T14:15:29.005Z</time></trkpt><trkpt lat="43.8484183" lon="12.1426033"><ele>554.0</ele><time>2026-04-06T14:15:30.008Z</time></trkpt><trkpt lat="43.8485133" lon="12.1426633"><ele>554.0</ele><time>2026-04-06T14:15:31.007Z</time></trkpt><trkpt lat="43.8486067" lon="12.1427167"><ele>554.0</ele><time>2026-04-06T14:15:32.005Z</time></trkpt><trkpt lat="43.8486983" lon="12.1427567"><ele>554.0</ele><time>2026-04-06T14:15:33.008Z</time></trkpt><trkpt lat="43.8487883" lon="12.142785"><ele>554.0</ele><time>2026-04-06T14:15:34.008Z</time></trkpt><trkpt lat="43.8488767" lon="12.14279"><ele>554.0</ele><time>2026-04-06T14:15:35.005Z</time></trkpt><trkpt lat="43.8489583" lon="12.1427717"><ele>554.0</ele><time>2026-04-06T14:15:36.006Z</time></trkpt><trkpt lat="43.8490383" lon="12.1427367"><ele>554.0</ele><time>2026-04-06T14:15:37.006Z</time></trkpt><trkpt lat="43.84912" lon="12.1426767"><ele>554.0</ele><time>2026-04-06T14:15:38.006Z</time></trkpt><trkpt lat="43.849195" lon="12.142605"><ele>554.0</ele><time>2026-04-06T14:15:39.009Z</time></trkpt><trkpt lat="43.8492667" lon="12.1425183"><ele>553.8</ele><time>2026-04-06T14:15:40.008Z</time></trkpt><trkpt lat="43.8493283" lon="12.1423783"><ele>553.5999999999999</ele><time>2026-04-06T14:15:41.011Z</time></trkpt><trkpt lat="43.8493833" lon="12.14224"><ele>553.4</ele><time>2026-04-06T14:15:42.008Z</time></trkpt><trkpt lat="43.8494333" lon="12.1420983"><ele>553.1999999999999</ele><time>2026-04-06T14:15:43.009Z</time></trkpt><trkpt lat="43.8494817" lon="12.1419767"><ele>553.0</ele><time>2026-04-06T14:15:44.008Z</time></trkpt><trkpt lat="43.84955" lon="12.1418817"><ele>553.0</ele><time>2026-04-06T14:15:45.006Z</time></trkpt><trkpt lat="43.849645" lon="12.1418"><ele>553.0</ele><time>2026-04-06T14:15:46.009Z</time></trkpt><trkpt lat="43.8497483" lon="12.14172"><ele>553.0</ele><time>2026-04-06T14:15:47.009Z</time></trkpt><trkpt lat="43.849855" lon="12.1416233"><ele>553.0</ele><time>2026-04-06T14:15:48.01Z</time></trkpt><trkpt lat="43.8499583" lon="12.1415367"><ele>555.8</ele><time>2026-04-06T14:15:49.008Z</time></trkpt><trkpt lat="43.850055" lon="12.1414633"><ele>558.5999999999999</ele><time>2026-04-06T14:15:50.007Z</time></trkpt><trkpt lat="43.85015" lon="12.1413983"><ele>561.4000000000001</ele><time>2026-04-06T14:15:51.01Z</time></trkpt><trkpt lat="43.850235" lon="12.1413517"><ele>564.2</ele><time>2026-04-06T14:15:52.008Z</time></trkpt><trkpt lat="43.8502983" lon="12.141295"><ele>567.0</ele><time>2026-04-06T14:15:53.009Z</time></trkpt><trkpt lat="43.85035" lon="12.1412283"><ele>564.2</ele><time>2026-04-06T14:15:54.007Z</time></trkpt><trkpt lat="43.8503933" lon="12.1410633"><ele>561.4000000000001</ele><time>2026-04-06T14:15:56.01Z</time></trkpt><trkpt lat="43.85037" lon="12.1409533"><ele>558.5999999999999</ele><time>2026-04-06T14:15:57.008Z</time></trkpt><trkpt lat="43.85035" lon="12.1408317"><ele>555.8</ele><time>2026-04-06T14:15:58.011Z</time></trkpt><trkpt lat="43.8502767" lon="12.1406983"><ele>553.0</ele><time>2026-04-06T14:15:59.006Z</time></trkpt><trkpt lat="43.850225" lon="12.1405733"><ele>553.0</ele><time>2026-04-06T14:16:00.009Z</time></trkpt><trkpt lat="43.85019" lon="12.140435"><ele>553.0</ele><time>2026-04-06T14:16:01.007Z</time></trkpt><trkpt lat="43.8501783" lon="12.1402867"><ele>553.0</ele><time>2026-04-06T14:16:02.007Z</time></trkpt><trkpt lat="43.8501583" lon="12.140145"><ele>553.0</ele><time>2026-04-06T14:16:03.008Z</time></trkpt><trkpt lat="43.85017" lon="12.1400167"><ele>553.0</ele><time>2026-04-06T14:16:04.007Z</time></trkpt><trkpt lat="43.8501783" lon="12.1398967"><ele>558.1666666666667</ele><time>2026-04-06T14:16:05.01Z</time></trkpt><trkpt lat="43.8501933" lon="12.13978"><ele>563.3333333333334</ele><time>2026-04-06T14:16:06.007Z</time></trkpt><trkpt lat="43.8501933" lon="12.1396817"><ele>568.5</ele><time>2026-04-06T14:16:07.009Z</time></trkpt><trkpt lat="43.8502433" lon="12.1395933"><ele>573.6666666666666</ele><time>2026-04-06T14:16:08.009Z</time></trkpt><trkpt lat="43.8502933" lon="12.1395183"><ele>578.8333333333333</ele><time>2026-04-06T14:16:09.007Z</time></trkpt><trkpt lat="43.85034" lon="12.1394567"><ele>584.0</ele><time>2026-04-06T14:16:10.009Z</time></trkpt><trkpt lat="43.85049" lon="12.1394483"><ele>584.0</ele><time>2026-04-06T14:16:12.009Z</time></trkpt><trkpt lat="43.850582" lon="12.1394706"><ele>584.0</ele><time>2026-04-06T14:16:13.007Z</time></trkpt><trkpt lat="43.8506886" lon="12.1395125"><ele>584.0</ele><time>2026-04-06T14:16:14.007Z</time></trkpt><trkpt lat="43.8508002" lon="12.1395646"><ele>584.0</ele><time>2026-04-06T14:16:15.007Z</time></trkpt><trkpt lat="43.8509278" lon="12.139632"><ele>586.6666666666666</ele><time>2026-04-06T14:16:16.009Z</time></trkpt><trkpt lat="43.8510746" lon="12.1397098"><ele>589.3333333333334</ele><time>2026-04-06T14:16:17.008Z</time></trkpt><trkpt lat="43.8512275" lon="12.1397878"><ele>592.0</ele><time>2026-04-06T14:16:18.01Z</time></trkpt><trkpt lat="43.8513697" lon="12.1398506"><ele>587.0</ele><time>2026-04-06T14:16:19.008Z</time></trkpt><trkpt lat="43.8514986" lon="12.1399022"><ele>582.0</ele><time>2026-04-06T14:16:20.008Z</time></trkpt><trkpt lat="43.8516119" lon="12.139955"><ele>577.0</ele><time>2026-04-06T14:16:21.01Z</time></trkpt><trkpt lat="43.851711" lon="12.1399986"><ele>572.0</ele><time>2026-04-06T14:16:22.008Z</time></trkpt><trkpt lat="43.8517973" lon="12.140016"><ele>567.0</ele><time>2026-04-06T14:16:23.008Z</time></trkpt><trkpt lat="43.8518773" lon="12.1400157"><ele>566.4</ele><time>2026-04-06T14:16:24.009Z</time></trkpt><trkpt lat="43.8519499" lon="12.1399941"><ele>565.8000000000001</ele><time>2026-04-06T14:16:25.008Z</time></trkpt><trkpt lat="43.8520002" lon="12.139916"><ele>565.2</ele><time>2026-04-06T14:16:26.009Z</time></trkpt><trkpt lat="43.8520436" lon="12.1398175"><ele>564.6</ele><time>2026-04-06T14:16:27.01Z</time></trkpt><trkpt lat="43.8520807" lon="12.1396956"><ele>564.0</ele><time>2026-04-06T14:16:28.008Z</time></trkpt><trkpt lat="43.8521098" lon="12.1395277"><ele>564.0</ele><time>2026-04-06T14:16:29.008Z</time></trkpt><trkpt lat="43.8521306" lon="12.1393616"><ele>564.0</ele><time>2026-04-06T14:16:30.007Z</time></trkpt><trkpt lat="43.8521403" lon="12.1392012"><ele>564.0</ele><time>2026-04-06T14:16:31.008Z</time></trkpt><trkpt lat="43.8521367" lon="12.139039"><ele>564.0</ele><time>2026-04-06T14:16:32.007Z</time></trkpt><trkpt lat="43.8521202" lon="12.1388776"><ele>567.0</ele><time>2026-04-06T14:16:33.008Z</time></trkpt><trkpt lat="43.8520919" lon="12.1387164"><ele>570.0</ele><time>2026-04-06T14:16:34.008Z</time></trkpt><trkpt lat="43.8520507" lon="12.1385516"><ele>573.0</ele><time>2026-04-06T14:16:35.01Z</time></trkpt><trkpt lat="43.8520075" lon="12.1383967"><ele>576.0</ele><time>2026-04-06T14:16:36.008Z</time></trkpt><trkpt lat="43.8519728" lon="12.138256"><ele>579.1666666666666</ele><time>2026-04-06T14:16:37.007Z</time></trkpt><trkpt lat="43.8519493" lon="12.1381242"><ele>582.3333333333334</ele><time>2026-04-06T14:16:38.008Z</time></trkpt><trkpt lat="43.8519348" lon="12.1379948"><ele>585.5</ele><time>2026-04-06T14:16:39.009Z</time></trkpt><trkpt lat="43.851934" lon="12.1378738"><ele>588.6666666666667</ele><time>2026-04-06T14:16:40.008Z</time></trkpt><trkpt lat="43.8519388" lon="12.1377652"><ele>591.8333333333334</ele><time>2026-04-06T14:16:41.008Z</time></trkpt><trkpt lat="43.8519604" lon="12.1376774"><ele>595.0</ele><time>2026-04-06T14:16:42.009Z</time></trkpt><trkpt lat="43.8520751" lon="12.13758"><ele>595.0</ele><time>2026-04-06T14:16:44.008Z</time></trkpt><trkpt lat="43.852158" lon="12.1375655"><ele>595.0</ele><time>2026-04-06T14:16:45.009Z</time></trkpt><trkpt lat="43.8522481" lon="12.1375597"><ele>595.0</ele><time>2026-04-06T14:16:46.008Z</time></trkpt><trkpt lat="43.8523407" lon="12.1375714"><ele>595.0</ele><time>2026-04-06T14:16:47.008Z</time></trkpt><trkpt lat="43.8524519" lon="12.1376144"><ele>595.0</ele><time>2026-04-06T14:16:48.007Z</time></trkpt><trkpt lat="43.85257" lon="12.1376913"><ele>598.2</ele><time>2026-04-06T14:16:49.008Z</time></trkpt><trkpt lat="43.8526779" lon="12.1377727"><ele>601.4</ele><time>2026-04-06T14:16:50.01Z</time></trkpt><trkpt lat="43.8527641" lon="12.1378569"><ele>604.6</ele><time>2026-04-06T14:16:51.008Z</time></trkpt><trkpt lat="43.8528344" lon="12.1379459"><ele>607.8</ele><time>2026-04-06T14:16:52.009Z</time></trkpt><trkpt lat="43.8528867" lon="12.1380365"><ele>611.0</ele><time>2026-04-06T14:16:53.009Z</time></trkpt><trkpt lat="43.8529252" lon="12.1381222"><ele>611.0</ele><time>2026-04-06T14:16:54.008Z</time></trkpt><trkpt lat="43.8529569" lon="12.1382002"><ele>611.0</ele><time>2026-04-06T14:16:55.007Z</time></trkpt><trkpt lat="43.8530233" lon="12.138344"><ele>611.0</ele><time>2026-04-06T14:16:57.007Z</time></trkpt><trkpt lat="43.853101" lon="12.1384753"><ele>611.0</ele><time>2026-04-06T14:16:59.007Z</time></trkpt><trkpt lat="43.8531879" lon="12.1385762"><ele>611.0</ele><time>2026-04-06T14:17:01.008Z</time></trkpt><trkpt lat="43.8532654" lon="12.1386858"><ele>607.5714285714287</ele><time>2026-04-06T14:17:03.012Z</time></trkpt><trkpt lat="43.8533091" lon="12.1387557"><ele>604.1428571428571</ele><time>2026-04-06T14:17:04.009Z</time></trkpt><trkpt lat="43.8533554" lon="12.138831"><ele>600.7142857142858</ele><time>2026-04-06T14:17:05.009Z</time></trkpt><trkpt lat="43.8534024" lon="12.1389079"><ele>597.2857142857143</ele><time>2026-04-06T14:17:06.007Z</time></trkpt><trkpt lat="43.8534469" lon="12.1389878"><ele>593.8571428571429</ele><time>2026-04-06T14:17:07.008Z</time></trkpt><trkpt lat="43.8534931" lon="12.1390789"><ele>590.4285714285714</ele><time>2026-04-06T14:17:08.007Z</time></trkpt><trkpt lat="43.853548" lon="12.1391681"><ele>587.0</ele><time>2026-04-06T14:17:09.011Z</time></trkpt><trkpt lat="43.8536168" lon="12.1392473"><ele>586.8000000000001</ele><time>2026-04-06T14:17:10.01Z</time></trkpt><trkpt lat="43.853692" lon="12.1393235"><ele>586.6</ele><time>2026-04-06T14:17:11.011Z</time></trkpt><trkpt lat="43.8537782" lon="12.1394132"><ele>586.4000000000001</ele><time>2026-04-06T14:17:12.007Z</time></trkpt><trkpt lat="43.8538688" lon="12.1395179"><ele>586.2</ele><time>2026-04-06T14:17:13.007Z</time></trkpt><trkpt lat="43.8539537" lon="12.1396328"><ele>586.0</ele><time>2026-04-06T14:17:14.009Z</time></trkpt><trkpt lat="43.8540381" lon="12.1397508"><ele>586.0</ele><time>2026-04-06T14:17:15.009Z</time></trkpt><trkpt lat="43.8541238" lon="12.1398624"><ele>586.0</ele><time>2026-04-06T14:17:16.009Z</time></trkpt><trkpt lat="43.8542154" lon="12.1399629"><ele>586.0</ele><time>2026-04-06T14:17:17.012Z</time></trkpt><trkpt lat="43.8543129" lon="12.1400447"><ele>586.0</ele><time>2026-04-06T14:17:18.013Z</time></trkpt><trkpt lat="43.8544083" lon="12.1401233"><ele>583.0</ele><time>2026-04-06T14:17:19.009Z</time></trkpt><trkpt lat="43.8544867" lon="12.1402233"><ele>580.0</ele><time>2026-04-06T14:17:20.009Z</time></trkpt><trkpt lat="43.8545533" lon="12.1403383"><ele>577.0</ele><time>2026-04-06T14:17:21.009Z</time></trkpt><trkpt lat="43.8546067" lon="12.140445"><ele>574.0</ele><time>2026-04-06T14:17:22.007Z</time></trkpt><trkpt lat="43.854655" lon="12.1405433"><ele>571.0</ele><time>2026-04-06T14:17:23.009Z</time></trkpt><trkpt lat="43.8547" lon="12.14063"><ele>571.0</ele><time>2026-04-06T14:17:24.007Z</time></trkpt><trkpt lat="43.8547483" lon="12.1407"><ele>571.0</ele><time>2026-04-06T14:17:25.012Z</time></trkpt><trkpt lat="43.8548083" lon="12.1407533"><ele>571.0</ele><time>2026-04-06T14:17:26.008Z</time></trkpt><trkpt lat="43.8548767" lon="12.140785"><ele>571.0</ele><time>2026-04-06T14:17:27.008Z</time></trkpt><trkpt lat="43.8549667" lon="12.1407733"><ele>571.0</ele><time>2026-04-06T14:17:28.008Z</time></trkpt><trkpt lat="43.8550817" lon="12.1407317"><ele>571.0</ele><time>2026-04-06T14:17:29.006Z</time></trkpt><trkpt lat="43.8551983" lon="12.1407117"><ele>570.0</ele><time>2026-04-06T14:17:30.01Z</time></trkpt><trkpt lat="43.85532" lon="12.1407033"><ele>569.0</ele><time>2026-04-06T14:17:31.01Z</time></trkpt><trkpt lat="43.8554417" lon="12.1406917"><ele>568.0</ele><time>2026-04-06T14:17:32.007Z</time></trkpt><trkpt lat="43.8555533" lon="12.1406867"><ele>567.0</ele><time>2026-04-06T14:17:33.009Z</time></trkpt><trkpt lat="43.855655" lon="12.140675"><ele>567.0</ele><time>2026-04-06T14:17:34.007Z</time></trkpt><trkpt lat="43.8557467" lon="12.1406433"><ele>567.0</ele><time>2026-04-06T14:17:35.008Z</time></trkpt><trkpt lat="43.8558267" lon="12.1405883"><ele>567.0</ele><time>2026-04-06T14:17:36.008Z</time></trkpt><trkpt lat="43.8559" lon="12.140525"><ele>567.0</ele><time>2026-04-06T14:17:37.01Z</time></trkpt><trkpt lat="43.8559733" lon="12.1404733"><ele>567.0</ele><time>2026-04-06T14:17:38.007Z</time></trkpt><trkpt lat="43.85605" lon="12.1404433"><ele>567.0</ele><time>2026-04-06T14:17:39.014Z</time></trkpt><trkpt lat="43.85613" lon="12.1404283"><ele>567.4</ele><time>2026-04-06T14:17:40.007Z</time></trkpt><trkpt lat="43.8562133" lon="12.140445"><ele>567.8000000000001</ele><time>2026-04-06T14:17:41.007Z</time></trkpt><trkpt lat="43.8562983" lon="12.140505"><ele>568.2</ele><time>2026-04-06T14:17:42.005Z</time></trkpt><trkpt lat="43.8563767" lon="12.14059"><ele>568.6</ele><time>2026-04-06T14:17:43.01Z</time></trkpt><trkpt lat="43.8564533" lon="12.14067"><ele>569.0</ele><time>2026-04-06T14:17:44.006Z</time></trkpt><trkpt lat="43.8565333" lon="12.1407317"><ele>561.8</ele><time>2026-04-06T14:17:45.008Z</time></trkpt><trkpt lat="43.8566217" lon="12.1407717"><ele>554.5999999999999</ele><time>2026-04-06T14:17:46.008Z</time></trkpt><trkpt lat="43.8567117" lon="12.1408033"><ele>547.4</ele><time>2026-04-06T14:17:47.005Z</time></trkpt><trkpt lat="43.8568033" lon="12.140825"><ele>540.1999999999999</ele><time>2026-04-06T14:17:48.01Z</time></trkpt><trkpt lat="43.8568917" lon="12.1408467"><ele>533.0</ele><time>2026-04-06T14:17:49.007Z</time></trkpt><trkpt lat="43.856975" lon="12.14086"><ele>533.8333333333333</ele><time>2026-04-06T14:17:50.007Z</time></trkpt><trkpt lat="43.8570517" lon="12.1408567"><ele>534.6666666666666</ele><time>2026-04-06T14:17:51.014Z</time></trkpt><trkpt lat="43.8571217" lon="12.140835"><ele>535.5</ele><time>2026-04-06T14:17:52.007Z</time></trkpt><trkpt lat="43.8571917" lon="12.14079"><ele>536.3333333333334</ele><time>2026-04-06T14:17:53.006Z</time></trkpt><trkpt lat="43.857265" lon="12.1407233"><ele>537.1666666666667</ele><time>2026-04-06T14:17:54.008Z</time></trkpt><trkpt lat="43.85735" lon="12.1406567"><ele>538.0</ele><time>2026-04-06T14:17:55.008Z</time></trkpt><trkpt lat="43.857445" lon="12.140605"><ele>538.0</ele><time>2026-04-06T14:17:56.006Z</time></trkpt><trkpt lat="43.8575383" lon="12.14056"><ele>538.0</ele><time>2026-04-06T14:17:57.008Z</time></trkpt><trkpt lat="43.8576233" lon="12.1405083"><ele>538.0</ele><time>2026-04-06T14:17:58.006Z</time></trkpt><trkpt lat="43.8577" lon="12.1404467"><ele>538.0</ele><time>2026-04-06T14:17:59.01Z</time></trkpt><trkpt lat="43.857775" lon="12.1403667"><ele>538.0</ele><time>2026-04-06T14:18:00.009Z</time></trkpt><trkpt lat="43.8578417" lon="12.1402783"><ele>528.1999999999999</ele><time>2026-04-06T14:18:01.007Z</time></trkpt><trkpt lat="43.8578933" lon="12.1401767"><ele>518.4</ele><time>2026-04-06T14:18:02.009Z</time></trkpt><trkpt lat="43.8579417" lon="12.1400667"><ele>508.59999999999997</ele><time>2026-04-06T14:18:03.007Z</time></trkpt><trkpt lat="43.857975" lon="12.1399383"><ele>498.79999999999995</ele><time>2026-04-06T14:18:04.007Z</time></trkpt><trkpt lat="43.8579667" lon="12.1397883"><ele>489.0</ele><time>2026-04-06T14:18:05.007Z</time></trkpt><trkpt lat="43.857975" lon="12.1396333"><ele>488.79999999999995</ele><time>2026-04-06T14:18:06.009Z</time></trkpt><trkpt lat="43.8579983" lon="12.1394833"><ele>488.59999999999997</ele><time>2026-04-06T14:18:07.009Z</time></trkpt><trkpt lat="43.8580233" lon="12.1393433"><ele>488.4</ele><time>2026-04-06T14:18:08.006Z</time></trkpt><trkpt lat="43.858035" lon="12.1392"><ele>488.2</ele><time>2026-04-06T14:18:09.006Z</time></trkpt><trkpt lat="43.8580333" lon="12.139055"><ele>488.0</ele><time>2026-04-06T14:18:10.008Z</time></trkpt><trkpt lat="43.85802" lon="12.138915"><ele>488.4</ele><time>2026-04-06T14:18:11.007Z</time></trkpt><trkpt lat="43.8580017" lon="12.1387767"><ele>488.79999999999995</ele><time>2026-04-06T14:18:12.008Z</time></trkpt><trkpt lat="43.857995" lon="12.1386283"><ele>489.2</ele><time>2026-04-06T14:18:13.008Z</time></trkpt><trkpt lat="43.857995" lon="12.1384767"><ele>489.6</ele><time>2026-04-06T14:18:14.009Z</time></trkpt><trkpt lat="43.8580183" lon="12.13833"><ele>490.0</ele><time>2026-04-06T14:18:15.011Z</time></trkpt><trkpt lat="43.85805" lon="12.13819"><ele>490.8</ele><time>2026-04-06T14:18:16.007Z</time></trkpt><trkpt lat="43.8580683" lon="12.1380517"><ele>491.6</ele><time>2026-04-06T14:18:17.008Z</time></trkpt><trkpt lat="43.858085" lon="12.1379133"><ele>492.4</ele><time>2026-04-06T14:18:18.009Z</time></trkpt><trkpt lat="43.8580733" lon="12.137775"><ele>493.2</ele><time>2026-04-06T14:18:19.008Z</time></trkpt><trkpt lat="43.85807" lon="12.137645"><ele>494.0</ele><time>2026-04-06T14:18:20.011Z</time></trkpt><trkpt lat="43.8580833" lon="12.13752"><ele>493.99999999999994</ele><time>2026-04-06T14:18:21.008Z</time></trkpt><trkpt lat="43.8580983" lon="12.137405"><ele>494.0</ele><time>2026-04-06T14:18:22.007Z</time></trkpt><trkpt lat="43.8581333" lon="12.1372983"><ele>494.0</ele><time>2026-04-06T14:18:23.007Z</time></trkpt><trkpt lat="43.858185" lon="12.1372"><ele>494.0</ele><time>2026-04-06T14:18:24.008Z</time></trkpt><trkpt lat="43.85824" lon="12.13712"><ele>493.99999999999994</ele><time>2026-04-06T14:18:25.007Z</time></trkpt><trkpt lat="43.8583" lon="12.137055"><ele>494.0</ele><time>2026-04-06T14:18:26.012Z</time></trkpt><trkpt lat="43.85838" lon="12.137025"><ele>494.75</ele><time>2026-04-06T14:18:27.008Z</time></trkpt><trkpt lat="43.858509" lon="12.1371229"><ele>495.5</ele><time>2026-04-06T14:18:28.009Z</time></trkpt><trkpt lat="43.8586106" lon="12.1372087"><ele>496.25</ele><time>2026-04-06T14:18:29.006Z</time></trkpt><trkpt lat="43.8586965" lon="12.1372845"><ele>497.0</ele><time>2026-04-06T14:18:30.009Z</time></trkpt><trkpt lat="43.858745" lon="12.1373863"><ele>497.0</ele><time>2026-04-06T14:18:31.008Z</time></trkpt><trkpt lat="43.8587698" lon="12.1374997"><ele>497.00000000000006</ele><time>2026-04-06T14:18:32.007Z</time></trkpt><trkpt lat="43.8587897" lon="12.137639"><ele>497.00000000000006</ele><time>2026-04-06T14:18:33.013Z</time></trkpt><trkpt lat="43.8588223" lon="12.1377881"><ele>497.0</ele><time>2026-04-06T14:18:34.009Z</time></trkpt><trkpt lat="43.8588633" lon="12.1379401"><ele>497.0</ele><time>2026-04-06T14:18:35.009Z</time></trkpt><trkpt lat="43.8589092" lon="12.1381015"><ele>496.6</ele><time>2026-04-06T14:18:36.008Z</time></trkpt><trkpt lat="43.8589519" lon="12.1382722"><ele>496.20000000000005</ele><time>2026-04-06T14:18:37.008Z</time></trkpt><trkpt lat="43.8589833" lon="12.1384317"><ele>495.8</ele><time>2026-04-06T14:18:38.009Z</time></trkpt><trkpt lat="43.8590165" lon="12.1385632"><ele>495.4</ele><time>2026-04-06T14:18:39.007Z</time></trkpt><trkpt lat="43.8590563" lon="12.1386696"><ele>495.0</ele><time>2026-04-06T14:18:40.011Z</time></trkpt><trkpt lat="43.8591081" lon="12.1387622"><ele>495.0</ele><time>2026-04-06T14:18:41.007Z</time></trkpt><trkpt lat="43.8591671" lon="12.1388566"><ele>495.0</ele><time>2026-04-06T14:18:42.007Z</time></trkpt><trkpt lat="43.8592403" lon="12.1389693"><ele>495.0</ele><time>2026-04-06T14:18:43.008Z</time></trkpt><trkpt lat="43.8593209" lon="12.1391137"><ele>495.0</ele><time>2026-04-06T14:18:44.007Z</time></trkpt><trkpt lat="43.8593956" lon="12.1392707"><ele>499.0</ele><time>2026-04-06T14:18:45.01Z</time></trkpt><trkpt lat="43.8594591" lon="12.1394132"><ele>503.0</ele><time>2026-04-06T14:18:46.007Z</time></trkpt><trkpt lat="43.8595176" lon="12.1395293"><ele>507.0</ele><time>2026-04-06T14:18:47.008Z</time></trkpt><trkpt lat="43.8595859" lon="12.1396206"><ele>511.0</ele><time>2026-04-06T14:18:48.087Z</time></trkpt><trkpt lat="43.8596586" lon="12.1396868"><ele>515.0</ele><time>2026-04-06T14:18:49.008Z</time></trkpt><trkpt lat="43.8597486" lon="12.1397376"><ele>515.0</ele><time>2026-04-06T14:18:50.009Z</time></trkpt><trkpt lat="43.8598626" lon="12.139766"><ele>515.0</ele><time>2026-04-06T14:18:51.01Z</time></trkpt><trkpt lat="43.8599892" lon="12.139775"><ele>515.0</ele><time>2026-04-06T14:18:52.008Z</time></trkpt><trkpt lat="43.8601209" lon="12.1397674"><ele>515.0</ele><time>2026-04-06T14:18:53.012Z</time></trkpt><trkpt lat="43.8602519" lon="12.1397606"><ele>515.6</ele><time>2026-04-06T14:18:54.007Z</time></trkpt><trkpt lat="43.8603807" lon="12.1397679"><ele>516.2</ele><time>2026-04-06T14:18:55.008Z</time></trkpt><trkpt lat="43.8604995" lon="12.1397848"><ele>516.8</ele><time>2026-04-06T14:18:56.009Z</time></trkpt><trkpt lat="43.8605977" lon="12.1398196"><ele>517.4</ele><time>2026-04-06T14:18:57.008Z</time></trkpt><trkpt lat="43.8606703" lon="12.1398736"><ele>518.0</ele><time>2026-04-06T14:18:58.01Z</time></trkpt><trkpt lat="43.8607243" lon="12.1399354"><ele>518.0</ele><time>2026-04-06T14:18:59.005Z</time></trkpt><trkpt lat="43.8608172" lon="12.140008"><ele>518.0</ele><time>2026-04-06T14:19:01.01Z</time></trkpt><trkpt lat="43.8608867" lon="12.1399923"><ele>518.0</ele><time>2026-04-06T14:19:03.009Z</time></trkpt><trkpt lat="43.8608592" lon="12.1398919"><ele>518.0</ele><time>2026-04-06T14:19:05.009Z</time></trkpt><trkpt lat="43.8607234" lon="12.1397557"><ele>518.0</ele><time>2026-04-06T14:19:07.013Z</time></trkpt><trkpt lat="43.8606199" lon="12.1396739"><ele>522.0</ele><time>2026-04-06T14:19:08.007Z</time></trkpt><trkpt lat="43.8605084" lon="12.1395933"><ele>526.0</ele><time>2026-04-06T14:19:09.007Z</time></trkpt><trkpt lat="43.8604122" lon="12.1395141"><ele>530.0</ele><time>2026-04-06T14:19:10.007Z</time></trkpt><trkpt lat="43.8603349" lon="12.1394384"><ele>534.0</ele><time>2026-04-06T14:19:11.008Z</time></trkpt><trkpt lat="43.8602817" lon="12.1393647"><ele>538.0</ele><time>2026-04-06T14:19:12.008Z</time></trkpt><trkpt lat="43.8602335" lon="12.1392478"><ele>538.0</ele><time>2026-04-06T14:19:14.008Z</time></trkpt><trkpt lat="43.860312" lon="12.1392044"><ele>538.0</ele><time>2026-04-06T14:19:17.012Z</time></trkpt><trkpt lat="43.8603789" lon="12.1392594"><ele>538.0</ele><time>2026-04-06T14:19:18.005Z</time></trkpt><trkpt lat="43.8604547" lon="12.1393215"><ele>538.0</ele><time>2026-04-06T14:19:19.01Z</time></trkpt><trkpt lat="43.8605391" lon="12.1393776"><ele>538.0</ele><time>2026-04-06T14:19:20.007Z</time></trkpt><trkpt lat="43.8606362" lon="12.1394262"><ele>538.0</ele><time>2026-04-06T14:19:21.006Z</time></trkpt><trkpt lat="43.8607503" lon="12.1394836"><ele>538.0</ele><time>2026-04-06T14:19:22.007Z</time></trkpt><trkpt lat="43.8608558" lon="12.1395372"><ele>538.0</ele><time>2026-04-06T14:19:23.005Z</time></trkpt><trkpt lat="43.8609393" lon="12.1395799"><ele>538.0</ele><time>2026-04-06T14:19:24.007Z</time></trkpt><trkpt lat="43.8610052" lon="12.1395963"><ele>538.0</ele><time>2026-04-06T14:19:25.01Z</time></trkpt><trkpt lat="43.8610998" lon="12.1395794"><ele>538.0</ele><time>2026-04-06T14:19:27.009Z</time></trkpt><trkpt lat="43.8610579" lon="12.1394441"><ele>538.0</ele><time>2026-04-06T14:19:30.008Z</time></trkpt><trkpt lat="43.8609997" lon="12.1393955"><ele>538.0</ele><time>2026-04-06T14:19:31.011Z</time></trkpt><trkpt lat="43.8609292" lon="12.1393316"><ele>538.0</ele><time>2026-04-06T14:19:32.006Z</time></trkpt><trkpt lat="43.860863" lon="12.1392578"><ele>538.0</ele><time>2026-04-06T14:19:33.008Z</time></trkpt><trkpt lat="43.860811" lon="12.1391694"><ele>538.0</ele><time>2026-04-06T14:19:34.008Z</time></trkpt><trkpt lat="43.860777" lon="12.1390696"><ele>538.0</ele><time>2026-04-06T14:19:35.009Z</time></trkpt><trkpt lat="43.8607667" lon="12.1389697"><ele>538.1999999999999</ele><time>2026-04-06T14:19:36.011Z</time></trkpt><trkpt lat="43.8607773" lon="12.1388657"><ele>538.4</ele><time>2026-04-06T14:19:37.008Z</time></trkpt><trkpt lat="43.8608255" lon="12.1387681"><ele>538.5999999999999</ele><time>2026-04-06T14:19:38.008Z</time></trkpt><trkpt lat="43.8608968" lon="12.1386745"><ele>538.8</ele><time>2026-04-06T14:19:39.007Z</time></trkpt><trkpt lat="43.8609948" lon="12.1385914"><ele>539.0</ele><time>2026-04-06T14:19:40.007Z</time></trkpt><trkpt lat="43.8610994" lon="12.138507"><ele>542.25</ele><time>2026-04-06T14:19:41.006Z</time></trkpt><trkpt lat="43.8612044" lon="12.138423"><ele>545.5</ele><time>2026-04-06T14:19:42.009Z</time></trkpt><trkpt lat="43.8613102" lon="12.1383425"><ele>548.75</ele><time>2026-04-06T14:19:43.008Z</time></trkpt><trkpt lat="43.861418" lon="12.1382655"><ele>552.0</ele><time>2026-04-06T14:19:44.008Z</time></trkpt><trkpt lat="43.8615259" lon="12.1381973"><ele>553.5</ele><time>2026-04-06T14:19:45.01Z</time></trkpt><trkpt lat="43.8616394" lon="12.1381399"><ele>555.0</ele><time>2026-04-06T14:19:46.009Z</time></trkpt><trkpt lat="43.8617535" lon="12.138088"><ele>556.5</ele><time>2026-04-06T14:19:47.009Z</time></trkpt><trkpt lat="43.8618646" lon="12.1380385"><ele>558.0</ele><time>2026-04-06T14:19:48.007Z</time></trkpt><trkpt lat="43.8619671" lon="12.1379858"><ele>560.5</ele><time>2026-04-06T14:19:49.008Z</time></trkpt><trkpt lat="43.8620627" lon="12.1379204"><ele>563.0</ele><time>2026-04-06T14:19:50.01Z</time></trkpt><trkpt lat="43.8621513" lon="12.1378242"><ele>565.5</ele><time>2026-04-06T14:19:51.011Z</time></trkpt><trkpt lat="43.8622379" lon="12.137705"><ele>568.0</ele><time>2026-04-06T14:19:52.009Z</time></trkpt><trkpt lat="43.8623184" lon="12.1375854"><ele>568.0</ele><time>2026-04-06T14:19:53.009Z</time></trkpt><trkpt lat="43.8623955" lon="12.1374883"><ele>568.0</ele><time>2026-04-06T14:19:54.009Z</time></trkpt><trkpt lat="43.8624628" lon="12.1374202"><ele>568.0</ele><time>2026-04-06T14:19:55.008Z</time></trkpt><trkpt lat="43.8625182" lon="12.1373696"><ele>568.0</ele><time>2026-04-06T14:19:56.011Z</time></trkpt><trkpt lat="43.8625811" lon="12.137324"><ele>568.0</ele><time>2026-04-06T14:19:58.009Z</time></trkpt><trkpt lat="43.8625286" lon="12.1372675"><ele>568.0</ele><time>2026-04-06T14:20:04.008Z</time></trkpt><trkpt lat="43.8623949" lon="12.1372798"><ele>572.0</ele><time>2026-04-06T14:20:07.015Z</time></trkpt><trkpt lat="43.8623291" lon="12.1371869"><ele>576.0</ele><time>2026-04-06T14:20:09.022Z</time></trkpt><trkpt lat="43.8623505" lon="12.1370506"><ele>580.0</ele><time>2026-04-06T14:20:11.028Z</time></trkpt><trkpt lat="43.8624119" lon="12.1369434"><ele>584.0</ele><time>2026-04-06T14:20:13.034Z</time></trkpt><trkpt lat="43.8624951" lon="12.1367405"><ele>584.0</ele><time>2026-04-06T14:20:14.007Z</time></trkpt><trkpt lat="43.8625952" lon="12.1365579"><ele>584.0</ele><time>2026-04-06T14:20:15.007Z</time></trkpt><trkpt lat="43.862703" lon="12.1363699"><ele>584.0</ele><time>2026-04-06T14:20:16.011Z</time></trkpt><trkpt lat="43.8628011" lon="12.1361947"><ele>589.25</ele><time>2026-04-06T14:20:17.007Z</time></trkpt><trkpt lat="43.8628862" lon="12.1360421"><ele>594.5</ele><time>2026-04-06T14:20:18.005Z</time></trkpt><trkpt lat="43.862962" lon="12.1359059"><ele>599.75</ele><time>2026-04-06T14:20:19.009Z</time></trkpt><trkpt lat="43.8630249" lon="12.1357824"><ele>605.0</ele><time>2026-04-06T14:20:20.007Z</time></trkpt><trkpt lat="43.86307" lon="12.1356681"><ele>605.4</ele><time>2026-04-06T14:20:21.008Z</time></trkpt><trkpt lat="43.8630969" lon="12.1355551"><ele>605.8</ele><time>2026-04-06T14:20:22.007Z</time></trkpt><trkpt lat="43.8631086" lon="12.1354405"><ele>606.2</ele><time>2026-04-06T14:20:23.006Z</time></trkpt><trkpt lat="43.8630974" lon="12.1353194"><ele>606.6</ele><time>2026-04-06T14:20:24.007Z</time></trkpt><trkpt lat="43.8630744" lon="12.1351946"><ele>607.0</ele><time>2026-04-06T14:20:25.009Z</time></trkpt><trkpt lat="43.8630455" lon="12.1350603"><ele>607.0</ele><time>2026-04-06T14:20:26.008Z</time></trkpt><trkpt lat="43.8630279" lon="12.1349248"><ele>607.0</ele><time>2026-04-06T14:20:27.008Z</time></trkpt><trkpt lat="43.8630274" lon="12.1347891"><ele>607.0</ele><time>2026-04-06T14:20:28.006Z</time></trkpt><trkpt lat="43.8630339" lon="12.1346468"><ele>607.0</ele><time>2026-04-06T14:20:29.008Z</time></trkpt><trkpt lat="43.8630585" lon="12.134501"><ele>607.0</ele><time>2026-04-06T14:20:30.008Z</time></trkpt><trkpt lat="43.8630988" lon="12.1343552"><ele>607.5</ele><time>2026-04-06T14:20:31.009Z</time></trkpt><trkpt lat="43.8631542" lon="12.1342072"><ele>608.0</ele><time>2026-04-06T14:20:32.009Z</time></trkpt><trkpt lat="43.8632199" lon="12.1340572"><ele>608.5</ele><time>2026-04-06T14:20:33.009Z</time></trkpt><trkpt lat="43.8632914" lon="12.133907"><ele>609.0</ele><time>2026-04-06T14:20:34.006Z</time></trkpt><trkpt lat="43.863362" lon="12.1337555"><ele>609.0</ele><time>2026-04-06T14:20:35.009Z</time></trkpt><trkpt lat="43.8634277" lon="12.1336069"><ele>609.0</ele><time>2026-04-06T14:20:36.008Z</time></trkpt><trkpt lat="43.8634863" lon="12.1334586"><ele>609.0</ele><time>2026-04-06T14:20:37.01Z</time></trkpt><trkpt lat="43.8635394" lon="12.1333112"><ele>609.0</ele><time>2026-04-06T14:20:38.008Z</time></trkpt><trkpt lat="43.8635755" lon="12.1331532"><ele>614.0</ele><time>2026-04-06T14:20:39.008Z</time></trkpt><trkpt lat="43.863597" lon="12.1329935"><ele>619.0</ele><time>2026-04-06T14:20:40.009Z</time></trkpt><trkpt lat="43.8636135" lon="12.1328443"><ele>624.0</ele><time>2026-04-06T14:20:41.008Z</time></trkpt><trkpt lat="43.8636359" lon="12.1327116"><ele>629.0</ele><time>2026-04-06T14:20:42.01Z</time></trkpt><trkpt lat="43.8636698" lon="12.1325928"><ele>634.0</ele><time>2026-04-06T14:20:43.008Z</time></trkpt><trkpt lat="43.8637139" lon="12.1324845"><ele>634.0</ele><time>2026-04-06T14:20:44.008Z</time></trkpt><trkpt lat="43.8637633" lon="12.1323964"><ele>634.0</ele><time>2026-04-06T14:20:45.011Z</time></trkpt><trkpt lat="43.8638129" lon="12.1323324"><ele>634.0</ele><time>2026-04-06T14:20:46.008Z</time></trkpt><trkpt lat="43.8638982" lon="12.1322711"><ele>634.0</ele><time>2026-04-06T14:20:48.008Z</time></trkpt><trkpt lat="43.8639628" lon="12.1323132"><ele>634.0</ele><time>2026-04-06T14:20:50.009Z</time></trkpt><trkpt lat="43.8639761" lon="12.1324183"><ele>634.0</ele><time>2026-04-06T14:20:52.009Z</time></trkpt><trkpt lat="43.8639548" lon="12.1325451"><ele>634.0</ele><time>2026-04-06T14:20:54.008Z</time></trkpt><trkpt lat="43.863961" lon="12.1326979"><ele>634.0</ele><time>2026-04-06T14:20:56.009Z</time></trkpt><trkpt lat="43.8640285" lon="12.1328311"><ele>634.0</ele><time>2026-04-06T14:20:58.006Z</time></trkpt><trkpt lat="43.8641242" lon="12.1328589"><ele>634.0</ele><time>2026-04-06T14:21:00.01Z</time></trkpt><trkpt lat="43.8642287" lon="12.1327557"><ele>635.4</ele><time>2026-04-06T14:21:02.009Z</time></trkpt><trkpt lat="43.8642874" lon="12.1326638"><ele>636.8</ele><time>2026-04-06T14:21:03.007Z</time></trkpt><trkpt lat="43.8643537" lon="12.1325703"><ele>638.1999999999999</ele><time>2026-04-06T14:21:04.009Z</time></trkpt><trkpt lat="43.8644327" lon="12.132484"><ele>639.5999999999999</ele><time>2026-04-06T14:21:05.006Z</time></trkpt><trkpt lat="43.8645256" lon="12.1324083"><ele>641.0</ele><time>2026-04-06T14:21:06.008Z</time></trkpt><trkpt lat="43.8646323" lon="12.1323536"><ele>641.0</ele><time>2026-04-06T14:21:07.007Z</time></trkpt><trkpt lat="43.8647484" lon="12.1323152"><ele>641.0</ele><time>2026-04-06T14:21:08.007Z</time></trkpt><trkpt lat="43.8648665" lon="12.1322756"><ele>641.0</ele><time>2026-04-06T14:21:09.008Z</time></trkpt><trkpt lat="43.8649709" lon="12.1322227"><ele>641.0</ele><time>2026-04-06T14:21:10.008Z</time></trkpt><trkpt lat="43.8650546" lon="12.132154"><ele>641.0</ele><time>2026-04-06T14:21:11.008Z</time></trkpt><trkpt lat="43.8651148" lon="12.1320729"><ele>644.4</ele><time>2026-04-06T14:21:12.008Z</time></trkpt><trkpt lat="43.8651532" lon="12.1319952"><ele>647.8</ele><time>2026-04-06T14:21:13.009Z</time></trkpt><trkpt lat="43.8651816" lon="12.1318883"><ele>651.1999999999999</ele><time>2026-04-06T14:21:15.01Z</time></trkpt><trkpt lat="43.8652546" lon="12.1316869"><ele>654.5999999999999</ele><time>2026-04-06T14:21:27.009Z</time></trkpt><trkpt lat="43.8653122" lon="12.1315555"><ele>658.0</ele><time>2026-04-06T14:21:31.008Z</time></trkpt><trkpt lat="43.8653476" lon="12.1314684"><ele>658.0</ele><time>2026-04-06T14:21:33.014Z</time></trkpt><trkpt lat="43.8654631" lon="12.1314076"><ele>658.0</ele><time>2026-04-06T14:21:37.026Z</time></trkpt><trkpt lat="43.8655293" lon="12.1313381"><ele>658.0</ele><time>2026-04-06T14:21:38.008Z</time></trkpt><trkpt lat="43.8655896" lon="12.1312637"><ele>658.0</ele><time>2026-04-06T14:21:39.008Z</time></trkpt><trkpt lat="43.8656531" lon="12.1311908"><ele>658.0</ele><time>2026-04-06T14:21:40.009Z</time></trkpt><trkpt lat="43.865716" lon="12.1311174"><ele>658.0</ele><time>2026-04-06T14:21:41.005Z</time></trkpt><trkpt lat="43.8657807" lon="12.1310421"><ele>658.0</ele><time>2026-04-06T14:21:42.008Z</time></trkpt><trkpt lat="43.8658476" lon="12.1309585"><ele>658.0</ele><time>2026-04-06T14:21:43.008Z</time></trkpt><trkpt lat="43.8659166" lon="12.1308624"><ele>658.0</ele><time>2026-04-06T14:21:44.007Z</time></trkpt><trkpt lat="43.8659859" lon="12.1307531"><ele>658.0</ele><time>2026-04-06T14:21:45.01Z</time></trkpt><trkpt lat="43.8660532" lon="12.1306265"><ele>661.8</ele><time>2026-04-06T14:21:46.006Z</time></trkpt><trkpt lat="43.8661233" lon="12.1304976"><ele>665.5999999999999</ele><time>2026-04-06T14:21:47.01Z</time></trkpt><trkpt lat="43.8661829" lon="12.1303847"><ele>669.4000000000001</ele><time>2026-04-06T14:21:48.007Z</time></trkpt><trkpt lat="43.8662308" lon="12.13029"><ele>673.2</ele><time>2026-04-06T14:21:49.005Z</time></trkpt><trkpt lat="43.8662719" lon="12.1302168"><ele>677.0</ele><time>2026-04-06T14:21:50.009Z</time></trkpt><trkpt lat="43.8663459" lon="12.1301405"><ele>677.0</ele><time>2026-04-06T14:21:52.007Z</time></trkpt><trkpt lat="43.8664038" lon="12.130243"><ele>677.0</ele><time>2026-04-06T14:21:54.009Z</time></trkpt><trkpt lat="43.8663843" lon="12.1303933"><ele>677.0</ele><time>2026-04-06T14:21:56.009Z</time></trkpt><trkpt lat="43.8663547" lon="12.1304924"><ele>677.0</ele><time>2026-04-06T14:21:57.008Z</time></trkpt><trkpt lat="43.8663173" lon="12.1306129"><ele>677.0</ele><time>2026-04-06T14:21:58.006Z</time></trkpt><trkpt lat="43.8662788" lon="12.1307596"><ele>679.0</ele><time>2026-04-06T14:21:59.006Z</time></trkpt><trkpt lat="43.8662462" lon="12.1309133"><ele>681.0</ele><time>2026-04-06T14:22:00.01Z</time></trkpt><trkpt lat="43.8662286" lon="12.1310594"><ele>683.0</ele><time>2026-04-06T14:22:01.006Z</time></trkpt><trkpt lat="43.8662265" lon="12.1311919"><ele>685.0</ele><time>2026-04-06T14:22:02.008Z</time></trkpt><trkpt lat="43.8662356" lon="12.1313121"><ele>687.0</ele><time>2026-04-06T14:22:03.005Z</time></trkpt><trkpt lat="43.8662562" lon="12.1314264"><ele>687.0</ele><time>2026-04-06T14:22:04.006Z</time></trkpt><trkpt lat="43.8662963" lon="12.1315469"><ele>687.0</ele><time>2026-04-06T14:22:05.006Z</time></trkpt><trkpt lat="43.8663686" lon="12.1316759"><ele>687.0</ele><time>2026-04-06T14:22:06.008Z</time></trkpt><trkpt lat="43.8664489" lon="12.1318057"><ele>687.0</ele><time>2026-04-06T14:22:07.007Z</time></trkpt><trkpt lat="43.8665327" lon="12.1319308"><ele>686.4000000000001</ele><time>2026-04-06T14:22:08.006Z</time></trkpt><trkpt lat="43.8666098" lon="12.1320612"><ele>685.8000000000001</ele><time>2026-04-06T14:22:09.005Z</time></trkpt><trkpt lat="43.8666657" lon="12.1321913"><ele>685.2</ele><time>2026-04-06T14:22:10.007Z</time></trkpt><trkpt lat="43.8666986" lon="12.1323299"><ele>684.6</ele><time>2026-04-06T14:22:11.007Z</time></trkpt><trkpt lat="43.8667177" lon="12.1324833"><ele>684.0</ele><time>2026-04-06T14:22:12.01Z</time></trkpt><trkpt lat="43.8667353" lon="12.1326408"><ele>684.0</ele><time>2026-04-06T14:22:13.009Z</time></trkpt><trkpt lat="43.8667548" lon="12.1327945"><ele>684.0</ele><time>2026-04-06T14:22:14.007Z</time></trkpt><trkpt lat="43.8667728" lon="12.1329394"><ele>684.0</ele><time>2026-04-06T14:22:15.01Z</time></trkpt><trkpt lat="43.8667815" lon="12.1330665"><ele>684.0</ele><time>2026-04-06T14:22:16.008Z</time></trkpt><trkpt lat="43.8667802" lon="12.1331752"><ele>684.0</ele><time>2026-04-06T14:22:17.007Z</time></trkpt><trkpt lat="43.8667607" lon="12.1332657"><ele>684.4000000000001</ele><time>2026-04-06T14:22:18.007Z</time></trkpt><trkpt lat="43.8666855" lon="12.1333907"><ele>684.8</ele><time>2026-04-06T14:22:20.008Z</time></trkpt><trkpt lat="43.866625" lon="12.1334939"><ele>685.2</ele><time>2026-04-06T14:22:22.009Z</time></trkpt><trkpt lat="43.8666625" lon="12.1335663"><ele>685.5999999999999</ele><time>2026-04-06T14:22:25.005Z</time></trkpt><trkpt lat="43.8667595" lon="12.1334963"><ele>686.0</ele><time>2026-04-06T14:22:27.008Z</time></trkpt><trkpt lat="43.8668184" lon="12.1334145"><ele>687.8</ele><time>2026-04-06T14:22:28.006Z</time></trkpt><trkpt lat="43.8668775" lon="12.133314"><ele>689.5999999999999</ele><time>2026-04-06T14:22:29.006Z</time></trkpt><trkpt lat="43.8669254" lon="12.1332046"><ele>691.4</ele><time>2026-04-06T14:22:30.009Z</time></trkpt><trkpt lat="43.8669578" lon="12.1330892"><ele>693.2</ele><time>2026-04-06T14:22:31.007Z</time></trkpt><trkpt lat="43.8669636" lon="12.1329481"><ele>695.0</ele><time>2026-04-06T14:22:32.01Z</time></trkpt><trkpt lat="43.8669623" lon="12.132803"><ele>699.2</ele><time>2026-04-06T14:22:33.005Z</time></trkpt><trkpt lat="43.8669701" lon="12.1326606"><ele>703.4</ele><time>2026-04-06T14:22:34.008Z</time></trkpt><trkpt lat="43.8670007" lon="12.1325225"><ele>707.5999999999999</ele><time>2026-04-06T14:22:35.006Z</time></trkpt><trkpt lat="43.867045" lon="12.1323927"><ele>711.8</ele><time>2026-04-06T14:22:36.005Z</time></trkpt><trkpt lat="43.8670755" lon="12.1322763"><ele>716.0</ele><time>2026-04-06T14:22:37.005Z</time></trkpt><trkpt lat="43.8670861" lon="12.1321655"><ele>717.5999999999999</ele><time>2026-04-06T14:22:38.006Z</time></trkpt><trkpt lat="43.8670728" lon="12.1320481"><ele>719.2</ele><time>2026-04-06T14:22:39.011Z</time></trkpt><trkpt lat="43.86703" lon="12.1319252"><ele>720.8</ele><time>2026-04-06T14:22:40.006Z</time></trkpt><trkpt lat="43.8669815" lon="12.1318051"><ele>722.4000000000001</ele><time>2026-04-06T14:22:41.005Z</time></trkpt><trkpt lat="43.8669431" lon="12.1316864"><ele>724.0</ele><time>2026-04-06T14:22:42.008Z</time></trkpt><trkpt lat="43.8669254" lon="12.1315706"><ele>722.0</ele><time>2026-04-06T14:22:43.008Z</time></trkpt><trkpt lat="43.8669245" lon="12.1314501"><ele>720.0</ele><time>2026-04-06T14:22:44.008Z</time></trkpt><trkpt lat="43.8669475" lon="12.1313176"><ele>718.0</ele><time>2026-04-06T14:22:45.009Z</time></trkpt><trkpt lat="43.8670006" lon="12.1311851"><ele>716.0</ele><time>2026-04-06T14:22:46.009Z</time></trkpt><trkpt lat="43.8670735" lon="12.1310685"><ele>714.0</ele><time>2026-04-06T14:22:47.007Z</time></trkpt><trkpt lat="43.8671651" lon="12.1309757"><ele>714.0</ele><time>2026-04-06T14:22:48.007Z</time></trkpt><trkpt lat="43.8672652" lon="12.1308936"><ele>714.0</ele><time>2026-04-06T14:22:49.005Z</time></trkpt><trkpt lat="43.8673711" lon="12.1308163"><ele>714.0</ele><time>2026-04-06T14:22:50.007Z</time></trkpt><trkpt lat="43.8674823" lon="12.130748"><ele>714.0</ele><time>2026-04-06T14:22:51.009Z</time></trkpt><trkpt lat="43.867602" lon="12.1306955"><ele>717.4000000000001</ele><time>2026-04-06T14:22:52.007Z</time></trkpt><trkpt lat="43.8677201" lon="12.130668"><ele>720.8</ele><time>2026-04-06T14:22:53.007Z</time></trkpt><trkpt lat="43.8678226" lon="12.1306418"><ele>724.2</ele><time>2026-04-06T14:22:54.005Z</time></trkpt><trkpt lat="43.8679014" lon="12.1306037"><ele>727.5999999999999</ele><time>2026-04-06T14:22:55.007Z</time></trkpt><trkpt lat="43.8679618" lon="12.1305473"><ele>731.0</ele><time>2026-04-06T14:22:56.007Z</time></trkpt><trkpt lat="43.8680166" lon="12.1303971"><ele>731.0</ele><time>2026-04-06T14:22:58.005Z</time></trkpt><trkpt lat="43.8680153" lon="12.1303026"><ele>731.0</ele><time>2026-04-06T14:22:59.007Z</time></trkpt><trkpt lat="43.8679854" lon="12.1301946"><ele>731.0</ele><time>2026-04-06T14:23:00.007Z</time></trkpt><trkpt lat="43.8679585" lon="12.1300777"><ele>731.0</ele><time>2026-04-06T14:23:01.008Z</time></trkpt><trkpt lat="43.8679478" lon="12.1299585"><ele>731.0</ele><time>2026-04-06T14:23:02.005Z</time></trkpt><trkpt lat="43.8679545" lon="12.1298441"><ele>731.0</ele><time>2026-04-06T14:23:03.009Z</time></trkpt><trkpt lat="43.8679812" lon="12.1297412"><ele>728.4</ele><time>2026-04-06T14:23:04.005Z</time></trkpt><trkpt lat="43.8680285" lon="12.1296495"><ele>725.8</ele><time>2026-04-06T14:23:05.007Z</time></trkpt><trkpt lat="43.8680971" lon="12.1295706"><ele>723.1999999999999</ele><time>2026-04-06T14:23:06.006Z</time></trkpt><trkpt lat="43.8682048" lon="12.1295121"><ele>720.5999999999999</ele><time>2026-04-06T14:23:07.009Z</time></trkpt><trkpt lat="43.8683252" lon="12.1294487"><ele>718.0</ele><time>2026-04-06T14:23:08.006Z</time></trkpt><trkpt lat="43.8684497" lon="12.1293811"><ele>723.2</ele><time>2026-04-06T14:23:09.009Z</time></trkpt><trkpt lat="43.8685718" lon="12.1293177"><ele>728.4</ele><time>2026-04-06T14:23:10.007Z</time></trkpt><trkpt lat="43.8686816" lon="12.1292639"><ele>733.6</ele><time>2026-04-06T14:23:11.011Z</time></trkpt><trkpt lat="43.8687691" lon="12.129205"><ele>738.8000000000001</ele><time>2026-04-06T14:23:12.006Z</time></trkpt><trkpt lat="43.8688321" lon="12.1291364"><ele>744.0</ele><time>2026-04-06T14:23:13.008Z</time></trkpt><trkpt lat="43.8688788" lon="12.1290589"><ele>744.0</ele><time>2026-04-06T14:23:14.008Z</time></trkpt><trkpt lat="43.868913" lon="12.128968"><ele>744.0</ele><time>2026-04-06T14:23:15.008Z</time></trkpt><trkpt lat="43.8688973" lon="12.1288423"><ele>744.0</ele><time>2026-04-06T14:23:16.008Z</time></trkpt><trkpt lat="43.8688695" lon="12.1286984"><ele>744.0</ele><time>2026-04-06T14:23:17.009Z</time></trkpt><trkpt lat="43.8688547" lon="12.1285578"><ele>744.0</ele><time>2026-04-06T14:23:18.009Z</time></trkpt><trkpt lat="43.86886" lon="12.1284325"><ele>744.0</ele><time>2026-04-06T14:23:19.008Z</time></trkpt><trkpt lat="43.8688853" lon="12.128319"><ele>744.0</ele><time>2026-04-06T14:23:20.007Z</time></trkpt><trkpt lat="43.8689279" lon="12.128213"><ele>744.0</ele><time>2026-04-06T14:23:21.008Z</time></trkpt><trkpt lat="43.8689991" lon="12.1281201"><ele>744.0</ele><time>2026-04-06T14:23:22.006Z</time></trkpt><trkpt lat="43.8691081" lon="12.1280449"><ele>744.0</ele><time>2026-04-06T14:23:23.008Z</time></trkpt><trkpt lat="43.8692177" lon="12.1279747"><ele>750.8000000000001</ele><time>2026-04-06T14:23:24.007Z</time></trkpt><trkpt lat="43.869311" lon="12.1279099"><ele>757.6</ele><time>2026-04-06T14:23:25.007Z</time></trkpt><trkpt lat="43.869381" lon="12.1278435"><ele>764.4</ele><time>2026-04-06T14:23:26.008Z</time></trkpt><trkpt lat="43.869426" lon="12.127774"><ele>771.2</ele><time>2026-04-06T14:23:27.01Z</time></trkpt><trkpt lat="43.8694413" lon="12.1276095"><ele>778.0</ele><time>2026-04-06T14:23:29.006Z</time></trkpt><trkpt lat="43.8694094" lon="12.1275171"><ele>778.0</ele><time>2026-04-06T14:23:30.011Z</time></trkpt><trkpt lat="43.8693488" lon="12.127403"><ele>778.0</ele><time>2026-04-06T14:23:31.007Z</time></trkpt><trkpt lat="43.869267" lon="12.1272717"><ele>778.0</ele><time>2026-04-06T14:23:32.005Z</time></trkpt><trkpt lat="43.8691725" lon="12.1271435"><ele>778.0</ele><time>2026-04-06T14:23:33.008Z</time></trkpt><trkpt lat="43.8690814" lon="12.1270415"><ele>777.1666666666666</ele><time>2026-04-06T14:23:34.005Z</time></trkpt><trkpt lat="43.8690049" lon="12.1269644"><ele>776.3333333333333</ele><time>2026-04-06T14:23:35.008Z</time></trkpt><trkpt lat="43.8689478" lon="12.1268941"><ele>775.5</ele><time>2026-04-06T14:23:36.008Z</time></trkpt><trkpt lat="43.8689062" lon="12.1268144"><ele>774.6666666666667</ele><time>2026-04-06T14:23:37.007Z</time></trkpt><trkpt lat="43.8688743" lon="12.1267191"><ele>773.8333333333334</ele><time>2026-04-06T14:23:38.007Z</time></trkpt><trkpt lat="43.8688624" lon="12.1266007"><ele>773.0</ele><time>2026-04-06T14:23:39.008Z</time></trkpt><trkpt lat="43.8688442" lon="12.1264728"><ele>773.0000000000001</ele><time>2026-04-06T14:23:40.006Z</time></trkpt><trkpt lat="43.8688111" lon="12.1263538"><ele>773.0</ele><time>2026-04-06T14:23:41.009Z</time></trkpt><trkpt lat="43.8687653" lon="12.1262574"><ele>773.0</ele><time>2026-04-06T14:23:42.009Z</time></trkpt><trkpt lat="43.8687229" lon="12.1261801"><ele>773.0</ele><time>2026-04-06T14:23:43.008Z</time></trkpt><trkpt lat="43.8686689" lon="12.1260896"><ele>773.0000000000001</ele><time>2026-04-06T14:23:45.008Z</time></trkpt><trkpt lat="43.868722" lon="12.1260198"><ele>773.0</ele><time>2026-04-06T14:23:59.007Z</time></trkpt><trkpt lat="43.8687876" lon="12.1260643"><ele>773.0</ele><time>2026-04-06T14:24:00.006Z</time></trkpt><trkpt lat="43.8688591" lon="12.1261234"><ele>773.0</ele><time>2026-04-06T14:24:01.007Z</time></trkpt><trkpt lat="43.8689698" lon="12.1262547"><ele>773.0</ele><time>2026-04-06T14:24:02.008Z</time></trkpt><trkpt lat="43.8690845" lon="12.1264199"><ele>773.0</ele><time>2026-04-06T14:24:03.01Z</time></trkpt><trkpt lat="43.869192" lon="12.1265813"><ele>778.6666666666667</ele><time>2026-04-06T14:24:04.007Z</time></trkpt><trkpt lat="43.8693072" lon="12.1267206"><ele>784.3333333333333</ele><time>2026-04-06T14:24:05.007Z</time></trkpt><trkpt lat="43.8694441" lon="12.1268327"><ele>790.0</ele><time>2026-04-06T14:24:06.007Z</time></trkpt><trkpt lat="43.8696035" lon="12.1269301"><ele>790.0</ele><time>2026-04-06T14:24:07.009Z</time></trkpt><trkpt lat="43.8697572" lon="12.1270214"><ele>790.0</ele><time>2026-04-06T14:24:08.007Z</time></trkpt><trkpt lat="43.8698812" lon="12.1271271"><ele>790.0</ele><time>2026-04-06T14:24:09.007Z</time></trkpt><trkpt lat="43.8699752" lon="12.1272665"><ele>786.0</ele><time>2026-04-06T14:24:10.007Z</time></trkpt><trkpt lat="43.8700542" lon="12.1274422"><ele>782.0</ele><time>2026-04-06T14:24:11.007Z</time></trkpt><trkpt lat="43.8701194" lon="12.1276515"><ele>778.0</ele><time>2026-04-06T14:24:12.008Z</time></trkpt><trkpt lat="43.8701615" lon="12.1278624"><ele>788.0</ele><time>2026-04-06T14:24:13.009Z</time></trkpt><trkpt lat="43.870178" lon="12.1280692"><ele>798.0</ele><time>2026-04-06T14:24:14.011Z</time></trkpt><trkpt lat="43.8701625" lon="12.1282833"><ele>808.0</ele><time>2026-04-06T14:24:15.01Z</time></trkpt><trkpt lat="43.870122" lon="12.1285048"><ele>806.75</ele><time>2026-04-06T14:24:16.006Z</time></trkpt><trkpt lat="43.8700807" lon="12.1287099"><ele>805.5</ele><time>2026-04-06T14:24:17.009Z</time></trkpt><trkpt lat="43.8700631" lon="12.128894"><ele>804.25</ele><time>2026-04-06T14:24:18.006Z</time></trkpt><trkpt lat="43.8700818" lon="12.1290628"><ele>803.0</ele><time>2026-04-06T14:24:19.006Z</time></trkpt><trkpt lat="43.8701353" lon="12.1292343"><ele>803.0</ele><time>2026-04-06T14:24:20.01Z</time></trkpt><trkpt lat="43.8702059" lon="12.1294028"><ele>803.0</ele><time>2026-04-06T14:24:21.012Z</time></trkpt><trkpt lat="43.8702793" lon="12.1295387"><ele>803.0</ele><time>2026-04-06T14:24:22.008Z</time></trkpt><trkpt lat="43.8703623" lon="12.1296264"><ele>803.0</ele><time>2026-04-06T14:24:23.008Z</time></trkpt><trkpt lat="43.8704615" lon="12.1296597"><ele>803.0</ele><time>2026-04-06T14:24:24.009Z</time></trkpt><trkpt lat="43.8705817" lon="12.1296404"><ele>803.0</ele><time>2026-04-06T14:24:25.008Z</time></trkpt><trkpt lat="43.8707223" lon="12.1295992"><ele>803.0</ele><time>2026-04-06T14:24:26.007Z</time></trkpt><trkpt lat="43.8708884" lon="12.1295757"><ele>803.0</ele><time>2026-04-06T14:24:27.008Z</time></trkpt><trkpt lat="43.8710685" lon="12.129584"><ele>802.6666666666667</ele><time>2026-04-06T14:24:28.008Z</time></trkpt><trkpt lat="43.8712398" lon="12.1295979"><ele>802.3333333333333</ele><time>2026-04-06T14:24:29.008Z</time></trkpt><trkpt lat="43.8713929" lon="12.1295836"><ele>802.0</ele><time>2026-04-06T14:24:30.007Z</time></trkpt><trkpt lat="43.8715336" lon="12.129524"><ele>802.0</ele><time>2026-04-06T14:24:31.008Z</time></trkpt><trkpt lat="43.8716722" lon="12.1294226"><ele>802.0</ele><time>2026-04-06T14:24:32.008Z</time></trkpt><trkpt lat="43.8718004" lon="12.1293369"><ele>802.0</ele><time>2026-04-06T14:24:33.008Z</time></trkpt><trkpt lat="43.8719262" lon="12.1292933"><ele>802.0</ele><time>2026-04-06T14:24:34.008Z</time></trkpt><trkpt lat="43.8720636" lon="12.1292997"><ele>799.0</ele><time>2026-04-06T14:24:35.009Z</time></trkpt><trkpt lat="43.8722241" lon="12.1293453"><ele>796.0</ele><time>2026-04-06T14:24:36.007Z</time></trkpt><trkpt lat="43.872406" lon="12.1294096"><ele>793.0</ele><time>2026-04-06T14:24:37.009Z</time></trkpt><trkpt lat="43.8725931" lon="12.1294679"><ele>791.6666666666666</ele><time>2026-04-06T14:24:38.008Z</time></trkpt><trkpt lat="43.8727925" lon="12.1295185"><ele>790.3333333333333</ele><time>2026-04-06T14:24:39.008Z</time></trkpt><trkpt lat="43.8730103" lon="12.1295628"><ele>789.0</ele><time>2026-04-06T14:24:40.01Z</time></trkpt><trkpt lat="43.8732332" lon="12.1296006"><ele>791.0</ele><time>2026-04-06T14:24:41.008Z</time></trkpt><trkpt lat="43.8734431" lon="12.1296321"><ele>793.0</ele><time>2026-04-06T14:24:42.008Z</time></trkpt><trkpt lat="43.8736368" lon="12.1296597"><ele>795.0</ele><time>2026-04-06T14:24:43.01Z</time></trkpt><trkpt lat="43.8738151" lon="12.1296936"><ele>795.0</ele><time>2026-04-06T14:24:44.009Z</time></trkpt><trkpt lat="43.8739879" lon="12.1297332"><ele>795.0</ele><time>2026-04-06T14:24:45.008Z</time></trkpt><trkpt lat="43.874151" lon="12.1297832"><ele>795.0</ele><time>2026-04-06T14:24:46.01Z</time></trkpt><trkpt lat="43.8743031" lon="12.1298489"><ele>794.5</ele><time>2026-04-06T14:24:47.008Z</time></trkpt><trkpt lat="43.874443" lon="12.1299199"><ele>794.0</ele><time>2026-04-06T14:24:48.01Z</time></trkpt><trkpt lat="43.8745794" lon="12.1299846"><ele>793.5</ele><time>2026-04-06T14:24:49.008Z</time></trkpt><trkpt lat="43.8747285" lon="12.1300336"><ele>793.0</ele><time>2026-04-06T14:24:50.005Z</time></trkpt><trkpt lat="43.8748992" lon="12.1300734"><ele>793.0</ele><time>2026-04-06T14:24:51.008Z</time></trkpt><trkpt lat="43.8750882" lon="12.1301041"><ele>793.0</ele><time>2026-04-06T14:24:52.008Z</time></trkpt><trkpt lat="43.8752787" lon="12.130122"><ele>793.0</ele><time>2026-04-06T14:24:53.01Z</time></trkpt><trkpt lat="43.8754554" lon="12.1301217"><ele>794.0</ele><time>2026-04-06T14:24:54.008Z</time></trkpt><trkpt lat="43.8756187" lon="12.1301194"><ele>795.0</ele><time>2026-04-06T14:24:55.007Z</time></trkpt><trkpt lat="43.8757833" lon="12.1301318"><ele>796.0</ele><time>2026-04-06T14:24:56.011Z</time></trkpt><trkpt lat="43.8759613" lon="12.1301735"><ele>791.6666666666666</ele><time>2026-04-06T14:24:57.009Z</time></trkpt><trkpt lat="43.8761469" lon="12.1302439"><ele>787.3333333333333</ele><time>2026-04-06T14:24:58.008Z</time></trkpt><trkpt lat="43.8763279" lon="12.1303253"><ele>783.0</ele><time>2026-04-06T14:24:59.007Z</time></trkpt><trkpt lat="43.8765021" lon="12.1304052"><ele>783.0</ele><time>2026-04-06T14:25:00.008Z</time></trkpt><trkpt lat="43.876662" lon="12.1304942"><ele>783.0</ele><time>2026-04-06T14:25:01.008Z</time></trkpt><trkpt lat="43.8768047" lon="12.1305957"><ele>783.0</ele><time>2026-04-06T14:25:02.009Z</time></trkpt><trkpt lat="43.8769351" lon="12.1307006"><ele>782.6666666666667</ele><time>2026-04-06T14:25:03.007Z</time></trkpt><trkpt lat="43.8770613" lon="12.130799"><ele>782.3333333333334</ele><time>2026-04-06T14:25:04.007Z</time></trkpt><trkpt lat="43.8771919" lon="12.1309021"><ele>782.0</ele><time>2026-04-06T14:25:05.008Z</time></trkpt><trkpt lat="43.8773242" lon="12.1310222"><ele>782.0</ele><time>2026-04-06T14:25:06.009Z</time></trkpt><trkpt lat="43.8774462" lon="12.1311539"><ele>782.0</ele><time>2026-04-06T14:25:07.007Z</time></trkpt><trkpt lat="43.8775508" lon="12.1312984"><ele>782.0</ele><time>2026-04-06T14:25:08.006Z</time></trkpt><trkpt lat="43.8776432" lon="12.1314459"><ele>782.0</ele><time>2026-04-06T14:25:09.007Z</time></trkpt><trkpt lat="43.8777185" lon="12.1316191"><ele>784.3333333333334</ele><time>2026-04-06T14:25:10.008Z</time></trkpt><trkpt lat="43.8777889" lon="12.1318339"><ele>786.6666666666667</ele><time>2026-04-06T14:25:11.006Z</time></trkpt><trkpt lat="43.8778462" lon="12.1320715"><ele>789.0</ele><time>2026-04-06T14:25:12.007Z</time></trkpt><trkpt lat="43.8778861" lon="12.1322992"><ele>786.5</ele><time>2026-04-06T14:25:13.01Z</time></trkpt><trkpt lat="43.8778911" lon="12.1325055"><ele>784.0</ele><time>2026-04-06T14:25:14.006Z</time></trkpt><trkpt lat="43.8778673" lon="12.1326993"><ele>781.5</ele><time>2026-04-06T14:25:15.011Z</time></trkpt><trkpt lat="43.8778305" lon="12.1328768"><ele>779.0</ele><time>2026-04-06T14:25:16.007Z</time></trkpt><trkpt lat="43.8777983" lon="12.1330511"><ele>778.3333333333334</ele><time>2026-04-06T14:25:17.006Z</time></trkpt><trkpt lat="43.8777966" lon="12.1332467"><ele>777.6666666666667</ele><time>2026-04-06T14:25:18.009Z</time></trkpt><trkpt lat="43.8778303" lon="12.1334708"><ele>777.0</ele><time>2026-04-06T14:25:19.007Z</time></trkpt><trkpt lat="43.8778709" lon="12.1337114"><ele>777.0</ele><time>2026-04-06T14:25:20.009Z</time></trkpt><trkpt lat="43.8779142" lon="12.133953"><ele>777.0</ele><time>2026-04-06T14:25:21.008Z</time></trkpt><trkpt lat="43.8779535" lon="12.1341702"><ele>777.0</ele><time>2026-04-06T14:25:22.007Z</time></trkpt><trkpt lat="43.8779995" lon="12.1343572"><ele>776.75</ele><time>2026-04-06T14:25:23.008Z</time></trkpt><trkpt lat="43.8780649" lon="12.1345236"><ele>776.5</ele><time>2026-04-06T14:25:24.01Z</time></trkpt><trkpt lat="43.8781535" lon="12.1346849"><ele>776.25</ele><time>2026-04-06T14:25:25.007Z</time></trkpt><trkpt lat="43.8782409" lon="12.1348477"><ele>776.0</ele><time>2026-04-06T14:25:26.008Z</time></trkpt><trkpt lat="43.8783083" lon="12.1350225"><ele>775.0</ele><time>2026-04-06T14:25:27.008Z</time></trkpt><trkpt lat="43.8783437" lon="12.1352259"><ele>774.0</ele><time>2026-04-06T14:25:28.005Z</time></trkpt><trkpt lat="43.8783623" lon="12.135444"><ele>773.0</ele><time>2026-04-06T14:25:29.008Z</time></trkpt><trkpt lat="43.8783804" lon="12.13565"><ele>771.2</ele><time>2026-04-06T14:25:30.009Z</time></trkpt><trkpt lat="43.8783991" lon="12.1358289"><ele>769.4</ele><time>2026-04-06T14:25:31.007Z</time></trkpt><trkpt lat="43.8784261" lon="12.1359765"><ele>767.6</ele><time>2026-04-06T14:25:32.005Z</time></trkpt><trkpt lat="43.8784807" lon="12.1360886"><ele>765.8000000000001</ele><time>2026-04-06T14:25:33.011Z</time></trkpt><trkpt lat="43.8785728" lon="12.1361687"><ele>764.0</ele><time>2026-04-06T14:25:34.007Z</time></trkpt><trkpt lat="43.8786852" lon="12.136235"><ele>763.8000000000001</ele><time>2026-04-06T14:25:35.01Z</time></trkpt><trkpt lat="43.878789" lon="12.1362851"><ele>763.6</ele><time>2026-04-06T14:25:36.007Z</time></trkpt><trkpt lat="43.878878" lon="12.1363098"><ele>763.4</ele><time>2026-04-06T14:25:37.009Z</time></trkpt><trkpt lat="43.878964" lon="12.1363109"><ele>763.2</ele><time>2026-04-06T14:25:38.008Z</time></trkpt><trkpt lat="43.8790239" lon="12.1362492"><ele>763.0</ele><time>2026-04-06T14:25:39.01Z</time></trkpt><trkpt lat="43.8790822" lon="12.136149"><ele>763.0</ele><time>2026-04-06T14:25:40.011Z</time></trkpt><trkpt lat="43.8791393" lon="12.1359756"><ele>763.0</ele><time>2026-04-06T14:25:41.009Z</time></trkpt><trkpt lat="43.8792265" lon="12.1357992"><ele>763.0</ele><time>2026-04-06T14:25:42.009Z</time></trkpt><trkpt lat="43.8793254" lon="12.1356441"><ele>763.0</ele><time>2026-04-06T14:25:43.009Z</time></trkpt><trkpt lat="43.8794146" lon="12.1355127"><ele>755.8</ele><time>2026-04-06T14:25:44.01Z</time></trkpt><trkpt lat="43.8794818" lon="12.1353915"><ele>748.5999999999999</ele><time>2026-04-06T14:25:45.01Z</time></trkpt><trkpt lat="43.8795188" lon="12.1352616"><ele>741.4000000000001</ele><time>2026-04-06T14:25:46.009Z</time></trkpt><trkpt lat="43.8795315" lon="12.1351162"><ele>734.2</ele><time>2026-04-06T14:25:47.006Z</time></trkpt><trkpt lat="43.8795206" lon="12.1349649"><ele>727.0</ele><time>2026-04-06T14:25:48.007Z</time></trkpt><trkpt lat="43.8794877" lon="12.134828"><ele>731.0</ele><time>2026-04-06T14:25:49.007Z</time></trkpt><trkpt lat="43.8794331" lon="12.1347109"><ele>735.0</ele><time>2026-04-06T14:25:50.006Z</time></trkpt><trkpt lat="43.8793601" lon="12.1346266"><ele>739.0</ele><time>2026-04-06T14:25:51.01Z</time></trkpt><trkpt lat="43.8792776" lon="12.1345693"><ele>743.0</ele><time>2026-04-06T14:25:52.006Z</time></trkpt><trkpt lat="43.8791868" lon="12.1345141"><ele>747.0</ele><time>2026-04-06T14:25:53.01Z</time></trkpt><trkpt lat="43.8791022" lon="12.1344401"><ele>747.0</ele><time>2026-04-06T14:25:54.008Z</time></trkpt><trkpt lat="43.8790307" lon="12.1343307"><ele>747.0</ele><time>2026-04-06T14:25:55.01Z</time></trkpt><trkpt lat="43.8789738" lon="12.1341713"><ele>747.0</ele><time>2026-04-06T14:25:56.005Z</time></trkpt><trkpt lat="43.8789264" lon="12.1339768"><ele>747.0</ele><time>2026-04-06T14:25:57.013Z</time></trkpt><trkpt lat="43.8788763" lon="12.1337877"><ele>744.25</ele><time>2026-04-06T14:25:58.005Z</time></trkpt><trkpt lat="43.8788317" lon="12.1336153"><ele>741.5</ele><time>2026-04-06T14:25:59.008Z</time></trkpt><trkpt lat="43.8787932" lon="12.1334588"><ele>738.75</ele><time>2026-04-06T14:26:00.006Z</time></trkpt><trkpt lat="43.8787932" lon="12.133312"><ele>736.0</ele><time>2026-04-06T14:26:01.009Z</time></trkpt><trkpt lat="43.8788265" lon="12.1331718"><ele>736.0</ele><time>2026-04-06T14:26:02.006Z</time></trkpt><trkpt lat="43.8788759" lon="12.1330315"><ele>736.0</ele><time>2026-04-06T14:26:03.009Z</time></trkpt><trkpt lat="43.8789157" lon="12.1328904"><ele>736.0</ele><time>2026-04-06T14:26:04.008Z</time></trkpt><trkpt lat="43.8789466" lon="12.1327353"><ele>736.0</ele><time>2026-04-06T14:26:05.007Z</time></trkpt><trkpt lat="43.8789782" lon="12.1325591"><ele>741.6666666666667</ele><time>2026-04-06T14:26:06.008Z</time></trkpt><trkpt lat="43.8790363" lon="12.1323648"><ele>747.3333333333334</ele><time>2026-04-06T14:26:07.008Z</time></trkpt><trkpt lat="43.8791126" lon="12.1321695"><ele>753.0</ele><time>2026-04-06T14:26:08.008Z</time></trkpt><trkpt lat="43.8791937" lon="12.1319924"><ele>742.25</ele><time>2026-04-06T14:26:09.008Z</time></trkpt><trkpt lat="43.8792756" lon="12.1318422"><ele>731.5</ele><time>2026-04-06T14:26:10.008Z</time></trkpt><trkpt lat="43.8793716" lon="12.1317352"><ele>720.75</ele><time>2026-04-06T14:26:11.007Z</time></trkpt><trkpt lat="43.8794981" lon="12.1316697"><ele>710.0</ele><time>2026-04-06T14:26:12.008Z</time></trkpt><trkpt lat="43.879633" lon="12.1316255"><ele>710.0</ele><time>2026-04-06T14:26:13.009Z</time></trkpt><trkpt lat="43.8797593" lon="12.1315733"><ele>710.0</ele><time>2026-04-06T14:26:14.013Z</time></trkpt><trkpt lat="43.8798623" lon="12.1315032"><ele>710.0</ele><time>2026-04-06T14:26:15.007Z</time></trkpt><trkpt lat="43.8799394" lon="12.1314162"><ele>710.0</ele><time>2026-04-06T14:26:16.008Z</time></trkpt><trkpt lat="43.8799864" lon="12.1313179"><ele>710.0</ele><time>2026-04-06T14:26:17.008Z</time></trkpt><trkpt lat="43.8800225" lon="12.1312035"><ele>711.4</ele><time>2026-04-06T14:26:18.008Z</time></trkpt><trkpt lat="43.8800308" lon="12.1310605"><ele>712.8</ele><time>2026-04-06T14:26:19.009Z</time></trkpt><trkpt lat="43.880047" lon="12.1309227"><ele>714.2</ele><time>2026-04-06T14:26:20.006Z</time></trkpt><trkpt lat="43.8800874" lon="12.1308034"><ele>715.6</ele><time>2026-04-06T14:26:21.01Z</time></trkpt><trkpt lat="43.8801637" lon="12.1307028"><ele>717.0</ele><time>2026-04-06T14:26:22.009Z</time></trkpt><trkpt lat="43.8802848" lon="12.1306087"><ele>717.0</ele><time>2026-04-06T14:26:23.008Z</time></trkpt><trkpt lat="43.880434" lon="12.1305192"><ele>717.0</ele><time>2026-04-06T14:26:24.007Z</time></trkpt><trkpt lat="43.8805802" lon="12.1304445"><ele>717.0</ele><time>2026-04-06T14:26:25.01Z</time></trkpt><trkpt lat="43.8807189" lon="12.1303968"><ele>717.0</ele><time>2026-04-06T14:26:26.008Z</time></trkpt><trkpt lat="43.8808539" lon="12.130381"><ele>717.0</ele><time>2026-04-06T14:26:27.01Z</time></trkpt><trkpt lat="43.8809945" lon="12.1303841"><ele>717.0</ele><time>2026-04-06T14:26:28.008Z</time></trkpt><trkpt lat="43.8811488" lon="12.130406"><ele>717.0</ele><time>2026-04-06T14:26:29.007Z</time></trkpt><trkpt lat="43.8813132" lon="12.1304453"><ele>708.6666666666666</ele><time>2026-04-06T14:26:30.008Z</time></trkpt><trkpt lat="43.8814774" lon="12.1304969"><ele>700.3333333333333</ele><time>2026-04-06T14:26:31.009Z</time></trkpt><trkpt lat="43.8816333" lon="12.1305578"><ele>692.0</ele><time>2026-04-06T14:26:32.011Z</time></trkpt><trkpt lat="43.8817768" lon="12.1306335"><ele>690.0</ele><time>2026-04-06T14:26:33.008Z</time></trkpt><trkpt lat="43.8819041" lon="12.1307072"><ele>688.0</ele><time>2026-04-06T14:26:34.008Z</time></trkpt><trkpt lat="43.8820221" lon="12.1307597"><ele>686.0</ele><time>2026-04-06T14:26:35.008Z</time></trkpt><trkpt lat="43.8821523" lon="12.1307784"><ele>684.0</ele><time>2026-04-06T14:26:36.008Z</time></trkpt><trkpt lat="43.8823023" lon="12.1307655"><ele>684.0</ele><time>2026-04-06T14:26:37.008Z</time></trkpt><trkpt lat="43.8824568" lon="12.1307373"><ele>684.0</ele><time>2026-04-06T14:26:38.011Z</time></trkpt><trkpt lat="43.8826016" lon="12.1307049"><ele>684.0</ele><time>2026-04-06T14:26:39.007Z</time></trkpt><trkpt lat="43.8827325" lon="12.1306856"><ele>684.0</ele><time>2026-04-06T14:26:40.008Z</time></trkpt><trkpt lat="43.8828556" lon="12.1306978"><ele>680.8000000000001</ele><time>2026-04-06T14:26:41.007Z</time></trkpt><trkpt lat="43.8829736" lon="12.1307558"><ele>677.6</ele><time>2026-04-06T14:26:42.01Z</time></trkpt><trkpt lat="43.8830714" lon="12.1308517"><ele>674.4</ele><time>2026-04-06T14:26:43.009Z</time></trkpt><trkpt lat="43.8831492" lon="12.1309499"><ele>671.2</ele><time>2026-04-06T14:26:44.006Z</time></trkpt><trkpt lat="43.8832102" lon="12.1310266"><ele>668.0</ele><time>2026-04-06T14:26:45.008Z</time></trkpt><trkpt lat="43.8833022" lon="12.1310464"><ele>668.0</ele><time>2026-04-06T14:26:47.009Z</time></trkpt><trkpt lat="43.8833123" lon="12.1309118"><ele>668.0</ele><time>2026-04-06T14:26:49.009Z</time></trkpt><trkpt lat="43.8832346" lon="12.1308054"><ele>668.0</ele><time>2026-04-06T14:26:50.009Z</time></trkpt><trkpt lat="43.8831145" lon="12.1306703"><ele>668.0</ele><time>2026-04-06T14:26:51.009Z</time></trkpt><trkpt lat="43.8829773" lon="12.1305088"><ele>660.3333333333333</ele><time>2026-04-06T14:26:52.008Z</time></trkpt><trkpt lat="43.882847" lon="12.1303473"><ele>652.6666666666666</ele><time>2026-04-06T14:26:53.008Z</time></trkpt><trkpt lat="43.8827314" lon="12.1301944"><ele>645.0</ele><time>2026-04-06T14:26:54.01Z</time></trkpt><trkpt lat="43.8826305" lon="12.1300533"><ele>647.2</ele><time>2026-04-06T14:26:55.008Z</time></trkpt><trkpt lat="43.8825438" lon="12.1299293"><ele>649.4</ele><time>2026-04-06T14:26:56.007Z</time></trkpt><trkpt lat="43.8824739" lon="12.1298211"><ele>651.5999999999999</ele><time>2026-04-06T14:26:57.009Z</time></trkpt><trkpt lat="43.8824304" lon="12.1297174"><ele>653.8</ele><time>2026-04-06T14:26:58.009Z</time></trkpt><trkpt lat="43.8824086" lon="12.1296135"><ele>656.0</ele><time>2026-04-06T14:26:59.007Z</time></trkpt><trkpt lat="43.8824755" lon="12.1295024"><ele>652.3333333333333</ele><time>2026-04-06T14:27:01.009Z</time></trkpt><trkpt lat="43.8826124" lon="12.1296163"><ele>648.6666666666666</ele><time>2026-04-06T14:27:03.007Z</time></trkpt><trkpt lat="43.882702" lon="12.1297859"><ele>645.0</ele><time>2026-04-06T14:27:04.008Z</time></trkpt><trkpt lat="43.8828149" lon="12.1299673"><ele>645.0</ele><time>2026-04-06T14:27:05.007Z</time></trkpt><trkpt lat="43.8829507" lon="12.1301314"><ele>645.0</ele><time>2026-04-06T14:27:06.009Z</time></trkpt><trkpt lat="43.8830874" lon="12.1302622"><ele>645.0</ele><time>2026-04-06T14:27:07.01Z</time></trkpt><trkpt lat="43.8832156" lon="12.1303583"><ele>645.0</ele><time>2026-04-06T14:27:08.006Z</time></trkpt><trkpt lat="43.8833312" lon="12.1304136"><ele>645.0</ele><time>2026-04-06T14:27:09.008Z</time></trkpt><trkpt lat="43.8834286" lon="12.1304265"><ele>645.0</ele><time>2026-04-06T14:27:10.009Z</time></trkpt><trkpt lat="43.8835162" lon="12.1304148"><ele>645.0</ele><time>2026-04-06T14:27:11.006Z</time></trkpt><trkpt lat="43.8836038" lon="12.1303626"><ele>645.0</ele><time>2026-04-06T14:27:12.007Z</time></trkpt><trkpt lat="43.8836886" lon="12.1303077"><ele>641.2</ele><time>2026-04-06T14:27:13.008Z</time></trkpt><trkpt lat="43.8837617" lon="12.1302768"><ele>637.4</ele><time>2026-04-06T14:27:14.008Z</time></trkpt><trkpt lat="43.8838321" lon="12.1302748"><ele>633.6</ele><time>2026-04-06T14:27:15.008Z</time></trkpt><trkpt lat="43.8839203" lon="12.130365"><ele>629.8</ele><time>2026-04-06T14:27:16.006Z</time></trkpt><trkpt lat="43.8840303" lon="12.1304927"><ele>626.0</ele><time>2026-04-06T14:27:17.007Z</time></trkpt><trkpt lat="43.8841369" lon="12.1306396"><ele>629.5</ele><time>2026-04-06T14:27:18.006Z</time></trkpt><trkpt lat="43.8842311" lon="12.1307779"><ele>633.0</ele><time>2026-04-06T14:27:19.009Z</time></trkpt><trkpt lat="43.8843222" lon="12.1308868"><ele>636.5</ele><time>2026-04-06T14:27:20.007Z</time></trkpt><trkpt lat="43.8844323" lon="12.1309525"><ele>640.0</ele><time>2026-04-06T14:27:21.008Z</time></trkpt><trkpt lat="43.8845666" lon="12.1309747"><ele>640.0</ele><time>2026-04-06T14:27:22.009Z</time></trkpt><trkpt lat="43.8847226" lon="12.1309445"><ele>640.0</ele><time>2026-04-06T14:27:23.007Z</time></trkpt><trkpt lat="43.8848796" lon="12.1308745"><ele>640.0</ele><time>2026-04-06T14:27:24.006Z</time></trkpt><trkpt lat="43.8850149" lon="12.1307899"><ele>634.4</ele><time>2026-04-06T14:27:25.008Z</time></trkpt><trkpt lat="43.8851314" lon="12.1307096"><ele>628.8</ele><time>2026-04-06T14:27:26.007Z</time></trkpt><trkpt lat="43.885228" lon="12.1306536"><ele>623.2</ele><time>2026-04-06T14:27:27.01Z</time></trkpt><trkpt lat="43.8853142" lon="12.1306312"><ele>617.6</ele><time>2026-04-06T14:27:28.009Z</time></trkpt><trkpt lat="43.8853983" lon="12.1306105"><ele>612.0</ele><time>2026-04-06T14:27:29.007Z</time></trkpt><trkpt lat="43.8854931" lon="12.1305644"><ele>612.0</ele><time>2026-04-06T14:27:30.009Z</time></trkpt><trkpt lat="43.8855946" lon="12.1304792"><ele>612.0</ele><time>2026-04-06T14:27:31.008Z</time></trkpt><trkpt lat="43.8856866" lon="12.1303636"><ele>612.0</ele><time>2026-04-06T14:27:32.009Z</time></trkpt><trkpt lat="43.8857744" lon="12.1302679"><ele>612.0</ele><time>2026-04-06T14:27:33.009Z</time></trkpt><trkpt lat="43.8858539" lon="12.1302134"><ele>612.0</ele><time>2026-04-06T14:27:34.007Z</time></trkpt><trkpt lat="43.8859305" lon="12.1301931"><ele>612.0</ele><time>2026-04-06T14:27:35.007Z</time></trkpt><trkpt lat="43.8860018" lon="12.1301979"><ele>612.0</ele><time>2026-04-06T14:27:36.006Z</time></trkpt><trkpt lat="43.8860845" lon="12.1302411"><ele>612.0</ele><time>2026-04-06T14:27:37.007Z</time></trkpt><trkpt lat="43.8861655" lon="12.1302855"><ele>612.0</ele><time>2026-04-06T14:27:38.007Z</time></trkpt><trkpt lat="43.8862625" lon="12.1302572"><ele>612.0</ele><time>2026-04-06T14:27:39.007Z</time></trkpt><trkpt lat="43.8863631" lon="12.1301954"><ele>612.0</ele><time>2026-04-06T14:27:40.006Z</time></trkpt><trkpt lat="43.8864638" lon="12.1301408"><ele>612.0</ele><time>2026-04-06T14:27:41.008Z</time></trkpt><trkpt lat="43.886575" lon="12.1301325"><ele>612.0</ele><time>2026-04-06T14:27:42.007Z</time></trkpt><trkpt lat="43.8866961" lon="12.1301599"><ele>612.0</ele><time>2026-04-06T14:27:43.007Z</time></trkpt><trkpt lat="43.8868134" lon="12.1302027"><ele>609.2</ele><time>2026-04-06T14:27:44.012Z</time></trkpt><trkpt lat="43.8869151" lon="12.1302697"><ele>606.4000000000001</ele><time>2026-04-06T14:27:45.006Z</time></trkpt><trkpt lat="43.8869967" lon="12.1303561"><ele>603.5999999999999</ele><time>2026-04-06T14:27:46.007Z</time></trkpt><trkpt lat="43.8870758" lon="12.130429"><ele>600.8</ele><time>2026-04-06T14:27:47.006Z</time></trkpt><trkpt lat="43.8871643" lon="12.1304585"><ele>598.0</ele><time>2026-04-06T14:27:48.007Z</time></trkpt><trkpt lat="43.8872755" lon="12.1304285"><ele>598.0</ele><time>2026-04-06T14:27:49.01Z</time></trkpt><trkpt lat="43.8874116" lon="12.1303453"><ele>598.0</ele><time>2026-04-06T14:27:50.007Z</time></trkpt><trkpt lat="43.8875673" lon="12.1302423"><ele>598.0</ele><time>2026-04-06T14:27:51.01Z</time></trkpt><trkpt lat="43.8877267" lon="12.1301468"><ele>597.6666666666667</ele><time>2026-04-06T14:27:52.009Z</time></trkpt><trkpt lat="43.8878789" lon="12.1300546"><ele>597.3333333333334</ele><time>2026-04-06T14:27:53.009Z</time></trkpt><trkpt lat="43.8880171" lon="12.129948"><ele>597.0</ele><time>2026-04-06T14:27:54.006Z</time></trkpt><trkpt lat="43.8881421" lon="12.1298244"><ele>591.25</ele><time>2026-04-06T14:27:55.008Z</time></trkpt><trkpt lat="43.8882564" lon="12.1296895"><ele>585.5</ele><time>2026-04-06T14:27:56.011Z</time></trkpt><trkpt lat="43.8883631" lon="12.1295575"><ele>579.75</ele><time>2026-04-06T14:27:57.008Z</time></trkpt><trkpt lat="43.8884655" lon="12.1294467"><ele>574.0</ele><time>2026-04-06T14:27:58.008Z</time></trkpt><trkpt lat="43.8885596" lon="12.1293714"><ele>573.5</ele><time>2026-04-06T14:27:59.007Z</time></trkpt><trkpt lat="43.8886508" lon="12.1293356"><ele>573.0</ele><time>2026-04-06T14:28:00.009Z</time></trkpt><trkpt lat="43.8887484" lon="12.1293503"><ele>572.5</ele><time>2026-04-06T14:28:01.006Z</time></trkpt><trkpt lat="43.8888578" lon="12.1294198"><ele>572.0</ele><time>2026-04-06T14:28:02.007Z</time></trkpt><trkpt lat="43.8889766" lon="12.1295237"><ele>572.0</ele><time>2026-04-06T14:28:03.011Z</time></trkpt><trkpt lat="43.8890917" lon="12.1296392"><ele>572.0</ele><time>2026-04-06T14:28:04.01Z</time></trkpt><trkpt lat="43.8892025" lon="12.1297386"><ele>572.0</ele><time>2026-04-06T14:28:05.006Z</time></trkpt><trkpt lat="43.8893357" lon="12.1298111"><ele>572.0</ele><time>2026-04-06T14:28:06.393Z</time></trkpt><trkpt lat="43.8895778" lon="12.1298336"><ele>569.4</ele><time>2026-04-06T14:28:08.014Z</time></trkpt><trkpt lat="43.8896917" lon="12.1298262"><ele>566.8000000000001</ele><time>2026-04-06T14:28:09.009Z</time></trkpt><trkpt lat="43.8897971" lon="12.1298182"><ele>564.2</ele><time>2026-04-06T14:28:10.008Z</time></trkpt><trkpt lat="43.8899042" lon="12.1298131"><ele>561.6</ele><time>2026-04-06T14:28:11.007Z</time></trkpt><trkpt lat="43.8900124" lon="12.1298232"><ele>559.0</ele><time>2026-04-06T14:28:12.007Z</time></trkpt><trkpt lat="43.8901316" lon="12.1298563"><ele>563.0</ele><time>2026-04-06T14:28:13.013Z</time></trkpt><trkpt lat="43.8902575" lon="12.1299142"><ele>567.0</ele><time>2026-04-06T14:28:14.007Z</time></trkpt><trkpt lat="43.8903933" lon="12.1299946"><ele>571.0</ele><time>2026-04-06T14:28:15.01Z</time></trkpt><trkpt lat="43.8905378" lon="12.1300919"><ele>575.0</ele><time>2026-04-06T14:28:16.006Z</time></trkpt><trkpt lat="43.8906938" lon="12.1301904"><ele>575.0</ele><time>2026-04-06T14:28:17.008Z</time></trkpt><trkpt lat="43.8908623" lon="12.1302828"><ele>575.0</ele><time>2026-04-06T14:28:18.008Z</time></trkpt><trkpt lat="43.8910393" lon="12.1303584"><ele>575.0</ele><time>2026-04-06T14:28:19.01Z</time></trkpt><trkpt lat="43.8912198" lon="12.13042"><ele>576.0</ele><time>2026-04-06T14:28:20.006Z</time></trkpt><trkpt lat="43.8914053" lon="12.1304814"><ele>577.0</ele><time>2026-04-06T14:28:21.007Z</time></trkpt><trkpt lat="43.89159" lon="12.1305524"><ele>578.0</ele><time>2026-04-06T14:28:22.009Z</time></trkpt><trkpt lat="43.8917672" lon="12.1306418"><ele>575.0</ele><time>2026-04-06T14:28:23.007Z</time></trkpt><trkpt lat="43.8919345" lon="12.1307529"><ele>572.0</ele><time>2026-04-06T14:28:24.008Z</time></trkpt><trkpt lat="43.8920891" lon="12.1308822"><ele>569.0</ele><time>2026-04-06T14:28:25.008Z</time></trkpt><trkpt lat="43.8922344" lon="12.1310177"><ele>569.0</ele><time>2026-04-06T14:28:26.008Z</time></trkpt><trkpt lat="43.892374" lon="12.1311532"><ele>569.0</ele><time>2026-04-06T14:28:27.007Z</time></trkpt><trkpt lat="43.8925031" lon="12.131284"><ele>569.0</ele><time>2026-04-06T14:28:28.007Z</time></trkpt><trkpt lat="43.8926171" lon="12.131422"><ele>567.0</ele><time>2026-04-06T14:28:29.009Z</time></trkpt><trkpt lat="43.8927075" lon="12.1315784"><ele>565.0</ele><time>2026-04-06T14:28:30.008Z</time></trkpt><trkpt lat="43.8927755" lon="12.1317473"><ele>563.0</ele><time>2026-04-06T14:28:31.008Z</time></trkpt><trkpt lat="43.892826" lon="12.1319195"><ele>561.0</ele><time>2026-04-06T14:28:32.008Z</time></trkpt><trkpt lat="43.8928906" lon="12.1320711"><ele>561.0</ele><time>2026-04-06T14:28:33.009Z</time></trkpt><trkpt lat="43.8929746" lon="12.1321897"><ele>561.0</ele><time>2026-04-06T14:28:34.007Z</time></trkpt><trkpt lat="43.8930808" lon="12.1322787"><ele>561.0</ele><time>2026-04-06T14:28:35.008Z</time></trkpt><trkpt lat="43.8932072" lon="12.13235"><ele>561.0</ele><time>2026-04-06T14:28:36.009Z</time></trkpt><trkpt lat="43.8933517" lon="12.1324009"><ele>549.3333333333334</ele><time>2026-04-06T14:28:37.008Z</time></trkpt><trkpt lat="43.8935243" lon="12.132428"><ele>537.6666666666667</ele><time>2026-04-06T14:28:38.009Z</time></trkpt><trkpt lat="43.8937049" lon="12.1324344"><ele>526.0</ele><time>2026-04-06T14:28:39.009Z</time></trkpt><trkpt lat="43.893879" lon="12.1324347"><ele>526.0</ele><time>2026-04-06T14:28:40.007Z</time></trkpt><trkpt lat="43.8940453" lon="12.1324402"><ele>526.0</ele><time>2026-04-06T14:28:41.008Z</time></trkpt><trkpt lat="43.8942001" lon="12.1324616"><ele>526.0</ele><time>2026-04-06T14:28:42.007Z</time></trkpt><trkpt lat="43.8943481" lon="12.1325062"><ele>525.6666666666667</ele><time>2026-04-06T14:28:43.008Z</time></trkpt><trkpt lat="43.8944921" lon="12.1325825"><ele>525.3333333333334</ele><time>2026-04-06T14:28:44.006Z</time></trkpt><trkpt lat="43.8946264" lon="12.132677"><ele>525.0</ele><time>2026-04-06T14:28:45.007Z</time></trkpt><trkpt lat="43.8947591" lon="12.132768"><ele>525.0</ele><time>2026-04-06T14:28:46.008Z</time></trkpt><trkpt lat="43.8948974" lon="12.1328228"><ele>525.0</ele><time>2026-04-06T14:28:47.006Z</time></trkpt><trkpt lat="43.8950489" lon="12.1328489"><ele>525.0</ele><time>2026-04-06T14:28:48.013Z</time></trkpt><trkpt lat="43.8952073" lon="12.1328851"><ele>519.6666666666666</ele><time>2026-04-06T14:28:49.006Z</time></trkpt><trkpt lat="43.8953654" lon="12.1329551"><ele>514.3333333333333</ele><time>2026-04-06T14:28:50.009Z</time></trkpt><trkpt lat="43.8955191" lon="12.1330586"><ele>509.0</ele><time>2026-04-06T14:28:51.007Z</time></trkpt><trkpt lat="43.8956598" lon="12.1331803"><ele>509.0</ele><time>2026-04-06T14:28:52.005Z</time></trkpt><trkpt lat="43.8957729" lon="12.1333161"><ele>509.0</ele><time>2026-04-06T14:28:53.009Z</time></trkpt><trkpt lat="43.8958549" lon="12.1334668"><ele>509.0</ele><time>2026-04-06T14:28:54.007Z</time></trkpt><trkpt lat="43.8959181" lon="12.1336286"><ele>509.0</ele><time>2026-04-06T14:28:55.007Z</time></trkpt><trkpt lat="43.8959929" lon="12.1338002"><ele>509.66666666666663</ele><time>2026-04-06T14:28:56.009Z</time></trkpt><trkpt lat="43.8960893" lon="12.1339742"><ele>510.33333333333337</ele><time>2026-04-06T14:28:57.011Z</time></trkpt><trkpt lat="43.8961802" lon="12.1341514"><ele>511.0</ele><time>2026-04-06T14:28:58.008Z</time></trkpt><trkpt lat="43.8962503" lon="12.1343314"><ele>511.0</ele><time>2026-04-06T14:28:59.005Z</time></trkpt><trkpt lat="43.8962952" lon="12.134512"><ele>511.0</ele><time>2026-04-06T14:29:00.009Z</time></trkpt><trkpt lat="43.8963204" lon="12.1346738"><ele>511.0</ele><time>2026-04-06T14:29:01.009Z</time></trkpt><trkpt lat="43.8963418" lon="12.1348082"><ele>511.0</ele><time>2026-04-06T14:29:02.007Z</time></trkpt><trkpt lat="43.8963778" lon="12.134928"><ele>507.5</ele><time>2026-04-06T14:29:03.009Z</time></trkpt><trkpt lat="43.8964456" lon="12.1350187"><ele>504.0</ele><time>2026-04-06T14:29:04.008Z</time></trkpt><trkpt lat="43.8965428" lon="12.1350742"><ele>500.5</ele><time>2026-04-06T14:29:05.008Z</time></trkpt><trkpt lat="43.8966722" lon="12.1351018"><ele>497.0</ele><time>2026-04-06T14:29:06.009Z</time></trkpt><trkpt lat="43.8968311" lon="12.1351204"><ele>495.66666666666663</ele><time>2026-04-06T14:29:07.007Z</time></trkpt><trkpt lat="43.8969997" lon="12.1351516"><ele>494.33333333333337</ele><time>2026-04-06T14:29:08.01Z</time></trkpt><trkpt lat="43.8971511" lon="12.1352099"><ele>493.0</ele><time>2026-04-06T14:29:09.007Z</time></trkpt><trkpt lat="43.8972761" lon="12.135294"><ele>493.0</ele><time>2026-04-06T14:29:10.009Z</time></trkpt><trkpt lat="43.8973687" lon="12.1354027"><ele>492.99999999999994</ele><time>2026-04-06T14:29:11.008Z</time></trkpt><trkpt lat="43.8974471" lon="12.1355098"><ele>492.99999999999994</ele><time>2026-04-06T14:29:12.009Z</time></trkpt><trkpt lat="43.8975329" lon="12.1355842"><ele>493.0</ele><time>2026-04-06T14:29:13.009Z</time></trkpt><trkpt lat="43.8976276" lon="12.1356182"><ele>493.0</ele><time>2026-04-06T14:29:14.007Z</time></trkpt><trkpt lat="43.8977376" lon="12.1356035"><ele>489.75</ele><time>2026-04-06T14:29:15.009Z</time></trkpt><trkpt lat="43.8978662" lon="12.1355427"><ele>486.5</ele><time>2026-04-06T14:29:16.009Z</time></trkpt><trkpt lat="43.898004" lon="12.1354584"><ele>483.25</ele><time>2026-04-06T14:29:17.008Z</time></trkpt><trkpt lat="43.8981417" lon="12.135388"><ele>480.0</ele><time>2026-04-06T14:29:18.007Z</time></trkpt><trkpt lat="43.8982767" lon="12.1353485"><ele>476.33333333333337</ele><time>2026-04-06T14:29:19.007Z</time></trkpt><trkpt lat="43.8984214" lon="12.1353521"><ele>472.6666666666667</ele><time>2026-04-06T14:29:20.008Z</time></trkpt><trkpt lat="43.89858" lon="12.1353962"><ele>469.0</ele><time>2026-04-06T14:29:21.007Z</time></trkpt><trkpt lat="43.8987464" lon="12.1354741"><ele>469.0</ele><time>2026-04-06T14:29:22.006Z</time></trkpt><trkpt lat="43.8989119" lon="12.1355717"><ele>469.0</ele><time>2026-04-06T14:29:23.009Z</time></trkpt><trkpt lat="43.899069" lon="12.1356678"><ele>469.0</ele><time>2026-04-06T14:29:24.007Z</time></trkpt><trkpt lat="43.8992181" lon="12.1357578"><ele>464.6666666666667</ele><time>2026-04-06T14:29:25.007Z</time></trkpt><trkpt lat="43.8993599" lon="12.1358478"><ele>460.33333333333337</ele><time>2026-04-06T14:29:26.005Z</time></trkpt><trkpt lat="43.8994957" lon="12.1359371"><ele>456.0</ele><time>2026-04-06T14:29:27.005Z</time></trkpt><trkpt lat="43.8996246" lon="12.1360273"><ele>456.0</ele><time>2026-04-06T14:29:28.007Z</time></trkpt><trkpt lat="43.8997461" lon="12.136116"><ele>456.0</ele><time>2026-04-06T14:29:29.006Z</time></trkpt><trkpt lat="43.8998537" lon="12.1362016"><ele>456.0</ele><time>2026-04-06T14:29:30.008Z</time></trkpt><trkpt lat="43.8999449" lon="12.1362687"><ele>456.0</ele><time>2026-04-06T14:29:31.007Z</time></trkpt><trkpt lat="43.900022" lon="12.1363007"><ele>456.0</ele><time>2026-04-06T14:29:32.007Z</time></trkpt><trkpt lat="43.9000884" lon="12.1363015"><ele>449.8</ele><time>2026-04-06T14:29:33.008Z</time></trkpt><trkpt lat="43.9001665" lon="12.1362462"><ele>443.6</ele><time>2026-04-06T14:29:35.004Z</time></trkpt><trkpt lat="43.9001483" lon="12.1360283"><ele>437.4</ele><time>2026-04-06T14:30:37.008Z</time></trkpt><trkpt lat="43.900165" lon="12.13589"><ele>431.2</ele><time>2026-04-06T14:30:38.007Z</time></trkpt><trkpt lat="43.9001683" lon="12.1357517"><ele>425.0</ele><time>2026-04-06T14:30:39.008Z</time></trkpt><trkpt lat="43.9001633" lon="12.135635"><ele>422.0</ele><time>2026-04-06T14:30:40.009Z</time></trkpt><trkpt lat="43.9001433" lon="12.135525"><ele>419.0</ele><time>2026-04-06T14:30:41.007Z</time></trkpt><trkpt lat="43.900105" lon="12.1354117"><ele>416.0</ele><time>2026-04-06T14:30:42.008Z</time></trkpt><trkpt lat="43.9000483" lon="12.13529"><ele>413.0</ele><time>2026-04-06T14:30:43.01Z</time></trkpt><trkpt lat="43.899955" lon="12.1351133"><ele>410.0</ele><time>2026-04-06T14:30:44.008Z</time></trkpt><trkpt lat="43.8998417" lon="12.134915"><ele>412.3333333333333</ele><time>2026-04-06T14:30:45.009Z</time></trkpt><trkpt lat="43.8997117" lon="12.1347183"><ele>414.66666666666663</ele><time>2026-04-06T14:30:46.007Z</time></trkpt><trkpt lat="43.89957" lon="12.1345317"><ele>417.0</ele><time>2026-04-06T14:30:47.008Z</time></trkpt><trkpt lat="43.899455" lon="12.1343683"><ele>417.0</ele><time>2026-04-06T14:30:48.008Z</time></trkpt><trkpt lat="43.899355" lon="12.1342167"><ele>417.0</ele><time>2026-04-06T14:30:49.006Z</time></trkpt><trkpt lat="43.899255" lon="12.1340667"><ele>417.0</ele><time>2026-04-06T14:30:50.01Z</time></trkpt><trkpt lat="43.89915" lon="12.1339283"><ele>417.0</ele><time>2026-04-06T14:30:51.009Z</time></trkpt><trkpt lat="43.8990467" lon="12.1338217"><ele>418.0</ele><time>2026-04-06T14:30:52.007Z</time></trkpt><trkpt lat="43.8989517" lon="12.1337383"><ele>419.0</ele><time>2026-04-06T14:30:53.007Z</time></trkpt><trkpt lat="43.8988817" lon="12.1336617"><ele>420.0</ele><time>2026-04-06T14:30:54.009Z</time></trkpt><trkpt lat="43.8988367" lon="12.133585"><ele>421.0</ele><time>2026-04-06T14:30:55.007Z</time></trkpt><trkpt lat="43.898875" lon="12.13348"><ele>422.0</ele><time>2026-04-06T14:30:57.008Z</time></trkpt><trkpt lat="43.899" lon="12.1334933"><ele>422.0</ele><time>2026-04-06T14:30:59.007Z</time></trkpt><trkpt lat="43.8990933" lon="12.13358"><ele>422.0</ele><time>2026-04-06T14:31:00.01Z</time></trkpt><trkpt lat="43.8992833" lon="12.133795"><ele>422.0</ele><time>2026-04-06T14:31:01.006Z</time></trkpt><trkpt lat="43.89946" lon="12.1339667"><ele>420.3333333333333</ele><time>2026-04-06T14:31:02.007Z</time></trkpt><trkpt lat="43.8996283" lon="12.1341117"><ele>418.66666666666663</ele><time>2026-04-06T14:31:03.006Z</time></trkpt><trkpt lat="43.8997867" lon="12.134225"><ele>417.0</ele><time>2026-04-06T14:31:04.006Z</time></trkpt><trkpt lat="43.8999317" lon="12.1343233"><ele>417.0</ele><time>2026-04-06T14:31:05.006Z</time></trkpt><trkpt lat="43.9000633" lon="12.1344217"><ele>417.0</ele><time>2026-04-06T14:31:06.008Z</time></trkpt><trkpt lat="43.9001817" lon="12.1345033"><ele>417.0</ele><time>2026-04-06T14:31:07.007Z</time></trkpt><trkpt lat="43.900295" lon="12.1345483"><ele>417.0</ele><time>2026-04-06T14:31:08.006Z</time></trkpt><trkpt lat="43.90042" lon="12.1345333"><ele>412.66666666666663</ele><time>2026-04-06T14:31:09.009Z</time></trkpt><trkpt lat="43.9005433" lon="12.1344617"><ele>408.3333333333333</ele><time>2026-04-06T14:31:10.007Z</time></trkpt><trkpt lat="43.90068" lon="12.1343433"><ele>404.0</ele><time>2026-04-06T14:31:11.009Z</time></trkpt><trkpt lat="43.9008383" lon="12.134215"><ele>403.66666666666663</ele><time>2026-04-06T14:31:12.008Z</time></trkpt><trkpt lat="43.9010133" lon="12.1340933"><ele>403.33333333333337</ele><time>2026-04-06T14:31:13.007Z</time></trkpt><trkpt lat="43.9011917" lon="12.1339767"><ele>403.0</ele><time>2026-04-06T14:31:14.009Z</time></trkpt><trkpt lat="43.9013583" lon="12.1338683"><ele>403.0</ele><time>2026-04-06T14:31:15.009Z</time></trkpt><trkpt lat="43.9015067" lon="12.1337483"><ele>403.0</ele><time>2026-04-06T14:31:16.009Z</time></trkpt><trkpt lat="43.90164" lon="12.1336033"><ele>403.0</ele><time>2026-04-06T14:31:17.006Z</time></trkpt><trkpt lat="43.9017683" lon="12.133435"><ele>401.33333333333337</ele><time>2026-04-06T14:31:18.009Z</time></trkpt><trkpt lat="43.9019017" lon="12.1332683"><ele>399.66666666666663</ele><time>2026-04-06T14:31:19.01Z</time></trkpt><trkpt lat="43.902045" lon="12.1331217"><ele>398.0</ele><time>2026-04-06T14:31:20.01Z</time></trkpt><trkpt lat="43.9022" lon="12.1329983"><ele>398.0</ele><time>2026-04-06T14:31:21.008Z</time></trkpt><trkpt lat="43.9023533" lon="12.1328983"><ele>398.0</ele><time>2026-04-06T14:31:22.008Z</time></trkpt><trkpt lat="43.9025017" lon="12.1328217"><ele>398.0</ele><time>2026-04-06T14:31:23.009Z</time></trkpt><trkpt lat="43.9026483" lon="12.1327917"><ele>397.3333333333333</ele><time>2026-04-06T14:31:24.008Z</time></trkpt><trkpt lat="43.9028017" lon="12.13279"><ele>396.66666666666663</ele><time>2026-04-06T14:31:25.011Z</time></trkpt><trkpt lat="43.90296" lon="12.1327633"><ele>396.0</ele><time>2026-04-06T14:31:26.01Z</time></trkpt><trkpt lat="43.9031117" lon="12.1327183"><ele>396.0</ele><time>2026-04-06T14:31:27.008Z</time></trkpt><trkpt lat="43.903255" lon="12.1326767"><ele>396.0</ele><time>2026-04-06T14:31:28.011Z</time></trkpt><trkpt lat="43.9033883" lon="12.1326233"><ele>396.0</ele><time>2026-04-06T14:31:29.008Z</time></trkpt><trkpt lat="43.9035233" lon="12.1325517"><ele>396.0</ele><time>2026-04-06T14:31:30.007Z</time></trkpt><trkpt lat="43.9036517" lon="12.1324633"><ele>397.75</ele><time>2026-04-06T14:31:31.008Z</time></trkpt><trkpt lat="43.9037683" lon="12.1323633"><ele>399.5</ele><time>2026-04-06T14:31:32.007Z</time></trkpt><trkpt lat="43.9038717" lon="12.1322517"><ele>401.25</ele><time>2026-04-06T14:31:33.01Z</time></trkpt><trkpt lat="43.9039533" lon="12.1321167"><ele>403.0</ele><time>2026-04-06T14:31:34.007Z</time></trkpt><trkpt lat="43.9039883" lon="12.1319267"><ele>403.0</ele><time>2026-04-06T14:31:35.007Z</time></trkpt><trkpt lat="43.90401" lon="12.1317117"><ele>403.0</ele><time>2026-04-06T14:31:36.006Z</time></trkpt><trkpt lat="43.90404" lon="12.1314933"><ele>403.0</ele><time>2026-04-06T14:31:37.008Z</time></trkpt><trkpt lat="43.9040933" lon="12.1312817"><ele>398.0</ele><time>2026-04-06T14:31:38.007Z</time></trkpt><trkpt lat="43.9041483" lon="12.1310683"><ele>393.0</ele><time>2026-04-06T14:31:39.007Z</time></trkpt><trkpt lat="43.9042" lon="12.1308533"><ele>388.0</ele><time>2026-04-06T14:31:40.01Z</time></trkpt><trkpt lat="43.9042133" lon="12.1306167"><ele>384.0</ele><time>2026-04-06T14:31:41.012Z</time></trkpt><trkpt lat="43.9041983" lon="12.130365"><ele>380.0</ele><time>2026-04-06T14:31:42.009Z</time></trkpt><trkpt lat="43.9041583" lon="12.1301217"><ele>376.0</ele><time>2026-04-06T14:31:43.008Z</time></trkpt><trkpt lat="43.90409" lon="12.1298933"><ele>374.66666666666663</ele><time>2026-04-06T14:31:44.008Z</time></trkpt><trkpt lat="43.9040033" lon="12.1296733"><ele>373.3333333333333</ele><time>2026-04-06T14:31:45.01Z</time></trkpt><trkpt lat="43.9039137" lon="12.1294684"><ele>372.0</ele><time>2026-04-06T14:31:46.01Z</time></trkpt><trkpt lat="43.9038257" lon="12.1292772"><ele>372.0</ele><time>2026-04-06T14:31:47.008Z</time></trkpt><trkpt lat="43.9037481" lon="12.1290944"><ele>372.0</ele><time>2026-04-06T14:31:48.006Z</time></trkpt><trkpt lat="43.9036911" lon="12.1289216"><ele>372.0</ele><time>2026-04-06T14:31:49.006Z</time></trkpt><trkpt lat="43.9036542" lon="12.1287555"><ele>372.0</ele><time>2026-04-06T14:31:50.009Z</time></trkpt><trkpt lat="43.9036491" lon="12.1285877"><ele>370.75</ele><time>2026-04-06T14:31:51.007Z</time></trkpt><trkpt lat="43.9036824" lon="12.1284137"><ele>369.5</ele><time>2026-04-06T14:31:52.009Z</time></trkpt><trkpt lat="43.9037428" lon="12.1282282"><ele>368.25</ele><time>2026-04-06T14:31:53.009Z</time></trkpt><trkpt lat="43.9038058" lon="12.1280232"><ele>367.0</ele><time>2026-04-06T14:31:54.008Z</time></trkpt><trkpt lat="43.9038479" lon="12.1278125"><ele>365.0</ele><time>2026-04-06T14:31:55.01Z</time></trkpt><trkpt lat="43.903881" lon="12.1276088"><ele>363.0</ele><time>2026-04-06T14:31:56.01Z</time></trkpt><trkpt lat="43.9039243" lon="12.1274324"><ele>361.0</ele><time>2026-04-06T14:31:57.008Z</time></trkpt><trkpt lat="43.9039814" lon="12.127297"><ele>359.0</ele><time>2026-04-06T14:31:58.011Z</time></trkpt><trkpt lat="43.9040555" lon="12.1272144"><ele>355.2</ele><time>2026-04-06T14:31:59.009Z</time></trkpt><trkpt lat="43.904132" lon="12.1271745"><ele>351.4</ele><time>2026-04-06T14:32:00.01Z</time></trkpt><trkpt lat="43.9042048" lon="12.1271657"><ele>347.6</ele><time>2026-04-06T14:32:01.006Z</time></trkpt><trkpt lat="43.9042854" lon="12.1272099"><ele>343.8</ele><time>2026-04-06T14:32:02.007Z</time></trkpt><trkpt lat="43.9043726" lon="12.1273268"><ele>340.0</ele><time>2026-04-06T14:32:03.01Z</time></trkpt><trkpt lat="43.9044313" lon="12.1276689"><ele>336.5</ele><time>2026-04-06T14:32:04.008Z</time></trkpt><trkpt lat="43.9044813" lon="12.1279917"><ele>333.0</ele><time>2026-04-06T14:32:05.005Z</time></trkpt><trkpt lat="43.9045225" lon="12.1282953"><ele>333.0</ele><time>2026-04-06T14:32:06.008Z</time></trkpt><trkpt lat="43.9045689" lon="12.1285629"><ele>333.0</ele><time>2026-04-06T14:32:07.007Z</time></trkpt><trkpt lat="43.9046224" lon="12.1288019"><ele>333.0</ele><time>2026-04-06T14:32:08.008Z</time></trkpt><trkpt lat="43.9046663" lon="12.1290264"><ele>334.3333333333333</ele><time>2026-04-06T14:32:09.007Z</time></trkpt><trkpt lat="43.9047177" lon="12.1292315"><ele>335.66666666666663</ele><time>2026-04-06T14:32:10.008Z</time></trkpt><trkpt lat="43.9047842" lon="12.1294192"><ele>337.0</ele><time>2026-04-06T14:32:11.008Z</time></trkpt><trkpt lat="43.9048708" lon="12.1295844"><ele>337.0</ele><time>2026-04-06T14:32:12.008Z</time></trkpt><trkpt lat="43.9049799" lon="12.1297222"><ele>337.0</ele><time>2026-04-06T14:32:13.006Z</time></trkpt><trkpt lat="43.9051044" lon="12.1298345"><ele>337.0</ele><time>2026-04-06T14:32:14.008Z</time></trkpt><trkpt lat="43.9052251" lon="12.1299154"><ele>337.0</ele><time>2026-04-06T14:32:15.007Z</time></trkpt><trkpt lat="43.9053544" lon="12.1299481"><ele>336.0</ele><time>2026-04-06T14:32:16.011Z</time></trkpt><trkpt lat="43.90549" lon="12.1299326"><ele>335.0</ele><time>2026-04-06T14:32:17.007Z</time></trkpt><trkpt lat="43.9056311" lon="12.1298746"><ele>334.0</ele><time>2026-04-06T14:32:18.007Z</time></trkpt><trkpt lat="43.9057608" lon="12.1298121"><ele>333.0</ele><time>2026-04-06T14:32:19.008Z</time></trkpt><trkpt lat="43.9058748" lon="12.1297785"><ele>326.5</ele><time>2026-04-06T14:32:20.006Z</time></trkpt><trkpt lat="43.9059867" lon="12.1297985"><ele>320.0</ele><time>2026-04-06T14:32:21.011Z</time></trkpt><trkpt lat="43.9060992" lon="12.1298839"><ele>313.5</ele><time>2026-04-06T14:32:22.006Z</time></trkpt><trkpt lat="43.9062204" lon="12.130033"><ele>307.0</ele><time>2026-04-06T14:32:23.009Z</time></trkpt><trkpt lat="43.9063458" lon="12.130225"><ele>307.0</ele><time>2026-04-06T14:32:24.008Z</time></trkpt><trkpt lat="43.9064678" lon="12.1304311"><ele>307.0</ele><time>2026-04-06T14:32:25.009Z</time></trkpt><trkpt lat="43.9065669" lon="12.1306144"><ele>307.0</ele><time>2026-04-06T14:32:26.008Z</time></trkpt><trkpt lat="43.9066445" lon="12.1307678"><ele>304.8333333333333</ele><time>2026-04-06T14:32:27.008Z</time></trkpt><trkpt lat="43.9067083" lon="12.1308858"><ele>302.66666666666663</ele><time>2026-04-06T14:32:28.009Z</time></trkpt><trkpt lat="43.9067637" lon="12.1309742"><ele>300.5</ele><time>2026-04-06T14:32:29.009Z</time></trkpt><trkpt lat="43.9068196" lon="12.1310326"><ele>298.3333333333333</ele><time>2026-04-06T14:32:30.007Z</time></trkpt><trkpt lat="43.9069023" lon="12.1309746"><ele>296.1666666666667</ele><time>2026-04-06T14:32:32.01Z</time></trkpt><trkpt lat="43.9068882" lon="12.1308637"><ele>294.0</ele><time>2026-04-06T14:32:33.008Z</time></trkpt><trkpt lat="43.9068489" lon="12.1307207"><ele>292.3333333333333</ele><time>2026-04-06T14:32:34.009Z</time></trkpt><trkpt lat="43.9067788" lon="12.1305232"><ele>290.66666666666663</ele><time>2026-04-06T14:32:35.008Z</time></trkpt><trkpt lat="43.9066822" lon="12.1302761"><ele>289.0</ele><time>2026-04-06T14:32:36.01Z</time></trkpt><trkpt lat="43.9065779" lon="12.130019"><ele>291.0</ele><time>2026-04-06T14:32:37.006Z</time></trkpt><trkpt lat="43.9064793" lon="12.1297623"><ele>293.0</ele><time>2026-04-06T14:32:38.009Z</time></trkpt><trkpt lat="43.9063856" lon="12.1295215"><ele>295.0</ele><time>2026-04-06T14:32:39.01Z</time></trkpt><trkpt lat="43.9063046" lon="12.1293158"><ele>295.0</ele><time>2026-04-06T14:32:40.005Z</time></trkpt><trkpt lat="43.90624" lon="12.1291493"><ele>295.0</ele><time>2026-04-06T14:32:41.006Z</time></trkpt><trkpt lat="43.9061931" lon="12.1290075"><ele>295.0</ele><time>2026-04-06T14:32:42.007Z</time></trkpt><trkpt lat="43.9061792" lon="12.1288735"><ele>295.0</ele><time>2026-04-06T14:32:43.006Z</time></trkpt><trkpt lat="43.906206" lon="12.1287516"><ele>295.0</ele><time>2026-04-06T14:32:44.009Z</time></trkpt><trkpt lat="43.9062598" lon="12.1286427"><ele>292.66666666666663</ele><time>2026-04-06T14:32:45.008Z</time></trkpt><trkpt lat="43.9063612" lon="12.1285467"><ele>290.3333333333333</ele><time>2026-04-06T14:32:46.01Z</time></trkpt><trkpt lat="43.9065043" lon="12.1284503"><ele>288.0</ele><time>2026-04-06T14:32:47.007Z</time></trkpt><trkpt lat="43.906704" lon="12.1283579"><ele>284.0</ele><time>2026-04-06T14:32:48.008Z</time></trkpt><trkpt lat="43.9069269" lon="12.1282647"><ele>280.0</ele><time>2026-04-06T14:32:49.006Z</time></trkpt><trkpt lat="43.9071503" lon="12.1281756"><ele>279.66666666666663</ele><time>2026-04-06T14:32:50.006Z</time></trkpt><trkpt lat="43.9073528" lon="12.1280942"><ele>279.3333333333333</ele><time>2026-04-06T14:32:51.011Z</time></trkpt><trkpt lat="43.9075285" lon="12.1280272"><ele>279.0</ele><time>2026-04-06T14:32:52.011Z</time></trkpt><trkpt lat="43.9076888" lon="12.1279649"><ele>278.0</ele><time>2026-04-06T14:32:53.008Z</time></trkpt><trkpt lat="43.9078439" lon="12.1279045"><ele>277.0</ele><time>2026-04-06T14:32:54.009Z</time></trkpt><trkpt lat="43.9079923" lon="12.1278503"><ele>276.0</ele><time>2026-04-06T14:32:55.008Z</time></trkpt><trkpt lat="43.9081319" lon="12.1277935"><ele>276.0</ele><time>2026-04-06T14:32:56.007Z</time></trkpt><trkpt lat="43.908264" lon="12.1277386"><ele>276.0</ele><time>2026-04-06T14:32:57.01Z</time></trkpt><trkpt lat="43.9083895" lon="12.1276972"><ele>276.0</ele><time>2026-04-06T14:32:58.009Z</time></trkpt><trkpt lat="43.9085096" lon="12.1276911"><ele>276.0</ele><time>2026-04-06T14:32:59.01Z</time></trkpt><trkpt lat="43.9086219" lon="12.1277329"><ele>262.3333333333333</ele><time>2026-04-06T14:33:00.009Z</time></trkpt><trkpt lat="43.9087315" lon="12.1278298"><ele>248.66666666666666</ele><time>2026-04-06T14:33:01.005Z</time></trkpt><trkpt lat="43.9088439" lon="12.1279837"><ele>235.0</ele><time>2026-04-06T14:33:02.009Z</time></trkpt><trkpt lat="43.9089642" lon="12.1281922"><ele>240.33333333333331</ele><time>2026-04-06T14:33:03.009Z</time></trkpt><trkpt lat="43.9090997" lon="12.1284352"><ele>245.66666666666669</ele><time>2026-04-06T14:33:04.006Z</time></trkpt><trkpt lat="43.9092349" lon="12.1286769"><ele>251.0</ele><time>2026-04-06T14:33:05.006Z</time></trkpt><trkpt lat="43.9093607" lon="12.1289004"><ele>246.33333333333334</ele><time>2026-04-06T14:33:06.009Z</time></trkpt><trkpt lat="43.9094739" lon="12.1291021"><ele>241.66666666666669</ele><time>2026-04-06T14:33:07.007Z</time></trkpt><trkpt lat="43.9095767" lon="12.1292815"><ele>237.0</ele><time>2026-04-06T14:33:08.008Z</time></trkpt><trkpt lat="43.9096787" lon="12.1294366"><ele>237.0</ele><time>2026-04-06T14:33:09.008Z</time></trkpt><trkpt lat="43.9097934" lon="12.1295677"><ele>237.0</ele><time>2026-04-06T14:33:10.009Z</time></trkpt><trkpt lat="43.9099398" lon="12.129676"><ele>237.0</ele><time>2026-04-06T14:33:11.007Z</time></trkpt><trkpt lat="43.9101197" lon="12.1297756"><ele>236.33333333333331</ele><time>2026-04-06T14:33:12.007Z</time></trkpt><trkpt lat="43.9103046" lon="12.1298676"><ele>235.66666666666666</ele><time>2026-04-06T14:33:13.007Z</time></trkpt><trkpt lat="43.9104836" lon="12.1299545"><ele>235.0</ele><time>2026-04-06T14:33:14.006Z</time></trkpt><trkpt lat="43.9106495" lon="12.1300327"><ele>235.0</ele><time>2026-04-06T14:33:15.006Z</time></trkpt><trkpt lat="43.9108002" lon="12.1301015"><ele>235.0</ele><time>2026-04-06T14:33:16.007Z</time></trkpt><trkpt lat="43.91092" lon="12.1301617"><ele>235.0</ele><time>2026-04-06T14:33:17.008Z</time></trkpt><trkpt lat="43.9110128" lon="12.1302303"><ele>235.0</ele><time>2026-04-06T14:33:18.008Z</time></trkpt><trkpt lat="43.9110789" lon="12.1303233"><ele>234.0</ele><time>2026-04-06T14:33:19.008Z</time></trkpt><trkpt lat="43.9111274" lon="12.1304577"><ele>233.0</ele><time>2026-04-06T14:33:20.01Z</time></trkpt><trkpt lat="43.9111675" lon="12.1306376"><ele>232.0</ele><time>2026-04-06T14:33:21.011Z</time></trkpt><trkpt lat="43.9111866" lon="12.1308235"><ele>231.0</ele><time>2026-04-06T14:33:22.007Z</time></trkpt><trkpt lat="43.9111942" lon="12.1309808"><ele>231.0</ele><time>2026-04-06T14:33:23.008Z</time></trkpt><trkpt lat="43.9112064" lon="12.1310977"><ele>231.0</ele><time>2026-04-06T14:33:24.006Z</time></trkpt><trkpt lat="43.9112365" lon="12.1311905"><ele>231.0</ele><time>2026-04-06T14:33:25.006Z</time></trkpt><trkpt lat="43.9112796" lon="12.1312722"><ele>231.0</ele><time>2026-04-06T14:33:26.006Z</time></trkpt><trkpt lat="43.911342" lon="12.1313559"><ele>231.0</ele><time>2026-04-06T14:33:27.013Z</time></trkpt><trkpt lat="43.9114" lon="12.1314441"><ele>231.0</ele><time>2026-04-06T14:33:28.007Z</time></trkpt><trkpt lat="43.9114487" lon="12.1315274"><ele>231.0</ele><time>2026-04-06T14:33:29.007Z</time></trkpt><trkpt lat="43.9114946" lon="12.1316024"><ele>231.00000000000003</ele><time>2026-04-06T14:33:30.009Z</time></trkpt><trkpt lat="43.911546" lon="12.1316551"><ele>231.00000000000003</ele><time>2026-04-06T14:33:31.007Z</time></trkpt><trkpt lat="43.9115671" lon="12.1314764"><ele>231.0</ele><time>2026-04-06T14:33:34.006Z</time></trkpt><trkpt lat="43.9115274" lon="12.1313278"><ele>231.0</ele><time>2026-04-06T14:33:35.007Z</time></trkpt><trkpt lat="43.9114936" lon="12.1311786"><ele>231.0</ele><time>2026-04-06T14:33:36.007Z</time></trkpt><trkpt lat="43.9114832" lon="12.1310324"><ele>231.00000000000003</ele><time>2026-04-06T14:33:37.006Z</time></trkpt><trkpt lat="43.911495" lon="12.1308912"><ele>231.00000000000003</ele><time>2026-04-06T14:33:38.007Z</time></trkpt><trkpt lat="43.9115198" lon="12.1307602"><ele>231.0</ele><time>2026-04-06T14:33:39.005Z</time></trkpt><trkpt lat="43.9115345" lon="12.1306319"><ele>231.0</ele><time>2026-04-06T14:33:40.005Z</time></trkpt><trkpt lat="43.9115442" lon="12.1305159"><ele>227.66666666666666</ele><time>2026-04-06T14:33:41.009Z</time></trkpt><trkpt lat="43.9115331" lon="12.1304077"><ele>224.33333333333331</ele><time>2026-04-06T14:33:42.007Z</time></trkpt><trkpt lat="43.9115163" lon="12.1303096"><ele>221.0</ele><time>2026-04-06T14:33:43.007Z</time></trkpt><trkpt lat="43.9115048" lon="12.1302156"><ele>217.66666666666666</ele><time>2026-04-06T14:33:44.008Z</time></trkpt><trkpt lat="43.9115307" lon="12.1300739"><ele>214.33333333333331</ele><time>2026-04-06T14:33:46.006Z</time></trkpt><trkpt lat="43.9116135" lon="12.1300295"><ele>211.0</ele><time>2026-04-06T14:33:48.007Z</time></trkpt><trkpt lat="43.9117223" lon="12.1301294"><ele>209.0</ele><time>2026-04-06T14:33:50.007Z</time></trkpt><trkpt lat="43.9117843" lon="12.1302622"><ele>207.0</ele><time>2026-04-06T14:33:51.008Z</time></trkpt><trkpt lat="43.91183" lon="12.1305267"><ele>205.0</ele><time>2026-04-06T14:33:52.008Z</time></trkpt><trkpt lat="43.9118794" lon="12.1307253"><ele>205.0</ele><time>2026-04-06T14:33:53.006Z</time></trkpt><trkpt lat="43.9119587" lon="12.1308789"><ele>205.0</ele><time>2026-04-06T14:33:54.009Z</time></trkpt><trkpt lat="43.9120557" lon="12.1309892"><ele>205.0</ele><time>2026-04-06T14:33:55.01Z</time></trkpt><trkpt lat="43.9121526" lon="12.1311099"><ele>205.0</ele><time>2026-04-06T14:33:56.011Z</time></trkpt><trkpt lat="43.9122414" lon="12.1312635"><ele>205.0</ele><time>2026-04-06T14:33:57.008Z</time></trkpt><trkpt lat="43.912312" lon="12.1314452"><ele>205.0</ele><time>2026-04-06T14:33:58.01Z</time></trkpt><trkpt lat="43.9123463" lon="12.1316635"><ele>205.0</ele><time>2026-04-06T14:33:59.008Z</time></trkpt><trkpt lat="43.9123668" lon="12.1318849"><ele>206.0</ele><time>2026-04-06T14:34:00.008Z</time></trkpt><trkpt lat="43.9123895" lon="12.1320952"><ele>207.0</ele><time>2026-04-06T14:34:01.01Z</time></trkpt><trkpt lat="43.9124016" lon="12.1323004"><ele>208.0</ele><time>2026-04-06T14:34:02.008Z</time></trkpt><trkpt lat="43.9123846" lon="12.1325072"><ele>206.5</ele><time>2026-04-06T14:34:03.01Z</time></trkpt><trkpt lat="43.9123357" lon="12.132714"><ele>205.0</ele><time>2026-04-06T14:34:04.007Z</time></trkpt><trkpt lat="43.9122864" lon="12.1328977"><ele>203.5</ele><time>2026-04-06T14:34:05.007Z</time></trkpt><trkpt lat="43.9122606" lon="12.1330507"><ele>202.0</ele><time>2026-04-06T14:34:06.008Z</time></trkpt><trkpt lat="43.91227" lon="12.1331811"><ele>202.25</ele><time>2026-04-06T14:34:07.007Z</time></trkpt><trkpt lat="43.9123271" lon="12.1332919"><ele>202.5</ele><time>2026-04-06T14:34:08.007Z</time></trkpt><trkpt lat="43.9124032" lon="12.1333961"><ele>202.75</ele><time>2026-04-06T14:34:09.007Z</time></trkpt><trkpt lat="43.912512" lon="12.1334981"><ele>203.0</ele><time>2026-04-06T14:34:10.013Z</time></trkpt><trkpt lat="43.9126897" lon="12.133623"><ele>203.0</ele><time>2026-04-06T14:34:11.008Z</time></trkpt><trkpt lat="43.9129102" lon="12.1337811"><ele>203.0</ele><time>2026-04-06T14:34:12.007Z</time></trkpt><trkpt lat="43.9131393" lon="12.1339695"><ele>200.5</ele><time>2026-04-06T14:34:13.009Z</time></trkpt><trkpt lat="43.9133463" lon="12.1341645"><ele>198.0</ele><time>2026-04-06T14:34:14.007Z</time></trkpt><trkpt lat="43.9135326" lon="12.1343478"><ele>206.33333333333331</ele><time>2026-04-06T14:34:15.012Z</time></trkpt><trkpt lat="43.9136918" lon="12.1345077"><ele>214.66666666666666</ele><time>2026-04-06T14:34:16.011Z</time></trkpt><trkpt lat="43.9138158" lon="12.1346357"><ele>223.0</ele><time>2026-04-06T14:34:17.007Z</time></trkpt><trkpt lat="43.913916" lon="12.1347359"><ele>222.99999999999997</ele><time>2026-04-06T14:34:18.007Z</time></trkpt><trkpt lat="43.913994" lon="12.1347975"><ele>223.0</ele><time>2026-04-06T14:34:19.01Z</time></trkpt><trkpt lat="43.9140576" lon="12.1348118"><ele>223.0</ele><time>2026-04-06T14:34:20.007Z</time></trkpt><trkpt lat="43.9141282" lon="12.134694"><ele>223.0</ele><time>2026-04-06T14:34:22.009Z</time></trkpt><trkpt lat="43.9140961" lon="12.1346032"><ele>222.99999999999997</ele><time>2026-04-06T14:34:23.008Z</time></trkpt><trkpt lat="43.9140423" lon="12.1345116"><ele>223.0</ele><time>2026-04-06T14:34:24.008Z</time></trkpt><trkpt lat="43.9139345" lon="12.1343828"><ele>223.0</ele><time>2026-04-06T14:34:25.012Z</time></trkpt><trkpt lat="43.9138121" lon="12.1342233"><ele>223.0</ele><time>2026-04-06T14:34:26.007Z</time></trkpt><trkpt lat="43.9137082" lon="12.1340543"><ele>223.0</ele><time>2026-04-06T14:34:27.008Z</time></trkpt><trkpt lat="43.9136408" lon="12.1339032"><ele>223.75</ele><time>2026-04-06T14:34:28.009Z</time></trkpt><trkpt lat="43.9136161" lon="12.1337695"><ele>224.5</ele><time>2026-04-06T14:34:29.009Z</time></trkpt><trkpt lat="43.9136285" lon="12.1336278"><ele>225.25</ele><time>2026-04-06T14:34:30.009Z</time></trkpt><trkpt lat="43.9136725" lon="12.1334656"><ele>226.0</ele><time>2026-04-06T14:34:31.008Z</time></trkpt><trkpt lat="43.9137134" lon="12.1333001"><ele>225.8</ele><time>2026-04-06T14:34:32.007Z</time></trkpt><trkpt lat="43.9137294" lon="12.1331433"><ele>225.60000000000002</ele><time>2026-04-06T14:34:33.008Z</time></trkpt><trkpt lat="43.9137199" lon="12.1329883"><ele>225.4</ele><time>2026-04-06T14:34:34.008Z</time></trkpt><trkpt lat="43.913706" lon="12.1328316"><ele>225.2</ele><time>2026-04-06T14:34:35.008Z</time></trkpt><trkpt lat="43.9137015" lon="12.1326814"><ele>225.0</ele><time>2026-04-06T14:34:36.008Z</time></trkpt><trkpt lat="43.9137164" lon="12.1325427"><ele>225.0</ele><time>2026-04-06T14:34:37.012Z</time></trkpt><trkpt lat="43.9137503" lon="12.13242"><ele>225.0</ele><time>2026-04-06T14:34:38.009Z</time></trkpt><trkpt lat="43.9137962" lon="12.1323216"><ele>225.0</ele><time>2026-04-06T14:34:39.009Z</time></trkpt><trkpt lat="43.9138464" lon="12.1322322"><ele>225.0</ele><time>2026-04-06T14:34:40.01Z</time></trkpt><trkpt lat="43.9138976" lon="12.1321518"><ele>225.0</ele><time>2026-04-06T14:34:41.009Z</time></trkpt><trkpt lat="43.913952" lon="12.1320916"><ele>225.0</ele><time>2026-04-06T14:34:42.01Z</time></trkpt><trkpt lat="43.9140655" lon="12.1320466"><ele>225.00000000000003</ele><time>2026-04-06T14:34:44.009Z</time></trkpt><trkpt lat="43.9141283" lon="12.1320656"><ele>225.0</ele><time>2026-04-06T14:34:45.008Z</time></trkpt><trkpt lat="43.914185" lon="12.1321055"><ele>225.00000000000003</ele><time>2026-04-06T14:34:46.007Z</time></trkpt><trkpt lat="43.9142316" lon="12.1321707"><ele>225.00000000000003</ele><time>2026-04-06T14:34:47.009Z</time></trkpt><trkpt lat="43.9142533" lon="12.1322662"><ele>225.0</ele><time>2026-04-06T14:34:48.008Z</time></trkpt><trkpt lat="43.9142609" lon="12.1323561"><ele>225.00000000000003</ele><time>2026-04-06T14:34:49.009Z</time></trkpt><trkpt lat="43.9142744" lon="12.1324735"><ele>225.00000000000003</ele><time>2026-04-06T14:34:51.01Z</time></trkpt><trkpt lat="43.914303" lon="12.1325622"><ele>234.5</ele><time>2026-04-06T14:34:54.008Z</time></trkpt><trkpt lat="43.9143804" lon="12.1324432"><ele>244.0</ele><time>2026-04-06T14:35:04.071Z</time></trkpt><trkpt lat="43.914385" lon="12.1322163"><ele>253.5</ele><time>2026-04-06T14:35:05.006Z</time></trkpt><trkpt lat="43.9143927" lon="12.1320557"><ele>263.0</ele><time>2026-04-06T14:35:06.008Z</time></trkpt><trkpt lat="43.9144017" lon="12.1318283"><ele>264.0</ele><time>2026-04-06T14:35:07.01Z</time></trkpt><trkpt lat="43.9144033" lon="12.1316167"><ele>265.0</ele><time>2026-04-06T14:35:08.01Z</time></trkpt><trkpt lat="43.914405" lon="12.131365"><ele>266.0</ele><time>2026-04-06T14:35:09.006Z</time></trkpt><trkpt lat="43.9144033" lon="12.1310833"><ele>268.6666666666667</ele><time>2026-04-06T14:35:10.009Z</time></trkpt><trkpt lat="43.9144017" lon="12.1307783"><ele>271.3333333333333</ele><time>2026-04-06T14:35:11.006Z</time></trkpt><trkpt lat="43.9144017" lon="12.1304817"><ele>274.0</ele><time>2026-04-06T14:35:12.008Z</time></trkpt><trkpt lat="43.9144" lon="12.130215"><ele>276.0</ele><time>2026-04-06T14:35:13.009Z</time></trkpt><trkpt lat="43.9143917" lon="12.129985"><ele>278.0</ele><time>2026-04-06T14:35:14.009Z</time></trkpt><trkpt lat="43.9143683" lon="12.1297817"><ele>280.0</ele><time>2026-04-06T14:35:15.01Z</time></trkpt><trkpt lat="43.9143183" lon="12.1295933"><ele>284.3333333333333</ele><time>2026-04-06T14:35:16.007Z</time></trkpt><trkpt lat="43.9142467" lon="12.129395"><ele>288.6666666666667</ele><time>2026-04-06T14:35:17.011Z</time></trkpt><trkpt lat="43.9141667" lon="12.1291917"><ele>293.0</ele><time>2026-04-06T14:35:18.01Z</time></trkpt><trkpt lat="43.914085" lon="12.1289983"><ele>282.6666666666667</ele><time>2026-04-06T14:35:19.011Z</time></trkpt><trkpt lat="43.9139933" lon="12.1288233"><ele>272.3333333333333</ele><time>2026-04-06T14:35:20.006Z</time></trkpt><trkpt lat="43.9138817" lon="12.12866"><ele>262.0</ele><time>2026-04-06T14:35:21.014Z</time></trkpt><trkpt lat="43.913745" lon="12.128495"><ele>262.0</ele><time>2026-04-06T14:35:22.008Z</time></trkpt><trkpt lat="43.9136117" lon="12.128315"><ele>262.0</ele><time>2026-04-06T14:35:23.006Z</time></trkpt><trkpt lat="43.91348" lon="12.1281233"><ele>262.0</ele><time>2026-04-06T14:35:24.006Z</time></trkpt><trkpt lat="43.9133533" lon="12.12794"><ele>258.66666666666663</ele><time>2026-04-06T14:35:25.009Z</time></trkpt><trkpt lat="43.9132317" lon="12.127775"><ele>255.33333333333331</ele><time>2026-04-06T14:35:26.009Z</time></trkpt><trkpt lat="43.9131117" lon="12.1276233"><ele>252.0</ele><time>2026-04-06T14:35:27.01Z</time></trkpt><trkpt lat="43.912995" lon="12.1274717"><ele>257.6666666666667</ele><time>2026-04-06T14:35:28.007Z</time></trkpt><trkpt lat="43.9128867" lon="12.1273117"><ele>263.33333333333337</ele><time>2026-04-06T14:35:29.011Z</time></trkpt><trkpt lat="43.912785" lon="12.1271433"><ele>269.0</ele><time>2026-04-06T14:35:30.009Z</time></trkpt><trkpt lat="43.9126883" lon="12.1269683"><ele>269.0</ele><time>2026-04-06T14:35:31.009Z</time></trkpt><trkpt lat="43.9126" lon="12.1267833"><ele>269.0</ele><time>2026-04-06T14:35:32.007Z</time></trkpt><trkpt lat="43.9125117" lon="12.12659"><ele>269.0</ele><time>2026-04-06T14:35:33.01Z</time></trkpt><trkpt lat="43.9124317" lon="12.1263933"><ele>264.0</ele><time>2026-04-06T14:35:34.007Z</time></trkpt><trkpt lat="43.9123633" lon="12.1262"><ele>259.0</ele><time>2026-04-06T14:35:35.009Z</time></trkpt><trkpt lat="43.912315" lon="12.126015"><ele>254.0</ele><time>2026-04-06T14:35:36.009Z</time></trkpt><trkpt lat="43.9122933" lon="12.1258233"><ele>249.0</ele><time>2026-04-06T14:35:37.009Z</time></trkpt><trkpt lat="43.912295" lon="12.125625"><ele>249.0</ele><time>2026-04-06T14:35:38.007Z</time></trkpt><trkpt lat="43.9123267" lon="12.12542"><ele>249.0</ele><time>2026-04-06T14:35:39.01Z</time></trkpt><trkpt lat="43.9123733" lon="12.1252083"><ele>249.0</ele><time>2026-04-06T14:35:40.01Z</time></trkpt><trkpt lat="43.91244" lon="12.125"><ele>250.0</ele><time>2026-04-06T14:35:41.009Z</time></trkpt><trkpt lat="43.9125017" lon="12.12481"><ele>251.0</ele><time>2026-04-06T14:35:42.01Z</time></trkpt><trkpt lat="43.912545" lon="12.1246233"><ele>252.0</ele><time>2026-04-06T14:35:43.006Z</time></trkpt><trkpt lat="43.9125617" lon="12.1244333"><ele>253.0</ele><time>2026-04-06T14:35:44.009Z</time></trkpt><trkpt lat="43.9125517" lon="12.1242583"><ele>253.0</ele><time>2026-04-06T14:35:45.01Z</time></trkpt><trkpt lat="43.9125083" lon="12.1241083"><ele>253.0</ele><time>2026-04-06T14:35:46.009Z</time></trkpt><trkpt lat="43.912435" lon="12.1240083"><ele>253.0</ele><time>2026-04-06T14:35:47.011Z</time></trkpt><trkpt lat="43.91234" lon="12.1239667"><ele>253.0</ele><time>2026-04-06T14:35:48.006Z</time></trkpt><trkpt lat="43.9122383" lon="12.1239733"><ele>253.0</ele><time>2026-04-06T14:35:49.007Z</time></trkpt><trkpt lat="43.912135" lon="12.1240233"><ele>253.0</ele><time>2026-04-06T14:35:50.007Z</time></trkpt><trkpt lat="43.9120267" lon="12.1240683"><ele>253.0</ele><time>2026-04-06T14:35:51.008Z</time></trkpt><trkpt lat="43.9119183" lon="12.1240683"><ele>253.0</ele><time>2026-04-06T14:35:52.009Z</time></trkpt><trkpt lat="43.911805" lon="12.12401"><ele>253.0</ele><time>2026-04-06T14:35:53.006Z</time></trkpt><trkpt lat="43.91169" lon="12.1238983"><ele>254.66666666666666</ele><time>2026-04-06T14:35:54.007Z</time></trkpt><trkpt lat="43.9115733" lon="12.123735"><ele>256.3333333333333</ele><time>2026-04-06T14:35:55.006Z</time></trkpt><trkpt lat="43.9114633" lon="12.1235483"><ele>258.0</ele><time>2026-04-06T14:35:56.007Z</time></trkpt><trkpt lat="43.9113583" lon="12.1233583"><ele>259.6666666666667</ele><time>2026-04-06T14:35:57.008Z</time></trkpt><trkpt lat="43.9112667" lon="12.12318"><ele>261.33333333333337</ele><time>2026-04-06T14:35:58.007Z</time></trkpt><trkpt lat="43.9111867" lon="12.1230083"><ele>263.0</ele><time>2026-04-06T14:35:59.006Z</time></trkpt><trkpt lat="43.9111067" lon="12.122835"><ele>263.0</ele><time>2026-04-06T14:36:00.012Z</time></trkpt><trkpt lat="43.9110233" lon="12.1226583"><ele>263.0</ele><time>2026-04-06T14:36:01.008Z</time></trkpt><trkpt lat="43.9109267" lon="12.122465"><ele>263.0</ele><time>2026-04-06T14:36:02.009Z</time></trkpt><trkpt lat="43.9108017" lon="12.1222533"><ele>260.6666666666667</ele><time>2026-04-06T14:36:03.006Z</time></trkpt><trkpt lat="43.9106567" lon="12.1220383"><ele>258.3333333333333</ele><time>2026-04-06T14:36:04.007Z</time></trkpt><trkpt lat="43.9104983" lon="12.121825"><ele>256.0</ele><time>2026-04-06T14:36:05.008Z</time></trkpt><trkpt lat="43.9103417" lon="12.1216233"><ele>256.3333333333333</ele><time>2026-04-06T14:36:06.011Z</time></trkpt><trkpt lat="43.9101917" lon="12.1214367"><ele>256.6666666666667</ele><time>2026-04-06T14:36:07.008Z</time></trkpt><trkpt lat="43.910055" lon="12.121255"><ele>257.0</ele><time>2026-04-06T14:36:08.008Z</time></trkpt><trkpt lat="43.9099183" lon="12.1210583"><ele>257.0</ele><time>2026-04-06T14:36:09.007Z</time></trkpt><trkpt lat="43.9097933" lon="12.1208317"><ele>257.0</ele><time>2026-04-06T14:36:10.009Z</time></trkpt><trkpt lat="43.9096783" lon="12.1205767"><ele>257.0</ele><time>2026-04-06T14:36:11.193Z</time></trkpt><trkpt lat="43.909455" lon="12.1200933"><ele>258.33333333333337</ele><time>2026-04-06T14:36:13.009Z</time></trkpt><trkpt lat="43.9093483" lon="12.1198733"><ele>259.6666666666667</ele><time>2026-04-06T14:36:14.006Z</time></trkpt><trkpt lat="43.9092417" lon="12.1196567"><ele>261.0</ele><time>2026-04-06T14:36:15.01Z</time></trkpt><trkpt lat="43.9091367" lon="12.11944"><ele>261.0</ele><time>2026-04-06T14:36:16.009Z</time></trkpt><trkpt lat="43.909035" lon="12.119225"><ele>261.0</ele><time>2026-04-06T14:36:17.006Z</time></trkpt><trkpt lat="43.90893" lon="12.1190133"><ele>261.0</ele><time>2026-04-06T14:36:18.007Z</time></trkpt><trkpt lat="43.9088283" lon="12.11881"><ele>264.0</ele><time>2026-04-06T14:36:19.008Z</time></trkpt><trkpt lat="43.9087267" lon="12.1186133"><ele>267.0</ele><time>2026-04-06T14:36:20.008Z</time></trkpt><trkpt lat="43.9086317" lon="12.1184283"><ele>270.0</ele><time>2026-04-06T14:36:21.009Z</time></trkpt><trkpt lat="43.9085517" lon="12.1182633"><ele>270.6</ele><time>2026-04-06T14:36:22.008Z</time></trkpt><trkpt lat="43.9084883" lon="12.1181183"><ele>271.2</ele><time>2026-04-06T14:36:23.008Z</time></trkpt><trkpt lat="43.9084483" lon="12.1179833"><ele>271.8</ele><time>2026-04-06T14:36:24.008Z</time></trkpt><trkpt lat="43.9084467" lon="12.117865"><ele>272.4</ele><time>2026-04-06T14:36:25.011Z</time></trkpt><trkpt lat="43.9084767" lon="12.1177567"><ele>273.0</ele><time>2026-04-06T14:36:26.008Z</time></trkpt><trkpt lat="43.9085533" lon="12.1176333"><ele>273.0</ele><time>2026-04-06T14:36:27.008Z</time></trkpt><trkpt lat="43.9086633" lon="12.1174867"><ele>273.0</ele><time>2026-04-06T14:36:28.007Z</time></trkpt><trkpt lat="43.9087683" lon="12.1173433"><ele>273.0</ele><time>2026-04-06T14:36:29.007Z</time></trkpt><trkpt lat="43.908855" lon="12.1172133"><ele>273.0</ele><time>2026-04-06T14:36:30.008Z</time></trkpt><trkpt lat="43.9089133" lon="12.1170883"><ele>271.4</ele><time>2026-04-06T14:36:31.01Z</time></trkpt><trkpt lat="43.9089367" lon="12.11696"><ele>269.8</ele><time>2026-04-06T14:36:32.006Z</time></trkpt><trkpt lat="43.9089217" lon="12.11683"><ele>268.2</ele><time>2026-04-06T14:36:33.008Z</time></trkpt><trkpt lat="43.90888" lon="12.1167033"><ele>266.6</ele><time>2026-04-06T14:36:34.005Z</time></trkpt><trkpt lat="43.9088267" lon="12.1165933"><ele>265.0</ele><time>2026-04-06T14:36:35.006Z</time></trkpt><trkpt lat="43.9087517" lon="12.1165267"><ele>263.0</ele><time>2026-04-06T14:36:36.005Z</time></trkpt><trkpt lat="43.9086533" lon="12.1165083"><ele>261.0</ele><time>2026-04-06T14:36:37.006Z</time></trkpt><trkpt lat="43.9085367" lon="12.1165417"><ele>259.0</ele><time>2026-04-06T14:36:38.005Z</time></trkpt><trkpt lat="43.9083967" lon="12.11662"><ele>257.0</ele><time>2026-04-06T14:36:39.007Z</time></trkpt><trkpt lat="43.908255" lon="12.1166983"><ele>257.0</ele><time>2026-04-06T14:36:40.006Z</time></trkpt><trkpt lat="43.9081267" lon="12.1167583"><ele>257.0</ele><time>2026-04-06T14:36:41.006Z</time></trkpt><trkpt lat="43.9080167" lon="12.116785"><ele>257.0</ele><time>2026-04-06T14:36:42.006Z</time></trkpt><trkpt lat="43.9079233" lon="12.1167667"><ele>257.0</ele><time>2026-04-06T14:36:43.006Z</time></trkpt><trkpt lat="43.907845" lon="12.1167"><ele>257.0</ele><time>2026-04-06T14:36:44.007Z</time></trkpt><trkpt lat="43.9077783" lon="12.1165833"><ele>265.33333333333337</ele><time>2026-04-06T14:36:45.007Z</time></trkpt><trkpt lat="43.9077267" lon="12.116405"><ele>273.6666666666667</ele><time>2026-04-06T14:36:46.006Z</time></trkpt><trkpt lat="43.9076783" lon="12.116185"><ele>282.0</ele><time>2026-04-06T14:36:47.006Z</time></trkpt><trkpt lat="43.9076283" lon="12.1159433"><ele>276.3333333333333</ele><time>2026-04-06T14:36:48.006Z</time></trkpt><trkpt lat="43.9075733" lon="12.1157067"><ele>270.66666666666663</ele><time>2026-04-06T14:36:49.009Z</time></trkpt><trkpt lat="43.9075217" lon="12.11548"><ele>265.0</ele><time>2026-04-06T14:36:50.008Z</time></trkpt><trkpt lat="43.9074717" lon="12.115265"><ele>265.0</ele><time>2026-04-06T14:36:51.006Z</time></trkpt><trkpt lat="43.90741" lon="12.1150567"><ele>265.0</ele><time>2026-04-06T14:36:52.005Z</time></trkpt><trkpt lat="43.9073283" lon="12.114855"><ele>265.0</ele><time>2026-04-06T14:36:53.006Z</time></trkpt><trkpt lat="43.9072217" lon="12.1146567"><ele>268.66666666666663</ele><time>2026-04-06T14:36:54.007Z</time></trkpt><trkpt lat="43.9070967" lon="12.1144567"><ele>272.3333333333333</ele><time>2026-04-06T14:36:55.006Z</time></trkpt><trkpt lat="43.9069617" lon="12.114255"><ele>276.0</ele><time>2026-04-06T14:36:56.007Z</time></trkpt><trkpt lat="43.9068267" lon="12.1140533"><ele>277.0</ele><time>2026-04-06T14:36:57.007Z</time></trkpt><trkpt lat="43.9066933" lon="12.113855"><ele>278.0</ele><time>2026-04-06T14:36:58.006Z</time></trkpt><trkpt lat="43.9065617" lon="12.1136717"><ele>279.0</ele><time>2026-04-06T14:36:59.006Z</time></trkpt><trkpt lat="43.906425" lon="12.11351"><ele>279.0</ele><time>2026-04-06T14:37:00.007Z</time></trkpt><trkpt lat="43.90627" lon="12.113385"><ele>279.0</ele><time>2026-04-06T14:37:01.008Z</time></trkpt><trkpt lat="43.906085" lon="12.1133"><ele>279.0</ele><time>2026-04-06T14:37:02.006Z</time></trkpt><trkpt lat="43.9058883" lon="12.113235"><ele>282.3333333333333</ele><time>2026-04-06T14:37:03.005Z</time></trkpt><trkpt lat="43.9056817" lon="12.1131767"><ele>285.66666666666663</ele><time>2026-04-06T14:37:04.01Z</time></trkpt><trkpt lat="43.9054583" lon="12.113125"><ele>289.0</ele><time>2026-04-06T14:37:05.006Z</time></trkpt><trkpt lat="43.90523" lon="12.1130767"><ele>284.3333333333333</ele><time>2026-04-06T14:37:06.01Z</time></trkpt><trkpt lat="43.90501" lon="12.1130367"><ele>279.6666666666667</ele><time>2026-04-06T14:37:07.006Z</time></trkpt><trkpt lat="43.9048183" lon="12.1129883"><ele>275.0</ele><time>2026-04-06T14:37:08.008Z</time></trkpt><trkpt lat="43.9046383" lon="12.1129517"><ele>275.0</ele><time>2026-04-06T14:37:09.007Z</time></trkpt><trkpt lat="43.904465" lon="12.11293"><ele>275.0</ele><time>2026-04-06T14:37:10.005Z</time></trkpt><trkpt lat="43.9042917" lon="12.1129367"><ele>275.0</ele><time>2026-04-06T14:37:11.008Z</time></trkpt><trkpt lat="43.9041167" lon="12.1129533"><ele>275.0</ele><time>2026-04-06T14:37:12.006Z</time></trkpt><trkpt lat="43.90396" lon="12.1129917"><ele>275.0</ele><time>2026-04-06T14:37:13.008Z</time></trkpt><trkpt lat="43.9038267" lon="12.1130283"><ele>275.0</ele><time>2026-04-06T14:37:14.008Z</time></trkpt><trkpt lat="43.9037183" lon="12.1130683"><ele>275.0</ele><time>2026-04-06T14:37:15.01Z</time></trkpt><trkpt lat="43.90363" lon="12.113115"><ele>275.0</ele><time>2026-04-06T14:37:16.006Z</time></trkpt><trkpt lat="43.9035617" lon="12.1131583"><ele>275.0</ele><time>2026-04-06T14:37:17.005Z</time></trkpt><trkpt lat="43.9034683" lon="12.1132233"><ele>275.0</ele><time>2026-04-06T14:37:19.007Z</time></trkpt><trkpt lat="43.903415" lon="12.113315"><ele>275.0</ele><time>2026-04-06T14:38:50.008Z</time></trkpt><trkpt lat="43.9033483" lon="12.113405"><ele>275.0</ele><time>2026-04-06T14:38:51.009Z</time></trkpt><trkpt lat="43.9031033" lon="12.113685"><ele>271.25</ele><time>2026-04-06T14:38:53.009Z</time></trkpt><trkpt lat="43.9029767" lon="12.1138233"><ele>267.5</ele><time>2026-04-06T14:38:54.008Z</time></trkpt><trkpt lat="43.9028617" lon="12.11394"><ele>263.75</ele><time>2026-04-06T14:38:55.009Z</time></trkpt><trkpt lat="43.9027533" lon="12.1140233"><ele>260.0</ele><time>2026-04-06T14:38:56.009Z</time></trkpt><trkpt lat="43.90265" lon="12.1140633"><ele>260.2</ele><time>2026-04-06T14:38:57.007Z</time></trkpt><trkpt lat="43.9025483" lon="12.1140733"><ele>260.4</ele><time>2026-04-06T14:38:58.007Z</time></trkpt><trkpt lat="43.9024533" lon="12.114055"><ele>260.6</ele><time>2026-04-06T14:38:59.008Z</time></trkpt><trkpt lat="43.902355" lon="12.1139933"><ele>260.8</ele><time>2026-04-06T14:39:00.009Z</time></trkpt><trkpt lat="43.902255" lon="12.1138933"><ele>261.0</ele><time>2026-04-06T14:39:01.009Z</time></trkpt><trkpt lat="43.90215" lon="12.1137517"><ele>264.0</ele><time>2026-04-06T14:39:02.008Z</time></trkpt><trkpt lat="43.9020483" lon="12.1135667"><ele>267.0</ele><time>2026-04-06T14:39:03.007Z</time></trkpt><trkpt lat="43.90194" lon="12.1133483"><ele>270.0</ele><time>2026-04-06T14:39:04.008Z</time></trkpt><trkpt lat="43.9018183" lon="12.113115"><ele>268.0</ele><time>2026-04-06T14:39:05.007Z</time></trkpt><trkpt lat="43.90171" lon="12.1128917"><ele>266.0</ele><time>2026-04-06T14:39:06.007Z</time></trkpt><trkpt lat="43.9016133" lon="12.1126867"><ele>264.0</ele><time>2026-04-06T14:39:07.009Z</time></trkpt><trkpt lat="43.9015167" lon="12.1125"><ele>265.25</ele><time>2026-04-06T14:39:08.009Z</time></trkpt><trkpt lat="43.9014333" lon="12.1123367"><ele>266.5</ele><time>2026-04-06T14:39:09.007Z</time></trkpt><trkpt lat="43.90137" lon="12.1121817"><ele>267.75</ele><time>2026-04-06T14:39:10.008Z</time></trkpt><trkpt lat="43.9013283" lon="12.1120283"><ele>269.0</ele><time>2026-04-06T14:39:11.007Z</time></trkpt><trkpt lat="43.9013233" lon="12.1118517"><ele>269.0</ele><time>2026-04-06T14:39:12.007Z</time></trkpt><trkpt lat="43.901345" lon="12.1116917"><ele>269.0</ele><time>2026-04-06T14:39:13.006Z</time></trkpt><trkpt lat="43.90139" lon="12.1115217"><ele>269.0</ele><time>2026-04-06T14:39:14.006Z</time></trkpt><trkpt lat="43.9014467" lon="12.1113583"><ele>269.0</ele><time>2026-04-06T14:39:15.009Z</time></trkpt><trkpt lat="43.9014917" lon="12.1112017"><ele>266.5</ele><time>2026-04-06T14:39:16.007Z</time></trkpt><trkpt lat="43.9015133" lon="12.11105"><ele>264.0</ele><time>2026-04-06T14:39:17.007Z</time></trkpt><trkpt lat="43.9015033" lon="12.1109067"><ele>261.5</ele><time>2026-04-06T14:39:18.008Z</time></trkpt><trkpt lat="43.9014583" lon="12.1107483"><ele>259.0</ele><time>2026-04-06T14:39:19.009Z</time></trkpt><trkpt lat="43.901395" lon="12.1105983"><ele>258.0</ele><time>2026-04-06T14:39:20.011Z</time></trkpt><trkpt lat="43.901335" lon="12.110465"><ele>257.0</ele><time>2026-04-06T14:39:21.009Z</time></trkpt><trkpt lat="43.9012617" lon="12.11034"><ele>255.99999999999997</ele><time>2026-04-06T14:39:22.007Z</time></trkpt><trkpt lat="43.90119" lon="12.11023"><ele>255.0</ele><time>2026-04-06T14:39:23.007Z</time></trkpt><trkpt lat="43.9011317" lon="12.1101267"><ele>254.0</ele><time>2026-04-06T14:39:24.01Z</time></trkpt><trkpt lat="43.901085" lon="12.1100317"><ele>254.00000000000003</ele><time>2026-04-06T14:39:25.007Z</time></trkpt><trkpt lat="43.9010567" lon="12.10994"><ele>254.0</ele><time>2026-04-06T14:39:26.008Z</time></trkpt><trkpt lat="43.9010667" lon="12.10985"><ele>254.0</ele><time>2026-04-06T14:39:27.009Z</time></trkpt><trkpt lat="43.901085" lon="12.10975"><ele>254.0</ele><time>2026-04-06T14:39:28.006Z</time></trkpt><trkpt lat="43.9011" lon="12.1096367"><ele>254.00000000000003</ele><time>2026-04-06T14:39:29.008Z</time></trkpt><trkpt lat="43.9010967" lon="12.1095217"><ele>254.0</ele><time>2026-04-06T14:39:30.009Z</time></trkpt><trkpt lat="43.90107" lon="12.1094133"><ele>254.16666666666669</ele><time>2026-04-06T14:39:31.009Z</time></trkpt><trkpt lat="43.90102" lon="12.109315"><ele>254.33333333333334</ele><time>2026-04-06T14:39:32.006Z</time></trkpt><trkpt lat="43.9009683" lon="12.1092217"><ele>254.5</ele><time>2026-04-06T14:39:33.012Z</time></trkpt><trkpt lat="43.90093" lon="12.1091183"><ele>254.66666666666669</ele><time>2026-04-06T14:39:34.01Z</time></trkpt><trkpt lat="43.9009117" lon="12.10902"><ele>254.83333333333334</ele><time>2026-04-06T14:39:35.005Z</time></trkpt><trkpt lat="43.90092" lon="12.1089133"><ele>255.0</ele><time>2026-04-06T14:39:36.008Z</time></trkpt><trkpt lat="43.900955" lon="12.108805"><ele>257.0</ele><time>2026-04-06T14:39:37.009Z</time></trkpt><trkpt lat="43.9010117" lon="12.1086883"><ele>259.0</ele><time>2026-04-06T14:39:38.01Z</time></trkpt><trkpt lat="43.901115" lon="12.1085233"><ele>261.0</ele><time>2026-04-06T14:39:39.009Z</time></trkpt><trkpt lat="43.9012233" lon="12.1083533"><ele>263.0</ele><time>2026-04-06T14:39:40.007Z</time></trkpt><trkpt lat="43.9013467" lon="12.1081783"><ele>265.0</ele><time>2026-04-06T14:39:41.006Z</time></trkpt><trkpt lat="43.9014867" lon="12.108"><ele>267.0</ele><time>2026-04-06T14:39:42.007Z</time></trkpt><trkpt lat="43.9016317" lon="12.1078367"><ele>269.0</ele><time>2026-04-06T14:39:43.011Z</time></trkpt><trkpt lat="43.9017667" lon="12.1077"><ele>269.0</ele><time>2026-04-06T14:39:44.006Z</time></trkpt><trkpt lat="43.9018883" lon="12.1075817"><ele>269.0</ele><time>2026-04-06T14:39:45.009Z</time></trkpt><trkpt lat="43.901995" lon="12.1074817"><ele>269.0</ele><time>2026-04-06T14:39:46.007Z</time></trkpt><trkpt lat="43.9020933" lon="12.10738"><ele>269.0</ele><time>2026-04-06T14:39:47.007Z</time></trkpt><trkpt lat="43.9021817" lon="12.1072667"><ele>276.4</ele><time>2026-04-06T14:39:48.008Z</time></trkpt><trkpt lat="43.9022683" lon="12.1071467"><ele>283.79999999999995</ele><time>2026-04-06T14:39:49.006Z</time></trkpt><trkpt lat="43.9023467" lon="12.1070267"><ele>291.20000000000005</ele><time>2026-04-06T14:39:50.006Z</time></trkpt><trkpt lat="43.9024083" lon="12.1069067"><ele>298.6</ele><time>2026-04-06T14:39:51.009Z</time></trkpt><trkpt lat="43.90246" lon="12.106785"><ele>306.0</ele><time>2026-04-06T14:39:52.006Z</time></trkpt><trkpt lat="43.9025183" lon="12.106665"><ele>309.0</ele><time>2026-04-06T14:39:53.007Z</time></trkpt><trkpt lat="43.9025817" lon="12.10656"><ele>312.0</ele><time>2026-04-06T14:39:54.01Z</time></trkpt><trkpt lat="43.9026617" lon="12.106465"><ele>315.0</ele><time>2026-04-06T14:39:55.006Z</time></trkpt><trkpt lat="43.90275" lon="12.106375"><ele>318.0</ele><time>2026-04-06T14:39:56.008Z</time></trkpt><trkpt lat="43.9028483" lon="12.1063067"><ele>321.0</ele><time>2026-04-06T14:39:57.009Z</time></trkpt><trkpt lat="43.902955" lon="12.10626"><ele>321.0</ele><time>2026-04-06T14:39:58.006Z</time></trkpt><trkpt lat="43.9030683" lon="12.1062183"><ele>321.0</ele><time>2026-04-06T14:39:59.007Z</time></trkpt><trkpt lat="43.9031783" lon="12.1061833"><ele>321.0</ele><time>2026-04-06T14:40:00.007Z</time></trkpt><trkpt lat="43.90328" lon="12.1061567"><ele>321.0</ele><time>2026-04-06T14:40:01.009Z</time></trkpt><trkpt lat="43.90337" lon="12.1061167"><ele>321.0</ele><time>2026-04-06T14:40:02.005Z</time></trkpt><trkpt lat="43.9034533" lon="12.1060683"><ele>316.40000000000003</ele><time>2026-04-06T14:40:03.006Z</time></trkpt><trkpt lat="43.9035317" lon="12.1059883"><ele>311.8</ele><time>2026-04-06T14:40:04.007Z</time></trkpt><trkpt lat="43.9036067" lon="12.1058867"><ele>307.20000000000005</ele><time>2026-04-06T14:40:05.008Z</time></trkpt><trkpt lat="43.90368" lon="12.1057733"><ele>302.6</ele><time>2026-04-06T14:40:06.007Z</time></trkpt><trkpt lat="43.9037617" lon="12.1056633"><ele>298.0</ele><time>2026-04-06T14:40:07.007Z</time></trkpt><trkpt lat="43.9038517" lon="12.1055683"><ele>304.4</ele><time>2026-04-06T14:40:08.007Z</time></trkpt><trkpt lat="43.903945" lon="12.1054917"><ele>310.8</ele><time>2026-04-06T14:40:09.011Z</time></trkpt><trkpt lat="43.9040483" lon="12.10546"><ele>317.2</ele><time>2026-04-06T14:40:10.007Z</time></trkpt><trkpt lat="43.9041533" lon="12.1054467"><ele>323.6</ele><time>2026-04-06T14:40:11.013Z</time></trkpt><trkpt lat="43.90426" lon="12.1054467"><ele>330.0</ele><time>2026-04-06T14:40:12.006Z</time></trkpt><trkpt lat="43.90437" lon="12.105445"><ele>330.0</ele><time>2026-04-06T14:40:13.006Z</time></trkpt><trkpt lat="43.9044733" lon="12.1054433"><ele>330.0</ele><time>2026-04-06T14:40:14.005Z</time></trkpt><trkpt lat="43.9045667" lon="12.1054317"><ele>330.0</ele><time>2026-04-06T14:40:15.009Z</time></trkpt><trkpt lat="43.90465" lon="12.10541"><ele>330.0</ele><time>2026-04-06T14:40:16.008Z</time></trkpt><trkpt lat="43.90473" lon="12.1053617"><ele>330.0</ele><time>2026-04-06T14:40:17.008Z</time></trkpt><trkpt lat="43.9048017" lon="12.1052967"><ele>330.0</ele><time>2026-04-06T14:40:18.01Z</time></trkpt><trkpt lat="43.904865" lon="12.1052067"><ele>330.0</ele><time>2026-04-06T14:40:19.01Z</time></trkpt><trkpt lat="43.9049283" lon="12.1051117"><ele>330.0</ele><time>2026-04-06T14:40:20.006Z</time></trkpt><trkpt lat="43.905" lon="12.1050233"><ele>330.0</ele><time>2026-04-06T14:40:21.007Z</time></trkpt><trkpt lat="43.9050817" lon="12.104935"><ele>330.0</ele><time>2026-04-06T14:40:22.008Z</time></trkpt><trkpt lat="43.9051683" lon="12.1048467"><ele>337.25</ele><time>2026-04-06T14:40:23.011Z</time></trkpt><trkpt lat="43.9052583" lon="12.1047683"><ele>344.5</ele><time>2026-04-06T14:40:24.008Z</time></trkpt><trkpt lat="43.9053517" lon="12.10471"><ele>351.75</ele><time>2026-04-06T14:40:25.007Z</time></trkpt><trkpt lat="43.90546" lon="12.1046467"><ele>359.0</ele><time>2026-04-06T14:40:26.007Z</time></trkpt><trkpt lat="43.9055817" lon="12.1046017"><ele>359.0</ele><time>2026-04-06T14:40:27.009Z</time></trkpt><trkpt lat="43.9057017" lon="12.1045817"><ele>359.0</ele><time>2026-04-06T14:40:28.005Z</time></trkpt><trkpt lat="43.905815" lon="12.1045633"><ele>359.0</ele><time>2026-04-06T14:40:29.006Z</time></trkpt><trkpt lat="43.90592" lon="12.1045317"><ele>359.0</ele><time>2026-04-06T14:40:30.009Z</time></trkpt><trkpt lat="43.906025" lon="12.1044833"><ele>357.79999999999995</ele><time>2026-04-06T14:40:31.006Z</time></trkpt><trkpt lat="43.9061283" lon="12.10444"><ele>356.59999999999997</ele><time>2026-04-06T14:40:32.011Z</time></trkpt><trkpt lat="43.9062317" lon="12.1044283"><ele>355.4</ele><time>2026-04-06T14:40:33.007Z</time></trkpt><trkpt lat="43.906335" lon="12.1044483"><ele>354.2</ele><time>2026-04-06T14:40:34.007Z</time></trkpt><trkpt lat="43.9064267" lon="12.104455"><ele>353.0</ele><time>2026-04-06T14:40:35.006Z</time></trkpt><trkpt lat="43.90651" lon="12.1044567"><ele>353.0</ele><time>2026-04-06T14:40:36.007Z</time></trkpt><trkpt lat="43.9065933" lon="12.1044283"><ele>353.0</ele><time>2026-04-06T14:40:37.005Z</time></trkpt><trkpt lat="43.9066583" lon="12.1043567"><ele>353.0</ele><time>2026-04-06T14:40:38.008Z</time></trkpt><trkpt lat="43.90673" lon="12.1042717"><ele>353.0</ele><time>2026-04-06T14:40:39.007Z</time></trkpt><trkpt lat="43.9068067" lon="12.1041783"><ele>353.0</ele><time>2026-04-06T14:40:40.006Z</time></trkpt><trkpt lat="43.9068967" lon="12.1040867"><ele>353.79999999999995</ele><time>2026-04-06T14:40:41.01Z</time></trkpt><trkpt lat="43.9069967" lon="12.1040283"><ele>354.6</ele><time>2026-04-06T14:40:42.007Z</time></trkpt><trkpt lat="43.9071033" lon="12.10399"><ele>355.4</ele><time>2026-04-06T14:40:43.008Z</time></trkpt><trkpt lat="43.9072017" lon="12.1039733"><ele>356.20000000000005</ele><time>2026-04-06T14:40:44.009Z</time></trkpt><trkpt lat="43.907285" lon="12.1039583"><ele>357.0</ele><time>2026-04-06T14:40:45.008Z</time></trkpt><trkpt lat="43.9073567" lon="12.1039317"><ele>357.0</ele><time>2026-04-06T14:40:46.006Z</time></trkpt><trkpt lat="43.907455" lon="12.1038383"><ele>357.0</ele><time>2026-04-06T14:40:48.008Z</time></trkpt><trkpt lat="43.9074767" lon="12.1037533"><ele>357.0</ele><time>2026-04-06T14:40:49.007Z</time></trkpt><trkpt lat="43.9074833" lon="12.1036483"><ele>357.0</ele><time>2026-04-06T14:40:50.006Z</time></trkpt><trkpt lat="43.907485" lon="12.10353"><ele>357.0</ele><time>2026-04-06T14:40:51.011Z</time></trkpt><trkpt lat="43.9074767" lon="12.1033833"><ele>359.75</ele><time>2026-04-06T14:40:52.007Z</time></trkpt><trkpt lat="43.90745" lon="12.103195"><ele>362.5</ele><time>2026-04-06T14:40:53.007Z</time></trkpt><trkpt lat="43.9074333" lon="12.1030283"><ele>365.25</ele><time>2026-04-06T14:40:54.006Z</time></trkpt><trkpt lat="43.9074233" lon="12.1028733"><ele>368.0</ele><time>2026-04-06T14:40:55.006Z</time></trkpt><trkpt lat="43.9074217" lon="12.1027167"><ele>368.0</ele><time>2026-04-06T14:40:56.007Z</time></trkpt><trkpt lat="43.90744" lon="12.102575"><ele>368.0</ele><time>2026-04-06T14:40:57.008Z</time></trkpt><trkpt lat="43.9074767" lon="12.1024483"><ele>368.0</ele><time>2026-04-06T14:40:58.008Z</time></trkpt><trkpt lat="43.9075233" lon="12.1023417"><ele>368.0</ele><time>2026-04-06T14:40:59.005Z</time></trkpt><trkpt lat="43.9075767" lon="12.1022567"><ele>368.0</ele><time>2026-04-06T14:41:00.007Z</time></trkpt><trkpt lat="43.9076317" lon="12.1022"><ele>368.0</ele><time>2026-04-06T14:41:01.007Z</time></trkpt><trkpt lat="43.9077517" lon="12.1021733"><ele>367.0</ele><time>2026-04-06T14:41:03.008Z</time></trkpt><trkpt lat="43.907845" lon="12.1022483"><ele>366.0</ele><time>2026-04-06T14:41:04.007Z</time></trkpt><trkpt lat="43.9079417" lon="12.1023333"><ele>365.0</ele><time>2026-04-06T14:41:05.006Z</time></trkpt><trkpt lat="43.90804" lon="12.1024383"><ele>364.0</ele><time>2026-04-06T14:41:06.007Z</time></trkpt><trkpt lat="43.908125" lon="12.1025633"><ele>364.0</ele><time>2026-04-06T14:41:07.008Z</time></trkpt><trkpt lat="43.908185" lon="12.1026867"><ele>364.0</ele><time>2026-04-06T14:41:08.006Z</time></trkpt><trkpt lat="43.9082383" lon="12.1027733"><ele>364.0</ele><time>2026-04-06T14:41:09.008Z</time></trkpt><trkpt lat="43.908295" lon="12.1028317"><ele>364.0</ele><time>2026-04-06T14:41:10.006Z</time></trkpt><trkpt lat="43.9083933" lon="12.1028283"><ele>364.0</ele><time>2026-04-06T14:41:12.009Z</time></trkpt><trkpt lat="43.9084683" lon="12.1027033"><ele>360.79999999999995</ele><time>2026-04-06T14:41:14.007Z</time></trkpt><trkpt lat="43.9084817" lon="12.1025833"><ele>357.59999999999997</ele><time>2026-04-06T14:41:15.007Z</time></trkpt><trkpt lat="43.908505" lon="12.102455"><ele>354.4</ele><time>2026-04-06T14:41:16.008Z</time></trkpt><trkpt lat="43.9085383" lon="12.1023033"><ele>351.2</ele><time>2026-04-06T14:41:17.006Z</time></trkpt><trkpt lat="43.9085733" lon="12.1021617"><ele>348.0</ele><time>2026-04-06T14:41:18.01Z</time></trkpt><trkpt lat="43.90862" lon="12.102055"><ele>355.5</ele><time>2026-04-06T14:41:19.008Z</time></trkpt><trkpt lat="43.90867" lon="12.1019617"><ele>363.0</ele><time>2026-04-06T14:41:20.007Z</time></trkpt><trkpt lat="43.9087267" lon="12.101885"><ele>370.5</ele><time>2026-04-06T14:41:21.006Z</time></trkpt><trkpt lat="43.90879" lon="12.1018267"><ele>378.0</ele><time>2026-04-06T14:41:22.009Z</time></trkpt><trkpt lat="43.9088717" lon="12.1018267"><ele>385.5</ele><time>2026-04-06T14:41:23.006Z</time></trkpt><trkpt lat="43.9089583" lon="12.1019117"><ele>393.0</ele><time>2026-04-06T14:41:24.007Z</time></trkpt><trkpt lat="43.909065" lon="12.1020283"><ele>393.0</ele><time>2026-04-06T14:41:25.008Z</time></trkpt><trkpt lat="43.90915" lon="12.1020617"><ele>393.0</ele><time>2026-04-06T14:41:26.007Z</time></trkpt><trkpt lat="43.90922" lon="12.1020517"><ele>393.0</ele><time>2026-04-06T14:41:27.007Z</time></trkpt><trkpt lat="43.9092833" lon="12.1019983"><ele>393.0</ele><time>2026-04-06T14:41:28.005Z</time></trkpt><trkpt lat="43.909355" lon="12.10192"><ele>393.0</ele><time>2026-04-06T14:41:29.007Z</time></trkpt><trkpt lat="43.9094433" lon="12.1018267"><ele>393.0</ele><time>2026-04-06T14:41:30.008Z</time></trkpt><trkpt lat="43.9095517" lon="12.1017217"><ele>390.75</ele><time>2026-04-06T14:41:31.009Z</time></trkpt><trkpt lat="43.9096717" lon="12.1016383"><ele>388.5</ele><time>2026-04-06T14:41:32.007Z</time></trkpt><trkpt lat="43.909795" lon="12.1015733"><ele>386.25</ele><time>2026-04-06T14:41:33.01Z</time></trkpt><trkpt lat="43.9098983" lon="12.10152"><ele>384.0</ele><time>2026-04-06T14:41:34.006Z</time></trkpt><trkpt lat="43.9099766" lon="12.1014788"><ele>384.0</ele><time>2026-04-06T14:41:35.01Z</time></trkpt><trkpt lat="43.9100729" lon="12.1013963"><ele>384.0</ele><time>2026-04-06T14:41:37.007Z</time></trkpt><trkpt lat="43.9100872" lon="12.1012623"><ele>384.0</ele><time>2026-04-06T14:41:39.006Z</time></trkpt><trkpt lat="43.910043" lon="12.1010913"><ele>384.0</ele><time>2026-04-06T14:41:41.007Z</time></trkpt><trkpt lat="43.910001" lon="12.1009851"><ele>384.0</ele><time>2026-04-06T14:41:42.007Z</time></trkpt><trkpt lat="43.9099553" lon="12.1008652"><ele>384.0</ele><time>2026-04-06T14:41:43.008Z</time></trkpt><trkpt lat="43.9099214" lon="12.1007501"><ele>384.0</ele><time>2026-04-06T14:41:44.01Z</time></trkpt><trkpt lat="43.9099005" lon="12.100643"><ele>384.0</ele><time>2026-04-06T14:41:45.007Z</time></trkpt><trkpt lat="43.9098874" lon="12.1005433"><ele>384.0</ele><time>2026-04-06T14:41:46.008Z</time></trkpt><trkpt lat="43.9098958" lon="12.100453"><ele>384.0</ele><time>2026-04-06T14:41:47.006Z</time></trkpt><trkpt lat="43.9099243" lon="12.1003684"><ele>384.0</ele><time>2026-04-06T14:41:48.008Z</time></trkpt><trkpt lat="43.9099868" lon="12.100298"><ele>383.6</ele><time>2026-04-06T14:41:49.008Z</time></trkpt><trkpt lat="43.9100733" lon="12.1002305"><ele>383.2</ele><time>2026-04-06T14:41:50.007Z</time></trkpt><trkpt lat="43.9101689" lon="12.1001691"><ele>382.8</ele><time>2026-04-06T14:41:51.012Z</time></trkpt><trkpt lat="43.9102689" lon="12.1001258"><ele>382.40000000000003</ele><time>2026-04-06T14:41:52.007Z</time></trkpt><trkpt lat="43.9103657" lon="12.1001097"><ele>382.0</ele><time>2026-04-06T14:41:53.006Z</time></trkpt><trkpt lat="43.9104615" lon="12.1001155"><ele>382.0</ele><time>2026-04-06T14:41:54.006Z</time></trkpt><trkpt lat="43.9105518" lon="12.1001304"><ele>382.0</ele><time>2026-04-06T14:41:55.008Z</time></trkpt><trkpt lat="43.9106344" lon="12.1001337"><ele>382.0</ele><time>2026-04-06T14:41:56.007Z</time></trkpt><trkpt lat="43.9106959" lon="12.1000949"><ele>382.0</ele><time>2026-04-06T14:41:57.011Z</time></trkpt><trkpt lat="43.9107475" lon="12.1000297"><ele>382.0</ele><time>2026-04-06T14:41:58.006Z</time></trkpt><trkpt lat="43.9107863" lon="12.099923"><ele>382.0</ele><time>2026-04-06T14:41:59.007Z</time></trkpt><trkpt lat="43.9108239" lon="12.0997945"><ele>378.25</ele><time>2026-04-06T14:42:00.009Z</time></trkpt><trkpt lat="43.9108659" lon="12.0996445"><ele>374.5</ele><time>2026-04-06T14:42:01.01Z</time></trkpt><trkpt lat="43.910914" lon="12.0994812"><ele>370.75</ele><time>2026-04-06T14:42:02.01Z</time></trkpt><trkpt lat="43.9109654" lon="12.0993115"><ele>367.0</ele><time>2026-04-06T14:42:03.007Z</time></trkpt><trkpt lat="43.9110249" lon="12.0991456"><ele>375.75</ele><time>2026-04-06T14:42:04.006Z</time></trkpt><trkpt lat="43.9110915" lon="12.0989912"><ele>384.5</ele><time>2026-04-06T14:42:05.007Z</time></trkpt><trkpt lat="43.9111761" lon="12.0988524"><ele>393.25</ele><time>2026-04-06T14:42:06.006Z</time></trkpt><trkpt lat="43.9112698" lon="12.0987258"><ele>402.0</ele><time>2026-04-06T14:42:07.012Z</time></trkpt><trkpt lat="43.9113605" lon="12.0986136"><ele>402.0</ele><time>2026-04-06T14:42:08.007Z</time></trkpt><trkpt lat="43.9114494" lon="12.0985199"><ele>402.0</ele><time>2026-04-06T14:42:09.007Z</time></trkpt><trkpt lat="43.9115419" lon="12.0984449"><ele>402.0</ele><time>2026-04-06T14:42:10.008Z</time></trkpt><trkpt lat="43.9116287" lon="12.0983847"><ele>402.0</ele><time>2026-04-06T14:42:11.007Z</time></trkpt><trkpt lat="43.9117096" lon="12.098335"><ele>402.0</ele><time>2026-04-06T14:42:12.009Z</time></trkpt><trkpt lat="43.9117721" lon="12.0982865"><ele>398.6666666666667</ele><time>2026-04-06T14:42:13.013Z</time></trkpt><trkpt lat="43.9118244" lon="12.0982233"><ele>395.3333333333333</ele><time>2026-04-06T14:42:14.007Z</time></trkpt><trkpt lat="43.911873" lon="12.0981407"><ele>392.0</ele><time>2026-04-06T14:42:15.007Z</time></trkpt><trkpt lat="43.9119178" lon="12.0980394"><ele>388.66666666666663</ele><time>2026-04-06T14:42:16.008Z</time></trkpt><trkpt lat="43.9119622" lon="12.097919"><ele>385.3333333333333</ele><time>2026-04-06T14:42:17.006Z</time></trkpt><trkpt lat="43.9120103" lon="12.0977898"><ele>382.0</ele><time>2026-04-06T14:42:18.008Z</time></trkpt><trkpt lat="43.9120612" lon="12.0976425"><ele>382.0</ele><time>2026-04-06T14:42:19.008Z</time></trkpt><trkpt lat="43.9121167" lon="12.0974891"><ele>382.0</ele><time>2026-04-06T14:42:20.007Z</time></trkpt><trkpt lat="43.9121791" lon="12.097342"><ele>382.0</ele><time>2026-04-06T14:42:21.011Z</time></trkpt><trkpt lat="43.9122472" lon="12.0971987"><ele>382.0</ele><time>2026-04-06T14:42:22.007Z</time></trkpt><trkpt lat="43.9123194" lon="12.0970619"><ele>383.6</ele><time>2026-04-06T14:42:23.01Z</time></trkpt><trkpt lat="43.9123915" lon="12.0969274"><ele>385.20000000000005</ele><time>2026-04-06T14:42:24.008Z</time></trkpt><trkpt lat="43.9124577" lon="12.0968017"><ele>386.8</ele><time>2026-04-06T14:42:25.007Z</time></trkpt><trkpt lat="43.9125171" lon="12.096689"><ele>388.4</ele><time>2026-04-06T14:42:26.008Z</time></trkpt><trkpt lat="43.9125654" lon="12.0965921"><ele>390.0</ele><time>2026-04-06T14:42:27.008Z</time></trkpt><trkpt lat="43.9126041" lon="12.0965057"><ele>390.0</ele><time>2026-04-06T14:42:28.007Z</time></trkpt><trkpt lat="43.9126327" lon="12.0964233"><ele>390.0</ele><time>2026-04-06T14:42:29.01Z</time></trkpt><trkpt lat="43.9126618" lon="12.0962666"><ele>390.0</ele><time>2026-04-06T14:42:31.008Z</time></trkpt><trkpt lat="43.9126277" lon="12.0961025"><ele>390.0</ele><time>2026-04-06T14:42:33.007Z</time></trkpt><trkpt lat="43.9125948" lon="12.0960139"><ele>390.0</ele><time>2026-04-06T14:42:34.006Z</time></trkpt><trkpt lat="43.9125622" lon="12.0959252"><ele>390.0</ele><time>2026-04-06T14:42:35.008Z</time></trkpt><trkpt lat="43.9125397" lon="12.095839"><ele>393.6666666666667</ele><time>2026-04-06T14:42:36.01Z</time></trkpt><trkpt lat="43.9125347" lon="12.0957484"><ele>397.33333333333337</ele><time>2026-04-06T14:42:37.009Z</time></trkpt><trkpt lat="43.9125458" lon="12.0956618"><ele>401.0</ele><time>2026-04-06T14:42:38.009Z</time></trkpt><trkpt lat="43.9126294" lon="12.0955513"><ele>404.6666666666667</ele><time>2026-04-06T14:42:40.007Z</time></trkpt><trkpt lat="43.9127337" lon="12.0955483"><ele>408.33333333333337</ele><time>2026-04-06T14:42:41.006Z</time></trkpt><trkpt lat="43.912832" lon="12.095526"><ele>412.0</ele><time>2026-04-06T14:42:42.007Z</time></trkpt><trkpt lat="43.9129261" lon="12.0954888"><ele>412.0</ele><time>2026-04-06T14:42:43.01Z</time></trkpt><trkpt lat="43.9130054" lon="12.0954311"><ele>412.0</ele><time>2026-04-06T14:42:44.007Z</time></trkpt><trkpt lat="43.913068" lon="12.0953527"><ele>412.0</ele><time>2026-04-06T14:42:45.01Z</time></trkpt><trkpt lat="43.9131164" lon="12.0952501"><ele>412.0</ele><time>2026-04-06T14:42:46.007Z</time></trkpt><trkpt lat="43.9131454" lon="12.0951202"><ele>412.0</ele><time>2026-04-06T14:42:47.008Z</time></trkpt><trkpt lat="43.9131501" lon="12.0949684"><ele>413.0</ele><time>2026-04-06T14:42:48.01Z</time></trkpt><trkpt lat="43.9131376" lon="12.0948131"><ele>414.0</ele><time>2026-04-06T14:42:49.01Z</time></trkpt><trkpt lat="43.9131195" lon="12.0946591"><ele>415.0</ele><time>2026-04-06T14:42:50.008Z</time></trkpt><trkpt lat="43.9130981" lon="12.0944958"><ele>416.0</ele><time>2026-04-06T14:42:51.008Z</time></trkpt><trkpt lat="43.9130712" lon="12.0943106"><ele>416.0</ele><time>2026-04-06T14:42:52.008Z</time></trkpt><trkpt lat="43.9130402" lon="12.0941288"><ele>416.0</ele><time>2026-04-06T14:42:53.01Z</time></trkpt><trkpt lat="43.9130185" lon="12.0939656"><ele>416.0</ele><time>2026-04-06T14:42:54.008Z</time></trkpt><trkpt lat="43.9130026" lon="12.0938211"><ele>416.0</ele><time>2026-04-06T14:42:55.007Z</time></trkpt><trkpt lat="43.9129797" lon="12.0936917"><ele>416.3333333333333</ele><time>2026-04-06T14:42:56.01Z</time></trkpt><trkpt lat="43.9129402" lon="12.0935711"><ele>416.66666666666663</ele><time>2026-04-06T14:42:57.008Z</time></trkpt><trkpt lat="43.9128871" lon="12.0934541"><ele>417.0</ele><time>2026-04-06T14:42:58.012Z</time></trkpt><trkpt lat="43.9128306" lon="12.0933465"><ele>417.33333333333337</ele><time>2026-04-06T14:42:59.006Z</time></trkpt><trkpt lat="43.9127883" lon="12.0932461"><ele>417.6666666666667</ele><time>2026-04-06T14:43:00.008Z</time></trkpt><trkpt lat="43.9127695" lon="12.0931521"><ele>418.0</ele><time>2026-04-06T14:43:01.007Z</time></trkpt><trkpt lat="43.9127947" lon="12.0930659"><ele>418.00000000000006</ele><time>2026-04-06T14:43:02.011Z</time></trkpt><trkpt lat="43.9128497" lon="12.0929804"><ele>418.0</ele><time>2026-04-06T14:43:03.011Z</time></trkpt><trkpt lat="43.912916" lon="12.0928934"><ele>418.0</ele><time>2026-04-06T14:43:04.009Z</time></trkpt><trkpt lat="43.9129732" lon="12.0928048"><ele>418.0</ele><time>2026-04-06T14:43:05.01Z</time></trkpt><trkpt lat="43.9130126" lon="12.0927156"><ele>418.00000000000006</ele><time>2026-04-06T14:43:06.007Z</time></trkpt><trkpt lat="43.9130158" lon="12.0926023"><ele>418.0</ele><time>2026-04-06T14:43:07.006Z</time></trkpt><trkpt lat="43.9130057" lon="12.0924746"><ele>418.59999999999997</ele><time>2026-04-06T14:43:08.007Z</time></trkpt><trkpt lat="43.9129825" lon="12.0923337"><ele>419.2</ele><time>2026-04-06T14:43:09.008Z</time></trkpt><trkpt lat="43.9129522" lon="12.0922066"><ele>419.8</ele><time>2026-04-06T14:43:10.007Z</time></trkpt><trkpt lat="43.912911" lon="12.092096"><ele>420.4</ele><time>2026-04-06T14:43:11.006Z</time></trkpt><trkpt lat="43.9128592" lon="12.0920019"><ele>421.0</ele><time>2026-04-06T14:43:12.007Z</time></trkpt><trkpt lat="43.9128024" lon="12.0919248"><ele>421.0</ele><time>2026-04-06T14:43:13.007Z</time></trkpt><trkpt lat="43.9127493" lon="12.0918569"><ele>421.0</ele><time>2026-04-06T14:43:14.007Z</time></trkpt><trkpt lat="43.9126913" lon="12.091789"><ele>421.0</ele><time>2026-04-06T14:43:15.016Z</time></trkpt><trkpt lat="43.9126538" lon="12.0917163"><ele>421.0</ele><time>2026-04-06T14:43:16.007Z</time></trkpt><trkpt lat="43.9127044" lon="12.0915282"><ele>421.0</ele><time>2026-04-06T14:43:18.007Z</time></trkpt><trkpt lat="43.9127718" lon="12.0914159"><ele>423.75</ele><time>2026-04-06T14:43:19.008Z</time></trkpt><trkpt lat="43.9128485" lon="12.0912874"><ele>426.5</ele><time>2026-04-06T14:43:20.008Z</time></trkpt><trkpt lat="43.9129187" lon="12.0911431"><ele>429.25</ele><time>2026-04-06T14:43:21.008Z</time></trkpt><trkpt lat="43.9129763" lon="12.0909931"><ele>432.0</ele><time>2026-04-06T14:43:22.007Z</time></trkpt><trkpt lat="43.9130229" lon="12.090841"><ele>433.6</ele><time>2026-04-06T14:43:23.008Z</time></trkpt><trkpt lat="43.9130558" lon="12.0906936"><ele>435.20000000000005</ele><time>2026-04-06T14:43:24.007Z</time></trkpt><trkpt lat="43.9130812" lon="12.0905525"><ele>436.8</ele><time>2026-04-06T14:43:25.008Z</time></trkpt><trkpt lat="43.9130906" lon="12.0904111"><ele>438.4</ele><time>2026-04-06T14:43:26.007Z</time></trkpt><trkpt lat="43.9130841" lon="12.0902705"><ele>440.0</ele><time>2026-04-06T14:43:27.007Z</time></trkpt><trkpt lat="43.9130608" lon="12.0901222"><ele>440.0</ele><time>2026-04-06T14:43:28.012Z</time></trkpt><trkpt lat="43.9130421" lon="12.08997"><ele>440.0</ele><time>2026-04-06T14:43:29.006Z</time></trkpt><trkpt lat="43.913034" lon="12.0898075"><ele>440.0</ele><time>2026-04-06T14:43:30.009Z</time></trkpt><trkpt lat="43.913049" lon="12.0896339"><ele>440.0</ele><time>2026-04-06T14:43:31.007Z</time></trkpt><trkpt lat="43.9130688" lon="12.0894605"><ele>440.0</ele><time>2026-04-06T14:43:32.008Z</time></trkpt><trkpt lat="43.9130852" lon="12.0892931"><ele>440.0</ele><time>2026-04-06T14:43:33.009Z</time></trkpt><trkpt lat="43.9130967" lon="12.0891421"><ele>440.0</ele><time>2026-04-06T14:43:34.009Z</time></trkpt><trkpt lat="43.9130988" lon="12.0890022"><ele>440.0</ele><time>2026-04-06T14:43:35.009Z</time></trkpt><trkpt lat="43.9130881" lon="12.0888704"><ele>440.0</ele><time>2026-04-06T14:43:36.009Z</time></trkpt><trkpt lat="43.9130558" lon="12.0887404"><ele>440.0</ele><time>2026-04-06T14:43:37.007Z</time></trkpt><trkpt lat="43.9130102" lon="12.0886098"><ele>440.0</ele><time>2026-04-06T14:43:38.009Z</time></trkpt><trkpt lat="43.9129706" lon="12.088472"><ele>440.0</ele><time>2026-04-06T14:43:39.007Z</time></trkpt><trkpt lat="43.9129408" lon="12.0883381"><ele>440.0</ele><time>2026-04-06T14:43:40.007Z</time></trkpt><trkpt lat="43.912929" lon="12.0882103"><ele>440.0</ele><time>2026-04-06T14:43:41.006Z</time></trkpt><trkpt lat="43.91294" lon="12.0880915"><ele>436.4</ele><time>2026-04-06T14:43:42.011Z</time></trkpt><trkpt lat="43.9129405" lon="12.0879923"><ele>432.8</ele><time>2026-04-06T14:43:43.006Z</time></trkpt><trkpt lat="43.9129271" lon="12.0879056"><ele>429.20000000000005</ele><time>2026-04-06T14:43:44.007Z</time></trkpt><trkpt lat="43.9128713" lon="12.0877741"><ele>425.6</ele><time>2026-04-06T14:43:46.007Z</time></trkpt><trkpt lat="43.9127551" lon="12.0877103"><ele>422.0</ele><time>2026-04-06T14:43:48.007Z</time></trkpt><trkpt lat="43.9126752" lon="12.0877016"><ele>422.0</ele><time>2026-04-06T14:43:49.007Z</time></trkpt><trkpt lat="43.912578" lon="12.0877101"><ele>422.0</ele><time>2026-04-06T14:43:50.007Z</time></trkpt><trkpt lat="43.9124795" lon="12.0877269"><ele>422.0</ele><time>2026-04-06T14:43:51.008Z</time></trkpt><trkpt lat="43.9123737" lon="12.0877427"><ele>422.0</ele><time>2026-04-06T14:43:52.007Z</time></trkpt><trkpt lat="43.9122659" lon="12.0877462"><ele>422.0</ele><time>2026-04-06T14:43:53.007Z</time></trkpt><trkpt lat="43.9121735" lon="12.0877366"><ele>423.99999999999994</ele><time>2026-04-06T14:43:54.008Z</time></trkpt><trkpt lat="43.9120913" lon="12.0877081"><ele>426.0</ele><time>2026-04-06T14:43:55.007Z</time></trkpt><trkpt lat="43.9120181" lon="12.0876657"><ele>428.0</ele><time>2026-04-06T14:43:56.007Z</time></trkpt><trkpt lat="43.911956" lon="12.0876105"><ele>430.0</ele><time>2026-04-06T14:43:57.006Z</time></trkpt><trkpt lat="43.9119057" lon="12.0875372"><ele>431.99999999999994</ele><time>2026-04-06T14:43:58.008Z</time></trkpt><trkpt lat="43.9118712" lon="12.0874492"><ele>434.0</ele><time>2026-04-06T14:43:59.008Z</time></trkpt><trkpt lat="43.9118572" lon="12.0873363"><ele>434.0</ele><time>2026-04-06T14:44:00.007Z</time></trkpt><trkpt lat="43.9118699" lon="12.0871928"><ele>434.0</ele><time>2026-04-06T14:44:01.009Z</time></trkpt><trkpt lat="43.911905" lon="12.0870159"><ele>434.0</ele><time>2026-04-06T14:44:02.007Z</time></trkpt><trkpt lat="43.9119745" lon="12.0867862"><ele>434.0</ele><time>2026-04-06T14:44:03.006Z</time></trkpt><trkpt lat="43.9120279" lon="12.0865697"><ele>433.4</ele><time>2026-04-06T14:44:04.006Z</time></trkpt><trkpt lat="43.9120704" lon="12.0863807"><ele>432.79999999999995</ele><time>2026-04-06T14:44:05.007Z</time></trkpt><trkpt lat="43.9120976" lon="12.0862276"><ele>432.20000000000005</ele><time>2026-04-06T14:44:06.006Z</time></trkpt><trkpt lat="43.9121372" lon="12.0861109"><ele>431.6</ele><time>2026-04-06T14:44:07.009Z</time></trkpt><trkpt lat="43.9121747" lon="12.0859972"><ele>431.0</ele><time>2026-04-06T14:44:08.007Z</time></trkpt><trkpt lat="43.9122043" lon="12.0858832"><ele>430.99999999999994</ele><time>2026-04-06T14:44:09.006Z</time></trkpt><trkpt lat="43.9122207" lon="12.0857692"><ele>431.0</ele><time>2026-04-06T14:44:10.009Z</time></trkpt><trkpt lat="43.9122228" lon="12.0856616"><ele>431.0</ele><time>2026-04-06T14:44:11.007Z</time></trkpt><trkpt lat="43.9122083" lon="12.0855545"><ele>431.0</ele><time>2026-04-06T14:44:12.007Z</time></trkpt><trkpt lat="43.9121821" lon="12.0854547"><ele>430.99999999999994</ele><time>2026-04-06T14:44:13.008Z</time></trkpt><trkpt lat="43.9121498" lon="12.085366"><ele>431.0</ele><time>2026-04-06T14:44:14.01Z</time></trkpt><trkpt lat="43.9120995" lon="12.0852898"><ele>431.66666666666663</ele><time>2026-04-06T14:44:15.008Z</time></trkpt><trkpt lat="43.9120518" lon="12.0852106"><ele>432.3333333333333</ele><time>2026-04-06T14:44:16.008Z</time></trkpt><trkpt lat="43.9120181" lon="12.0851327"><ele>433.0</ele><time>2026-04-06T14:44:17.008Z</time></trkpt><trkpt lat="43.9119901" lon="12.0849695"><ele>433.66666666666663</ele><time>2026-04-06T14:44:19.009Z</time></trkpt><trkpt lat="43.9120071" lon="12.0848845"><ele>434.3333333333333</ele><time>2026-04-06T14:44:20.007Z</time></trkpt><trkpt lat="43.9121124" lon="12.0848068"><ele>435.0</ele><time>2026-04-06T14:44:21.008Z</time></trkpt><trkpt lat="43.91219" lon="12.0847335"><ele>436.3333333333333</ele><time>2026-04-06T14:44:22.008Z</time></trkpt><trkpt lat="43.912254" lon="12.0846532"><ele>437.66666666666663</ele><time>2026-04-06T14:44:23.007Z</time></trkpt><trkpt lat="43.9123013" lon="12.0845658"><ele>439.0</ele><time>2026-04-06T14:44:24.008Z</time></trkpt><trkpt lat="43.9123275" lon="12.0844759"><ele>440.3333333333333</ele><time>2026-04-06T14:44:25.008Z</time></trkpt><trkpt lat="43.9123238" lon="12.0843814"><ele>441.66666666666663</ele><time>2026-04-06T14:44:26.009Z</time></trkpt><trkpt lat="43.9122858" lon="12.0842945"><ele>443.0</ele><time>2026-04-06T14:44:27.008Z</time></trkpt><trkpt lat="43.9122017" lon="12.0841535"><ele>443.49999999999994</ele><time>2026-04-06T14:44:29.007Z</time></trkpt><trkpt lat="43.9121611" lon="12.084075"><ele>444.0</ele><time>2026-04-06T14:44:30.007Z</time></trkpt><trkpt lat="43.9121297" lon="12.0839828"><ele>444.5</ele><time>2026-04-06T14:44:31.012Z</time></trkpt><trkpt lat="43.912144" lon="12.0838858"><ele>445.0</ele><time>2026-04-06T14:44:32.006Z</time></trkpt><trkpt lat="43.9121796" lon="12.0837751"><ele>445.49999999999994</ele><time>2026-04-06T14:44:33.008Z</time></trkpt><trkpt lat="43.9122198" lon="12.0836502"><ele>446.0</ele><time>2026-04-06T14:44:34.009Z</time></trkpt><trkpt lat="43.9122456" lon="12.0835109"><ele>446.0</ele><time>2026-04-06T14:44:35.007Z</time></trkpt><trkpt lat="43.9122631" lon="12.0833334"><ele>446.0</ele><time>2026-04-06T14:44:36.012Z</time></trkpt><trkpt lat="43.9122832" lon="12.083128"><ele>446.0</ele><time>2026-04-06T14:44:37.007Z</time></trkpt><trkpt lat="43.9123136" lon="12.0829022"><ele>446.0</ele><time>2026-04-06T14:44:38.008Z</time></trkpt><trkpt lat="43.9123527" lon="12.0826639"><ele>451.66666666666663</ele><time>2026-04-06T14:44:39.006Z</time></trkpt><trkpt lat="43.9124017" lon="12.0824292"><ele>457.33333333333337</ele><time>2026-04-06T14:44:40.006Z</time></trkpt><trkpt lat="43.912445" lon="12.0822151"><ele>463.0</ele><time>2026-04-06T14:44:41.006Z</time></trkpt><trkpt lat="43.9124805" lon="12.0820227"><ele>463.0</ele><time>2026-04-06T14:44:42.006Z</time></trkpt><trkpt lat="43.9125146" lon="12.0818499"><ele>463.0</ele><time>2026-04-06T14:44:43.006Z</time></trkpt><trkpt lat="43.9125535" lon="12.0816881"><ele>463.0</ele><time>2026-04-06T14:44:44.007Z</time></trkpt><trkpt lat="43.9126048" lon="12.0815337"><ele>463.0</ele><time>2026-04-06T14:44:45.007Z</time></trkpt><trkpt lat="43.9126688" lon="12.0813875"><ele>465.4</ele><time>2026-04-06T14:44:46.006Z</time></trkpt><trkpt lat="43.9127341" lon="12.0812592"><ele>467.79999999999995</ele><time>2026-04-06T14:44:47.006Z</time></trkpt><trkpt lat="43.9127929" lon="12.0811623"><ele>470.2</ele><time>2026-04-06T14:44:48.005Z</time></trkpt><trkpt lat="43.9128455" lon="12.0810958"><ele>472.6</ele><time>2026-04-06T14:44:49.007Z</time></trkpt><trkpt lat="43.9129439" lon="12.0810334"><ele>475.0</ele><time>2026-04-06T14:44:51.006Z</time></trkpt><trkpt lat="43.9130447" lon="12.0810867"><ele>475.0</ele><time>2026-04-06T14:44:53.005Z</time></trkpt><trkpt lat="43.913087" lon="12.0812094"><ele>475.0</ele><time>2026-04-06T14:44:55.006Z</time></trkpt><trkpt lat="43.913039" lon="12.081405"><ele>475.0</ele><time>2026-04-06T14:44:57.008Z</time></trkpt><trkpt lat="43.9129855" lon="12.0815401"><ele>475.0</ele><time>2026-04-06T14:44:58.006Z</time></trkpt><trkpt lat="43.9129449" lon="12.0816797"><ele>475.4</ele><time>2026-04-06T14:44:59.008Z</time></trkpt><trkpt lat="43.9129297" lon="12.0818198"><ele>475.8</ele><time>2026-04-06T14:45:00.006Z</time></trkpt><trkpt lat="43.9129433" lon="12.081963"><ele>476.20000000000005</ele><time>2026-04-06T14:45:01.006Z</time></trkpt><trkpt lat="43.912966" lon="12.0821134"><ele>476.6</ele><time>2026-04-06T14:45:02.006Z</time></trkpt><trkpt lat="43.9129927" lon="12.0822634"><ele>477.0</ele><time>2026-04-06T14:45:03.006Z</time></trkpt><trkpt lat="43.9130125" lon="12.0824158"><ele>477.20000000000005</ele><time>2026-04-06T14:45:04.005Z</time></trkpt><trkpt lat="43.9130208" lon="12.0825631"><ele>477.40000000000003</ele><time>2026-04-06T14:45:05.006Z</time></trkpt><trkpt lat="43.9130174" lon="12.0826989"><ele>477.59999999999997</ele><time>2026-04-06T14:45:06.006Z</time></trkpt><trkpt lat="43.9130151" lon="12.0828407"><ele>477.79999999999995</ele><time>2026-04-06T14:45:07.007Z</time></trkpt><trkpt lat="43.9130249" lon="12.0829895"><ele>478.0</ele><time>2026-04-06T14:45:08.007Z</time></trkpt><trkpt lat="43.9130546" lon="12.0831337"><ele>478.4</ele><time>2026-04-06T14:45:09.005Z</time></trkpt><trkpt lat="43.9131036" lon="12.0832713"><ele>478.79999999999995</ele><time>2026-04-06T14:45:10.005Z</time></trkpt><trkpt lat="43.9131634" lon="12.0834046"><ele>479.2</ele><time>2026-04-06T14:45:11.007Z</time></trkpt><trkpt lat="43.9132231" lon="12.0835342"><ele>479.6</ele><time>2026-04-06T14:45:12.009Z</time></trkpt><trkpt lat="43.9132678" lon="12.0836623"><ele>480.0</ele><time>2026-04-06T14:45:13.008Z</time></trkpt><trkpt lat="43.913292" lon="12.0837861"><ele>480.0</ele><time>2026-04-06T14:45:14.006Z</time></trkpt><trkpt lat="43.9133015" lon="12.0839179"><ele>480.0</ele><time>2026-04-06T14:45:15.007Z</time></trkpt><trkpt lat="43.9132874" lon="12.0840603"><ele>480.0</ele><time>2026-04-06T14:45:16.007Z</time></trkpt><trkpt lat="43.9132677" lon="12.0841954"><ele>480.0</ele><time>2026-04-06T14:45:17.006Z</time></trkpt><trkpt lat="43.91326" lon="12.084309"><ele>480.0</ele><time>2026-04-06T14:45:18.008Z</time></trkpt><trkpt lat="43.9132657" lon="12.0844056"><ele>482.5</ele><time>2026-04-06T14:45:19.005Z</time></trkpt><trkpt lat="43.9133269" lon="12.0845221"><ele>485.0</ele><time>2026-04-06T14:45:21.008Z</time></trkpt><trkpt lat="43.913478" lon="12.0845077"><ele>487.5</ele><time>2026-04-06T14:45:23.006Z</time></trkpt><trkpt lat="43.9135798" lon="12.0844647"><ele>490.0</ele><time>2026-04-06T14:45:24.005Z</time></trkpt><trkpt lat="43.9136907" lon="12.0844108"><ele>490.0</ele><time>2026-04-06T14:45:25.008Z</time></trkpt><trkpt lat="43.9138031" lon="12.0843695"><ele>490.0</ele><time>2026-04-06T14:45:26.006Z</time></trkpt><trkpt lat="43.9139237" lon="12.0843503"><ele>490.0</ele><time>2026-04-06T14:45:27.006Z</time></trkpt><trkpt lat="43.9140578" lon="12.0843478"><ele>490.0</ele><time>2026-04-06T14:45:28.007Z</time></trkpt><trkpt lat="43.9142034" lon="12.0843459"><ele>494.0</ele><time>2026-04-06T14:45:29.007Z</time></trkpt><trkpt lat="43.9143585" lon="12.0843367"><ele>498.0</ele><time>2026-04-06T14:45:30.006Z</time></trkpt><trkpt lat="43.9145187" lon="12.084321"><ele>502.0</ele><time>2026-04-06T14:45:31.006Z</time></trkpt><trkpt lat="43.914665" lon="12.0843052"><ele>502.0</ele><time>2026-04-06T14:45:32.006Z</time></trkpt><trkpt lat="43.9147902" lon="12.0842903"><ele>502.00000000000006</ele><time>2026-04-06T14:45:33.01Z</time></trkpt><trkpt lat="43.9148965" lon="12.0842898"><ele>502.00000000000006</ele><time>2026-04-06T14:45:34.005Z</time></trkpt><trkpt lat="43.9149875" lon="12.0843193"><ele>502.0</ele><time>2026-04-06T14:45:35.006Z</time></trkpt><trkpt lat="43.9150655" lon="12.084376"><ele>502.0</ele><time>2026-04-06T14:45:36.007Z</time></trkpt><trkpt lat="43.9151283" lon="12.0844534"><ele>502.40000000000003</ele><time>2026-04-06T14:45:37.008Z</time></trkpt><trkpt lat="43.9151815" lon="12.084556"><ele>502.80000000000007</ele><time>2026-04-06T14:45:38.007Z</time></trkpt><trkpt lat="43.9152145" lon="12.0846907"><ele>503.2</ele><time>2026-04-06T14:45:39.006Z</time></trkpt><trkpt lat="43.9152429" lon="12.0848301"><ele>503.6</ele><time>2026-04-06T14:45:40.01Z</time></trkpt><trkpt lat="43.9152712" lon="12.0849542"><ele>504.0</ele><time>2026-04-06T14:45:41.006Z</time></trkpt><trkpt lat="43.9153052" lon="12.0850573"><ele>504.0</ele><time>2026-04-06T14:45:42.007Z</time></trkpt><trkpt lat="43.9153451" lon="12.0851404"><ele>504.0</ele><time>2026-04-06T14:45:43.007Z</time></trkpt><trkpt lat="43.9153943" lon="12.085202"><ele>504.0</ele><time>2026-04-06T14:45:44.008Z</time></trkpt><trkpt lat="43.9154536" lon="12.0852462"><ele>504.0</ele><time>2026-04-06T14:45:45.007Z</time></trkpt><trkpt lat="43.9155338" lon="12.0852681"><ele>504.0</ele><time>2026-04-06T14:45:46.005Z</time></trkpt><trkpt lat="43.9156381" lon="12.0852684"><ele>504.0</ele><time>2026-04-06T14:45:47.006Z</time></trkpt><trkpt lat="43.9157507" lon="12.0852651"><ele>504.0</ele><time>2026-04-06T14:45:48.008Z</time></trkpt><trkpt lat="43.9158627" lon="12.0852702"><ele>504.0</ele><time>2026-04-06T14:45:49.005Z</time></trkpt><trkpt lat="43.9159683" lon="12.0852962"><ele>504.0</ele><time>2026-04-06T14:45:50.007Z</time></trkpt><trkpt lat="43.9160644" lon="12.0853451"><ele>504.0</ele><time>2026-04-06T14:45:51.008Z</time></trkpt><trkpt lat="43.9161512" lon="12.0854067"><ele>504.0</ele><time>2026-04-06T14:45:52.01Z</time></trkpt><trkpt lat="43.916223" lon="12.0854685"><ele>507.6666666666667</ele><time>2026-04-06T14:45:53.008Z</time></trkpt><trkpt lat="43.9162805" lon="12.0855155"><ele>511.33333333333337</ele><time>2026-04-06T14:45:54.009Z</time></trkpt><trkpt lat="43.9163678" lon="12.0855318"><ele>515.0</ele><time>2026-04-06T14:45:56.009Z</time></trkpt><trkpt lat="43.9164182" lon="12.0854468"><ele>518.6666666666667</ele><time>2026-04-06T14:45:58.006Z</time></trkpt><trkpt lat="43.9164034" lon="12.0853266"><ele>522.3333333333334</ele><time>2026-04-06T14:46:00.009Z</time></trkpt><trkpt lat="43.9163595" lon="12.0852612"><ele>526.0</ele><time>2026-04-06T14:46:01.008Z</time></trkpt><trkpt lat="43.9162996" lon="12.0852001"><ele>526.0</ele><time>2026-04-06T14:46:02.005Z</time></trkpt><trkpt lat="43.9162316" lon="12.0851412"><ele>526.0</ele><time>2026-04-06T14:46:03.009Z</time></trkpt><trkpt lat="43.9161526" lon="12.0850723"><ele>526.0</ele><time>2026-04-06T14:46:04.008Z</time></trkpt><trkpt lat="43.9160687" lon="12.0849986"><ele>526.0</ele><time>2026-04-06T14:46:05.006Z</time></trkpt><trkpt lat="43.9159906" lon="12.084912"><ele>526.0</ele><time>2026-04-06T14:46:06.007Z</time></trkpt><trkpt lat="43.9159244" lon="12.0848093"><ele>524.8333333333334</ele><time>2026-04-06T14:46:07.006Z</time></trkpt><trkpt lat="43.9158658" lon="12.0846966"><ele>523.6666666666667</ele><time>2026-04-06T14:46:08.005Z</time></trkpt><trkpt lat="43.9158201" lon="12.0845758"><ele>522.5</ele><time>2026-04-06T14:46:09.014Z</time></trkpt><trkpt lat="43.9157891" lon="12.0844551"><ele>521.3333333333334</ele><time>2026-04-06T14:46:10.01Z</time></trkpt><trkpt lat="43.9157767" lon="12.08435"><ele>520.1666666666666</ele><time>2026-04-06T14:46:11.006Z</time></trkpt><trkpt lat="43.91577" lon="12.0842617"><ele>519.0</ele><time>2026-04-06T14:46:12.007Z</time></trkpt><trkpt lat="43.91578" lon="12.0841167"><ele>523.0</ele><time>2026-04-06T14:46:14.008Z</time></trkpt><trkpt lat="43.9158383" lon="12.0840233"><ele>527.0</ele><time>2026-04-06T14:46:16.005Z</time></trkpt><trkpt lat="43.915945" lon="12.0840617"><ele>531.0</ele><time>2026-04-06T14:46:18.007Z</time></trkpt><trkpt lat="43.9160133" lon="12.0841383"><ele>535.0</ele><time>2026-04-06T14:46:19.007Z</time></trkpt><trkpt lat="43.91608" lon="12.0842217"><ele>539.0</ele><time>2026-04-06T14:46:20.006Z</time></trkpt><trkpt lat="43.9161517" lon="12.084305"><ele>539.0</ele><time>2026-04-06T14:46:21.007Z</time></trkpt><trkpt lat="43.9162317" lon="12.0844033"><ele>539.0</ele><time>2026-04-06T14:46:22.008Z</time></trkpt><trkpt lat="43.91631" lon="12.0845083"><ele>539.0</ele><time>2026-04-06T14:46:23.009Z</time></trkpt><trkpt lat="43.916385" lon="12.0846167"><ele>539.0</ele><time>2026-04-06T14:46:24.006Z</time></trkpt><trkpt lat="43.9164617" lon="12.084715"><ele>539.0</ele><time>2026-04-06T14:46:25.006Z</time></trkpt><trkpt lat="43.9165317" lon="12.0848233"><ele>539.6666666666666</ele><time>2026-04-06T14:46:26.005Z</time></trkpt><trkpt lat="43.9165967" lon="12.08493"><ele>540.3333333333333</ele><time>2026-04-06T14:46:27.009Z</time></trkpt><trkpt lat="43.9166567" lon="12.0850267"><ele>541.0</ele><time>2026-04-06T14:46:28.006Z</time></trkpt><trkpt lat="43.9167083" lon="12.0851067"><ele>541.6666666666666</ele><time>2026-04-06T14:46:29.006Z</time></trkpt><trkpt lat="43.9167583" lon="12.0851633"><ele>542.3333333333334</ele><time>2026-04-06T14:46:30.009Z</time></trkpt><trkpt lat="43.91686" lon="12.0852117"><ele>543.0</ele><time>2026-04-06T14:46:32.008Z</time></trkpt><trkpt lat="43.9169233" lon="12.0851533"><ele>543.0</ele><time>2026-04-06T14:46:34.007Z</time></trkpt><trkpt lat="43.9168967" lon="12.0850317"><ele>543.0</ele><time>2026-04-06T14:46:36.006Z</time></trkpt><trkpt lat="43.9168533" lon="12.0849583"><ele>543.0</ele><time>2026-04-06T14:46:37.012Z</time></trkpt><trkpt lat="43.9168033" lon="12.0848783"><ele>543.0</ele><time>2026-04-06T14:46:38.007Z</time></trkpt><trkpt lat="43.9167583" lon="12.0847883"><ele>543.0</ele><time>2026-04-06T14:46:39.005Z</time></trkpt><trkpt lat="43.9167233" lon="12.08468"><ele>543.0</ele><time>2026-04-06T14:46:40.007Z</time></trkpt><trkpt lat="43.91669" lon="12.0845633"><ele>542.1999999999999</ele><time>2026-04-06T14:46:41.006Z</time></trkpt><trkpt lat="43.9166717" lon="12.0844167"><ele>541.4</ele><time>2026-04-06T14:46:42.008Z</time></trkpt><trkpt lat="43.916655" lon="12.0842633"><ele>540.5999999999999</ele><time>2026-04-06T14:46:43.008Z</time></trkpt><trkpt lat="43.9166367" lon="12.0841217"><ele>539.8</ele><time>2026-04-06T14:46:44.011Z</time></trkpt><trkpt lat="43.9166133" lon="12.0839933"><ele>539.0</ele><time>2026-04-06T14:46:45.006Z</time></trkpt><trkpt lat="43.916575" lon="12.08388"><ele>541.4</ele><time>2026-04-06T14:46:46.006Z</time></trkpt><trkpt lat="43.9165217" lon="12.0837683"><ele>543.8</ele><time>2026-04-06T14:46:47.007Z</time></trkpt><trkpt lat="43.916455" lon="12.083655"><ele>546.2</ele><time>2026-04-06T14:46:48.006Z</time></trkpt><trkpt lat="43.9163867" lon="12.0835317"><ele>548.6</ele><time>2026-04-06T14:46:49.007Z</time></trkpt><trkpt lat="43.9163183" lon="12.0833833"><ele>551.0</ele><time>2026-04-06T14:46:50.007Z</time></trkpt><trkpt lat="43.9162533" lon="12.0832233"><ele>555.2</ele><time>2026-04-06T14:46:51.006Z</time></trkpt><trkpt lat="43.9162" lon="12.083065"><ele>559.4000000000001</ele><time>2026-04-06T14:46:52.01Z</time></trkpt><trkpt lat="43.916155" lon="12.0829217"><ele>563.6</ele><time>2026-04-06T14:46:53.005Z</time></trkpt><trkpt lat="43.916105" lon="12.0828183"><ele>567.8000000000001</ele><time>2026-04-06T14:46:54.007Z</time></trkpt><trkpt lat="43.9160433" lon="12.0827367"><ele>572.0</ele><time>2026-04-06T14:46:55.009Z</time></trkpt><trkpt lat="43.915985" lon="12.0826683"><ele>572.0</ele><time>2026-04-06T14:46:56.008Z</time></trkpt><trkpt lat="43.91592" lon="12.0826167"><ele>572.0</ele><time>2026-04-06T14:46:57.007Z</time></trkpt><trkpt lat="43.915845" lon="12.0825783"><ele>572.0</ele><time>2026-04-06T14:46:58.01Z</time></trkpt><trkpt lat="43.9157117" lon="12.0826517"><ele>572.0</ele><time>2026-04-06T14:46:59.007Z</time></trkpt><trkpt lat="43.9155833" lon="12.0826883"><ele>572.0</ele><time>2026-04-06T14:47:00.007Z</time></trkpt><trkpt lat="43.915455" lon="12.0827333"><ele>570.8000000000001</ele><time>2026-04-06T14:47:01.007Z</time></trkpt><trkpt lat="43.9153383" lon="12.08276"><ele>569.6</ele><time>2026-04-06T14:47:02.006Z</time></trkpt><trkpt lat="43.9152283" lon="12.0827917"><ele>568.4000000000001</ele><time>2026-04-06T14:47:03.008Z</time></trkpt><trkpt lat="43.9151267" lon="12.0828167"><ele>567.2</ele><time>2026-04-06T14:47:04.013Z</time></trkpt><trkpt lat="43.915025" lon="12.0828367"><ele>566.0</ele><time>2026-04-06T14:47:05.007Z</time></trkpt><trkpt lat="43.9149317" lon="12.0828483"><ele>565.3333333333333</ele><time>2026-04-06T14:47:06.007Z</time></trkpt><trkpt lat="43.9148483" lon="12.0828567"><ele>564.6666666666666</ele><time>2026-04-06T14:47:07.006Z</time></trkpt><trkpt lat="43.91478" lon="12.0828517"><ele>564.0</ele><time>2026-04-06T14:47:08.007Z</time></trkpt><trkpt lat="43.914675" lon="12.0827883"><ele>563.3333333333334</ele><time>2026-04-06T14:47:10.005Z</time></trkpt><trkpt lat="43.9146417" lon="12.082675"><ele>562.6666666666667</ele><time>2026-04-06T14:47:12.007Z</time></trkpt><trkpt lat="43.91469" lon="12.0825683"><ele>562.0</ele><time>2026-04-06T14:47:14.013Z</time></trkpt><trkpt lat="43.9148217" lon="12.0825033"><ele>562.0</ele><time>2026-04-06T14:47:16.007Z</time></trkpt><trkpt lat="43.9149117" lon="12.0824567"><ele>562.0</ele><time>2026-04-06T14:47:17.008Z</time></trkpt><trkpt lat="43.9150017" lon="12.0823683"><ele>562.0</ele><time>2026-04-06T14:47:18.01Z</time></trkpt><trkpt lat="43.9150867" lon="12.0822517"><ele>562.0</ele><time>2026-04-06T14:47:19.011Z</time></trkpt><trkpt lat="43.9151812" lon="12.0821108"><ele>566.5</ele><time>2026-04-06T14:47:20.008Z</time></trkpt><trkpt lat="43.9152782" lon="12.0819527"><ele>571.0</ele><time>2026-04-06T14:47:21.007Z</time></trkpt><trkpt lat="43.9153634" lon="12.0818032"><ele>575.5</ele><time>2026-04-06T14:47:22.007Z</time></trkpt><trkpt lat="43.9154268" lon="12.0816587"><ele>580.0</ele><time>2026-04-06T14:47:23.007Z</time></trkpt><trkpt lat="43.915469" lon="12.0815103"><ele>580.0</ele><time>2026-04-06T14:47:24.006Z</time></trkpt><trkpt lat="43.9154985" lon="12.08136"><ele>580.0</ele><time>2026-04-06T14:47:25.008Z</time></trkpt><trkpt lat="43.9155285" lon="12.0812151"><ele>580.0</ele><time>2026-04-06T14:47:26.009Z</time></trkpt><trkpt lat="43.9155679" lon="12.0810693"><ele>580.0</ele><time>2026-04-06T14:47:27.008Z</time></trkpt><trkpt lat="43.9156273" lon="12.0809265"><ele>580.0</ele><time>2026-04-06T14:47:28.007Z</time></trkpt><trkpt lat="43.9156993" lon="12.0807834"><ele>580.0</ele><time>2026-04-06T14:47:29.006Z</time></trkpt><trkpt lat="43.9157834" lon="12.0806379"><ele>580.0</ele><time>2026-04-06T14:47:30.012Z</time></trkpt><trkpt lat="43.9158767" lon="12.0804891"><ele>580.0</ele><time>2026-04-06T14:47:31.008Z</time></trkpt><trkpt lat="43.9159707" lon="12.0803347"><ele>585.75</ele><time>2026-04-06T14:47:32.007Z</time></trkpt><trkpt lat="43.9160631" lon="12.0801857"><ele>591.5</ele><time>2026-04-06T14:47:33.008Z</time></trkpt><trkpt lat="43.9161547" lon="12.0800475"><ele>597.25</ele><time>2026-04-06T14:47:34.009Z</time></trkpt><trkpt lat="43.9162393" lon="12.0799187"><ele>603.0</ele><time>2026-04-06T14:47:35.007Z</time></trkpt><trkpt lat="43.9163182" lon="12.0798014"><ele>603.5</ele><time>2026-04-06T14:47:36.007Z</time></trkpt><trkpt lat="43.9163863" lon="12.0797003"><ele>604.0</ele><time>2026-04-06T14:47:37.009Z</time></trkpt><trkpt lat="43.9164393" lon="12.0796155"><ele>604.5</ele><time>2026-04-06T14:47:38.007Z</time></trkpt><trkpt lat="43.9164695" lon="12.0795305"><ele>605.0</ele><time>2026-04-06T14:47:39.006Z</time></trkpt><trkpt lat="43.9164851" lon="12.079443"><ele>605.5</ele><time>2026-04-06T14:47:40.008Z</time></trkpt><trkpt lat="43.9164555" lon="12.0793391"><ele>606.0</ele><time>2026-04-06T14:47:41.005Z</time></trkpt><trkpt lat="43.9164062" lon="12.0792383"><ele>606.0</ele><time>2026-04-06T14:47:42.011Z</time></trkpt><trkpt lat="43.9163562" lon="12.0791457"><ele>606.0</ele><time>2026-04-06T14:47:43.009Z</time></trkpt><trkpt lat="43.9163161" lon="12.0790477"><ele>606.0</ele><time>2026-04-06T14:47:44.007Z</time></trkpt><trkpt lat="43.9162946" lon="12.0789383"><ele>606.0</ele><time>2026-04-06T14:47:45.006Z</time></trkpt><trkpt lat="43.9162855" lon="12.0788144"><ele>606.0</ele><time>2026-04-06T14:47:46.007Z</time></trkpt><trkpt lat="43.9162897" lon="12.0786771"><ele>606.0</ele><time>2026-04-06T14:47:47.008Z</time></trkpt><trkpt lat="43.9162955" lon="12.0785273"><ele>607.25</ele><time>2026-04-06T14:47:48.006Z</time></trkpt><trkpt lat="43.9162979" lon="12.0783665"><ele>608.5</ele><time>2026-04-06T14:47:49.01Z</time></trkpt><trkpt lat="43.9162892" lon="12.0781963"><ele>609.75</ele><time>2026-04-06T14:47:50.008Z</time></trkpt><trkpt lat="43.9162817" lon="12.0780173"><ele>611.0</ele><time>2026-04-06T14:47:51.008Z</time></trkpt><trkpt lat="43.9162785" lon="12.0778398"><ele>611.25</ele><time>2026-04-06T14:47:52.006Z</time></trkpt><trkpt lat="43.9162732" lon="12.0776718"><ele>611.5</ele><time>2026-04-06T14:47:53.008Z</time></trkpt><trkpt lat="43.9162585" lon="12.0775058"><ele>611.75</ele><time>2026-04-06T14:47:54.009Z</time></trkpt><trkpt lat="43.9162352" lon="12.077332"><ele>612.0</ele><time>2026-04-06T14:47:55.007Z</time></trkpt><trkpt lat="43.9162091" lon="12.0771548"><ele>612.2</ele><time>2026-04-06T14:47:56.012Z</time></trkpt><trkpt lat="43.916179" lon="12.0769908"><ele>612.4000000000001</ele><time>2026-04-06T14:47:57.006Z</time></trkpt><trkpt lat="43.9161444" lon="12.0768528"><ele>612.5999999999999</ele><time>2026-04-06T14:47:58.007Z</time></trkpt><trkpt lat="43.9161117" lon="12.0767288"><ele>612.8</ele><time>2026-04-06T14:47:59.006Z</time></trkpt><trkpt lat="43.9160854" lon="12.076609"><ele>613.0</ele><time>2026-04-06T14:48:00.01Z</time></trkpt><trkpt lat="43.9160704" lon="12.0764957"><ele>613.0</ele><time>2026-04-06T14:48:01.007Z</time></trkpt><trkpt lat="43.916074" lon="12.0763888"><ele>613.0</ele><time>2026-04-06T14:48:02.009Z</time></trkpt><trkpt lat="43.9160962" lon="12.0762864"><ele>613.0</ele><time>2026-04-06T14:48:03.007Z</time></trkpt><trkpt lat="43.9161378" lon="12.0761949"><ele>613.0</ele><time>2026-04-06T14:48:04.006Z</time></trkpt><trkpt lat="43.9161945" lon="12.0761182"><ele>613.0</ele><time>2026-04-06T14:48:05.009Z</time></trkpt><trkpt lat="43.9162733" lon="12.0760584"><ele>613.0</ele><time>2026-04-06T14:48:06.006Z</time></trkpt><trkpt lat="43.9163729" lon="12.0760192"><ele>613.0</ele><time>2026-04-06T14:48:07.007Z</time></trkpt><trkpt lat="43.9164759" lon="12.0759923"><ele>613.0</ele><time>2026-04-06T14:48:08.009Z</time></trkpt><trkpt lat="43.9165791" lon="12.075966"><ele>613.0</ele><time>2026-04-06T14:48:09.007Z</time></trkpt><trkpt lat="43.9166797" lon="12.0759331"><ele>613.0</ele><time>2026-04-06T14:48:10.008Z</time></trkpt><trkpt lat="43.9167754" lon="12.0758898"><ele>613.0</ele><time>2026-04-06T14:48:11.011Z</time></trkpt><trkpt lat="43.9168662" lon="12.0758376"><ele>615.0</ele><time>2026-04-06T14:48:12.008Z</time></trkpt><trkpt lat="43.916953" lon="12.0757819"><ele>617.0</ele><time>2026-04-06T14:48:13.012Z</time></trkpt><trkpt lat="43.9170336" lon="12.075725"><ele>619.0</ele><time>2026-04-06T14:48:14.009Z</time></trkpt><trkpt lat="43.9171142" lon="12.0756664"><ele>621.0</ele><time>2026-04-06T14:48:15.008Z</time></trkpt><trkpt lat="43.917194" lon="12.0756068"><ele>623.0</ele><time>2026-04-06T14:48:16.008Z</time></trkpt><trkpt lat="43.9172743" lon="12.075544"><ele>623.0</ele><time>2026-04-06T14:48:17.006Z</time></trkpt><trkpt lat="43.9173543" lon="12.0754742"><ele>623.0</ele><time>2026-04-06T14:48:18.006Z</time></trkpt><trkpt lat="43.9174342" lon="12.075402"><ele>623.0</ele><time>2026-04-06T14:48:19.007Z</time></trkpt><trkpt lat="43.9175145" lon="12.0753244"><ele>623.0</ele><time>2026-04-06T14:48:20.007Z</time></trkpt><trkpt lat="43.9175861" lon="12.0752385"><ele>623.0</ele><time>2026-04-06T14:48:21.007Z</time></trkpt><trkpt lat="43.9176483" lon="12.0751447"><ele>625.1666666666666</ele><time>2026-04-06T14:48:22.014Z</time></trkpt><trkpt lat="43.9176978" lon="12.0750384"><ele>627.3333333333333</ele><time>2026-04-06T14:48:23.007Z</time></trkpt><trkpt lat="43.9177402" lon="12.0749245"><ele>629.5</ele><time>2026-04-06T14:48:24.007Z</time></trkpt><trkpt lat="43.9177742" lon="12.0748086"><ele>631.6666666666666</ele><time>2026-04-06T14:48:25.007Z</time></trkpt><trkpt lat="43.9178028" lon="12.0746956"><ele>633.8333333333334</ele><time>2026-04-06T14:48:26.007Z</time></trkpt><trkpt lat="43.9178272" lon="12.0745972"><ele>636.0</ele><time>2026-04-06T14:48:27.008Z</time></trkpt><trkpt lat="43.9178814" lon="12.0744638"><ele>636.0</ele><time>2026-04-06T14:48:29.008Z</time></trkpt><trkpt lat="43.9179425" lon="12.0744304"><ele>636.0</ele><time>2026-04-06T14:48:31.009Z</time></trkpt><trkpt lat="43.9179947" lon="12.0745204"><ele>636.0</ele><time>2026-04-06T14:48:33.008Z</time></trkpt><trkpt lat="43.9179964" lon="12.0746863"><ele>636.0</ele><time>2026-04-06T14:48:35.009Z</time></trkpt><trkpt lat="43.9179858" lon="12.074789"><ele>636.0</ele><time>2026-04-06T14:48:36.006Z</time></trkpt><trkpt lat="43.9179685" lon="12.0749053"><ele>636.0</ele><time>2026-04-06T14:48:37.014Z</time></trkpt><trkpt lat="43.9179506" lon="12.0750418"><ele>638.75</ele><time>2026-04-06T14:48:38.007Z</time></trkpt><trkpt lat="43.9179348" lon="12.0752012"><ele>641.5</ele><time>2026-04-06T14:48:39.007Z</time></trkpt><trkpt lat="43.9179196" lon="12.0753692"><ele>644.25</ele><time>2026-04-06T14:48:40.007Z</time></trkpt><trkpt lat="43.9179012" lon="12.0755384"><ele>647.0</ele><time>2026-04-06T14:48:41.007Z</time></trkpt><trkpt lat="43.9178794" lon="12.0756987"><ele>648.75</ele><time>2026-04-06T14:48:42.009Z</time></trkpt><trkpt lat="43.9178577" lon="12.0758578"><ele>650.5</ele><time>2026-04-06T14:48:43.006Z</time></trkpt><trkpt lat="43.9178376" lon="12.0760283"><ele>652.25</ele><time>2026-04-06T14:48:44.007Z</time></trkpt><trkpt lat="43.9178233" lon="12.0762036"><ele>654.0</ele><time>2026-04-06T14:48:45.007Z</time></trkpt><trkpt lat="43.9178138" lon="12.0763764"><ele>654.0</ele><time>2026-04-06T14:48:46.007Z</time></trkpt><trkpt lat="43.9178104" lon="12.0765429"><ele>654.0</ele><time>2026-04-06T14:48:47.006Z</time></trkpt><trkpt lat="43.9178167" lon="12.0767083"><ele>654.0</ele><time>2026-04-06T14:48:48.009Z</time></trkpt><trkpt lat="43.9178318" lon="12.0768731"><ele>654.0</ele><time>2026-04-06T14:48:49.008Z</time></trkpt><trkpt lat="43.9178551" lon="12.0770303"><ele>654.8000000000001</ele><time>2026-04-06T14:48:50.008Z</time></trkpt><trkpt lat="43.9178837" lon="12.0771778"><ele>655.6</ele><time>2026-04-06T14:48:51.007Z</time></trkpt><trkpt lat="43.9179183" lon="12.0773191"><ele>656.4</ele><time>2026-04-06T14:48:52.008Z</time></trkpt><trkpt lat="43.9179544" lon="12.0774684"><ele>657.2</ele><time>2026-04-06T14:48:53.007Z</time></trkpt><trkpt lat="43.9179872" lon="12.0776232"><ele>658.0</ele><time>2026-04-06T14:48:54.006Z</time></trkpt><trkpt lat="43.9180116" lon="12.0777756"><ele>657.8</ele><time>2026-04-06T14:48:55.008Z</time></trkpt><trkpt lat="43.9180319" lon="12.0779224"><ele>657.5999999999999</ele><time>2026-04-06T14:48:56.008Z</time></trkpt><trkpt lat="43.9180559" lon="12.0780515"><ele>657.4000000000001</ele><time>2026-04-06T14:48:57.009Z</time></trkpt><trkpt lat="43.9180883" lon="12.0781567"><ele>657.2</ele><time>2026-04-06T14:48:58.009Z</time></trkpt><trkpt lat="43.9181196" lon="12.0782413"><ele>657.0</ele><time>2026-04-06T14:48:59.008Z</time></trkpt><trkpt lat="43.9182321" lon="12.0783297"><ele>657.0</ele><time>2026-04-06T14:49:01.01Z</time></trkpt><trkpt lat="43.9183191" lon="12.0783435"><ele>657.0</ele><time>2026-04-06T14:49:02.008Z</time></trkpt><trkpt lat="43.9184275" lon="12.0783415"><ele>657.0</ele><time>2026-04-06T14:49:03.007Z</time></trkpt><trkpt lat="43.9185341" lon="12.0783374"><ele>657.0</ele><time>2026-04-06T14:49:04.013Z</time></trkpt><trkpt lat="43.9186203" lon="12.0783487"><ele>657.0</ele><time>2026-04-06T14:49:05.011Z</time></trkpt><trkpt lat="43.9186962" lon="12.0783787"><ele>660.5</ele><time>2026-04-06T14:49:06.008Z</time></trkpt><trkpt lat="43.9187522" lon="12.0784287"><ele>664.0</ele><time>2026-04-06T14:49:07.006Z</time></trkpt><trkpt lat="43.9188034" lon="12.0785742"><ele>667.5</ele><time>2026-04-06T14:49:09.012Z</time></trkpt><trkpt lat="43.918793" lon="12.0786694"><ele>671.0</ele><time>2026-04-06T14:49:10.012Z</time></trkpt><trkpt lat="43.918765" lon="12.0787764"><ele>674.5</ele><time>2026-04-06T14:49:11.009Z</time></trkpt><trkpt lat="43.9187229" lon="12.0788916"><ele>678.0</ele><time>2026-04-06T14:49:12.008Z</time></trkpt><trkpt lat="43.9186682" lon="12.0790153"><ele>681.0</ele><time>2026-04-06T14:49:13.008Z</time></trkpt><trkpt lat="43.9186211" lon="12.079162"><ele>684.0</ele><time>2026-04-06T14:49:14.006Z</time></trkpt><trkpt lat="43.91859" lon="12.0793324"><ele>687.0</ele><time>2026-04-06T14:49:15.007Z</time></trkpt><trkpt lat="43.9185696" lon="12.0795323"><ele>690.0</ele><time>2026-04-06T14:49:16.01Z</time></trkpt><trkpt lat="43.9185566" lon="12.0797451"><ele>690.2</ele><time>2026-04-06T14:49:17.009Z</time></trkpt><trkpt lat="43.9185486" lon="12.0799453"><ele>690.4</ele><time>2026-04-06T14:49:18.007Z</time></trkpt><trkpt lat="43.9185371" lon="12.0801102"><ele>690.5999999999999</ele><time>2026-04-06T14:49:19.007Z</time></trkpt><trkpt lat="43.9185184" lon="12.0802295"><ele>690.8</ele><time>2026-04-06T14:49:20.006Z</time></trkpt><trkpt lat="43.9184926" lon="12.0803174"><ele>691.0</ele><time>2026-04-06T14:49:21.011Z</time></trkpt><trkpt lat="43.9183982" lon="12.0804149"><ele>691.0</ele><time>2026-04-06T14:49:23.008Z</time></trkpt><trkpt lat="43.9183139" lon="12.0804742"><ele>691.0</ele><time>2026-04-06T14:49:25.008Z</time></trkpt><trkpt lat="43.9182767" lon="12.0805497"><ele>691.0</ele><time>2026-04-06T14:49:28.006Z</time></trkpt><trkpt lat="43.9183517" lon="12.0805667"><ele>691.0</ele><time>2026-04-06T14:54:56.006Z</time></trkpt><trkpt lat="43.9184277" lon="12.0805092"><ele>691.0</ele><time>2026-04-06T14:54:58.007Z</time></trkpt><trkpt lat="43.9185225" lon="12.0804351"><ele>691.0</ele><time>2026-04-06T14:55:00.007Z</time></trkpt><trkpt lat="43.9185843" lon="12.0803559"><ele>691.0</ele><time>2026-04-06T14:55:01.007Z</time></trkpt><trkpt lat="43.918652" lon="12.0802822"><ele>691.0</ele><time>2026-04-06T14:55:02.008Z</time></trkpt><trkpt lat="43.9187179" lon="12.0801965"><ele>691.0</ele><time>2026-04-06T14:55:03.006Z</time></trkpt><trkpt lat="43.9187809" lon="12.0800948"><ele>691.0</ele><time>2026-04-06T14:55:04.008Z</time></trkpt><trkpt lat="43.9188387" lon="12.0799765"><ele>691.0</ele><time>2026-04-06T14:55:05.006Z</time></trkpt><trkpt lat="43.9188923" lon="12.0798297"><ele>690.8</ele><time>2026-04-06T14:55:06.007Z</time></trkpt><trkpt lat="43.9189436" lon="12.0796794"><ele>690.5999999999999</ele><time>2026-04-06T14:55:07.008Z</time></trkpt><trkpt lat="43.9189906" lon="12.0795432"><ele>690.4</ele><time>2026-04-06T14:55:08.009Z</time></trkpt><trkpt lat="43.9190378" lon="12.0794232"><ele>690.2</ele><time>2026-04-06T14:55:09.008Z</time></trkpt><trkpt lat="43.9190937" lon="12.0793236"><ele>690.0</ele><time>2026-04-06T14:55:10.006Z</time></trkpt><trkpt lat="43.9191496" lon="12.079239"><ele>690.0</ele><time>2026-04-06T14:55:11.005Z</time></trkpt><trkpt lat="43.9192074" lon="12.0791657"><ele>690.0</ele><time>2026-04-06T14:55:12.006Z</time></trkpt><trkpt lat="43.9192734" lon="12.0791116"><ele>690.0</ele><time>2026-04-06T14:55:13.008Z</time></trkpt><trkpt lat="43.9193511" lon="12.0790622"><ele>690.0</ele><time>2026-04-06T14:55:14.005Z</time></trkpt><trkpt lat="43.9194283" lon="12.0790098"><ele>690.0</ele><time>2026-04-06T14:55:15.012Z</time></trkpt><trkpt lat="43.9194967" lon="12.0789511"><ele>690.0</ele><time>2026-04-06T14:55:16.005Z</time></trkpt><trkpt lat="43.9195549" lon="12.078871"><ele>692.2</ele><time>2026-04-06T14:55:17.006Z</time></trkpt><trkpt lat="43.9196098" lon="12.0787757"><ele>694.4</ele><time>2026-04-06T14:55:18.007Z</time></trkpt><trkpt lat="43.9196668" lon="12.0786701"><ele>696.5999999999999</ele><time>2026-04-06T14:55:19.007Z</time></trkpt><trkpt lat="43.9197312" lon="12.0785559"><ele>698.8</ele><time>2026-04-06T14:55:20.007Z</time></trkpt><trkpt lat="43.9198045" lon="12.0784475"><ele>701.0</ele><time>2026-04-06T14:55:21.008Z</time></trkpt><trkpt lat="43.9198895" lon="12.0783497"><ele>700.75</ele><time>2026-04-06T14:55:22.008Z</time></trkpt><trkpt lat="43.9199827" lon="12.0782565"><ele>700.5</ele><time>2026-04-06T14:55:23.007Z</time></trkpt><trkpt lat="43.9200852" lon="12.0781695"><ele>700.25</ele><time>2026-04-06T14:55:24.008Z</time></trkpt><trkpt lat="43.9201864" lon="12.0780803"><ele>700.0</ele><time>2026-04-06T14:55:25.007Z</time></trkpt><trkpt lat="43.9202792" lon="12.0779986"><ele>703.1428571428571</ele><time>2026-04-06T14:55:26.007Z</time></trkpt><trkpt lat="43.9203524" lon="12.0779333"><ele>706.2857142857142</ele><time>2026-04-06T14:55:27.012Z</time></trkpt><trkpt lat="43.9204083" lon="12.0778701"><ele>709.4285714285714</ele><time>2026-04-06T14:55:28.008Z</time></trkpt><trkpt lat="43.9204485" lon="12.0777986"><ele>712.5714285714286</ele><time>2026-04-06T14:55:29.006Z</time></trkpt><trkpt lat="43.9204662" lon="12.077711"><ele>715.7142857142857</ele><time>2026-04-06T14:55:30.007Z</time></trkpt><trkpt lat="43.9204661" lon="12.0776161"><ele>718.8571428571429</ele><time>2026-04-06T14:55:31.007Z</time></trkpt><trkpt lat="43.9204418" lon="12.0775072"><ele>722.0</ele><time>2026-04-06T14:55:32.006Z</time></trkpt><trkpt lat="43.9204098" lon="12.0773984"><ele>722.0</ele><time>2026-04-06T14:55:33.009Z</time></trkpt><trkpt lat="43.9203804" lon="12.0772865"><ele>722.0</ele><time>2026-04-06T14:55:34.008Z</time></trkpt><trkpt lat="43.9203595" lon="12.0771688"><ele>722.0</ele><time>2026-04-06T14:55:35.007Z</time></trkpt><trkpt lat="43.9203463" lon="12.0770468"><ele>722.0</ele><time>2026-04-06T14:55:36.009Z</time></trkpt><trkpt lat="43.9203448" lon="12.0769287"><ele>722.0</ele><time>2026-04-06T14:55:37.013Z</time></trkpt><trkpt lat="43.9203558" lon="12.076824"><ele>722.0</ele><time>2026-04-06T14:55:38.009Z</time></trkpt><trkpt lat="43.9203818" lon="12.0767382"><ele>722.0</ele><time>2026-04-06T14:55:39.007Z</time></trkpt><trkpt lat="43.9204615" lon="12.0766387"><ele>722.0</ele><time>2026-04-06T14:55:41.007Z</time></trkpt><trkpt lat="43.9205505" lon="12.0766538"><ele>722.0</ele><time>2026-04-06T14:55:43.006Z</time></trkpt><trkpt lat="43.9206191" lon="12.0767984"><ele>722.0</ele><time>2026-04-06T14:55:45.008Z</time></trkpt><trkpt lat="43.920637" lon="12.0769108"><ele>722.0</ele><time>2026-04-06T14:55:46.008Z</time></trkpt><trkpt lat="43.9206535" lon="12.0770522"><ele>722.0</ele><time>2026-04-06T14:55:47.006Z</time></trkpt><trkpt lat="43.9206704" lon="12.0772144"><ele>722.0</ele><time>2026-04-06T14:55:48.008Z</time></trkpt><trkpt lat="43.9206958" lon="12.0774126"><ele>722.0</ele><time>2026-04-06T14:55:49.007Z</time></trkpt><trkpt lat="43.9207234" lon="12.0776113"><ele>722.0</ele><time>2026-04-06T14:55:50.006Z</time></trkpt><trkpt lat="43.9207443" lon="12.077805"><ele>722.25</ele><time>2026-04-06T14:55:51.007Z</time></trkpt><trkpt lat="43.9207487" lon="12.0779866"><ele>722.5</ele><time>2026-04-06T14:55:52.007Z</time></trkpt><trkpt lat="43.9207381" lon="12.0781566"><ele>722.75</ele><time>2026-04-06T14:55:53.008Z</time></trkpt><trkpt lat="43.920723" lon="12.0783272"><ele>723.0</ele><time>2026-04-06T14:55:54.007Z</time></trkpt><trkpt lat="43.920704" lon="12.0785027"><ele>723.2</ele><time>2026-04-06T14:55:55.007Z</time></trkpt><trkpt lat="43.9206838" lon="12.0786756"><ele>723.4</ele><time>2026-04-06T14:55:56.007Z</time></trkpt><trkpt lat="43.9206606" lon="12.0788348"><ele>723.6</ele><time>2026-04-06T14:55:57.008Z</time></trkpt><trkpt lat="43.9206352" lon="12.0789693"><ele>723.8000000000001</ele><time>2026-04-06T14:55:58.009Z</time></trkpt><trkpt lat="43.9206126" lon="12.079072"><ele>724.0</ele><time>2026-04-06T14:55:59.008Z</time></trkpt><trkpt lat="43.9205951" lon="12.0792212"><ele>724.0</ele><time>2026-04-06T14:56:01.007Z</time></trkpt><trkpt lat="43.9206248" lon="12.0793124"><ele>724.0</ele><time>2026-04-06T14:56:03.007Z</time></trkpt><trkpt lat="43.9207135" lon="12.0792539"><ele>724.0</ele><time>2026-04-06T14:56:05.012Z</time></trkpt><trkpt lat="43.9207641" lon="12.0791758"><ele>724.0</ele><time>2026-04-06T14:56:06.01Z</time></trkpt><trkpt lat="43.9208095" lon="12.0790865"><ele>724.0</ele><time>2026-04-06T14:56:07.009Z</time></trkpt><trkpt lat="43.9208609" lon="12.0789965"><ele>724.0</ele><time>2026-04-06T14:56:08.009Z</time></trkpt><trkpt lat="43.9209248" lon="12.078912"><ele>728.8000000000001</ele><time>2026-04-06T14:56:09.009Z</time></trkpt><trkpt lat="43.9209946" lon="12.0788389"><ele>733.6</ele><time>2026-04-06T14:56:10.009Z</time></trkpt><trkpt lat="43.9210758" lon="12.0787835"><ele>738.4</ele><time>2026-04-06T14:56:11.008Z</time></trkpt><trkpt lat="43.921169" lon="12.0787492"><ele>743.2</ele><time>2026-04-06T14:56:12.009Z</time></trkpt><trkpt lat="43.9212805" lon="12.0787395"><ele>748.0</ele><time>2026-04-06T14:56:13.009Z</time></trkpt><trkpt lat="43.9213958" lon="12.0787367"><ele>748.0</ele><time>2026-04-06T14:56:14.01Z</time></trkpt><trkpt lat="43.921513" lon="12.078727"><ele>748.0</ele><time>2026-04-06T14:56:15.01Z</time></trkpt><trkpt lat="43.9216309" lon="12.0787105"><ele>748.0</ele><time>2026-04-06T14:56:16.009Z</time></trkpt><trkpt lat="43.9217509" lon="12.0786859"><ele>748.0</ele><time>2026-04-06T14:56:17.009Z</time></trkpt><trkpt lat="43.9218718" lon="12.0786672"><ele>751.5999999999999</ele><time>2026-04-06T14:56:18.009Z</time></trkpt><trkpt lat="43.9219949" lon="12.0786591"><ele>755.1999999999999</ele><time>2026-04-06T14:56:19.008Z</time></trkpt><trkpt lat="43.9221185" lon="12.0786702"><ele>758.8</ele><time>2026-04-06T14:56:20.009Z</time></trkpt><trkpt lat="43.9222274" lon="12.0786898"><ele>762.4</ele><time>2026-04-06T14:56:21.01Z</time></trkpt><trkpt lat="43.9223181" lon="12.0787095"><ele>766.0</ele><time>2026-04-06T14:56:22.007Z</time></trkpt><trkpt lat="43.9223934" lon="12.0787269"><ele>766.0</ele><time>2026-04-06T14:56:23.006Z</time></trkpt><trkpt lat="43.9224992" lon="12.0787606"><ele>766.0</ele><time>2026-04-06T14:56:25.008Z</time></trkpt><trkpt lat="43.9226036" lon="12.0787847"><ele>766.0</ele><time>2026-04-06T14:56:27.012Z</time></trkpt><trkpt lat="43.9227318" lon="12.0788126"><ele>766.0</ele><time>2026-04-06T14:56:29.007Z</time></trkpt><trkpt lat="43.9228144" lon="12.0788195"><ele>766.0</ele><time>2026-04-06T14:56:30.007Z</time></trkpt><trkpt lat="43.9229064" lon="12.0788262"><ele>767.1999999999999</ele><time>2026-04-06T14:56:31.006Z</time></trkpt><trkpt lat="43.9230064" lon="12.0788473"><ele>768.4</ele><time>2026-04-06T14:56:32.011Z</time></trkpt><trkpt lat="43.9231066" lon="12.0788867"><ele>769.6</ele><time>2026-04-06T14:56:33.008Z</time></trkpt><trkpt lat="43.9232002" lon="12.0789392"><ele>770.8</ele><time>2026-04-06T14:56:34.008Z</time></trkpt><trkpt lat="43.9232833" lon="12.0789978"><ele>772.0</ele><time>2026-04-06T14:56:35.008Z</time></trkpt><trkpt lat="43.923358" lon="12.0790578"><ele>771.8333333333333</ele><time>2026-04-06T14:56:36.008Z</time></trkpt><trkpt lat="43.9234257" lon="12.0791163"><ele>771.6666666666666</ele><time>2026-04-06T14:56:37.008Z</time></trkpt><trkpt lat="43.9234827" lon="12.079183"><ele>771.5</ele><time>2026-04-06T14:56:38.009Z</time></trkpt><trkpt lat="43.9235321" lon="12.0792633"><ele>771.3333333333333</ele><time>2026-04-06T14:56:39.008Z</time></trkpt><trkpt lat="43.9235658" lon="12.0793576"><ele>771.1666666666666</ele><time>2026-04-06T14:56:40.008Z</time></trkpt><trkpt lat="43.9235796" lon="12.0794683"><ele>771.0</ele><time>2026-04-06T14:56:41.007Z</time></trkpt><trkpt lat="43.9235612" lon="12.0795843"><ele>771.0</ele><time>2026-04-06T14:56:42.006Z</time></trkpt><trkpt lat="43.9235213" lon="12.0796973"><ele>771.0</ele><time>2026-04-06T14:56:43.007Z</time></trkpt><trkpt lat="43.9234861" lon="12.0798025"><ele>771.0</ele><time>2026-04-06T14:56:44.008Z</time></trkpt><trkpt lat="43.9234679" lon="12.0798986"><ele>771.0</ele><time>2026-04-06T14:56:45.009Z</time></trkpt><trkpt lat="43.9234713" lon="12.0799885"><ele>771.0</ele><time>2026-04-06T14:56:46.007Z</time></trkpt><trkpt lat="43.9235542" lon="12.0801227"><ele>771.0</ele><time>2026-04-06T14:56:48.006Z</time></trkpt><trkpt lat="43.9236023" lon="12.0801958"><ele>770.0</ele><time>2026-04-06T14:56:49.006Z</time></trkpt><trkpt lat="43.923637" lon="12.0802758"><ele>769.0</ele><time>2026-04-06T14:56:50.008Z</time></trkpt><trkpt lat="43.923652" lon="12.0804409"><ele>768.0</ele><time>2026-04-06T14:56:52.009Z</time></trkpt><trkpt lat="43.9236494" lon="12.0806035"><ele>767.0</ele><time>2026-04-06T14:56:54.008Z</time></trkpt><trkpt lat="43.9237058" lon="12.0807339"><ele>766.0</ele><time>2026-04-06T14:56:56.007Z</time></trkpt><trkpt lat="43.9238366" lon="12.0807842"><ele>763.7142857142857</ele><time>2026-04-06T14:56:58.007Z</time></trkpt><trkpt lat="43.9239138" lon="12.0808041"><ele>761.4285714285713</ele><time>2026-04-06T14:56:59.007Z</time></trkpt><trkpt lat="43.9239859" lon="12.0808364"><ele>759.1428571428571</ele><time>2026-04-06T14:57:00.006Z</time></trkpt><trkpt lat="43.924048" lon="12.0808921"><ele>756.8571428571429</ele><time>2026-04-06T14:57:01.007Z</time></trkpt><trkpt lat="43.9240957" lon="12.0809609"><ele>754.5714285714286</ele><time>2026-04-06T14:57:02.007Z</time></trkpt><trkpt lat="43.9241229" lon="12.081047"><ele>752.2857142857143</ele><time>2026-04-06T14:57:03.008Z</time></trkpt><trkpt lat="43.9241297" lon="12.0811486"><ele>750.0</ele><time>2026-04-06T14:57:04.009Z</time></trkpt><trkpt lat="43.9241216" lon="12.0812545"><ele>750.0</ele><time>2026-04-06T14:57:05.007Z</time></trkpt><trkpt lat="43.9241173" lon="12.0813551"><ele>750.0</ele><time>2026-04-06T14:57:06.011Z</time></trkpt><trkpt lat="43.9241293" lon="12.081457"><ele>750.0</ele><time>2026-04-06T14:57:07.007Z</time></trkpt><trkpt lat="43.9241587" lon="12.0815515"><ele>750.0</ele><time>2026-04-06T14:57:08.008Z</time></trkpt><trkpt lat="43.9242091" lon="12.0816272"><ele>750.0</ele><time>2026-04-06T14:57:09.009Z</time></trkpt><trkpt lat="43.9242804" lon="12.0816833"><ele>750.0</ele><time>2026-04-06T14:57:10.009Z</time></trkpt><trkpt lat="43.924363" lon="12.0817206"><ele>751.0</ele><time>2026-04-06T14:57:11.007Z</time></trkpt><trkpt lat="43.9244376" lon="12.0817531"><ele>752.0</ele><time>2026-04-06T14:57:12.007Z</time></trkpt><trkpt lat="43.9245" lon="12.0817878"><ele>753.0</ele><time>2026-04-06T14:57:13.009Z</time></trkpt><trkpt lat="43.9245767" lon="12.0819167"><ele>754.0</ele><time>2026-04-06T14:57:15.015Z</time></trkpt><trkpt lat="43.9245903" lon="12.0820065"><ele>755.0</ele><time>2026-04-06T14:57:16.009Z</time></trkpt><trkpt lat="43.9246038" lon="12.0820992"><ele>756.0</ele><time>2026-04-06T14:57:17.008Z</time></trkpt><trkpt lat="43.9246294" lon="12.0821835"><ele>756.0</ele><time>2026-04-06T14:57:18.009Z</time></trkpt><trkpt lat="43.9246698" lon="12.0822592"><ele>756.0</ele><time>2026-04-06T14:57:19.008Z</time></trkpt><trkpt lat="43.9247242" lon="12.0823331"><ele>756.0</ele><time>2026-04-06T14:57:20.012Z</time></trkpt><trkpt lat="43.9247894" lon="12.0824145"><ele>756.0</ele><time>2026-04-06T14:57:21.009Z</time></trkpt><trkpt lat="43.9248625" lon="12.0824996"><ele>756.0</ele><time>2026-04-06T14:57:22.009Z</time></trkpt><trkpt lat="43.9249334" lon="12.0825638"><ele>756.0</ele><time>2026-04-06T14:57:23.007Z</time></trkpt><trkpt lat="43.9250044" lon="12.0826032"><ele>752.0</ele><time>2026-04-06T14:57:24.007Z</time></trkpt><trkpt lat="43.9250855" lon="12.0826159"><ele>748.0</ele><time>2026-04-06T14:57:25.007Z</time></trkpt><trkpt lat="43.9251762" lon="12.0826234"><ele>744.0</ele><time>2026-04-06T14:57:26.008Z</time></trkpt><trkpt lat="43.9252732" lon="12.0826404"><ele>740.0</ele><time>2026-04-06T14:57:27.008Z</time></trkpt><trkpt lat="43.9253739" lon="12.0826705"><ele>736.0</ele><time>2026-04-06T14:57:28.01Z</time></trkpt><trkpt lat="43.9254777" lon="12.082715"><ele>736.0</ele><time>2026-04-06T14:57:29.006Z</time></trkpt><trkpt lat="43.9255847" lon="12.082768"><ele>736.0</ele><time>2026-04-06T14:57:30.007Z</time></trkpt><trkpt lat="43.925688" lon="12.0828155"><ele>736.0</ele><time>2026-04-06T14:57:31.007Z</time></trkpt><trkpt lat="43.925783" lon="12.0828544"><ele>736.0</ele><time>2026-04-06T14:57:32.007Z</time></trkpt><trkpt lat="43.9258651" lon="12.0828891"><ele>736.0</ele><time>2026-04-06T14:57:33.009Z</time></trkpt><trkpt lat="43.9259282" lon="12.0829303"><ele>730.5999999999999</ele><time>2026-04-06T14:57:34.008Z</time></trkpt><trkpt lat="43.9259948" lon="12.0830479"><ele>725.2</ele><time>2026-04-06T14:57:36.008Z</time></trkpt><trkpt lat="43.9259964" lon="12.0832117"><ele>719.8</ele><time>2026-04-06T14:57:38.006Z</time></trkpt><trkpt lat="43.9259876" lon="12.0833151"><ele>714.4000000000001</ele><time>2026-04-06T14:57:39.007Z</time></trkpt><trkpt lat="43.9259764" lon="12.0834232"><ele>709.0</ele><time>2026-04-06T14:57:40.007Z</time></trkpt><trkpt lat="43.9259711" lon="12.083536"><ele>709.0</ele><time>2026-04-06T14:57:41.006Z</time></trkpt><trkpt lat="43.9259743" lon="12.0836565"><ele>709.0</ele><time>2026-04-06T14:57:42.01Z</time></trkpt><trkpt lat="43.925985" lon="12.0837954"><ele>709.0</ele><time>2026-04-06T14:57:43.006Z</time></trkpt><trkpt lat="43.925999" lon="12.0839517"><ele>709.0</ele><time>2026-04-06T14:57:44.006Z</time></trkpt><trkpt lat="43.9260093" lon="12.0841205"><ele>709.0</ele><time>2026-04-06T14:57:45.007Z</time></trkpt><trkpt lat="43.9260137" lon="12.0842871"><ele>708.8000000000001</ele><time>2026-04-06T14:57:46.006Z</time></trkpt><trkpt lat="43.9260127" lon="12.0844411"><ele>708.6</ele><time>2026-04-06T14:57:47.006Z</time></trkpt><trkpt lat="43.9260133" lon="12.0845848"><ele>708.4</ele><time>2026-04-06T14:57:48.009Z</time></trkpt><trkpt lat="43.9260308" lon="12.0847177"><ele>708.2</ele><time>2026-04-06T14:57:49.084Z</time></trkpt><trkpt lat="43.9260558" lon="12.0848307"><ele>708.0</ele><time>2026-04-06T14:57:50.006Z</time></trkpt><trkpt lat="43.926103" lon="12.0849517"><ele>709.25</ele><time>2026-04-06T14:57:51.007Z</time></trkpt><trkpt lat="43.9261623" lon="12.0850845"><ele>710.5</ele><time>2026-04-06T14:57:52.006Z</time></trkpt><trkpt lat="43.9262266" lon="12.0852326"><ele>711.75</ele><time>2026-04-06T14:57:53.006Z</time></trkpt><trkpt lat="43.9263018" lon="12.0853873"><ele>713.0</ele><time>2026-04-06T14:57:54.007Z</time></trkpt><trkpt lat="43.9263818" lon="12.0855363"><ele>713.0</ele><time>2026-04-06T14:57:55.007Z</time></trkpt><trkpt lat="43.9264551" lon="12.0856721"><ele>713.0</ele><time>2026-04-06T14:57:56.006Z</time></trkpt><trkpt lat="43.9265084" lon="12.0858003"><ele>713.0</ele><time>2026-04-06T14:57:57.006Z</time></trkpt><trkpt lat="43.9265447" lon="12.0859223"><ele>713.0</ele><time>2026-04-06T14:57:58.008Z</time></trkpt><trkpt lat="43.9265745" lon="12.0860347"><ele>713.0</ele><time>2026-04-06T14:57:59.008Z</time></trkpt><trkpt lat="43.9266124" lon="12.0861338"><ele>714.2857142857142</ele><time>2026-04-06T14:58:00.007Z</time></trkpt><trkpt lat="43.9266519" lon="12.0862149"><ele>715.5714285714287</ele><time>2026-04-06T14:58:01.011Z</time></trkpt><trkpt lat="43.9267011" lon="12.0862743"><ele>716.8571428571429</ele><time>2026-04-06T14:58:02.009Z</time></trkpt><trkpt lat="43.9267625" lon="12.0863119"><ele>718.1428571428571</ele><time>2026-04-06T14:58:03.006Z</time></trkpt><trkpt lat="43.9268385" lon="12.0863309"><ele>719.4285714285713</ele><time>2026-04-06T14:58:04.006Z</time></trkpt><trkpt lat="43.9269179" lon="12.0863402"><ele>720.7142857142858</ele><time>2026-04-06T14:58:05.007Z</time></trkpt><trkpt lat="43.9269938" lon="12.086356"><ele>722.0</ele><time>2026-04-06T14:58:06.007Z</time></trkpt><trkpt lat="43.9270647" lon="12.0863935"><ele>721.2</ele><time>2026-04-06T14:58:07.007Z</time></trkpt><trkpt lat="43.9271232" lon="12.0864616"><ele>720.4000000000001</ele><time>2026-04-06T14:58:08.008Z</time></trkpt><trkpt lat="43.9271749" lon="12.0865567"><ele>719.5999999999999</ele><time>2026-04-06T14:58:09.012Z</time></trkpt><trkpt lat="43.9272191" lon="12.0866743"><ele>718.8</ele><time>2026-04-06T14:58:10.008Z</time></trkpt><trkpt lat="43.9272596" lon="12.0868819"><ele>718.0</ele><time>2026-04-06T14:58:11.007Z</time></trkpt><trkpt lat="43.9272969" lon="12.0870894"><ele>718.0</ele><time>2026-04-06T14:58:12.007Z</time></trkpt><trkpt lat="43.9273315" lon="12.0872693"><ele>718.0</ele><time>2026-04-06T14:58:13.007Z</time></trkpt><trkpt lat="43.9273645" lon="12.0874214"><ele>718.0</ele><time>2026-04-06T14:58:14.007Z</time></trkpt><trkpt lat="43.9273958" lon="12.0875557"><ele>718.0</ele><time>2026-04-06T14:58:15.006Z</time></trkpt><trkpt lat="43.9274379" lon="12.0876794"><ele>718.0</ele><time>2026-04-06T14:58:16.009Z</time></trkpt><trkpt lat="43.9274904" lon="12.0877985"><ele>719.75</ele><time>2026-04-06T14:58:17.006Z</time></trkpt><trkpt lat="43.9275521" lon="12.0879234"><ele>721.5</ele><time>2026-04-06T14:58:18.007Z</time></trkpt><trkpt lat="43.9276248" lon="12.0880527"><ele>723.25</ele><time>2026-04-06T14:58:19.007Z</time></trkpt><trkpt lat="43.9277054" lon="12.0881818"><ele>725.0</ele><time>2026-04-06T14:58:20.01Z</time></trkpt><trkpt lat="43.9277918" lon="12.0883107"><ele>721.8</ele><time>2026-04-06T14:58:21.007Z</time></trkpt><trkpt lat="43.9278782" lon="12.0884237"><ele>718.6</ele><time>2026-04-06T14:58:22.008Z</time></trkpt><trkpt lat="43.9279587" lon="12.0885187"><ele>715.4000000000001</ele><time>2026-04-06T14:58:23.009Z</time></trkpt><trkpt lat="43.9280342" lon="12.088609"><ele>712.2</ele><time>2026-04-06T14:58:24.006Z</time></trkpt><trkpt lat="43.9281035" lon="12.0887074"><ele>709.0</ele><time>2026-04-06T14:58:25.007Z</time></trkpt><trkpt lat="43.9281619" lon="12.088824"><ele>709.0</ele><time>2026-04-06T14:58:26.008Z</time></trkpt><trkpt lat="43.9282101" lon="12.0889575"><ele>709.0</ele><time>2026-04-06T14:58:27.007Z</time></trkpt><trkpt lat="43.9282553" lon="12.0891014"><ele>709.0</ele><time>2026-04-06T14:58:28.009Z</time></trkpt><trkpt lat="43.9282993" lon="12.089241"><ele>709.0</ele><time>2026-04-06T14:58:29.007Z</time></trkpt><trkpt lat="43.9283399" lon="12.0893686"><ele>709.0</ele><time>2026-04-06T14:58:30.006Z</time></trkpt><trkpt lat="43.9283741" lon="12.0894843"><ele>708.8333333333334</ele><time>2026-04-06T14:58:31.006Z</time></trkpt><trkpt lat="43.9284021" lon="12.0895867"><ele>708.6666666666667</ele><time>2026-04-06T14:58:32.007Z</time></trkpt><trkpt lat="43.9284327" lon="12.0896739"><ele>708.5</ele><time>2026-04-06T14:58:33.008Z</time></trkpt><trkpt lat="43.9284749" lon="12.0897463"><ele>708.3333333333334</ele><time>2026-04-06T14:58:34.006Z</time></trkpt><trkpt lat="43.9285326" lon="12.0898081"><ele>708.1666666666666</ele><time>2026-04-06T14:58:35.006Z</time></trkpt><trkpt lat="43.9286119" lon="12.0898638"><ele>708.0</ele><time>2026-04-06T14:58:36.007Z</time></trkpt><trkpt lat="43.9286937" lon="12.0899199"><ele>711.8</ele><time>2026-04-06T14:58:37.006Z</time></trkpt><trkpt lat="43.9287721" lon="12.08998"><ele>715.5999999999999</ele><time>2026-04-06T14:58:38.006Z</time></trkpt><trkpt lat="43.9288441" lon="12.0900524"><ele>719.4000000000001</ele><time>2026-04-06T14:58:39.006Z</time></trkpt><trkpt lat="43.9289049" lon="12.0901432"><ele>723.2</ele><time>2026-04-06T14:58:40.009Z</time></trkpt><trkpt lat="43.9289538" lon="12.0902502"><ele>727.0</ele><time>2026-04-06T14:58:41.006Z</time></trkpt><trkpt lat="43.9289769" lon="12.0903879"><ele>727.0</ele><time>2026-04-06T14:58:42.008Z</time></trkpt><trkpt lat="43.9289894" lon="12.0905472"><ele>727.0</ele><time>2026-04-06T14:58:43.006Z</time></trkpt><trkpt lat="43.9290012" lon="12.0907063"><ele>727.0</ele><time>2026-04-06T14:58:44.007Z</time></trkpt><trkpt lat="43.9290197" lon="12.0908565"><ele>727.0</ele><time>2026-04-06T14:58:45.007Z</time></trkpt><trkpt lat="43.9290399" lon="12.0909934"><ele>727.0</ele><time>2026-04-06T14:58:46.007Z</time></trkpt><trkpt lat="43.9290607" lon="12.0911119"><ele>725.3333333333334</ele><time>2026-04-06T14:58:47.007Z</time></trkpt><trkpt lat="43.9290779" lon="12.0912081"><ele>723.6666666666667</ele><time>2026-04-06T14:58:48.006Z</time></trkpt><trkpt lat="43.929123" lon="12.0913506"><ele>722.0</ele><time>2026-04-06T14:58:50.005Z</time></trkpt><trkpt lat="43.9291999" lon="12.091432"><ele>720.3333333333334</ele><time>2026-04-06T14:58:52.007Z</time></trkpt><trkpt lat="43.9292667" lon="12.0914283"><ele>718.6666666666666</ele><time>2026-04-06T14:58:53.006Z</time></trkpt><trkpt lat="43.9293367" lon="12.0914217"><ele>717.0</ele><time>2026-04-06T14:58:54.006Z</time></trkpt><trkpt lat="43.9294167" lon="12.0913983"><ele>715.8333333333334</ele><time>2026-04-06T14:58:55.008Z</time></trkpt><trkpt lat="43.9295017" lon="12.0913867"><ele>714.6666666666666</ele><time>2026-04-06T14:58:56.006Z</time></trkpt><trkpt lat="43.92958" lon="12.0914"><ele>713.5</ele><time>2026-04-06T14:58:57.006Z</time></trkpt><trkpt lat="43.929655" lon="12.091425"><ele>712.3333333333333</ele><time>2026-04-06T14:58:58.006Z</time></trkpt><trkpt lat="43.9297367" lon="12.0914733"><ele>711.1666666666666</ele><time>2026-04-06T14:58:59.007Z</time></trkpt><trkpt lat="43.9298117" lon="12.0915483"><ele>710.0</ele><time>2026-04-06T14:59:00.005Z</time></trkpt><trkpt lat="43.9298817" lon="12.0916517"><ele>710.0</ele><time>2026-04-06T14:59:01.007Z</time></trkpt><trkpt lat="43.9299533" lon="12.0917433"><ele>710.0</ele><time>2026-04-06T14:59:02.005Z</time></trkpt><trkpt lat="43.9300283" lon="12.0918217"><ele>710.0</ele><time>2026-04-06T14:59:03.008Z</time></trkpt><trkpt lat="43.9301083" lon="12.091895"><ele>710.0</ele><time>2026-04-06T14:59:04.009Z</time></trkpt><trkpt lat="43.9301917" lon="12.0919633"><ele>710.0</ele><time>2026-04-06T14:59:05.006Z</time></trkpt><trkpt lat="43.9302817" lon="12.09202"><ele>712.0</ele><time>2026-04-06T14:59:06.006Z</time></trkpt><trkpt lat="43.93038" lon="12.0920717"><ele>714.0</ele><time>2026-04-06T14:59:07.007Z</time></trkpt><trkpt lat="43.9304767" lon="12.0921233"><ele>716.0</ele><time>2026-04-06T14:59:08.006Z</time></trkpt><trkpt lat="43.9305633" lon="12.0921817"><ele>718.0</ele><time>2026-04-06T14:59:09.005Z</time></trkpt><trkpt lat="43.930635" lon="12.092245"><ele>720.0</ele><time>2026-04-06T14:59:10.006Z</time></trkpt><trkpt lat="43.9307017" lon="12.0923183"><ele>720.0</ele><time>2026-04-06T14:59:11.006Z</time></trkpt><trkpt lat="43.9307583" lon="12.0924017"><ele>720.0</ele><time>2026-04-06T14:59:12.005Z</time></trkpt><trkpt lat="43.9308217" lon="12.0925017"><ele>720.0</ele><time>2026-04-06T14:59:13.012Z</time></trkpt><trkpt lat="43.930895" lon="12.0925967"><ele>720.0</ele><time>2026-04-06T14:59:14.005Z</time></trkpt><trkpt lat="43.9309717" lon="12.0926683"><ele>720.0</ele><time>2026-04-06T14:59:15.007Z</time></trkpt><trkpt lat="43.93102" lon="12.0927333"><ele>720.0</ele><time>2026-04-06T14:59:16.006Z</time></trkpt><trkpt lat="43.9310617" lon="12.0928133"><ele>716.1666666666666</ele><time>2026-04-06T14:59:17.007Z</time></trkpt><trkpt lat="43.93108" lon="12.09291"><ele>712.3333333333334</ele><time>2026-04-06T14:59:18.008Z</time></trkpt><trkpt lat="43.9310817" lon="12.093005"><ele>708.5</ele><time>2026-04-06T14:59:19.008Z</time></trkpt><trkpt lat="43.9310617" lon="12.0931133"><ele>704.6666666666667</ele><time>2026-04-06T14:59:20.007Z</time></trkpt><trkpt lat="43.931015" lon="12.0932267"><ele>700.8333333333334</ele><time>2026-04-06T14:59:21.007Z</time></trkpt><trkpt lat="43.9309517" lon="12.0933367"><ele>697.0</ele><time>2026-04-06T14:59:22.006Z</time></trkpt><trkpt lat="43.9308917" lon="12.0934433"><ele>698.5</ele><time>2026-04-06T14:59:23.007Z</time></trkpt><trkpt lat="43.930825" lon="12.0935383"><ele>700.0</ele><time>2026-04-06T14:59:24.005Z</time></trkpt><trkpt lat="43.9307633" lon="12.0936167"><ele>701.5</ele><time>2026-04-06T14:59:25.007Z</time></trkpt><trkpt lat="43.9307" lon="12.0936733"><ele>703.0</ele><time>2026-04-06T14:59:26.007Z</time></trkpt><trkpt lat="43.9306267" lon="12.0937"><ele>704.5</ele><time>2026-04-06T14:59:27.008Z</time></trkpt><trkpt lat="43.9305528" lon="12.0937163"><ele>706.0</ele><time>2026-04-06T14:59:28.008Z</time></trkpt><trkpt lat="43.9304849" lon="12.0937248"><ele>706.0</ele><time>2026-04-06T14:59:29.006Z</time></trkpt><trkpt lat="43.9303679" lon="12.0937517"><ele>706.0</ele><time>2026-04-06T14:59:31.009Z</time></trkpt><trkpt lat="43.9302968" lon="12.0938271"><ele>706.0</ele><time>2026-04-06T14:59:33.007Z</time></trkpt><trkpt lat="43.9303203" lon="12.093932"><ele>706.0</ele><time>2026-04-06T14:59:36.008Z</time></trkpt><trkpt lat="43.9303835" lon="12.093949"><ele>706.0</ele><time>2026-04-06T14:59:37.009Z</time></trkpt><trkpt lat="43.9304643" lon="12.0939615"><ele>706.0</ele><time>2026-04-06T14:59:38.008Z</time></trkpt><trkpt lat="43.9305415" lon="12.093982"><ele>706.0</ele><time>2026-04-06T14:59:39.007Z</time></trkpt><trkpt lat="43.9306139" lon="12.0940086"><ele>706.0</ele><time>2026-04-06T14:59:40.006Z</time></trkpt><trkpt lat="43.9306828" lon="12.0940352"><ele>706.0</ele><time>2026-04-06T14:59:41.007Z</time></trkpt><trkpt lat="43.9307486" lon="12.0940558"><ele>706.0</ele><time>2026-04-06T14:59:42.006Z</time></trkpt><trkpt lat="43.9308137" lon="12.0940637"><ele>706.0</ele><time>2026-04-06T14:59:43.01Z</time></trkpt><trkpt lat="43.9308777" lon="12.0940554"><ele>706.0</ele><time>2026-04-06T14:59:44.007Z</time></trkpt><trkpt lat="43.9309418" lon="12.0940379"><ele>706.0</ele><time>2026-04-06T14:59:45.009Z</time></trkpt><trkpt lat="43.9310052" lon="12.0940131"><ele>702.75</ele><time>2026-04-06T14:59:46.008Z</time></trkpt><trkpt lat="43.9311211" lon="12.0939538"><ele>699.5</ele><time>2026-04-06T14:59:48.007Z</time></trkpt><trkpt lat="43.9312194" lon="12.0938785"><ele>696.25</ele><time>2026-04-06T14:59:50.006Z</time></trkpt><trkpt lat="43.9313171" lon="12.0938039"><ele>693.0</ele><time>2026-04-06T14:59:52.008Z</time></trkpt><trkpt lat="43.9314277" lon="12.0938167"><ele>693.0</ele><time>2026-04-06T14:59:54.007Z</time></trkpt><trkpt lat="43.9315568" lon="12.0938585"><ele>693.0</ele><time>2026-04-06T14:59:56.006Z</time></trkpt><trkpt lat="43.9316266" lon="12.0938786"><ele>693.0</ele><time>2026-04-06T14:59:57.007Z</time></trkpt><trkpt lat="43.9316987" lon="12.0938958"><ele>693.0</ele><time>2026-04-06T14:59:58.008Z</time></trkpt><trkpt lat="43.9317718" lon="12.0939084"><ele>693.0</ele><time>2026-04-06T14:59:59.007Z</time></trkpt><trkpt lat="43.931848" lon="12.0939253"><ele>693.0</ele><time>2026-04-06T15:00:00.007Z</time></trkpt><trkpt lat="43.9319322" lon="12.0939528"><ele>687.0</ele><time>2026-04-06T15:00:01.006Z</time></trkpt><trkpt lat="43.9320237" lon="12.0940005"><ele>681.0</ele><time>2026-04-06T15:00:02.007Z</time></trkpt><trkpt lat="43.9321181" lon="12.0940539"><ele>675.0</ele><time>2026-04-06T15:00:03.008Z</time></trkpt><trkpt lat="43.9322163" lon="12.0941019"><ele>669.0</ele><time>2026-04-06T15:00:04.012Z</time></trkpt><trkpt lat="43.9323108" lon="12.09414"><ele>663.0</ele><time>2026-04-06T15:00:05.005Z</time></trkpt><trkpt lat="43.9323961" lon="12.0941699"><ele>663.0</ele><time>2026-04-06T15:00:06.006Z</time></trkpt><trkpt lat="43.9324799" lon="12.0941933"><ele>663.0</ele><time>2026-04-06T15:00:07.006Z</time></trkpt><trkpt lat="43.9325655" lon="12.0942129"><ele>663.0</ele><time>2026-04-06T15:00:08.009Z</time></trkpt><trkpt lat="43.932649" lon="12.0942225"><ele>663.0</ele><time>2026-04-06T15:00:09.005Z</time></trkpt><trkpt lat="43.9327305" lon="12.0942246"><ele>663.0</ele><time>2026-04-06T15:00:10.007Z</time></trkpt><trkpt lat="43.9328095" lon="12.0942305"><ele>663.0</ele><time>2026-04-06T15:00:11.008Z</time></trkpt><trkpt lat="43.9328869" lon="12.0942507"><ele>658.8</ele><time>2026-04-06T15:00:12.006Z</time></trkpt><trkpt lat="43.9329581" lon="12.0942923"><ele>654.5999999999999</ele><time>2026-04-06T15:00:13.008Z</time></trkpt><trkpt lat="43.9330278" lon="12.0943623"><ele>650.4000000000001</ele><time>2026-04-06T15:00:14.006Z</time></trkpt><trkpt lat="43.9331058" lon="12.0944482"><ele>646.2</ele><time>2026-04-06T15:00:15.015Z</time></trkpt><trkpt lat="43.933196" lon="12.0945362"><ele>642.0</ele><time>2026-04-06T15:00:16.006Z</time></trkpt><trkpt lat="43.9332967" lon="12.0946137"><ele>638.8000000000001</ele><time>2026-04-06T15:00:17.006Z</time></trkpt><trkpt lat="43.9333969" lon="12.0946671"><ele>635.6</ele><time>2026-04-06T15:00:18.007Z</time></trkpt><trkpt lat="43.9334941" lon="12.0947051"><ele>632.4000000000001</ele><time>2026-04-06T15:00:19.006Z</time></trkpt><trkpt lat="43.9335922" lon="12.0947431"><ele>629.2</ele><time>2026-04-06T15:00:20.009Z</time></trkpt><trkpt lat="43.9336918" lon="12.0947838"><ele>626.0</ele><time>2026-04-06T15:00:21.01Z</time></trkpt><trkpt lat="43.9337929" lon="12.0948315"><ele>626.0</ele><time>2026-04-06T15:00:22.006Z</time></trkpt><trkpt lat="43.933889" lon="12.0948827"><ele>626.0</ele><time>2026-04-06T15:00:23.007Z</time></trkpt><trkpt lat="43.9339757" lon="12.0949319"><ele>626.0</ele><time>2026-04-06T15:00:24.005Z</time></trkpt><trkpt lat="43.934058" lon="12.0949852"><ele>626.0</ele><time>2026-04-06T15:00:25.007Z</time></trkpt><trkpt lat="43.9341376" lon="12.0950457"><ele>626.0</ele><time>2026-04-06T15:00:26.009Z</time></trkpt><trkpt lat="43.9342129" lon="12.0951231"><ele>624.5</ele><time>2026-04-06T15:00:27.008Z</time></trkpt><trkpt lat="43.9342792" lon="12.0952059"><ele>623.0</ele><time>2026-04-06T15:00:28.006Z</time></trkpt><trkpt lat="43.9343397" lon="12.0952823"><ele>621.5</ele><time>2026-04-06T15:00:29.006Z</time></trkpt><trkpt lat="43.9343998" lon="12.0953563"><ele>620.0</ele><time>2026-04-06T15:00:30.01Z</time></trkpt><trkpt lat="43.9344548" lon="12.0954333"><ele>618.5</ele><time>2026-04-06T15:00:31.006Z</time></trkpt><trkpt lat="43.9345143" lon="12.095511"><ele>617.0</ele><time>2026-04-06T15:00:32.008Z</time></trkpt><trkpt lat="43.9345772" lon="12.0955747"><ele>617.0</ele><time>2026-04-06T15:00:33.007Z</time></trkpt><trkpt lat="43.9346533" lon="12.095615"><ele>617.0</ele><time>2026-04-06T15:00:34.01Z</time></trkpt><trkpt lat="43.9347433" lon="12.0956517"><ele>617.0</ele><time>2026-04-06T15:00:35.006Z</time></trkpt><trkpt lat="43.9348333" lon="12.0956817"><ele>617.0</ele><time>2026-04-06T15:00:36.007Z</time></trkpt><trkpt lat="43.93492" lon="12.0957233"><ele>617.0</ele><time>2026-04-06T15:00:37.007Z</time></trkpt><trkpt lat="43.9350083" lon="12.095765"><ele>621.6</ele><time>2026-04-06T15:00:38.006Z</time></trkpt><trkpt lat="43.9351017" lon="12.0958133"><ele>626.2</ele><time>2026-04-06T15:00:39.007Z</time></trkpt><trkpt lat="43.9352" lon="12.0958767"><ele>630.8</ele><time>2026-04-06T15:00:40.006Z</time></trkpt><trkpt lat="43.9352917" lon="12.095955"><ele>635.4</ele><time>2026-04-06T15:00:41.007Z</time></trkpt><trkpt lat="43.935375" lon="12.0960383"><ele>640.0</ele><time>2026-04-06T15:00:42.007Z</time></trkpt><trkpt lat="43.9354467" lon="12.0961167"><ele>640.0</ele><time>2026-04-06T15:00:43.008Z</time></trkpt><trkpt lat="43.9355083" lon="12.0961917"><ele>640.0</ele><time>2026-04-06T15:00:44.007Z</time></trkpt><trkpt lat="43.935565" lon="12.096255"><ele>640.0</ele><time>2026-04-06T15:00:45.006Z</time></trkpt><trkpt lat="43.9356283" lon="12.09631"><ele>640.0</ele><time>2026-04-06T15:00:46.007Z</time></trkpt><trkpt lat="43.9356883" lon="12.0963633"><ele>640.0</ele><time>2026-04-06T15:00:47.006Z</time></trkpt><trkpt lat="43.9357367" lon="12.0964283"><ele>640.0</ele><time>2026-04-06T15:00:48.007Z</time></trkpt><trkpt lat="43.93577" lon="12.09651"><ele>640.0</ele><time>2026-04-06T15:00:49.006Z</time></trkpt><trkpt lat="43.935805" lon="12.096615"><ele>639.4</ele><time>2026-04-06T15:00:50.006Z</time></trkpt><trkpt lat="43.9358367" lon="12.0967333"><ele>638.8</ele><time>2026-04-06T15:00:51.007Z</time></trkpt><trkpt lat="43.93588" lon="12.0968733"><ele>638.2</ele><time>2026-04-06T15:00:52.007Z</time></trkpt><trkpt lat="43.9359333" lon="12.09701"><ele>637.6</ele><time>2026-04-06T15:00:53.008Z</time></trkpt><trkpt lat="43.9359883" lon="12.09713"><ele>637.0</ele><time>2026-04-06T15:00:54.009Z</time></trkpt><trkpt lat="43.9360433" lon="12.0972233"><ele>640.6666666666667</ele><time>2026-04-06T15:00:55.008Z</time></trkpt><trkpt lat="43.9361" lon="12.0972917"><ele>644.3333333333334</ele><time>2026-04-06T15:00:56.008Z</time></trkpt><trkpt lat="43.936165" lon="12.09734"><ele>648.0</ele><time>2026-04-06T15:00:57.008Z</time></trkpt><trkpt lat="43.9362783" lon="12.09729"><ele>651.6666666666666</ele><time>2026-04-06T15:00:59.007Z</time></trkpt><trkpt lat="43.9363483" lon="12.0972483"><ele>655.3333333333333</ele><time>2026-04-06T15:01:00.009Z</time></trkpt><trkpt lat="43.9364317" lon="12.0972067"><ele>659.0</ele><time>2026-04-06T15:01:01.008Z</time></trkpt><trkpt lat="43.9365283" lon="12.0971867"><ele>659.0</ele><time>2026-04-06T15:01:02.006Z</time></trkpt><trkpt lat="43.9366383" lon="12.0971883"><ele>659.0</ele><time>2026-04-06T15:01:03.006Z</time></trkpt><trkpt lat="43.93675" lon="12.09721"><ele>659.0</ele><time>2026-04-06T15:01:04.006Z</time></trkpt><trkpt lat="43.9368617" lon="12.09724"><ele>659.0</ele><time>2026-04-06T15:01:05.007Z</time></trkpt><trkpt lat="43.936975" lon="12.09727"><ele>653.8000000000001</ele><time>2026-04-06T15:01:06.012Z</time></trkpt><trkpt lat="43.9370817" lon="12.0973017"><ele>648.6</ele><time>2026-04-06T15:01:07.008Z</time></trkpt><trkpt lat="43.9371833" lon="12.0973317"><ele>643.4</ele><time>2026-04-06T15:01:08.007Z</time></trkpt><trkpt lat="43.9372733" lon="12.0973667"><ele>638.2</ele><time>2026-04-06T15:01:09.006Z</time></trkpt><trkpt lat="43.9373583" lon="12.0974167"><ele>633.0</ele><time>2026-04-06T15:01:10.009Z</time></trkpt><trkpt lat="43.9374317" lon="12.0974817"><ele>632.5</ele><time>2026-04-06T15:01:11.009Z</time></trkpt><trkpt lat="43.9375" lon="12.0975533"><ele>632.0</ele><time>2026-04-06T15:01:12.006Z</time></trkpt><trkpt lat="43.937565" lon="12.097625"><ele>631.5</ele><time>2026-04-06T15:01:13.007Z</time></trkpt><trkpt lat="43.9376283" lon="12.0976933"><ele>631.0</ele><time>2026-04-06T15:01:14.006Z</time></trkpt><trkpt lat="43.9376967" lon="12.0977583"><ele>630.5</ele><time>2026-04-06T15:01:15.009Z</time></trkpt><trkpt lat="43.9377733" lon="12.0978167"><ele>630.0</ele><time>2026-04-06T15:01:16.009Z</time></trkpt><trkpt lat="43.9378467" lon="12.0978583"><ele>627.5</ele><time>2026-04-06T15:01:17.007Z</time></trkpt><trkpt lat="43.9379267" lon="12.097905"><ele>625.0</ele><time>2026-04-06T15:01:18.007Z</time></trkpt><trkpt lat="43.9380033" lon="12.09795"><ele>622.5</ele><time>2026-04-06T15:01:19.006Z</time></trkpt><trkpt lat="43.93807" lon="12.0980067"><ele>620.0</ele><time>2026-04-06T15:01:20.01Z</time></trkpt><trkpt lat="43.9381217" lon="12.0980667"><ele>617.5</ele><time>2026-04-06T15:01:21.006Z</time></trkpt><trkpt lat="43.9381917" lon="12.098185"><ele>615.0</ele><time>2026-04-06T15:01:23.006Z</time></trkpt><trkpt lat="43.9382517" lon="12.0982667"><ele>615.0</ele><time>2026-04-06T15:01:25.009Z</time></trkpt><trkpt lat="43.9383583" lon="12.0982767"><ele>615.0</ele><time>2026-04-06T15:01:27.01Z</time></trkpt><trkpt lat="43.9384267" lon="12.0982433"><ele>615.0</ele><time>2026-04-06T15:01:28.006Z</time></trkpt><trkpt lat="43.9384967" lon="12.0982133"><ele>615.0</ele><time>2026-04-06T15:01:29.006Z</time></trkpt><trkpt lat="43.9385667" lon="12.0982033"><ele>615.0</ele><time>2026-04-06T15:01:30.007Z</time></trkpt><trkpt lat="43.9386417" lon="12.0982167"><ele>615.0</ele><time>2026-04-06T15:01:31.008Z</time></trkpt><trkpt lat="43.938725" lon="12.0982583"><ele>614.4</ele><time>2026-04-06T15:01:32.007Z</time></trkpt><trkpt lat="43.9388133" lon="12.098315"><ele>613.8</ele><time>2026-04-06T15:01:33.009Z</time></trkpt><trkpt lat="43.9389083" lon="12.0983867"><ele>613.2</ele><time>2026-04-06T15:01:34.008Z</time></trkpt><trkpt lat="43.939" lon="12.0984667"><ele>612.6</ele><time>2026-04-06T15:01:35.008Z</time></trkpt><trkpt lat="43.9390917" lon="12.0985517"><ele>612.0</ele><time>2026-04-06T15:01:36.006Z</time></trkpt><trkpt lat="43.9391783" lon="12.0986333"><ele>615.2</ele><time>2026-04-06T15:01:37.008Z</time></trkpt><trkpt lat="43.9392567" lon="12.098715"><ele>618.4000000000001</ele><time>2026-04-06T15:01:38.005Z</time></trkpt><trkpt lat="43.9393183" lon="12.0988"><ele>621.5999999999999</ele><time>2026-04-06T15:01:39.009Z</time></trkpt><trkpt lat="43.9393633" lon="12.0988933"><ele>624.8</ele><time>2026-04-06T15:01:40.007Z</time></trkpt><trkpt lat="43.9394017" lon="12.0990017"><ele>628.0</ele><time>2026-04-06T15:01:41.007Z</time></trkpt><trkpt lat="43.9394433" lon="12.0991283"><ele>628.0</ele><time>2026-04-06T15:01:42.006Z</time></trkpt><trkpt lat="43.9394867" lon="12.099265"><ele>628.0</ele><time>2026-04-06T15:01:43.012Z</time></trkpt><trkpt lat="43.939535" lon="12.0994033"><ele>628.0</ele><time>2026-04-06T15:01:44.007Z</time></trkpt><trkpt lat="43.9395817" lon="12.0995433"><ele>628.0</ele><time>2026-04-06T15:01:45.009Z</time></trkpt><trkpt lat="43.9396283" lon="12.0996767"><ele>628.0</ele><time>2026-04-06T15:01:46.008Z</time></trkpt><trkpt lat="43.9396783" lon="12.0997967"><ele>628.0</ele><time>2026-04-06T15:01:47.007Z</time></trkpt><trkpt lat="43.939735" lon="12.099915"><ele>628.0</ele><time>2026-04-06T15:01:48.009Z</time></trkpt><trkpt lat="43.939785" lon="12.100045"><ele>628.0</ele><time>2026-04-06T15:01:49.006Z</time></trkpt><trkpt lat="43.9398283" lon="12.10018"><ele>628.0</ele><time>2026-04-06T15:01:50.008Z</time></trkpt><trkpt lat="43.9398583" lon="12.1003083"><ele>628.0</ele><time>2026-04-06T15:01:51.008Z</time></trkpt><trkpt lat="43.939875" lon="12.1004333"><ele>625.1666666666667</ele><time>2026-04-06T15:01:52.006Z</time></trkpt><trkpt lat="43.9398883" lon="12.1005517"><ele>622.3333333333334</ele><time>2026-04-06T15:01:53.006Z</time></trkpt><trkpt lat="43.9399117" lon="12.1006617"><ele>619.5</ele><time>2026-04-06T15:01:54.006Z</time></trkpt><trkpt lat="43.9399467" lon="12.1007617"><ele>616.6666666666666</ele><time>2026-04-06T15:01:55.007Z</time></trkpt><trkpt lat="43.93999" lon="12.1008533"><ele>613.8333333333333</ele><time>2026-04-06T15:01:56.006Z</time></trkpt><trkpt lat="43.94003" lon="12.100935"><ele>611.0</ele><time>2026-04-06T15:01:57.007Z</time></trkpt><trkpt lat="43.9400583" lon="12.10102"><ele>609.8571428571429</ele><time>2026-04-06T15:01:58.011Z</time></trkpt><trkpt lat="43.9400767" lon="12.1011133"><ele>608.7142857142858</ele><time>2026-04-06T15:01:59.007Z</time></trkpt><trkpt lat="43.940085" lon="12.1012083"><ele>607.5714285714287</ele><time>2026-04-06T15:02:00.015Z</time></trkpt><trkpt lat="43.9400683" lon="12.1013"><ele>606.4285714285714</ele><time>2026-04-06T15:02:01.007Z</time></trkpt><trkpt lat="43.9400367" lon="12.1013883"><ele>605.2857142857142</ele><time>2026-04-06T15:02:02.008Z</time></trkpt><trkpt lat="43.939995" lon="12.10147"><ele>604.1428571428572</ele><time>2026-04-06T15:02:03.008Z</time></trkpt><trkpt lat="43.9399617" lon="12.10156"><ele>603.0</ele><time>2026-04-06T15:02:04.006Z</time></trkpt><trkpt lat="43.93994" lon="12.1016567"><ele>602.1428571428572</ele><time>2026-04-06T15:02:05.007Z</time></trkpt><trkpt lat="43.939935" lon="12.1017483"><ele>601.2857142857142</ele><time>2026-04-06T15:02:06.006Z</time></trkpt><trkpt lat="43.93994" lon="12.10184"><ele>600.4285714285714</ele><time>2026-04-06T15:02:07.008Z</time></trkpt><trkpt lat="43.9399517" lon="12.1019283"><ele>599.5714285714287</ele><time>2026-04-06T15:02:08.007Z</time></trkpt><trkpt lat="43.9399617" lon="12.102015"><ele>598.7142857142858</ele><time>2026-04-06T15:02:09.008Z</time></trkpt><trkpt lat="43.93997" lon="12.102105"><ele>597.8571428571429</ele><time>2026-04-06T15:02:10.009Z</time></trkpt><trkpt lat="43.9399667" lon="12.102205"><ele>597.0</ele><time>2026-04-06T15:02:11.006Z</time></trkpt><trkpt lat="43.9399533" lon="12.1023017"><ele>597.0000000000001</ele><time>2026-04-06T15:02:12.009Z</time></trkpt><trkpt lat="43.9399417" lon="12.102395"><ele>597.0</ele><time>2026-04-06T15:02:13.008Z</time></trkpt><trkpt lat="43.9399317" lon="12.1024867"><ele>597.0</ele><time>2026-04-06T15:02:14.006Z</time></trkpt><trkpt lat="43.9399233" lon="12.1025817"><ele>597.0</ele><time>2026-04-06T15:02:15.009Z</time></trkpt><trkpt lat="43.939915" lon="12.102685"><ele>597.0</ele><time>2026-04-06T15:02:16.006Z</time></trkpt><trkpt lat="43.9399067" lon="12.1027917"><ele>597.0000000000001</ele><time>2026-04-06T15:02:17.007Z</time></trkpt><trkpt lat="43.9398917" lon="12.1028967"><ele>597.0</ele><time>2026-04-06T15:02:18.007Z</time></trkpt><trkpt lat="43.93987" lon="12.1029917"><ele>596.8000000000001</ele><time>2026-04-06T15:02:19.007Z</time></trkpt><trkpt lat="43.939825" lon="12.1031467"><ele>596.6</ele><time>2026-04-06T15:02:21.006Z</time></trkpt><trkpt lat="43.9398083" lon="12.103305"><ele>596.4000000000001</ele><time>2026-04-06T15:02:23.007Z</time></trkpt><trkpt lat="43.9398567" lon="12.1034567"><ele>596.2</ele><time>2026-04-06T15:02:25.007Z</time></trkpt><trkpt lat="43.939905" lon="12.1035233"><ele>596.0</ele><time>2026-04-06T15:02:26.006Z</time></trkpt><trkpt lat="43.9399767" lon="12.1035883"><ele>595.2</ele><time>2026-04-06T15:02:27.006Z</time></trkpt><trkpt lat="43.9400433" lon="12.1036633"><ele>594.4000000000001</ele><time>2026-04-06T15:02:28.005Z</time></trkpt><trkpt lat="43.940095" lon="12.1037583"><ele>593.6</ele><time>2026-04-06T15:02:29.007Z</time></trkpt><trkpt lat="43.9401433" lon="12.1038767"><ele>592.8000000000001</ele><time>2026-04-06T15:02:30.007Z</time></trkpt><trkpt lat="43.9401933" lon="12.1040033"><ele>592.0</ele><time>2026-04-06T15:02:31.006Z</time></trkpt><trkpt lat="43.9402383" lon="12.104125"><ele>588.2</ele><time>2026-04-06T15:02:32.007Z</time></trkpt><trkpt lat="43.940275" lon="12.10425"><ele>584.4000000000001</ele><time>2026-04-06T15:02:33.009Z</time></trkpt><trkpt lat="43.940305" lon="12.104375"><ele>580.5999999999999</ele><time>2026-04-06T15:02:34.007Z</time></trkpt><trkpt lat="43.9403283" lon="12.10451"><ele>576.8</ele><time>2026-04-06T15:02:35.008Z</time></trkpt><trkpt lat="43.940345" lon="12.1046583"><ele>573.0</ele><time>2026-04-06T15:02:36.005Z</time></trkpt><trkpt lat="43.9403583" lon="12.1048067"><ele>571.6</ele><time>2026-04-06T15:02:37.006Z</time></trkpt><trkpt lat="43.9403683" lon="12.1049517"><ele>570.1999999999999</ele><time>2026-04-06T15:02:38.007Z</time></trkpt><trkpt lat="43.94037" lon="12.1050933"><ele>568.8</ele><time>2026-04-06T15:02:39.009Z</time></trkpt><trkpt lat="43.9403617" lon="12.1052267"><ele>567.4</ele><time>2026-04-06T15:02:40.011Z</time></trkpt><trkpt lat="43.940345" lon="12.105345"><ele>566.0</ele><time>2026-04-06T15:02:41.008Z</time></trkpt><trkpt lat="43.940325" lon="12.10545"><ele>566.0</ele><time>2026-04-06T15:02:42.009Z</time></trkpt><trkpt lat="43.940295" lon="12.10555"><ele>566.0</ele><time>2026-04-06T15:02:43.008Z</time></trkpt><trkpt lat="43.940255" lon="12.1056483"><ele>566.0</ele><time>2026-04-06T15:02:44.008Z</time></trkpt><trkpt lat="43.940205" lon="12.1057467"><ele>566.0</ele><time>2026-04-06T15:02:45.011Z</time></trkpt><trkpt lat="43.9401567" lon="12.1058483"><ele>566.0</ele><time>2026-04-06T15:02:46.006Z</time></trkpt><trkpt lat="43.9401133" lon="12.1059567"><ele>566.0</ele><time>2026-04-06T15:02:47.007Z</time></trkpt><trkpt lat="43.94008" lon="12.1060733"><ele>565.2</ele><time>2026-04-06T15:02:48.008Z</time></trkpt><trkpt lat="43.9400583" lon="12.1061783"><ele>564.4000000000001</ele><time>2026-04-06T15:02:49.008Z</time></trkpt><trkpt lat="43.9400417" lon="12.1062733"><ele>563.6</ele><time>2026-04-06T15:02:50.007Z</time></trkpt><trkpt lat="43.9400383" lon="12.10643"><ele>562.8000000000001</ele><time>2026-04-06T15:02:52.007Z</time></trkpt><trkpt lat="43.940085" lon="12.106585"><ele>562.0</ele><time>2026-04-06T15:02:54.006Z</time></trkpt><trkpt lat="43.94011" lon="12.106685"><ele>565.0</ele><time>2026-04-06T15:02:55.008Z</time></trkpt><trkpt lat="43.9401233" lon="12.1068017"><ele>568.0</ele><time>2026-04-06T15:02:56.008Z</time></trkpt><trkpt lat="43.9401267" lon="12.1069233"><ele>571.0</ele><time>2026-04-06T15:02:57.012Z</time></trkpt><trkpt lat="43.9401333" lon="12.10705"><ele>574.0</ele><time>2026-04-06T15:02:58.008Z</time></trkpt><trkpt lat="43.94015" lon="12.1071733"><ele>577.0</ele><time>2026-04-06T15:02:59.008Z</time></trkpt><trkpt lat="43.94018" lon="12.1073017"><ele>574.6666666666667</ele><time>2026-04-06T15:03:00.009Z</time></trkpt><trkpt lat="43.9401917" lon="12.1074267"><ele>572.3333333333334</ele><time>2026-04-06T15:03:01.008Z</time></trkpt><trkpt lat="43.9401967" lon="12.1075483"><ele>570.0</ele><time>2026-04-06T15:03:02.007Z</time></trkpt><trkpt lat="43.9402133" lon="12.1076667"><ele>567.6666666666666</ele><time>2026-04-06T15:03:03.012Z</time></trkpt><trkpt lat="43.9402467" lon="12.1077783"><ele>565.3333333333333</ele><time>2026-04-06T15:03:04.009Z</time></trkpt><trkpt lat="43.9402933" lon="12.1078883"><ele>563.0</ele><time>2026-04-06T15:03:05.005Z</time></trkpt><trkpt lat="43.9403483" lon="12.1079967"><ele>563.0</ele><time>2026-04-06T15:03:06.006Z</time></trkpt><trkpt lat="43.9403917" lon="12.1081083"><ele>563.0</ele><time>2026-04-06T15:03:07.007Z</time></trkpt><trkpt lat="43.9404267" lon="12.108205"><ele>563.0</ele><time>2026-04-06T15:03:08.006Z</time></trkpt><trkpt lat="43.9404517" lon="12.1083067"><ele>563.0</ele><time>2026-04-06T15:03:09.01Z</time></trkpt><trkpt lat="43.9404617" lon="12.10841"><ele>563.0</ele><time>2026-04-06T15:03:10.009Z</time></trkpt><trkpt lat="43.9404467" lon="12.108525"><ele>563.0</ele><time>2026-04-06T15:03:11.006Z</time></trkpt><trkpt lat="43.9404117" lon="12.1086433"><ele>561.8</ele><time>2026-04-06T15:03:12.007Z</time></trkpt><trkpt lat="43.9403833" lon="12.108775"><ele>560.5999999999999</ele><time>2026-04-06T15:03:13.007Z</time></trkpt><trkpt lat="43.9403683" lon="12.108915"><ele>559.4000000000001</ele><time>2026-04-06T15:03:14.007Z</time></trkpt><trkpt lat="43.9403583" lon="12.109055"><ele>558.2</ele><time>2026-04-06T15:03:15.009Z</time></trkpt><trkpt lat="43.940375" lon="12.109205"><ele>557.0</ele><time>2026-04-06T15:03:16.007Z</time></trkpt><trkpt lat="43.94037" lon="12.109325"><ele>557.0</ele><time>2026-04-06T15:03:17.01Z</time></trkpt><trkpt lat="43.9404183" lon="12.1094633"><ele>557.0</ele><time>2026-04-06T15:03:18.009Z</time></trkpt><trkpt lat="43.9404433" lon="12.109595"><ele>557.0</ele><time>2026-04-06T15:03:19.01Z</time></trkpt><trkpt lat="43.9404317" lon="12.1097183"><ele>557.0</ele><time>2026-04-06T15:03:20.007Z</time></trkpt><trkpt lat="43.9404017" lon="12.1098467"><ele>557.0</ele><time>2026-04-06T15:03:21.006Z</time></trkpt><trkpt lat="43.9403633" lon="12.1099783"><ele>554.6</ele><time>2026-04-06T15:03:22.008Z</time></trkpt><trkpt lat="43.9403117" lon="12.1101"><ele>552.2</ele><time>2026-04-06T15:03:23.007Z</time></trkpt><trkpt lat="43.9402417" lon="12.1102083"><ele>549.8</ele><time>2026-04-06T15:03:24.009Z</time></trkpt><trkpt lat="43.940165" lon="12.1103067"><ele>547.4</ele><time>2026-04-06T15:03:25.006Z</time></trkpt><trkpt lat="43.940105" lon="12.1103967"><ele>545.0</ele><time>2026-04-06T15:03:26.01Z</time></trkpt><trkpt lat="43.9400583" lon="12.110505"><ele>543.2</ele><time>2026-04-06T15:03:27.011Z</time></trkpt><trkpt lat="43.94004" lon="12.1106383"><ele>541.4</ele><time>2026-04-06T15:03:28.008Z</time></trkpt><trkpt lat="43.9400183" lon="12.1107717"><ele>539.6</ele><time>2026-04-06T15:03:29.007Z</time></trkpt><trkpt lat="43.94" lon="12.1109133"><ele>537.8</ele><time>2026-04-06T15:03:30.005Z</time></trkpt><trkpt lat="43.93998" lon="12.111065"><ele>536.0</ele><time>2026-04-06T15:03:31.006Z</time></trkpt><trkpt lat="43.9399517" lon="12.11122"><ele>536.0</ele><time>2026-04-06T15:03:32.007Z</time></trkpt><trkpt lat="43.9399133" lon="12.1113883"><ele>536.0</ele><time>2026-04-06T15:03:33.009Z</time></trkpt><trkpt lat="43.9398667" lon="12.1115633"><ele>536.0</ele><time>2026-04-06T15:03:34.006Z</time></trkpt><trkpt lat="43.9398167" lon="12.1117517"><ele>536.0</ele><time>2026-04-06T15:03:35.007Z</time></trkpt><trkpt lat="43.9397683" lon="12.111945"><ele>535.75</ele><time>2026-04-06T15:03:36.006Z</time></trkpt><trkpt lat="43.9397167" lon="12.1121333"><ele>535.5</ele><time>2026-04-06T15:03:37.006Z</time></trkpt><trkpt lat="43.93966" lon="12.11233"><ele>535.25</ele><time>2026-04-06T15:03:38.008Z</time></trkpt><trkpt lat="43.939605" lon="12.1125217"><ele>535.0</ele><time>2026-04-06T15:03:39.006Z</time></trkpt><trkpt lat="43.9395533" lon="12.1127"><ele>534.75</ele><time>2026-04-06T15:03:40.006Z</time></trkpt><trkpt lat="43.9395033" lon="12.11286"><ele>534.5</ele><time>2026-04-06T15:03:41.008Z</time></trkpt><trkpt lat="43.9394417" lon="12.1129967"><ele>534.25</ele><time>2026-04-06T15:03:42.006Z</time></trkpt><trkpt lat="43.939375" lon="12.1131217"><ele>534.0</ele><time>2026-04-06T15:03:43.006Z</time></trkpt><trkpt lat="43.9392833" lon="12.1132267"><ele>536.4</ele><time>2026-04-06T15:03:44.007Z</time></trkpt><trkpt lat="43.9391817" lon="12.1133083"><ele>538.8</ele><time>2026-04-06T15:03:45.007Z</time></trkpt><trkpt lat="43.9390767" lon="12.113375"><ele>541.2</ele><time>2026-04-06T15:03:46.006Z</time></trkpt><trkpt lat="43.9389833" lon="12.1134383"><ele>543.6</ele><time>2026-04-06T15:03:47.005Z</time></trkpt><trkpt lat="43.9389083" lon="12.11351"><ele>546.0</ele><time>2026-04-06T15:03:48.006Z</time></trkpt><trkpt lat="43.93885" lon="12.113605"><ele>546.0</ele><time>2026-04-06T15:03:49.005Z</time></trkpt><trkpt lat="43.9388" lon="12.113705"><ele>546.0</ele><time>2026-04-06T15:03:50.006Z</time></trkpt><trkpt lat="43.9387633" lon="12.1138283"><ele>546.0</ele><time>2026-04-06T15:03:51.01Z</time></trkpt><trkpt lat="43.9387433" lon="12.1139783"><ele>546.0</ele><time>2026-04-06T15:03:52.007Z</time></trkpt><trkpt lat="43.93873" lon="12.1141483"><ele>546.0</ele><time>2026-04-06T15:03:53.006Z</time></trkpt><trkpt lat="43.9387183" lon="12.1143167"><ele>547.5</ele><time>2026-04-06T15:03:54.007Z</time></trkpt><trkpt lat="43.9387067" lon="12.1144817"><ele>549.0</ele><time>2026-04-06T15:03:55.006Z</time></trkpt><trkpt lat="43.9386917" lon="12.114645"><ele>550.5</ele><time>2026-04-06T15:03:56.007Z</time></trkpt><trkpt lat="43.9386733" lon="12.1148167"><ele>552.0</ele><time>2026-04-06T15:03:57.008Z</time></trkpt><trkpt lat="43.93865" lon="12.1149933"><ele>548.0</ele><time>2026-04-06T15:03:58.008Z</time></trkpt><trkpt lat="43.9386183" lon="12.115165"><ele>544.0</ele><time>2026-04-06T15:03:59.006Z</time></trkpt><trkpt lat="43.9385817" lon="12.1153333"><ele>540.0</ele><time>2026-04-06T15:04:00.006Z</time></trkpt><trkpt lat="43.9385517" lon="12.1155033"><ele>536.0</ele><time>2026-04-06T15:04:01.009Z</time></trkpt><trkpt lat="43.9385267" lon="12.115685"><ele>534.25</ele><time>2026-04-06T15:04:02.007Z</time></trkpt><trkpt lat="43.9385067" lon="12.115875"><ele>532.5</ele><time>2026-04-06T15:04:03.008Z</time></trkpt><trkpt lat="43.9384867" lon="12.1160683"><ele>530.75</ele><time>2026-04-06T15:04:04.007Z</time></trkpt><trkpt lat="43.9384683" lon="12.1162467"><ele>529.0</ele><time>2026-04-06T15:04:05.006Z</time></trkpt><trkpt lat="43.93845" lon="12.1164167"><ele>530.4</ele><time>2026-04-06T15:04:06.007Z</time></trkpt><trkpt lat="43.938435" lon="12.1165817"><ele>531.8</ele><time>2026-04-06T15:04:07.007Z</time></trkpt><trkpt lat="43.9384017" lon="12.1167333"><ele>533.2</ele><time>2026-04-06T15:04:08.008Z</time></trkpt><trkpt lat="43.938365" lon="12.1168783"><ele>534.6</ele><time>2026-04-06T15:04:09.006Z</time></trkpt><trkpt lat="43.938315" lon="12.1170033"><ele>536.0</ele><time>2026-04-06T15:04:10.006Z</time></trkpt><trkpt lat="43.938255" lon="12.1171083"><ele>536.0</ele><time>2026-04-06T15:04:11.006Z</time></trkpt><trkpt lat="43.9381883" lon="12.1171917"><ele>536.0</ele><time>2026-04-06T15:04:12.006Z</time></trkpt><trkpt lat="43.9381217" lon="12.1172583"><ele>536.0</ele><time>2026-04-06T15:04:13.008Z</time></trkpt><trkpt lat="43.93805" lon="12.1173067"><ele>536.0</ele><time>2026-04-06T15:04:14.009Z</time></trkpt><trkpt lat="43.937965" lon="12.1173317"><ele>536.0</ele><time>2026-04-06T15:04:15.011Z</time></trkpt><trkpt lat="43.93788" lon="12.1173417"><ele>536.0</ele><time>2026-04-06T15:04:16.007Z</time></trkpt><trkpt lat="43.937805" lon="12.1173767"><ele>538.3333333333333</ele><time>2026-04-06T15:04:17.006Z</time></trkpt><trkpt lat="43.9377483" lon="12.1174217"><ele>540.6666666666666</ele><time>2026-04-06T15:04:18.008Z</time></trkpt><trkpt lat="43.9377017" lon="12.11749"><ele>543.0</ele><time>2026-04-06T15:04:19.009Z</time></trkpt><trkpt lat="43.9376667" lon="12.1175817"><ele>545.3333333333334</ele><time>2026-04-06T15:04:20.008Z</time></trkpt><trkpt lat="43.9376467" lon="12.1176883"><ele>547.6666666666667</ele><time>2026-04-06T15:04:21.007Z</time></trkpt><trkpt lat="43.9376267" lon="12.1178083"><ele>550.0</ele><time>2026-04-06T15:04:22.007Z</time></trkpt><trkpt lat="43.9376033" lon="12.1179383"><ele>550.0</ele><time>2026-04-06T15:04:23.006Z</time></trkpt><trkpt lat="43.9375667" lon="12.1180633"><ele>550.0</ele><time>2026-04-06T15:04:24.008Z</time></trkpt><trkpt lat="43.9375167" lon="12.118175"><ele>550.0</ele><time>2026-04-06T15:04:25.005Z</time></trkpt><trkpt lat="43.9374483" lon="12.1182667"><ele>550.0</ele><time>2026-04-06T15:04:26.008Z</time></trkpt><trkpt lat="43.93737" lon="12.1183333"><ele>550.0</ele><time>2026-04-06T15:04:27.011Z</time></trkpt><trkpt lat="43.9372917" lon="12.1183867"><ele>550.8333333333334</ele><time>2026-04-06T15:04:28.007Z</time></trkpt><trkpt lat="43.93722" lon="12.1184283"><ele>551.6666666666667</ele><time>2026-04-06T15:04:29.006Z</time></trkpt><trkpt lat="43.9371317" lon="12.1184217"><ele>552.5</ele><time>2026-04-06T15:04:30.008Z</time></trkpt><trkpt lat="43.9370533" lon="12.11843"><ele>553.3333333333334</ele><time>2026-04-06T15:04:31.009Z</time></trkpt><trkpt lat="43.9369822" lon="12.118454"><ele>554.1666666666666</ele><time>2026-04-06T15:04:32.006Z</time></trkpt><trkpt lat="43.9369177" lon="12.1184963"><ele>555.0</ele><time>2026-04-06T15:04:33.009Z</time></trkpt><trkpt lat="43.936865" lon="12.1185645"><ele>555.0</ele><time>2026-04-06T15:04:34.006Z</time></trkpt><trkpt lat="43.9368239" lon="12.1186659"><ele>555.0</ele><time>2026-04-06T15:04:35.007Z</time></trkpt><trkpt lat="43.9367823" lon="12.1187926"><ele>555.0</ele><time>2026-04-06T15:04:36.007Z</time></trkpt><trkpt lat="43.9367391" lon="12.1189322"><ele>555.0</ele><time>2026-04-06T15:04:37.008Z</time></trkpt><trkpt lat="43.9366856" lon="12.1190795"><ele>555.0</ele><time>2026-04-06T15:04:38.008Z</time></trkpt><trkpt lat="43.9366223" lon="12.1192346"><ele>555.0</ele><time>2026-04-06T15:04:39.009Z</time></trkpt><trkpt lat="43.9365457" lon="12.1193786"><ele>555.0</ele><time>2026-04-06T15:04:40.006Z</time></trkpt><trkpt lat="43.9364595" lon="12.1195101"><ele>555.0</ele><time>2026-04-06T15:04:41.006Z</time></trkpt><trkpt lat="43.9363546" lon="12.1196213"><ele>555.0</ele><time>2026-04-06T15:04:42.008Z</time></trkpt><trkpt lat="43.9362366" lon="12.1197203"><ele>555.0</ele><time>2026-04-06T15:04:43.007Z</time></trkpt><trkpt lat="43.9361163" lon="12.1198072"><ele>555.0</ele><time>2026-04-06T15:04:44.01Z</time></trkpt><trkpt lat="43.936006" lon="12.1198896"><ele>555.0</ele><time>2026-04-06T15:04:45.008Z</time></trkpt><trkpt lat="43.9359044" lon="12.1199629"><ele>555.0</ele><time>2026-04-06T15:04:46.009Z</time></trkpt><trkpt lat="43.9358135" lon="12.1200195"><ele>555.3333333333334</ele><time>2026-04-06T15:04:47.005Z</time></trkpt><trkpt lat="43.9357342" lon="12.1200565"><ele>555.6666666666666</ele><time>2026-04-06T15:04:48.006Z</time></trkpt><trkpt lat="43.9356631" lon="12.1200816"><ele>556.0</ele><time>2026-04-06T15:04:49.006Z</time></trkpt><trkpt lat="43.9355931" lon="12.1201004"><ele>556.3333333333333</ele><time>2026-04-06T15:04:50.006Z</time></trkpt><trkpt lat="43.9355223" lon="12.1201284"><ele>556.6666666666666</ele><time>2026-04-06T15:04:51.005Z</time></trkpt><trkpt lat="43.9354469" lon="12.1201678"><ele>557.0</ele><time>2026-04-06T15:04:52.009Z</time></trkpt><trkpt lat="43.9353675" lon="12.1202178"><ele>557.0</ele><time>2026-04-06T15:04:53.006Z</time></trkpt><trkpt lat="43.9352873" lon="12.1202778"><ele>557.0</ele><time>2026-04-06T15:04:54.005Z</time></trkpt><trkpt lat="43.9352132" lon="12.1203429"><ele>557.0</ele><time>2026-04-06T15:04:55.006Z</time></trkpt><trkpt lat="43.9351525" lon="12.1204205"><ele>557.0</ele><time>2026-04-06T15:04:56.006Z</time></trkpt><trkpt lat="43.9351087" lon="12.1205135"><ele>557.0</ele><time>2026-04-06T15:04:57.01Z</time></trkpt><trkpt lat="43.9350815" lon="12.1206093"><ele>557.0</ele><time>2026-04-06T15:04:58.007Z</time></trkpt><trkpt lat="43.9350771" lon="12.1207118"><ele>558.6666666666666</ele><time>2026-04-06T15:04:59.006Z</time></trkpt><trkpt lat="43.9350882" lon="12.1208041"><ele>560.3333333333333</ele><time>2026-04-06T15:05:00.007Z</time></trkpt><trkpt lat="43.9351616" lon="12.1209376"><ele>562.0</ele><time>2026-04-06T15:05:02.006Z</time></trkpt><trkpt lat="43.9352214" lon="12.1209693"><ele>563.6666666666666</ele><time>2026-04-06T15:05:03.005Z</time></trkpt><trkpt lat="43.9352909" lon="12.1209697"><ele>565.3333333333334</ele><time>2026-04-06T15:05:04.01Z</time></trkpt><trkpt lat="43.9353756" lon="12.1209461"><ele>567.0</ele><time>2026-04-06T15:05:05.007Z</time></trkpt><trkpt lat="43.9354677" lon="12.1209291"><ele>567.0</ele><time>2026-04-06T15:05:06.005Z</time></trkpt><trkpt lat="43.9355642" lon="12.1209362"><ele>567.0</ele><time>2026-04-06T15:05:07.006Z</time></trkpt><trkpt lat="43.9356556" lon="12.1209633"><ele>567.0</ele><time>2026-04-06T15:05:08.007Z</time></trkpt><trkpt lat="43.9357376" lon="12.1209987"><ele>567.0</ele><time>2026-04-06T15:05:09.008Z</time></trkpt><trkpt lat="43.9358182" lon="12.1210249"><ele>567.0</ele><time>2026-04-06T15:05:10.008Z</time></trkpt><trkpt lat="43.9358965" lon="12.1210462"><ele>567.0</ele><time>2026-04-06T15:05:11.008Z</time></trkpt><trkpt lat="43.93597" lon="12.1210691"><ele>567.7142857142857</ele><time>2026-04-06T15:05:12.006Z</time></trkpt><trkpt lat="43.9360376" lon="12.1210873"><ele>568.4285714285714</ele><time>2026-04-06T15:05:13.007Z</time></trkpt><trkpt lat="43.9361034" lon="12.1211092"><ele>569.1428571428571</ele><time>2026-04-06T15:05:14.006Z</time></trkpt><trkpt lat="43.9361658" lon="12.1211384"><ele>569.8571428571429</ele><time>2026-04-06T15:05:15.005Z</time></trkpt><trkpt lat="43.9362257" lon="12.1211752"><ele>570.5714285714286</ele><time>2026-04-06T15:05:16.011Z</time></trkpt><trkpt lat="43.9362837" lon="12.1212208"><ele>571.2857142857142</ele><time>2026-04-06T15:05:17.004Z</time></trkpt><trkpt lat="43.9363406" lon="12.1212762"><ele>572.0</ele><time>2026-04-06T15:05:18.006Z</time></trkpt><trkpt lat="43.9363914" lon="12.1213423"><ele>572.0</ele><time>2026-04-06T15:05:19.007Z</time></trkpt><trkpt lat="43.9364392" lon="12.1214148"><ele>572.0</ele><time>2026-04-06T15:05:20.005Z</time></trkpt><trkpt lat="43.9364873" lon="12.1214999"><ele>572.0</ele><time>2026-04-06T15:05:21.01Z</time></trkpt><trkpt lat="43.936541" lon="12.1216013"><ele>572.0</ele><time>2026-04-06T15:05:22.008Z</time></trkpt><trkpt lat="43.9366046" lon="12.1217161"><ele>572.0</ele><time>2026-04-06T15:05:23.007Z</time></trkpt><trkpt lat="43.9366761" lon="12.1218417"><ele>567.4</ele><time>2026-04-06T15:05:24.006Z</time></trkpt><trkpt lat="43.9367492" lon="12.1219713"><ele>562.8000000000001</ele><time>2026-04-06T15:05:25.007Z</time></trkpt><trkpt lat="43.9368192" lon="12.122096"><ele>558.2</ele><time>2026-04-06T15:05:26.007Z</time></trkpt><trkpt lat="43.9368848" lon="12.1222127"><ele>553.6</ele><time>2026-04-06T15:05:27.006Z</time></trkpt><trkpt lat="43.9369456" lon="12.1223374"><ele>549.0</ele><time>2026-04-06T15:05:28.009Z</time></trkpt><trkpt lat="43.9369961" lon="12.122474"><ele>549.0</ele><time>2026-04-06T15:05:29.008Z</time></trkpt><trkpt lat="43.9370379" lon="12.1226252"><ele>549.0</ele><time>2026-04-06T15:05:30.005Z</time></trkpt><trkpt lat="43.9370755" lon="12.1227871"><ele>549.0</ele><time>2026-04-06T15:05:31.009Z</time></trkpt><trkpt lat="43.9371065" lon="12.1229453"><ele>549.0</ele><time>2026-04-06T15:05:32.006Z</time></trkpt><trkpt lat="43.937139" lon="12.1230887"><ele>549.0</ele><time>2026-04-06T15:05:33.009Z</time></trkpt><trkpt lat="43.9371816" lon="12.1232148"><ele>549.0</ele><time>2026-04-06T15:05:34.009Z</time></trkpt><trkpt lat="43.9372397" lon="12.1233255"><ele>549.0</ele><time>2026-04-06T15:05:35.009Z</time></trkpt><trkpt lat="43.9373135" lon="12.1234274"><ele>549.0</ele><time>2026-04-06T15:05:36.006Z</time></trkpt><trkpt lat="43.9373875" lon="12.1235327"><ele>549.0</ele><time>2026-04-06T15:05:37.009Z</time></trkpt><trkpt lat="43.9374574" lon="12.1236538"><ele>549.5</ele><time>2026-04-06T15:05:38.006Z</time></trkpt><trkpt lat="43.9375181" lon="12.1237986"><ele>550.0</ele><time>2026-04-06T15:05:39.007Z</time></trkpt><trkpt lat="43.9375724" lon="12.1239698"><ele>550.5</ele><time>2026-04-06T15:05:40.011Z</time></trkpt><trkpt lat="43.9376199" lon="12.1241659"><ele>551.0</ele><time>2026-04-06T15:05:41.007Z</time></trkpt><trkpt lat="43.9376546" lon="12.1243621"><ele>556.6</ele><time>2026-04-06T15:05:42.007Z</time></trkpt><trkpt lat="43.9376743" lon="12.1245384"><ele>562.2</ele><time>2026-04-06T15:05:43.009Z</time></trkpt><trkpt lat="43.9376797" lon="12.124689"><ele>567.8</ele><time>2026-04-06T15:05:44.012Z</time></trkpt><trkpt lat="43.937681" lon="12.1248218"><ele>573.4</ele><time>2026-04-06T15:05:45.007Z</time></trkpt><trkpt lat="43.9376946" lon="12.1249496"><ele>579.0</ele><time>2026-04-06T15:05:46.006Z</time></trkpt><trkpt lat="43.9377268" lon="12.125066"><ele>579.8</ele><time>2026-04-06T15:05:47.007Z</time></trkpt><trkpt lat="43.9377742" lon="12.1251688"><ele>580.5999999999999</ele><time>2026-04-06T15:05:48.005Z</time></trkpt><trkpt lat="43.9378374" lon="12.1252572"><ele>581.4</ele><time>2026-04-06T15:05:49.006Z</time></trkpt><trkpt lat="43.9379372" lon="12.1253326"><ele>582.1999999999999</ele><time>2026-04-06T15:05:50.006Z</time></trkpt><trkpt lat="43.938058" lon="12.1254092"><ele>583.0</ele><time>2026-04-06T15:05:51.007Z</time></trkpt><trkpt lat="43.9381918" lon="12.1254992"><ele>583.0</ele><time>2026-04-06T15:05:52.007Z</time></trkpt><trkpt lat="43.9383248" lon="12.1256042"><ele>583.0</ele><time>2026-04-06T15:05:53.008Z</time></trkpt><trkpt lat="43.9384457" lon="12.1257108"><ele>583.0</ele><time>2026-04-06T15:05:54.007Z</time></trkpt><trkpt lat="43.9385519" lon="12.1257981"><ele>583.0</ele><time>2026-04-06T15:05:55.01Z</time></trkpt><trkpt lat="43.9386472" lon="12.1258607"><ele>582.1666666666667</ele><time>2026-04-06T15:05:56.006Z</time></trkpt><trkpt lat="43.9387367" lon="12.1258924"><ele>581.3333333333334</ele><time>2026-04-06T15:05:57.007Z</time></trkpt><trkpt lat="43.9388189" lon="12.1258988"><ele>580.5</ele><time>2026-04-06T15:05:58.007Z</time></trkpt><trkpt lat="43.9389003" lon="12.1258883"><ele>579.6666666666666</ele><time>2026-04-06T15:05:59.006Z</time></trkpt><trkpt lat="43.9389816" lon="12.1258753"><ele>578.8333333333333</ele><time>2026-04-06T15:06:00.006Z</time></trkpt><trkpt lat="43.9390617" lon="12.1258599"><ele>578.0</ele><time>2026-04-06T15:06:01.006Z</time></trkpt><trkpt lat="43.9391617" lon="12.1258637"><ele>573.8</ele><time>2026-04-06T15:06:02.008Z</time></trkpt><trkpt lat="43.9392732" lon="12.1258877"><ele>569.5999999999999</ele><time>2026-04-06T15:06:03.009Z</time></trkpt><trkpt lat="43.9393744" lon="12.1259214"><ele>565.4000000000001</ele><time>2026-04-06T15:06:04.01Z</time></trkpt><trkpt lat="43.9394627" lon="12.1259792"><ele>561.2</ele><time>2026-04-06T15:06:05.006Z</time></trkpt><trkpt lat="43.9395448" lon="12.1260741"><ele>557.0</ele><time>2026-04-06T15:06:06.005Z</time></trkpt><trkpt lat="43.9396166" lon="12.1262079"><ele>557.0</ele><time>2026-04-06T15:06:07.007Z</time></trkpt><trkpt lat="43.9396787" lon="12.1263719"><ele>557.0</ele><time>2026-04-06T15:06:08.005Z</time></trkpt><trkpt lat="43.9397348" lon="12.1265519"><ele>557.0</ele><time>2026-04-06T15:06:09.007Z</time></trkpt><trkpt lat="43.939799" lon="12.1267176"><ele>557.0</ele><time>2026-04-06T15:06:10.007Z</time></trkpt><trkpt lat="43.9398706" lon="12.1268645"><ele>559.8000000000001</ele><time>2026-04-06T15:06:11.007Z</time></trkpt><trkpt lat="43.9399409" lon="12.1269838"><ele>562.6</ele><time>2026-04-06T15:06:12.006Z</time></trkpt><trkpt lat="43.9400119" lon="12.1270782"><ele>565.4000000000001</ele><time>2026-04-06T15:06:13.009Z</time></trkpt><trkpt lat="43.940085" lon="12.1271517"><ele>568.2</ele><time>2026-04-06T15:06:14.008Z</time></trkpt><trkpt lat="43.9401642" lon="12.1272055"><ele>571.0</ele><time>2026-04-06T15:06:15.007Z</time></trkpt><trkpt lat="43.9402554" lon="12.1272433"><ele>573.3333333333334</ele><time>2026-04-06T15:06:16.007Z</time></trkpt><trkpt lat="43.9403466" lon="12.1272609"><ele>575.6666666666667</ele><time>2026-04-06T15:06:17.007Z</time></trkpt><trkpt lat="43.9404346" lon="12.1272622"><ele>578.0</ele><time>2026-04-06T15:06:18.006Z</time></trkpt><trkpt lat="43.9405135" lon="12.1272463"><ele>580.3333333333334</ele><time>2026-04-06T15:06:19.01Z</time></trkpt><trkpt lat="43.9405863" lon="12.1272104"><ele>582.6666666666666</ele><time>2026-04-06T15:06:20.006Z</time></trkpt><trkpt lat="43.9406552" lon="12.1271518"><ele>585.0</ele><time>2026-04-06T15:06:21.007Z</time></trkpt><trkpt lat="43.9407193" lon="12.1270728"><ele>585.0</ele><time>2026-04-06T15:06:22.006Z</time></trkpt><trkpt lat="43.940768" lon="12.1269711"><ele>585.0</ele><time>2026-04-06T15:06:23.006Z</time></trkpt><trkpt lat="43.9407908" lon="12.1268415"><ele>585.0</ele><time>2026-04-06T15:06:24.007Z</time></trkpt><trkpt lat="43.940808" lon="12.1266989"><ele>585.0</ele><time>2026-04-06T15:06:25.008Z</time></trkpt><trkpt lat="43.9408404" lon="12.1265644"><ele>585.0</ele><time>2026-04-06T15:06:26.008Z</time></trkpt><trkpt lat="43.9408949" lon="12.1264281"><ele>584.5</ele><time>2026-04-06T15:06:27.008Z</time></trkpt><trkpt lat="43.9409704" lon="12.1262893"><ele>584.0</ele><time>2026-04-06T15:06:28.009Z</time></trkpt><trkpt lat="43.9410595" lon="12.1261558"><ele>583.5</ele><time>2026-04-06T15:06:29.006Z</time></trkpt><trkpt lat="43.9411569" lon="12.1260353"><ele>583.0</ele><time>2026-04-06T15:06:30.006Z</time></trkpt><trkpt lat="43.9412508" lon="12.1259272"><ele>583.0</ele><time>2026-04-06T15:06:31.009Z</time></trkpt><trkpt lat="43.9413333" lon="12.1258346"><ele>583.0</ele><time>2026-04-06T15:06:32.007Z</time></trkpt><trkpt lat="43.9414038" lon="12.1257653"><ele>583.0</ele><time>2026-04-06T15:06:33.009Z</time></trkpt><trkpt lat="43.9414685" lon="12.1257206"><ele>583.0</ele><time>2026-04-06T15:06:34.007Z</time></trkpt><trkpt lat="43.9415302" lon="12.1256988"><ele>583.0</ele><time>2026-04-06T15:06:35.008Z</time></trkpt><trkpt lat="43.9416464" lon="12.125732"><ele>583.0</ele><time>2026-04-06T15:06:37.007Z</time></trkpt><trkpt lat="43.941715" lon="12.1258829"><ele>579.5</ele><time>2026-04-06T15:06:39.006Z</time></trkpt><trkpt lat="43.9417495" lon="12.1260005"><ele>576.0</ele><time>2026-04-06T15:06:40.006Z</time></trkpt><trkpt lat="43.9418021" lon="12.1261411"><ele>572.5</ele><time>2026-04-06T15:06:41.006Z</time></trkpt><trkpt lat="43.9418779" lon="12.1263033"><ele>569.0</ele><time>2026-04-06T15:06:42.006Z</time></trkpt><trkpt lat="43.9419617" lon="12.1264813"><ele>574.25</ele><time>2026-04-06T15:06:43.011Z</time></trkpt><trkpt lat="43.9420513" lon="12.1266584"><ele>579.5</ele><time>2026-04-06T15:06:44.007Z</time></trkpt><trkpt lat="43.9421424" lon="12.1268176"><ele>584.75</ele><time>2026-04-06T15:06:45.006Z</time></trkpt><trkpt lat="43.9422267" lon="12.1269533"><ele>590.0</ele><time>2026-04-06T15:06:46.008Z</time></trkpt><trkpt lat="43.9423083" lon="12.1270733"><ele>590.0</ele><time>2026-04-06T15:06:47.008Z</time></trkpt><trkpt lat="43.9424" lon="12.1271783"><ele>590.0</ele><time>2026-04-06T15:06:48.009Z</time></trkpt><trkpt lat="43.9425" lon="12.1272633"><ele>590.0</ele><time>2026-04-06T15:06:49.006Z</time></trkpt><trkpt lat="43.9426117" lon="12.12732"><ele>590.0</ele><time>2026-04-06T15:06:50.008Z</time></trkpt><trkpt lat="43.94273" lon="12.1273533"><ele>592.5</ele><time>2026-04-06T15:06:51.009Z</time></trkpt><trkpt lat="43.94286" lon="12.127365"><ele>595.0</ele><time>2026-04-06T15:06:52.008Z</time></trkpt><trkpt lat="43.9429917" lon="12.1273583"><ele>597.5</ele><time>2026-04-06T15:06:53.007Z</time></trkpt><trkpt lat="43.9431067" lon="12.1273317"><ele>600.0</ele><time>2026-04-06T15:06:54.008Z</time></trkpt><trkpt lat="43.9432033" lon="12.1272817"><ele>600.0</ele><time>2026-04-06T15:06:55.009Z</time></trkpt><trkpt lat="43.94329" lon="12.1272083"><ele>600.0</ele><time>2026-04-06T15:06:56.009Z</time></trkpt><trkpt lat="43.9433733" lon="12.1271333"><ele>600.0</ele><time>2026-04-06T15:06:57.008Z</time></trkpt><trkpt lat="43.94346" lon="12.1270733"><ele>600.0</ele><time>2026-04-06T15:06:58.007Z</time></trkpt><trkpt lat="43.943555" lon="12.1270233"><ele>600.0</ele><time>2026-04-06T15:06:59.009Z</time></trkpt><trkpt lat="43.9436567" lon="12.126995"><ele>602.0</ele><time>2026-04-06T15:07:00.011Z</time></trkpt><trkpt lat="43.94376" lon="12.1269833"><ele>604.0</ele><time>2026-04-06T15:07:01.008Z</time></trkpt><trkpt lat="43.9438583" lon="12.1269883"><ele>606.0</ele><time>2026-04-06T15:07:02.006Z</time></trkpt><trkpt lat="43.94395" lon="12.1270117"><ele>608.0</ele><time>2026-04-06T15:07:03.008Z</time></trkpt><trkpt lat="43.9440367" lon="12.12706"><ele>610.0</ele><time>2026-04-06T15:07:04.009Z</time></trkpt><trkpt lat="43.9441167" lon="12.1271367"><ele>610.0</ele><time>2026-04-06T15:07:05.007Z</time></trkpt><trkpt lat="43.9441833" lon="12.12724"><ele>610.0</ele><time>2026-04-06T15:07:06.007Z</time></trkpt><trkpt lat="43.94424" lon="12.12736"><ele>610.0</ele><time>2026-04-06T15:07:07.009Z</time></trkpt><trkpt lat="43.9442933" lon="12.1274917"><ele>610.0</ele><time>2026-04-06T15:07:08.009Z</time></trkpt><trkpt lat="43.9443383" lon="12.127635"><ele>610.0</ele><time>2026-04-06T15:07:09.007Z</time></trkpt><trkpt lat="43.9443683" lon="12.1277883"><ele>610.5</ele><time>2026-04-06T15:07:10.007Z</time></trkpt><trkpt lat="43.9443817" lon="12.1279483"><ele>611.0</ele><time>2026-04-06T15:07:11.008Z</time></trkpt><trkpt lat="43.9443817" lon="12.1281133"><ele>611.5</ele><time>2026-04-06T15:07:12.011Z</time></trkpt><trkpt lat="43.9443767" lon="12.1282783"><ele>612.0</ele><time>2026-04-06T15:07:13.009Z</time></trkpt><trkpt lat="43.9443783" lon="12.1284267"><ele>615.8000000000001</ele><time>2026-04-06T15:07:14.007Z</time></trkpt><trkpt lat="43.9443817" lon="12.1285667"><ele>619.6</ele><time>2026-04-06T15:07:15.009Z</time></trkpt><trkpt lat="43.9443783" lon="12.1287067"><ele>623.4000000000001</ele><time>2026-04-06T15:07:16.008Z</time></trkpt><trkpt lat="43.944375" lon="12.1288433"><ele>627.2</ele><time>2026-04-06T15:07:17.009Z</time></trkpt><trkpt lat="43.9443717" lon="12.12896"><ele>631.0</ele><time>2026-04-06T15:07:18.007Z</time></trkpt><trkpt lat="43.9443783" lon="12.1290633"><ele>632.5</ele><time>2026-04-06T15:07:19.009Z</time></trkpt><trkpt lat="43.9444" lon="12.1291567"><ele>634.0</ele><time>2026-04-06T15:07:20.008Z</time></trkpt><trkpt lat="43.9444333" lon="12.1292417"><ele>635.5</ele><time>2026-04-06T15:07:21.009Z</time></trkpt><trkpt lat="43.9444833" lon="12.1293183"><ele>637.0</ele><time>2026-04-06T15:07:22.009Z</time></trkpt><trkpt lat="43.94455" lon="12.1293817"><ele>638.5</ele><time>2026-04-06T15:07:23.007Z</time></trkpt><trkpt lat="43.9446367" lon="12.12944"><ele>640.0</ele><time>2026-04-06T15:07:24.005Z</time></trkpt><trkpt lat="43.9447183" lon="12.129515"><ele>640.0</ele><time>2026-04-06T15:07:25.007Z</time></trkpt><trkpt lat="43.9447867" lon="12.1296117"><ele>640.0</ele><time>2026-04-06T15:07:26.006Z</time></trkpt><trkpt lat="43.944845" lon="12.1297367"><ele>640.0</ele><time>2026-04-06T15:07:27.008Z</time></trkpt><trkpt lat="43.9448917" lon="12.1298817"><ele>640.0</ele><time>2026-04-06T15:07:28.007Z</time></trkpt><trkpt lat="43.9449217" lon="12.1300333"><ele>640.0</ele><time>2026-04-06T15:07:29.007Z</time></trkpt><trkpt lat="43.9449483" lon="12.1301833"><ele>639.4</ele><time>2026-04-06T15:07:30.008Z</time></trkpt><trkpt lat="43.9449767" lon="12.1303367"><ele>638.8</ele><time>2026-04-06T15:07:31.008Z</time></trkpt><trkpt lat="43.9450117" lon="12.1304817"><ele>638.2</ele><time>2026-04-06T15:07:32.008Z</time></trkpt><trkpt lat="43.9450467" lon="12.1306233"><ele>637.6</ele><time>2026-04-06T15:07:33.01Z</time></trkpt><trkpt lat="43.9450883" lon="12.1307533"><ele>637.0</ele><time>2026-04-06T15:07:34.006Z</time></trkpt><trkpt lat="43.94513" lon="12.1308767"><ele>631.8000000000001</ele><time>2026-04-06T15:07:35.007Z</time></trkpt><trkpt lat="43.9451683" lon="12.1309983"><ele>626.6</ele><time>2026-04-06T15:07:36.007Z</time></trkpt><trkpt lat="43.9452017" lon="12.1311167"><ele>621.4000000000001</ele><time>2026-04-06T15:07:37.009Z</time></trkpt><trkpt lat="43.9452333" lon="12.131245"><ele>616.2</ele><time>2026-04-06T15:07:38.011Z</time></trkpt><trkpt lat="43.945265" lon="12.1313717"><ele>611.0</ele><time>2026-04-06T15:07:39.009Z</time></trkpt><trkpt lat="43.9452983" lon="12.131485"><ele>610.0</ele><time>2026-04-06T15:07:40.008Z</time></trkpt><trkpt lat="43.9453283" lon="12.1315833"><ele>609.0</ele><time>2026-04-06T15:07:41.008Z</time></trkpt><trkpt lat="43.9453533" lon="12.1316667"><ele>608.0</ele><time>2026-04-06T15:07:42.005Z</time></trkpt><trkpt lat="43.945375" lon="12.1317633"><ele>607.0</ele><time>2026-04-06T15:07:44.009Z</time></trkpt><trkpt lat="43.9454183" lon="12.131895"><ele>606.0</ele><time>2026-04-06T15:08:07.006Z</time></trkpt><trkpt lat="43.9454417" lon="12.1320817"><ele>606.0</ele><time>2026-04-06T15:08:09.008Z</time></trkpt><trkpt lat="43.945455" lon="12.1322517"><ele>606.0</ele><time>2026-04-06T15:08:10.007Z</time></trkpt><trkpt lat="43.945465" lon="12.1324133"><ele>606.0</ele><time>2026-04-06T15:08:11.008Z</time></trkpt><trkpt lat="43.94551" lon="12.1326067"><ele>606.0</ele><time>2026-04-06T15:08:12.007Z</time></trkpt><trkpt lat="43.94557" lon="12.1328083"><ele>606.3333333333334</ele><time>2026-04-06T15:08:13.011Z</time></trkpt><trkpt lat="43.9456517" lon="12.13302"><ele>606.6666666666667</ele><time>2026-04-06T15:08:14.006Z</time></trkpt><trkpt lat="43.945735" lon="12.1332117"><ele>607.0</ele><time>2026-04-06T15:08:15.009Z</time></trkpt><trkpt lat="43.945815" lon="12.13337"><ele>606.6</ele><time>2026-04-06T15:08:16.008Z</time></trkpt><trkpt lat="43.9458967" lon="12.133495"><ele>606.2</ele><time>2026-04-06T15:08:17.008Z</time></trkpt><trkpt lat="43.9459855" lon="12.1335855"><ele>605.8</ele><time>2026-04-06T15:08:18.006Z</time></trkpt><trkpt lat="43.9460851" lon="12.1336371"><ele>605.4</ele><time>2026-04-06T15:08:19.008Z</time></trkpt><trkpt lat="43.9461903" lon="12.1336754"><ele>605.0</ele><time>2026-04-06T15:08:20.009Z</time></trkpt><trkpt lat="43.9463039" lon="12.133662"><ele>605.0</ele><time>2026-04-06T15:08:21.012Z</time></trkpt><trkpt lat="43.9464133" lon="12.1336282"><ele>605.0</ele><time>2026-04-06T15:08:22.006Z</time></trkpt><trkpt lat="43.9465185" lon="12.1335852"><ele>605.0</ele><time>2026-04-06T15:08:23.006Z</time></trkpt><trkpt lat="43.9466152" lon="12.1335369"><ele>605.0</ele><time>2026-04-06T15:08:24.008Z</time></trkpt><trkpt lat="43.9467037" lon="12.1334815"><ele>605.0</ele><time>2026-04-06T15:08:25.006Z</time></trkpt><trkpt lat="43.9467841" lon="12.1334233"><ele>604.8333333333333</ele><time>2026-04-06T15:08:26.007Z</time></trkpt><trkpt lat="43.9468714" lon="12.1334008"><ele>604.6666666666666</ele><time>2026-04-06T15:08:27.01Z</time></trkpt><trkpt lat="43.9469546" lon="12.1333988"><ele>604.5</ele><time>2026-04-06T15:08:28.007Z</time></trkpt><trkpt lat="43.9470307" lon="12.1333684"><ele>604.3333333333334</ele><time>2026-04-06T15:08:29.008Z</time></trkpt><trkpt lat="43.9471144" lon="12.1333569"><ele>604.1666666666667</ele><time>2026-04-06T15:08:30.012Z</time></trkpt><trkpt lat="43.9472079" lon="12.1333469"><ele>604.0</ele><time>2026-04-06T15:08:31.009Z</time></trkpt><trkpt lat="43.9473326" lon="12.1333494"><ele>604.0</ele><time>2026-04-06T15:08:32.007Z</time></trkpt><trkpt lat="43.947481" lon="12.1333384"><ele>604.0</ele><time>2026-04-06T15:08:33.008Z</time></trkpt><trkpt lat="43.9476133" lon="12.1332885"><ele>604.0</ele><time>2026-04-06T15:08:34.008Z</time></trkpt><trkpt lat="43.9477241" lon="12.1331821"><ele>604.0</ele><time>2026-04-06T15:08:35.008Z</time></trkpt><trkpt lat="43.947808" lon="12.1330185"><ele>603.0</ele><time>2026-04-06T15:08:36.008Z</time></trkpt><trkpt lat="43.9478713" lon="12.1328264"><ele>602.0</ele><time>2026-04-06T15:08:37.01Z</time></trkpt><trkpt lat="43.9479353" lon="12.1326434"><ele>601.0</ele><time>2026-04-06T15:08:38.008Z</time></trkpt><trkpt lat="43.9480214" lon="12.1324956"><ele>600.0</ele><time>2026-04-06T15:08:39.008Z</time></trkpt><trkpt lat="43.9481227" lon="12.1323739"><ele>595.75</ele><time>2026-04-06T15:08:40.007Z</time></trkpt><trkpt lat="43.948248" lon="12.1322811"><ele>591.5</ele><time>2026-04-06T15:08:41.007Z</time></trkpt><trkpt lat="43.948385" lon="12.1321939"><ele>587.25</ele><time>2026-04-06T15:08:42.008Z</time></trkpt><trkpt lat="43.9485099" lon="12.1320739"><ele>583.0</ele><time>2026-04-06T15:08:43.01Z</time></trkpt><trkpt lat="43.9486175" lon="12.1319258"><ele>583.0</ele><time>2026-04-06T15:08:44.006Z</time></trkpt><trkpt lat="43.9486939" lon="12.1317558"><ele>583.0</ele><time>2026-04-06T15:08:45.009Z</time></trkpt><trkpt lat="43.948769" lon="12.1316089"><ele>583.0</ele><time>2026-04-06T15:08:46.006Z</time></trkpt><trkpt lat="43.948874" lon="12.1315147"><ele>583.0</ele><time>2026-04-06T15:08:47.007Z</time></trkpt><trkpt lat="43.9489853" lon="12.1314621"><ele>579.25</ele><time>2026-04-06T15:08:48.006Z</time></trkpt><trkpt lat="43.9491098" lon="12.1314607"><ele>575.5</ele><time>2026-04-06T15:08:49.008Z</time></trkpt><trkpt lat="43.949236" lon="12.1314932"><ele>571.75</ele><time>2026-04-06T15:08:50.009Z</time></trkpt><trkpt lat="43.9493554" lon="12.1315752"><ele>568.0</ele><time>2026-04-06T15:08:51.011Z</time></trkpt><trkpt lat="43.9494546" lon="12.1316835"><ele>568.0</ele><time>2026-04-06T15:08:52.01Z</time></trkpt><trkpt lat="43.9495537" lon="12.1318008"><ele>568.0</ele><time>2026-04-06T15:08:53.007Z</time></trkpt><trkpt lat="43.9496714" lon="12.1318824"><ele>568.0</ele><time>2026-04-06T15:08:54.009Z</time></trkpt><trkpt lat="43.9498005" lon="12.1318919"><ele>568.0</ele><time>2026-04-06T15:08:55.009Z</time></trkpt><trkpt lat="43.9499375" lon="12.1318332"><ele>567.25</ele><time>2026-04-06T15:08:56.009Z</time></trkpt><trkpt lat="43.9500835" lon="12.1318152"><ele>566.5</ele><time>2026-04-06T15:08:57.008Z</time></trkpt><trkpt lat="43.9502301" lon="12.1318555"><ele>565.75</ele><time>2026-04-06T15:08:58.006Z</time></trkpt><trkpt lat="43.9503761" lon="12.1318964"><ele>565.0</ele><time>2026-04-06T15:08:59.007Z</time></trkpt><trkpt lat="43.950508" lon="12.1318853"><ele>565.0</ele><time>2026-04-06T15:09:00.007Z</time></trkpt><trkpt lat="43.9506122" lon="12.1318277"><ele>565.0</ele><time>2026-04-06T15:09:01.007Z</time></trkpt><trkpt lat="43.9506876" lon="12.1317455"><ele>565.0</ele><time>2026-04-06T15:09:02.008Z</time></trkpt><trkpt lat="43.9507542" lon="12.1316837"><ele>565.0</ele><time>2026-04-06T15:09:03.008Z</time></trkpt><trkpt lat="43.9508202" lon="12.1316534"><ele>565.0</ele><time>2026-04-06T15:09:04.008Z</time></trkpt><trkpt lat="43.9509081" lon="12.1317439"><ele>565.0</ele><time>2026-04-06T15:09:06.007Z</time></trkpt><trkpt lat="43.950913" lon="12.1318852"><ele>565.0</ele><time>2026-04-06T15:09:07.008Z</time></trkpt><trkpt lat="43.9509023" lon="12.132041"><ele>565.0</ele><time>2026-04-06T15:09:08.008Z</time></trkpt><trkpt lat="43.9508843" lon="12.1321865"><ele>565.0</ele><time>2026-04-06T15:09:09.008Z</time></trkpt><trkpt lat="43.9508492" lon="12.1323221"><ele>565.0</ele><time>2026-04-06T15:09:10.009Z</time></trkpt><trkpt lat="43.9507642" lon="12.132433"><ele>563.0</ele><time>2026-04-06T15:09:11.007Z</time></trkpt><trkpt lat="43.9506422" lon="12.1325192"><ele>561.0</ele><time>2026-04-06T15:09:12.008Z</time></trkpt><trkpt lat="43.9504953" lon="12.1325959"><ele>559.0</ele><time>2026-04-06T15:09:13.007Z</time></trkpt><trkpt lat="43.9503387" lon="12.1326581"><ele>559.0</ele><time>2026-04-06T15:09:14.009Z</time></trkpt><trkpt lat="43.9501953" lon="12.1327142"><ele>559.0</ele><time>2026-04-06T15:09:15.008Z</time></trkpt><trkpt lat="43.9500824" lon="12.1328041"><ele>559.0</ele><time>2026-04-06T15:09:16.007Z</time></trkpt><trkpt lat="43.9500064" lon="12.1329248"><ele>559.0</ele><time>2026-04-06T15:09:17.005Z</time></trkpt><trkpt lat="43.9499478" lon="12.1330572"><ele>562.5</ele><time>2026-04-06T15:09:18.009Z</time></trkpt><trkpt lat="43.9499231" lon="12.1332188"><ele>566.0</ele><time>2026-04-06T15:09:19.01Z</time></trkpt><trkpt lat="43.9499179" lon="12.1334098"><ele>569.5</ele><time>2026-04-06T15:09:20.009Z</time></trkpt><trkpt lat="43.9499356" lon="12.1336495"><ele>573.0</ele><time>2026-04-06T15:09:21.006Z</time></trkpt><trkpt lat="43.9499739" lon="12.1339133"><ele>575.3333333333334</ele><time>2026-04-06T15:09:22.005Z</time></trkpt><trkpt lat="43.9500102" lon="12.1341559"><ele>577.6666666666667</ele><time>2026-04-06T15:09:23.006Z</time></trkpt><trkpt lat="43.950046" lon="12.1343703"><ele>580.0</ele><time>2026-04-06T15:09:24.007Z</time></trkpt><trkpt lat="43.9500956" lon="12.1345515"><ele>576.3333333333334</ele><time>2026-04-06T15:09:25.01Z</time></trkpt><trkpt lat="43.9501874" lon="12.1347066"><ele>572.6666666666666</ele><time>2026-04-06T15:09:26.007Z</time></trkpt><trkpt lat="43.9503144" lon="12.1348345"><ele>569.0</ele><time>2026-04-06T15:09:27.01Z</time></trkpt><trkpt lat="43.9504702" lon="12.134941"><ele>569.0</ele><time>2026-04-06T15:09:28.007Z</time></trkpt><trkpt lat="43.9506418" lon="12.1350068"><ele>569.0</ele><time>2026-04-06T15:09:29.008Z</time></trkpt><trkpt lat="43.9508217" lon="12.1350439"><ele>569.0</ele><time>2026-04-06T15:09:30.008Z</time></trkpt><trkpt lat="43.9510162" lon="12.1350597"><ele>567.6666666666666</ele><time>2026-04-06T15:09:31.009Z</time></trkpt><trkpt lat="43.9512104" lon="12.1350723"><ele>566.3333333333334</ele><time>2026-04-06T15:09:32.008Z</time></trkpt><trkpt lat="43.9513969" lon="12.1350808"><ele>565.0</ele><time>2026-04-06T15:09:33.008Z</time></trkpt><trkpt lat="43.9515708" lon="12.1350871"><ele>567.0</ele><time>2026-04-06T15:09:34.006Z</time></trkpt><trkpt lat="43.9517319" lon="12.1350977"><ele>569.0</ele><time>2026-04-06T15:09:35.006Z</time></trkpt><trkpt lat="43.9518835" lon="12.1351069"><ele>571.0</ele><time>2026-04-06T15:09:36.011Z</time></trkpt><trkpt lat="43.952027" lon="12.135111"><ele>571.0</ele><time>2026-04-06T15:09:37.009Z</time></trkpt><trkpt lat="43.9521618" lon="12.1351089"><ele>571.0</ele><time>2026-04-06T15:09:38.006Z</time></trkpt><trkpt lat="43.9522858" lon="12.1351065"><ele>571.0</ele><time>2026-04-06T15:09:39.009Z</time></trkpt><trkpt lat="43.9524038" lon="12.135121"><ele>571.0</ele><time>2026-04-06T15:09:40.008Z</time></trkpt><trkpt lat="43.9525188" lon="12.1351754"><ele>571.5</ele><time>2026-04-06T15:09:41.007Z</time></trkpt><trkpt lat="43.9526362" lon="12.1352644"><ele>572.0</ele><time>2026-04-06T15:09:42.009Z</time></trkpt><trkpt lat="43.9527611" lon="12.1353373"><ele>572.5</ele><time>2026-04-06T15:09:43.007Z</time></trkpt><trkpt lat="43.9528973" lon="12.1353966"><ele>573.0</ele><time>2026-04-06T15:09:44.009Z</time></trkpt><trkpt lat="43.9530436" lon="12.1354324"><ele>573.0</ele><time>2026-04-06T15:09:45.007Z</time></trkpt><trkpt lat="43.9531938" lon="12.1354363"><ele>573.0</ele><time>2026-04-06T15:09:46.007Z</time></trkpt><trkpt lat="43.9533449" lon="12.1353974"><ele>573.0</ele><time>2026-04-06T15:09:47.01Z</time></trkpt><trkpt lat="43.9534931" lon="12.1353283"><ele>569.0</ele><time>2026-04-06T15:09:48.007Z</time></trkpt><trkpt lat="43.9536445" lon="12.1352292"><ele>565.0</ele><time>2026-04-06T15:09:49.01Z</time></trkpt><trkpt lat="43.9537883" lon="12.1351067"><ele>561.0</ele><time>2026-04-06T15:09:50.006Z</time></trkpt><trkpt lat="43.9539252" lon="12.1349791"><ele>560.25</ele><time>2026-04-06T15:09:51.006Z</time></trkpt><trkpt lat="43.9540589" lon="12.1348699"><ele>559.5</ele><time>2026-04-06T15:09:52.006Z</time></trkpt><trkpt lat="43.9541869" lon="12.1347854"><ele>558.75</ele><time>2026-04-06T15:09:53.006Z</time></trkpt><trkpt lat="43.9543201" lon="12.1347348"><ele>558.0</ele><time>2026-04-06T15:09:54.01Z</time></trkpt><trkpt lat="43.9544599" lon="12.1347125"><ele>560.25</ele><time>2026-04-06T15:09:55.012Z</time></trkpt><trkpt lat="43.954604" lon="12.1347109"><ele>562.5</ele><time>2026-04-06T15:09:56.007Z</time></trkpt><trkpt lat="43.9547503" lon="12.1347347"><ele>564.75</ele><time>2026-04-06T15:09:57.007Z</time></trkpt><trkpt lat="43.9548989" lon="12.1347765"><ele>567.0</ele><time>2026-04-06T15:09:58.007Z</time></trkpt><trkpt lat="43.9550478" lon="12.1348445"><ele>569.25</ele><time>2026-04-06T15:09:59.009Z</time></trkpt><trkpt lat="43.9551925" lon="12.1349363"><ele>571.5</ele><time>2026-04-06T15:10:00.006Z</time></trkpt><trkpt lat="43.9553186" lon="12.1350451"><ele>573.75</ele><time>2026-04-06T15:10:01.011Z</time></trkpt><trkpt lat="43.9554161" lon="12.1351824"><ele>576.0</ele><time>2026-04-06T15:10:02.009Z</time></trkpt><trkpt lat="43.9554832" lon="12.1353401"><ele>576.0</ele><time>2026-04-06T15:10:03.009Z</time></trkpt><trkpt lat="43.9555401" lon="12.1355031"><ele>576.0</ele><time>2026-04-06T15:10:04.008Z</time></trkpt><trkpt lat="43.955607" lon="12.1356516"><ele>576.0</ele><time>2026-04-06T15:10:05.008Z</time></trkpt><trkpt lat="43.9556837" lon="12.1357753"><ele>576.0</ele><time>2026-04-06T15:10:06.009Z</time></trkpt><trkpt lat="43.9557756" lon="12.1358469"><ele>573.0</ele><time>2026-04-06T15:10:07.008Z</time></trkpt><trkpt lat="43.9558827" lon="12.1358723"><ele>570.0</ele><time>2026-04-06T15:10:08.01Z</time></trkpt><trkpt lat="43.9560052" lon="12.135848"><ele>567.0</ele><time>2026-04-06T15:10:09.007Z</time></trkpt><trkpt lat="43.9561452" lon="12.1357897"><ele>564.0</ele><time>2026-04-06T15:10:10.01Z</time></trkpt><trkpt lat="43.9563047" lon="12.1357123"><ele>564.0</ele><time>2026-04-06T15:10:11.007Z</time></trkpt><trkpt lat="43.9564745" lon="12.1356214"><ele>564.0</ele><time>2026-04-06T15:10:12.007Z</time></trkpt><trkpt lat="43.9566449" lon="12.1355269"><ele>564.0</ele><time>2026-04-06T15:10:13.009Z</time></trkpt><trkpt lat="43.95681" lon="12.1354362"><ele>559.6666666666666</ele><time>2026-04-06T15:10:14.006Z</time></trkpt><trkpt lat="43.9569629" lon="12.1353546"><ele>555.3333333333333</ele><time>2026-04-06T15:10:15.008Z</time></trkpt><trkpt lat="43.957105" lon="12.135287"><ele>551.0</ele><time>2026-04-06T15:10:16.006Z</time></trkpt><trkpt lat="43.9572427" lon="12.1352444"><ele>551.0</ele><time>2026-04-06T15:10:17.007Z</time></trkpt><trkpt lat="43.9573808" lon="12.135262"><ele>551.0</ele><time>2026-04-06T15:10:18.007Z</time></trkpt><trkpt lat="43.957522" lon="12.1353011"><ele>551.0</ele><time>2026-04-06T15:10:19.007Z</time></trkpt><trkpt lat="43.9576546" lon="12.1353429"><ele>551.0</ele><time>2026-04-06T15:10:20.009Z</time></trkpt><trkpt lat="43.9577719" lon="12.1353571"><ele>547.0</ele><time>2026-04-06T15:10:21.007Z</time></trkpt><trkpt lat="43.957873" lon="12.1353337"><ele>543.0</ele><time>2026-04-06T15:10:22.011Z</time></trkpt><trkpt lat="43.9579542" lon="12.1352609"><ele>539.0</ele><time>2026-04-06T15:10:23.006Z</time></trkpt><trkpt lat="43.9580265" lon="12.1351459"><ele>535.0</ele><time>2026-04-06T15:10:24.007Z</time></trkpt><trkpt lat="43.9580917" lon="12.1349937"><ele>531.0</ele><time>2026-04-06T15:10:25.007Z</time></trkpt><trkpt lat="43.9581626" lon="12.1348351"><ele>531.0</ele><time>2026-04-06T15:10:26.01Z</time></trkpt><trkpt lat="43.9582426" lon="12.1347064"><ele>531.0</ele><time>2026-04-06T15:10:27.009Z</time></trkpt><trkpt lat="43.9583247" lon="12.1346096"><ele>531.0</ele><time>2026-04-06T15:10:28.007Z</time></trkpt><trkpt lat="43.9583931" lon="12.1345168"><ele>531.0</ele><time>2026-04-06T15:10:29.009Z</time></trkpt><trkpt lat="43.9584567" lon="12.1344276"><ele>531.0</ele><time>2026-04-06T15:10:30.007Z</time></trkpt><trkpt lat="43.9585188" lon="12.1343451"><ele>529.8333333333334</ele><time>2026-04-06T15:10:31.008Z</time></trkpt><trkpt lat="43.9585819" lon="12.1342738"><ele>528.6666666666666</ele><time>2026-04-06T15:10:32.009Z</time></trkpt><trkpt lat="43.9586544" lon="12.1342281"><ele>527.5</ele><time>2026-04-06T15:10:33.008Z</time></trkpt><trkpt lat="43.958732" lon="12.1342004"><ele>526.3333333333333</ele><time>2026-04-06T15:10:34.007Z</time></trkpt><trkpt lat="43.9588209" lon="12.1341904"><ele>525.1666666666666</ele><time>2026-04-06T15:10:35.006Z</time></trkpt><trkpt lat="43.958921" lon="12.1341831"><ele>524.0</ele><time>2026-04-06T15:10:36.006Z</time></trkpt><trkpt lat="43.9590329" lon="12.1341759"><ele>524.0</ele><time>2026-04-06T15:10:37.011Z</time></trkpt><trkpt lat="43.9591471" lon="12.1341618"><ele>524.0</ele><time>2026-04-06T15:10:38.009Z</time></trkpt><trkpt lat="43.9592623" lon="12.1341234"><ele>524.0</ele><time>2026-04-06T15:10:39.007Z</time></trkpt><trkpt lat="43.9593688" lon="12.1340642"><ele>524.0</ele><time>2026-04-06T15:10:40.007Z</time></trkpt><trkpt lat="43.9594769" lon="12.1339869"><ele>525.0</ele><time>2026-04-06T15:10:41.007Z</time></trkpt><trkpt lat="43.9595917" lon="12.1339057"><ele>526.0</ele><time>2026-04-06T15:10:42.008Z</time></trkpt><trkpt lat="43.9597223" lon="12.1338447"><ele>527.0</ele><time>2026-04-06T15:10:43.007Z</time></trkpt><trkpt lat="43.9598613" lon="12.1337879"><ele>528.0</ele><time>2026-04-06T15:10:44.007Z</time></trkpt><trkpt lat="43.9600014" lon="12.1337227"><ele>529.0</ele><time>2026-04-06T15:10:45.008Z</time></trkpt><trkpt lat="43.9601441" lon="12.1336327"><ele>530.0</ele><time>2026-04-06T15:10:46.007Z</time></trkpt><trkpt lat="43.9602883" lon="12.1335177"><ele>531.0</ele><time>2026-04-06T15:10:47.011Z</time></trkpt><trkpt lat="43.9604246" lon="12.133357"><ele>531.0</ele><time>2026-04-06T15:10:48.006Z</time></trkpt><trkpt lat="43.9605526" lon="12.1331786"><ele>531.0</ele><time>2026-04-06T15:10:49.009Z</time></trkpt><trkpt lat="43.9606607" lon="12.1330101"><ele>531.0</ele><time>2026-04-06T15:10:50.006Z</time></trkpt><trkpt lat="43.960752" lon="12.1328705"><ele>531.0</ele><time>2026-04-06T15:10:51.009Z</time></trkpt><trkpt lat="43.9608237" lon="12.1327604"><ele>531.0</ele><time>2026-04-06T15:10:52.01Z</time></trkpt><trkpt lat="43.9608851" lon="12.1326876"><ele>531.0</ele><time>2026-04-06T15:10:53.006Z</time></trkpt><trkpt lat="43.9609513" lon="12.1326446"><ele>531.0</ele><time>2026-04-06T15:10:54.007Z</time></trkpt><trkpt lat="43.9610248" lon="12.1326218"><ele>531.0</ele><time>2026-04-06T15:10:55.007Z</time></trkpt><trkpt lat="43.9611098" lon="12.1326224"><ele>531.0</ele><time>2026-04-06T15:10:56.008Z</time></trkpt><trkpt lat="43.9612005" lon="12.1326354"><ele>531.4</ele><time>2026-04-06T15:10:57.007Z</time></trkpt><trkpt lat="43.9612953" lon="12.132667"><ele>531.8</ele><time>2026-04-06T15:10:58.006Z</time></trkpt><trkpt lat="43.9613857" lon="12.132725"><ele>532.1999999999999</ele><time>2026-04-06T15:10:59.006Z</time></trkpt><trkpt lat="43.9614739" lon="12.132802"><ele>532.6</ele><time>2026-04-06T15:11:00.007Z</time></trkpt><trkpt lat="43.961577" lon="12.1328602"><ele>533.0</ele><time>2026-04-06T15:11:01.007Z</time></trkpt><trkpt lat="43.9617007" lon="12.1328997"><ele>529.5</ele><time>2026-04-06T15:11:02.006Z</time></trkpt><trkpt lat="43.961834" lon="12.132959"><ele>526.0</ele><time>2026-04-06T15:11:03.008Z</time></trkpt><trkpt lat="43.9619577" lon="12.1330421"><ele>522.5</ele><time>2026-04-06T15:11:04.009Z</time></trkpt><trkpt lat="43.9620725" lon="12.1331284"><ele>519.0</ele><time>2026-04-06T15:11:05.008Z</time></trkpt><trkpt lat="43.9621878" lon="12.1331966"><ele>519.0</ele><time>2026-04-06T15:11:06.008Z</time></trkpt><trkpt lat="43.9623145" lon="12.1332186"><ele>519.0</ele><time>2026-04-06T15:11:07.008Z</time></trkpt><trkpt lat="43.9624423" lon="12.1332219"><ele>519.0</ele><time>2026-04-06T15:11:08.009Z</time></trkpt><trkpt lat="43.9625695" lon="12.133216"><ele>519.0</ele><time>2026-04-06T15:11:09.007Z</time></trkpt><trkpt lat="43.962694" lon="12.1332152"><ele>517.0</ele><time>2026-04-06T15:11:10.005Z</time></trkpt><trkpt lat="43.9628148" lon="12.1332181"><ele>515.0</ele><time>2026-04-06T15:11:11.006Z</time></trkpt><trkpt lat="43.9629306" lon="12.1332188"><ele>513.0</ele><time>2026-04-06T15:11:12.008Z</time></trkpt><trkpt lat="43.9630468" lon="12.1332161"><ele>511.0</ele><time>2026-04-06T15:11:13.005Z</time></trkpt><trkpt lat="43.9631737" lon="12.1332118"><ele>511.0</ele><time>2026-04-06T15:11:14.005Z</time></trkpt><trkpt lat="43.9633066" lon="12.1331893"><ele>511.0</ele><time>2026-04-06T15:11:15.008Z</time></trkpt><trkpt lat="43.9634405" lon="12.1331502"><ele>511.0</ele><time>2026-04-06T15:11:16.007Z</time></trkpt><trkpt lat="43.9635676" lon="12.1331093"><ele>511.0</ele><time>2026-04-06T15:11:17.01Z</time></trkpt><trkpt lat="43.9636844" lon="12.1330835"><ele>512.5</ele><time>2026-04-06T15:11:18.008Z</time></trkpt><trkpt lat="43.9637958" lon="12.1330753"><ele>514.0</ele><time>2026-04-06T15:11:19.007Z</time></trkpt><trkpt lat="43.9639153" lon="12.1331083"><ele>515.5</ele><time>2026-04-06T15:11:20.006Z</time></trkpt><trkpt lat="43.9640463" lon="12.1331658"><ele>517.0</ele><time>2026-04-06T15:11:21.007Z</time></trkpt><trkpt lat="43.9641743" lon="12.1332438"><ele>526.25</ele><time>2026-04-06T15:11:22.008Z</time></trkpt><trkpt lat="43.964293" lon="12.1333564"><ele>535.5</ele><time>2026-04-06T15:11:23.008Z</time></trkpt><trkpt lat="43.9644056" lon="12.1334912"><ele>544.75</ele><time>2026-04-06T15:11:24.008Z</time></trkpt><trkpt lat="43.9645293" lon="12.1336104"><ele>554.0</ele><time>2026-04-06T15:11:25.007Z</time></trkpt><trkpt lat="43.9646632" lon="12.133716"><ele>554.0</ele><time>2026-04-06T15:11:26.008Z</time></trkpt><trkpt lat="43.9647924" lon="12.1338203"><ele>554.0</ele><time>2026-04-06T15:11:27.008Z</time></trkpt><trkpt lat="43.964913" lon="12.1339102"><ele>554.0</ele><time>2026-04-06T15:11:28.007Z</time></trkpt><trkpt lat="43.9650227" lon="12.1339845"><ele>554.0</ele><time>2026-04-06T15:11:29.008Z</time></trkpt><trkpt lat="43.9651313" lon="12.1340637"><ele>555.75</ele><time>2026-04-06T15:11:30.008Z</time></trkpt><trkpt lat="43.9652408" lon="12.1341594"><ele>557.5</ele><time>2026-04-06T15:11:31.008Z</time></trkpt><trkpt lat="43.9653447" lon="12.1342851"><ele>559.25</ele><time>2026-04-06T15:11:32.006Z</time></trkpt><trkpt lat="43.9654429" lon="12.1344438"><ele>561.0</ele><time>2026-04-06T15:11:33.007Z</time></trkpt><trkpt lat="43.9655451" lon="12.1346064"><ele>561.0</ele><time>2026-04-06T15:11:34.007Z</time></trkpt><trkpt lat="43.9656509" lon="12.1347529"><ele>561.0</ele><time>2026-04-06T15:11:35.007Z</time></trkpt><trkpt lat="43.9657691" lon="12.1348691"><ele>561.0</ele><time>2026-04-06T15:11:36.008Z</time></trkpt><trkpt lat="43.9658945" lon="12.1349589"><ele>561.0</ele><time>2026-04-06T15:11:37.009Z</time></trkpt><trkpt lat="43.9660171" lon="12.1350304"><ele>560.0</ele><time>2026-04-06T15:11:38.009Z</time></trkpt><trkpt lat="43.9661338" lon="12.1351118"><ele>559.0</ele><time>2026-04-06T15:11:39.009Z</time></trkpt><trkpt lat="43.9662422" lon="12.1352032"><ele>558.0</ele><time>2026-04-06T15:11:40.007Z</time></trkpt><trkpt lat="43.966333" lon="12.1353073"><ele>557.0</ele><time>2026-04-06T15:11:41.007Z</time></trkpt><trkpt lat="43.9664018" lon="12.1354377"><ele>557.0</ele><time>2026-04-06T15:11:42.009Z</time></trkpt><trkpt lat="43.9664417" lon="12.1356065"><ele>557.0</ele><time>2026-04-06T15:11:43.009Z</time></trkpt><trkpt lat="43.966459" lon="12.1358069"><ele>557.0</ele><time>2026-04-06T15:11:44.009Z</time></trkpt><trkpt lat="43.9664696" lon="12.1360133"><ele>557.0</ele><time>2026-04-06T15:11:45.008Z</time></trkpt><trkpt lat="43.9664804" lon="12.1362086"><ele>559.6666666666666</ele><time>2026-04-06T15:11:46.01Z</time></trkpt><trkpt lat="43.9665042" lon="12.1364009"><ele>562.3333333333334</ele><time>2026-04-06T15:11:47.007Z</time></trkpt><trkpt lat="43.966552" lon="12.1366024"><ele>565.0</ele><time>2026-04-06T15:11:48.013Z</time></trkpt><trkpt lat="43.9666215" lon="12.1368148"><ele>571.6666666666667</ele><time>2026-04-06T15:11:49.009Z</time></trkpt><trkpt lat="43.9666998" lon="12.1370331"><ele>578.3333333333334</ele><time>2026-04-06T15:11:50.013Z</time></trkpt><trkpt lat="43.9667489" lon="12.1372619"><ele>585.0</ele><time>2026-04-06T15:11:51.01Z</time></trkpt><trkpt lat="43.966764" lon="12.1374956"><ele>585.0</ele><time>2026-04-06T15:11:52.007Z</time></trkpt><trkpt lat="43.9667857" lon="12.1377325"><ele>585.0</ele><time>2026-04-06T15:11:53.007Z</time></trkpt><trkpt lat="43.9668275" lon="12.1379591"><ele>585.0</ele><time>2026-04-06T15:11:54.007Z</time></trkpt><trkpt lat="43.9668816" lon="12.1381634"><ele>581.75</ele><time>2026-04-06T15:11:55.01Z</time></trkpt><trkpt lat="43.9669352" lon="12.138346"><ele>578.5</ele><time>2026-04-06T15:11:56.011Z</time></trkpt><trkpt lat="43.9669918" lon="12.1385052"><ele>575.25</ele><time>2026-04-06T15:11:57.007Z</time></trkpt><trkpt lat="43.9670699" lon="12.1386457"><ele>572.0</ele><time>2026-04-06T15:11:58.009Z</time></trkpt><trkpt lat="43.9671569" lon="12.1387832"><ele>572.0</ele><time>2026-04-06T15:11:59.007Z</time></trkpt><trkpt lat="43.9672684" lon="12.1389097"><ele>572.0</ele><time>2026-04-06T15:12:00.006Z</time></trkpt><trkpt lat="43.9673817" lon="12.1390245"><ele>572.0</ele><time>2026-04-06T15:12:01.009Z</time></trkpt><trkpt lat="43.9674834" lon="12.1391382"><ele>572.0</ele><time>2026-04-06T15:12:02.008Z</time></trkpt><trkpt lat="43.9675645" lon="12.1392712"><ele>566.75</ele><time>2026-04-06T15:12:03.009Z</time></trkpt><trkpt lat="43.9676119" lon="12.1394326"><ele>561.5</ele><time>2026-04-06T15:12:04.008Z</time></trkpt><trkpt lat="43.9676695" lon="12.139591"><ele>556.25</ele><time>2026-04-06T15:12:05.007Z</time></trkpt><trkpt lat="43.9677667" lon="12.1397102"><ele>551.0</ele><time>2026-04-06T15:12:06.006Z</time></trkpt><trkpt lat="43.967891" lon="12.1397926"><ele>555.25</ele><time>2026-04-06T15:12:07.008Z</time></trkpt><trkpt lat="43.968005" lon="12.1398999"><ele>559.5</ele><time>2026-04-06T15:12:08.007Z</time></trkpt><trkpt lat="43.9680905" lon="12.1400509"><ele>563.75</ele><time>2026-04-06T15:12:09.009Z</time></trkpt><trkpt lat="43.9681886" lon="12.1401782"><ele>568.0</ele><time>2026-04-06T15:12:10.007Z</time></trkpt><trkpt lat="43.9683114" lon="12.1402393"><ele>564.0</ele><time>2026-04-06T15:12:11.007Z</time></trkpt><trkpt lat="43.9684427" lon="12.1402407"><ele>560.0</ele><time>2026-04-06T15:12:12.009Z</time></trkpt><trkpt lat="43.9685672" lon="12.1402011"><ele>556.0</ele><time>2026-04-06T15:12:13.007Z</time></trkpt><trkpt lat="43.96868" lon="12.1401809"><ele>552.0</ele><time>2026-04-06T15:12:14.007Z</time></trkpt><trkpt lat="43.9687782" lon="12.1402151"><ele>552.0</ele><time>2026-04-06T15:12:15.01Z</time></trkpt><trkpt lat="43.9688578" lon="12.1403168"><ele>552.0</ele><time>2026-04-06T15:12:16.009Z</time></trkpt><trkpt lat="43.9689364" lon="12.1404625"><ele>552.0</ele><time>2026-04-06T15:12:17.007Z</time></trkpt><trkpt lat="43.9690107" lon="12.1406339"><ele>552.0</ele><time>2026-04-06T15:12:18.007Z</time></trkpt><trkpt lat="43.9690746" lon="12.1408151"><ele>554.25</ele><time>2026-04-06T15:12:19.01Z</time></trkpt><trkpt lat="43.9691481" lon="12.1409585"><ele>556.5</ele><time>2026-04-06T15:12:20.009Z</time></trkpt><trkpt lat="43.9692314" lon="12.1410624"><ele>558.75</ele><time>2026-04-06T15:12:21.006Z</time></trkpt><trkpt lat="43.9693393" lon="12.1411104"><ele>561.0</ele><time>2026-04-06T15:12:22.007Z</time></trkpt><trkpt lat="43.9694598" lon="12.1411067"><ele>561.0</ele><time>2026-04-06T15:12:23.005Z</time></trkpt><trkpt lat="43.9695823" lon="12.1410808"><ele>561.0</ele><time>2026-04-06T15:12:24.006Z</time></trkpt><trkpt lat="43.9696961" lon="12.1410686"><ele>561.0</ele><time>2026-04-06T15:12:25.008Z</time></trkpt><trkpt lat="43.9698126" lon="12.1410895"><ele>561.0</ele><time>2026-04-06T15:12:26.006Z</time></trkpt><trkpt lat="43.9699225" lon="12.1411294"><ele>561.0</ele><time>2026-04-06T15:12:27.007Z</time></trkpt><trkpt lat="43.9699987" lon="12.1412142"><ele>561.0</ele><time>2026-04-06T15:12:28.006Z</time></trkpt><trkpt lat="43.970047" lon="12.1413364"><ele>561.0</ele><time>2026-04-06T15:12:29.006Z</time></trkpt><trkpt lat="43.9700881" lon="12.1414732"><ele>561.0</ele><time>2026-04-06T15:12:30.005Z</time></trkpt><trkpt lat="43.9701238" lon="12.1416199"><ele>561.0</ele><time>2026-04-06T15:12:31.005Z</time></trkpt><trkpt lat="43.9701589" lon="12.1417705"><ele>556.75</ele><time>2026-04-06T15:12:32.005Z</time></trkpt><trkpt lat="43.9701827" lon="12.1419311"><ele>552.5</ele><time>2026-04-06T15:12:33.008Z</time></trkpt><trkpt lat="43.9702064" lon="12.1420959"><ele>548.25</ele><time>2026-04-06T15:12:34.007Z</time></trkpt><trkpt lat="43.9702436" lon="12.1422519"><ele>544.0</ele><time>2026-04-06T15:12:35.008Z</time></trkpt><trkpt lat="43.9703051" lon="12.1423864"><ele>544.0</ele><time>2026-04-06T15:12:36.005Z</time></trkpt><trkpt lat="43.9703656" lon="12.1425123"><ele>544.0</ele><time>2026-04-06T15:12:37.008Z</time></trkpt><trkpt lat="43.9704251" lon="12.1426333"><ele>544.0</ele><time>2026-04-06T15:12:38.006Z</time></trkpt><trkpt lat="43.9704806" lon="12.1427538"><ele>544.0</ele><time>2026-04-06T15:12:39.006Z</time></trkpt><trkpt lat="43.9705365" lon="12.1428751"><ele>544.0</ele><time>2026-04-06T15:12:40.007Z</time></trkpt><trkpt lat="43.9705857" lon="12.1430012"><ele>544.0</ele><time>2026-04-06T15:12:41.006Z</time></trkpt><trkpt lat="43.9706337" lon="12.1431392"><ele>544.0</ele><time>2026-04-06T15:12:42.008Z</time></trkpt><trkpt lat="43.9707032" lon="12.1432597"><ele>544.0</ele><time>2026-04-06T15:12:43.006Z</time></trkpt><trkpt lat="43.970794" lon="12.1433657"><ele>544.0</ele><time>2026-04-06T15:12:44.006Z</time></trkpt><trkpt lat="43.970902" lon="12.1434598"><ele>544.75</ele><time>2026-04-06T15:12:45.005Z</time></trkpt><trkpt lat="43.9710159" lon="12.1435568"><ele>545.5</ele><time>2026-04-06T15:12:46.007Z</time></trkpt><trkpt lat="43.971128" lon="12.143643"><ele>546.25</ele><time>2026-04-06T15:12:47.009Z</time></trkpt><trkpt lat="43.9712502" lon="12.1436895"><ele>547.0</ele><time>2026-04-06T15:12:48.007Z</time></trkpt><trkpt lat="43.9713885" lon="12.1436831"><ele>547.0</ele><time>2026-04-06T15:12:49.007Z</time></trkpt><trkpt lat="43.9715272" lon="12.1436458"><ele>547.0</ele><time>2026-04-06T15:12:50.006Z</time></trkpt><trkpt lat="43.9716614" lon="12.1436309"><ele>547.0</ele><time>2026-04-06T15:12:51.008Z</time></trkpt><trkpt lat="43.9717848" lon="12.1436614"><ele>547.0</ele><time>2026-04-06T15:12:52.006Z</time></trkpt><trkpt lat="43.9718948" lon="12.1437163"><ele>550.0</ele><time>2026-04-06T15:12:53.007Z</time></trkpt><trkpt lat="43.9719932" lon="12.1437812"><ele>553.0</ele><time>2026-04-06T15:12:54.005Z</time></trkpt><trkpt lat="43.9720892" lon="12.1438525"><ele>556.0</ele><time>2026-04-06T15:12:55.008Z</time></trkpt><trkpt lat="43.9721931" lon="12.1439176"><ele>559.0</ele><time>2026-04-06T15:12:56.007Z</time></trkpt><trkpt lat="43.9723108" lon="12.1439698"><ele>559.0</ele><time>2026-04-06T15:12:57.007Z</time></trkpt><trkpt lat="43.9724517" lon="12.1439918"><ele>559.0</ele><time>2026-04-06T15:12:58.007Z</time></trkpt><trkpt lat="43.9726086" lon="12.1440009"><ele>559.0</ele><time>2026-04-06T15:12:59.007Z</time></trkpt><trkpt lat="43.9727636" lon="12.1440077"><ele>561.25</ele><time>2026-04-06T15:13:00.006Z</time></trkpt><trkpt lat="43.9729027" lon="12.1440396"><ele>563.5</ele><time>2026-04-06T15:13:01.006Z</time></trkpt><trkpt lat="43.9730346" lon="12.144117"><ele>565.75</ele><time>2026-04-06T15:13:02.007Z</time></trkpt><trkpt lat="43.973162" lon="12.1442457"><ele>568.0</ele><time>2026-04-06T15:13:03.007Z</time></trkpt><trkpt lat="43.9732941" lon="12.1443662"><ele>569.75</ele><time>2026-04-06T15:13:04.007Z</time></trkpt><trkpt lat="43.9734255" lon="12.1444468"><ele>571.5</ele><time>2026-04-06T15:13:05.007Z</time></trkpt><trkpt lat="43.9735523" lon="12.1444898"><ele>573.25</ele><time>2026-04-06T15:13:06.007Z</time></trkpt><trkpt lat="43.9736799" lon="12.1445055"><ele>575.0</ele><time>2026-04-06T15:13:07.007Z</time></trkpt><trkpt lat="43.9738153" lon="12.144504"><ele>575.0</ele><time>2026-04-06T15:13:08.01Z</time></trkpt><trkpt lat="43.9739569" lon="12.1444901"><ele>575.0</ele><time>2026-04-06T15:13:09.006Z</time></trkpt><trkpt lat="43.9740954" lon="12.1444969"><ele>575.0</ele><time>2026-04-06T15:13:10.009Z</time></trkpt><trkpt lat="43.9742244" lon="12.1445239"><ele>575.0</ele><time>2026-04-06T15:13:11.007Z</time></trkpt><trkpt lat="43.9743432" lon="12.1445754"><ele>574.0</ele><time>2026-04-06T15:13:12.006Z</time></trkpt><trkpt lat="43.9744581" lon="12.1446554"><ele>573.0</ele><time>2026-04-06T15:13:13.011Z</time></trkpt><trkpt lat="43.9745667" lon="12.144756"><ele>572.0</ele><time>2026-04-06T15:13:14.006Z</time></trkpt><trkpt lat="43.9746699" lon="12.1448758"><ele>571.0</ele><time>2026-04-06T15:13:15.007Z</time></trkpt><trkpt lat="43.9747728" lon="12.1449938"><ele>570.5</ele><time>2026-04-06T15:13:16.007Z</time></trkpt><trkpt lat="43.9748825" lon="12.1450976"><ele>570.0</ele><time>2026-04-06T15:13:17.009Z</time></trkpt><trkpt lat="43.975002" lon="12.1451797"><ele>569.5</ele><time>2026-04-06T15:13:18.005Z</time></trkpt><trkpt lat="43.9751364" lon="12.1452282"><ele>569.0</ele><time>2026-04-06T15:13:19.007Z</time></trkpt><trkpt lat="43.9752703" lon="12.1452755"><ele>570.25</ele><time>2026-04-06T15:13:20.006Z</time></trkpt><trkpt lat="43.9753963" lon="12.1453334"><ele>571.5</ele><time>2026-04-06T15:13:21.007Z</time></trkpt><trkpt lat="43.9755217" lon="12.1453956"><ele>572.75</ele><time>2026-04-06T15:13:22.006Z</time></trkpt><trkpt lat="43.9756422" lon="12.145467"><ele>574.0</ele><time>2026-04-06T15:13:23.005Z</time></trkpt><trkpt lat="43.9757675" lon="12.1455247"><ele>571.0</ele><time>2026-04-06T15:13:24.007Z</time></trkpt><trkpt lat="43.9758966" lon="12.1455601"><ele>568.0</ele><time>2026-04-06T15:13:25.005Z</time></trkpt><trkpt lat="43.9760275" lon="12.1455934"><ele>565.0</ele><time>2026-04-06T15:13:26.007Z</time></trkpt><trkpt lat="43.9761445" lon="12.1456774"><ele>562.0</ele><time>2026-04-06T15:13:27.005Z</time></trkpt><trkpt lat="43.9762471" lon="12.1457948"><ele>558.0</ele><time>2026-04-06T15:13:28.009Z</time></trkpt><trkpt lat="43.976338" lon="12.1459381"><ele>554.0</ele><time>2026-04-06T15:13:29.007Z</time></trkpt><trkpt lat="43.9764233" lon="12.1460879"><ele>550.0</ele><time>2026-04-06T15:13:30.007Z</time></trkpt><trkpt lat="43.9765065" lon="12.1462291"><ele>546.0</ele><time>2026-04-06T15:13:31.007Z</time></trkpt><trkpt lat="43.9765791" lon="12.1463642"><ele>546.0</ele><time>2026-04-06T15:13:32.006Z</time></trkpt><trkpt lat="43.9766447" lon="12.1464745"><ele>546.0</ele><time>2026-04-06T15:13:33.009Z</time></trkpt><trkpt lat="43.9766981" lon="12.1465628"><ele>546.0</ele><time>2026-04-06T15:13:34.006Z</time></trkpt><trkpt lat="43.9767441" lon="12.146634"><ele>546.0</ele><time>2026-04-06T15:13:35.009Z</time></trkpt><trkpt lat="43.9768047" lon="12.1467221"><ele>546.0</ele><time>2026-04-06T15:13:37.007Z</time></trkpt><trkpt lat="43.9768738" lon="12.1467147"><ele>546.0</ele><time>2026-04-06T15:13:40.007Z</time></trkpt><trkpt lat="43.9768929" lon="12.1465558"><ele>538.5</ele><time>2026-04-06T15:13:42.007Z</time></trkpt><trkpt lat="43.976904" lon="12.1464267"><ele>531.0</ele><time>2026-04-06T15:13:43.008Z</time></trkpt><trkpt lat="43.9769418" lon="12.1463013"><ele>523.5</ele><time>2026-04-06T15:13:44.008Z</time></trkpt><trkpt lat="43.9769614" lon="12.1460264"><ele>516.0</ele><time>2026-04-06T15:13:45.011Z</time></trkpt><trkpt lat="43.9769928" lon="12.1457559"><ele>521.0</ele><time>2026-04-06T15:13:46.006Z</time></trkpt><trkpt lat="43.9770288" lon="12.1455066"><ele>526.0</ele><time>2026-04-06T15:13:47.007Z</time></trkpt><trkpt lat="43.97708" lon="12.1453025"><ele>531.0</ele><time>2026-04-06T15:13:48.008Z</time></trkpt><trkpt lat="43.9771294" lon="12.1451163"><ele>531.0</ele><time>2026-04-06T15:13:49.008Z</time></trkpt><trkpt lat="43.9771659" lon="12.1449239"><ele>531.0</ele><time>2026-04-06T15:13:50.011Z</time></trkpt><trkpt lat="43.9771949" lon="12.1447143"><ele>531.0</ele><time>2026-04-06T15:13:51.006Z</time></trkpt><trkpt lat="43.9772181" lon="12.1444984"><ele>533.75</ele><time>2026-04-06T15:13:52.008Z</time></trkpt><trkpt lat="43.9772437" lon="12.1442911"><ele>536.5</ele><time>2026-04-06T15:13:53.009Z</time></trkpt><trkpt lat="43.9772747" lon="12.1440941"><ele>539.25</ele><time>2026-04-06T15:13:54.005Z</time></trkpt><trkpt lat="43.9773261" lon="12.1439173"><ele>542.0</ele><time>2026-04-06T15:13:55.006Z</time></trkpt><trkpt lat="43.9773859" lon="12.1437516"><ele>540.25</ele><time>2026-04-06T15:13:56.006Z</time></trkpt><trkpt lat="43.9774432" lon="12.1435897"><ele>538.5</ele><time>2026-04-06T15:13:57.009Z</time></trkpt><trkpt lat="43.9774939" lon="12.1434288"><ele>536.75</ele><time>2026-04-06T15:13:58.009Z</time></trkpt><trkpt lat="43.9775338" lon="12.1432576"><ele>535.0</ele><time>2026-04-06T15:13:59.006Z</time></trkpt><trkpt lat="43.9775538" lon="12.1430717"><ele>535.0</ele><time>2026-04-06T15:14:00.007Z</time></trkpt><trkpt lat="43.9775775" lon="12.1428833"><ele>535.0</ele><time>2026-04-06T15:14:01.006Z</time></trkpt><trkpt lat="43.9776195" lon="12.142685"><ele>535.0</ele><time>2026-04-06T15:14:02.008Z</time></trkpt><trkpt lat="43.9776786" lon="12.1424816"><ele>535.0</ele><time>2026-04-06T15:14:03.007Z</time></trkpt><trkpt lat="43.9777357" lon="12.1422856"><ele>539.0</ele><time>2026-04-06T15:14:04.006Z</time></trkpt><trkpt lat="43.9777873" lon="12.1421016"><ele>543.0</ele><time>2026-04-06T15:14:05.006Z</time></trkpt><trkpt lat="43.977837" lon="12.1419452"><ele>547.0</ele><time>2026-04-06T15:14:06.006Z</time></trkpt><trkpt lat="43.9778932" lon="12.141822"><ele>551.0</ele><time>2026-04-06T15:14:07.008Z</time></trkpt><trkpt lat="43.9779686" lon="12.1417406"><ele>551.0</ele><time>2026-04-06T15:14:08.006Z</time></trkpt><trkpt lat="43.9780559" lon="12.1416955"><ele>551.0</ele><time>2026-04-06T15:14:09.011Z</time></trkpt><trkpt lat="43.9781598" lon="12.1416865"><ele>551.0</ele><time>2026-04-06T15:14:10.007Z</time></trkpt><trkpt lat="43.9782784" lon="12.1417086"><ele>551.0</ele><time>2026-04-06T15:14:11.006Z</time></trkpt><trkpt lat="43.9783996" lon="12.1417444"><ele>551.0</ele><time>2026-04-06T15:14:12.007Z</time></trkpt><trkpt lat="43.9785183" lon="12.1417695"><ele>550.8</ele><time>2026-04-06T15:14:13.005Z</time></trkpt><trkpt lat="43.9786276" lon="12.1417682"><ele>550.6</ele><time>2026-04-06T15:14:14.007Z</time></trkpt><trkpt lat="43.9787153" lon="12.1417437"><ele>550.4</ele><time>2026-04-06T15:14:15.008Z</time></trkpt><trkpt lat="43.9788128" lon="12.1417109"><ele>550.2</ele><time>2026-04-06T15:14:17.006Z</time></trkpt><trkpt lat="43.9788571" lon="12.1415734"><ele>550.0</ele><time>2026-04-06T15:14:19.006Z</time></trkpt><trkpt lat="43.9788868" lon="12.1414615"><ele>550.0</ele><time>2026-04-06T15:14:20.011Z</time></trkpt><trkpt lat="43.9789137" lon="12.141336"><ele>550.0</ele><time>2026-04-06T15:14:21.009Z</time></trkpt><trkpt lat="43.978943" lon="12.1412045"><ele>550.0</ele><time>2026-04-06T15:14:22.007Z</time></trkpt><trkpt lat="43.9789932" lon="12.1410667"><ele>550.0</ele><time>2026-04-06T15:14:23.007Z</time></trkpt><trkpt lat="43.9790777" lon="12.1409279"><ele>550.0</ele><time>2026-04-06T15:14:24.008Z</time></trkpt><trkpt lat="43.9792003" lon="12.1407955"><ele>547.0</ele><time>2026-04-06T15:14:25.006Z</time></trkpt><trkpt lat="43.9793323" lon="12.1406451"><ele>544.0</ele><time>2026-04-06T15:14:26.01Z</time></trkpt><trkpt lat="43.9794487" lon="12.1404733"><ele>541.0</ele><time>2026-04-06T15:14:27.008Z</time></trkpt><trkpt lat="43.9795414" lon="12.1402959"><ele>541.0</ele><time>2026-04-06T15:14:28.006Z</time></trkpt><trkpt lat="43.9796144" lon="12.1401288"><ele>541.0</ele><time>2026-04-06T15:14:29.007Z</time></trkpt><trkpt lat="43.9796581" lon="12.1399628"><ele>541.0</ele><time>2026-04-06T15:14:30.005Z</time></trkpt><trkpt lat="43.9796746" lon="12.1398127"><ele>541.0</ele><time>2026-04-06T15:14:31.007Z</time></trkpt><trkpt lat="43.9796485" lon="12.139684"><ele>539.5</ele><time>2026-04-06T15:14:32.009Z</time></trkpt><trkpt lat="43.9796068" lon="12.1395599"><ele>538.0</ele><time>2026-04-06T15:14:33.008Z</time></trkpt><trkpt lat="43.9795309" lon="12.1394347"><ele>536.5</ele><time>2026-04-06T15:14:34.01Z</time></trkpt><trkpt lat="43.9794332" lon="12.1392768"><ele>535.0</ele><time>2026-04-06T15:14:35.008Z</time></trkpt><trkpt lat="43.9793626" lon="12.1390915"><ele>530.75</ele><time>2026-04-06T15:14:36.007Z</time></trkpt><trkpt lat="43.9793033" lon="12.1389038"><ele>526.5</ele><time>2026-04-06T15:14:37.009Z</time></trkpt><trkpt lat="43.9792396" lon="12.1387321"><ele>522.25</ele><time>2026-04-06T15:14:38.007Z</time></trkpt><trkpt lat="43.9791402" lon="12.138583"><ele>518.0</ele><time>2026-04-06T15:14:39.008Z</time></trkpt><trkpt lat="43.979006" lon="12.1384541"><ele>522.3333333333333</ele><time>2026-04-06T15:14:40.007Z</time></trkpt><trkpt lat="43.9788409" lon="12.1383494"><ele>526.6666666666666</ele><time>2026-04-06T15:14:41.008Z</time></trkpt><trkpt lat="43.9786669" lon="12.1382728"><ele>531.0</ele><time>2026-04-06T15:14:42.005Z</time></trkpt><trkpt lat="43.9785038" lon="12.138213"><ele>531.0</ele><time>2026-04-06T15:14:43.01Z</time></trkpt><trkpt lat="43.9783593" lon="12.1381464"><ele>531.0</ele><time>2026-04-06T15:14:44.006Z</time></trkpt><trkpt lat="43.9782399" lon="12.138034"><ele>531.0</ele><time>2026-04-06T15:14:45.012Z</time></trkpt><trkpt lat="43.9781362" lon="12.1378932"><ele>531.0</ele><time>2026-04-06T15:14:46.006Z</time></trkpt><trkpt lat="43.9780332" lon="12.1377447"><ele>535.75</ele><time>2026-04-06T15:14:47.006Z</time></trkpt><trkpt lat="43.9779214" lon="12.1376251"><ele>540.5</ele><time>2026-04-06T15:14:48.007Z</time></trkpt><trkpt lat="43.9777916" lon="12.1375614"><ele>545.25</ele><time>2026-04-06T15:14:49.005Z</time></trkpt><trkpt lat="43.9776493" lon="12.1375523"><ele>550.0</ele><time>2026-04-06T15:14:50.083Z</time></trkpt><trkpt lat="43.9775206" lon="12.1375698"><ele>549.4</ele><time>2026-04-06T15:14:51.009Z</time></trkpt><trkpt lat="43.9774047" lon="12.1375875"><ele>548.8</ele><time>2026-04-06T15:14:52.008Z</time></trkpt><trkpt lat="43.9773166" lon="12.1375598"><ele>548.2</ele><time>2026-04-06T15:14:53.009Z</time></trkpt><trkpt lat="43.977257" lon="12.1374862"><ele>547.6</ele><time>2026-04-06T15:14:54.009Z</time></trkpt><trkpt lat="43.9772297" lon="12.13735"><ele>547.0</ele><time>2026-04-06T15:14:55.01Z</time></trkpt><trkpt lat="43.9771952" lon="12.1372048"><ele>547.0</ele><time>2026-04-06T15:14:56.006Z</time></trkpt><trkpt lat="43.9771432" lon="12.1370378"><ele>547.0</ele><time>2026-04-06T15:14:57.006Z</time></trkpt><trkpt lat="43.9770926" lon="12.1368034"><ele>547.0</ele><time>2026-04-06T15:14:58.01Z</time></trkpt><trkpt lat="43.9770135" lon="12.1365585"><ele>549.3333333333334</ele><time>2026-04-06T15:14:59.009Z</time></trkpt><trkpt lat="43.9769087" lon="12.1363076"><ele>551.6666666666666</ele><time>2026-04-06T15:15:00.007Z</time></trkpt><trkpt lat="43.9767897" lon="12.1360534"><ele>554.0</ele><time>2026-04-06T15:15:01.006Z</time></trkpt><trkpt lat="43.9766771" lon="12.1357922"><ele>552.3333333333333</ele><time>2026-04-06T15:15:02.005Z</time></trkpt><trkpt lat="43.9765646" lon="12.1355425"><ele>550.6666666666666</ele><time>2026-04-06T15:15:03.008Z</time></trkpt><trkpt lat="43.9764538" lon="12.1353024"><ele>549.0</ele><time>2026-04-06T15:15:04.007Z</time></trkpt><trkpt lat="43.9763416" lon="12.1350776"><ele>546.6666666666666</ele><time>2026-04-06T15:15:05.006Z</time></trkpt><trkpt lat="43.9762358" lon="12.1348756"><ele>544.3333333333333</ele><time>2026-04-06T15:15:06.006Z</time></trkpt><trkpt lat="43.9761456" lon="12.1346944"><ele>542.0</ele><time>2026-04-06T15:15:07.005Z</time></trkpt><trkpt lat="43.976075" lon="12.1345358"><ele>542.0</ele><time>2026-04-06T15:15:08.009Z</time></trkpt><trkpt lat="43.9760308" lon="12.1343966"><ele>542.0</ele><time>2026-04-06T15:15:09.01Z</time></trkpt><trkpt lat="43.9760262" lon="12.1342796"><ele>542.0</ele><time>2026-04-06T15:15:10.006Z</time></trkpt><trkpt lat="43.9760513" lon="12.1341841"><ele>542.0</ele><time>2026-04-06T15:15:11.006Z</time></trkpt><trkpt lat="43.9761328" lon="12.134118"><ele>542.0</ele><time>2026-04-06T15:15:12.007Z</time></trkpt><trkpt lat="43.9762556" lon="12.1340764"><ele>539.75</ele><time>2026-04-06T15:15:13.006Z</time></trkpt><trkpt lat="43.9763862" lon="12.1340384"><ele>537.5</ele><time>2026-04-06T15:15:14.009Z</time></trkpt><trkpt lat="43.9765035" lon="12.1339745"><ele>535.25</ele><time>2026-04-06T15:15:15.008Z</time></trkpt><trkpt lat="43.9765938" lon="12.1338725"><ele>533.0</ele><time>2026-04-06T15:15:16.007Z</time></trkpt><trkpt lat="43.9766632" lon="12.1337356"><ele>531.75</ele><time>2026-04-06T15:15:17.007Z</time></trkpt><trkpt lat="43.9767069" lon="12.1335611"><ele>530.5</ele><time>2026-04-06T15:15:18.007Z</time></trkpt><trkpt lat="43.976727" lon="12.1333762"><ele>529.25</ele><time>2026-04-06T15:15:19.01Z</time></trkpt><trkpt lat="43.9767077" lon="12.1331901"><ele>528.0</ele><time>2026-04-06T15:15:20.008Z</time></trkpt><trkpt lat="43.9766461" lon="12.1330172"><ele>532.0</ele><time>2026-04-06T15:15:21.007Z</time></trkpt><trkpt lat="43.9765409" lon="12.1328667"><ele>536.0</ele><time>2026-04-06T15:15:22.007Z</time></trkpt><trkpt lat="43.9764096" lon="12.1327331"><ele>540.0</ele><time>2026-04-06T15:15:23.009Z</time></trkpt><trkpt lat="43.9762513" lon="12.1326043"><ele>540.0</ele><time>2026-04-06T15:15:24.006Z</time></trkpt><trkpt lat="43.9760816" lon="12.1324819"><ele>540.0</ele><time>2026-04-06T15:15:25.009Z</time></trkpt><trkpt lat="43.9759185" lon="12.1323564"><ele>540.0</ele><time>2026-04-06T15:15:26.01Z</time></trkpt><trkpt lat="43.9757787" lon="12.1322459"><ele>539.8</ele><time>2026-04-06T15:15:27.007Z</time></trkpt><trkpt lat="43.9756701" lon="12.1321446"><ele>539.6</ele><time>2026-04-06T15:15:28.008Z</time></trkpt><trkpt lat="43.975593" lon="12.1320471"><ele>539.4</ele><time>2026-04-06T15:15:29.006Z</time></trkpt><trkpt lat="43.9755494" lon="12.1319532"><ele>539.2</ele><time>2026-04-06T15:15:30.006Z</time></trkpt><trkpt lat="43.9755462" lon="12.1318474"><ele>539.0</ele><time>2026-04-06T15:15:31.007Z</time></trkpt><trkpt lat="43.975582" lon="12.1317341"><ele>539.0</ele><time>2026-04-06T15:15:32.007Z</time></trkpt><trkpt lat="43.9756575" lon="12.131611"><ele>539.0</ele><time>2026-04-06T15:15:33.008Z</time></trkpt><trkpt lat="43.9757491" lon="12.1314659"><ele>539.0</ele><time>2026-04-06T15:15:34.008Z</time></trkpt><trkpt lat="43.9758668" lon="12.1313484"><ele>539.0</ele><time>2026-04-06T15:15:35.006Z</time></trkpt><trkpt lat="43.9760204" lon="12.131289"><ele>538.75</ele><time>2026-04-06T15:15:36.008Z</time></trkpt><trkpt lat="43.9761678" lon="12.1312342"><ele>538.5</ele><time>2026-04-06T15:15:37.007Z</time></trkpt><trkpt lat="43.9762803" lon="12.131132"><ele>538.25</ele><time>2026-04-06T15:15:38.008Z</time></trkpt><trkpt lat="43.9763557" lon="12.1309814"><ele>538.0</ele><time>2026-04-06T15:15:39.009Z</time></trkpt><trkpt lat="43.9763951" lon="12.1308037"><ele>538.5</ele><time>2026-04-06T15:15:40.008Z</time></trkpt><trkpt lat="43.9763957" lon="12.1306174"><ele>539.0</ele><time>2026-04-06T15:15:41.007Z</time></trkpt><trkpt lat="43.9763556" lon="12.13043"><ele>539.5</ele><time>2026-04-06T15:15:42.007Z</time></trkpt><trkpt lat="43.976265" lon="12.1302392"><ele>540.0</ele><time>2026-04-06T15:15:43.007Z</time></trkpt><trkpt lat="43.9761462" lon="12.1300404"><ele>542.0</ele><time>2026-04-06T15:15:44.008Z</time></trkpt><trkpt lat="43.9760335" lon="12.1298427"><ele>544.0</ele><time>2026-04-06T15:15:45.008Z</time></trkpt><trkpt lat="43.9759355" lon="12.1296508"><ele>546.0</ele><time>2026-04-06T15:15:46.007Z</time></trkpt><trkpt lat="43.9758459" lon="12.1294784"><ele>541.75</ele><time>2026-04-06T15:15:47.008Z</time></trkpt><trkpt lat="43.9757803" lon="12.1293209"><ele>537.5</ele><time>2026-04-06T15:15:48.007Z</time></trkpt><trkpt lat="43.9757534" lon="12.1291804"><ele>533.25</ele><time>2026-04-06T15:15:49.008Z</time></trkpt><trkpt lat="43.975775" lon="12.1290472"><ele>529.0</ele><time>2026-04-06T15:15:50.01Z</time></trkpt><trkpt lat="43.9758428" lon="12.1289077"><ele>531.5</ele><time>2026-04-06T15:15:51.008Z</time></trkpt><trkpt lat="43.9759136" lon="12.128755"><ele>534.0</ele><time>2026-04-06T15:15:52.006Z</time></trkpt><trkpt lat="43.9760253" lon="12.1286225"><ele>536.5</ele><time>2026-04-06T15:15:53.007Z</time></trkpt><trkpt lat="43.976137" lon="12.1284986"><ele>539.0</ele><time>2026-04-06T15:15:54.008Z</time></trkpt><trkpt lat="43.9762048" lon="12.1283476"><ele>535.0</ele><time>2026-04-06T15:15:55.008Z</time></trkpt><trkpt lat="43.9762262" lon="12.1281701"><ele>531.0</ele><time>2026-04-06T15:15:56.007Z</time></trkpt><trkpt lat="43.976206" lon="12.1279798"><ele>527.0</ele><time>2026-04-06T15:15:57.006Z</time></trkpt><trkpt lat="43.9762048" lon="12.1277944"><ele>523.0</ele><time>2026-04-06T15:15:58.006Z</time></trkpt><trkpt lat="43.9762408" lon="12.1276276"><ele>523.0</ele><time>2026-04-06T15:15:59.006Z</time></trkpt><trkpt lat="43.9763211" lon="12.1274855"><ele>523.0</ele><time>2026-04-06T15:16:00.009Z</time></trkpt><trkpt lat="43.9764358" lon="12.1273627"><ele>523.0</ele><time>2026-04-06T15:16:01.006Z</time></trkpt><trkpt lat="43.976583" lon="12.1272474"><ele>523.0</ele><time>2026-04-06T15:16:02.007Z</time></trkpt><trkpt lat="43.9767517" lon="12.1271386"><ele>517.3333333333334</ele><time>2026-04-06T15:16:03.008Z</time></trkpt><trkpt lat="43.9769122" lon="12.1270153"><ele>511.66666666666663</ele><time>2026-04-06T15:16:04.008Z</time></trkpt><trkpt lat="43.9770606" lon="12.1269013"><ele>506.0</ele><time>2026-04-06T15:16:05.006Z</time></trkpt><trkpt lat="43.9771996" lon="12.1268196"><ele>506.0</ele><time>2026-04-06T15:16:06.006Z</time></trkpt><trkpt lat="43.9773256" lon="12.1267736"><ele>506.0</ele><time>2026-04-06T15:16:07.008Z</time></trkpt><trkpt lat="43.9774434" lon="12.1267868"><ele>506.0</ele><time>2026-04-06T15:16:08.005Z</time></trkpt><trkpt lat="43.9775555" lon="12.1268614"><ele>506.0</ele><time>2026-04-06T15:16:09.008Z</time></trkpt><trkpt lat="43.9776666" lon="12.1269918"><ele>501.3333333333333</ele><time>2026-04-06T15:16:10.005Z</time></trkpt><trkpt lat="43.9777822" lon="12.1271507"><ele>496.66666666666663</ele><time>2026-04-06T15:16:11.008Z</time></trkpt><trkpt lat="43.9778997" lon="12.127284"><ele>492.0</ele><time>2026-04-06T15:16:12.007Z</time></trkpt><trkpt lat="43.9780276" lon="12.1273706"><ele>492.0</ele><time>2026-04-06T15:16:13.006Z</time></trkpt><trkpt lat="43.9781711" lon="12.127391"><ele>492.0</ele><time>2026-04-06T15:16:14.008Z</time></trkpt><trkpt lat="43.9783376" lon="12.127379"><ele>492.0</ele><time>2026-04-06T15:16:15.006Z</time></trkpt><trkpt lat="43.9785214" lon="12.1273723"><ele>495.66666666666663</ele><time>2026-04-06T15:16:16.006Z</time></trkpt><trkpt lat="43.9786996" lon="12.1273853"><ele>499.3333333333333</ele><time>2026-04-06T15:16:17.006Z</time></trkpt><trkpt lat="43.9788663" lon="12.1273936"><ele>503.0</ele><time>2026-04-06T15:16:18.009Z</time></trkpt><trkpt lat="43.9790187" lon="12.1273869"><ele>503.0</ele><time>2026-04-06T15:16:19.006Z</time></trkpt><trkpt lat="43.9791577" lon="12.1273516"><ele>503.0</ele><time>2026-04-06T15:16:20.006Z</time></trkpt><trkpt lat="43.9792817" lon="12.1272906"><ele>503.0</ele><time>2026-04-06T15:16:21.009Z</time></trkpt><trkpt lat="43.979389" lon="12.1271915"><ele>503.0</ele><time>2026-04-06T15:16:22.005Z</time></trkpt><trkpt lat="43.9794908" lon="12.1270591"><ele>500.66666666666663</ele><time>2026-04-06T15:16:23.008Z</time></trkpt><trkpt lat="43.9795952" lon="12.1269149"><ele>498.33333333333337</ele><time>2026-04-06T15:16:24.009Z</time></trkpt><trkpt lat="43.9797043" lon="12.12676"><ele>496.0</ele><time>2026-04-06T15:16:25.009Z</time></trkpt><trkpt lat="43.9798171" lon="12.1265902"><ele>498.0</ele><time>2026-04-06T15:16:26.009Z</time></trkpt><trkpt lat="43.9799351" lon="12.1264047"><ele>500.0</ele><time>2026-04-06T15:16:27.009Z</time></trkpt><trkpt lat="43.9800554" lon="12.1262006"><ele>502.0</ele><time>2026-04-06T15:16:28.009Z</time></trkpt><trkpt lat="43.9801749" lon="12.1259787"><ele>497.0</ele><time>2026-04-06T15:16:29.007Z</time></trkpt><trkpt lat="43.9802932" lon="12.1257517"><ele>492.0</ele><time>2026-04-06T15:16:30.012Z</time></trkpt><trkpt lat="43.9804011" lon="12.125528"><ele>487.0</ele><time>2026-04-06T15:16:31.008Z</time></trkpt><trkpt lat="43.9805035" lon="12.1253215"><ele>487.0</ele><time>2026-04-06T15:16:32.008Z</time></trkpt><trkpt lat="43.9805886" lon="12.1251318"><ele>487.0</ele><time>2026-04-06T15:16:33.009Z</time></trkpt><trkpt lat="43.9806518" lon="12.1249395"><ele>487.0</ele><time>2026-04-06T15:16:34.006Z</time></trkpt><trkpt lat="43.9807065" lon="12.124746"><ele>487.33333333333337</ele><time>2026-04-06T15:16:35.006Z</time></trkpt><trkpt lat="43.9807791" lon="12.1245653"><ele>487.66666666666663</ele><time>2026-04-06T15:16:36.008Z</time></trkpt><trkpt lat="43.980881" lon="12.1244004"><ele>488.0</ele><time>2026-04-06T15:16:37.01Z</time></trkpt><trkpt lat="43.9810114" lon="12.1242481"><ele>488.0</ele><time>2026-04-06T15:16:38.01Z</time></trkpt><trkpt lat="43.9811568" lon="12.124101"><ele>488.0</ele><time>2026-04-06T15:16:39.01Z</time></trkpt><trkpt lat="43.981311" lon="12.1239594"><ele>488.0</ele><time>2026-04-06T15:16:40.007Z</time></trkpt><trkpt lat="43.981478" lon="12.1238278"><ele>487.0</ele><time>2026-04-06T15:16:41.006Z</time></trkpt><trkpt lat="43.98166" lon="12.123717"><ele>486.0</ele><time>2026-04-06T15:16:42.011Z</time></trkpt><trkpt lat="43.9818521" lon="12.1236183"><ele>485.0</ele><time>2026-04-06T15:16:43.009Z</time></trkpt><trkpt lat="43.9820556" lon="12.1235261"><ele>485.0</ele><time>2026-04-06T15:16:44.009Z</time></trkpt><trkpt lat="43.9822691" lon="12.1234377"><ele>485.0</ele><time>2026-04-06T15:16:45.009Z</time></trkpt><trkpt lat="43.982488" lon="12.1233547"><ele>485.0</ele><time>2026-04-06T15:16:46.008Z</time></trkpt><trkpt lat="43.9827029" lon="12.1232756"><ele>485.0</ele><time>2026-04-06T15:16:47.012Z</time></trkpt><trkpt lat="43.9829135" lon="12.1232002"><ele>485.0</ele><time>2026-04-06T15:16:48.009Z</time></trkpt><trkpt lat="43.9831193" lon="12.1231361"><ele>485.0</ele><time>2026-04-06T15:16:49.009Z</time></trkpt><trkpt lat="43.983315" lon="12.1230724"><ele>485.0</ele><time>2026-04-06T15:16:50.009Z</time></trkpt><trkpt lat="43.9834991" lon="12.1230113"><ele>485.0</ele><time>2026-04-06T15:16:51.009Z</time></trkpt><trkpt lat="43.9836671" lon="12.1229521"><ele>481.66666666666663</ele><time>2026-04-06T15:16:52.009Z</time></trkpt><trkpt lat="43.9838191" lon="12.12289"><ele>478.33333333333337</ele><time>2026-04-06T15:16:53.006Z</time></trkpt><trkpt lat="43.9839597" lon="12.1228054"><ele>475.0</ele><time>2026-04-06T15:16:54.008Z</time></trkpt><trkpt lat="43.98408" lon="12.1226911"><ele>474.25</ele><time>2026-04-06T15:16:55.013Z</time></trkpt><trkpt lat="43.9841861" lon="12.1225724"><ele>473.5</ele><time>2026-04-06T15:16:56.006Z</time></trkpt><trkpt lat="43.9842845" lon="12.1224716"><ele>472.75</ele><time>2026-04-06T15:16:57.008Z</time></trkpt><trkpt lat="43.9843867" lon="12.1223965"><ele>472.0</ele><time>2026-04-06T15:16:58.008Z</time></trkpt><trkpt lat="43.9844986" lon="12.1223581"><ele>472.0</ele><time>2026-04-06T15:16:59.007Z</time></trkpt><trkpt lat="43.9846075" lon="12.1223656"><ele>472.0</ele><time>2026-04-06T15:17:00.011Z</time></trkpt><trkpt lat="43.984715" lon="12.1224258"><ele>472.0</ele><time>2026-04-06T15:17:01.008Z</time></trkpt><trkpt lat="43.9848089" lon="12.1225429"><ele>472.0</ele><time>2026-04-06T15:17:02.007Z</time></trkpt><trkpt lat="43.9848917" lon="12.122699"><ele>472.0</ele><time>2026-04-06T15:17:03.009Z</time></trkpt><trkpt lat="43.9849841" lon="12.1228658"><ele>472.0</ele><time>2026-04-06T15:17:04.006Z</time></trkpt><trkpt lat="43.9851028" lon="12.1230186"><ele>472.0</ele><time>2026-04-06T15:17:05.006Z</time></trkpt><trkpt lat="43.9852509" lon="12.1231488"><ele>469.75</ele><time>2026-04-06T15:17:06.006Z</time></trkpt><trkpt lat="43.9853998" lon="12.1232599"><ele>467.5</ele><time>2026-04-06T15:17:07.009Z</time></trkpt><trkpt lat="43.9855278" lon="12.1233534"><ele>465.25</ele><time>2026-04-06T15:17:08.007Z</time></trkpt><trkpt lat="43.9856335" lon="12.1234127"><ele>463.0</ele><time>2026-04-06T15:17:09.009Z</time></trkpt><trkpt lat="43.9857288" lon="12.1234254"><ele>463.0</ele><time>2026-04-06T15:17:10.007Z</time></trkpt><trkpt lat="43.9858137" lon="12.1233841"><ele>462.99999999999994</ele><time>2026-04-06T15:17:11.008Z</time></trkpt><trkpt lat="43.9858899" lon="12.1232971"><ele>462.99999999999994</ele><time>2026-04-06T15:17:12.008Z</time></trkpt><trkpt lat="43.9859647" lon="12.1231949"><ele>463.0</ele><time>2026-04-06T15:17:13.009Z</time></trkpt><trkpt lat="43.9860418" lon="12.1231044"><ele>463.0</ele><time>2026-04-06T15:17:14.008Z</time></trkpt><trkpt lat="43.9861308" lon="12.1230415"><ele>466.5</ele><time>2026-04-06T15:17:15.009Z</time></trkpt><trkpt lat="43.9862386" lon="12.1229959"><ele>470.0</ele><time>2026-04-06T15:17:16.006Z</time></trkpt><trkpt lat="43.9863596" lon="12.1229502"><ele>473.5</ele><time>2026-04-06T15:17:17.009Z</time></trkpt><trkpt lat="43.9864807" lon="12.1229166"><ele>477.0</ele><time>2026-04-06T15:17:18.008Z</time></trkpt><trkpt lat="43.986595" lon="12.1229172"><ele>473.75</ele><time>2026-04-06T15:17:19.009Z</time></trkpt><trkpt lat="43.9866981" lon="12.12297"><ele>470.5</ele><time>2026-04-06T15:17:20.005Z</time></trkpt><trkpt lat="43.9867854" lon="12.1230801"><ele>467.25</ele><time>2026-04-06T15:17:21.006Z</time></trkpt><trkpt lat="43.9868533" lon="12.1232358"><ele>464.0</ele><time>2026-04-06T15:17:22.006Z</time></trkpt><trkpt lat="43.9869127" lon="12.1234094"><ele>463.25</ele><time>2026-04-06T15:17:23.008Z</time></trkpt><trkpt lat="43.9869937" lon="12.1235405"><ele>462.5</ele><time>2026-04-06T15:17:24.007Z</time></trkpt><trkpt lat="43.9871042" lon="12.1236213"><ele>461.75</ele><time>2026-04-06T15:17:25.01Z</time></trkpt><trkpt lat="43.9872281" lon="12.12367"><ele>461.0</ele><time>2026-04-06T15:17:26.006Z</time></trkpt><trkpt lat="43.9873442" lon="12.1237054"><ele>461.0</ele><time>2026-04-06T15:17:27.007Z</time></trkpt><trkpt lat="43.9874542" lon="12.1237238"><ele>461.0</ele><time>2026-04-06T15:17:28.006Z</time></trkpt><trkpt lat="43.9875543" lon="12.1237082"><ele>461.0</ele><time>2026-04-06T15:17:29.007Z</time></trkpt><trkpt lat="43.987647" lon="12.1236444"><ele>461.0</ele><time>2026-04-06T15:17:30.006Z</time></trkpt><trkpt lat="43.9877429" lon="12.1235325"><ele>461.0</ele><time>2026-04-06T15:17:31.009Z</time></trkpt><trkpt lat="43.9878508" lon="12.1234032"><ele>458.0</ele><time>2026-04-06T15:17:32.008Z</time></trkpt><trkpt lat="43.9879707" lon="12.1232578"><ele>455.0</ele><time>2026-04-06T15:17:33.008Z</time></trkpt><trkpt lat="43.9881071" lon="12.1231341"><ele>452.0</ele><time>2026-04-06T15:17:34.007Z</time></trkpt><trkpt lat="43.9882485" lon="12.1230443"><ele>449.25</ele><time>2026-04-06T15:17:35.01Z</time></trkpt><trkpt lat="43.9883921" lon="12.1230008"><ele>446.5</ele><time>2026-04-06T15:17:36.006Z</time></trkpt><trkpt lat="43.9885231" lon="12.1229564"><ele>443.75</ele><time>2026-04-06T15:17:37.007Z</time></trkpt><trkpt lat="43.9886398" lon="12.1228773"><ele>441.0</ele><time>2026-04-06T15:17:38.007Z</time></trkpt><trkpt lat="43.9887473" lon="12.1227548"><ele>441.0</ele><time>2026-04-06T15:17:39.008Z</time></trkpt><trkpt lat="43.9888471" lon="12.1226163"><ele>441.0</ele><time>2026-04-06T15:17:40.009Z</time></trkpt><trkpt lat="43.9889492" lon="12.1224899"><ele>441.0</ele><time>2026-04-06T15:17:41.006Z</time></trkpt><trkpt lat="43.9890637" lon="12.122417"><ele>441.0</ele><time>2026-04-06T15:17:42.007Z</time></trkpt><trkpt lat="43.9891972" lon="12.1224027"><ele>439.75</ele><time>2026-04-06T15:17:43.01Z</time></trkpt><trkpt lat="43.9893411" lon="12.1224393"><ele>438.5</ele><time>2026-04-06T15:17:44.007Z</time></trkpt><trkpt lat="43.9894777" lon="12.1225196"><ele>437.25</ele><time>2026-04-06T15:17:45.008Z</time></trkpt><trkpt lat="43.9896061" lon="12.1226383"><ele>436.0</ele><time>2026-04-06T15:17:46.008Z</time></trkpt><trkpt lat="43.9897287" lon="12.1228041"><ele>436.0</ele><time>2026-04-06T15:17:47.007Z</time></trkpt><trkpt lat="43.9898406" lon="12.1230057"><ele>436.0</ele><time>2026-04-06T15:17:48.006Z</time></trkpt><trkpt lat="43.9899453" lon="12.1232157"><ele>436.0</ele><time>2026-04-06T15:17:49.008Z</time></trkpt><trkpt lat="43.9900423" lon="12.1234088"><ele>433.5</ele><time>2026-04-06T15:17:50.007Z</time></trkpt><trkpt lat="43.9901316" lon="12.123574"><ele>431.0</ele><time>2026-04-06T15:17:51.008Z</time></trkpt><trkpt lat="43.9902199" lon="12.1236975"><ele>428.5</ele><time>2026-04-06T15:17:52.007Z</time></trkpt><trkpt lat="43.990323" lon="12.1237576"><ele>426.0</ele><time>2026-04-06T15:17:53.006Z</time></trkpt><trkpt lat="43.990429" lon="12.1237604"><ele>426.0</ele><time>2026-04-06T15:17:54.007Z</time></trkpt><trkpt lat="43.9905522" lon="12.1237257"><ele>426.0</ele><time>2026-04-06T15:17:55.007Z</time></trkpt><trkpt lat="43.9906816" lon="12.1236684"><ele>426.0</ele><time>2026-04-06T15:17:56.007Z</time></trkpt><trkpt lat="43.9908229" lon="12.1235687"><ele>426.0</ele><time>2026-04-06T15:17:57.01Z</time></trkpt><trkpt lat="43.9909541" lon="12.1234432"><ele>417.25</ele><time>2026-04-06T15:17:58.009Z</time></trkpt><trkpt lat="43.9910653" lon="12.1233028"><ele>408.5</ele><time>2026-04-06T15:17:59.008Z</time></trkpt><trkpt lat="43.9911476" lon="12.12315"><ele>399.75</ele><time>2026-04-06T15:18:00.007Z</time></trkpt><trkpt lat="43.9911894" lon="12.1229813"><ele>391.0</ele><time>2026-04-06T15:18:01.007Z</time></trkpt><trkpt lat="43.9911992" lon="12.1227953"><ele>389.33333333333337</ele><time>2026-04-06T15:18:02.01Z</time></trkpt><trkpt lat="43.9911829" lon="12.1225906"><ele>387.66666666666663</ele><time>2026-04-06T15:18:03.01Z</time></trkpt><trkpt lat="43.9911527" lon="12.1223773"><ele>386.0</ele><time>2026-04-06T15:18:04.008Z</time></trkpt><trkpt lat="43.9911201" lon="12.1221484"><ele>385.3333333333333</ele><time>2026-04-06T15:18:05.006Z</time></trkpt><trkpt lat="43.9910617" lon="12.1219093"><ele>384.66666666666663</ele><time>2026-04-06T15:18:06.007Z</time></trkpt><trkpt lat="43.9910023" lon="12.1216772"><ele>384.0</ele><time>2026-04-06T15:18:07.008Z</time></trkpt><trkpt lat="43.9909461" lon="12.1214525"><ele>385.5</ele><time>2026-04-06T15:18:08.011Z</time></trkpt><trkpt lat="43.9909062" lon="12.1212346"><ele>387.0</ele><time>2026-04-06T15:18:09.006Z</time></trkpt><trkpt lat="43.9908883" lon="12.1210324"><ele>388.5</ele><time>2026-04-06T15:18:10.006Z</time></trkpt><trkpt lat="43.9908936" lon="12.1208527"><ele>390.0</ele><time>2026-04-06T15:18:11.008Z</time></trkpt><trkpt lat="43.9909275" lon="12.1207162"><ele>391.75</ele><time>2026-04-06T15:18:12.005Z</time></trkpt><trkpt lat="43.9910026" lon="12.1206249"><ele>393.5</ele><time>2026-04-06T15:18:13.007Z</time></trkpt><trkpt lat="43.9911277" lon="12.1205978"><ele>395.25</ele><time>2026-04-06T15:18:14.008Z</time></trkpt><trkpt lat="43.9912558" lon="12.120568"><ele>397.0</ele><time>2026-04-06T15:18:15.009Z</time></trkpt><trkpt lat="43.991378" lon="12.1205031"><ele>397.0</ele><time>2026-04-06T15:18:16.008Z</time></trkpt><trkpt lat="43.9915414" lon="12.1204613"><ele>397.0</ele><time>2026-04-06T15:18:17.009Z</time></trkpt><trkpt lat="43.9917172" lon="12.1204409"><ele>397.0</ele><time>2026-04-06T15:18:18.009Z</time></trkpt><trkpt lat="43.9918676" lon="12.1203828"><ele>390.0</ele><time>2026-04-06T15:18:19.011Z</time></trkpt><trkpt lat="43.9919888" lon="12.1202731"><ele>383.0</ele><time>2026-04-06T15:18:20.009Z</time></trkpt><trkpt lat="43.9920893" lon="12.1201144"><ele>376.0</ele><time>2026-04-06T15:18:21.008Z</time></trkpt><trkpt lat="43.9921836" lon="12.1199252"><ele>377.66666666666663</ele><time>2026-04-06T15:18:22.008Z</time></trkpt><trkpt lat="43.9922813" lon="12.1197235"><ele>379.3333333333333</ele><time>2026-04-06T15:18:23.006Z</time></trkpt><trkpt lat="43.9923772" lon="12.1195226"><ele>381.0</ele><time>2026-04-06T15:18:24.006Z</time></trkpt><trkpt lat="43.9924707" lon="12.1193369"><ele>372.5</ele><time>2026-04-06T15:18:25.008Z</time></trkpt><trkpt lat="43.9925342" lon="12.1191558"><ele>364.0</ele><time>2026-04-06T15:18:26.008Z</time></trkpt><trkpt lat="43.9925706" lon="12.1189917"><ele>355.5</ele><time>2026-04-06T15:18:27.007Z</time></trkpt><trkpt lat="43.9925663" lon="12.1188383"><ele>347.0</ele><time>2026-04-06T15:18:28.01Z</time></trkpt><trkpt lat="43.9925221" lon="12.1187079"><ele>353.25</ele><time>2026-04-06T15:18:29.008Z</time></trkpt><trkpt lat="43.9924461" lon="12.1185949"><ele>359.5</ele><time>2026-04-06T15:18:30.008Z</time></trkpt><trkpt lat="43.9923502" lon="12.1185073"><ele>365.75</ele><time>2026-04-06T15:18:31.008Z</time></trkpt><trkpt lat="43.9922264" lon="12.1184621"><ele>372.0</ele><time>2026-04-06T15:18:32.006Z</time></trkpt><trkpt lat="43.9920819" lon="12.1184383"><ele>372.0</ele><time>2026-04-06T15:18:33.009Z</time></trkpt><trkpt lat="43.9919331" lon="12.118424"><ele>372.0</ele><time>2026-04-06T15:18:34.007Z</time></trkpt><trkpt lat="43.9917888" lon="12.1184266"><ele>372.0</ele><time>2026-04-06T15:18:35.008Z</time></trkpt><trkpt lat="43.9916585" lon="12.1184487"><ele>372.0</ele><time>2026-04-06T15:18:36.008Z</time></trkpt><trkpt lat="43.9915458" lon="12.1185291"><ele>371.25</ele><time>2026-04-06T15:18:37.01Z</time></trkpt><trkpt lat="43.9914584" lon="12.1186581"><ele>370.5</ele><time>2026-04-06T15:18:38.01Z</time></trkpt><trkpt lat="43.9913849" lon="12.1188041"><ele>369.75</ele><time>2026-04-06T15:18:39.01Z</time></trkpt><trkpt lat="43.9913202" lon="12.1189334"><ele>369.0</ele><time>2026-04-06T15:18:40.007Z</time></trkpt><trkpt lat="43.9912529" lon="12.1190171"><ele>369.0</ele><time>2026-04-06T15:18:41.009Z</time></trkpt><trkpt lat="43.9911959" lon="12.1190708"><ele>369.0</ele><time>2026-04-06T15:18:42.008Z</time></trkpt><trkpt lat="43.9911299" lon="12.118964"><ele>369.0</ele><time>2026-04-06T15:18:44.007Z</time></trkpt><trkpt lat="43.9911678" lon="12.1187989"><ele>369.0</ele><time>2026-04-06T15:18:45.008Z</time></trkpt><trkpt lat="43.9911929" lon="12.1186269"><ele>369.0</ele><time>2026-04-06T15:18:46.005Z</time></trkpt><trkpt lat="43.9912294" lon="12.1184622"><ele>369.0</ele><time>2026-04-06T15:18:47.008Z</time></trkpt><trkpt lat="43.9913346" lon="12.1182873"><ele>369.0</ele><time>2026-04-06T15:18:48.007Z</time></trkpt><trkpt lat="43.9914537" lon="12.1181343"><ele>369.0</ele><time>2026-04-06T15:18:49.009Z</time></trkpt><trkpt lat="43.9915868" lon="12.1180077"><ele>366.75</ele><time>2026-04-06T15:18:50.006Z</time></trkpt><trkpt lat="43.9917179" lon="12.1178947"><ele>364.5</ele><time>2026-04-06T15:18:51.008Z</time></trkpt><trkpt lat="43.9918188" lon="12.1177647"><ele>362.25</ele><time>2026-04-06T15:18:52.009Z</time></trkpt><trkpt lat="43.9918887" lon="12.1176017"><ele>360.0</ele><time>2026-04-06T15:18:53.007Z</time></trkpt><trkpt lat="43.9919411" lon="12.1173995"><ele>357.3333333333333</ele><time>2026-04-06T15:18:54.007Z</time></trkpt><trkpt lat="43.9919979" lon="12.1171699"><ele>354.66666666666663</ele><time>2026-04-06T15:18:55.007Z</time></trkpt><trkpt lat="43.9920612" lon="12.1169308"><ele>352.0</ele><time>2026-04-06T15:18:56.007Z</time></trkpt><trkpt lat="43.9921061" lon="12.1166972"><ele>348.5</ele><time>2026-04-06T15:18:57.011Z</time></trkpt><trkpt lat="43.9921396" lon="12.1164921"><ele>345.0</ele><time>2026-04-06T15:18:58.007Z</time></trkpt><trkpt lat="43.9921735" lon="12.1163118"><ele>341.5</ele><time>2026-04-06T15:18:59.008Z</time></trkpt><trkpt lat="43.9922415" lon="12.1161692"><ele>338.0</ele><time>2026-04-06T15:19:00.009Z</time></trkpt><trkpt lat="43.9923494" lon="12.1160549"><ele>338.0</ele><time>2026-04-06T15:19:01.01Z</time></trkpt><trkpt lat="43.9924769" lon="12.1159381"><ele>338.0</ele><time>2026-04-06T15:19:02.007Z</time></trkpt><trkpt lat="43.9926056" lon="12.115798"><ele>338.0</ele><time>2026-04-06T15:19:03.013Z</time></trkpt><trkpt lat="43.9927199" lon="12.1156523"><ele>334.75</ele><time>2026-04-06T15:19:04.007Z</time></trkpt><trkpt lat="43.992796" lon="12.1154843"><ele>331.5</ele><time>2026-04-06T15:19:05.007Z</time></trkpt><trkpt lat="43.9928335" lon="12.1153045"><ele>328.25</ele><time>2026-04-06T15:19:06.007Z</time></trkpt><trkpt lat="43.992823" lon="12.1151123"><ele>325.0</ele><time>2026-04-06T15:19:07.007Z</time></trkpt><trkpt lat="43.9927931" lon="12.1149243"><ele>322.75</ele><time>2026-04-06T15:19:08.009Z</time></trkpt><trkpt lat="43.9927953" lon="12.1147389"><ele>320.5</ele><time>2026-04-06T15:19:09.011Z</time></trkpt><trkpt lat="43.9928286" lon="12.114561"><ele>318.25</ele><time>2026-04-06T15:19:10.008Z</time></trkpt><trkpt lat="43.9928915" lon="12.1144118"><ele>316.0</ele><time>2026-04-06T15:19:11.009Z</time></trkpt><trkpt lat="43.9929565" lon="12.1143084"><ele>316.0</ele><time>2026-04-06T15:19:12.008Z</time></trkpt><trkpt lat="43.9930294" lon="12.1142634"><ele>316.0</ele><time>2026-04-06T15:19:13.008Z</time></trkpt><trkpt lat="43.9931339" lon="12.1142949"><ele>316.0</ele><time>2026-04-06T15:19:14.007Z</time></trkpt><trkpt lat="43.9932352" lon="12.1143422"><ele>316.0</ele><time>2026-04-06T15:19:15.009Z</time></trkpt><trkpt lat="43.9933701" lon="12.1144679"><ele>311.3333333333333</ele><time>2026-04-06T15:19:16.01Z</time></trkpt><trkpt lat="43.993506" lon="12.1146156"><ele>306.6666666666667</ele><time>2026-04-06T15:19:17.007Z</time></trkpt><trkpt lat="43.9936577" lon="12.1147508"><ele>302.0</ele><time>2026-04-06T15:19:18.008Z</time></trkpt><trkpt lat="43.9938067" lon="12.1149056"><ele>302.0</ele><time>2026-04-06T15:19:19.009Z</time></trkpt><trkpt lat="43.993947" lon="12.1150619"><ele>302.0</ele><time>2026-04-06T15:19:20.007Z</time></trkpt><trkpt lat="43.9940769" lon="12.1152258"><ele>302.0</ele><time>2026-04-06T15:19:21.014Z</time></trkpt><trkpt lat="43.9941737" lon="12.1153906"><ele>295.5</ele><time>2026-04-06T15:19:22.008Z</time></trkpt><trkpt lat="43.9942295" lon="12.1155664"><ele>289.0</ele><time>2026-04-06T15:19:23.007Z</time></trkpt><trkpt lat="43.9942435" lon="12.1157421"><ele>282.5</ele><time>2026-04-06T15:19:24.007Z</time></trkpt><trkpt lat="43.9942306" lon="12.1158961"><ele>276.0</ele><time>2026-04-06T15:19:25.008Z</time></trkpt><trkpt lat="43.9942353" lon="12.1160064"><ele>276.0</ele><time>2026-04-06T15:19:26.007Z</time></trkpt><trkpt lat="43.9942699" lon="12.1160811"><ele>276.0</ele><time>2026-04-06T15:19:27.007Z</time></trkpt><trkpt lat="43.9943918" lon="12.1160394"><ele>276.0</ele><time>2026-04-06T15:19:29.009Z</time></trkpt><trkpt lat="43.994452" lon="12.1159825"><ele>276.0</ele><time>2026-04-06T15:19:30.008Z</time></trkpt><trkpt lat="43.9945051" lon="12.1159127"><ele>276.0</ele><time>2026-04-06T15:19:31.007Z</time></trkpt><trkpt lat="43.9945402" lon="12.1157831"><ele>276.0</ele><time>2026-04-06T15:19:32.008Z</time></trkpt><trkpt lat="43.9945128" lon="12.1155168"><ele>273.3333333333333</ele><time>2026-04-06T15:19:33.008Z</time></trkpt><trkpt lat="43.9944652" lon="12.1152212"><ele>270.66666666666663</ele><time>2026-04-06T15:19:34.007Z</time></trkpt><trkpt lat="43.9943952" lon="12.1149324"><ele>268.0</ele><time>2026-04-06T15:19:35.007Z</time></trkpt><trkpt lat="43.9943063" lon="12.1146659"><ele>272.66666666666663</ele><time>2026-04-06T15:19:36.008Z</time></trkpt><trkpt lat="43.9942196" lon="12.1144328"><ele>277.3333333333333</ele><time>2026-04-06T15:19:37.009Z</time></trkpt><trkpt lat="43.9941468" lon="12.1142167"><ele>282.0</ele><time>2026-04-06T15:19:38.007Z</time></trkpt><trkpt lat="43.9941114" lon="12.1140081"><ele>282.0</ele><time>2026-04-06T15:19:39.009Z</time></trkpt><trkpt lat="43.9941045" lon="12.1138069"><ele>282.0</ele><time>2026-04-06T15:19:40.006Z</time></trkpt><trkpt lat="43.9941373" lon="12.1136162"><ele>282.0</ele><time>2026-04-06T15:19:41.008Z</time></trkpt><trkpt lat="43.9941937" lon="12.1134298"><ele>282.0</ele><time>2026-04-06T15:19:42.009Z</time></trkpt><trkpt lat="43.9942472" lon="12.113239"><ele>272.75</ele><time>2026-04-06T15:19:43.007Z</time></trkpt><trkpt lat="43.994288" lon="12.1130392"><ele>263.5</ele><time>2026-04-06T15:19:44.008Z</time></trkpt><trkpt lat="43.9943013" lon="12.1128392"><ele>254.25</ele><time>2026-04-06T15:19:45.006Z</time></trkpt><trkpt lat="43.9943071" lon="12.1126656"><ele>245.0</ele><time>2026-04-06T15:19:46.006Z</time></trkpt><trkpt lat="43.9943238" lon="12.1125386"><ele>245.0</ele><time>2026-04-06T15:19:47.006Z</time></trkpt><trkpt lat="43.9943572" lon="12.1124607"><ele>245.0</ele><time>2026-04-06T15:19:48.007Z</time></trkpt><trkpt lat="43.9944293" lon="12.1123796"><ele>245.0</ele><time>2026-04-06T15:19:50.007Z</time></trkpt><trkpt lat="43.994475" lon="12.1125106"><ele>245.0</ele><time>2026-04-06T15:19:51.006Z</time></trkpt><trkpt lat="43.9944976" lon="12.1126852"><ele>245.0</ele><time>2026-04-06T15:19:52.009Z</time></trkpt><trkpt lat="43.9944999" lon="12.1128797"><ele>245.0</ele><time>2026-04-06T15:19:53.007Z</time></trkpt><trkpt lat="43.9944842" lon="12.1130779"><ele>245.0</ele><time>2026-04-06T15:19:54.005Z</time></trkpt><trkpt lat="43.9944569" lon="12.1132458"><ele>245.0</ele><time>2026-04-06T15:19:55.005Z</time></trkpt><trkpt lat="43.994428" lon="12.1133727"><ele>245.0</ele><time>2026-04-06T15:19:56.005Z</time></trkpt><trkpt lat="43.9944143" lon="12.1134723"><ele>245.0</ele><time>2026-04-06T15:19:57.008Z</time></trkpt><trkpt lat="43.9944704" lon="12.1135397"><ele>245.0</ele><time>2026-04-06T15:19:59.008Z</time></trkpt><trkpt lat="43.9945235" lon="12.1134868"><ele>245.0</ele><time>2026-04-06T15:20:00.005Z</time></trkpt><trkpt lat="43.9945794" lon="12.113367"><ele>245.0</ele><time>2026-04-06T15:20:01.007Z</time></trkpt><trkpt lat="43.9946194" lon="12.1131871"><ele>245.0</ele><time>2026-04-06T15:20:02.008Z</time></trkpt><trkpt lat="43.9946699" lon="12.1129974"><ele>245.0</ele><time>2026-04-06T15:20:03.008Z</time></trkpt><trkpt lat="43.9947353" lon="12.1128042"><ele>245.0</ele><time>2026-04-06T15:20:04.006Z</time></trkpt><trkpt lat="43.9947605" lon="12.1125695"><ele>245.0</ele><time>2026-04-06T15:20:05.005Z</time></trkpt><trkpt lat="43.9947409" lon="12.11233"><ele>245.0</ele><time>2026-04-06T15:20:06.009Z</time></trkpt><trkpt lat="43.9946906" lon="12.1121067"><ele>242.0</ele><time>2026-04-06T15:20:07.007Z</time></trkpt><trkpt lat="43.9946243" lon="12.1119043"><ele>239.0</ele><time>2026-04-06T15:20:08.008Z</time></trkpt><trkpt lat="43.9945516" lon="12.1117197"><ele>236.0</ele><time>2026-04-06T15:20:09.006Z</time></trkpt><trkpt lat="43.994473" lon="12.111542"><ele>231.0</ele><time>2026-04-06T15:20:10.005Z</time></trkpt><trkpt lat="43.9943834" lon="12.1113644"><ele>226.0</ele><time>2026-04-06T15:20:11.005Z</time></trkpt><trkpt lat="43.994294" lon="12.111183"><ele>221.0</ele><time>2026-04-06T15:20:12.007Z</time></trkpt><trkpt lat="43.9942052" lon="12.111019"><ele>223.0</ele><time>2026-04-06T15:20:13.007Z</time></trkpt><trkpt lat="43.9941215" lon="12.1108784"><ele>225.00000000000003</ele><time>2026-04-06T15:20:14.007Z</time></trkpt><trkpt lat="43.9940591" lon="12.1107577"><ele>227.00000000000003</ele><time>2026-04-06T15:20:15.007Z</time></trkpt><trkpt lat="43.9940241" lon="12.1106479"><ele>229.0</ele><time>2026-04-06T15:20:16.008Z</time></trkpt><trkpt lat="43.994024" lon="12.1105293"><ele>231.0</ele><time>2026-04-06T15:20:17.005Z</time></trkpt><trkpt lat="43.9940621" lon="12.1104189"><ele>231.0</ele><time>2026-04-06T15:20:18.007Z</time></trkpt><trkpt lat="43.9941213" lon="12.1103543"><ele>231.00000000000003</ele><time>2026-04-06T15:20:19.006Z</time></trkpt><trkpt lat="43.9941879" lon="12.1103158"><ele>231.00000000000003</ele><time>2026-04-06T15:20:20.006Z</time></trkpt><trkpt lat="43.9942958" lon="12.1103955"><ele>231.0</ele><time>2026-04-06T15:20:21.007Z</time></trkpt><trkpt lat="43.9943876" lon="12.1105041"><ele>231.0</ele><time>2026-04-06T15:20:22.006Z</time></trkpt><trkpt lat="43.9944423" lon="12.1106415"><ele>229.0</ele><time>2026-04-06T15:20:23.01Z</time></trkpt><trkpt lat="43.9944582" lon="12.1107949"><ele>227.00000000000003</ele><time>2026-04-06T15:20:24.007Z</time></trkpt><trkpt lat="43.9944783" lon="12.1109156"><ele>225.00000000000003</ele><time>2026-04-06T15:20:25.006Z</time></trkpt><trkpt lat="43.9945253" lon="12.1109814"><ele>223.0</ele><time>2026-04-06T15:20:26.007Z</time></trkpt><trkpt lat="43.9946093" lon="12.1109016"><ele>221.0</ele><time>2026-04-06T15:20:28.01Z</time></trkpt><trkpt lat="43.99462" lon="12.1107769"><ele>218.75</ele><time>2026-04-06T15:20:29.005Z</time></trkpt><trkpt lat="43.9946064" lon="12.1106163"><ele>216.5</ele><time>2026-04-06T15:20:30.005Z</time></trkpt><trkpt lat="43.9945868" lon="12.110445"><ele>214.25</ele><time>2026-04-06T15:20:31.007Z</time></trkpt><trkpt lat="43.9945639" lon="12.1102831"><ele>212.0</ele><time>2026-04-06T15:20:32.005Z</time></trkpt><trkpt lat="43.9945144" lon="12.1101481"><ele>212.0</ele><time>2026-04-06T15:20:33.01Z</time></trkpt><trkpt lat="43.9944269" lon="12.1100715"><ele>212.0</ele><time>2026-04-06T15:20:34.006Z</time></trkpt><trkpt lat="43.9943253" lon="12.1100526"><ele>212.0</ele><time>2026-04-06T15:20:35.006Z</time></trkpt><trkpt lat="43.9942327" lon="12.1100415"><ele>212.0</ele><time>2026-04-06T15:20:36.007Z</time></trkpt><trkpt lat="43.9941645" lon="12.1100059"><ele>212.0</ele><time>2026-04-06T15:20:37.006Z</time></trkpt><trkpt lat="43.9941021" lon="12.1098769"><ele>208.75</ele><time>2026-04-06T15:20:39.006Z</time></trkpt><trkpt lat="43.9941263" lon="12.1097888"><ele>205.5</ele><time>2026-04-06T15:20:40.008Z</time></trkpt><trkpt lat="43.9942026" lon="12.1097367"><ele>202.25</ele><time>2026-04-06T15:20:41.005Z</time></trkpt><trkpt lat="43.9944153" lon="12.1098188"><ele>199.0</ele><time>2026-04-06T15:20:42.007Z</time></trkpt><trkpt lat="43.9945876" lon="12.1099057"><ele>202.25</ele><time>2026-04-06T15:20:43.007Z</time></trkpt><trkpt lat="43.9947268" lon="12.1099752"><ele>205.5</ele><time>2026-04-06T15:20:44.007Z</time></trkpt><trkpt lat="43.9948312" lon="12.1100569"><ele>208.75</ele><time>2026-04-06T15:20:45.006Z</time></trkpt><trkpt lat="43.9949171" lon="12.1102403"><ele>212.0</ele><time>2026-04-06T15:20:46.006Z</time></trkpt><trkpt lat="43.9949986" lon="12.1104435"><ele>208.0</ele><time>2026-04-06T15:20:47.007Z</time></trkpt><trkpt lat="43.9950891" lon="12.1106355"><ele>204.0</ele><time>2026-04-06T15:20:48.006Z</time></trkpt><trkpt lat="43.9951829" lon="12.110823"><ele>200.0</ele><time>2026-04-06T15:20:49.007Z</time></trkpt><trkpt lat="43.9952818" lon="12.1109941"><ele>200.0</ele><time>2026-04-06T15:20:50.008Z</time></trkpt><trkpt lat="43.9953884" lon="12.1111246"><ele>200.0</ele><time>2026-04-06T15:20:51.007Z</time></trkpt><trkpt lat="43.9954902" lon="12.1112095"><ele>200.0</ele><time>2026-04-06T15:20:52.007Z</time></trkpt><trkpt lat="43.9955762" lon="12.111264"><ele>200.0</ele><time>2026-04-06T15:20:53.008Z</time></trkpt><trkpt lat="43.9956489" lon="12.1112881"><ele>200.0</ele><time>2026-04-06T15:20:54.007Z</time></trkpt><trkpt lat="43.9957129" lon="12.1112773"><ele>200.0</ele><time>2026-04-06T15:20:55.008Z</time></trkpt><trkpt lat="43.9957503" lon="12.1111284"><ele>200.0</ele><time>2026-04-06T15:20:57.008Z</time></trkpt><trkpt lat="43.995685" lon="12.1110126"><ele>200.0</ele><time>2026-04-06T15:20:58.007Z</time></trkpt><trkpt lat="43.9955923" lon="12.1108772"><ele>200.0</ele><time>2026-04-06T15:20:59.009Z</time></trkpt><trkpt lat="43.9955157" lon="12.1107201"><ele>197.5</ele><time>2026-04-06T15:21:00.008Z</time></trkpt><trkpt lat="43.9954741" lon="12.1105399"><ele>195.0</ele><time>2026-04-06T15:21:01.008Z</time></trkpt><trkpt lat="43.9954726" lon="12.1103407"><ele>192.5</ele><time>2026-04-06T15:21:02.007Z</time></trkpt><trkpt lat="43.9955144" lon="12.1101344"><ele>190.0</ele><time>2026-04-06T15:21:03.008Z</time></trkpt><trkpt lat="43.9955782" lon="12.1099401"><ele>186.75</ele><time>2026-04-06T15:21:04.006Z</time></trkpt><trkpt lat="43.9956306" lon="12.1097569"><ele>183.5</ele><time>2026-04-06T15:21:05.008Z</time></trkpt><trkpt lat="43.9956625" lon="12.1095797"><ele>180.25</ele><time>2026-04-06T15:21:06.008Z</time></trkpt><trkpt lat="43.9956561" lon="12.1094037"><ele>177.0</ele><time>2026-04-06T15:21:07.011Z</time></trkpt><trkpt lat="43.9956153" lon="12.1092369"><ele>177.0</ele><time>2026-04-06T15:21:08.01Z</time></trkpt><trkpt lat="43.9955516" lon="12.1090961"><ele>177.0</ele><time>2026-04-06T15:21:09.007Z</time></trkpt><trkpt lat="43.9954604" lon="12.1090031"><ele>177.0</ele><time>2026-04-06T15:21:10.007Z</time></trkpt><trkpt lat="43.9953503" lon="12.1089675"><ele>177.0</ele><time>2026-04-06T15:21:11.009Z</time></trkpt><trkpt lat="43.9952319" lon="12.1089678"><ele>174.5</ele><time>2026-04-06T15:21:12.008Z</time></trkpt><trkpt lat="43.9950998" lon="12.1090082"><ele>172.0</ele><time>2026-04-06T15:21:13.007Z</time></trkpt><trkpt lat="43.9949576" lon="12.1090876"><ele>169.5</ele><time>2026-04-06T15:21:14.008Z</time></trkpt><trkpt lat="43.9948133" lon="12.1091364"><ele>167.0</ele><time>2026-04-06T15:21:15.007Z</time></trkpt><trkpt lat="43.9946768" lon="12.109164"><ele>167.5</ele><time>2026-04-06T15:21:16.008Z</time></trkpt><trkpt lat="43.9945513" lon="12.1091504"><ele>168.0</ele><time>2026-04-06T15:21:17.005Z</time></trkpt><trkpt lat="43.9944407" lon="12.1090793"><ele>168.5</ele><time>2026-04-06T15:21:18.008Z</time></trkpt><trkpt lat="43.9943462" lon="12.1089575"><ele>169.0</ele><time>2026-04-06T15:21:19.008Z</time></trkpt><trkpt lat="43.994262" lon="12.10882"><ele>171.25</ele><time>2026-04-06T15:21:20.008Z</time></trkpt><trkpt lat="43.9941703" lon="12.1086928"><ele>173.5</ele><time>2026-04-06T15:21:21.008Z</time></trkpt><trkpt lat="43.9940681" lon="12.1085866"><ele>175.75</ele><time>2026-04-06T15:21:22.009Z</time></trkpt><trkpt lat="43.9939528" lon="12.1085231"><ele>178.0</ele><time>2026-04-06T15:21:23.009Z</time></trkpt><trkpt lat="43.9938377" lon="12.1084766"><ele>178.0</ele><time>2026-04-06T15:21:24.006Z</time></trkpt><trkpt lat="43.9937464" lon="12.1084094"><ele>178.0</ele><time>2026-04-06T15:21:25.009Z</time></trkpt><trkpt lat="43.9936966" lon="12.1083146"><ele>178.0</ele><time>2026-04-06T15:21:26.006Z</time></trkpt><trkpt lat="43.9936731" lon="12.108201"><ele>178.0</ele><time>2026-04-06T15:21:27.005Z</time></trkpt><trkpt lat="43.9936772" lon="12.1080873"><ele>178.0</ele><time>2026-04-06T15:21:28.012Z</time></trkpt><trkpt lat="43.9937324" lon="12.1079844"><ele>178.0</ele><time>2026-04-06T15:21:29.006Z</time></trkpt><trkpt lat="43.9938058" lon="12.1078934"><ele>179.25</ele><time>2026-04-06T15:21:30.007Z</time></trkpt><trkpt lat="43.9939209" lon="12.1078204"><ele>180.5</ele><time>2026-04-06T15:21:31.006Z</time></trkpt><trkpt lat="43.9940633" lon="12.1077626"><ele>181.75</ele><time>2026-04-06T15:21:32.006Z</time></trkpt><trkpt lat="43.9942174" lon="12.1076941"><ele>183.0</ele><time>2026-04-06T15:21:33.006Z</time></trkpt><trkpt lat="43.9943816" lon="12.1076307"><ele>177.66666666666666</ele><time>2026-04-06T15:21:34.008Z</time></trkpt><trkpt lat="43.9945514" lon="12.1075799"><ele>172.33333333333331</ele><time>2026-04-06T15:21:35.011Z</time></trkpt><trkpt lat="43.9947167" lon="12.1075664"><ele>167.0</ele><time>2026-04-06T15:21:36.008Z</time></trkpt><trkpt lat="43.9948749" lon="12.1075988"><ele>165.66666666666666</ele><time>2026-04-06T15:21:37.006Z</time></trkpt><trkpt lat="43.9950263" lon="12.1076923"><ele>164.33333333333334</ele><time>2026-04-06T15:21:38.008Z</time></trkpt><trkpt lat="43.9951694" lon="12.1078226"><ele>163.0</ele><time>2026-04-06T15:21:39.007Z</time></trkpt><trkpt lat="43.9953189" lon="12.1079606"><ele>163.0</ele><time>2026-04-06T15:21:40.006Z</time></trkpt><trkpt lat="43.9954787" lon="12.1080955"><ele>163.0</ele><time>2026-04-06T15:21:41.007Z</time></trkpt><trkpt lat="43.9956452" lon="12.1082314"><ele>163.0</ele><time>2026-04-06T15:21:42.012Z</time></trkpt><trkpt lat="43.9958153" lon="12.1083697"><ele>161.33333333333334</ele><time>2026-04-06T15:21:43.009Z</time></trkpt><trkpt lat="43.9959931" lon="12.1084984"><ele>159.66666666666666</ele><time>2026-04-06T15:21:44.009Z</time></trkpt><trkpt lat="43.9961641" lon="12.1086423"><ele>158.0</ele><time>2026-04-06T15:21:45.008Z</time></trkpt><trkpt lat="43.9963263" lon="12.1088041"><ele>158.0</ele><time>2026-04-06T15:21:46.007Z</time></trkpt><trkpt lat="43.9964816" lon="12.1089808"><ele>158.0</ele><time>2026-04-06T15:21:47.006Z</time></trkpt><trkpt lat="43.9966364" lon="12.1091558"><ele>158.0</ele><time>2026-04-06T15:21:48.007Z</time></trkpt><trkpt lat="43.9967883" lon="12.1093367"><ele>157.0</ele><time>2026-04-06T15:21:49.01Z</time></trkpt><trkpt lat="43.9969417" lon="12.10952"><ele>156.0</ele><time>2026-04-06T15:21:50.007Z</time></trkpt><trkpt lat="43.9970983" lon="12.1097017"><ele>155.0</ele><time>2026-04-06T15:21:51.012Z</time></trkpt><trkpt lat="43.9972533" lon="12.10988"><ele>155.0</ele><time>2026-04-06T15:21:52.008Z</time></trkpt><trkpt lat="43.99741" lon="12.110055"><ele>155.0</ele><time>2026-04-06T15:21:53.008Z</time></trkpt><trkpt lat="43.997565" lon="12.1102317"><ele>155.0</ele><time>2026-04-06T15:21:54.006Z</time></trkpt><trkpt lat="43.99772" lon="12.1104033"><ele>154.33333333333331</ele><time>2026-04-06T15:21:55.006Z</time></trkpt><trkpt lat="43.9978733" lon="12.110575"><ele>153.66666666666666</ele><time>2026-04-06T15:21:56.009Z</time></trkpt><trkpt lat="43.9980267" lon="12.11075"><ele>153.0</ele><time>2026-04-06T15:21:57.007Z</time></trkpt><trkpt lat="43.998185" lon="12.110925"><ele>152.33333333333334</ele><time>2026-04-06T15:21:58.007Z</time></trkpt><trkpt lat="43.9983383" lon="12.1111067"><ele>151.66666666666669</ele><time>2026-04-06T15:21:59.006Z</time></trkpt><trkpt lat="43.9984933" lon="12.11129"><ele>151.0</ele><time>2026-04-06T15:22:00.007Z</time></trkpt><trkpt lat="43.99865" lon="12.11147"><ele>151.0</ele><time>2026-04-06T15:22:01.008Z</time></trkpt><trkpt lat="43.998805" lon="12.1116483"><ele>151.0</ele><time>2026-04-06T15:22:02.007Z</time></trkpt><trkpt lat="43.9989617" lon="12.1118233"><ele>151.0</ele><time>2026-04-06T15:22:03.007Z</time></trkpt><trkpt lat="43.999125" lon="12.1120067"><ele>150.33333333333334</ele><time>2026-04-06T15:22:04.007Z</time></trkpt><trkpt lat="43.99929" lon="12.1121967"><ele>149.66666666666666</ele><time>2026-04-06T15:22:05.012Z</time></trkpt><trkpt lat="43.9994517" lon="12.112385"><ele>149.0</ele><time>2026-04-06T15:22:06.006Z</time></trkpt><trkpt lat="43.9996067" lon="12.1125567"><ele>149.0</ele><time>2026-04-06T15:22:07.006Z</time></trkpt><trkpt lat="43.9997467" lon="12.1127233"><ele>149.0</ele><time>2026-04-06T15:22:08.008Z</time></trkpt><trkpt lat="43.9998733" lon="12.1128717"><ele>149.0</ele><time>2026-04-06T15:22:09.007Z</time></trkpt><trkpt lat="43.9999933" lon="12.112995"><ele>149.0</ele><time>2026-04-06T15:22:10.012Z</time></trkpt><trkpt lat="44.0001067" lon="12.1130817"><ele>149.0</ele><time>2026-04-06T15:22:11.006Z</time></trkpt><trkpt lat="44.0002317" lon="12.113115"><ele>149.0</ele><time>2026-04-06T15:22:12.006Z</time></trkpt><trkpt lat="44.0003683" lon="12.113095"><ele>149.0</ele><time>2026-04-06T15:22:13.009Z</time></trkpt><trkpt lat="44.000515" lon="12.11303"><ele>149.0</ele><time>2026-04-06T15:22:14.007Z</time></trkpt><trkpt lat="44.0006683" lon="12.11293"><ele>149.0</ele><time>2026-04-06T15:22:15.084Z</time></trkpt><trkpt lat="44.0008267" lon="12.1128217"><ele>149.0</ele><time>2026-04-06T15:22:16.007Z</time></trkpt><trkpt lat="44.000975" lon="12.112715"><ele>148.25</ele><time>2026-04-06T15:22:17.012Z</time></trkpt><trkpt lat="44.001115" lon="12.1126267"><ele>147.5</ele><time>2026-04-06T15:22:18.007Z</time></trkpt><trkpt lat="44.001255" lon="12.1125767"><ele>146.75</ele><time>2026-04-06T15:22:19.007Z</time></trkpt><trkpt lat="44.0014033" lon="12.1125717"><ele>146.0</ele><time>2026-04-06T15:22:20.006Z</time></trkpt><trkpt lat="44.0015633" lon="12.1126017"><ele>146.0</ele><time>2026-04-06T15:22:21.006Z</time></trkpt><trkpt lat="44.0017417" lon="12.1126633"><ele>146.0</ele><time>2026-04-06T15:22:22.008Z</time></trkpt><trkpt lat="44.0019367" lon="12.1127567"><ele>146.0</ele><time>2026-04-06T15:22:23.008Z</time></trkpt><trkpt lat="44.002145" lon="12.1128783"><ele>146.0</ele><time>2026-04-06T15:22:24.007Z</time></trkpt><trkpt lat="44.0023583" lon="12.11302"><ele>146.0</ele><time>2026-04-06T15:22:25.007Z</time></trkpt><trkpt lat="44.0025733" lon="12.113195"><ele>145.0</ele><time>2026-04-06T15:22:26.011Z</time></trkpt><trkpt lat="44.00278" lon="12.113395"><ele>144.0</ele><time>2026-04-06T15:22:27.01Z</time></trkpt><trkpt lat="44.0029667" lon="12.1136083"><ele>144.0</ele><time>2026-04-06T15:22:28.007Z</time></trkpt><trkpt lat="44.0031333" lon="12.113825"><ele>144.0</ele><time>2026-04-06T15:22:29.007Z</time></trkpt><trkpt lat="44.0032833" lon="12.11404"><ele>144.0</ele><time>2026-04-06T15:22:30.008Z</time></trkpt><trkpt lat="44.003415" lon="12.1142617"><ele>144.33333333333334</ele><time>2026-04-06T15:22:31.007Z</time></trkpt><trkpt lat="44.0035417" lon="12.1144917"><ele>144.66666666666669</ele><time>2026-04-06T15:22:32.008Z</time></trkpt><trkpt lat="44.0036217" lon="12.1147567"><ele>145.0</ele><time>2026-04-06T15:22:33.008Z</time></trkpt><trkpt lat="44.0036917" lon="12.11502"><ele>144.0</ele><time>2026-04-06T15:22:34.007Z</time></trkpt><trkpt lat="44.0037667" lon="12.1152717"><ele>143.0</ele><time>2026-04-06T15:22:35.007Z</time></trkpt><trkpt lat="44.00386" lon="12.11551"><ele>142.0</ele><time>2026-04-06T15:22:36.008Z</time></trkpt><trkpt lat="44.003985" lon="12.115725"><ele>141.33333333333334</ele><time>2026-04-06T15:22:37.007Z</time></trkpt><trkpt lat="44.004135" lon="12.1159217"><ele>140.66666666666666</ele><time>2026-04-06T15:22:38.007Z</time></trkpt><trkpt lat="44.0043033" lon="12.1161"><ele>140.0</ele><time>2026-04-06T15:22:39.007Z</time></trkpt><trkpt lat="44.0044817" lon="12.1162783"><ele>139.5</ele><time>2026-04-06T15:22:40.006Z</time></trkpt><trkpt lat="44.0046667" lon="12.1164617"><ele>139.0</ele><time>2026-04-06T15:22:41.007Z</time></trkpt><trkpt lat="44.0048483" lon="12.11664"><ele>140.0</ele><time>2026-04-06T15:22:42.007Z</time></trkpt><trkpt lat="44.0050233" lon="12.1168"><ele>141.0</ele><time>2026-04-06T15:22:43.012Z</time></trkpt><trkpt lat="44.0051967" lon="12.1169383"><ele>142.0</ele><time>2026-04-06T15:22:44.008Z</time></trkpt><trkpt lat="44.0053817" lon="12.1170283"><ele>142.0</ele><time>2026-04-06T15:22:45.008Z</time></trkpt><trkpt lat="44.0055683" lon="12.1170817"><ele>142.0</ele><time>2026-04-06T15:22:46.007Z</time></trkpt><trkpt lat="44.0057483" lon="12.1171183"><ele>142.0</ele><time>2026-04-06T15:22:47.006Z</time></trkpt><trkpt lat="44.0059217" lon="12.1171483"><ele>142.33333333333334</ele><time>2026-04-06T15:22:48.006Z</time></trkpt><trkpt lat="44.0060917" lon="12.117185"><ele>142.66666666666666</ele><time>2026-04-06T15:22:49.006Z</time></trkpt><trkpt lat="44.00626" lon="12.1172233"><ele>143.0</ele><time>2026-04-06T15:22:50.007Z</time></trkpt><trkpt lat="44.0064267" lon="12.117265"><ele>143.0</ele><time>2026-04-06T15:22:51.006Z</time></trkpt><trkpt lat="44.0065983" lon="12.1172933"><ele>143.0</ele><time>2026-04-06T15:22:52.01Z</time></trkpt><trkpt lat="44.0067717" lon="12.11731"><ele>143.0</ele><time>2026-04-06T15:22:53.008Z</time></trkpt><trkpt lat="44.0069467" lon="12.1173133"><ele>142.0</ele><time>2026-04-06T15:22:54.008Z</time></trkpt><trkpt lat="44.0071183" lon="12.1172967"><ele>141.0</ele><time>2026-04-06T15:22:55.007Z</time></trkpt><trkpt lat="44.0072883" lon="12.1172717"><ele>140.0</ele><time>2026-04-06T15:22:56.007Z</time></trkpt><trkpt lat="44.0074571" lon="12.1172358"><ele>139.0</ele><time>2026-04-06T15:22:57.01Z</time></trkpt><trkpt lat="44.0076238" lon="12.1171912"><ele>138.0</ele><time>2026-04-06T15:22:58.01Z</time></trkpt><trkpt lat="44.0077888" lon="12.1171408"><ele>137.0</ele><time>2026-04-06T15:22:59.008Z</time></trkpt><trkpt lat="44.0079511" lon="12.117086"><ele>137.0</ele><time>2026-04-06T15:23:00.008Z</time></trkpt><trkpt lat="44.0081175" lon="12.1170332"><ele>137.0</ele><time>2026-04-06T15:23:01.008Z</time></trkpt><trkpt lat="44.0082868" lon="12.1169832"><ele>137.0</ele><time>2026-04-06T15:23:02.005Z</time></trkpt><trkpt lat="44.0084587" lon="12.1169341"><ele>136.66666666666666</ele><time>2026-04-06T15:23:03.008Z</time></trkpt><trkpt lat="44.0086372" lon="12.1168783"><ele>136.33333333333334</ele><time>2026-04-06T15:23:04.008Z</time></trkpt><trkpt lat="44.0088179" lon="12.1168208"><ele>136.0</ele><time>2026-04-06T15:23:05.009Z</time></trkpt><trkpt lat="44.0090005" lon="12.1167766"><ele>135.66666666666669</ele><time>2026-04-06T15:23:06.008Z</time></trkpt><trkpt lat="44.0091831" lon="12.1167505"><ele>135.33333333333334</ele><time>2026-04-06T15:23:07.007Z</time></trkpt><trkpt lat="44.0093644" lon="12.1167459"><ele>135.0</ele><time>2026-04-06T15:23:08.007Z</time></trkpt><trkpt lat="44.0095463" lon="12.1167659"><ele>135.0</ele><time>2026-04-06T15:23:09.009Z</time></trkpt><trkpt lat="44.0097261" lon="12.1167997"><ele>135.0</ele><time>2026-04-06T15:23:10.008Z</time></trkpt><trkpt lat="44.0099031" lon="12.1168478"><ele>135.0</ele><time>2026-04-06T15:23:11.008Z</time></trkpt><trkpt lat="44.0100792" lon="12.1169105"><ele>134.66666666666666</ele><time>2026-04-06T15:23:12.007Z</time></trkpt><trkpt lat="44.0102515" lon="12.1169883"><ele>134.33333333333331</ele><time>2026-04-06T15:23:13.012Z</time></trkpt><trkpt lat="44.0104158" lon="12.1170847"><ele>134.0</ele><time>2026-04-06T15:23:14.007Z</time></trkpt><trkpt lat="44.0105777" lon="12.1171973"><ele>134.0</ele><time>2026-04-06T15:23:15.008Z</time></trkpt><trkpt lat="44.0107409" lon="12.1173264"><ele>134.0</ele><time>2026-04-06T15:23:16.006Z</time></trkpt><trkpt lat="44.0109151" lon="12.117459"><ele>134.0</ele><time>2026-04-06T15:23:17.01Z</time></trkpt><trkpt lat="44.0110961" lon="12.1176052"><ele>133.0</ele><time>2026-04-06T15:23:18.007Z</time></trkpt><trkpt lat="44.0112892" lon="12.1177564"><ele>132.0</ele><time>2026-04-06T15:23:19.008Z</time></trkpt><trkpt lat="44.011496" lon="12.1179015"><ele>131.0</ele><time>2026-04-06T15:23:20.007Z</time></trkpt><trkpt lat="44.0117084" lon="12.1180514"><ele>130.0</ele><time>2026-04-06T15:23:21.008Z</time></trkpt><trkpt lat="44.0119202" lon="12.1182139"><ele>129.5</ele><time>2026-04-06T15:23:22.008Z</time></trkpt><trkpt lat="44.0121352" lon="12.118379"><ele>129.0</ele><time>2026-04-06T15:23:23.006Z</time></trkpt><trkpt lat="44.0123543" lon="12.1185533"><ele>128.0</ele><time>2026-04-06T15:23:24.006Z</time></trkpt><trkpt lat="44.012582" lon="12.1187224"><ele>127.0</ele><time>2026-04-06T15:23:25.009Z</time></trkpt><trkpt lat="44.0128152" lon="12.1188974"><ele>127.0</ele><time>2026-04-06T15:23:26.006Z</time></trkpt><trkpt lat="44.0130553" lon="12.1190726"><ele>127.0</ele><time>2026-04-06T15:23:27.008Z</time></trkpt><trkpt lat="44.0133001" lon="12.1192574"><ele>126.5</ele><time>2026-04-06T15:23:28.008Z</time></trkpt><trkpt lat="44.0135434" lon="12.1194503"><ele>126.0</ele><time>2026-04-06T15:23:29.007Z</time></trkpt><trkpt lat="44.01379" lon="12.1196501"><ele>126.0</ele><time>2026-04-06T15:23:30.007Z</time></trkpt><trkpt lat="44.01404" lon="12.1198434"><ele>126.0</ele><time>2026-04-06T15:23:31.008Z</time></trkpt><trkpt lat="44.0142929" lon="12.1200384"><ele>125.5</ele><time>2026-04-06T15:23:32.01Z</time></trkpt><trkpt lat="44.0145406" lon="12.120243"><ele>125.0</ele><time>2026-04-06T15:23:33.009Z</time></trkpt><trkpt lat="44.0147772" lon="12.1204331"><ele>124.5</ele><time>2026-04-06T15:23:34.007Z</time></trkpt><trkpt lat="44.0150011" lon="12.120603"><ele>124.0</ele><time>2026-04-06T15:23:35.007Z</time></trkpt><trkpt lat="44.0152159" lon="12.1207763"><ele>124.0</ele><time>2026-04-06T15:23:36.009Z</time></trkpt><trkpt lat="44.0154311" lon="12.1209525"><ele>124.0</ele><time>2026-04-06T15:23:37.009Z</time></trkpt><trkpt lat="44.015651" lon="12.1211215"><ele>127.0</ele><time>2026-04-06T15:23:38.01Z</time></trkpt><trkpt lat="44.0158763" lon="12.1212742"><ele>130.0</ele><time>2026-04-06T15:23:39.008Z</time></trkpt><trkpt lat="44.0161127" lon="12.1214089"><ele>130.0</ele><time>2026-04-06T15:23:40.007Z</time></trkpt><trkpt lat="44.0163623" lon="12.1215187"><ele>130.0</ele><time>2026-04-06T15:23:41.007Z</time></trkpt><trkpt lat="44.016615" lon="12.1216094"><ele>128.0</ele><time>2026-04-06T15:23:42.007Z</time></trkpt><trkpt lat="44.0168562" lon="12.121694"><ele>126.0</ele><time>2026-04-06T15:23:43.005Z</time></trkpt><trkpt lat="44.0170806" lon="12.121783"><ele>126.0</ele><time>2026-04-06T15:23:44.006Z</time></trkpt><trkpt lat="44.0172913" lon="12.121871"><ele>126.0</ele><time>2026-04-06T15:23:45.006Z</time></trkpt><trkpt lat="44.0175059" lon="12.1219588"><ele>126.0</ele><time>2026-04-06T15:23:46.007Z</time></trkpt><trkpt lat="44.0177816" lon="12.1220486"><ele>127.0</ele><time>2026-04-06T15:23:47.366Z</time></trkpt><trkpt lat="44.0180679" lon="12.1221136"><ele>128.0</ele><time>2026-04-06T15:23:48.744Z</time></trkpt><trkpt lat="44.0185303" lon="12.1223274"><ele>126.0</ele><time>2026-04-06T15:23:51.008Z</time></trkpt><trkpt lat="44.0187343" lon="12.1224862"><ele>124.0</ele><time>2026-04-06T15:23:52.007Z</time></trkpt><trkpt lat="44.0189239" lon="12.1226839"><ele>124.0</ele><time>2026-04-06T15:23:53.007Z</time></trkpt><trkpt lat="44.0191042" lon="12.1228947"><ele>124.0</ele><time>2026-04-06T15:23:54.007Z</time></trkpt><trkpt lat="44.0192919" lon="12.1231056"><ele>122.5</ele><time>2026-04-06T15:23:55.007Z</time></trkpt><trkpt lat="44.0194794" lon="12.1232971"><ele>121.0</ele><time>2026-04-06T15:23:56.008Z</time></trkpt><trkpt lat="44.0196671" lon="12.1234822"><ele>121.0</ele><time>2026-04-06T15:23:57.008Z</time></trkpt><trkpt lat="44.0198408" lon="12.1236596"><ele>121.0</ele><time>2026-04-06T15:23:58.007Z</time></trkpt><trkpt lat="44.0200061" lon="12.123827"><ele>121.0</ele><time>2026-04-06T15:23:59.007Z</time></trkpt><trkpt lat="44.0201671" lon="12.1239911"><ele>120.66666666666667</ele><time>2026-04-06T15:24:00.009Z</time></trkpt><trkpt lat="44.0203244" lon="12.124152"><ele>120.33333333333334</ele><time>2026-04-06T15:24:01.007Z</time></trkpt><trkpt lat="44.0204757" lon="12.1243104"><ele>120.0</ele><time>2026-04-06T15:24:02.012Z</time></trkpt><trkpt lat="44.0206223" lon="12.1244662"><ele>120.0</ele><time>2026-04-06T15:24:03.008Z</time></trkpt><trkpt lat="44.0207685" lon="12.1246175"><ele>120.0</ele><time>2026-04-06T15:24:04.007Z</time></trkpt><trkpt lat="44.020912" lon="12.1247752"><ele>120.0</ele><time>2026-04-06T15:24:05.008Z</time></trkpt><trkpt lat="44.0210566" lon="12.1249333"><ele>120.0</ele><time>2026-04-06T15:24:06.007Z</time></trkpt><trkpt lat="44.0212065" lon="12.1250838"><ele>120.0</ele><time>2026-04-06T15:24:07.008Z</time></trkpt><trkpt lat="44.0213608" lon="12.1252368"><ele>120.0</ele><time>2026-04-06T15:24:08.009Z</time></trkpt><trkpt lat="44.0215178" lon="12.1253934"><ele>119.66666666666666</ele><time>2026-04-06T15:24:09.008Z</time></trkpt><trkpt lat="44.0216764" lon="12.1255543"><ele>119.33333333333333</ele><time>2026-04-06T15:24:10.007Z</time></trkpt><trkpt lat="44.0218376" lon="12.1257198"><ele>119.0</ele><time>2026-04-06T15:24:11.008Z</time></trkpt><trkpt lat="44.0219978" lon="12.1258894"><ele>119.0</ele><time>2026-04-06T15:24:12.007Z</time></trkpt><trkpt lat="44.0221574" lon="12.1260485"><ele>119.0</ele><time>2026-04-06T15:24:13.007Z</time></trkpt><trkpt lat="44.0223096" lon="12.1261991"><ele>119.0</ele><time>2026-04-06T15:24:14.006Z</time></trkpt><trkpt lat="44.022455" lon="12.1263427"><ele>119.33333333333333</ele><time>2026-04-06T15:24:15.008Z</time></trkpt><trkpt lat="44.0225919" lon="12.1264768"><ele>119.66666666666666</ele><time>2026-04-06T15:24:16.008Z</time></trkpt><trkpt lat="44.0227227" lon="12.1266007"><ele>120.0</ele><time>2026-04-06T15:24:17.006Z</time></trkpt><trkpt lat="44.0228449" lon="12.1267179"><ele>119.25</ele><time>2026-04-06T15:24:18.008Z</time></trkpt><trkpt lat="44.0229585" lon="12.126833"><ele>118.5</ele><time>2026-04-06T15:24:19.007Z</time></trkpt><trkpt lat="44.0230666" lon="12.1269395"><ele>117.75</ele><time>2026-04-06T15:24:20.007Z</time></trkpt><trkpt lat="44.0231682" lon="12.1270391"><ele>117.0</ele><time>2026-04-06T15:24:21.008Z</time></trkpt><trkpt lat="44.0232659" lon="12.1271337"><ele>116.75</ele><time>2026-04-06T15:24:22.006Z</time></trkpt><trkpt lat="44.0233577" lon="12.1272292"><ele>116.5</ele><time>2026-04-06T15:24:23.006Z</time></trkpt><trkpt lat="44.0234484" lon="12.1273256"><ele>116.25</ele><time>2026-04-06T15:24:24.008Z</time></trkpt><trkpt lat="44.0235437" lon="12.1274262"><ele>116.0</ele><time>2026-04-06T15:24:25.007Z</time></trkpt><trkpt lat="44.0236478" lon="12.1275313"><ele>116.0</ele><time>2026-04-06T15:24:26.007Z</time></trkpt><trkpt lat="44.0237635" lon="12.1276439"><ele>116.0</ele><time>2026-04-06T15:24:27.008Z</time></trkpt><trkpt lat="44.0238874" lon="12.1277635"><ele>116.0</ele><time>2026-04-06T15:24:28.008Z</time></trkpt><trkpt lat="44.0240216" lon="12.127893"><ele>116.33333333333333</ele><time>2026-04-06T15:24:29.008Z</time></trkpt><trkpt lat="44.0241559" lon="12.128037"><ele>116.66666666666666</ele><time>2026-04-06T15:24:30.007Z</time></trkpt><trkpt lat="44.0242935" lon="12.1281861"><ele>117.0</ele><time>2026-04-06T15:24:31.009Z</time></trkpt><trkpt lat="44.0244338" lon="12.1283452"><ele>116.33333333333334</ele><time>2026-04-06T15:24:32.008Z</time></trkpt><trkpt lat="44.0245731" lon="12.1285151"><ele>115.66666666666667</ele><time>2026-04-06T15:24:33.008Z</time></trkpt><trkpt lat="44.0247069" lon="12.1287013"><ele>115.0</ele><time>2026-04-06T15:24:34.009Z</time></trkpt><trkpt lat="44.0248322" lon="12.1289074"><ele>114.66666666666667</ele><time>2026-04-06T15:24:35.007Z</time></trkpt><trkpt lat="44.0249439" lon="12.1291281"><ele>114.33333333333334</ele><time>2026-04-06T15:24:36.007Z</time></trkpt><trkpt lat="44.025043" lon="12.1293505"><ele>114.0</ele><time>2026-04-06T15:24:37.01Z</time></trkpt><trkpt lat="44.0251382" lon="12.1295611"><ele>114.0</ele><time>2026-04-06T15:24:38.008Z</time></trkpt><trkpt lat="44.0252362" lon="12.1297517"><ele>114.0</ele><time>2026-04-06T15:24:39.006Z</time></trkpt><trkpt lat="44.0253395" lon="12.1299068"><ele>114.0</ele><time>2026-04-06T15:24:40.009Z</time></trkpt><trkpt lat="44.02545" lon="12.1300223"><ele>114.0</ele><time>2026-04-06T15:24:41.008Z</time></trkpt><trkpt lat="44.0255591" lon="12.1301043"><ele>114.0</ele><time>2026-04-06T15:24:42.007Z</time></trkpt><trkpt lat="44.0256676" lon="12.130161"><ele>114.0</ele><time>2026-04-06T15:24:43.008Z</time></trkpt><trkpt lat="44.0257723" lon="12.1302136"><ele>114.0</ele><time>2026-04-06T15:24:44.007Z</time></trkpt><trkpt lat="44.0258725" lon="12.1302641"><ele>114.80000000000001</ele><time>2026-04-06T15:24:45.011Z</time></trkpt><trkpt lat="44.0259658" lon="12.1303098"><ele>115.60000000000001</ele><time>2026-04-06T15:24:46.007Z</time></trkpt><trkpt lat="44.0260566" lon="12.1303486"><ele>116.4</ele><time>2026-04-06T15:24:47.007Z</time></trkpt><trkpt lat="44.0261476" lon="12.1303833"><ele>117.2</ele><time>2026-04-06T15:24:48.007Z</time></trkpt><trkpt lat="44.0262319" lon="12.1304167"><ele>118.0</ele><time>2026-04-06T15:24:49.008Z</time></trkpt><trkpt lat="44.0263032" lon="12.1304485"><ele>118.0</ele><time>2026-04-06T15:24:50.007Z</time></trkpt><trkpt lat="44.0263955" lon="12.1304952"><ele>118.00000000000001</ele><time>2026-04-06T15:24:52.008Z</time></trkpt><trkpt lat="44.0264567" lon="12.1305167"><ele>118.00000000000001</ele><time>2026-04-06T15:25:44.008Z</time></trkpt><trkpt lat="44.026565" lon="12.1305467"><ele>118.0</ele><time>2026-04-06T15:25:46.006Z</time></trkpt><trkpt lat="44.0266533" lon="12.1305817"><ele>118.0</ele><time>2026-04-06T15:25:47.008Z</time></trkpt><trkpt lat="44.02676" lon="12.1306433"><ele>117.0</ele><time>2026-04-06T15:25:48.008Z</time></trkpt><trkpt lat="44.0268833" lon="12.1307033"><ele>116.0</ele><time>2026-04-06T15:25:49.008Z</time></trkpt><trkpt lat="44.027025" lon="12.13076"><ele>115.0</ele><time>2026-04-06T15:25:50.009Z</time></trkpt><trkpt lat="44.0271733" lon="12.130845"><ele>114.0</ele><time>2026-04-06T15:25:51.007Z</time></trkpt><trkpt lat="44.0273267" lon="12.13093"><ele>115.33333333333334</ele><time>2026-04-06T15:25:52.009Z</time></trkpt><trkpt lat="44.027485" lon="12.1310217"><ele>116.66666666666667</ele><time>2026-04-06T15:25:53.008Z</time></trkpt><trkpt lat="44.027645" lon="12.131115"><ele>118.0</ele><time>2026-04-06T15:25:54.01Z</time></trkpt><trkpt lat="44.0278067" lon="12.13121"><ele>118.0</ele><time>2026-04-06T15:25:55.011Z</time></trkpt><trkpt lat="44.02796" lon="12.1313017"><ele>118.0</ele><time>2026-04-06T15:25:56.008Z</time></trkpt><trkpt lat="44.0281" lon="12.1313883"><ele>118.0</ele><time>2026-04-06T15:25:57.007Z</time></trkpt><trkpt lat="44.0282283" lon="12.1314817"><ele>117.0</ele><time>2026-04-06T15:25:58.007Z</time></trkpt><trkpt lat="44.0283367" lon="12.13158"><ele>116.0</ele><time>2026-04-06T15:25:59.007Z</time></trkpt><trkpt lat="44.0284333" lon="12.1316867"><ele>115.0</ele><time>2026-04-06T15:26:00.007Z</time></trkpt><trkpt lat="44.0285217" lon="12.131825"><ele>114.0</ele><time>2026-04-06T15:26:01.007Z</time></trkpt><trkpt lat="44.0286233" lon="12.1319633"><ele>114.0</ele><time>2026-04-06T15:26:02.007Z</time></trkpt><trkpt lat="44.028725" lon="12.1321333"><ele>114.0</ele><time>2026-04-06T15:26:03.01Z</time></trkpt><trkpt lat="44.0288133" lon="12.1323433"><ele>114.0</ele><time>2026-04-06T15:26:04.008Z</time></trkpt><trkpt lat="44.0288767" lon="12.13258"><ele>113.0</ele><time>2026-04-06T15:26:05.006Z</time></trkpt><trkpt lat="44.0289167" lon="12.1328433"><ele>112.0</ele><time>2026-04-06T15:26:06.006Z</time></trkpt><trkpt lat="44.0289417" lon="12.1331167"><ele>111.0</ele><time>2026-04-06T15:26:07.008Z</time></trkpt><trkpt lat="44.02896" lon="12.1333967"><ele>110.0</ele><time>2026-04-06T15:26:08.01Z</time></trkpt><trkpt lat="44.0289883" lon="12.1336717"><ele>109.0</ele><time>2026-04-06T15:26:09.009Z</time></trkpt><trkpt lat="44.0289967" lon="12.1339433"><ele>108.0</ele><time>2026-04-06T15:26:10.008Z</time></trkpt><trkpt lat="44.02901" lon="12.1341983"><ele>107.66666666666666</ele><time>2026-04-06T15:26:11.007Z</time></trkpt><trkpt lat="44.029025" lon="12.1344433"><ele>107.33333333333333</ele><time>2026-04-06T15:26:12.008Z</time></trkpt><trkpt lat="44.0290417" lon="12.13469"><ele>107.0</ele><time>2026-04-06T15:26:13.01Z</time></trkpt><trkpt lat="44.0290633" lon="12.1349367"><ele>107.0</ele><time>2026-04-06T15:26:14.008Z</time></trkpt><trkpt lat="44.0290967" lon="12.1351917"><ele>107.0</ele><time>2026-04-06T15:26:15.008Z</time></trkpt><trkpt lat="44.0291467" lon="12.1354533"><ele>107.0</ele><time>2026-04-06T15:26:16.008Z</time></trkpt><trkpt lat="44.029205" lon="12.1357217"><ele>107.0</ele><time>2026-04-06T15:26:17.009Z</time></trkpt><trkpt lat="44.0292667" lon="12.13599"><ele>107.0</ele><time>2026-04-06T15:26:18.008Z</time></trkpt><trkpt lat="44.0293333" lon="12.136255"><ele>107.0</ele><time>2026-04-06T15:26:19.007Z</time></trkpt><trkpt lat="44.029395" lon="12.1365167"><ele>106.66666666666666</ele><time>2026-04-06T15:26:20.007Z</time></trkpt><trkpt lat="44.0294533" lon="12.136775"><ele>106.33333333333334</ele><time>2026-04-06T15:26:21.008Z</time></trkpt><trkpt lat="44.02951" lon="12.1370267"><ele>106.0</ele><time>2026-04-06T15:26:22.007Z</time></trkpt><trkpt lat="44.0295763" lon="12.1372789"><ele>106.33333333333334</ele><time>2026-04-06T15:26:23.007Z</time></trkpt><trkpt lat="44.0296429" lon="12.1375343"><ele>106.66666666666666</ele><time>2026-04-06T15:26:24.011Z</time></trkpt><trkpt lat="44.0297051" lon="12.1377888"><ele>107.0</ele><time>2026-04-06T15:26:25.008Z</time></trkpt><trkpt lat="44.0297669" lon="12.1380419"><ele>107.0</ele><time>2026-04-06T15:26:26.008Z</time></trkpt><trkpt lat="44.0298296" lon="12.1382936"><ele>107.0</ele><time>2026-04-06T15:26:27.009Z</time></trkpt><trkpt lat="44.0298879" lon="12.1385495"><ele>107.0</ele><time>2026-04-06T15:26:28.008Z</time></trkpt><trkpt lat="44.0299491" lon="12.1388128"><ele>106.0</ele><time>2026-04-06T15:26:29.011Z</time></trkpt><trkpt lat="44.0300175" lon="12.1390846"><ele>105.0</ele><time>2026-04-06T15:26:30.007Z</time></trkpt><trkpt lat="44.0300813" lon="12.1393518"><ele>104.0</ele><time>2026-04-06T15:26:31.007Z</time></trkpt><trkpt lat="44.030131" lon="12.1396263"><ele>104.33333333333333</ele><time>2026-04-06T15:26:32.006Z</time></trkpt><trkpt lat="44.0301417" lon="12.1399123"><ele>104.66666666666666</ele><time>2026-04-06T15:26:33.009Z</time></trkpt><trkpt lat="44.0301159" lon="12.1401891"><ele>105.0</ele><time>2026-04-06T15:26:34.007Z</time></trkpt><trkpt lat="44.0300746" lon="12.1404599"><ele>104.66666666666666</ele><time>2026-04-06T15:26:35.006Z</time></trkpt><trkpt lat="44.0299809" lon="12.1407175"><ele>104.33333333333333</ele><time>2026-04-06T15:26:36.007Z</time></trkpt><trkpt lat="44.029859" lon="12.1409786"><ele>104.0</ele><time>2026-04-06T15:26:37.009Z</time></trkpt><trkpt lat="44.0297259" lon="12.1412441"><ele>104.0</ele><time>2026-04-06T15:26:38.01Z</time></trkpt><trkpt lat="44.0296055" lon="12.1415036"><ele>104.0</ele><time>2026-04-06T15:26:39.008Z</time></trkpt><trkpt lat="44.0295034" lon="12.1417408"><ele>104.0</ele><time>2026-04-06T15:26:40.007Z</time></trkpt><trkpt lat="44.0294293" lon="12.1419535"><ele>104.0</ele><time>2026-04-06T15:26:41.008Z</time></trkpt><trkpt lat="44.0293895" lon="12.1421559"><ele>104.0</ele><time>2026-04-06T15:26:42.007Z</time></trkpt><trkpt lat="44.0293842" lon="12.142364"><ele>104.0</ele><time>2026-04-06T15:26:43.008Z</time></trkpt><trkpt lat="44.0294074" lon="12.142577"><ele>104.33333333333333</ele><time>2026-04-06T15:26:44.009Z</time></trkpt><trkpt lat="44.0294534" lon="12.1427918"><ele>104.66666666666666</ele><time>2026-04-06T15:26:45.009Z</time></trkpt><trkpt lat="44.0295448" lon="12.1430012"><ele>105.0</ele><time>2026-04-06T15:26:46.006Z</time></trkpt><trkpt lat="44.029658" lon="12.1432062"><ele>104.33333333333334</ele><time>2026-04-06T15:26:47.007Z</time></trkpt><trkpt lat="44.0297646" lon="12.1434174"><ele>103.66666666666667</ele><time>2026-04-06T15:26:48.007Z</time></trkpt><trkpt lat="44.0298715" lon="12.1436476"><ele>103.0</ele><time>2026-04-06T15:26:49.008Z</time></trkpt><trkpt lat="44.0299792" lon="12.1438844"><ele>106.0</ele><time>2026-04-06T15:26:50.007Z</time></trkpt><trkpt lat="44.0300885" lon="12.1441153"><ele>109.0</ele><time>2026-04-06T15:26:51.007Z</time></trkpt><trkpt lat="44.0301799" lon="12.1443387"><ele>112.0</ele><time>2026-04-06T15:26:52.008Z</time></trkpt><trkpt lat="44.0302425" lon="12.1445584"><ele>112.0</ele><time>2026-04-06T15:26:53.008Z</time></trkpt><trkpt lat="44.0302781" lon="12.1447904"><ele>112.0</ele><time>2026-04-06T15:26:54.008Z</time></trkpt><trkpt lat="44.0302924" lon="12.1450314"><ele>112.0</ele><time>2026-04-06T15:26:55.01Z</time></trkpt><trkpt lat="44.0302867" lon="12.1452833"><ele>111.5</ele><time>2026-04-06T15:26:56.007Z</time></trkpt><trkpt lat="44.030295" lon="12.14551"><ele>111.0</ele><time>2026-04-06T15:26:57.01Z</time></trkpt><trkpt lat="44.0303133" lon="12.1457117"><ele>110.5</ele><time>2026-04-06T15:26:58.008Z</time></trkpt><trkpt lat="44.0303667" lon="12.1458833"><ele>110.0</ele><time>2026-04-06T15:26:59.007Z</time></trkpt><trkpt lat="44.030445" lon="12.14602"><ele>109.75</ele><time>2026-04-06T15:27:00.008Z</time></trkpt><trkpt lat="44.0305533" lon="12.146125"><ele>109.5</ele><time>2026-04-06T15:27:01.007Z</time></trkpt><trkpt lat="44.0306833" lon="12.146205"><ele>109.25</ele><time>2026-04-06T15:27:02.007Z</time></trkpt><trkpt lat="44.0308067" lon="12.1462783"><ele>109.0</ele><time>2026-04-06T15:27:03.008Z</time></trkpt><trkpt lat="44.0309283" lon="12.146385"><ele>111.66666666666667</ele><time>2026-04-06T15:27:04.007Z</time></trkpt><trkpt lat="44.0310383" lon="12.1465183"><ele>114.33333333333334</ele><time>2026-04-06T15:27:05.008Z</time></trkpt><trkpt lat="44.0311383" lon="12.1466767"><ele>117.0</ele><time>2026-04-06T15:27:06.01Z</time></trkpt><trkpt lat="44.03123" lon="12.1468533"><ele>117.0</ele><time>2026-04-06T15:27:07.007Z</time></trkpt><trkpt lat="44.03132" lon="12.1470283"><ele>117.0</ele><time>2026-04-06T15:27:08.008Z</time></trkpt><trkpt lat="44.03143" lon="12.14719"><ele>117.0</ele><time>2026-04-06T15:27:09.01Z</time></trkpt><trkpt lat="44.0315583" lon="12.147325"><ele>118.66666666666666</ele><time>2026-04-06T15:27:10.006Z</time></trkpt><trkpt lat="44.0316933" lon="12.1474467"><ele>120.33333333333333</ele><time>2026-04-06T15:27:11.011Z</time></trkpt><trkpt lat="44.0318167" lon="12.1475783"><ele>122.0</ele><time>2026-04-06T15:27:12.009Z</time></trkpt><trkpt lat="44.03192" lon="12.14774"><ele>122.0</ele><time>2026-04-06T15:27:13.008Z</time></trkpt><trkpt lat="44.0319967" lon="12.147925"><ele>122.0</ele><time>2026-04-06T15:27:14.007Z</time></trkpt><trkpt lat="44.03206" lon="12.1481233"><ele>122.0</ele><time>2026-04-06T15:27:15.007Z</time></trkpt><trkpt lat="44.032125" lon="12.1483283"><ele>117.66666666666666</ele><time>2026-04-06T15:27:16.008Z</time></trkpt><trkpt lat="44.0322017" lon="12.14853"><ele>113.33333333333334</ele><time>2026-04-06T15:27:17.007Z</time></trkpt><trkpt lat="44.0322933" lon="12.148725"><ele>109.0</ele><time>2026-04-06T15:27:18.008Z</time></trkpt><trkpt lat="44.0323967" lon="12.1489167"><ele>112.33333333333334</ele><time>2026-04-06T15:27:19.008Z</time></trkpt><trkpt lat="44.0325067" lon="12.149095"><ele>115.66666666666666</ele><time>2026-04-06T15:27:20.008Z</time></trkpt><trkpt lat="44.032615" lon="12.14925"><ele>119.0</ele><time>2026-04-06T15:27:21.01Z</time></trkpt><trkpt lat="44.032725" lon="12.1493667"><ele>119.0</ele><time>2026-04-06T15:27:22.008Z</time></trkpt><trkpt lat="44.0328383" lon="12.1494417"><ele>119.0</ele><time>2026-04-06T15:27:23.008Z</time></trkpt><trkpt lat="44.0329567" lon="12.149475"><ele>119.0</ele><time>2026-04-06T15:27:24.007Z</time></trkpt><trkpt lat="44.0330733" lon="12.14948"><ele>119.0</ele><time>2026-04-06T15:27:25.008Z</time></trkpt><trkpt lat="44.0331883" lon="12.1494633"><ele>121.5</ele><time>2026-04-06T15:27:26.006Z</time></trkpt><trkpt lat="44.03331" lon="12.14943"><ele>124.0</ele><time>2026-04-06T15:27:27.007Z</time></trkpt><trkpt lat="44.03344" lon="12.14941"><ele>126.5</ele><time>2026-04-06T15:27:28.006Z</time></trkpt><trkpt lat="44.033585" lon="12.1494233"><ele>129.0</ele><time>2026-04-06T15:27:29.006Z</time></trkpt><trkpt lat="44.0337467" lon="12.1494817"><ele>129.0</ele><time>2026-04-06T15:27:30.01Z</time></trkpt><trkpt lat="44.033922" lon="12.1495863"><ele>129.0</ele><time>2026-04-06T15:27:31.007Z</time></trkpt><trkpt lat="44.0341124" lon="12.1497325"><ele>129.0</ele><time>2026-04-06T15:27:32.008Z</time></trkpt><trkpt lat="44.0343041" lon="12.149897"><ele>126.0</ele><time>2026-04-06T15:27:33.007Z</time></trkpt><trkpt lat="44.0344942" lon="12.1500811"><ele>123.0</ele><time>2026-04-06T15:27:34.01Z</time></trkpt><trkpt lat="44.034674" lon="12.1502916"><ele>123.0</ele><time>2026-04-06T15:27:35.008Z</time></trkpt><trkpt lat="44.0348419" lon="12.1505273"><ele>123.0</ele><time>2026-04-06T15:27:36.01Z</time></trkpt><trkpt lat="44.034988" lon="12.1507655"><ele>123.66666666666666</ele><time>2026-04-06T15:27:37.007Z</time></trkpt><trkpt lat="44.0351081" lon="12.1510001"><ele>124.33333333333333</ele><time>2026-04-06T15:27:38.01Z</time></trkpt><trkpt lat="44.0352022" lon="12.1512279"><ele>125.0</ele><time>2026-04-06T15:27:39.007Z</time></trkpt><trkpt lat="44.0352726" lon="12.1514711"><ele>121.66666666666666</ele><time>2026-04-06T15:27:40.007Z</time></trkpt><trkpt lat="44.0353177" lon="12.1517444"><ele>118.33333333333334</ele><time>2026-04-06T15:27:41.007Z</time></trkpt><trkpt lat="44.0353254" lon="12.1520462"><ele>115.0</ele><time>2026-04-06T15:27:42.009Z</time></trkpt><trkpt lat="44.0353192" lon="12.152348"><ele>111.33333333333334</ele><time>2026-04-06T15:27:43.009Z</time></trkpt><trkpt lat="44.0353133" lon="12.1526332"><ele>107.66666666666666</ele><time>2026-04-06T15:27:44.008Z</time></trkpt><trkpt lat="44.0353151" lon="12.1528943"><ele>104.0</ele><time>2026-04-06T15:27:45.011Z</time></trkpt><trkpt lat="44.035335" lon="12.1531357"><ele>103.33333333333333</ele><time>2026-04-06T15:27:46.007Z</time></trkpt><trkpt lat="44.0353927" lon="12.1533651"><ele>102.66666666666666</ele><time>2026-04-06T15:27:47.008Z</time></trkpt><trkpt lat="44.0354923" lon="12.1535885"><ele>102.0</ele><time>2026-04-06T15:27:48.009Z</time></trkpt><trkpt lat="44.0356359" lon="12.1538086"><ele>105.5</ele><time>2026-04-06T15:27:49.011Z</time></trkpt><trkpt lat="44.0358136" lon="12.1540246"><ele>109.0</ele><time>2026-04-06T15:27:50.007Z</time></trkpt><trkpt lat="44.0360074" lon="12.1542424"><ele>109.0</ele><time>2026-04-06T15:27:51.011Z</time></trkpt><trkpt lat="44.0362067" lon="12.154465"><ele>109.0</ele><time>2026-04-06T15:27:52.007Z</time></trkpt><trkpt lat="44.0364047" lon="12.1546825"><ele>107.5</ele><time>2026-04-06T15:27:53.008Z</time></trkpt><trkpt lat="44.0365936" lon="12.1548907"><ele>106.0</ele><time>2026-04-06T15:27:54.007Z</time></trkpt><trkpt lat="44.0367775" lon="12.1550782"><ele>106.0</ele><time>2026-04-06T15:27:55.008Z</time></trkpt><trkpt lat="44.0369577" lon="12.1552456"><ele>106.0</ele><time>2026-04-06T15:27:56.009Z</time></trkpt><trkpt lat="44.0371312" lon="12.1553893"><ele>106.0</ele><time>2026-04-06T15:27:57.008Z</time></trkpt><trkpt lat="44.0372907" lon="12.1555295"><ele>106.0</ele><time>2026-04-06T15:27:58.008Z</time></trkpt><trkpt lat="44.0374326" lon="12.1556896"><ele>106.0</ele><time>2026-04-06T15:27:59.009Z</time></trkpt><trkpt lat="44.0375558" lon="12.155882"><ele>106.0</ele><time>2026-04-06T15:28:00.008Z</time></trkpt><trkpt lat="44.0376643" lon="12.1561142"><ele>106.33333333333334</ele><time>2026-04-06T15:28:01.007Z</time></trkpt><trkpt lat="44.0377594" lon="12.1563766"><ele>106.66666666666666</ele><time>2026-04-06T15:28:02.008Z</time></trkpt><trkpt lat="44.0378375" lon="12.1566501"><ele>107.0</ele><time>2026-04-06T15:28:03.009Z</time></trkpt><trkpt lat="44.0378897" lon="12.1569303"><ele>103.33333333333333</ele><time>2026-04-06T15:28:04.009Z</time></trkpt><trkpt lat="44.037914" lon="12.1572083"><ele>99.66666666666666</ele><time>2026-04-06T15:28:05.009Z</time></trkpt><trkpt lat="44.0379152" lon="12.1574799"><ele>96.0</ele><time>2026-04-06T15:28:06.008Z</time></trkpt><trkpt lat="44.037908" lon="12.1577387"><ele>95.0</ele><time>2026-04-06T15:28:07.007Z</time></trkpt><trkpt lat="44.0379102" lon="12.1579839"><ele>94.0</ele><time>2026-04-06T15:28:08.007Z</time></trkpt><trkpt lat="44.0379327" lon="12.1582153"><ele>93.0</ele><time>2026-04-06T15:28:09.008Z</time></trkpt><trkpt lat="44.0379843" lon="12.1584345"><ele>92.66666666666667</ele><time>2026-04-06T15:28:10.007Z</time></trkpt><trkpt lat="44.0380643" lon="12.1586511"><ele>92.33333333333334</ele><time>2026-04-06T15:28:11.007Z</time></trkpt><trkpt lat="44.0381773" lon="12.1588703"><ele>92.0</ele><time>2026-04-06T15:28:12.007Z</time></trkpt><trkpt lat="44.0383071" lon="12.1590809"><ele>93.0</ele><time>2026-04-06T15:28:13.008Z</time></trkpt><trkpt lat="44.0384415" lon="12.1592752"><ele>94.0</ele><time>2026-04-06T15:28:14.01Z</time></trkpt><trkpt lat="44.0385735" lon="12.1594632"><ele>95.0</ele><time>2026-04-06T15:28:15.012Z</time></trkpt><trkpt lat="44.038701" lon="12.1596492"><ele>95.0</ele><time>2026-04-06T15:28:16.01Z</time></trkpt><trkpt lat="44.0388278" lon="12.1598418"><ele>95.0</ele><time>2026-04-06T15:28:17.008Z</time></trkpt><trkpt lat="44.0389534" lon="12.1600419"><ele>95.0</ele><time>2026-04-06T15:28:18.008Z</time></trkpt><trkpt lat="44.0390839" lon="12.1602451"><ele>95.33333333333334</ele><time>2026-04-06T15:28:19.008Z</time></trkpt><trkpt lat="44.0392182" lon="12.160449"><ele>95.66666666666667</ele><time>2026-04-06T15:28:20.007Z</time></trkpt><trkpt lat="44.0393537" lon="12.1606528"><ele>96.0</ele><time>2026-04-06T15:28:21.008Z</time></trkpt><trkpt lat="44.039492" lon="12.1608551"><ele>96.0</ele><time>2026-04-06T15:28:22.01Z</time></trkpt><trkpt lat="44.0396421" lon="12.1610667"><ele>96.0</ele><time>2026-04-06T15:28:23.009Z</time></trkpt><trkpt lat="44.0398044" lon="12.1612884"><ele>96.0</ele><time>2026-04-06T15:28:24.008Z</time></trkpt><trkpt lat="44.0399866" lon="12.1615225"><ele>90.5</ele><time>2026-04-06T15:28:25.008Z</time></trkpt><trkpt lat="44.040187" lon="12.1617726"><ele>85.0</ele><time>2026-04-06T15:28:26.007Z</time></trkpt><trkpt lat="44.0404058" lon="12.1619998"><ele>85.0</ele><time>2026-04-06T15:28:27.008Z</time></trkpt><trkpt lat="44.0406234" lon="12.1622145"><ele>85.0</ele><time>2026-04-06T15:28:28.009Z</time></trkpt><trkpt lat="44.0408295" lon="12.1624217"><ele>85.5</ele><time>2026-04-06T15:28:29.007Z</time></trkpt><trkpt lat="44.0410237" lon="12.1626197"><ele>86.0</ele><time>2026-04-06T15:28:30.011Z</time></trkpt><trkpt lat="44.0412031" lon="12.1627992"><ele>86.0</ele><time>2026-04-06T15:28:31.008Z</time></trkpt><trkpt lat="44.041375" lon="12.162972"><ele>86.0</ele><time>2026-04-06T15:28:32.007Z</time></trkpt><trkpt lat="44.0415483" lon="12.1631326"><ele>86.0</ele><time>2026-04-06T15:28:33.01Z</time></trkpt><trkpt lat="44.0417248" lon="12.1632921"><ele>85.66666666666667</ele><time>2026-04-06T15:28:34.008Z</time></trkpt><trkpt lat="44.041903" lon="12.163464"><ele>85.33333333333333</ele><time>2026-04-06T15:28:35.007Z</time></trkpt><trkpt lat="44.042088" lon="12.1636422"><ele>85.0</ele><time>2026-04-06T15:28:36.008Z</time></trkpt><trkpt lat="44.0422779" lon="12.1638335"><ele>84.5</ele><time>2026-04-06T15:28:37.01Z</time></trkpt><trkpt lat="44.0424698" lon="12.1640401"><ele>84.0</ele><time>2026-04-06T15:28:38.007Z</time></trkpt><trkpt lat="44.0426607" lon="12.1642575"><ele>84.0</ele><time>2026-04-06T15:28:39.01Z</time></trkpt><trkpt lat="44.0428489" lon="12.1644857"><ele>84.0</ele><time>2026-04-06T15:28:40.008Z</time></trkpt><trkpt lat="44.0430284" lon="12.1647312"><ele>83.0</ele><time>2026-04-06T15:28:41.008Z</time></trkpt><trkpt lat="44.0432055" lon="12.1649807"><ele>82.0</ele><time>2026-04-06T15:28:42.009Z</time></trkpt><trkpt lat="44.0433796" lon="12.1652355"><ele>82.0</ele><time>2026-04-06T15:28:43.011Z</time></trkpt><trkpt lat="44.0435579" lon="12.1654852"><ele>82.0</ele><time>2026-04-06T15:28:44.01Z</time></trkpt><trkpt lat="44.0437396" lon="12.1657279"><ele>82.0</ele><time>2026-04-06T15:28:45.008Z</time></trkpt><trkpt lat="44.0439172" lon="12.1659747"><ele>82.0</ele><time>2026-04-06T15:28:46.006Z</time></trkpt><trkpt lat="44.0440886" lon="12.1662184"><ele>82.5</ele><time>2026-04-06T15:28:47.007Z</time></trkpt><trkpt lat="44.0442501" lon="12.1664534"><ele>83.0</ele><time>2026-04-06T15:28:48.006Z</time></trkpt><trkpt lat="44.0444053" lon="12.16667"><ele>81.66666666666667</ele><time>2026-04-06T15:28:49.008Z</time></trkpt><trkpt lat="44.0445607" lon="12.166862"><ele>80.33333333333333</ele><time>2026-04-06T15:28:50.007Z</time></trkpt><trkpt lat="44.044725" lon="12.1670156"><ele>79.0</ele><time>2026-04-06T15:28:51.007Z</time></trkpt><trkpt lat="44.0449007" lon="12.1671281"><ele>81.33333333333333</ele><time>2026-04-06T15:28:52.006Z</time></trkpt><trkpt lat="44.0450919" lon="12.1672119"><ele>83.66666666666667</ele><time>2026-04-06T15:28:53.005Z</time></trkpt><trkpt lat="44.0453043" lon="12.1672738"><ele>86.0</ele><time>2026-04-06T15:28:54.006Z</time></trkpt><trkpt lat="44.0455286" lon="12.1673245"><ele>83.5</ele><time>2026-04-06T15:28:55.01Z</time></trkpt><trkpt lat="44.0457541" lon="12.1673715"><ele>81.0</ele><time>2026-04-06T15:28:56.007Z</time></trkpt><trkpt lat="44.0459764" lon="12.1674207"><ele>80.66666666666667</ele><time>2026-04-06T15:28:57.007Z</time></trkpt><trkpt lat="44.0461914" lon="12.1674673"><ele>80.33333333333334</ele><time>2026-04-06T15:28:58.005Z</time></trkpt><trkpt lat="44.0463957" lon="12.1675161"><ele>80.0</ele><time>2026-04-06T15:28:59.007Z</time></trkpt><trkpt lat="44.0465877" lon="12.1675797"><ele>81.66666666666667</ele><time>2026-04-06T15:29:00.006Z</time></trkpt><trkpt lat="44.0467715" lon="12.1676825"><ele>83.33333333333333</ele><time>2026-04-06T15:29:01.006Z</time></trkpt><trkpt lat="44.0469347" lon="12.167835"><ele>85.0</ele><time>2026-04-06T15:29:02.006Z</time></trkpt><trkpt lat="44.0470832" lon="12.1680194"><ele>82.33333333333333</ele><time>2026-04-06T15:29:03.006Z</time></trkpt><trkpt lat="44.047217" lon="12.168222"><ele>79.66666666666667</ele><time>2026-04-06T15:29:04.007Z</time></trkpt><trkpt lat="44.0473371" lon="12.1684278"><ele>77.0</ele><time>2026-04-06T15:29:05.006Z</time></trkpt><trkpt lat="44.0474493" lon="12.1686367"><ele>77.66666666666667</ele><time>2026-04-06T15:29:06.009Z</time></trkpt><trkpt lat="44.0475551" lon="12.1688619"><ele>78.33333333333333</ele><time>2026-04-06T15:29:07.006Z</time></trkpt><trkpt lat="44.0476519" lon="12.1691101"><ele>79.0</ele><time>2026-04-06T15:29:08.006Z</time></trkpt><trkpt lat="44.0477415" lon="12.1693795"><ele>79.0</ele><time>2026-04-06T15:29:09.007Z</time></trkpt><trkpt lat="44.0478314" lon="12.1696485"><ele>79.0</ele><time>2026-04-06T15:29:10.006Z</time></trkpt><trkpt lat="44.0479182" lon="12.1699087"><ele>79.0</ele><time>2026-04-06T15:29:11.009Z</time></trkpt><trkpt lat="44.0480106" lon="12.1701487"><ele>78.0</ele><time>2026-04-06T15:29:12.006Z</time></trkpt><trkpt lat="44.0480952" lon="12.1703739"><ele>77.0</ele><time>2026-04-06T15:29:13.007Z</time></trkpt><trkpt lat="44.0481727" lon="12.1705867"><ele>76.0</ele><time>2026-04-06T15:29:14.008Z</time></trkpt><trkpt lat="44.0482393" lon="12.1707885"><ele>77.0</ele><time>2026-04-06T15:29:15.007Z</time></trkpt><trkpt lat="44.0482951" lon="12.170982"><ele>78.0</ele><time>2026-04-06T15:29:16.007Z</time></trkpt><trkpt lat="44.0483353" lon="12.1711718"><ele>79.0</ele><time>2026-04-06T15:29:17.006Z</time></trkpt><trkpt lat="44.0483591" lon="12.1713551"><ele>80.0</ele><time>2026-04-06T15:29:18.006Z</time></trkpt><trkpt lat="44.0483688" lon="12.1715299"><ele>80.0</ele><time>2026-04-06T15:29:19.007Z</time></trkpt><trkpt lat="44.0483788" lon="12.1716895"><ele>80.0</ele><time>2026-04-06T15:29:20.007Z</time></trkpt><trkpt lat="44.0483916" lon="12.1718413"><ele>80.0</ele><time>2026-04-06T15:29:21.01Z</time></trkpt><trkpt lat="44.0484091" lon="12.1719888"><ele>80.0</ele><time>2026-04-06T15:29:22.006Z</time></trkpt><trkpt lat="44.048435" lon="12.17214"><ele>80.0</ele><time>2026-04-06T15:29:23.008Z</time></trkpt><trkpt lat="44.0484788" lon="12.1722868"><ele>80.0</ele><time>2026-04-06T15:29:24.009Z</time></trkpt><trkpt lat="44.048543" lon="12.1724212"><ele>80.0</ele><time>2026-04-06T15:29:25.006Z</time></trkpt><trkpt lat="44.0486222" lon="12.1725443"><ele>80.0</ele><time>2026-04-06T15:29:26.008Z</time></trkpt><trkpt lat="44.0487201" lon="12.1726527"><ele>80.0</ele><time>2026-04-06T15:29:27.005Z</time></trkpt><trkpt lat="44.048835" lon="12.1727558"><ele>80.0</ele><time>2026-04-06T15:29:28.006Z</time></trkpt><trkpt lat="44.0489565" lon="12.1728635"><ele>80.0</ele><time>2026-04-06T15:29:29.006Z</time></trkpt><trkpt lat="44.0490793" lon="12.1729738"><ele>80.0</ele><time>2026-04-06T15:29:30.007Z</time></trkpt><trkpt lat="44.0491972" lon="12.1730881"><ele>80.0</ele><time>2026-04-06T15:29:31.007Z</time></trkpt><trkpt lat="44.0493104" lon="12.1731936"><ele>79.75</ele><time>2026-04-06T15:29:32.011Z</time></trkpt><trkpt lat="44.0494153" lon="12.1732936"><ele>79.5</ele><time>2026-04-06T15:29:33.006Z</time></trkpt><trkpt lat="44.0495249" lon="12.1733869"><ele>79.25</ele><time>2026-04-06T15:29:34.008Z</time></trkpt><trkpt lat="44.0496362" lon="12.1734671"><ele>79.0</ele><time>2026-04-06T15:29:35.008Z</time></trkpt><trkpt lat="44.0497481" lon="12.1735331"><ele>79.0</ele><time>2026-04-06T15:29:36.006Z</time></trkpt><trkpt lat="44.0498668" lon="12.173581"><ele>79.0</ele><time>2026-04-06T15:29:37.006Z</time></trkpt><trkpt lat="44.0499967" lon="12.1736123"><ele>79.0</ele><time>2026-04-06T15:29:38.007Z</time></trkpt><trkpt lat="44.0501405" lon="12.1736424"><ele>79.0</ele><time>2026-04-06T15:29:39.01Z</time></trkpt><trkpt lat="44.0502889" lon="12.1736766"><ele>78.75</ele><time>2026-04-06T15:29:40.007Z</time></trkpt><trkpt lat="44.0504327" lon="12.1737133"><ele>78.5</ele><time>2026-04-06T15:29:41.006Z</time></trkpt><trkpt lat="44.0505643" lon="12.1737567"><ele>78.25</ele><time>2026-04-06T15:29:42.006Z</time></trkpt><trkpt lat="44.0506871" lon="12.1738153"><ele>78.0</ele><time>2026-04-06T15:29:43.006Z</time></trkpt><trkpt lat="44.0507993" lon="12.1739166"><ele>77.0</ele><time>2026-04-06T15:29:44.011Z</time></trkpt><trkpt lat="44.0508971" lon="12.1740598"><ele>76.0</ele><time>2026-04-06T15:29:45.008Z</time></trkpt><trkpt lat="44.0509852" lon="12.174215"><ele>75.0</ele><time>2026-04-06T15:29:46.007Z</time></trkpt><trkpt lat="44.0510738" lon="12.1743757"><ele>74.0</ele><time>2026-04-06T15:29:47.006Z</time></trkpt><trkpt lat="44.0511631" lon="12.1745388"><ele>74.0</ele><time>2026-04-06T15:29:48.007Z</time></trkpt><trkpt lat="44.0512484" lon="12.1747053"><ele>74.0</ele><time>2026-04-06T15:29:49.008Z</time></trkpt><trkpt lat="44.0513379" lon="12.1748682"><ele>74.0</ele><time>2026-04-06T15:29:50.007Z</time></trkpt><trkpt lat="44.0514245" lon="12.1750213"><ele>74.0</ele><time>2026-04-06T15:29:51.006Z</time></trkpt><trkpt lat="44.051501" lon="12.175161"><ele>73.83333333333334</ele><time>2026-04-06T15:29:52.006Z</time></trkpt><trkpt lat="44.0515722" lon="12.1752868"><ele>73.66666666666667</ele><time>2026-04-06T15:29:53.004Z</time></trkpt><trkpt lat="44.0516301" lon="12.1753992"><ele>73.5</ele><time>2026-04-06T15:29:54.007Z</time></trkpt><trkpt lat="44.0516759" lon="12.1755014"><ele>73.33333333333333</ele><time>2026-04-06T15:29:55.009Z</time></trkpt><trkpt lat="44.0517103" lon="12.1755978"><ele>73.16666666666666</ele><time>2026-04-06T15:29:56.007Z</time></trkpt><trkpt lat="44.0517085" lon="12.1756917"><ele>73.0</ele><time>2026-04-06T15:29:57.009Z</time></trkpt><trkpt lat="44.0516969" lon="12.1757852"><ele>72.8</ele><time>2026-04-06T15:29:58.008Z</time></trkpt><trkpt lat="44.0517326" lon="12.1759433"><ele>72.6</ele><time>2026-04-06T15:30:00.007Z</time></trkpt><trkpt lat="44.0517888" lon="12.1760143"><ele>72.4</ele><time>2026-04-06T15:30:01.007Z</time></trkpt><trkpt lat="44.0518527" lon="12.1760923"><ele>72.2</ele><time>2026-04-06T15:30:02.006Z</time></trkpt><trkpt lat="44.0519297" lon="12.1761819"><ele>72.0</ele><time>2026-04-06T15:30:03.007Z</time></trkpt><trkpt lat="44.0519962" lon="12.1762781"><ele>72.0</ele><time>2026-04-06T15:30:04.007Z</time></trkpt><trkpt lat="44.0520648" lon="12.1763615"><ele>72.0</ele><time>2026-04-06T15:30:05.007Z</time></trkpt><trkpt lat="44.0521254" lon="12.176438"><ele>72.0</ele><time>2026-04-06T15:30:06.008Z</time></trkpt><trkpt lat="44.0521755" lon="12.1765138"><ele>72.0</ele><time>2026-04-06T15:30:07.006Z</time></trkpt><trkpt lat="44.0522525" lon="12.1766311"><ele>72.0</ele><time>2026-04-06T15:30:09.006Z</time></trkpt><trkpt lat="44.0523381" lon="12.176669"><ele>72.0</ele><time>2026-04-06T15:30:11.006Z</time></trkpt><trkpt lat="44.052404" lon="12.1766214"><ele>72.0</ele><time>2026-04-06T15:30:12.005Z</time></trkpt><trkpt lat="44.0524749" lon="12.1765412"><ele>72.0</ele><time>2026-04-06T15:30:13.005Z</time></trkpt><trkpt lat="44.0525551" lon="12.1764643"><ele>72.0</ele><time>2026-04-06T15:30:14.009Z</time></trkpt><trkpt lat="44.0526429" lon="12.1763778"><ele>72.0</ele><time>2026-04-06T15:30:15.008Z</time></trkpt><trkpt lat="44.0527235" lon="12.1762812"><ele>72.33333333333333</ele><time>2026-04-06T15:30:16.005Z</time></trkpt><trkpt lat="44.0527962" lon="12.176193"><ele>72.66666666666667</ele><time>2026-04-06T15:30:17.007Z</time></trkpt><trkpt lat="44.0528568" lon="12.1761232"><ele>73.0</ele><time>2026-04-06T15:30:18.008Z</time></trkpt><trkpt lat="44.0529108" lon="12.1760619"><ele>73.33333333333334</ele><time>2026-04-06T15:30:19.011Z</time></trkpt><trkpt lat="44.0529759" lon="12.1759719"><ele>73.66666666666667</ele><time>2026-04-06T15:30:21.009Z</time></trkpt><trkpt lat="44.0528996" lon="12.1760134"><ele>74.0</ele><time>2026-04-06T15:30:27.009Z</time></trkpt><trkpt lat="44.0528473" lon="12.1761165"><ele>74.0</ele><time>2026-04-06T15:30:28.005Z</time></trkpt><trkpt lat="44.0527552" lon="12.1762179"><ele>74.0</ele><time>2026-04-06T15:30:29.005Z</time></trkpt><trkpt lat="44.0526671" lon="12.1763108"><ele>74.0</ele><time>2026-04-06T15:30:30.01Z</time></trkpt><trkpt lat="44.0526005" lon="12.1763759"><ele>74.0</ele><time>2026-04-06T15:30:31.006Z</time></trkpt><trkpt lat="44.0525247" lon="12.1764344"><ele>74.0</ele><time>2026-04-06T15:30:33.008Z</time></trkpt></trkseg><trkseg><trkpt lat="44.0524434" lon="12.1764982"><ele>72.0</ele><time>2026-04-06T15:51:44.009Z</time></trkpt><trkpt lat="44.0523585" lon="12.1765579"><ele>72.0</ele><time>2026-04-06T15:51:46.009Z</time></trkpt><trkpt lat="44.0522604" lon="12.176562"><ele>72.0</ele><time>2026-04-06T15:52:05.007Z</time></trkpt><trkpt lat="44.0521936" lon="12.1764727"><ele>72.0</ele><time>2026-04-06T15:52:06.01Z</time></trkpt><trkpt lat="44.0520991" lon="12.17633"><ele>72.0</ele><time>2026-04-06T15:52:07.009Z</time></trkpt><trkpt lat="44.0520179" lon="12.1762055"><ele>72.0</ele><time>2026-04-06T15:52:08.009Z</time></trkpt><trkpt lat="44.0519562" lon="12.1761139"><ele>72.0</ele><time>2026-04-06T15:52:09.009Z</time></trkpt><trkpt lat="44.0519064" lon="12.1760423"><ele>72.0</ele><time>2026-04-06T15:52:10.009Z</time></trkpt><trkpt lat="44.0518325" lon="12.175943"><ele>72.0</ele><time>2026-04-06T15:52:12.006Z</time></trkpt><trkpt lat="44.0518737" lon="12.1760564"><ele>72.0</ele><time>2026-04-06T15:52:20.008Z</time></trkpt><trkpt lat="44.0519458" lon="12.1761605"><ele>72.0</ele><time>2026-04-06T15:52:21.009Z</time></trkpt><trkpt lat="44.0520296" lon="12.1762925"><ele>72.0</ele><time>2026-04-06T15:52:22.009Z</time></trkpt><trkpt lat="44.052138" lon="12.1764612"><ele>72.0</ele><time>2026-04-06T15:52:23.005Z</time></trkpt><trkpt lat="44.0522545" lon="12.1766565"><ele>72.0</ele><time>2026-04-06T15:52:24.013Z</time></trkpt><trkpt lat="44.052373" lon="12.176866"><ele>72.0</ele><time>2026-04-06T15:52:25.008Z</time></trkpt><trkpt lat="44.0524764" lon="12.1770695"><ele>72.0</ele><time>2026-04-06T15:52:26.006Z</time></trkpt><trkpt lat="44.0525677" lon="12.1772478"><ele>71.75</ele><time>2026-04-06T15:52:27.007Z</time></trkpt><trkpt lat="44.0526493" lon="12.1774041"><ele>71.5</ele><time>2026-04-06T15:52:28.007Z</time></trkpt><trkpt lat="44.0527486" lon="12.1775327"><ele>71.25</ele><time>2026-04-06T15:52:29.007Z</time></trkpt><trkpt lat="44.052855" lon="12.177652"><ele>71.0</ele><time>2026-04-06T15:52:30.011Z</time></trkpt><trkpt lat="44.0529584" lon="12.1777551"><ele>71.0</ele><time>2026-04-06T15:52:31.011Z</time></trkpt><trkpt lat="44.0530598" lon="12.1778457"><ele>71.0</ele><time>2026-04-06T15:52:32.008Z</time></trkpt><trkpt lat="44.0531671" lon="12.1779343"><ele>71.0</ele><time>2026-04-06T15:52:33.008Z</time></trkpt><trkpt lat="44.0532825" lon="12.1780228"><ele>71.0</ele><time>2026-04-06T15:52:34.007Z</time></trkpt><trkpt lat="44.0534174" lon="12.1781475"><ele>72.0</ele><time>2026-04-06T15:52:35.007Z</time></trkpt><trkpt lat="44.0535641" lon="12.1782696"><ele>73.0</ele><time>2026-04-06T15:52:36.008Z</time></trkpt><trkpt lat="44.0537203" lon="12.1783962"><ele>74.0</ele><time>2026-04-06T15:52:37.008Z</time></trkpt><trkpt lat="44.0538779" lon="12.1785217"><ele>74.0</ele><time>2026-04-06T15:52:38.012Z</time></trkpt><trkpt lat="44.0540208" lon="12.178645"><ele>74.0</ele><time>2026-04-06T15:52:39.009Z</time></trkpt><trkpt lat="44.054159" lon="12.178764"><ele>74.0</ele><time>2026-04-06T15:52:40.006Z</time></trkpt><trkpt lat="44.0542947" lon="12.1788757"><ele>74.0</ele><time>2026-04-06T15:52:41.008Z</time></trkpt><trkpt lat="44.0544181" lon="12.178976"><ele>74.0</ele><time>2026-04-06T15:52:42.007Z</time></trkpt><trkpt lat="44.0545396" lon="12.1790785"><ele>74.0</ele><time>2026-04-06T15:52:43.009Z</time></trkpt><trkpt lat="44.054675" lon="12.1791883"><ele>74.0</ele><time>2026-04-06T15:52:44.013Z</time></trkpt><trkpt lat="44.05482" lon="12.1793083"><ele>76.33333333333334</ele><time>2026-04-06T15:52:45.007Z</time></trkpt><trkpt lat="44.0549667" lon="12.17943"><ele>78.66666666666667</ele><time>2026-04-06T15:52:46.005Z</time></trkpt><trkpt lat="44.05511" lon="12.179545"><ele>81.0</ele><time>2026-04-06T15:52:47.009Z</time></trkpt><trkpt lat="44.0552383" lon="12.1796367"><ele>81.0</ele><time>2026-04-06T15:52:48.006Z</time></trkpt><trkpt lat="44.0553433" lon="12.1797067"><ele>81.0</ele><time>2026-04-06T15:52:49.009Z</time></trkpt><trkpt lat="44.0554233" lon="12.179755"><ele>81.0</ele><time>2026-04-06T15:52:50.007Z</time></trkpt><trkpt lat="44.055495" lon="12.1797917"><ele>81.0</ele><time>2026-04-06T15:52:51.012Z</time></trkpt><trkpt lat="44.0555533" lon="12.179755"><ele>81.0</ele><time>2026-04-06T15:52:53.01Z</time></trkpt><trkpt lat="44.05553" lon="12.17966"><ele>81.0</ele><time>2026-04-06T15:52:56.008Z</time></trkpt><trkpt lat="44.0554633" lon="12.1795667"><ele>81.0</ele><time>2026-04-06T15:53:28.013Z</time></trkpt><trkpt lat="44.0554533" lon="12.179465"><ele>81.0</ele><time>2026-04-06T15:53:30.009Z</time></trkpt><trkpt lat="44.05553" lon="12.179375"><ele>81.0</ele><time>2026-04-06T15:53:32.012Z</time></trkpt><trkpt lat="44.0555933" lon="12.1793383"><ele>81.0</ele><time>2026-04-06T15:53:33.009Z</time></trkpt><trkpt lat="44.05567" lon="12.1792867"><ele>81.0</ele><time>2026-04-06T15:53:34.008Z</time></trkpt><trkpt lat="44.0557467" lon="12.1792217"><ele>81.0</ele><time>2026-04-06T15:53:35.008Z</time></trkpt><trkpt lat="44.0558136" lon="12.1791481"><ele>81.8</ele><time>2026-04-06T15:53:36.008Z</time></trkpt><trkpt lat="44.0558658" lon="12.1790778"><ele>82.6</ele><time>2026-04-06T15:53:37.01Z</time></trkpt><trkpt lat="44.0558964" lon="12.1789178"><ele>83.4</ele><time>2026-04-06T15:53:39.011Z</time></trkpt><trkpt lat="44.0558645" lon="12.1787875"><ele>84.2</ele><time>2026-04-06T15:53:40.011Z</time></trkpt><trkpt lat="44.0558133" lon="12.1786227"><ele>85.0</ele><time>2026-04-06T15:53:41.009Z</time></trkpt><trkpt lat="44.0557312" lon="12.1784146"><ele>85.66666666666666</ele><time>2026-04-06T15:53:42.008Z</time></trkpt><trkpt lat="44.0556452" lon="12.1781903"><ele>86.33333333333333</ele><time>2026-04-06T15:53:43.009Z</time></trkpt><trkpt lat="44.055559" lon="12.1779567"><ele>87.0</ele><time>2026-04-06T15:53:44.01Z</time></trkpt><trkpt lat="44.0554757" lon="12.1777263"><ele>89.0</ele><time>2026-04-06T15:53:45.009Z</time></trkpt><trkpt lat="44.0553997" lon="12.1775047"><ele>91.0</ele><time>2026-04-06T15:53:46.009Z</time></trkpt><trkpt lat="44.0553227" lon="12.1772788"><ele>93.0</ele><time>2026-04-06T15:53:47.008Z</time></trkpt><trkpt lat="44.0552415" lon="12.177046"><ele>95.25</ele><time>2026-04-06T15:53:48.008Z</time></trkpt><trkpt lat="44.0551679" lon="12.1768276"><ele>97.5</ele><time>2026-04-06T15:53:49.014Z</time></trkpt><trkpt lat="44.0551035" lon="12.1766476"><ele>99.75</ele><time>2026-04-06T15:53:50.01Z</time></trkpt><trkpt lat="44.0550511" lon="12.1764999"><ele>102.0</ele><time>2026-04-06T15:53:51.01Z</time></trkpt><trkpt lat="44.0550186" lon="12.176382"><ele>104.0</ele><time>2026-04-06T15:53:52.009Z</time></trkpt><trkpt lat="44.0550048" lon="12.1762779"><ele>106.0</ele><time>2026-04-06T15:53:53.01Z</time></trkpt><trkpt lat="44.0550085" lon="12.1761886"><ele>107.99999999999999</ele><time>2026-04-06T15:53:54.01Z</time></trkpt><trkpt lat="44.055081" lon="12.1761053"><ele>110.0</ele><time>2026-04-06T15:53:56.01Z</time></trkpt><trkpt lat="44.0552164" lon="12.1761807"><ele>112.0</ele><time>2026-04-06T15:53:58.009Z</time></trkpt><trkpt lat="44.0552908" lon="12.176273"><ele>112.0</ele><time>2026-04-06T15:53:59.009Z</time></trkpt><trkpt lat="44.0553817" lon="12.1764107"><ele>112.0</ele><time>2026-04-06T15:54:00.009Z</time></trkpt><trkpt lat="44.0554841" lon="12.1765367"><ele>112.0</ele><time>2026-04-06T15:54:01.008Z</time></trkpt><trkpt lat="44.0555845" lon="12.1766387"><ele>112.0</ele><time>2026-04-06T15:54:02.014Z</time></trkpt><trkpt lat="44.0556598" lon="12.1766795"><ele>112.5</ele><time>2026-04-06T15:54:03.008Z</time></trkpt><trkpt lat="44.055764" lon="12.1766182"><ele>113.0</ele><time>2026-04-06T15:54:05.009Z</time></trkpt><trkpt lat="44.0557921" lon="12.1765227"><ele>113.5</ele><time>2026-04-06T15:54:06.009Z</time></trkpt><trkpt lat="44.0558053" lon="12.1763811"><ele>114.0</ele><time>2026-04-06T15:54:07.011Z</time></trkpt><trkpt lat="44.0557901" lon="12.1761436"><ele>113.33333333333334</ele><time>2026-04-06T15:54:08.01Z</time></trkpt><trkpt lat="44.0557688" lon="12.1758805"><ele>112.66666666666667</ele><time>2026-04-06T15:54:09.008Z</time></trkpt><trkpt lat="44.0557579" lon="12.175658"><ele>112.0</ele><time>2026-04-06T15:54:10.01Z</time></trkpt><trkpt lat="44.0557431" lon="12.1754617"><ele>114.5</ele><time>2026-04-06T15:54:11.012Z</time></trkpt><trkpt lat="44.0557142" lon="12.1752853"><ele>117.0</ele><time>2026-04-06T15:54:12.01Z</time></trkpt><trkpt lat="44.0556549" lon="12.1751163"><ele>119.5</ele><time>2026-04-06T15:54:13.009Z</time></trkpt><trkpt lat="44.0555637" lon="12.1749607"><ele>122.0</ele><time>2026-04-06T15:54:14.008Z</time></trkpt><trkpt lat="44.0554457" lon="12.1748082"><ele>124.25</ele><time>2026-04-06T15:54:15.01Z</time></trkpt><trkpt lat="44.0553272" lon="12.1746606"><ele>126.5</ele><time>2026-04-06T15:54:16.011Z</time></trkpt><trkpt lat="44.0552401" lon="12.1745265"><ele>128.75</ele><time>2026-04-06T15:54:17.009Z</time></trkpt><trkpt lat="44.0551856" lon="12.1744032"><ele>131.0</ele><time>2026-04-06T15:54:18.009Z</time></trkpt><trkpt lat="44.0551695" lon="12.174293"><ele>131.0</ele><time>2026-04-06T15:54:19.008Z</time></trkpt><trkpt lat="44.055174" lon="12.1741858"><ele>131.0</ele><time>2026-04-06T15:54:20.01Z</time></trkpt><trkpt lat="44.0551924" lon="12.1740625"><ele>131.0</ele><time>2026-04-06T15:54:21.014Z</time></trkpt><trkpt lat="44.0552395" lon="12.1739214"><ele>131.0</ele><time>2026-04-06T15:54:22.009Z</time></trkpt><trkpt lat="44.0553105" lon="12.1737786"><ele>131.0</ele><time>2026-04-06T15:54:23.008Z</time></trkpt><trkpt lat="44.0553878" lon="12.173652"><ele>133.25</ele><time>2026-04-06T15:54:24.011Z</time></trkpt><trkpt lat="44.0554806" lon="12.1735499"><ele>135.5</ele><time>2026-04-06T15:54:25.01Z</time></trkpt><trkpt lat="44.0556" lon="12.173474"><ele>137.75</ele><time>2026-04-06T15:54:26.009Z</time></trkpt><trkpt lat="44.0557334" lon="12.1734174"><ele>140.0</ele><time>2026-04-06T15:54:27.01Z</time></trkpt><trkpt lat="44.0558668" lon="12.1733841"><ele>140.8</ele><time>2026-04-06T15:54:28.008Z</time></trkpt><trkpt lat="44.0559941" lon="12.1733557"><ele>141.6</ele><time>2026-04-06T15:54:29.007Z</time></trkpt><trkpt lat="44.0561098" lon="12.1733188"><ele>142.4</ele><time>2026-04-06T15:54:30.01Z</time></trkpt><trkpt lat="44.0562103" lon="12.1732626"><ele>143.2</ele><time>2026-04-06T15:54:31.009Z</time></trkpt><trkpt lat="44.0562767" lon="12.1731816"><ele>144.0</ele><time>2026-04-06T15:54:32.009Z</time></trkpt><trkpt lat="44.0563184" lon="12.1730929"><ele>146.4</ele><time>2026-04-06T15:54:33.01Z</time></trkpt><trkpt lat="44.0563024" lon="12.1729975"><ele>148.8</ele><time>2026-04-06T15:54:34.013Z</time></trkpt><trkpt lat="44.0562651" lon="12.1729002"><ele>151.2</ele><time>2026-04-06T15:54:35.009Z</time></trkpt><trkpt lat="44.05621" lon="12.1728069"><ele>153.6</ele><time>2026-04-06T15:54:36.008Z</time></trkpt><trkpt lat="44.0561039" lon="12.1727041"><ele>156.0</ele><time>2026-04-06T15:54:37.008Z</time></trkpt><trkpt lat="44.055968" lon="12.1725952"><ele>156.0</ele><time>2026-04-06T15:54:38.009Z</time></trkpt><trkpt lat="44.0558288" lon="12.1724772"><ele>156.0</ele><time>2026-04-06T15:54:39.011Z</time></trkpt><trkpt lat="44.0557088" lon="12.1723603"><ele>156.0</ele><time>2026-04-06T15:54:40.008Z</time></trkpt><trkpt lat="44.0556157" lon="12.1722534"><ele>156.0</ele><time>2026-04-06T15:54:41.014Z</time></trkpt><trkpt lat="44.0555544" lon="12.1721492"><ele>155.33333333333334</ele><time>2026-04-06T15:54:42.009Z</time></trkpt><trkpt lat="44.0555154" lon="12.1720465"><ele>154.66666666666666</ele><time>2026-04-06T15:54:43.009Z</time></trkpt><trkpt lat="44.0554979" lon="12.1719417"><ele>154.0</ele><time>2026-04-06T15:54:44.009Z</time></trkpt><trkpt lat="44.0555042" lon="12.1718471"><ele>153.33333333333331</ele><time>2026-04-06T15:54:45.009Z</time></trkpt><trkpt lat="44.0555391" lon="12.1717722"><ele>152.66666666666666</ele><time>2026-04-06T15:54:46.011Z</time></trkpt><trkpt lat="44.0556141" lon="12.1717683"><ele>152.0</ele><time>2026-04-06T15:54:47.012Z</time></trkpt><trkpt lat="44.0557036" lon="12.1717792"><ele>155.6</ele><time>2026-04-06T15:54:48.008Z</time></trkpt><trkpt lat="44.0557935" lon="12.1717768"><ele>159.2</ele><time>2026-04-06T15:54:49.01Z</time></trkpt><trkpt lat="44.0558847" lon="12.1717518"><ele>162.8</ele><time>2026-04-06T15:54:50.011Z</time></trkpt><trkpt lat="44.0559772" lon="12.171683"><ele>166.4</ele><time>2026-04-06T15:54:51.009Z</time></trkpt><trkpt lat="44.0560631" lon="12.1715501"><ele>170.0</ele><time>2026-04-06T15:54:52.009Z</time></trkpt><trkpt lat="44.0561317" lon="12.1713913"><ele>172.0</ele><time>2026-04-06T15:54:53.01Z</time></trkpt><trkpt lat="44.056184" lon="12.1712181"><ele>174.0</ele><time>2026-04-06T15:54:54.009Z</time></trkpt><trkpt lat="44.056223" lon="12.1710083"><ele>176.0</ele><time>2026-04-06T15:54:55.009Z</time></trkpt><trkpt lat="44.0562533" lon="12.170764"><ele>175.33333333333331</ele><time>2026-04-06T15:54:56.008Z</time></trkpt><trkpt lat="44.0562924" lon="12.1705039"><ele>174.66666666666666</ele><time>2026-04-06T15:54:57.008Z</time></trkpt><trkpt lat="44.0563426" lon="12.1702434"><ele>174.0</ele><time>2026-04-06T15:54:58.01Z</time></trkpt><trkpt lat="44.0564001" lon="12.1699864"><ele>172.66666666666666</ele><time>2026-04-06T15:54:59.008Z</time></trkpt><trkpt lat="44.0564561" lon="12.1697316"><ele>171.33333333333331</ele><time>2026-04-06T15:55:00.015Z</time></trkpt><trkpt lat="44.056507" lon="12.1694757"><ele>170.0</ele><time>2026-04-06T15:55:01.008Z</time></trkpt><trkpt lat="44.0565644" lon="12.1692158"><ele>178.0</ele><time>2026-04-06T15:55:02.008Z</time></trkpt><trkpt lat="44.0566303" lon="12.1689559"><ele>186.0</ele><time>2026-04-06T15:55:03.011Z</time></trkpt><trkpt lat="44.0567024" lon="12.1687071"><ele>194.0</ele><time>2026-04-06T15:55:04.009Z</time></trkpt><trkpt lat="44.0567819" lon="12.1684739"><ele>194.0</ele><time>2026-04-06T15:55:05.01Z</time></trkpt><trkpt lat="44.0568633" lon="12.1682585"><ele>194.0</ele><time>2026-04-06T15:55:06.008Z</time></trkpt><trkpt lat="44.0569437" lon="12.1680461"><ele>194.0</ele><time>2026-04-06T15:55:07.008Z</time></trkpt><trkpt lat="44.0570224" lon="12.1678252"><ele>194.33333333333334</ele><time>2026-04-06T15:55:08.009Z</time></trkpt><trkpt lat="44.0570991" lon="12.1675923"><ele>194.66666666666669</ele><time>2026-04-06T15:55:09.009Z</time></trkpt><trkpt lat="44.0571716" lon="12.1673526"><ele>195.0</ele><time>2026-04-06T15:55:10.012Z</time></trkpt><trkpt lat="44.0572372" lon="12.1671149"><ele>195.66666666666669</ele><time>2026-04-06T15:55:11.009Z</time></trkpt><trkpt lat="44.0573014" lon="12.1668831"><ele>196.33333333333334</ele><time>2026-04-06T15:55:12.01Z</time></trkpt><trkpt lat="44.0573698" lon="12.1666714"><ele>197.0</ele><time>2026-04-06T15:55:13.01Z</time></trkpt><trkpt lat="44.0574417" lon="12.1664759"><ele>201.5</ele><time>2026-04-06T15:55:14.009Z</time></trkpt><trkpt lat="44.0575153" lon="12.1662997"><ele>206.0</ele><time>2026-04-06T15:55:15.011Z</time></trkpt><trkpt lat="44.0575802" lon="12.1661521"><ele>210.5</ele><time>2026-04-06T15:55:16.01Z</time></trkpt><trkpt lat="44.0576267" lon="12.1660304"><ele>215.0</ele><time>2026-04-06T15:55:17.013Z</time></trkpt><trkpt lat="44.0576575" lon="12.1659256"><ele>215.0</ele><time>2026-04-06T15:55:18.008Z</time></trkpt><trkpt lat="44.0576495" lon="12.1657816"><ele>215.0</ele><time>2026-04-06T15:55:20.008Z</time></trkpt><trkpt lat="44.05753" lon="12.1657863"><ele>215.0</ele><time>2026-04-06T15:55:22.012Z</time></trkpt><trkpt lat="44.0574654" lon="12.1658462"><ele>215.0</ele><time>2026-04-06T15:55:23.008Z</time></trkpt><trkpt lat="44.0574048" lon="12.1659327"><ele>215.0</ele><time>2026-04-06T15:55:24.012Z</time></trkpt><trkpt lat="44.0573445" lon="12.1660025"><ele>214.0</ele><time>2026-04-06T15:55:25.01Z</time></trkpt><trkpt lat="44.0572358" lon="12.166013"><ele>213.0</ele><time>2026-04-06T15:55:27.008Z</time></trkpt><trkpt lat="44.0571839" lon="12.1658348"><ele>212.0</ele><time>2026-04-06T15:55:29.009Z</time></trkpt><trkpt lat="44.0571731" lon="12.1656996"><ele>211.0</ele><time>2026-04-06T15:55:30.011Z</time></trkpt><trkpt lat="44.0571756" lon="12.1655075"><ele>214.0</ele><time>2026-04-06T15:55:31.009Z</time></trkpt><trkpt lat="44.0571783" lon="12.165302"><ele>217.0</ele><time>2026-04-06T15:55:32.009Z</time></trkpt><trkpt lat="44.0571783" lon="12.1651015"><ele>220.0</ele><time>2026-04-06T15:55:33.013Z</time></trkpt><trkpt lat="44.0571631" lon="12.1649066"><ele>223.0</ele><time>2026-04-06T15:55:34.009Z</time></trkpt><trkpt lat="44.0571275" lon="12.1647232"><ele>225.0</ele><time>2026-04-06T15:55:35.011Z</time></trkpt><trkpt lat="44.0570693" lon="12.1645533"><ele>227.0</ele><time>2026-04-06T15:55:36.01Z</time></trkpt><trkpt lat="44.0569812" lon="12.1644024"><ele>229.0</ele><time>2026-04-06T15:55:37.01Z</time></trkpt><trkpt lat="44.0568809" lon="12.1642683"><ele>231.0</ele><time>2026-04-06T15:55:38.01Z</time></trkpt><trkpt lat="44.0567885" lon="12.1641361"><ele>234.0</ele><time>2026-04-06T15:55:39.015Z</time></trkpt><trkpt lat="44.0567225" lon="12.1639897"><ele>237.0</ele><time>2026-04-06T15:55:40.009Z</time></trkpt><trkpt lat="44.0566862" lon="12.1638179"><ele>240.0</ele><time>2026-04-06T15:55:41.009Z</time></trkpt><trkpt lat="44.0566744" lon="12.1636225"><ele>243.0</ele><time>2026-04-06T15:55:42.008Z</time></trkpt><trkpt lat="44.0566767" lon="12.1634156"><ele>243.0</ele><time>2026-04-06T15:55:43.01Z</time></trkpt><trkpt lat="44.0566822" lon="12.1631992"><ele>243.0</ele><time>2026-04-06T15:55:44.013Z</time></trkpt><trkpt lat="44.0566886" lon="12.1629847"><ele>243.0</ele><time>2026-04-06T15:55:45.01Z</time></trkpt><trkpt lat="44.0566893" lon="12.1627738"><ele>245.33333333333331</ele><time>2026-04-06T15:55:46.012Z</time></trkpt><trkpt lat="44.0566796" lon="12.1625644"><ele>247.66666666666666</ele><time>2026-04-06T15:55:47.011Z</time></trkpt><trkpt lat="44.0566537" lon="12.1623557"><ele>250.0</ele><time>2026-04-06T15:55:48.008Z</time></trkpt><trkpt lat="44.0566143" lon="12.1621428"><ele>260.3333333333333</ele><time>2026-04-06T15:55:49.009Z</time></trkpt><trkpt lat="44.0565728" lon="12.161922"><ele>270.6666666666667</ele><time>2026-04-06T15:55:50.009Z</time></trkpt><trkpt lat="44.05654" lon="12.1617069"><ele>281.0</ele><time>2026-04-06T15:55:51.009Z</time></trkpt><trkpt lat="44.0565235" lon="12.1615099"><ele>282.2</ele><time>2026-04-06T15:55:52.009Z</time></trkpt><trkpt lat="44.0565238" lon="12.1613402"><ele>283.40000000000003</ele><time>2026-04-06T15:55:53.008Z</time></trkpt><trkpt lat="44.0565355" lon="12.1611954"><ele>284.6</ele><time>2026-04-06T15:55:54.008Z</time></trkpt><trkpt lat="44.0565393" lon="12.1610769"><ele>285.8</ele><time>2026-04-06T15:55:55.014Z</time></trkpt><trkpt lat="44.0565333" lon="12.1609735"><ele>287.0</ele><time>2026-04-06T15:55:56.008Z</time></trkpt><trkpt lat="44.0564649" lon="12.1608908"><ele>287.0</ele><time>2026-04-06T15:55:58.009Z</time></trkpt><trkpt lat="44.0563532" lon="12.1609521"><ele>287.0</ele><time>2026-04-06T15:56:00.012Z</time></trkpt><trkpt lat="44.0562788" lon="12.1610577"><ele>287.0</ele><time>2026-04-06T15:56:01.008Z</time></trkpt><trkpt lat="44.0561974" lon="12.1612094"><ele>287.0</ele><time>2026-04-06T15:56:02.012Z</time></trkpt><trkpt lat="44.0561046" lon="12.1613897"><ele>285.0</ele><time>2026-04-06T15:56:03.009Z</time></trkpt><trkpt lat="44.0559967" lon="12.1615886"><ele>283.0</ele><time>2026-04-06T15:56:04.012Z</time></trkpt><trkpt lat="44.0558898" lon="12.1617844"><ele>281.0</ele><time>2026-04-06T15:56:05.008Z</time></trkpt><trkpt lat="44.0557973" lon="12.1619544"><ele>282.5</ele><time>2026-04-06T15:56:06.009Z</time></trkpt><trkpt lat="44.0557141" lon="12.1620868"><ele>284.0</ele><time>2026-04-06T15:56:07.01Z</time></trkpt><trkpt lat="44.0556385" lon="12.162176"><ele>285.5</ele><time>2026-04-06T15:56:08.008Z</time></trkpt><trkpt lat="44.0555705" lon="12.16223"><ele>287.0</ele><time>2026-04-06T15:56:09.008Z</time></trkpt><trkpt lat="44.0555058" lon="12.1622501"><ele>288.5</ele><time>2026-04-06T15:56:10.009Z</time></trkpt><trkpt lat="44.0554328" lon="12.1622309"><ele>290.0</ele><time>2026-04-06T15:56:11.008Z</time></trkpt><trkpt lat="44.0553551" lon="12.162155"><ele>290.0</ele><time>2026-04-06T15:56:12.008Z</time></trkpt><trkpt lat="44.055279" lon="12.1620478"><ele>290.0</ele><time>2026-04-06T15:56:13.011Z</time></trkpt><trkpt lat="44.0552113" lon="12.1619266"><ele>290.0</ele><time>2026-04-06T15:56:14.009Z</time></trkpt><trkpt lat="44.0551591" lon="12.1618132"><ele>290.0</ele><time>2026-04-06T15:56:15.012Z</time></trkpt><trkpt lat="44.0551209" lon="12.1617122"><ele>290.0</ele><time>2026-04-06T15:56:16.007Z</time></trkpt><trkpt lat="44.0551027" lon="12.1616162"><ele>291.6</ele><time>2026-04-06T15:56:17.009Z</time></trkpt><trkpt lat="44.0551546" lon="12.1614704"><ele>293.2</ele><time>2026-04-06T15:56:19.008Z</time></trkpt><trkpt lat="44.0552203" lon="12.1614323"><ele>294.8</ele><time>2026-04-06T15:56:20.011Z</time></trkpt><trkpt lat="44.0553051" lon="12.1614196"><ele>296.4</ele><time>2026-04-06T15:56:21.012Z</time></trkpt><trkpt lat="44.0553922" lon="12.1613892"><ele>298.0</ele><time>2026-04-06T15:56:22.009Z</time></trkpt><trkpt lat="44.0554689" lon="12.1613329"><ele>298.0</ele><time>2026-04-06T15:56:23.008Z</time></trkpt><trkpt lat="44.0555226" lon="12.1612116"><ele>298.0</ele><time>2026-04-06T15:56:24.008Z</time></trkpt><trkpt lat="44.0555627" lon="12.1610554"><ele>298.0</ele><time>2026-04-06T15:56:25.01Z</time></trkpt><trkpt lat="44.0555821" lon="12.1608581"><ele>298.0</ele><time>2026-04-06T15:56:26.009Z</time></trkpt><trkpt lat="44.0556042" lon="12.1606511"><ele>293.66666666666663</ele><time>2026-04-06T15:56:27.015Z</time></trkpt><trkpt lat="44.0556396" lon="12.1604413"><ele>289.3333333333333</ele><time>2026-04-06T15:56:28.009Z</time></trkpt><trkpt lat="44.0557026" lon="12.1602481"><ele>285.0</ele><time>2026-04-06T15:56:29.008Z</time></trkpt><trkpt lat="44.0557814" lon="12.1600752"><ele>286.75</ele><time>2026-04-06T15:56:30.009Z</time></trkpt><trkpt lat="44.0558561" lon="12.1599201"><ele>288.5</ele><time>2026-04-06T15:56:31.011Z</time></trkpt><trkpt lat="44.0559139" lon="12.1597621"><ele>290.25</ele><time>2026-04-06T15:56:32.013Z</time></trkpt><trkpt lat="44.0559535" lon="12.1595881"><ele>292.0</ele><time>2026-04-06T15:56:33.009Z</time></trkpt><trkpt lat="44.055973" lon="12.1593955"><ele>292.0</ele><time>2026-04-06T15:56:34.007Z</time></trkpt><trkpt lat="44.0559773" lon="12.1591919"><ele>292.0</ele><time>2026-04-06T15:56:35.007Z</time></trkpt><trkpt lat="44.0559831" lon="12.1589914"><ele>292.0</ele><time>2026-04-06T15:56:36.006Z</time></trkpt><trkpt lat="44.0560011" lon="12.1588099"><ele>292.0</ele><time>2026-04-06T15:56:37.008Z</time></trkpt><trkpt lat="44.0560392" lon="12.1586575"><ele>292.25</ele><time>2026-04-06T15:56:38.014Z</time></trkpt><trkpt lat="44.0561129" lon="12.1585241"><ele>292.5</ele><time>2026-04-06T15:56:39.007Z</time></trkpt><trkpt lat="44.0562098" lon="12.1584037"><ele>292.75</ele><time>2026-04-06T15:56:40.008Z</time></trkpt><trkpt lat="44.0563126" lon="12.1582733"><ele>293.0</ele><time>2026-04-06T15:56:41.007Z</time></trkpt><trkpt lat="44.0564154" lon="12.1581228"><ele>293.6666666666667</ele><time>2026-04-06T15:56:42.007Z</time></trkpt><trkpt lat="44.0565159" lon="12.157952"><ele>294.3333333333333</ele><time>2026-04-06T15:56:43.009Z</time></trkpt><trkpt lat="44.0566193" lon="12.1577619"><ele>295.0</ele><time>2026-04-06T15:56:44.008Z</time></trkpt><trkpt lat="44.0567262" lon="12.1575533"><ele>295.66666666666663</ele><time>2026-04-06T15:56:45.009Z</time></trkpt><trkpt lat="44.0568404" lon="12.1573314"><ele>296.3333333333333</ele><time>2026-04-06T15:56:46.008Z</time></trkpt><trkpt lat="44.0569671" lon="12.1571018"><ele>297.0</ele><time>2026-04-06T15:56:47.008Z</time></trkpt><trkpt lat="44.0571033" lon="12.15687"><ele>297.0</ele><time>2026-04-06T15:56:48.007Z</time></trkpt><trkpt lat="44.0572459" lon="12.1566342"><ele>297.0</ele><time>2026-04-06T15:56:49.008Z</time></trkpt><trkpt lat="44.0573891" lon="12.1564145"><ele>297.0</ele><time>2026-04-06T15:56:50.011Z</time></trkpt><trkpt lat="44.0575288" lon="12.1562233"><ele>298.6666666666667</ele><time>2026-04-06T15:56:51.008Z</time></trkpt><trkpt lat="44.0576652" lon="12.1560686"><ele>300.33333333333337</ele><time>2026-04-06T15:56:52.007Z</time></trkpt><trkpt lat="44.0577976" lon="12.1559353"><ele>302.0</ele><time>2026-04-06T15:56:53.006Z</time></trkpt><trkpt lat="44.0579248" lon="12.1558052"><ele>297.0</ele><time>2026-04-06T15:56:54.007Z</time></trkpt><trkpt lat="44.058047" lon="12.1556673"><ele>292.0</ele><time>2026-04-06T15:56:55.012Z</time></trkpt><trkpt lat="44.0581651" lon="12.1555282"><ele>287.0</ele><time>2026-04-06T15:56:56.008Z</time></trkpt><trkpt lat="44.0582785" lon="12.155387"><ele>294.25</ele><time>2026-04-06T15:56:57.006Z</time></trkpt><trkpt lat="44.0583825" lon="12.1552456"><ele>301.5</ele><time>2026-04-06T15:56:58.009Z</time></trkpt><trkpt lat="44.0584721" lon="12.1551024"><ele>308.75</ele><time>2026-04-06T15:56:59.009Z</time></trkpt><trkpt lat="44.0585488" lon="12.15494"><ele>316.0</ele><time>2026-04-06T15:57:00.008Z</time></trkpt><trkpt lat="44.0586128" lon="12.1547593"><ele>316.0</ele><time>2026-04-06T15:57:01.007Z</time></trkpt><trkpt lat="44.0586606" lon="12.154551"><ele>316.0</ele><time>2026-04-06T15:57:02.009Z</time></trkpt><trkpt lat="44.0586945" lon="12.1543239"><ele>316.0</ele><time>2026-04-06T15:57:03.009Z</time></trkpt><trkpt lat="44.0587163" lon="12.1540827"><ele>317.3333333333333</ele><time>2026-04-06T15:57:04.009Z</time></trkpt><trkpt lat="44.0587333" lon="12.153833"><ele>318.6666666666667</ele><time>2026-04-06T15:57:05.007Z</time></trkpt><trkpt lat="44.0587484" lon="12.153578"><ele>320.0</ele><time>2026-04-06T15:57:06.092Z</time></trkpt><trkpt lat="44.058764" lon="12.1533499"><ele>319.5</ele><time>2026-04-06T15:57:07.008Z</time></trkpt><trkpt lat="44.0587901" lon="12.1531286"><ele>319.0</ele><time>2026-04-06T15:57:08.008Z</time></trkpt><trkpt lat="44.0588315" lon="12.1529373"><ele>318.5</ele><time>2026-04-06T15:57:09.008Z</time></trkpt><trkpt lat="44.0588939" lon="12.152775"><ele>318.0</ele><time>2026-04-06T15:57:10.008Z</time></trkpt><trkpt lat="44.058979" lon="12.1526359"><ele>318.0</ele><time>2026-04-06T15:57:11.008Z</time></trkpt><trkpt lat="44.0590868" lon="12.1525046"><ele>318.0</ele><time>2026-04-06T15:57:12.01Z</time></trkpt><trkpt lat="44.0592107" lon="12.1523743"><ele>318.0</ele><time>2026-04-06T15:57:13.007Z</time></trkpt><trkpt lat="44.0593439" lon="12.1522356"><ele>320.0</ele><time>2026-04-06T15:57:14.008Z</time></trkpt><trkpt lat="44.059483" lon="12.1520848"><ele>322.0</ele><time>2026-04-06T15:57:15.007Z</time></trkpt><trkpt lat="44.0596285" lon="12.1519205"><ele>324.0</ele><time>2026-04-06T15:57:16.007Z</time></trkpt><trkpt lat="44.0597794" lon="12.1517441"><ele>324.0</ele><time>2026-04-06T15:57:17.014Z</time></trkpt><trkpt lat="44.0599218" lon="12.1515724"><ele>324.0</ele><time>2026-04-06T15:57:18.006Z</time></trkpt><trkpt lat="44.0600542" lon="12.1514182"><ele>324.0</ele><time>2026-04-06T15:57:19.008Z</time></trkpt><trkpt lat="44.0601797" lon="12.1512879"><ele>327.75</ele><time>2026-04-06T15:57:20.008Z</time></trkpt><trkpt lat="44.0603011" lon="12.1511686"><ele>331.5</ele><time>2026-04-06T15:57:21.01Z</time></trkpt><trkpt lat="44.0604217" lon="12.1510457"><ele>335.25</ele><time>2026-04-06T15:57:22.007Z</time></trkpt><trkpt lat="44.0605393" lon="12.1509227"><ele>339.0</ele><time>2026-04-06T15:57:23.007Z</time></trkpt><trkpt lat="44.0606558" lon="12.1507982"><ele>338.0</ele><time>2026-04-06T15:57:24.009Z</time></trkpt><trkpt lat="44.0607661" lon="12.1506685"><ele>337.0</ele><time>2026-04-06T15:57:25.008Z</time></trkpt><trkpt lat="44.0608599" lon="12.1505243"><ele>336.0</ele><time>2026-04-06T15:57:26.007Z</time></trkpt><trkpt lat="44.0609272" lon="12.1503617"><ele>335.0</ele><time>2026-04-06T15:57:27.01Z</time></trkpt><trkpt lat="44.0609724" lon="12.1501761"><ele>338.75</ele><time>2026-04-06T15:57:28.008Z</time></trkpt><trkpt lat="44.0610036" lon="12.1499736"><ele>342.5</ele><time>2026-04-06T15:57:29.01Z</time></trkpt><trkpt lat="44.0610245" lon="12.1497747"><ele>346.25</ele><time>2026-04-06T15:57:30.007Z</time></trkpt><trkpt lat="44.0610345" lon="12.1495819"><ele>350.0</ele><time>2026-04-06T15:57:31.008Z</time></trkpt><trkpt lat="44.0610403" lon="12.1493924"><ele>350.0</ele><time>2026-04-06T15:57:32.007Z</time></trkpt><trkpt lat="44.0610563" lon="12.1492055"><ele>350.0</ele><time>2026-04-06T15:57:33.008Z</time></trkpt><trkpt lat="44.0610938" lon="12.1490336"><ele>350.0</ele><time>2026-04-06T15:57:34.008Z</time></trkpt><trkpt lat="44.0611598" lon="12.1488605"><ele>350.0</ele><time>2026-04-06T15:57:35.007Z</time></trkpt><trkpt lat="44.061235" lon="12.148668"><ele>348.0</ele><time>2026-04-06T15:57:36.008Z</time></trkpt><trkpt lat="44.0612974" lon="12.1484519"><ele>346.0</ele><time>2026-04-06T15:57:37.008Z</time></trkpt><trkpt lat="44.0613338" lon="12.1482241"><ele>344.0</ele><time>2026-04-06T15:57:38.008Z</time></trkpt><trkpt lat="44.0613504" lon="12.1480056"><ele>343.25</ele><time>2026-04-06T15:57:39.013Z</time></trkpt><trkpt lat="44.0613585" lon="12.1478096"><ele>342.5</ele><time>2026-04-06T15:57:40.008Z</time></trkpt><trkpt lat="44.0613753" lon="12.1476347"><ele>341.75</ele><time>2026-04-06T15:57:41.009Z</time></trkpt><trkpt lat="44.0614096" lon="12.1474903"><ele>341.0</ele><time>2026-04-06T15:57:42.01Z</time></trkpt><trkpt lat="44.061466" lon="12.1473593"><ele>339.75</ele><time>2026-04-06T15:57:43.011Z</time></trkpt><trkpt lat="44.0615409" lon="12.1472214"><ele>338.5</ele><time>2026-04-06T15:57:44.007Z</time></trkpt><trkpt lat="44.0616333" lon="12.1470662"><ele>337.25</ele><time>2026-04-06T15:57:45.009Z</time></trkpt><trkpt lat="44.0617289" lon="12.1468806"><ele>336.0</ele><time>2026-04-06T15:57:46.009Z</time></trkpt><trkpt lat="44.061815" lon="12.1466781"><ele>342.0</ele><time>2026-04-06T15:57:47.016Z</time></trkpt><trkpt lat="44.0618822" lon="12.1464829"><ele>348.0</ele><time>2026-04-06T15:57:48.009Z</time></trkpt><trkpt lat="44.0619346" lon="12.1463178"><ele>354.0</ele><time>2026-04-06T15:57:49.009Z</time></trkpt><trkpt lat="44.0619821" lon="12.1462"><ele>360.0</ele><time>2026-04-06T15:57:50.008Z</time></trkpt><trkpt lat="44.0620699" lon="12.146126"><ele>360.0</ele><time>2026-04-06T15:57:52.008Z</time></trkpt><trkpt lat="44.0621126" lon="12.1462409"><ele>360.0</ele><time>2026-04-06T15:57:54.008Z</time></trkpt><trkpt lat="44.0621103" lon="12.1463453"><ele>360.0</ele><time>2026-04-06T15:57:55.011Z</time></trkpt><trkpt lat="44.06206" lon="12.1465146"><ele>360.0</ele><time>2026-04-06T15:57:56.008Z</time></trkpt><trkpt lat="44.0619958" lon="12.1467029"><ele>360.0</ele><time>2026-04-06T15:57:57.009Z</time></trkpt><trkpt lat="44.0619235" lon="12.146904"><ele>359.75</ele><time>2026-04-06T15:57:58.009Z</time></trkpt><trkpt lat="44.0618538" lon="12.147097"><ele>359.5</ele><time>2026-04-06T15:57:59.007Z</time></trkpt><trkpt lat="44.061796" lon="12.1472751"><ele>359.25</ele><time>2026-04-06T15:58:00.013Z</time></trkpt><trkpt lat="44.0617546" lon="12.1474406"><ele>359.0</ele><time>2026-04-06T15:58:01.008Z</time></trkpt><trkpt lat="44.0617304" lon="12.147597"><ele>360.0</ele><time>2026-04-06T15:58:02.008Z</time></trkpt><trkpt lat="44.0617358" lon="12.1477375"><ele>361.0</ele><time>2026-04-06T15:58:03.012Z</time></trkpt><trkpt lat="44.0617695" lon="12.1478539"><ele>362.0</ele><time>2026-04-06T15:58:04.008Z</time></trkpt><trkpt lat="44.0618198" lon="12.1479418"><ele>363.0</ele><time>2026-04-06T15:58:05.009Z</time></trkpt><trkpt lat="44.0618782" lon="12.148003"><ele>364.0</ele><time>2026-04-06T15:58:06.007Z</time></trkpt><trkpt lat="44.0619477" lon="12.1480357"><ele>365.0</ele><time>2026-04-06T15:58:07.007Z</time></trkpt><trkpt lat="44.0620284" lon="12.1480174"><ele>365.0</ele><time>2026-04-06T15:58:08.008Z</time></trkpt><trkpt lat="44.0621356" lon="12.1479288"><ele>365.0</ele><time>2026-04-06T15:58:09.01Z</time></trkpt><trkpt lat="44.0622191" lon="12.1477581"><ele>365.0</ele><time>2026-04-06T15:58:10.008Z</time></trkpt><trkpt lat="44.0622768" lon="12.1475546"><ele>365.0</ele><time>2026-04-06T15:58:11.009Z</time></trkpt><trkpt lat="44.0623139" lon="12.1473292"><ele>363.0</ele><time>2026-04-06T15:58:12.009Z</time></trkpt><trkpt lat="44.0623502" lon="12.1470916"><ele>361.0</ele><time>2026-04-06T15:58:13.008Z</time></trkpt><trkpt lat="44.0623873" lon="12.1468432"><ele>359.0</ele><time>2026-04-06T15:58:14.009Z</time></trkpt><trkpt lat="44.0624227" lon="12.1465971"><ele>366.6666666666667</ele><time>2026-04-06T15:58:15.008Z</time></trkpt><trkpt lat="44.0624637" lon="12.1463629"><ele>374.3333333333333</ele><time>2026-04-06T15:58:16.008Z</time></trkpt><trkpt lat="44.0625014" lon="12.1461405"><ele>382.0</ele><time>2026-04-06T15:58:17.011Z</time></trkpt><trkpt lat="44.0625198" lon="12.1459162"><ele>384.75</ele><time>2026-04-06T15:58:18.008Z</time></trkpt><trkpt lat="44.0625106" lon="12.1456932"><ele>387.5</ele><time>2026-04-06T15:58:19.007Z</time></trkpt><trkpt lat="44.0624856" lon="12.145485"><ele>390.25</ele><time>2026-04-06T15:58:20.008Z</time></trkpt><trkpt lat="44.0624609" lon="12.1453116"><ele>393.0</ele><time>2026-04-06T15:58:21.01Z</time></trkpt><trkpt lat="44.0624536" lon="12.1451645"><ele>393.0</ele><time>2026-04-06T15:58:22.009Z</time></trkpt><trkpt lat="44.06247" lon="12.1450202"><ele>393.0</ele><time>2026-04-06T15:58:23.006Z</time></trkpt><trkpt lat="44.0625059" lon="12.1448656"><ele>393.0</ele><time>2026-04-06T15:58:24.011Z</time></trkpt><trkpt lat="44.0625599" lon="12.1447033"><ele>393.0</ele><time>2026-04-06T15:58:25.009Z</time></trkpt><trkpt lat="44.0626271" lon="12.1445366"><ele>392.5</ele><time>2026-04-06T15:58:26.008Z</time></trkpt><trkpt lat="44.0627127" lon="12.1443809"><ele>392.0</ele><time>2026-04-06T15:58:27.009Z</time></trkpt><trkpt lat="44.062816" lon="12.1442483"><ele>391.5</ele><time>2026-04-06T15:58:28.008Z</time></trkpt><trkpt lat="44.0629417" lon="12.1441337"><ele>391.0</ele><time>2026-04-06T15:58:29.007Z</time></trkpt><trkpt lat="44.0630845" lon="12.1440289"><ele>394.0</ele><time>2026-04-06T15:58:30.007Z</time></trkpt><trkpt lat="44.0632391" lon="12.1439185"><ele>397.0</ele><time>2026-04-06T15:58:31.009Z</time></trkpt><trkpt lat="44.0633991" lon="12.1437938"><ele>400.0</ele><time>2026-04-06T15:58:32.008Z</time></trkpt><trkpt lat="44.0635606" lon="12.14366"><ele>400.0</ele><time>2026-04-06T15:58:33.01Z</time></trkpt><trkpt lat="44.0637137" lon="12.1435238"><ele>400.0</ele><time>2026-04-06T15:58:34.01Z</time></trkpt><trkpt lat="44.0638552" lon="12.1433888"><ele>400.0</ele><time>2026-04-06T15:58:35.009Z</time></trkpt><trkpt lat="44.0639829" lon="12.1432499"><ele>399.75</ele><time>2026-04-06T15:58:36.008Z</time></trkpt><trkpt lat="44.0640878" lon="12.1431071"><ele>399.5</ele><time>2026-04-06T15:58:37.008Z</time></trkpt><trkpt lat="44.064164" lon="12.1429624"><ele>399.25</ele><time>2026-04-06T15:58:38.009Z</time></trkpt><trkpt lat="44.0642033" lon="12.142815"><ele>399.0</ele><time>2026-04-06T15:58:39.009Z</time></trkpt><trkpt lat="44.064215" lon="12.14266"><ele>399.25</ele><time>2026-04-06T15:58:40.013Z</time></trkpt><trkpt lat="44.0642067" lon="12.1425083"><ele>399.5</ele><time>2026-04-06T15:58:41.007Z</time></trkpt><trkpt lat="44.0641733" lon="12.1423517"><ele>399.75</ele><time>2026-04-06T15:58:42.008Z</time></trkpt><trkpt lat="44.0641183" lon="12.1421933"><ele>400.0</ele><time>2026-04-06T15:58:43.009Z</time></trkpt><trkpt lat="44.0640567" lon="12.1420333"><ele>400.0</ele><time>2026-04-06T15:58:44.009Z</time></trkpt><trkpt lat="44.0639983" lon="12.14189"><ele>400.0</ele><time>2026-04-06T15:58:45.008Z</time></trkpt><trkpt lat="44.063965" lon="12.141765"><ele>400.0</ele><time>2026-04-06T15:58:46.009Z</time></trkpt><trkpt lat="44.0639583" lon="12.1416483"><ele>400.0</ele><time>2026-04-06T15:58:47.006Z</time></trkpt><trkpt lat="44.0639717" lon="12.1415417"><ele>400.0</ele><time>2026-04-06T15:58:48.008Z</time></trkpt><trkpt lat="44.0640117" lon="12.1414317"><ele>406.6666666666667</ele><time>2026-04-06T15:58:49.008Z</time></trkpt><trkpt lat="44.0641267" lon="12.141325"><ele>413.33333333333337</ele><time>2026-04-06T15:58:50.009Z</time></trkpt><trkpt lat="44.06426" lon="12.141205"><ele>420.0</ele><time>2026-04-06T15:58:51.014Z</time></trkpt><trkpt lat="44.0644067" lon="12.1410633"><ele>420.0</ele><time>2026-04-06T15:58:52.007Z</time></trkpt><trkpt lat="44.064575" lon="12.1409033"><ele>420.0</ele><time>2026-04-06T15:58:53.009Z</time></trkpt><trkpt lat="44.0647483" lon="12.1407417"><ele>420.0</ele><time>2026-04-06T15:58:54.009Z</time></trkpt><trkpt lat="44.0649033" lon="12.1405883"><ele>420.25</ele><time>2026-04-06T15:58:55.008Z</time></trkpt><trkpt lat="44.0650333" lon="12.1404417"><ele>420.5</ele><time>2026-04-06T15:58:56.01Z</time></trkpt><trkpt lat="44.0651433" lon="12.1402983"><ele>420.75</ele><time>2026-04-06T15:58:57.009Z</time></trkpt><trkpt lat="44.0652217" lon="12.1401533"><ele>421.0</ele><time>2026-04-06T15:58:58.013Z</time></trkpt><trkpt lat="44.0652667" lon="12.1400033"><ele>421.5</ele><time>2026-04-06T15:58:59.01Z</time></trkpt><trkpt lat="44.0652633" lon="12.1398233"><ele>422.0</ele><time>2026-04-06T15:59:00.012Z</time></trkpt><trkpt lat="44.0652567" lon="12.1396317"><ele>422.5</ele><time>2026-04-06T15:59:01.009Z</time></trkpt><trkpt lat="44.06526" lon="12.139425"><ele>423.0</ele><time>2026-04-06T15:59:02.009Z</time></trkpt><trkpt lat="44.0652917" lon="12.139195"><ele>422.0</ele><time>2026-04-06T15:59:03.009Z</time></trkpt><trkpt lat="44.065345" lon="12.1389517"><ele>421.0</ele><time>2026-04-06T15:59:04.011Z</time></trkpt><trkpt lat="44.06541" lon="12.1387267"><ele>420.0</ele><time>2026-04-06T15:59:05.009Z</time></trkpt><trkpt lat="44.0654983" lon="12.138525"><ele>420.0</ele><time>2026-04-06T15:59:06.011Z</time></trkpt><trkpt lat="44.0656183" lon="12.1383483"><ele>420.0</ele><time>2026-04-06T15:59:07.008Z</time></trkpt><trkpt lat="44.06577" lon="12.1381783"><ele>420.0</ele><time>2026-04-06T15:59:08.007Z</time></trkpt><trkpt lat="44.06594" lon="12.1380167"><ele>422.33333333333337</ele><time>2026-04-06T15:59:09.009Z</time></trkpt><trkpt lat="44.0661067" lon="12.1378617"><ele>424.6666666666667</ele><time>2026-04-06T15:59:10.008Z</time></trkpt><trkpt lat="44.066255" lon="12.13771"><ele>427.0</ele><time>2026-04-06T15:59:11.011Z</time></trkpt><trkpt lat="44.066405" lon="12.1375683"><ele>427.0</ele><time>2026-04-06T15:59:12.009Z</time></trkpt><trkpt lat="44.0665533" lon="12.1374383"><ele>427.0</ele><time>2026-04-06T15:59:13.009Z</time></trkpt><trkpt lat="44.0667073" lon="12.1373253"><ele>427.0</ele><time>2026-04-06T15:59:14.008Z</time></trkpt><trkpt lat="44.0668679" lon="12.1372397"><ele>430.33333333333337</ele><time>2026-04-06T15:59:15.007Z</time></trkpt><trkpt lat="44.0670363" lon="12.1371798"><ele>433.66666666666663</ele><time>2026-04-06T15:59:16.009Z</time></trkpt><trkpt lat="44.0672151" lon="12.1371334"><ele>437.0</ele><time>2026-04-06T15:59:17.011Z</time></trkpt><trkpt lat="44.0673971" lon="12.1370952"><ele>437.3333333333333</ele><time>2026-04-06T15:59:18.007Z</time></trkpt><trkpt lat="44.0675661" lon="12.1370734"><ele>437.66666666666663</ele><time>2026-04-06T15:59:19.011Z</time></trkpt><trkpt lat="44.0677178" lon="12.1370779"><ele>438.0</ele><time>2026-04-06T15:59:20.008Z</time></trkpt><trkpt lat="44.0678513" lon="12.1371024"><ele>438.0</ele><time>2026-04-06T15:59:21.009Z</time></trkpt><trkpt lat="44.0679684" lon="12.137126"><ele>437.99999999999994</ele><time>2026-04-06T15:59:22.01Z</time></trkpt><trkpt lat="44.0680718" lon="12.1371328"><ele>437.99999999999994</ele><time>2026-04-06T15:59:23.008Z</time></trkpt><trkpt lat="44.0681609" lon="12.1371122"><ele>438.0</ele><time>2026-04-06T15:59:24.013Z</time></trkpt><trkpt lat="44.0682348" lon="12.1370699"><ele>438.0</ele><time>2026-04-06T15:59:25.008Z</time></trkpt><trkpt lat="44.0683011" lon="12.1369935"><ele>436.0</ele><time>2026-04-06T15:59:26.009Z</time></trkpt><trkpt lat="44.0683532" lon="12.1368862"><ele>434.0</ele><time>2026-04-06T15:59:27.009Z</time></trkpt><trkpt lat="44.0683438" lon="12.1366597"><ele>432.0</ele><time>2026-04-06T15:59:28.009Z</time></trkpt><trkpt lat="44.0683323" lon="12.1364033"><ele>430.0</ele><time>2026-04-06T15:59:29.009Z</time></trkpt><trkpt lat="44.0683312" lon="12.1361495"><ele>430.0</ele><time>2026-04-06T15:59:30.009Z</time></trkpt><trkpt lat="44.068332" lon="12.1359163"><ele>430.0</ele><time>2026-04-06T15:59:31.012Z</time></trkpt><trkpt lat="44.0683393" lon="12.1357234"><ele>430.0</ele><time>2026-04-06T15:59:32.009Z</time></trkpt><trkpt lat="44.0683531" lon="12.1355521"><ele>430.0</ele><time>2026-04-06T15:59:33.008Z</time></trkpt><trkpt lat="44.0683787" lon="12.135407"><ele>430.00000000000006</ele><time>2026-04-06T15:59:34.008Z</time></trkpt><trkpt lat="44.0684088" lon="12.1352925"><ele>430.0</ele><time>2026-04-06T15:59:35.008Z</time></trkpt><trkpt lat="44.0684364" lon="12.1352019"><ele>430.0</ele><time>2026-04-06T15:59:36.011Z</time></trkpt><trkpt lat="44.0684864" lon="12.1351036"><ele>430.0</ele><time>2026-04-06T15:59:38.013Z</time></trkpt><trkpt lat="44.0685636" lon="12.1350829"><ele>430.00000000000006</ele><time>2026-04-06T15:59:40.009Z</time></trkpt><trkpt lat="44.0686318" lon="12.1351062"><ele>430.0</ele><time>2026-04-06T15:59:41.008Z</time></trkpt><trkpt lat="44.0687225" lon="12.1351336"><ele>430.00000000000006</ele><time>2026-04-06T15:59:42.008Z</time></trkpt><trkpt lat="44.0688208" lon="12.1351514"><ele>430.0</ele><time>2026-04-06T15:59:43.008Z</time></trkpt><trkpt lat="44.0689201" lon="12.1351599"><ele>430.0</ele><time>2026-04-06T15:59:44.009Z</time></trkpt><trkpt lat="44.0690141" lon="12.1351605"><ele>430.0</ele><time>2026-04-06T15:59:45.009Z</time></trkpt><trkpt lat="44.0690977" lon="12.1351549"><ele>430.00000000000006</ele><time>2026-04-06T15:59:46.007Z</time></trkpt><trkpt lat="44.0691701" lon="12.1351498"><ele>430.0</ele><time>2026-04-06T15:59:47.005Z</time></trkpt><trkpt lat="44.0692415" lon="12.1351549"><ele>430.6</ele><time>2026-04-06T15:59:48.006Z</time></trkpt><trkpt lat="44.0693239" lon="12.1351689"><ele>431.2</ele><time>2026-04-06T15:59:49.013Z</time></trkpt><trkpt lat="44.0694306" lon="12.1351692"><ele>431.79999999999995</ele><time>2026-04-06T15:59:50.009Z</time></trkpt><trkpt lat="44.0695459" lon="12.1351531"><ele>432.4</ele><time>2026-04-06T15:59:51.009Z</time></trkpt><trkpt lat="44.0696531" lon="12.1351263"><ele>433.0</ele><time>2026-04-06T15:59:52.008Z</time></trkpt><trkpt lat="44.069756" lon="12.1350875"><ele>433.0</ele><time>2026-04-06T15:59:53.009Z</time></trkpt><trkpt lat="44.0698618" lon="12.1350275"><ele>433.0</ele><time>2026-04-06T15:59:54.012Z</time></trkpt><trkpt lat="44.069971" lon="12.1349477"><ele>433.0</ele><time>2026-04-06T15:59:55.008Z</time></trkpt><trkpt lat="44.0700773" lon="12.1348581"><ele>433.0</ele><time>2026-04-06T15:59:56.009Z</time></trkpt><trkpt lat="44.0701842" lon="12.1347644"><ele>434.25</ele><time>2026-04-06T15:59:57.008Z</time></trkpt><trkpt lat="44.0703002" lon="12.134678"><ele>435.5</ele><time>2026-04-06T15:59:58.007Z</time></trkpt><trkpt lat="44.0704216" lon="12.1346052"><ele>436.75</ele><time>2026-04-06T15:59:59.008Z</time></trkpt><trkpt lat="44.070544" lon="12.1345444"><ele>438.0</ele><time>2026-04-06T16:00:00.008Z</time></trkpt><trkpt lat="44.0706624" lon="12.1344937"><ele>438.0</ele><time>2026-04-06T16:00:01.015Z</time></trkpt><trkpt lat="44.0707697" lon="12.1344437"><ele>437.99999999999994</ele><time>2026-04-06T16:00:02.007Z</time></trkpt><trkpt lat="44.0708669" lon="12.1343944"><ele>437.99999999999994</ele><time>2026-04-06T16:00:03.008Z</time></trkpt><trkpt lat="44.0709545" lon="12.1343474"><ele>438.0</ele><time>2026-04-06T16:00:04.008Z</time></trkpt><trkpt lat="44.0710371" lon="12.1342969"><ele>438.0</ele><time>2026-04-06T16:00:05.006Z</time></trkpt><trkpt lat="44.0711203" lon="12.1342372"><ele>438.4</ele><time>2026-04-06T16:00:06.006Z</time></trkpt><trkpt lat="44.0711974" lon="12.1341563"><ele>438.79999999999995</ele><time>2026-04-06T16:00:07.006Z</time></trkpt><trkpt lat="44.0712624" lon="12.13405"><ele>439.2</ele><time>2026-04-06T16:00:08.013Z</time></trkpt><trkpt lat="44.071323" lon="12.1339186"><ele>439.6</ele><time>2026-04-06T16:00:09.008Z</time></trkpt><trkpt lat="44.0713868" lon="12.1337589"><ele>440.0</ele><time>2026-04-06T16:00:10.008Z</time></trkpt><trkpt lat="44.071457" lon="12.1335979"><ele>440.0</ele><time>2026-04-06T16:00:11.007Z</time></trkpt><trkpt lat="44.0715348" lon="12.133442"><ele>440.0</ele><time>2026-04-06T16:00:12.008Z</time></trkpt><trkpt lat="44.0716274" lon="12.1332968"><ele>440.0</ele><time>2026-04-06T16:00:13.009Z</time></trkpt><trkpt lat="44.0717272" lon="12.1331614"><ele>440.0</ele><time>2026-04-06T16:00:14.009Z</time></trkpt><trkpt lat="44.0718207" lon="12.1330351"><ele>436.8</ele><time>2026-04-06T16:00:15.009Z</time></trkpt><trkpt lat="44.0719043" lon="12.1329285"><ele>433.6</ele><time>2026-04-06T16:00:16.011Z</time></trkpt><trkpt lat="44.0719782" lon="12.1328351"><ele>430.4</ele><time>2026-04-06T16:00:17.008Z</time></trkpt><trkpt lat="44.0720458" lon="12.1327483"><ele>427.2</ele><time>2026-04-06T16:00:18.008Z</time></trkpt><trkpt lat="44.0721097" lon="12.1326692"><ele>424.0</ele><time>2026-04-06T16:00:19.008Z</time></trkpt><trkpt lat="44.0721656" lon="12.1326064"><ele>424.00000000000006</ele><time>2026-04-06T16:00:20.008Z</time></trkpt><trkpt lat="44.0722568" lon="12.1325404"><ele>424.0</ele><time>2026-04-06T16:00:22.009Z</time></trkpt><trkpt lat="44.0723562" lon="12.1325027"><ele>424.0</ele><time>2026-04-06T16:00:25.006Z</time></trkpt><trkpt lat="44.0724272" lon="12.132435"><ele>424.0</ele><time>2026-04-06T16:00:27.009Z</time></trkpt><trkpt lat="44.0724838" lon="12.1323682"><ele>424.00000000000006</ele><time>2026-04-06T16:00:29.008Z</time></trkpt><trkpt lat="44.0725629" lon="12.1323588"><ele>424.0</ele><time>2026-04-06T16:00:32.01Z</time></trkpt><trkpt lat="44.072592" lon="12.1324677"><ele>424.00000000000006</ele><time>2026-04-06T16:00:35.041Z</time></trkpt><trkpt lat="44.0725842" lon="12.1326193"><ele>424.0</ele><time>2026-04-06T16:00:37.009Z</time></trkpt><trkpt lat="44.0725704" lon="12.1327112"><ele>424.0</ele><time>2026-04-06T16:00:38.009Z</time></trkpt><trkpt lat="44.072548" lon="12.1328146"><ele>424.0</ele><time>2026-04-06T16:00:39.009Z</time></trkpt><trkpt lat="44.0725134" lon="12.1329307"><ele>424.00000000000006</ele><time>2026-04-06T16:00:40.009Z</time></trkpt><trkpt lat="44.0724684" lon="12.1330568"><ele>424.0</ele><time>2026-04-06T16:00:41.006Z</time></trkpt><trkpt lat="44.0724196" lon="12.1331867"><ele>421.79999999999995</ele><time>2026-04-06T16:00:42.01Z</time></trkpt><trkpt lat="44.0723703" lon="12.1333138"><ele>419.59999999999997</ele><time>2026-04-06T16:00:43.011Z</time></trkpt><trkpt lat="44.0723173" lon="12.1334356"><ele>417.4</ele><time>2026-04-06T16:00:44.009Z</time></trkpt><trkpt lat="44.0722545" lon="12.1335456"><ele>415.2</ele><time>2026-04-06T16:00:45.014Z</time></trkpt><trkpt lat="44.0721872" lon="12.133643"><ele>413.0</ele><time>2026-04-06T16:00:46.011Z</time></trkpt><trkpt lat="44.0721209" lon="12.1337246"><ele>413.0</ele><time>2026-04-06T16:00:47.009Z</time></trkpt><trkpt lat="44.072065" lon="12.1337988"><ele>413.0</ele><time>2026-04-06T16:00:48.008Z</time></trkpt><trkpt lat="44.0720273" lon="12.1338766"><ele>413.0</ele><time>2026-04-06T16:00:49.009Z</time></trkpt><trkpt lat="44.0720072" lon="12.1339614"><ele>413.0</ele><time>2026-04-06T16:00:50.01Z</time></trkpt><trkpt lat="44.0720014" lon="12.1340516"><ele>413.0</ele><time>2026-04-06T16:00:51.009Z</time></trkpt><trkpt lat="44.0720098" lon="12.1341501"><ele>413.0</ele><time>2026-04-06T16:00:52.011Z</time></trkpt><trkpt lat="44.0720272" lon="12.134257"><ele>413.0</ele><time>2026-04-06T16:00:53.008Z</time></trkpt><trkpt lat="44.0720595" lon="12.1343816"><ele>410.4</ele><time>2026-04-06T16:00:54.009Z</time></trkpt><trkpt lat="44.0720885" lon="12.1345284"><ele>407.79999999999995</ele><time>2026-04-06T16:00:55.008Z</time></trkpt><trkpt lat="44.0721092" lon="12.1346814"><ele>405.2</ele><time>2026-04-06T16:00:56.009Z</time></trkpt><trkpt lat="44.0721239" lon="12.1348324"><ele>402.6</ele><time>2026-04-06T16:00:57.008Z</time></trkpt><trkpt lat="44.0721428" lon="12.1349765"><ele>400.0</ele><time>2026-04-06T16:00:58.01Z</time></trkpt><trkpt lat="44.0721722" lon="12.1351107"><ele>397.0</ele><time>2026-04-06T16:00:59.008Z</time></trkpt><trkpt lat="44.0722" lon="12.1352409"><ele>394.0</ele><time>2026-04-06T16:01:00.009Z</time></trkpt><trkpt lat="44.0722259" lon="12.1353738"><ele>391.0</ele><time>2026-04-06T16:01:01.009Z</time></trkpt><trkpt lat="44.0722542" lon="12.1355142"><ele>388.0</ele><time>2026-04-06T16:01:02.007Z</time></trkpt><trkpt lat="44.0722844" lon="12.1356652"><ele>385.0</ele><time>2026-04-06T16:01:03.008Z</time></trkpt><trkpt lat="44.0723138" lon="12.1358208"><ele>381.6</ele><time>2026-04-06T16:01:04.013Z</time></trkpt><trkpt lat="44.0723376" lon="12.135971"><ele>378.2</ele><time>2026-04-06T16:01:05.007Z</time></trkpt><trkpt lat="44.0723538" lon="12.1361056"><ele>374.79999999999995</ele><time>2026-04-06T16:01:06.008Z</time></trkpt><trkpt lat="44.0723667" lon="12.1362137"><ele>371.4</ele><time>2026-04-06T16:01:07.007Z</time></trkpt><trkpt lat="44.072391" lon="12.1363602"><ele>368.0</ele><time>2026-04-06T16:01:09.012Z</time></trkpt><trkpt lat="44.0724098" lon="12.1364816"><ele>363.4</ele><time>2026-04-06T16:01:11.008Z</time></trkpt><trkpt lat="44.0724589" lon="12.1366345"><ele>358.79999999999995</ele><time>2026-04-06T16:01:13.008Z</time></trkpt><trkpt lat="44.0725068" lon="12.1367264"><ele>354.2</ele><time>2026-04-06T16:01:14.014Z</time></trkpt><trkpt lat="44.072565" lon="12.1368109"><ele>349.6</ele><time>2026-04-06T16:01:15.007Z</time></trkpt><trkpt lat="44.0726331" lon="12.13689"><ele>345.0</ele><time>2026-04-06T16:01:16.009Z</time></trkpt><trkpt lat="44.0727118" lon="12.1369633"><ele>345.0</ele><time>2026-04-06T16:01:17.008Z</time></trkpt><trkpt lat="44.0727966" lon="12.1370266"><ele>345.0</ele><time>2026-04-06T16:01:18.007Z</time></trkpt><trkpt lat="44.0728814" lon="12.1370828"><ele>345.0</ele><time>2026-04-06T16:01:19.01Z</time></trkpt><trkpt lat="44.072961" lon="12.1371353"><ele>345.0</ele><time>2026-04-06T16:01:20.007Z</time></trkpt><trkpt lat="44.0730376" lon="12.1371806"><ele>345.0</ele><time>2026-04-06T16:01:21.01Z</time></trkpt><trkpt lat="44.0731094" lon="12.1372152"><ele>345.0</ele><time>2026-04-06T16:01:22.008Z</time></trkpt><trkpt lat="44.0731776" lon="12.1372339"><ele>345.0</ele><time>2026-04-06T16:01:23.007Z</time></trkpt><trkpt lat="44.0732468" lon="12.1372351"><ele>345.0</ele><time>2026-04-06T16:01:24.008Z</time></trkpt><trkpt lat="44.0733165" lon="12.1372261"><ele>345.0</ele><time>2026-04-06T16:01:25.01Z</time></trkpt><trkpt lat="44.0733876" lon="12.1372111"><ele>345.0</ele><time>2026-04-06T16:01:26.013Z</time></trkpt><trkpt lat="44.073462" lon="12.1371958"><ele>345.0</ele><time>2026-04-06T16:01:27.009Z</time></trkpt><trkpt lat="44.0735414" lon="12.137178"><ele>345.0</ele><time>2026-04-06T16:01:28.007Z</time></trkpt><trkpt lat="44.0736257" lon="12.1371503"><ele>339.25</ele><time>2026-04-06T16:01:29.006Z</time></trkpt><trkpt lat="44.0737164" lon="12.1371068"><ele>333.5</ele><time>2026-04-06T16:01:30.008Z</time></trkpt><trkpt lat="44.0738251" lon="12.1370394"><ele>327.75</ele><time>2026-04-06T16:01:31.008Z</time></trkpt><trkpt lat="44.0739434" lon="12.1369566"><ele>322.0</ele><time>2026-04-06T16:01:32.007Z</time></trkpt><trkpt lat="44.074062" lon="12.136877"><ele>316.5</ele><time>2026-04-06T16:01:33.008Z</time></trkpt><trkpt lat="44.07418" lon="12.1368164"><ele>311.0</ele><time>2026-04-06T16:01:34.009Z</time></trkpt><trkpt lat="44.0742976" lon="12.136776"><ele>305.5</ele><time>2026-04-06T16:01:35.006Z</time></trkpt><trkpt lat="44.0744229" lon="12.1367592"><ele>300.0</ele><time>2026-04-06T16:01:36.008Z</time></trkpt><trkpt lat="44.0745602" lon="12.1367645"><ele>300.0</ele><time>2026-04-06T16:01:37.007Z</time></trkpt><trkpt lat="44.0746974" lon="12.1367946"><ele>300.0</ele><time>2026-04-06T16:01:38.009Z</time></trkpt><trkpt lat="44.0748259" lon="12.1368573"><ele>300.0</ele><time>2026-04-06T16:01:39.008Z</time></trkpt><trkpt lat="44.0749354" lon="12.1369573"><ele>300.0</ele><time>2026-04-06T16:01:40.008Z</time></trkpt><trkpt lat="44.0750185" lon="12.1370968"><ele>298.25</ele><time>2026-04-06T16:01:41.008Z</time></trkpt><trkpt lat="44.0750856" lon="12.1372617"><ele>296.5</ele><time>2026-04-06T16:01:42.01Z</time></trkpt><trkpt lat="44.0751472" lon="12.1374491"><ele>294.75</ele><time>2026-04-06T16:01:43.014Z</time></trkpt><trkpt lat="44.075216" lon="12.137638"><ele>293.0</ele><time>2026-04-06T16:01:44.008Z</time></trkpt><trkpt lat="44.0752962" lon="12.1378125"><ele>293.0</ele><time>2026-04-06T16:01:45.009Z</time></trkpt><trkpt lat="44.0753919" lon="12.137963"><ele>293.0</ele><time>2026-04-06T16:01:46.01Z</time></trkpt><trkpt lat="44.0755039" lon="12.1380797"><ele>293.0</ele><time>2026-04-06T16:01:47.006Z</time></trkpt><trkpt lat="44.0756353" lon="12.1381711"><ele>293.0</ele><time>2026-04-06T16:01:48.008Z</time></trkpt><trkpt lat="44.0757795" lon="12.1382507"><ele>289.33333333333337</ele><time>2026-04-06T16:01:49.01Z</time></trkpt><trkpt lat="44.0759382" lon="12.1383122"><ele>285.6666666666667</ele><time>2026-04-06T16:01:50.008Z</time></trkpt><trkpt lat="44.0761151" lon="12.1383511"><ele>282.0</ele><time>2026-04-06T16:01:51.011Z</time></trkpt><trkpt lat="44.0763096" lon="12.1383634"><ele>282.0</ele><time>2026-04-06T16:01:52.009Z</time></trkpt><trkpt lat="44.0765187" lon="12.138356"><ele>282.0</ele><time>2026-04-06T16:01:53.012Z</time></trkpt><trkpt lat="44.0767415" lon="12.1383422"><ele>282.0</ele><time>2026-04-06T16:01:54.009Z</time></trkpt><trkpt lat="44.0769665" lon="12.1383256"><ele>278.5</ele><time>2026-04-06T16:01:55.009Z</time></trkpt><trkpt lat="44.077194" lon="12.1383049"><ele>275.0</ele><time>2026-04-06T16:01:56.01Z</time></trkpt><trkpt lat="44.0774206" lon="12.1382771"><ele>273.0</ele><time>2026-04-06T16:01:57.01Z</time></trkpt><trkpt lat="44.0776411" lon="12.1382497"><ele>271.0</ele><time>2026-04-06T16:01:58.01Z</time></trkpt><trkpt lat="44.0778471" lon="12.1382304"><ele>269.0</ele><time>2026-04-06T16:01:59.009Z</time></trkpt><trkpt lat="44.0780467" lon="12.1382157"><ele>267.6666666666667</ele><time>2026-04-06T16:02:00.009Z</time></trkpt><trkpt lat="44.0782345" lon="12.1382002"><ele>266.3333333333333</ele><time>2026-04-06T16:02:01.011Z</time></trkpt><trkpt lat="44.0784081" lon="12.1381839"><ele>265.0</ele><time>2026-04-06T16:02:02.009Z</time></trkpt><trkpt lat="44.0785633" lon="12.138165"><ele>265.0</ele><time>2026-04-06T16:02:03.01Z</time></trkpt><trkpt lat="44.0786963" lon="12.1381519"><ele>265.0</ele><time>2026-04-06T16:02:04.009Z</time></trkpt><trkpt lat="44.0788051" lon="12.1381454"><ele>265.0</ele><time>2026-04-06T16:02:05.008Z</time></trkpt><trkpt lat="44.0788917" lon="12.1381479"><ele>265.0</ele><time>2026-04-06T16:02:06.012Z</time></trkpt><trkpt lat="44.0789754" lon="12.1381636"><ele>265.0</ele><time>2026-04-06T16:02:07.009Z</time></trkpt><trkpt lat="44.0790647" lon="12.1381962"><ele>263.75</ele><time>2026-04-06T16:02:08.013Z</time></trkpt><trkpt lat="44.079166" lon="12.1382503"><ele>262.5</ele><time>2026-04-06T16:02:09.01Z</time></trkpt><trkpt lat="44.0792735" lon="12.1383343"><ele>261.25</ele><time>2026-04-06T16:02:10.008Z</time></trkpt><trkpt lat="44.0793868" lon="12.1384428"><ele>260.0</ele><time>2026-04-06T16:02:11.009Z</time></trkpt><trkpt lat="44.0795083" lon="12.1385727"><ele>260.0</ele><time>2026-04-06T16:02:12.008Z</time></trkpt><trkpt lat="44.0796384" lon="12.1387129"><ele>260.0</ele><time>2026-04-06T16:02:13.009Z</time></trkpt><trkpt lat="44.0797762" lon="12.1388643"><ele>260.0</ele><time>2026-04-06T16:02:14.009Z</time></trkpt><trkpt lat="44.07992" lon="12.1390195"><ele>257.0</ele><time>2026-04-06T16:02:15.011Z</time></trkpt><trkpt lat="44.0800711" lon="12.1391825"><ele>254.0</ele><time>2026-04-06T16:02:16.009Z</time></trkpt><trkpt lat="44.0802232" lon="12.1393465"><ele>251.0</ele><time>2026-04-06T16:02:17.013Z</time></trkpt><trkpt lat="44.0803638" lon="12.1394986"><ele>251.0</ele><time>2026-04-06T16:02:18.009Z</time></trkpt><trkpt lat="44.0804961" lon="12.1396383"><ele>251.0</ele><time>2026-04-06T16:02:19.01Z</time></trkpt><trkpt lat="44.0806214" lon="12.1397522"><ele>251.0</ele><time>2026-04-06T16:02:20.008Z</time></trkpt><trkpt lat="44.080743" lon="12.1398359"><ele>251.33333333333334</ele><time>2026-04-06T16:02:21.01Z</time></trkpt><trkpt lat="44.0808736" lon="12.1399026"><ele>251.66666666666669</ele><time>2026-04-06T16:02:22.012Z</time></trkpt><trkpt lat="44.0810192" lon="12.1399668"><ele>252.0</ele><time>2026-04-06T16:02:23.009Z</time></trkpt><trkpt lat="44.0811759" lon="12.140044"><ele>252.0</ele><time>2026-04-06T16:02:24.009Z</time></trkpt><trkpt lat="44.0813345" lon="12.1401312"><ele>252.0</ele><time>2026-04-06T16:02:25.009Z</time></trkpt><trkpt lat="44.0814824" lon="12.1402106"><ele>252.0</ele><time>2026-04-06T16:02:26.009Z</time></trkpt><trkpt lat="44.0816147" lon="12.14027"><ele>253.5</ele><time>2026-04-06T16:02:27.011Z</time></trkpt><trkpt lat="44.0817354" lon="12.1403145"><ele>255.0</ele><time>2026-04-06T16:02:28.008Z</time></trkpt><trkpt lat="44.0818557" lon="12.1403352"><ele>256.5</ele><time>2026-04-06T16:02:29.01Z</time></trkpt><trkpt lat="44.0819829" lon="12.1403293"><ele>258.0</ele><time>2026-04-06T16:02:30.01Z</time></trkpt><trkpt lat="44.0821127" lon="12.1403078"><ele>258.0</ele><time>2026-04-06T16:02:31.013Z</time></trkpt><trkpt lat="44.0822371" lon="12.1402733"><ele>258.0</ele><time>2026-04-06T16:02:32.009Z</time></trkpt><trkpt lat="44.0823632" lon="12.1402317"><ele>258.0</ele><time>2026-04-06T16:02:33.008Z</time></trkpt><trkpt lat="44.0824858" lon="12.1401983"><ele>258.0</ele><time>2026-04-06T16:02:34.01Z</time></trkpt><trkpt lat="44.0826116" lon="12.1401842"><ele>257.0</ele><time>2026-04-06T16:02:35.009Z</time></trkpt><trkpt lat="44.0827513" lon="12.1401946"><ele>256.0</ele><time>2026-04-06T16:02:36.009Z</time></trkpt><trkpt lat="44.0829051" lon="12.1402284"><ele>255.0</ele><time>2026-04-06T16:02:37.011Z</time></trkpt><trkpt lat="44.0830692" lon="12.1402606"><ele>255.0</ele><time>2026-04-06T16:02:38.01Z</time></trkpt><trkpt lat="44.0832252" lon="12.1402781"><ele>255.0</ele><time>2026-04-06T16:02:39.01Z</time></trkpt><trkpt lat="44.083356" lon="12.1402862"><ele>255.0</ele><time>2026-04-06T16:02:40.008Z</time></trkpt><trkpt lat="44.0834629" lon="12.1402896"><ele>255.0</ele><time>2026-04-06T16:02:41.01Z</time></trkpt><trkpt lat="44.0835443" lon="12.1402931"><ele>253.83333333333334</ele><time>2026-04-06T16:02:42.01Z</time></trkpt><trkpt lat="44.0836189" lon="12.140295"><ele>252.66666666666669</ele><time>2026-04-06T16:02:43.01Z</time></trkpt><trkpt lat="44.0836922" lon="12.1402953"><ele>251.5</ele><time>2026-04-06T16:02:44.009Z</time></trkpt><trkpt lat="44.0837674" lon="12.140284"><ele>250.33333333333334</ele><time>2026-04-06T16:02:45.01Z</time></trkpt><trkpt lat="44.0838483" lon="12.1402587"><ele>249.16666666666669</ele><time>2026-04-06T16:02:46.01Z</time></trkpt><trkpt lat="44.0839277" lon="12.1402136"><ele>248.0</ele><time>2026-04-06T16:02:47.009Z</time></trkpt><trkpt lat="44.0840048" lon="12.1401417"><ele>248.0</ele><time>2026-04-06T16:02:48.01Z</time></trkpt><trkpt lat="44.084087" lon="12.1400301"><ele>248.0</ele><time>2026-04-06T16:02:49.01Z</time></trkpt><trkpt lat="44.0841725" lon="12.1398923"><ele>248.0</ele><time>2026-04-06T16:02:50.009Z</time></trkpt><trkpt lat="44.0842635" lon="12.1397371"><ele>248.0</ele><time>2026-04-06T16:02:51.012Z</time></trkpt><trkpt lat="44.0843583" lon="12.1395744"><ele>244.5</ele><time>2026-04-06T16:02:52.01Z</time></trkpt><trkpt lat="44.0844523" lon="12.1394154"><ele>241.0</ele><time>2026-04-06T16:02:53.011Z</time></trkpt><trkpt lat="44.0845439" lon="12.1392605"><ele>237.5</ele><time>2026-04-06T16:02:54.009Z</time></trkpt><trkpt lat="44.0846338" lon="12.1391127"><ele>234.0</ele><time>2026-04-06T16:02:55.01Z</time></trkpt><trkpt lat="44.0847258" lon="12.1389713"><ele>231.75</ele><time>2026-04-06T16:02:56.009Z</time></trkpt><trkpt lat="44.0848205" lon="12.1388332"><ele>229.5</ele><time>2026-04-06T16:02:57.013Z</time></trkpt><trkpt lat="44.0849203" lon="12.1386944"><ele>227.25</ele><time>2026-04-06T16:02:58.008Z</time></trkpt><trkpt lat="44.0850294" lon="12.1385553"><ele>225.0</ele><time>2026-04-06T16:02:59.009Z</time></trkpt><trkpt lat="44.0851467" lon="12.1384197"><ele>225.0</ele><time>2026-04-06T16:03:00.01Z</time></trkpt><trkpt lat="44.0852653" lon="12.1382872"><ele>225.0</ele><time>2026-04-06T16:03:01.01Z</time></trkpt><trkpt lat="44.0853807" lon="12.1381562"><ele>225.0</ele><time>2026-04-06T16:03:02.011Z</time></trkpt><trkpt lat="44.0854932" lon="12.1380232"><ele>225.0</ele><time>2026-04-06T16:03:03.01Z</time></trkpt><trkpt lat="44.0856017" lon="12.1378902"><ele>221.75</ele><time>2026-04-06T16:03:04.008Z</time></trkpt><trkpt lat="44.0857073" lon="12.1377637"><ele>218.5</ele><time>2026-04-06T16:03:05.008Z</time></trkpt><trkpt lat="44.0858119" lon="12.1376436"><ele>215.25</ele><time>2026-04-06T16:03:06.01Z</time></trkpt><trkpt lat="44.0859164" lon="12.1375288"><ele>212.0</ele><time>2026-04-06T16:03:07.01Z</time></trkpt><trkpt lat="44.0860201" lon="12.1374123"><ele>209.25</ele><time>2026-04-06T16:03:08.009Z</time></trkpt><trkpt lat="44.0861221" lon="12.1372938"><ele>206.5</ele><time>2026-04-06T16:03:09.01Z</time></trkpt><trkpt lat="44.0862216" lon="12.1371775"><ele>203.75</ele><time>2026-04-06T16:03:10.01Z</time></trkpt><trkpt lat="44.0863159" lon="12.137072"><ele>201.0</ele><time>2026-04-06T16:03:11.008Z</time></trkpt><trkpt lat="44.0864035" lon="12.1369741"><ele>201.0</ele><time>2026-04-06T16:03:12.011Z</time></trkpt><trkpt lat="44.086486" lon="12.1368696"><ele>201.0</ele><time>2026-04-06T16:03:13.01Z</time></trkpt><trkpt lat="44.0865661" lon="12.1367564"><ele>201.0</ele><time>2026-04-06T16:03:14.009Z</time></trkpt><trkpt lat="44.0866481" lon="12.1366364"><ele>201.0</ele><time>2026-04-06T16:03:15.009Z</time></trkpt><trkpt lat="44.0867313" lon="12.1365078"><ele>196.5</ele><time>2026-04-06T16:03:16.006Z</time></trkpt><trkpt lat="44.0868158" lon="12.1363604"><ele>192.0</ele><time>2026-04-06T16:03:17.007Z</time></trkpt><trkpt lat="44.0868981" lon="12.1362065"><ele>187.5</ele><time>2026-04-06T16:03:18.008Z</time></trkpt><trkpt lat="44.086984" lon="12.1360487"><ele>183.0</ele><time>2026-04-06T16:03:19.013Z</time></trkpt><trkpt lat="44.0870708" lon="12.135883"><ele>180.66666666666666</ele><time>2026-04-06T16:03:20.008Z</time></trkpt><trkpt lat="44.0871577" lon="12.1357056"><ele>178.33333333333331</ele><time>2026-04-06T16:03:21.008Z</time></trkpt><trkpt lat="44.0872404" lon="12.1355131"><ele>176.0</ele><time>2026-04-06T16:03:22.01Z</time></trkpt><trkpt lat="44.0873228" lon="12.1353069"><ele>176.0</ele><time>2026-04-06T16:03:23.01Z</time></trkpt><trkpt lat="44.0874063" lon="12.1350942"><ele>176.0</ele><time>2026-04-06T16:03:24.009Z</time></trkpt><trkpt lat="44.0874871" lon="12.1348725"><ele>176.0</ele><time>2026-04-06T16:03:25.016Z</time></trkpt><trkpt lat="44.0875573" lon="12.1346432"><ele>172.33333333333331</ele><time>2026-04-06T16:03:26.009Z</time></trkpt><trkpt lat="44.0876188" lon="12.1344031"><ele>168.66666666666666</ele><time>2026-04-06T16:03:27.009Z</time></trkpt><trkpt lat="44.0876768" lon="12.1341373"><ele>165.0</ele><time>2026-04-06T16:03:28.007Z</time></trkpt><trkpt lat="44.0877332" lon="12.1338649"><ele>163.33333333333334</ele><time>2026-04-06T16:03:29.011Z</time></trkpt><trkpt lat="44.087784" lon="12.1336074"><ele>161.66666666666669</ele><time>2026-04-06T16:03:30.009Z</time></trkpt><trkpt lat="44.0878306" lon="12.133365"><ele>160.0</ele><time>2026-04-06T16:03:31.011Z</time></trkpt><trkpt lat="44.0878727" lon="12.1331415"><ele>158.5</ele><time>2026-04-06T16:03:32.009Z</time></trkpt><trkpt lat="44.0879124" lon="12.1329306"><ele>157.0</ele><time>2026-04-06T16:03:33.009Z</time></trkpt><trkpt lat="44.0879506" lon="12.1327299"><ele>155.5</ele><time>2026-04-06T16:03:34.011Z</time></trkpt><trkpt lat="44.0879941" lon="12.1325434"><ele>154.0</ele><time>2026-04-06T16:03:35.009Z</time></trkpt><trkpt lat="44.0880435" lon="12.132371"><ele>152.25</ele><time>2026-04-06T16:03:36.013Z</time></trkpt><trkpt lat="44.0881023" lon="12.1322154"><ele>150.5</ele><time>2026-04-06T16:03:37.01Z</time></trkpt><trkpt lat="44.0881742" lon="12.1320729"><ele>148.75</ele><time>2026-04-06T16:03:38.009Z</time></trkpt><trkpt lat="44.0882598" lon="12.1319413"><ele>147.0</ele><time>2026-04-06T16:03:39.011Z</time></trkpt><trkpt lat="44.0883625" lon="12.1318219"><ele>146.33333333333334</ele><time>2026-04-06T16:03:40.009Z</time></trkpt><trkpt lat="44.0884838" lon="12.131719"><ele>145.66666666666669</ele><time>2026-04-06T16:03:41.013Z</time></trkpt><trkpt lat="44.0886227" lon="12.131622"><ele>145.0</ele><time>2026-04-06T16:03:42.009Z</time></trkpt><trkpt lat="44.088781" lon="12.1315274"><ele>142.66666666666669</ele><time>2026-04-06T16:03:43.011Z</time></trkpt><trkpt lat="44.0889478" lon="12.1314293"><ele>140.33333333333334</ele><time>2026-04-06T16:03:44.01Z</time></trkpt><trkpt lat="44.0891225" lon="12.1313259"><ele>138.0</ele><time>2026-04-06T16:03:45.009Z</time></trkpt><trkpt lat="44.0893024" lon="12.1312162"><ele>136.33333333333334</ele><time>2026-04-06T16:03:46.013Z</time></trkpt><trkpt lat="44.0894887" lon="12.1311029"><ele>134.66666666666669</ele><time>2026-04-06T16:03:47.009Z</time></trkpt><trkpt lat="44.0896736" lon="12.1309871"><ele>133.0</ele><time>2026-04-06T16:03:48.016Z</time></trkpt><trkpt lat="44.0898461" lon="12.1308708"><ele>132.66666666666669</ele><time>2026-04-06T16:03:49.008Z</time></trkpt><trkpt lat="44.0900077" lon="12.1307611"><ele>132.33333333333334</ele><time>2026-04-06T16:03:50.008Z</time></trkpt><trkpt lat="44.0901544" lon="12.1306555"><ele>132.0</ele><time>2026-04-06T16:03:51.01Z</time></trkpt><trkpt lat="44.0902888" lon="12.1305526"><ele>131.75</ele><time>2026-04-06T16:03:52.008Z</time></trkpt><trkpt lat="44.0904099" lon="12.1304485"><ele>131.5</ele><time>2026-04-06T16:03:53.015Z</time></trkpt><trkpt lat="44.0905179" lon="12.1303495"><ele>131.25</ele><time>2026-04-06T16:03:54.01Z</time></trkpt><trkpt lat="44.0906145" lon="12.130255"><ele>131.0</ele><time>2026-04-06T16:03:55.009Z</time></trkpt><trkpt lat="44.0906952" lon="12.1301793"><ele>131.57142857142858</ele><time>2026-04-06T16:03:56.009Z</time></trkpt><trkpt lat="44.090765" lon="12.1301215"><ele>132.14285714285717</ele><time>2026-04-06T16:03:57.011Z</time></trkpt><trkpt lat="44.0908317" lon="12.130078"><ele>132.71428571428572</ele><time>2026-04-06T16:03:58.014Z</time></trkpt><trkpt lat="44.0908956" lon="12.1300404"><ele>133.28571428571428</ele><time>2026-04-06T16:03:59.01Z</time></trkpt><trkpt lat="44.090952" lon="12.1299876"><ele>133.85714285714283</ele><time>2026-04-06T16:04:00.009Z</time></trkpt><trkpt lat="44.0909969" lon="12.1299235"><ele>134.42857142857142</ele><time>2026-04-06T16:04:01.009Z</time></trkpt><trkpt lat="44.0910304" lon="12.1298488"><ele>135.0</ele><time>2026-04-06T16:04:02.01Z</time></trkpt><trkpt lat="44.0910437" lon="12.1297593"><ele>135.0</ele><time>2026-04-06T16:04:03.012Z</time></trkpt><trkpt lat="44.0910284" lon="12.1296505"><ele>135.0</ele><time>2026-04-06T16:04:04.009Z</time></trkpt><trkpt lat="44.09099" lon="12.129524"><ele>135.0</ele><time>2026-04-06T16:04:05.008Z</time></trkpt><trkpt lat="44.0909511" lon="12.1293947"><ele>135.0</ele><time>2026-04-06T16:04:06.011Z</time></trkpt><trkpt lat="44.0909085" lon="12.1292588"><ele>135.0</ele><time>2026-04-06T16:04:07.009Z</time></trkpt><trkpt lat="44.0908678" lon="12.1291207"><ele>133.6</ele><time>2026-04-06T16:04:08.016Z</time></trkpt><trkpt lat="44.0908377" lon="12.1289897"><ele>132.2</ele><time>2026-04-06T16:04:09.009Z</time></trkpt><trkpt lat="44.0908141" lon="12.1288472"><ele>130.8</ele><time>2026-04-06T16:04:10.01Z</time></trkpt><trkpt lat="44.0908029" lon="12.1286999"><ele>129.4</ele><time>2026-04-06T16:04:11.01Z</time></trkpt><trkpt lat="44.0908032" lon="12.1285396"><ele>128.0</ele><time>2026-04-06T16:04:12.011Z</time></trkpt><trkpt lat="44.0908076" lon="12.1283682"><ele>126.25</ele><time>2026-04-06T16:04:13.01Z</time></trkpt><trkpt lat="44.0908107" lon="12.1281839"><ele>124.5</ele><time>2026-04-06T16:04:14.009Z</time></trkpt><trkpt lat="44.0908121" lon="12.1279913"><ele>122.75</ele><time>2026-04-06T16:04:15.01Z</time></trkpt><trkpt lat="44.0908127" lon="12.1277896"><ele>121.0</ele><time>2026-04-06T16:04:16.008Z</time></trkpt><trkpt lat="44.09081" lon="12.1275877"><ele>121.0</ele><time>2026-04-06T16:04:17.013Z</time></trkpt><trkpt lat="44.0908062" lon="12.127399"><ele>121.0</ele><time>2026-04-06T16:04:18.011Z</time></trkpt><trkpt lat="44.0908034" lon="12.1272204"><ele>121.0</ele><time>2026-04-06T16:04:19.01Z</time></trkpt><trkpt lat="44.0908056" lon="12.1270553"><ele>121.0</ele><time>2026-04-06T16:04:20.008Z</time></trkpt><trkpt lat="44.0908165" lon="12.1268988"><ele>120.0</ele><time>2026-04-06T16:04:21.009Z</time></trkpt><trkpt lat="44.0908469" lon="12.1267521"><ele>119.0</ele><time>2026-04-06T16:04:22.01Z</time></trkpt><trkpt lat="44.0908887" lon="12.1266049"><ele>118.0</ele><time>2026-04-06T16:04:23.009Z</time></trkpt><trkpt lat="44.0909379" lon="12.1264532"><ele>117.0</ele><time>2026-04-06T16:04:24.01Z</time></trkpt><trkpt lat="44.0909862" lon="12.1263014"><ele>116.5</ele><time>2026-04-06T16:04:25.013Z</time></trkpt><trkpt lat="44.0910319" lon="12.126148"><ele>116.0</ele><time>2026-04-06T16:04:26.009Z</time></trkpt><trkpt lat="44.0910717" lon="12.1259909"><ele>115.5</ele><time>2026-04-06T16:04:27.009Z</time></trkpt><trkpt lat="44.091104" lon="12.1258283"><ele>115.0</ele><time>2026-04-06T16:04:28.009Z</time></trkpt><trkpt lat="44.0911348" lon="12.1256617"><ele>115.0</ele><time>2026-04-06T16:04:29.008Z</time></trkpt><trkpt lat="44.0911751" lon="12.1254964"><ele>115.0</ele><time>2026-04-06T16:04:30.009Z</time></trkpt><trkpt lat="44.0912365" lon="12.1253393"><ele>115.0</ele><time>2026-04-06T16:04:31.015Z</time></trkpt><trkpt lat="44.0913274" lon="12.1251906"><ele>115.0</ele><time>2026-04-06T16:04:32.01Z</time></trkpt><trkpt lat="44.0914473" lon="12.1250341"><ele>114.66666666666667</ele><time>2026-04-06T16:04:33.011Z</time></trkpt><trkpt lat="44.0915964" lon="12.1248615"><ele>114.33333333333334</ele><time>2026-04-06T16:04:34.009Z</time></trkpt><trkpt lat="44.0917549" lon="12.1246812"><ele>114.0</ele><time>2026-04-06T16:04:35.009Z</time></trkpt><trkpt lat="44.0919023" lon="12.1245056"><ele>114.0</ele><time>2026-04-06T16:04:36.008Z</time></trkpt><trkpt lat="44.0920376" lon="12.1243326"><ele>114.0</ele><time>2026-04-06T16:04:37.008Z</time></trkpt><trkpt lat="44.0921659" lon="12.1241439"><ele>114.0</ele><time>2026-04-06T16:04:38.011Z</time></trkpt><trkpt lat="44.0922903" lon="12.1239245"><ele>112.5</ele><time>2026-04-06T16:04:39.009Z</time></trkpt><trkpt lat="44.092409" lon="12.1236974"><ele>111.0</ele><time>2026-04-06T16:04:40.013Z</time></trkpt><trkpt lat="44.0926238" lon="12.123335"><ele>113.5</ele><time>2026-04-06T16:04:41.917Z</time></trkpt><trkpt lat="44.0927583" lon="12.1232153"><ele>116.0</ele><time>2026-04-06T16:04:43.09Z</time></trkpt><trkpt lat="44.0930069" lon="12.1228221"><ele>116.0</ele><time>2026-04-06T16:04:45.009Z</time></trkpt><trkpt lat="44.0931221" lon="12.1226119"><ele>116.0</ele><time>2026-04-06T16:04:46.009Z</time></trkpt><trkpt lat="44.0932363" lon="12.1224149"><ele>116.0</ele><time>2026-04-06T16:04:47.009Z</time></trkpt><trkpt lat="44.0933566" lon="12.1222197"><ele>113.66666666666666</ele><time>2026-04-06T16:04:48.01Z</time></trkpt><trkpt lat="44.0934727" lon="12.1220372"><ele>111.33333333333334</ele><time>2026-04-06T16:04:49.009Z</time></trkpt><trkpt lat="44.0935935" lon="12.1218609"><ele>109.0</ele><time>2026-04-06T16:04:50.011Z</time></trkpt><trkpt lat="44.0937288" lon="12.1216879"><ele>108.33333333333334</ele><time>2026-04-06T16:04:51.009Z</time></trkpt><trkpt lat="44.0938749" lon="12.12152"><ele>107.66666666666666</ele><time>2026-04-06T16:04:52.009Z</time></trkpt><trkpt lat="44.0940223" lon="12.1213581"><ele>107.0</ele><time>2026-04-06T16:04:53.009Z</time></trkpt><trkpt lat="44.0941703" lon="12.1211971"><ele>107.0</ele><time>2026-04-06T16:04:54.009Z</time></trkpt><trkpt lat="44.0943211" lon="12.1210382"><ele>107.0</ele><time>2026-04-06T16:04:55.013Z</time></trkpt><trkpt lat="44.0944744" lon="12.1208815"><ele>107.0</ele><time>2026-04-06T16:04:56.009Z</time></trkpt><trkpt lat="44.0946318" lon="12.1207184"><ele>107.33333333333333</ele><time>2026-04-06T16:04:57.01Z</time></trkpt><trkpt lat="44.0947909" lon="12.1205456"><ele>107.66666666666666</ele><time>2026-04-06T16:04:58.011Z</time></trkpt><trkpt lat="44.0949437" lon="12.1203752"><ele>108.0</ele><time>2026-04-06T16:04:59.01Z</time></trkpt><trkpt lat="44.0950888" lon="12.1202148"><ele>108.33333333333334</ele><time>2026-04-06T16:05:00.01Z</time></trkpt><trkpt lat="44.0952345" lon="12.1200673"><ele>108.66666666666667</ele><time>2026-04-06T16:05:01.011Z</time></trkpt><trkpt lat="44.0953838" lon="12.1199266"><ele>109.0</ele><time>2026-04-06T16:05:02.011Z</time></trkpt><trkpt lat="44.0955459" lon="12.1197881"><ele>109.0</ele><time>2026-04-06T16:05:03.011Z</time></trkpt><trkpt lat="44.0957178" lon="12.1196561"><ele>109.0</ele><time>2026-04-06T16:05:04.011Z</time></trkpt><trkpt lat="44.0958929" lon="12.1195266"><ele>109.0</ele><time>2026-04-06T16:05:05.01Z</time></trkpt><trkpt lat="44.0960713" lon="12.1193979"><ele>109.0</ele><time>2026-04-06T16:05:06.011Z</time></trkpt><trkpt lat="44.0962467" lon="12.1192762"><ele>109.0</ele><time>2026-04-06T16:05:07.012Z</time></trkpt><trkpt lat="44.096415" lon="12.1191626"><ele>109.0</ele><time>2026-04-06T16:05:08.011Z</time></trkpt><trkpt lat="44.0965776" lon="12.1190536"><ele>107.33333333333334</ele><time>2026-04-06T16:05:09.014Z</time></trkpt><trkpt lat="44.0967337" lon="12.1189487"><ele>105.66666666666666</ele><time>2026-04-06T16:05:10.011Z</time></trkpt><trkpt lat="44.0968858" lon="12.118841"><ele>104.0</ele><time>2026-04-06T16:05:11.013Z</time></trkpt><trkpt lat="44.0970314" lon="12.1187344"><ele>104.0</ele><time>2026-04-06T16:05:12.011Z</time></trkpt><trkpt lat="44.0971701" lon="12.1186334"><ele>104.0</ele><time>2026-04-06T16:05:13.011Z</time></trkpt><trkpt lat="44.0973047" lon="12.1185422"><ele>104.0</ele><time>2026-04-06T16:05:14.01Z</time></trkpt><trkpt lat="44.0974377" lon="12.1184702"><ele>104.0</ele><time>2026-04-06T16:05:15.011Z</time></trkpt><trkpt lat="44.0975776" lon="12.1184229"><ele>102.75</ele><time>2026-04-06T16:05:16.013Z</time></trkpt><trkpt lat="44.0977191" lon="12.1183983"><ele>101.5</ele><time>2026-04-06T16:05:17.01Z</time></trkpt><trkpt lat="44.0978543" lon="12.1183937"><ele>100.25</ele><time>2026-04-06T16:05:18.01Z</time></trkpt><trkpt lat="44.0979779" lon="12.1184027"><ele>99.0</ele><time>2026-04-06T16:05:19.01Z</time></trkpt><trkpt lat="44.0980911" lon="12.1184149"><ele>99.0</ele><time>2026-04-06T16:05:20.01Z</time></trkpt><trkpt lat="44.0981952" lon="12.1184277"><ele>99.0</ele><time>2026-04-06T16:05:21.01Z</time></trkpt><trkpt lat="44.0982905" lon="12.1184387"><ele>99.0</ele><time>2026-04-06T16:05:22.01Z</time></trkpt><trkpt lat="44.09838" lon="12.1184514"><ele>99.0</ele><time>2026-04-06T16:05:23.01Z</time></trkpt><trkpt lat="44.0984619" lon="12.1184649"><ele>99.0</ele><time>2026-04-06T16:05:24.009Z</time></trkpt><trkpt lat="44.0985368" lon="12.1184732"><ele>99.0</ele><time>2026-04-06T16:05:25.01Z</time></trkpt><trkpt lat="44.0986021" lon="12.1184815"><ele>98.5</ele><time>2026-04-06T16:05:26.009Z</time></trkpt><trkpt lat="44.0987263" lon="12.1184982"><ele>98.0</ele><time>2026-04-06T16:05:28.01Z</time></trkpt><trkpt lat="44.0987912" lon="12.1185078"><ele>97.5</ele><time>2026-04-06T16:05:29.014Z</time></trkpt><trkpt lat="44.0988625" lon="12.1185178"><ele>97.0</ele><time>2026-04-06T16:05:30.01Z</time></trkpt><trkpt lat="44.0989416" lon="12.118529"><ele>96.5</ele><time>2026-04-06T16:05:31.01Z</time></trkpt><trkpt lat="44.0990316" lon="12.1185435"><ele>96.0</ele><time>2026-04-06T16:05:32.009Z</time></trkpt><trkpt lat="44.0991379" lon="12.1185591"><ele>95.75</ele><time>2026-04-06T16:05:33.012Z</time></trkpt><trkpt lat="44.0992627" lon="12.118576"><ele>95.5</ele><time>2026-04-06T16:05:34.01Z</time></trkpt><trkpt lat="44.0994033" lon="12.1185913"><ele>95.25</ele><time>2026-04-06T16:05:35.011Z</time></trkpt><trkpt lat="44.0995548" lon="12.1186047"><ele>95.0</ele><time>2026-04-06T16:05:36.011Z</time></trkpt><trkpt lat="44.0997059" lon="12.1186189"><ele>95.0</ele><time>2026-04-06T16:05:37.009Z</time></trkpt><trkpt lat="44.0998534" lon="12.1186321"><ele>95.0</ele><time>2026-04-06T16:05:38.015Z</time></trkpt><trkpt lat="44.0999955" lon="12.1186455"><ele>95.0</ele><time>2026-04-06T16:05:39.01Z</time></trkpt><trkpt lat="44.1001433" lon="12.1186597"><ele>95.0</ele><time>2026-04-06T16:05:40.012Z</time></trkpt><trkpt lat="44.1003019" lon="12.1186794"><ele>94.33333333333334</ele><time>2026-04-06T16:05:41.01Z</time></trkpt><trkpt lat="44.1004655" lon="12.1187021"><ele>93.66666666666667</ele><time>2026-04-06T16:05:42.011Z</time></trkpt><trkpt lat="44.1006217" lon="12.1187196"><ele>93.0</ele><time>2026-04-06T16:05:43.012Z</time></trkpt><trkpt lat="44.1007698" lon="12.1187221"><ele>92.5</ele><time>2026-04-06T16:05:44.009Z</time></trkpt><trkpt lat="44.1009067" lon="12.1186849"><ele>92.0</ele><time>2026-04-06T16:05:45.01Z</time></trkpt><trkpt lat="44.1010371" lon="12.1186033"><ele>91.5</ele><time>2026-04-06T16:05:46.009Z</time></trkpt><trkpt lat="44.1011629" lon="12.1184769"><ele>91.0</ele><time>2026-04-06T16:05:47.011Z</time></trkpt><trkpt lat="44.1012874" lon="12.1183128"><ele>90.66666666666666</ele><time>2026-04-06T16:05:48.011Z</time></trkpt><trkpt lat="44.101406" lon="12.1181424"><ele>90.33333333333333</ele><time>2026-04-06T16:05:49.01Z</time></trkpt><trkpt lat="44.1015151" lon="12.1179962"><ele>90.0</ele><time>2026-04-06T16:05:50.012Z</time></trkpt><trkpt lat="44.1016193" lon="12.1178863"><ele>90.0</ele><time>2026-04-06T16:05:51.011Z</time></trkpt><trkpt lat="44.1017228" lon="12.1178188"><ele>90.0</ele><time>2026-04-06T16:05:52.01Z</time></trkpt><trkpt lat="44.1018387" lon="12.1177937"><ele>90.0</ele><time>2026-04-06T16:05:53.009Z</time></trkpt><trkpt lat="44.1019804" lon="12.1178059"><ele>90.0</ele><time>2026-04-06T16:05:54.009Z</time></trkpt><trkpt lat="44.1021408" lon="12.1178313"><ele>90.0</ele><time>2026-04-06T16:05:55.013Z</time></trkpt><trkpt lat="44.1023177" lon="12.1178556"><ele>90.0</ele><time>2026-04-06T16:05:56.01Z</time></trkpt><trkpt lat="44.10251" lon="12.11788"><ele>90.0</ele><time>2026-04-06T16:05:57.013Z</time></trkpt><trkpt lat="44.1027207" lon="12.117897"><ele>90.0</ele><time>2026-04-06T16:05:58.01Z</time></trkpt><trkpt lat="44.1029343" lon="12.1179082"><ele>90.0</ele><time>2026-04-06T16:05:59.009Z</time></trkpt><trkpt lat="44.1031409" lon="12.117912"><ele>90.0</ele><time>2026-04-06T16:06:00.01Z</time></trkpt><trkpt lat="44.1033307" lon="12.1179099"><ele>90.33333333333333</ele><time>2026-04-06T16:06:01.01Z</time></trkpt><trkpt lat="44.1035045" lon="12.117909"><ele>90.66666666666666</ele><time>2026-04-06T16:06:02.012Z</time></trkpt><trkpt lat="44.1036592" lon="12.1179107"><ele>91.0</ele><time>2026-04-06T16:06:03.009Z</time></trkpt><trkpt lat="44.1038071" lon="12.1179125"><ele>91.0</ele><time>2026-04-06T16:06:04.01Z</time></trkpt><trkpt lat="44.1039484" lon="12.1179154"><ele>91.0</ele><time>2026-04-06T16:06:05.01Z</time></trkpt><trkpt lat="44.104086" lon="12.1179187"><ele>91.0</ele><time>2026-04-06T16:06:06.014Z</time></trkpt><trkpt lat="44.1042205" lon="12.1179239"><ele>91.0</ele><time>2026-04-06T16:06:07.01Z</time></trkpt><trkpt lat="44.1043593" lon="12.1179291"><ele>91.0</ele><time>2026-04-06T16:06:08.01Z</time></trkpt><trkpt lat="44.1045022" lon="12.1179353"><ele>91.0</ele><time>2026-04-06T16:06:09.013Z</time></trkpt><trkpt lat="44.1046473" lon="12.1179398"><ele>91.0</ele><time>2026-04-06T16:06:10.01Z</time></trkpt><trkpt lat="44.1047942" lon="12.1179422"><ele>91.0</ele><time>2026-04-06T16:06:11.008Z</time></trkpt><trkpt lat="44.1049412" lon="12.1179443"><ele>89.33333333333333</ele><time>2026-04-06T16:06:12.012Z</time></trkpt><trkpt lat="44.1050905" lon="12.1179541"><ele>87.66666666666667</ele><time>2026-04-06T16:06:13.01Z</time></trkpt><trkpt lat="44.1052453" lon="12.1179788"><ele>86.0</ele><time>2026-04-06T16:06:14.014Z</time></trkpt><trkpt lat="44.1054111" lon="12.1180294"><ele>86.0</ele><time>2026-04-06T16:06:15.009Z</time></trkpt><trkpt lat="44.105582" lon="12.1181107"><ele>86.0</ele><time>2026-04-06T16:06:16.01Z</time></trkpt><trkpt lat="44.1057503" lon="12.1182017"><ele>86.0</ele><time>2026-04-06T16:06:17.01Z</time></trkpt><trkpt lat="44.1059173" lon="12.1182779"><ele>84.66666666666667</ele><time>2026-04-06T16:06:18.01Z</time></trkpt><trkpt lat="44.1060832" lon="12.118321"><ele>83.33333333333333</ele><time>2026-04-06T16:06:19.01Z</time></trkpt><trkpt lat="44.106236" lon="12.1183407"><ele>82.0</ele><time>2026-04-06T16:06:20.009Z</time></trkpt><trkpt lat="44.1063725" lon="12.1183672"><ele>82.0</ele><time>2026-04-06T16:06:21.01Z</time></trkpt><trkpt lat="44.1065" lon="12.1184286"><ele>82.0</ele><time>2026-04-06T16:06:22.009Z</time></trkpt><trkpt lat="44.1066335" lon="12.1185335"><ele>82.0</ele><time>2026-04-06T16:06:23.012Z</time></trkpt><trkpt lat="44.106784" lon="12.1186701"><ele>81.66666666666666</ele><time>2026-04-06T16:06:24.01Z</time></trkpt><trkpt lat="44.1069495" lon="12.1188188"><ele>81.33333333333333</ele><time>2026-04-06T16:06:25.012Z</time></trkpt><trkpt lat="44.1071058" lon="12.1189575"><ele>81.0</ele><time>2026-04-06T16:06:26.01Z</time></trkpt><trkpt lat="44.1072386" lon="12.1190671"><ele>81.0</ele><time>2026-04-06T16:06:27.01Z</time></trkpt><trkpt lat="44.1073507" lon="12.1191335"><ele>81.0</ele><time>2026-04-06T16:06:28.009Z</time></trkpt><trkpt lat="44.1074607" lon="12.1191529"><ele>81.0</ele><time>2026-04-06T16:06:29.009Z</time></trkpt><trkpt lat="44.1075709" lon="12.1191215"><ele>81.0</ele><time>2026-04-06T16:06:30.014Z</time></trkpt><trkpt lat="44.1076859" lon="12.1190572"><ele>81.0</ele><time>2026-04-06T16:06:31.009Z</time></trkpt><trkpt lat="44.107789" lon="12.1189858"><ele>81.0</ele><time>2026-04-06T16:06:32.009Z</time></trkpt><trkpt lat="44.107871" lon="12.1189239"><ele>81.0</ele><time>2026-04-06T16:06:33.011Z</time></trkpt><trkpt lat="44.1079492" lon="12.1188636"><ele>81.0</ele><time>2026-04-06T16:06:34.01Z</time></trkpt><trkpt lat="44.108041" lon="12.1187988"><ele>81.0</ele><time>2026-04-06T16:06:35.01Z</time></trkpt><trkpt lat="44.1081479" lon="12.1187302"><ele>80.5</ele><time>2026-04-06T16:06:36.01Z</time></trkpt><trkpt lat="44.1082681" lon="12.1186599"><ele>80.0</ele><time>2026-04-06T16:06:37.015Z</time></trkpt><trkpt lat="44.1083922" lon="12.1185815"><ele>79.5</ele><time>2026-04-06T16:06:38.009Z</time></trkpt><trkpt lat="44.1085239" lon="12.1184992"><ele>79.0</ele><time>2026-04-06T16:06:39.01Z</time></trkpt><trkpt lat="44.1086573" lon="12.118404"><ele>79.0</ele><time>2026-04-06T16:06:40.011Z</time></trkpt><trkpt lat="44.1087912" lon="12.1182915"><ele>79.0</ele><time>2026-04-06T16:06:41.01Z</time></trkpt><trkpt lat="44.1089252" lon="12.1181502"><ele>79.0</ele><time>2026-04-06T16:06:42.01Z</time></trkpt><trkpt lat="44.1090627" lon="12.1179726"><ele>79.0</ele><time>2026-04-06T16:06:43.01Z</time></trkpt><trkpt lat="44.1092102" lon="12.117779"><ele>79.0</ele><time>2026-04-06T16:06:44.01Z</time></trkpt><trkpt lat="44.1093691" lon="12.1175894"><ele>79.0</ele><time>2026-04-06T16:06:45.01Z</time></trkpt><trkpt lat="44.1095214" lon="12.117386"><ele>79.0</ele><time>2026-04-06T16:06:46.015Z</time></trkpt><trkpt lat="44.1096717" lon="12.1171675"><ele>79.0</ele><time>2026-04-06T16:06:47.01Z</time></trkpt><trkpt lat="44.1098191" lon="12.1169392"><ele>79.0</ele><time>2026-04-06T16:06:48.008Z</time></trkpt><trkpt lat="44.1099651" lon="12.1167033"><ele>78.33333333333333</ele><time>2026-04-06T16:06:49.009Z</time></trkpt><trkpt lat="44.1101098" lon="12.1164671"><ele>77.66666666666667</ele><time>2026-04-06T16:06:50.008Z</time></trkpt><trkpt lat="44.11026" lon="12.11624"><ele>77.0</ele><time>2026-04-06T16:06:51.007Z</time></trkpt><trkpt lat="44.1104067" lon="12.1160217"><ele>77.0</ele><time>2026-04-06T16:06:52.008Z</time></trkpt><trkpt lat="44.1105417" lon="12.1158033"><ele>77.0</ele><time>2026-04-06T16:06:53.009Z</time></trkpt><trkpt lat="44.110675" lon="12.1156067"><ele>77.0</ele><time>2026-04-06T16:06:54.011Z</time></trkpt><trkpt lat="44.1107967" lon="12.1154083"><ele>76.0</ele><time>2026-04-06T16:06:55.01Z</time></trkpt><trkpt lat="44.1109033" lon="12.11521"><ele>75.0</ele><time>2026-04-06T16:06:56.012Z</time></trkpt><trkpt lat="44.1110033" lon="12.1150283"><ele>74.0</ele><time>2026-04-06T16:06:57.01Z</time></trkpt><trkpt lat="44.1110833" lon="12.1148283"><ele>74.0</ele><time>2026-04-06T16:06:58.008Z</time></trkpt><trkpt lat="44.111125" lon="12.1146017"><ele>74.0</ele><time>2026-04-06T16:06:59.009Z</time></trkpt><trkpt lat="44.111155" lon="12.1143717"><ele>74.0</ele><time>2026-04-06T16:07:00.009Z</time></trkpt><trkpt lat="44.111185" lon="12.1141417"><ele>74.33333333333334</ele><time>2026-04-06T16:07:01.009Z</time></trkpt><trkpt lat="44.1112267" lon="12.1139117"><ele>74.66666666666667</ele><time>2026-04-06T16:07:02.01Z</time></trkpt><trkpt lat="44.1112817" lon="12.1136817"><ele>75.0</ele><time>2026-04-06T16:07:03.01Z</time></trkpt><trkpt lat="44.1113533" lon="12.1134617"><ele>75.0</ele><time>2026-04-06T16:07:04.008Z</time></trkpt><trkpt lat="44.1114483" lon="12.113255"><ele>75.0</ele><time>2026-04-06T16:07:05.01Z</time></trkpt><trkpt lat="44.1115783" lon="12.1130667"><ele>75.0</ele><time>2026-04-06T16:07:06.008Z</time></trkpt><trkpt lat="44.1117167" lon="12.112895"><ele>73.66666666666667</ele><time>2026-04-06T16:07:07.009Z</time></trkpt><trkpt lat="44.1118433" lon="12.1127233"><ele>72.33333333333334</ele><time>2026-04-06T16:07:08.01Z</time></trkpt><trkpt lat="44.1119517" lon="12.112545"><ele>71.0</ele><time>2026-04-06T16:07:09.009Z</time></trkpt><trkpt lat="44.1120417" lon="12.1123467"><ele>71.0</ele><time>2026-04-06T16:07:10.013Z</time></trkpt><trkpt lat="44.112105" lon="12.112115"><ele>71.0</ele><time>2026-04-06T16:07:11.007Z</time></trkpt><trkpt lat="44.1121533" lon="12.1118717"><ele>71.0</ele><time>2026-04-06T16:07:12.006Z</time></trkpt><trkpt lat="44.1121933" lon="12.1116283"><ele>72.66666666666667</ele><time>2026-04-06T16:07:13.008Z</time></trkpt><trkpt lat="44.11223" lon="12.1113967"><ele>74.33333333333333</ele><time>2026-04-06T16:07:14.009Z</time></trkpt><trkpt lat="44.1122683" lon="12.11118"><ele>76.0</ele><time>2026-04-06T16:07:15.011Z</time></trkpt><trkpt lat="44.112305" lon="12.1109783"><ele>76.0</ele><time>2026-04-06T16:07:16.01Z</time></trkpt><trkpt lat="44.112345" lon="12.1107883"><ele>76.0</ele><time>2026-04-06T16:07:17.011Z</time></trkpt><trkpt lat="44.1124067" lon="12.11061"><ele>76.0</ele><time>2026-04-06T16:07:18.008Z</time></trkpt><trkpt lat="44.1124967" lon="12.1104433"><ele>76.0</ele><time>2026-04-06T16:07:19.006Z</time></trkpt><trkpt lat="44.1126133" lon="12.1102933"><ele>75.0</ele><time>2026-04-06T16:07:20.008Z</time></trkpt><trkpt lat="44.112745" lon="12.1101583"><ele>74.0</ele><time>2026-04-06T16:07:21.009Z</time></trkpt><trkpt lat="44.11289" lon="12.1100383"><ele>73.0</ele><time>2026-04-06T16:07:22.008Z</time></trkpt><trkpt lat="44.1130467" lon="12.1099367"><ele>73.0</ele><time>2026-04-06T16:07:23.008Z</time></trkpt><trkpt lat="44.1132083" lon="12.1098483"><ele>73.0</ele><time>2026-04-06T16:07:24.007Z</time></trkpt><trkpt lat="44.1133633" lon="12.1097483"><ele>73.0</ele><time>2026-04-06T16:07:25.009Z</time></trkpt><trkpt lat="44.1135067" lon="12.1096217"><ele>73.0</ele><time>2026-04-06T16:07:26.013Z</time></trkpt><trkpt lat="44.1136383" lon="12.109465"><ele>73.0</ele><time>2026-04-06T16:07:27.009Z</time></trkpt><trkpt lat="44.1137667" lon="12.1092833"><ele>73.0</ele><time>2026-04-06T16:07:28.009Z</time></trkpt><trkpt lat="44.1138867" lon="12.1090867"><ele>72.33333333333333</ele><time>2026-04-06T16:07:29.008Z</time></trkpt><trkpt lat="44.11401" lon="12.1088917"><ele>71.66666666666667</ele><time>2026-04-06T16:07:30.01Z</time></trkpt><trkpt lat="44.1141283" lon="12.108705"><ele>71.0</ele><time>2026-04-06T16:07:31.01Z</time></trkpt><trkpt lat="44.1142283" lon="12.108525"><ele>71.0</ele><time>2026-04-06T16:07:32.008Z</time></trkpt><trkpt lat="44.1143317" lon="12.1083767"><ele>71.0</ele><time>2026-04-06T16:07:33.013Z</time></trkpt><trkpt lat="44.1144567" lon="12.10827"><ele>71.0</ele><time>2026-04-06T16:07:34.007Z</time></trkpt><trkpt lat="44.1146083" lon="12.108195"><ele>71.66666666666667</ele><time>2026-04-06T16:07:35.011Z</time></trkpt><trkpt lat="44.1147833" lon="12.1081483"><ele>72.33333333333333</ele><time>2026-04-06T16:07:36.009Z</time></trkpt><trkpt lat="44.11497" lon="12.10812"><ele>73.0</ele><time>2026-04-06T16:07:37.012Z</time></trkpt><trkpt lat="44.1151633" lon="12.1080917"><ele>71.66666666666666</ele><time>2026-04-06T16:07:38.009Z</time></trkpt><trkpt lat="44.1153567" lon="12.1080583"><ele>70.33333333333333</ele><time>2026-04-06T16:07:39.009Z</time></trkpt><trkpt lat="44.11555" lon="12.108025"><ele>69.0</ele><time>2026-04-06T16:07:40.007Z</time></trkpt><trkpt lat="44.115745" lon="12.107995"><ele>68.33333333333333</ele><time>2026-04-06T16:07:41.009Z</time></trkpt><trkpt lat="44.1159433" lon="12.107965"><ele>67.66666666666666</ele><time>2026-04-06T16:07:42.008Z</time></trkpt><trkpt lat="44.11614" lon="12.1079367"><ele>67.0</ele><time>2026-04-06T16:07:43.013Z</time></trkpt><trkpt lat="44.116325" lon="12.107915"><ele>67.0</ele><time>2026-04-06T16:07:44.011Z</time></trkpt><trkpt lat="44.1164933" lon="12.1078967"><ele>67.0</ele><time>2026-04-06T16:07:45.01Z</time></trkpt><trkpt lat="44.11665" lon="12.1079"><ele>67.0</ele><time>2026-04-06T16:07:46.009Z</time></trkpt><trkpt lat="44.1167917" lon="12.1079717"><ele>66.66666666666666</ele><time>2026-04-06T16:07:47.008Z</time></trkpt><trkpt lat="44.1169283" lon="12.108085"><ele>66.33333333333333</ele><time>2026-04-06T16:07:48.01Z</time></trkpt><trkpt lat="44.117065" lon="12.1082367"><ele>66.0</ele><time>2026-04-06T16:07:49.008Z</time></trkpt><trkpt lat="44.1171917" lon="12.1084017"><ele>66.0</ele><time>2026-04-06T16:07:50.012Z</time></trkpt><trkpt lat="44.1173167" lon="12.108555"><ele>66.0</ele><time>2026-04-06T16:07:51.009Z</time></trkpt><trkpt lat="44.11744" lon="12.1086833"><ele>66.0</ele><time>2026-04-06T16:07:52.009Z</time></trkpt><trkpt lat="44.1175767" lon="12.1087833"><ele>65.33333333333333</ele><time>2026-04-06T16:07:53.009Z</time></trkpt><trkpt lat="44.1177333" lon="12.1088533"><ele>64.66666666666666</ele><time>2026-04-06T16:07:54.008Z</time></trkpt><trkpt lat="44.1179067" lon="12.10891"><ele>64.0</ele><time>2026-04-06T16:07:55.01Z</time></trkpt><trkpt lat="44.1180933" lon="12.1089667"><ele>63.33333333333333</ele><time>2026-04-06T16:07:56.009Z</time></trkpt><trkpt lat="44.11829" lon="12.10902"><ele>62.66666666666667</ele><time>2026-04-06T16:07:57.009Z</time></trkpt><trkpt lat="44.1184933" lon="12.1090717"><ele>62.0</ele><time>2026-04-06T16:07:58.009Z</time></trkpt><trkpt lat="44.1187" lon="12.1091267"><ele>62.0</ele><time>2026-04-06T16:07:59.01Z</time></trkpt><trkpt lat="44.1189083" lon="12.1091817"><ele>62.0</ele><time>2026-04-06T16:08:00.007Z</time></trkpt><trkpt lat="44.1191083" lon="12.1092283"><ele>62.0</ele><time>2026-04-06T16:08:01.009Z</time></trkpt><trkpt lat="44.1193017" lon="12.10926"><ele>61.66666666666667</ele><time>2026-04-06T16:08:02.014Z</time></trkpt><trkpt lat="44.1194783" lon="12.1092967"><ele>61.33333333333333</ele><time>2026-04-06T16:08:03.01Z</time></trkpt><trkpt lat="44.119645" lon="12.10934"><ele>61.0</ele><time>2026-04-06T16:08:04.012Z</time></trkpt><trkpt lat="44.1198033" lon="12.1093567"><ele>61.33333333333333</ele><time>2026-04-06T16:08:05.008Z</time></trkpt><trkpt lat="44.119965" lon="12.10933"><ele>61.66666666666667</ele><time>2026-04-06T16:08:06.009Z</time></trkpt><trkpt lat="44.1201267" lon="12.1092633"><ele>62.0</ele><time>2026-04-06T16:08:07.009Z</time></trkpt><trkpt lat="44.1202917" lon="12.109165"><ele>61.66666666666667</ele><time>2026-04-06T16:08:08.009Z</time></trkpt><trkpt lat="44.1204633" lon="12.1090417"><ele>61.33333333333333</ele><time>2026-04-06T16:08:09.008Z</time></trkpt><trkpt lat="44.12064" lon="12.1089117"><ele>61.0</ele><time>2026-04-06T16:08:10.01Z</time></trkpt><trkpt lat="44.1208233" lon="12.108775"><ele>60.666666666666664</ele><time>2026-04-06T16:08:11.007Z</time></trkpt><trkpt lat="44.12101" lon="12.1086483"><ele>60.33333333333333</ele><time>2026-04-06T16:08:12.01Z</time></trkpt><trkpt lat="44.12119" lon="12.108535"><ele>60.0</ele><time>2026-04-06T16:08:13.01Z</time></trkpt><trkpt lat="44.1213533" lon="12.1084433"><ele>60.0</ele><time>2026-04-06T16:08:14.01Z</time></trkpt><trkpt lat="44.1215067" lon="12.10839"><ele>60.0</ele><time>2026-04-06T16:08:15.01Z</time></trkpt><trkpt lat="44.1216433" lon="12.1083867"><ele>60.0</ele><time>2026-04-06T16:08:16.009Z</time></trkpt><trkpt lat="44.1217567" lon="12.1084333"><ele>60.0</ele><time>2026-04-06T16:08:17.011Z</time></trkpt><trkpt lat="44.1218633" lon="12.1085117"><ele>60.66666666666667</ele><time>2026-04-06T16:08:18.008Z</time></trkpt><trkpt lat="44.1219733" lon="12.1086217"><ele>61.333333333333336</ele><time>2026-04-06T16:08:19.01Z</time></trkpt><trkpt lat="44.1220967" lon="12.10875"><ele>62.0</ele><time>2026-04-06T16:08:20.009Z</time></trkpt><trkpt lat="44.1222267" lon="12.1088817"><ele>62.0</ele><time>2026-04-06T16:08:21.009Z</time></trkpt><trkpt lat="44.1223667" lon="12.108995"><ele>62.0</ele><time>2026-04-06T16:08:22.012Z</time></trkpt><trkpt lat="44.1225167" lon="12.1090733"><ele>62.0</ele><time>2026-04-06T16:08:23.007Z</time></trkpt><trkpt lat="44.1226783" lon="12.1091033"><ele>62.333333333333336</ele><time>2026-04-06T16:08:24.008Z</time></trkpt><trkpt lat="44.122835" lon="12.1090967"><ele>62.66666666666667</ele><time>2026-04-06T16:08:25.008Z</time></trkpt><trkpt lat="44.1229917" lon="12.109065"><ele>63.0</ele><time>2026-04-06T16:08:26.01Z</time></trkpt><trkpt lat="44.1231433" lon="12.1090467"><ele>61.66666666666667</ele><time>2026-04-06T16:08:27.007Z</time></trkpt><trkpt lat="44.1233" lon="12.1090617"><ele>60.333333333333336</ele><time>2026-04-06T16:08:28.006Z</time></trkpt><trkpt lat="44.1234633" lon="12.109105"><ele>59.0</ele><time>2026-04-06T16:08:29.007Z</time></trkpt><trkpt lat="44.1236233" lon="12.1091617"><ele>60.0</ele><time>2026-04-06T16:08:30.008Z</time></trkpt><trkpt lat="44.1237717" lon="12.1092217"><ele>61.0</ele><time>2026-04-06T16:08:31.01Z</time></trkpt><trkpt lat="44.1239" lon="12.1092733"><ele>62.0</ele><time>2026-04-06T16:08:32.008Z</time></trkpt><trkpt lat="44.1240033" lon="12.1093233"><ele>63.0</ele><time>2026-04-06T16:08:33.008Z</time></trkpt><trkpt lat="44.1240833" lon="12.1093467"><ele>63.0</ele><time>2026-04-06T16:08:34.011Z</time></trkpt><trkpt lat="44.124165" lon="12.1093533"><ele>63.0</ele><time>2026-04-06T16:08:35.009Z</time></trkpt><trkpt lat="44.1242633" lon="12.109355"><ele>63.0</ele><time>2026-04-06T16:08:36.007Z</time></trkpt><trkpt lat="44.12438" lon="12.1093833"><ele>63.0</ele><time>2026-04-06T16:08:37.013Z</time></trkpt><trkpt lat="44.1245033" lon="12.1094583"><ele>63.0</ele><time>2026-04-06T16:08:38.008Z</time></trkpt><trkpt lat="44.1246417" lon="12.109575"><ele>63.0</ele><time>2026-04-06T16:08:39.007Z</time></trkpt><trkpt lat="44.1247767" lon="12.109705"><ele>63.0</ele><time>2026-04-06T16:08:40.007Z</time></trkpt><trkpt lat="44.1249033" lon="12.1098317"><ele>63.0</ele><time>2026-04-06T16:08:41.008Z</time></trkpt><trkpt lat="44.1250267" lon="12.1099417"><ele>62.5</ele><time>2026-04-06T16:08:42.008Z</time></trkpt><trkpt lat="44.1251467" lon="12.110035"><ele>62.0</ele><time>2026-04-06T16:08:43.009Z</time></trkpt><trkpt lat="44.1252667" lon="12.1101067"><ele>61.5</ele><time>2026-04-06T16:08:44.007Z</time></trkpt><trkpt lat="44.125375" lon="12.1101383"><ele>61.0</ele><time>2026-04-06T16:08:45.014Z</time></trkpt><trkpt lat="44.12547" lon="12.1101367"><ele>61.0</ele><time>2026-04-06T16:08:46.007Z</time></trkpt><trkpt lat="44.1255533" lon="12.110095"><ele>61.0</ele><time>2026-04-06T16:08:47.009Z</time></trkpt><trkpt lat="44.1256433" lon="12.11"><ele>61.0</ele><time>2026-04-06T16:08:48.006Z</time></trkpt><trkpt lat="44.125725" lon="12.1098667"><ele>61.0</ele><time>2026-04-06T16:08:49.011Z</time></trkpt><trkpt lat="44.1258133" lon="12.1097083"><ele>60.75</ele><time>2026-04-06T16:08:50.007Z</time></trkpt><trkpt lat="44.1259067" lon="12.1095467"><ele>60.5</ele><time>2026-04-06T16:08:51.01Z</time></trkpt><trkpt lat="44.1260017" lon="12.10939"><ele>60.25</ele><time>2026-04-06T16:08:52.008Z</time></trkpt><trkpt lat="44.1261117" lon="12.109245"><ele>60.0</ele><time>2026-04-06T16:08:53.009Z</time></trkpt><trkpt lat="44.126235" lon="12.1091233"><ele>60.0</ele><time>2026-04-06T16:08:54.007Z</time></trkpt><trkpt lat="44.12636" lon="12.1089983"><ele>60.0</ele><time>2026-04-06T16:08:55.008Z</time></trkpt><trkpt lat="44.1265033" lon="12.1088833"><ele>60.0</ele><time>2026-04-06T16:08:56.008Z</time></trkpt><trkpt lat="44.1266767" lon="12.1087817"><ele>60.0</ele><time>2026-04-06T16:08:57.007Z</time></trkpt><trkpt lat="44.1268617" lon="12.1086817"><ele>60.0</ele><time>2026-04-06T16:08:58.007Z</time></trkpt><trkpt lat="44.127045" lon="12.108585"><ele>60.0</ele><time>2026-04-06T16:08:59.014Z</time></trkpt><trkpt lat="44.1272183" lon="12.108495"><ele>60.0</ele><time>2026-04-06T16:09:00.009Z</time></trkpt><trkpt lat="44.1273783" lon="12.1084117"><ele>60.0</ele><time>2026-04-06T16:09:01.006Z</time></trkpt><trkpt lat="44.1275267" lon="12.108335"><ele>60.0</ele><time>2026-04-06T16:09:02.009Z</time></trkpt><trkpt lat="44.1276733" lon="12.10826"><ele>60.0</ele><time>2026-04-06T16:09:03.008Z</time></trkpt><trkpt lat="44.127825" lon="12.1081733"><ele>60.0</ele><time>2026-04-06T16:09:04.008Z</time></trkpt><trkpt lat="44.1279817" lon="12.10808"><ele>60.0</ele><time>2026-04-06T16:09:05.008Z</time></trkpt><trkpt lat="44.1281433" lon="12.1079817"><ele>60.33333333333333</ele><time>2026-04-06T16:09:06.007Z</time></trkpt><trkpt lat="44.1283067" lon="12.1078767"><ele>60.666666666666664</ele><time>2026-04-06T16:09:07.009Z</time></trkpt><trkpt lat="44.1284617" lon="12.1077617"><ele>61.0</ele><time>2026-04-06T16:09:08.008Z</time></trkpt><trkpt lat="44.1286083" lon="12.1076367"><ele>61.0</ele><time>2026-04-06T16:09:09.009Z</time></trkpt><trkpt lat="44.12875" lon="12.1075217"><ele>61.0</ele><time>2026-04-06T16:09:10.008Z</time></trkpt><trkpt lat="44.1288883" lon="12.1074183"><ele>61.0</ele><time>2026-04-06T16:09:11.008Z</time></trkpt><trkpt lat="44.1290183" lon="12.1073133"><ele>59.33333333333333</ele><time>2026-04-06T16:09:12.014Z</time></trkpt><trkpt lat="44.1291517" lon="12.1072083"><ele>57.66666666666667</ele><time>2026-04-06T16:09:13.007Z</time></trkpt><trkpt lat="44.1292867" lon="12.1070933"><ele>56.0</ele><time>2026-04-06T16:09:14.009Z</time></trkpt><trkpt lat="44.1294317" lon="12.106985"><ele>56.0</ele><time>2026-04-06T16:09:15.007Z</time></trkpt><trkpt lat="44.129595" lon="12.1069017"><ele>56.0</ele><time>2026-04-06T16:09:16.009Z</time></trkpt><trkpt lat="44.1297683" lon="12.10684"><ele>56.0</ele><time>2026-04-06T16:09:17.007Z</time></trkpt><trkpt lat="44.1299433" lon="12.1067983"><ele>55.333333333333336</ele><time>2026-04-06T16:09:18.008Z</time></trkpt><trkpt lat="44.1301133" lon="12.10677"><ele>54.66666666666667</ele><time>2026-04-06T16:09:19.014Z</time></trkpt><trkpt lat="44.1302817" lon="12.106765"><ele>54.0</ele><time>2026-04-06T16:09:20.008Z</time></trkpt><trkpt lat="44.1304533" lon="12.1067883"><ele>54.0</ele><time>2026-04-06T16:09:21.015Z</time></trkpt><trkpt lat="44.13063" lon="12.106835"><ele>54.0</ele><time>2026-04-06T16:09:22.008Z</time></trkpt><trkpt lat="44.1308" lon="12.1068717"><ele>54.0</ele><time>2026-04-06T16:09:23.007Z</time></trkpt><trkpt lat="44.1309683" lon="12.1068783"><ele>54.66666666666667</ele><time>2026-04-06T16:09:24.006Z</time></trkpt><trkpt lat="44.1311283" lon="12.1068367"><ele>55.333333333333336</ele><time>2026-04-06T16:09:25.008Z</time></trkpt><trkpt lat="44.1312767" lon="12.1067717"><ele>56.0</ele><time>2026-04-06T16:09:26.009Z</time></trkpt><trkpt lat="44.131415" lon="12.1067017"><ele>56.0</ele><time>2026-04-06T16:09:27.008Z</time></trkpt><trkpt lat="44.13155" lon="12.1066317"><ele>56.0</ele><time>2026-04-06T16:09:28.007Z</time></trkpt><trkpt lat="44.1316933" lon="12.1065833"><ele>56.0</ele><time>2026-04-06T16:09:29.007Z</time></trkpt><trkpt lat="44.1318417" lon="12.10654"><ele>56.0</ele><time>2026-04-06T16:09:30.008Z</time></trkpt><trkpt lat="44.1319933" lon="12.1065067"><ele>56.0</ele><time>2026-04-06T16:09:31.008Z</time></trkpt><trkpt lat="44.1321417" lon="12.106485"><ele>56.0</ele><time>2026-04-06T16:09:32.007Z</time></trkpt><trkpt lat="44.1322833" lon="12.1064883"><ele>56.0</ele><time>2026-04-06T16:09:33.01Z</time></trkpt><trkpt lat="44.1324217" lon="12.1065217"><ele>56.0</ele><time>2026-04-06T16:09:34.007Z</time></trkpt><trkpt lat="44.1325517" lon="12.106575"><ele>58.75</ele><time>2026-04-06T16:09:35.008Z</time></trkpt><trkpt lat="44.1326683" lon="12.1066183"><ele>61.5</ele><time>2026-04-06T16:09:36.007Z</time></trkpt><trkpt lat="44.1327867" lon="12.1066333"><ele>64.25</ele><time>2026-04-06T16:09:37.007Z</time></trkpt><trkpt lat="44.1329117" lon="12.106615"><ele>67.0</ele><time>2026-04-06T16:09:38.011Z</time></trkpt><trkpt lat="44.1330517" lon="12.10658"><ele>63.666666666666664</ele><time>2026-04-06T16:09:39.007Z</time></trkpt><trkpt lat="44.133195" lon="12.10653"><ele>60.33333333333333</ele><time>2026-04-06T16:09:40.012Z</time></trkpt><trkpt lat="44.1333394" lon="12.1064644"><ele>57.0</ele><time>2026-04-06T16:09:41.009Z</time></trkpt><trkpt lat="44.1334886" lon="12.1063857"><ele>57.0</ele><time>2026-04-06T16:09:42.009Z</time></trkpt><trkpt lat="44.133642" lon="12.1063009"><ele>57.0</ele><time>2026-04-06T16:09:43.01Z</time></trkpt><trkpt lat="44.133797" lon="12.1062127"><ele>57.0</ele><time>2026-04-06T16:09:44.007Z</time></trkpt><trkpt lat="44.1339576" lon="12.1061284"><ele>57.33333333333333</ele><time>2026-04-06T16:09:45.008Z</time></trkpt><trkpt lat="44.1341247" lon="12.1060606"><ele>57.666666666666664</ele><time>2026-04-06T16:09:46.009Z</time></trkpt><trkpt lat="44.1342943" lon="12.1060054"><ele>58.0</ele><time>2026-04-06T16:09:47.007Z</time></trkpt><trkpt lat="44.1344757" lon="12.1059857"><ele>58.0</ele><time>2026-04-06T16:09:48.013Z</time></trkpt><trkpt lat="44.1346591" lon="12.1059766"><ele>58.0</ele><time>2026-04-06T16:09:49.008Z</time></trkpt><trkpt lat="44.1348421" lon="12.1059683"><ele>58.0</ele><time>2026-04-06T16:09:50.007Z</time></trkpt><trkpt lat="44.1350171" lon="12.1059448"><ele>58.666666666666664</ele><time>2026-04-06T16:09:51.008Z</time></trkpt><trkpt lat="44.135186" lon="12.105895"><ele>59.33333333333333</ele><time>2026-04-06T16:09:52.009Z</time></trkpt><trkpt lat="44.1353547" lon="12.1058209"><ele>60.0</ele><time>2026-04-06T16:09:53.007Z</time></trkpt><trkpt lat="44.1355109" lon="12.1057254"><ele>58.5</ele><time>2026-04-06T16:09:54.011Z</time></trkpt><trkpt lat="44.1356537" lon="12.1056488"><ele>57.0</ele><time>2026-04-06T16:09:55.009Z</time></trkpt><trkpt lat="44.1357923" lon="12.1056077"><ele>55.5</ele><time>2026-04-06T16:09:56.009Z</time></trkpt><trkpt lat="44.1359277" lon="12.1055945"><ele>54.0</ele><time>2026-04-06T16:09:57.007Z</time></trkpt><trkpt lat="44.1360582" lon="12.1056094"><ele>54.0</ele><time>2026-04-06T16:09:58.007Z</time></trkpt><trkpt lat="44.1361907" lon="12.1056489"><ele>54.0</ele><time>2026-04-06T16:09:59.014Z</time></trkpt><trkpt lat="44.1363238" lon="12.1057118"><ele>54.0</ele><time>2026-04-06T16:10:00.007Z</time></trkpt><trkpt lat="44.1364602" lon="12.1057794"><ele>54.0</ele><time>2026-04-06T16:10:01.006Z</time></trkpt><trkpt lat="44.1365954" lon="12.1058284"><ele>54.0</ele><time>2026-04-06T16:10:02.01Z</time></trkpt><trkpt lat="44.1367284" lon="12.1058372"><ele>54.0</ele><time>2026-04-06T16:10:03.006Z</time></trkpt><trkpt lat="44.1368608" lon="12.1057945"><ele>54.0</ele><time>2026-04-06T16:10:04.007Z</time></trkpt><trkpt lat="44.1369852" lon="12.105721"><ele>54.0</ele><time>2026-04-06T16:10:05.012Z</time></trkpt><trkpt lat="44.1371007" lon="12.1056321"><ele>54.0</ele><time>2026-04-06T16:10:06.01Z</time></trkpt><trkpt lat="44.1372092" lon="12.1055437"><ele>54.00000000000001</ele><time>2026-04-06T16:10:07.008Z</time></trkpt><trkpt lat="44.1373008" lon="12.1054574"><ele>54.00000000000001</ele><time>2026-04-06T16:10:08.008Z</time></trkpt><trkpt lat="44.1373779" lon="12.105379"><ele>54.0</ele><time>2026-04-06T16:10:09.006Z</time></trkpt><trkpt lat="44.1374441" lon="12.1053106"><ele>54.0</ele><time>2026-04-06T16:10:10.012Z</time></trkpt><trkpt lat="44.1374976" lon="12.1052585"><ele>54.5</ele><time>2026-04-06T16:10:11.006Z</time></trkpt><trkpt lat="44.1375566" lon="12.1051798"><ele>55.0</ele><time>2026-04-06T16:10:13.006Z</time></trkpt><trkpt lat="44.137631" lon="12.1050308"><ele>55.5</ele><time>2026-04-06T16:10:15.008Z</time></trkpt><trkpt lat="44.1376809" lon="12.104908"><ele>56.0</ele><time>2026-04-06T16:10:16.01Z</time></trkpt><trkpt lat="44.1377388" lon="12.1047303"><ele>56.0</ele><time>2026-04-06T16:10:17.009Z</time></trkpt><trkpt lat="44.1378064" lon="12.1045278"><ele>56.0</ele><time>2026-04-06T16:10:18.009Z</time></trkpt><trkpt lat="44.1378814" lon="12.1043067"><ele>56.0</ele><time>2026-04-06T16:10:19.009Z</time></trkpt><trkpt lat="44.1379571" lon="12.1040889"><ele>55.5</ele><time>2026-04-06T16:10:20.007Z</time></trkpt><trkpt lat="44.1380295" lon="12.1038899"><ele>55.0</ele><time>2026-04-06T16:10:21.009Z</time></trkpt><trkpt lat="44.1380935" lon="12.1037098"><ele>54.5</ele><time>2026-04-06T16:10:22.009Z</time></trkpt><trkpt lat="44.1381516" lon="12.1035502"><ele>54.0</ele><time>2026-04-06T16:10:23.012Z</time></trkpt><trkpt lat="44.1382065" lon="12.1034043"><ele>54.5</ele><time>2026-04-06T16:10:24.008Z</time></trkpt><trkpt lat="44.1382518" lon="12.103264"><ele>55.0</ele><time>2026-04-06T16:10:25.009Z</time></trkpt><trkpt lat="44.138294" lon="12.1031252"><ele>55.5</ele><time>2026-04-06T16:10:26.011Z</time></trkpt><trkpt lat="44.1383418" lon="12.1029818"><ele>56.0</ele><time>2026-04-06T16:10:27.007Z</time></trkpt><trkpt lat="44.138393" lon="12.1028318"><ele>56.0</ele><time>2026-04-06T16:10:28.008Z</time></trkpt><trkpt lat="44.1384424" lon="12.1026708"><ele>56.0</ele><time>2026-04-06T16:10:29.008Z</time></trkpt><trkpt lat="44.1384978" lon="12.102497"><ele>56.0</ele><time>2026-04-06T16:10:30.008Z</time></trkpt><trkpt lat="44.1385623" lon="12.102325"><ele>56.0</ele><time>2026-04-06T16:10:31.008Z</time></trkpt><trkpt lat="44.1386221" lon="12.1021573"><ele>55.25</ele><time>2026-04-06T16:10:32.008Z</time></trkpt><trkpt lat="44.1386832" lon="12.1020047"><ele>54.5</ele><time>2026-04-06T16:10:33.008Z</time></trkpt><trkpt lat="44.1387345" lon="12.1018575"><ele>53.75</ele><time>2026-04-06T16:10:34.009Z</time></trkpt><trkpt lat="44.1387808" lon="12.1017114"><ele>53.0</ele><time>2026-04-06T16:10:35.008Z</time></trkpt><trkpt lat="44.1388347" lon="12.1015654"><ele>53.0</ele><time>2026-04-06T16:10:36.015Z</time></trkpt><trkpt lat="44.1388919" lon="12.1014131"><ele>53.0</ele><time>2026-04-06T16:10:37.007Z</time></trkpt><trkpt lat="44.1389562" lon="12.101258"><ele>53.0</ele><time>2026-04-06T16:10:38.007Z</time></trkpt><trkpt lat="44.1390311" lon="12.1011066"><ele>53.0</ele><time>2026-04-06T16:10:39.008Z</time></trkpt><trkpt lat="44.1391206" lon="12.1009634"><ele>53.5</ele><time>2026-04-06T16:10:40.009Z</time></trkpt><trkpt lat="44.139224" lon="12.1008328"><ele>54.0</ele><time>2026-04-06T16:10:41.008Z</time></trkpt><trkpt lat="44.1393447" lon="12.1007182"><ele>54.5</ele><time>2026-04-06T16:10:42.006Z</time></trkpt><trkpt lat="44.1394651" lon="12.1006062"><ele>55.0</ele><time>2026-04-06T16:10:43.015Z</time></trkpt><trkpt lat="44.1395928" lon="12.1005122"><ele>55.0</ele><time>2026-04-06T16:10:44.007Z</time></trkpt><trkpt lat="44.1397243" lon="12.1004317"><ele>55.0</ele><time>2026-04-06T16:10:45.007Z</time></trkpt><trkpt lat="44.1398609" lon="12.1003658"><ele>55.0</ele><time>2026-04-06T16:10:46.008Z</time></trkpt><trkpt lat="44.1400039" lon="12.1003192"><ele>55.0</ele><time>2026-04-06T16:10:47.007Z</time></trkpt><trkpt lat="44.1401515" lon="12.1003006"><ele>55.0</ele><time>2026-04-06T16:10:48.009Z</time></trkpt><trkpt lat="44.1402989" lon="12.1003067"><ele>55.0</ele><time>2026-04-06T16:10:49.006Z</time></trkpt><trkpt lat="44.1404463" lon="12.1003338"><ele>55.0</ele><time>2026-04-06T16:10:50.011Z</time></trkpt><trkpt lat="44.1405965" lon="12.10037"><ele>55.0</ele><time>2026-04-06T16:10:51.008Z</time></trkpt><trkpt lat="44.1407505" lon="12.100411"><ele>54.75</ele><time>2026-04-06T16:10:52.008Z</time></trkpt><trkpt lat="44.1409029" lon="12.1004535"><ele>54.5</ele><time>2026-04-06T16:10:53.008Z</time></trkpt><trkpt lat="44.1410512" lon="12.1004846"><ele>54.25</ele><time>2026-04-06T16:10:54.009Z</time></trkpt><trkpt lat="44.1411897" lon="12.1005169"><ele>54.0</ele><time>2026-04-06T16:10:55.007Z</time></trkpt><trkpt lat="44.1413204" lon="12.1005515"><ele>54.0</ele><time>2026-04-06T16:10:56.011Z</time></trkpt><trkpt lat="44.1414404" lon="12.1005864"><ele>54.0</ele><time>2026-04-06T16:10:57.009Z</time></trkpt><trkpt lat="44.1415567" lon="12.1006277"><ele>54.0</ele><time>2026-04-06T16:10:58.011Z</time></trkpt><trkpt lat="44.141675" lon="12.1006742"><ele>54.0</ele><time>2026-04-06T16:10:59.009Z</time></trkpt><trkpt lat="44.1417989" lon="12.1007349"><ele>54.0</ele><time>2026-04-06T16:11:00.013Z</time></trkpt><trkpt lat="44.1419276" lon="12.1008084"><ele>54.0</ele><time>2026-04-06T16:11:01.01Z</time></trkpt><trkpt lat="44.1420575" lon="12.1008831"><ele>54.0</ele><time>2026-04-06T16:11:02.008Z</time></trkpt><trkpt lat="44.1421822" lon="12.1009483"><ele>54.0</ele><time>2026-04-06T16:11:03.013Z</time></trkpt><trkpt lat="44.1423008" lon="12.1010089"><ele>53.333333333333336</ele><time>2026-04-06T16:11:04.008Z</time></trkpt><trkpt lat="44.1424052" lon="12.1010645"><ele>52.66666666666667</ele><time>2026-04-06T16:11:05.008Z</time></trkpt><trkpt lat="44.1424902" lon="12.1011028"><ele>52.0</ele><time>2026-04-06T16:11:06.008Z</time></trkpt><trkpt lat="44.142562" lon="12.1011132"><ele>51.333333333333336</ele><time>2026-04-06T16:11:07.009Z</time></trkpt><trkpt lat="44.1426229" lon="12.1010866"><ele>50.66666666666667</ele><time>2026-04-06T16:11:08.01Z</time></trkpt><trkpt lat="44.1426764" lon="12.1010354"><ele>50.0</ele><time>2026-04-06T16:11:09.012Z</time></trkpt><trkpt lat="44.1427127" lon="12.1009569"><ele>50.0</ele><time>2026-04-06T16:11:10.01Z</time></trkpt><trkpt lat="44.1427278" lon="12.1008314"><ele>50.0</ele><time>2026-04-06T16:11:11.011Z</time></trkpt><trkpt lat="44.1426578" lon="12.1005849"><ele>50.0</ele><time>2026-04-06T16:11:12.008Z</time></trkpt><trkpt lat="44.1425783" lon="12.1003083"><ele>50.0</ele><time>2026-04-06T16:11:13.01Z</time></trkpt><trkpt lat="44.1424928" lon="12.1000208"><ele>50.0</ele><time>2026-04-06T16:11:14.009Z</time></trkpt><trkpt lat="44.1424202" lon="12.0997573"><ele>50.0</ele><time>2026-04-06T16:11:15.009Z</time></trkpt><trkpt lat="44.1423709" lon="12.0995316"><ele>50.75</ele><time>2026-04-06T16:11:16.01Z</time></trkpt><trkpt lat="44.1423405" lon="12.0993325"><ele>51.5</ele><time>2026-04-06T16:11:17.009Z</time></trkpt><trkpt lat="44.1423399" lon="12.0991543"><ele>52.25</ele><time>2026-04-06T16:11:18.009Z</time></trkpt><trkpt lat="44.1423653" lon="12.0989889"><ele>53.0</ele><time>2026-04-06T16:11:19.013Z</time></trkpt><trkpt lat="44.1424082" lon="12.0988234"><ele>54.25</ele><time>2026-04-06T16:11:20.008Z</time></trkpt><trkpt lat="44.1424502" lon="12.0986537"><ele>55.5</ele><time>2026-04-06T16:11:21.009Z</time></trkpt><trkpt lat="44.1424916" lon="12.0984774"><ele>56.75</ele><time>2026-04-06T16:11:22.008Z</time></trkpt><trkpt lat="44.1425399" lon="12.0982948"><ele>58.0</ele><time>2026-04-06T16:11:23.01Z</time></trkpt><trkpt lat="44.1425894" lon="12.0981191"><ele>58.0</ele><time>2026-04-06T16:11:24.014Z</time></trkpt><trkpt lat="44.1426332" lon="12.0979547"><ele>58.0</ele><time>2026-04-06T16:11:25.01Z</time></trkpt><trkpt lat="44.1426753" lon="12.0978103"><ele>58.0</ele><time>2026-04-06T16:11:26.009Z</time></trkpt><trkpt lat="44.1427101" lon="12.097699"><ele>58.0</ele><time>2026-04-06T16:11:27.009Z</time></trkpt><trkpt lat="44.1427475" lon="12.0976227"><ele>58.0</ele><time>2026-04-06T16:11:28.012Z</time></trkpt><trkpt lat="44.1428104" lon="12.0975535"><ele>58.0</ele><time>2026-04-06T16:11:31.008Z</time></trkpt><trkpt lat="44.1428232" lon="12.0974572"><ele>58.0</ele><time>2026-04-06T16:11:33.009Z</time></trkpt><trkpt lat="44.1427876" lon="12.0972735"><ele>58.0</ele><time>2026-04-06T16:11:35.013Z</time></trkpt><trkpt lat="44.1427188" lon="12.0970997"><ele>58.0</ele><time>2026-04-06T16:11:36.009Z</time></trkpt><trkpt lat="44.1426383" lon="12.0968916"><ele>57.666666666666664</ele><time>2026-04-06T16:11:37.01Z</time></trkpt><trkpt lat="44.1425455" lon="12.0966602"><ele>57.33333333333333</ele><time>2026-04-06T16:11:38.008Z</time></trkpt><trkpt lat="44.1424345" lon="12.0964151"><ele>57.0</ele><time>2026-04-06T16:11:39.009Z</time></trkpt><trkpt lat="44.1423088" lon="12.0961614"><ele>58.5</ele><time>2026-04-06T16:11:40.01Z</time></trkpt><trkpt lat="44.1421726" lon="12.0958957"><ele>60.0</ele><time>2026-04-06T16:11:41.008Z</time></trkpt><trkpt lat="44.1420445" lon="12.0956094"><ele>60.0</ele><time>2026-04-06T16:11:42.01Z</time></trkpt><trkpt lat="44.1419303" lon="12.095323"><ele>60.0</ele><time>2026-04-06T16:11:43.008Z</time></trkpt><trkpt lat="44.1418288" lon="12.0950533"><ele>60.0</ele><time>2026-04-06T16:11:44.014Z</time></trkpt><trkpt lat="44.1417307" lon="12.0948072"><ele>60.0</ele><time>2026-04-06T16:11:45.009Z</time></trkpt><trkpt lat="44.1416355" lon="12.0945776"><ele>60.0</ele><time>2026-04-06T16:11:46.011Z</time></trkpt><trkpt lat="44.1415449" lon="12.0943548"><ele>62.0</ele><time>2026-04-06T16:11:47.01Z</time></trkpt><trkpt lat="44.141457" lon="12.0941385"><ele>64.0</ele><time>2026-04-06T16:11:48.009Z</time></trkpt><trkpt lat="44.1413726" lon="12.0939224"><ele>66.0</ele><time>2026-04-06T16:11:49.01Z</time></trkpt><trkpt lat="44.1412841" lon="12.093712"><ele>66.0</ele><time>2026-04-06T16:11:50.01Z</time></trkpt><trkpt lat="44.1411916" lon="12.0935024"><ele>66.0</ele><time>2026-04-06T16:11:51.012Z</time></trkpt><trkpt lat="44.1411028" lon="12.0932878"><ele>66.0</ele><time>2026-04-06T16:11:52.006Z</time></trkpt><trkpt lat="44.1410168" lon="12.0930602"><ele>66.0</ele><time>2026-04-06T16:11:53.009Z</time></trkpt><trkpt lat="44.1409245" lon="12.0928207"><ele>66.0</ele><time>2026-04-06T16:11:54.01Z</time></trkpt><trkpt lat="44.1408263" lon="12.0925742"><ele>66.0</ele><time>2026-04-06T16:11:55.009Z</time></trkpt><trkpt lat="44.14073" lon="12.0923217"><ele>66.33333333333333</ele><time>2026-04-06T16:11:56.01Z</time></trkpt><trkpt lat="44.1406333" lon="12.0920783"><ele>66.66666666666666</ele><time>2026-04-06T16:11:57.01Z</time></trkpt><trkpt lat="44.1405417" lon="12.091835"><ele>67.0</ele><time>2026-04-06T16:11:58.012Z</time></trkpt><trkpt lat="44.1404517" lon="12.0915867"><ele>67.0</ele><time>2026-04-06T16:11:59.01Z</time></trkpt><trkpt lat="44.1403583" lon="12.0913383"><ele>67.0</ele><time>2026-04-06T16:12:00.009Z</time></trkpt><trkpt lat="44.140265" lon="12.0910917"><ele>67.0</ele><time>2026-04-06T16:12:01.009Z</time></trkpt><trkpt lat="44.14017" lon="12.090855"><ele>66.66666666666666</ele><time>2026-04-06T16:12:02.01Z</time></trkpt><trkpt lat="44.1400733" lon="12.09062"><ele>66.33333333333333</ele><time>2026-04-06T16:12:03.011Z</time></trkpt><trkpt lat="44.13998" lon="12.09039"><ele>66.0</ele><time>2026-04-06T16:12:04.01Z</time></trkpt><trkpt lat="44.1398733" lon="12.090175"><ele>66.0</ele><time>2026-04-06T16:12:05.01Z</time></trkpt><trkpt lat="44.1397617" lon="12.0899683"><ele>66.0</ele><time>2026-04-06T16:12:06.01Z</time></trkpt><trkpt lat="44.1396333" lon="12.08978"><ele>66.0</ele><time>2026-04-06T16:12:07.01Z</time></trkpt><trkpt lat="44.1394933" lon="12.0896033"><ele>66.33333333333333</ele><time>2026-04-06T16:12:08.01Z</time></trkpt><trkpt lat="44.1393433" lon="12.089435"><ele>66.66666666666666</ele><time>2026-04-06T16:12:09.012Z</time></trkpt><trkpt lat="44.139195" lon="12.08926"><ele>67.0</ele><time>2026-04-06T16:12:10.01Z</time></trkpt><trkpt lat="44.139035" lon="12.0890967"><ele>64.66666666666666</ele><time>2026-04-06T16:12:11.009Z</time></trkpt><trkpt lat="44.1388717" lon="12.0889283"><ele>62.33333333333333</ele><time>2026-04-06T16:12:12.008Z</time></trkpt><trkpt lat="44.1387117" lon="12.0887433"><ele>60.0</ele><time>2026-04-06T16:12:13.011Z</time></trkpt><trkpt lat="44.1385467" lon="12.0885583"><ele>60.0</ele><time>2026-04-06T16:12:14.008Z</time></trkpt><trkpt lat="44.1383733" lon="12.0883767"><ele>60.0</ele><time>2026-04-06T16:12:15.012Z</time></trkpt><trkpt lat="44.1381983" lon="12.08819"><ele>60.0</ele><time>2026-04-06T16:12:16.009Z</time></trkpt><trkpt lat="44.13802" lon="12.088005"><ele>60.66666666666667</ele><time>2026-04-06T16:12:17.008Z</time></trkpt><trkpt lat="44.1378433" lon="12.0878117"><ele>61.333333333333336</ele><time>2026-04-06T16:12:18.01Z</time></trkpt><trkpt lat="44.1376667" lon="12.08762"><ele>62.0</ele><time>2026-04-06T16:12:19.01Z</time></trkpt><trkpt lat="44.1374883" lon="12.0874317"><ele>62.0</ele><time>2026-04-06T16:12:20.015Z</time></trkpt><trkpt lat="44.1373083" lon="12.087245"><ele>62.0</ele><time>2026-04-06T16:12:21.009Z</time></trkpt><trkpt lat="44.137125" lon="12.0870617"><ele>62.0</ele><time>2026-04-06T16:12:22.011Z</time></trkpt><trkpt lat="44.1369467" lon="12.086875"><ele>62.0</ele><time>2026-04-06T16:12:23.008Z</time></trkpt><trkpt lat="44.1367667" lon="12.0866883"><ele>62.0</ele><time>2026-04-06T16:12:24.01Z</time></trkpt><trkpt lat="44.136585" lon="12.0865017"><ele>62.0</ele><time>2026-04-06T16:12:25.008Z</time></trkpt><trkpt lat="44.136405" lon="12.0863167"><ele>62.0</ele><time>2026-04-06T16:12:26.01Z</time></trkpt><trkpt lat="44.13623" lon="12.0861333"><ele>62.0</ele><time>2026-04-06T16:12:27.014Z</time></trkpt><trkpt lat="44.13606" lon="12.0859517"><ele>62.0</ele><time>2026-04-06T16:12:28.008Z</time></trkpt><trkpt lat="44.13589" lon="12.0857833"><ele>62.0</ele><time>2026-04-06T16:12:29.007Z</time></trkpt><trkpt lat="44.1357167" lon="12.085615"><ele>62.0</ele><time>2026-04-06T16:12:30.01Z</time></trkpt><trkpt lat="44.135545" lon="12.0854417"><ele>62.333333333333336</ele><time>2026-04-06T16:12:31.008Z</time></trkpt><trkpt lat="44.1353717" lon="12.085265"><ele>62.66666666666667</ele><time>2026-04-06T16:12:32.011Z</time></trkpt><trkpt lat="44.135195" lon="12.0850783"><ele>63.0</ele><time>2026-04-06T16:12:33.007Z</time></trkpt><trkpt lat="44.1350133" lon="12.0848817"><ele>64.0</ele><time>2026-04-06T16:12:34.007Z</time></trkpt><trkpt lat="44.13484" lon="12.0846717"><ele>65.0</ele><time>2026-04-06T16:12:35.012Z</time></trkpt><trkpt lat="44.1346817" lon="12.08446"><ele>66.0</ele><time>2026-04-06T16:12:36.009Z</time></trkpt><trkpt lat="44.1345433" lon="12.08425"><ele>64.66666666666667</ele><time>2026-04-06T16:12:37.016Z</time></trkpt><trkpt lat="44.134425" lon="12.08403"><ele>63.333333333333336</ele><time>2026-04-06T16:12:38.008Z</time></trkpt><trkpt lat="44.1343233" lon="12.08379"><ele>62.0</ele><time>2026-04-06T16:12:39.011Z</time></trkpt><trkpt lat="44.1342383" lon="12.0835283"><ele>62.333333333333336</ele><time>2026-04-06T16:12:40.009Z</time></trkpt><trkpt lat="44.13416" lon="12.0832517"><ele>62.66666666666667</ele><time>2026-04-06T16:12:41.008Z</time></trkpt><trkpt lat="44.134085" lon="12.0829867"><ele>63.0</ele><time>2026-04-06T16:12:42.016Z</time></trkpt><trkpt lat="44.1340133" lon="12.082735"><ele>63.0</ele><time>2026-04-06T16:12:43.009Z</time></trkpt><trkpt lat="44.1339383" lon="12.0825033"><ele>63.0</ele><time>2026-04-06T16:12:44.01Z</time></trkpt><trkpt lat="44.1338717" lon="12.0822833"><ele>63.0</ele><time>2026-04-06T16:12:45.009Z</time></trkpt><trkpt lat="44.1338083" lon="12.0820717"><ele>62.33333333333333</ele><time>2026-04-06T16:12:46.009Z</time></trkpt><trkpt lat="44.1337417" lon="12.0818683"><ele>61.666666666666664</ele><time>2026-04-06T16:12:47.013Z</time></trkpt><trkpt lat="44.1336733" lon="12.0816767"><ele>61.0</ele><time>2026-04-06T16:12:48.01Z</time></trkpt><trkpt lat="44.1335717" lon="12.0815283"><ele>60.33333333333333</ele><time>2026-04-06T16:12:49.008Z</time></trkpt><trkpt lat="44.133435" lon="12.0814183"><ele>59.66666666666667</ele><time>2026-04-06T16:12:50.008Z</time></trkpt><trkpt lat="44.13328" lon="12.0813467"><ele>59.0</ele><time>2026-04-06T16:12:51.01Z</time></trkpt><trkpt lat="44.1331133" lon="12.0812933"><ele>58.66666666666667</ele><time>2026-04-06T16:12:52.009Z</time></trkpt><trkpt lat="44.1329533" lon="12.0812417"><ele>58.33333333333333</ele><time>2026-04-06T16:12:53.008Z</time></trkpt><trkpt lat="44.132805" lon="12.0811833"><ele>58.0</ele><time>2026-04-06T16:12:54.009Z</time></trkpt><trkpt lat="44.1326667" lon="12.08113"><ele>58.0</ele><time>2026-04-06T16:12:55.013Z</time></trkpt><trkpt lat="44.1325333" lon="12.0810767"><ele>58.0</ele><time>2026-04-06T16:12:56.015Z</time></trkpt><trkpt lat="44.1324067" lon="12.0810117"><ele>58.0</ele><time>2026-04-06T16:12:57.009Z</time></trkpt><trkpt lat="44.132275" lon="12.080955"><ele>58.0</ele><time>2026-04-06T16:12:58.011Z</time></trkpt><trkpt lat="44.1321383" lon="12.0808967"><ele>58.25</ele><time>2026-04-06T16:12:59.009Z</time></trkpt><trkpt lat="44.1319983" lon="12.0808383"><ele>58.5</ele><time>2026-04-06T16:13:00.006Z</time></trkpt><trkpt lat="44.1318583" lon="12.08078"><ele>58.75</ele><time>2026-04-06T16:13:01.014Z</time></trkpt><trkpt lat="44.131715" lon="12.0807233"><ele>59.0</ele><time>2026-04-06T16:13:02.009Z</time></trkpt><trkpt lat="44.1315717" lon="12.0806667"><ele>59.75</ele><time>2026-04-06T16:13:03.009Z</time></trkpt><trkpt lat="44.1314297" lon="12.0806033"><ele>60.5</ele><time>2026-04-06T16:13:04.01Z</time></trkpt><trkpt lat="44.1312892" lon="12.0805421"><ele>61.25</ele><time>2026-04-06T16:13:05.012Z</time></trkpt><trkpt lat="44.1311507" lon="12.0804798"><ele>62.0</ele><time>2026-04-06T16:13:06.01Z</time></trkpt><trkpt lat="44.1310094" lon="12.080432"><ele>62.0</ele><time>2026-04-06T16:13:07.011Z</time></trkpt><trkpt lat="44.130868" lon="12.0803805"><ele>62.0</ele><time>2026-04-06T16:13:08.01Z</time></trkpt><trkpt lat="44.130727" lon="12.0803184"><ele>62.0</ele><time>2026-04-06T16:13:09.009Z</time></trkpt><trkpt lat="44.1305789" lon="12.0802438"><ele>64.0</ele><time>2026-04-06T16:13:10.01Z</time></trkpt><trkpt lat="44.1304143" lon="12.0801788"><ele>66.0</ele><time>2026-04-06T16:13:11.009Z</time></trkpt><trkpt lat="44.1302512" lon="12.0801091"><ele>68.0</ele><time>2026-04-06T16:13:12.008Z</time></trkpt><trkpt lat="44.1300959" lon="12.0800501"><ele>68.0</ele><time>2026-04-06T16:13:13.009Z</time></trkpt><trkpt lat="44.1299498" lon="12.0800033"><ele>68.0</ele><time>2026-04-06T16:13:14.008Z</time></trkpt><trkpt lat="44.129803" lon="12.0799911"><ele>68.0</ele><time>2026-04-06T16:13:15.014Z</time></trkpt><trkpt lat="44.1296572" lon="12.0800305"><ele>68.0</ele><time>2026-04-06T16:13:16.009Z</time></trkpt><trkpt lat="44.1295083" lon="12.0801218"><ele>67.33333333333334</ele><time>2026-04-06T16:13:17.009Z</time></trkpt><trkpt lat="44.1293622" lon="12.0802305"><ele>66.66666666666667</ele><time>2026-04-06T16:13:18.008Z</time></trkpt><trkpt lat="44.129221" lon="12.0803237"><ele>66.0</ele><time>2026-04-06T16:13:19.011Z</time></trkpt><trkpt lat="44.1290855" lon="12.0803749"><ele>68.25</ele><time>2026-04-06T16:13:20.009Z</time></trkpt><trkpt lat="44.128955" lon="12.080368"><ele>70.5</ele><time>2026-04-06T16:13:21.009Z</time></trkpt><trkpt lat="44.1288295" lon="12.0803052"><ele>72.75</ele><time>2026-04-06T16:13:22.01Z</time></trkpt><trkpt lat="44.128716" lon="12.0801905"><ele>75.0</ele><time>2026-04-06T16:13:23.009Z</time></trkpt><trkpt lat="44.1286106" lon="12.0800336"><ele>74.0</ele><time>2026-04-06T16:13:24.012Z</time></trkpt><trkpt lat="44.1285034" lon="12.0798551"><ele>73.0</ele><time>2026-04-06T16:13:25.009Z</time></trkpt><trkpt lat="44.1283886" lon="12.0796677"><ele>72.0</ele><time>2026-04-06T16:13:26.009Z</time></trkpt><trkpt lat="44.1282603" lon="12.0794789"><ele>73.66666666666667</ele><time>2026-04-06T16:13:27.01Z</time></trkpt><trkpt lat="44.1281236" lon="12.0792844"><ele>75.33333333333334</ele><time>2026-04-06T16:13:28.009Z</time></trkpt><trkpt lat="44.1279856" lon="12.0790802"><ele>77.0</ele><time>2026-04-06T16:13:29.009Z</time></trkpt><trkpt lat="44.1278494" lon="12.0788759"><ele>77.0</ele><time>2026-04-06T16:13:30.015Z</time></trkpt><trkpt lat="44.1277205" lon="12.0786868"><ele>77.0</ele><time>2026-04-06T16:13:31.009Z</time></trkpt><trkpt lat="44.1276021" lon="12.0785056"><ele>77.0</ele><time>2026-04-06T16:13:32.009Z</time></trkpt><trkpt lat="44.1274801" lon="12.0783371"><ele>78.33333333333334</ele><time>2026-04-06T16:13:33.009Z</time></trkpt><trkpt lat="44.12735" lon="12.078192"><ele>79.66666666666667</ele><time>2026-04-06T16:13:34.01Z</time></trkpt><trkpt lat="44.127195" lon="12.0780912"><ele>81.0</ele><time>2026-04-06T16:13:35.006Z</time></trkpt><trkpt lat="44.1270183" lon="12.0780174"><ele>81.0</ele><time>2026-04-06T16:13:36.007Z</time></trkpt><trkpt lat="44.1268314" lon="12.0779507"><ele>81.0</ele><time>2026-04-06T16:13:37.009Z</time></trkpt><trkpt lat="44.1266439" lon="12.0778755"><ele>81.0</ele><time>2026-04-06T16:13:38.008Z</time></trkpt><trkpt lat="44.1264497" lon="12.0777953"><ele>82.66666666666667</ele><time>2026-04-06T16:13:39.009Z</time></trkpt><trkpt lat="44.1262511" lon="12.0777147"><ele>84.33333333333334</ele><time>2026-04-06T16:13:40.007Z</time></trkpt><trkpt lat="44.1260549" lon="12.0776253"><ele>86.0</ele><time>2026-04-06T16:13:41.013Z</time></trkpt><trkpt lat="44.1258698" lon="12.0775449"><ele>87.0</ele><time>2026-04-06T16:13:42.007Z</time></trkpt><trkpt lat="44.1256999" lon="12.0774695"><ele>88.0</ele><time>2026-04-06T16:13:43.008Z</time></trkpt><trkpt lat="44.1255415" lon="12.0773979"><ele>89.0</ele><time>2026-04-06T16:13:44.008Z</time></trkpt><trkpt lat="44.1253846" lon="12.0773284"><ele>86.33333333333334</ele><time>2026-04-06T16:13:45.007Z</time></trkpt><trkpt lat="44.1252282" lon="12.0772699"><ele>83.66666666666667</ele><time>2026-04-06T16:13:46.011Z</time></trkpt><trkpt lat="44.1250826" lon="12.077193"><ele>81.0</ele><time>2026-04-06T16:13:47.007Z</time></trkpt><trkpt lat="44.124951" lon="12.0770929"><ele>84.0</ele><time>2026-04-06T16:13:48.007Z</time></trkpt><trkpt lat="44.1248341" lon="12.0769683"><ele>87.0</ele><time>2026-04-06T16:13:49.009Z</time></trkpt><trkpt lat="44.1247343" lon="12.076807"><ele>90.0</ele><time>2026-04-06T16:13:50.012Z</time></trkpt><trkpt lat="44.1246546" lon="12.0766106"><ele>88.66666666666667</ele><time>2026-04-06T16:13:51.011Z</time></trkpt><trkpt lat="44.1245927" lon="12.0763803"><ele>87.33333333333334</ele><time>2026-04-06T16:13:52.013Z</time></trkpt><trkpt lat="44.1245378" lon="12.0761282"><ele>86.0</ele><time>2026-04-06T16:13:53.011Z</time></trkpt><trkpt lat="44.1244784" lon="12.0758579"><ele>84.0</ele><time>2026-04-06T16:13:54.011Z</time></trkpt><trkpt lat="44.124415" lon="12.0755761"><ele>82.0</ele><time>2026-04-06T16:13:55.01Z</time></trkpt><trkpt lat="44.1243462" lon="12.0752876"><ele>80.0</ele><time>2026-04-06T16:13:56.009Z</time></trkpt><trkpt lat="44.1242666" lon="12.0749954"><ele>77.5</ele><time>2026-04-06T16:13:57.013Z</time></trkpt><trkpt lat="44.1241882" lon="12.0746978"><ele>75.0</ele><time>2026-04-06T16:13:58.009Z</time></trkpt><trkpt lat="44.1241031" lon="12.0743982"><ele>76.66666666666667</ele><time>2026-04-06T16:13:59.009Z</time></trkpt><trkpt lat="44.1240294" lon="12.0741053"><ele>78.33333333333334</ele><time>2026-04-06T16:14:00.01Z</time></trkpt><trkpt lat="44.1239574" lon="12.0738231"><ele>80.0</ele><time>2026-04-06T16:14:01.01Z</time></trkpt><trkpt lat="44.1238886" lon="12.073549"><ele>80.0</ele><time>2026-04-06T16:14:02.01Z</time></trkpt><trkpt lat="44.1238168" lon="12.0732778"><ele>80.0</ele><time>2026-04-06T16:14:03.01Z</time></trkpt><trkpt lat="44.1237441" lon="12.0730086"><ele>80.0</ele><time>2026-04-06T16:14:04.01Z</time></trkpt><trkpt lat="44.1236721" lon="12.0727339"><ele>77.66666666666667</ele><time>2026-04-06T16:14:05.009Z</time></trkpt><trkpt lat="44.1236039" lon="12.0724585"><ele>75.33333333333333</ele><time>2026-04-06T16:14:06.01Z</time></trkpt><trkpt lat="44.1235289" lon="12.0721873"><ele>73.0</ele><time>2026-04-06T16:14:07.011Z</time></trkpt><trkpt lat="44.1234579" lon="12.0719107"><ele>72.0</ele><time>2026-04-06T16:14:08.01Z</time></trkpt><trkpt lat="44.1233862" lon="12.0716334"><ele>71.0</ele><time>2026-04-06T16:14:09.01Z</time></trkpt><trkpt lat="44.1233087" lon="12.0713527"><ele>70.0</ele><time>2026-04-06T16:14:10.01Z</time></trkpt><trkpt lat="44.1232386" lon="12.0710609"><ele>67.5</ele><time>2026-04-06T16:14:11.009Z</time></trkpt><trkpt lat="44.1231677" lon="12.0707637"><ele>65.0</ele><time>2026-04-06T16:14:12.009Z</time></trkpt><trkpt lat="44.1230915" lon="12.0704635"><ele>65.0</ele><time>2026-04-06T16:14:13.014Z</time></trkpt><trkpt lat="44.1230071" lon="12.0701618"><ele>65.0</ele><time>2026-04-06T16:14:14.01Z</time></trkpt><trkpt lat="44.1229292" lon="12.0698543"><ele>64.5</ele><time>2026-04-06T16:14:15.01Z</time></trkpt><trkpt lat="44.1228519" lon="12.0695506"><ele>64.0</ele><time>2026-04-06T16:14:16.009Z</time></trkpt><trkpt lat="44.1227806" lon="12.0692569"><ele>63.666666666666664</ele><time>2026-04-06T16:14:17.01Z</time></trkpt><trkpt lat="44.1227138" lon="12.0689801"><ele>63.33333333333333</ele><time>2026-04-06T16:14:18.009Z</time></trkpt><trkpt lat="44.1226456" lon="12.0687179"><ele>63.0</ele><time>2026-04-06T16:14:19.01Z</time></trkpt><trkpt lat="44.1225816" lon="12.068454"><ele>63.0</ele><time>2026-04-06T16:14:20.01Z</time></trkpt><trkpt lat="44.1225186" lon="12.0681887"><ele>63.0</ele><time>2026-04-06T16:14:21.011Z</time></trkpt><trkpt lat="44.1224566" lon="12.0679205"><ele>63.0</ele><time>2026-04-06T16:14:22.009Z</time></trkpt><trkpt lat="44.1223873" lon="12.0676513"><ele>62.66666666666667</ele><time>2026-04-06T16:14:23.009Z</time></trkpt><trkpt lat="44.1223148" lon="12.0673799"><ele>62.333333333333336</ele><time>2026-04-06T16:14:24.009Z</time></trkpt><trkpt lat="44.1222473" lon="12.0671012"><ele>62.0</ele><time>2026-04-06T16:14:25.011Z</time></trkpt><trkpt lat="44.1221761" lon="12.0668155"><ele>61.5</ele><time>2026-04-06T16:14:26.011Z</time></trkpt><trkpt lat="44.1220967" lon="12.0665236"><ele>61.0</ele><time>2026-04-06T16:14:27.01Z</time></trkpt><trkpt lat="44.122015" lon="12.0662219"><ele>61.0</ele><time>2026-04-06T16:14:28.007Z</time></trkpt><trkpt lat="44.121929" lon="12.0659089"><ele>61.0</ele><time>2026-04-06T16:14:29.009Z</time></trkpt><trkpt lat="44.1218482" lon="12.0655872"><ele>59.0</ele><time>2026-04-06T16:14:30.009Z</time></trkpt><trkpt lat="44.1217622" lon="12.0652713"><ele>57.0</ele><time>2026-04-06T16:14:31.011Z</time></trkpt><trkpt lat="44.1216807" lon="12.0649709"><ele>56.66666666666667</ele><time>2026-04-06T16:14:32.012Z</time></trkpt><trkpt lat="44.1216015" lon="12.0646906"><ele>56.333333333333336</ele><time>2026-04-06T16:14:33.01Z</time></trkpt><trkpt lat="44.1215285" lon="12.0644249"><ele>56.0</ele><time>2026-04-06T16:14:34.009Z</time></trkpt><trkpt lat="44.1214598" lon="12.06417"><ele>58.333333333333336</ele><time>2026-04-06T16:14:35.009Z</time></trkpt><trkpt lat="44.1213952" lon="12.0639265"><ele>60.66666666666667</ele><time>2026-04-06T16:14:36.009Z</time></trkpt><trkpt lat="44.1213357" lon="12.0636877"><ele>63.0</ele><time>2026-04-06T16:14:37.01Z</time></trkpt><trkpt lat="44.1212727" lon="12.0634588"><ele>61.66666666666667</ele><time>2026-04-06T16:14:38.01Z</time></trkpt><trkpt lat="44.1212124" lon="12.0632441"><ele>60.333333333333336</ele><time>2026-04-06T16:14:39.01Z</time></trkpt><trkpt lat="44.1211595" lon="12.0630455"><ele>59.0</ele><time>2026-04-06T16:14:40.009Z</time></trkpt><trkpt lat="44.1211098" lon="12.0628585"><ele>59.0</ele><time>2026-04-06T16:14:41.011Z</time></trkpt><trkpt lat="44.1210608" lon="12.062688"><ele>59.0</ele><time>2026-04-06T16:14:42.009Z</time></trkpt><trkpt lat="44.1210131" lon="12.0625354"><ele>59.0</ele><time>2026-04-06T16:14:43.011Z</time></trkpt><trkpt lat="44.1209739" lon="12.0623956"><ele>59.0</ele><time>2026-04-06T16:14:44.008Z</time></trkpt><trkpt lat="44.1209476" lon="12.0622682"><ele>58.2</ele><time>2026-04-06T16:14:45.011Z</time></trkpt><trkpt lat="44.1209384" lon="12.062165"><ele>57.400000000000006</ele><time>2026-04-06T16:14:46.015Z</time></trkpt><trkpt lat="44.1209535" lon="12.0620739"><ele>56.6</ele><time>2026-04-06T16:14:47.009Z</time></trkpt><trkpt lat="44.1210223" lon="12.0619224"><ele>55.8</ele><time>2026-04-06T16:14:49.008Z</time></trkpt><trkpt lat="44.1210968" lon="12.0618538"><ele>55.0</ele><time>2026-04-06T16:14:50.008Z</time></trkpt><trkpt lat="44.121222" lon="12.0617779"><ele>55.0</ele><time>2026-04-06T16:14:51.009Z</time></trkpt><trkpt lat="44.1213694" lon="12.0616868"><ele>55.0</ele><time>2026-04-06T16:14:52.015Z</time></trkpt><trkpt lat="44.1215138" lon="12.0615913"><ele>55.0</ele><time>2026-04-06T16:14:53.008Z</time></trkpt><trkpt lat="44.1216321" lon="12.0615105"><ele>55.0</ele><time>2026-04-06T16:14:54.011Z</time></trkpt><trkpt lat="44.121713" lon="12.0614495"><ele>55.0</ele><time>2026-04-06T16:14:55.01Z</time></trkpt><trkpt lat="44.1217715" lon="12.0614019"><ele>55.0</ele><time>2026-04-06T16:14:56.01Z</time></trkpt><trkpt lat="44.1218554" lon="12.0613315"><ele>55.0</ele><time>2026-04-06T16:14:58.014Z</time></trkpt><trkpt lat="44.1219069" lon="12.0611762"><ele>55.0</ele><time>2026-04-06T16:15:00.012Z</time></trkpt><trkpt lat="44.1219156" lon="12.0610528"><ele>55.0</ele><time>2026-04-06T16:15:01.01Z</time></trkpt><trkpt lat="44.121916" lon="12.0608845"><ele>55.0</ele><time>2026-04-06T16:15:02.009Z</time></trkpt><trkpt lat="44.1219237" lon="12.0607119"><ele>55.0</ele><time>2026-04-06T16:15:03.011Z</time></trkpt><trkpt lat="44.1219396" lon="12.060546"><ele>55.0</ele><time>2026-04-06T16:15:04.01Z</time></trkpt><trkpt lat="44.1219556" lon="12.0604194"><ele>55.83333333333333</ele><time>2026-04-06T16:15:05.009Z</time></trkpt><trkpt lat="44.1219595" lon="12.0603277"><ele>56.666666666666664</ele><time>2026-04-06T16:15:06.009Z</time></trkpt><trkpt lat="44.1219569" lon="12.0601995"><ele>57.5</ele><time>2026-04-06T16:15:08.01Z</time></trkpt><trkpt lat="44.1219108" lon="12.0600843"><ele>58.33333333333333</ele><time>2026-04-06T16:15:10.01Z</time></trkpt><trkpt lat="44.1218581" lon="12.0600352"><ele>59.166666666666664</ele><time>2026-04-06T16:15:11.009Z</time></trkpt><trkpt lat="44.1217969" lon="12.0599787"><ele>60.0</ele><time>2026-04-06T16:15:12.01Z</time></trkpt><trkpt lat="44.1216961" lon="12.0599206"><ele>62.33333333333333</ele><time>2026-04-06T16:15:13.008Z</time></trkpt><trkpt lat="44.1215363" lon="12.0598515"><ele>64.66666666666666</ele><time>2026-04-06T16:15:14.005Z</time></trkpt><trkpt lat="44.1213391" lon="12.0597858"><ele>67.0</ele><time>2026-04-06T16:15:15.007Z</time></trkpt><trkpt lat="44.1211214" lon="12.0597187"><ele>67.0</ele><time>2026-04-06T16:15:16.007Z</time></trkpt><trkpt lat="44.1208839" lon="12.0596483"><ele>67.0</ele><time>2026-04-06T16:15:17.006Z</time></trkpt><trkpt lat="44.1206785" lon="12.05958"><ele>66.33333333333333</ele><time>2026-04-06T16:15:18.012Z</time></trkpt><trkpt lat="44.120511" lon="12.0595169"><ele>65.66666666666667</ele><time>2026-04-06T16:15:19.011Z</time></trkpt><trkpt lat="44.1203634" lon="12.0594584"><ele>65.0</ele><time>2026-04-06T16:15:20.008Z</time></trkpt><trkpt lat="44.1202288" lon="12.0593988"><ele>65.0</ele><time>2026-04-06T16:15:21.011Z</time></trkpt><trkpt lat="44.1200943" lon="12.0593376"><ele>65.0</ele><time>2026-04-06T16:15:22.01Z</time></trkpt><trkpt lat="44.1199537" lon="12.0592691"><ele>65.0</ele><time>2026-04-06T16:15:23.013Z</time></trkpt><trkpt lat="44.119815" lon="12.0591878"><ele>65.0</ele><time>2026-04-06T16:15:24.01Z</time></trkpt><trkpt lat="44.1196997" lon="12.0591036"><ele>65.6</ele><time>2026-04-06T16:15:25.008Z</time></trkpt><trkpt lat="44.1196113" lon="12.0590307"><ele>66.2</ele><time>2026-04-06T16:15:26.009Z</time></trkpt><trkpt lat="44.1195437" lon="12.0589762"><ele>66.8</ele><time>2026-04-06T16:15:27.009Z</time></trkpt><trkpt lat="44.11945" lon="12.0589035"><ele>67.4</ele><time>2026-04-06T16:15:29.008Z</time></trkpt><trkpt lat="44.1194467" lon="12.05875"><ele>68.0</ele><time>2026-04-06T16:15:43.009Z</time></trkpt><trkpt lat="44.1193583" lon="12.0585567"><ele>68.0</ele><time>2026-04-06T16:15:45.01Z</time></trkpt><trkpt lat="44.11926" lon="12.0584317"><ele>68.0</ele><time>2026-04-06T16:15:46.009Z</time></trkpt><trkpt lat="44.1191583" lon="12.058325"><ele>68.0</ele><time>2026-04-06T16:15:47.011Z</time></trkpt><trkpt lat="44.1190767" lon="12.058235"><ele>68.0</ele><time>2026-04-06T16:15:48.009Z</time></trkpt><trkpt lat="44.1190133" lon="12.058155"><ele>67.25</ele><time>2026-04-06T16:15:49.008Z</time></trkpt><trkpt lat="44.118965" lon="12.05806"><ele>66.5</ele><time>2026-04-06T16:15:50.009Z</time></trkpt><trkpt lat="44.1189233" lon="12.0579367"><ele>65.75</ele><time>2026-04-06T16:15:51.013Z</time></trkpt><trkpt lat="44.118885" lon="12.0577733"><ele>65.0</ele><time>2026-04-06T16:15:52.009Z</time></trkpt><trkpt lat="44.1188483" lon="12.0575533"><ele>65.33333333333334</ele><time>2026-04-06T16:15:53.009Z</time></trkpt><trkpt lat="44.118805" lon="12.0572967"><ele>65.66666666666667</ele><time>2026-04-06T16:15:54.009Z</time></trkpt><trkpt lat="44.11875" lon="12.0570133"><ele>66.0</ele><time>2026-04-06T16:15:55.008Z</time></trkpt><trkpt lat="44.1186967" lon="12.05671"><ele>66.33333333333333</ele><time>2026-04-06T16:15:56.01Z</time></trkpt><trkpt lat="44.11864" lon="12.0564167"><ele>66.66666666666666</ele><time>2026-04-06T16:15:57.01Z</time></trkpt><trkpt lat="44.118585" lon="12.056125"><ele>67.0</ele><time>2026-04-06T16:15:58.009Z</time></trkpt><trkpt lat="44.118535" lon="12.05585"><ele>68.33333333333333</ele><time>2026-04-06T16:15:59.01Z</time></trkpt><trkpt lat="44.1184817" lon="12.0555833"><ele>69.66666666666667</ele><time>2026-04-06T16:16:00.009Z</time></trkpt><trkpt lat="44.1184283" lon="12.0553017"><ele>71.0</ele><time>2026-04-06T16:16:01.009Z</time></trkpt><trkpt lat="44.1183783" lon="12.0550217"><ele>72.33333333333334</ele><time>2026-04-06T16:16:02.011Z</time></trkpt><trkpt lat="44.1183317" lon="12.0547633"><ele>73.66666666666667</ele><time>2026-04-06T16:16:03.013Z</time></trkpt><trkpt lat="44.1182867" lon="12.054525"><ele>75.0</ele><time>2026-04-06T16:16:04.009Z</time></trkpt><trkpt lat="44.118245" lon="12.0543017"><ele>75.0</ele><time>2026-04-06T16:16:05.008Z</time></trkpt><trkpt lat="44.1182067" lon="12.0540817"><ele>75.0</ele><time>2026-04-06T16:16:06.008Z</time></trkpt><trkpt lat="44.1181767" lon="12.0538733"><ele>75.0</ele><time>2026-04-06T16:16:07.012Z</time></trkpt><trkpt lat="44.1181583" lon="12.0536733"><ele>75.0</ele><time>2026-04-06T16:16:08.008Z</time></trkpt><trkpt lat="44.1181467" lon="12.0534883"><ele>75.0</ele><time>2026-04-06T16:16:09.01Z</time></trkpt><trkpt lat="44.1181317" lon="12.0533233"><ele>75.0</ele><time>2026-04-06T16:16:10.008Z</time></trkpt><trkpt lat="44.1181167" lon="12.0531817"><ele>75.0</ele><time>2026-04-06T16:16:11.009Z</time></trkpt><trkpt lat="44.1181067" lon="12.0530583"><ele>75.0</ele><time>2026-04-06T16:16:12.009Z</time></trkpt><trkpt lat="44.118095" lon="12.05294"><ele>75.5</ele><time>2026-04-06T16:16:13.009Z</time></trkpt><trkpt lat="44.1180833" lon="12.0528117"><ele>76.0</ele><time>2026-04-06T16:16:14.008Z</time></trkpt><trkpt lat="44.1180633" lon="12.0526583"><ele>76.5</ele><time>2026-04-06T16:16:15.009Z</time></trkpt><trkpt lat="44.118045" lon="12.0524833"><ele>77.0</ele><time>2026-04-06T16:16:16.008Z</time></trkpt><trkpt lat="44.11803" lon="12.05229"><ele>77.25</ele><time>2026-04-06T16:16:17.013Z</time></trkpt><trkpt lat="44.11802" lon="12.052085"><ele>77.5</ele><time>2026-04-06T16:16:18.008Z</time></trkpt><trkpt lat="44.1180083" lon="12.05188"><ele>77.75</ele><time>2026-04-06T16:16:19.011Z</time></trkpt><trkpt lat="44.1180017" lon="12.051675"><ele>78.0</ele><time>2026-04-06T16:16:20.01Z</time></trkpt><trkpt lat="44.1179933" lon="12.0514717"><ele>78.25</ele><time>2026-04-06T16:16:21.009Z</time></trkpt><trkpt lat="44.117985" lon="12.0512717"><ele>78.5</ele><time>2026-04-06T16:16:22.009Z</time></trkpt><trkpt lat="44.1179783" lon="12.051085"><ele>78.75</ele><time>2026-04-06T16:16:23.008Z</time></trkpt><trkpt lat="44.1179767" lon="12.0509167"><ele>79.0</ele><time>2026-04-06T16:16:24.013Z</time></trkpt><trkpt lat="44.1179867" lon="12.050745"><ele>81.0</ele><time>2026-04-06T16:16:25.01Z</time></trkpt><trkpt lat="44.1180267" lon="12.0505517"><ele>83.0</ele><time>2026-04-06T16:16:26.01Z</time></trkpt><trkpt lat="44.1180783" lon="12.0503383"><ele>85.0</ele><time>2026-04-06T16:16:27.01Z</time></trkpt><trkpt lat="44.1181367" lon="12.0501033"><ele>84.66666666666666</ele><time>2026-04-06T16:16:28.009Z</time></trkpt><trkpt lat="44.1181933" lon="12.0498483"><ele>84.33333333333333</ele><time>2026-04-06T16:16:29.009Z</time></trkpt><trkpt lat="44.1182367" lon="12.049585"><ele>84.0</ele><time>2026-04-06T16:16:30.008Z</time></trkpt><trkpt lat="44.1182717" lon="12.0493167"><ele>83.33333333333333</ele><time>2026-04-06T16:16:31.011Z</time></trkpt><trkpt lat="44.1183" lon="12.0490517"><ele>82.66666666666666</ele><time>2026-04-06T16:16:32.009Z</time></trkpt><trkpt lat="44.1183233" lon="12.0487967"><ele>82.0</ele><time>2026-04-06T16:16:33.01Z</time></trkpt><trkpt lat="44.1183483" lon="12.04854"><ele>82.0</ele><time>2026-04-06T16:16:34.008Z</time></trkpt><trkpt lat="44.1183667" lon="12.048295"><ele>82.0</ele><time>2026-04-06T16:16:35.009Z</time></trkpt><trkpt lat="44.1183867" lon="12.04806"><ele>82.0</ele><time>2026-04-06T16:16:36.011Z</time></trkpt><trkpt lat="44.1184083" lon="12.0478383"><ele>82.33333333333333</ele><time>2026-04-06T16:16:37.014Z</time></trkpt><trkpt lat="44.11844" lon="12.0476283"><ele>82.66666666666667</ele><time>2026-04-06T16:16:38.01Z</time></trkpt><trkpt lat="44.1184867" lon="12.0474283"><ele>83.0</ele><time>2026-04-06T16:16:39.009Z</time></trkpt><trkpt lat="44.1185633" lon="12.0472367"><ele>84.25</ele><time>2026-04-06T16:16:40.01Z</time></trkpt><trkpt lat="44.1186567" lon="12.0470583"><ele>85.5</ele><time>2026-04-06T16:16:41.008Z</time></trkpt><trkpt lat="44.118745" lon="12.0468967"><ele>86.75</ele><time>2026-04-06T16:16:42.009Z</time></trkpt><trkpt lat="44.1188167" lon="12.0467467"><ele>88.0</ele><time>2026-04-06T16:16:43.011Z</time></trkpt><trkpt lat="44.1188567" lon="12.0465933"><ele>89.25</ele><time>2026-04-06T16:16:44.014Z</time></trkpt><trkpt lat="44.1188717" lon="12.0464183"><ele>90.5</ele><time>2026-04-06T16:16:45.009Z</time></trkpt><trkpt lat="44.1188667" lon="12.046225"><ele>91.75</ele><time>2026-04-06T16:16:46.009Z</time></trkpt><trkpt lat="44.1188633" lon="12.046025"><ele>93.0</ele><time>2026-04-06T16:16:47.009Z</time></trkpt><trkpt lat="44.11888" lon="12.0458417"><ele>94.4</ele><time>2026-04-06T16:16:48.01Z</time></trkpt><trkpt lat="44.1189183" lon="12.0456783"><ele>95.80000000000001</ele><time>2026-04-06T16:16:49.01Z</time></trkpt><trkpt lat="44.1189667" lon="12.045545"><ele>97.2</ele><time>2026-04-06T16:16:50.009Z</time></trkpt><trkpt lat="44.11902" lon="12.04543"><ele>98.6</ele><time>2026-04-06T16:16:51.009Z</time></trkpt><trkpt lat="44.119075" lon="12.04533"><ele>100.0</ele><time>2026-04-06T16:16:52.01Z</time></trkpt><trkpt lat="44.1191317" lon="12.0452333"><ele>98.2</ele><time>2026-04-06T16:16:53.009Z</time></trkpt><trkpt lat="44.1191867" lon="12.0451333"><ele>96.4</ele><time>2026-04-06T16:16:54.01Z</time></trkpt><trkpt lat="44.1192367" lon="12.045015"><ele>94.6</ele><time>2026-04-06T16:16:55.01Z</time></trkpt><trkpt lat="44.1192883" lon="12.0448767"><ele>92.8</ele><time>2026-04-06T16:16:56.01Z</time></trkpt><trkpt lat="44.1193433" lon="12.0447133"><ele>91.0</ele><time>2026-04-06T16:16:57.015Z</time></trkpt><trkpt lat="44.1194033" lon="12.0445267"><ele>91.0</ele><time>2026-04-06T16:16:58.01Z</time></trkpt><trkpt lat="44.1194667" lon="12.044315"><ele>91.0</ele><time>2026-04-06T16:16:59.008Z</time></trkpt><trkpt lat="44.11953" lon="12.0440833"><ele>91.0</ele><time>2026-04-06T16:17:00.01Z</time></trkpt><trkpt lat="44.1196" lon="12.0438433"><ele>91.66666666666666</ele><time>2026-04-06T16:17:01.012Z</time></trkpt><trkpt lat="44.1196817" lon="12.043595"><ele>92.33333333333333</ele><time>2026-04-06T16:17:02.01Z</time></trkpt><trkpt lat="44.1197717" lon="12.043355"><ele>93.0</ele><time>2026-04-06T16:17:03.015Z</time></trkpt><trkpt lat="44.1198583" lon="12.0431333"><ele>92.0</ele><time>2026-04-06T16:17:04.009Z</time></trkpt><trkpt lat="44.1199367" lon="12.0429317"><ele>91.0</ele><time>2026-04-06T16:17:05.009Z</time></trkpt><trkpt lat="44.1200117" lon="12.0427483"><ele>90.0</ele><time>2026-04-06T16:17:06.01Z</time></trkpt><trkpt lat="44.1200783" lon="12.0425633"><ele>91.0</ele><time>2026-04-06T16:17:07.009Z</time></trkpt><trkpt lat="44.120135" lon="12.04237"><ele>92.0</ele><time>2026-04-06T16:17:08.009Z</time></trkpt><trkpt lat="44.1201733" lon="12.0421533"><ele>93.0</ele><time>2026-04-06T16:17:09.01Z</time></trkpt><trkpt lat="44.1201867" lon="12.0419067"><ele>93.0</ele><time>2026-04-06T16:17:10.009Z</time></trkpt><trkpt lat="44.1201833" lon="12.0416383"><ele>93.0</ele><time>2026-04-06T16:17:11.009Z</time></trkpt><trkpt lat="44.1201733" lon="12.0413533"><ele>93.0</ele><time>2026-04-06T16:17:12.016Z</time></trkpt><trkpt lat="44.1201617" lon="12.0410633"><ele>93.33333333333333</ele><time>2026-04-06T16:17:13.008Z</time></trkpt><trkpt lat="44.120155" lon="12.040785"><ele>93.66666666666666</ele><time>2026-04-06T16:17:14.008Z</time></trkpt><trkpt lat="44.1201467" lon="12.0405317"><ele>94.0</ele><time>2026-04-06T16:17:15.008Z</time></trkpt><trkpt lat="44.1201483" lon="12.0402917"><ele>94.0</ele><time>2026-04-06T16:17:16.009Z</time></trkpt><trkpt lat="44.1201417" lon="12.0400833"><ele>94.0</ele><time>2026-04-06T16:17:17.011Z</time></trkpt><trkpt lat="44.12015" lon="12.03989"><ele>94.0</ele><time>2026-04-06T16:17:18.01Z</time></trkpt><trkpt lat="44.12019" lon="12.0396933"><ele>94.0</ele><time>2026-04-06T16:17:19.091Z</time></trkpt><trkpt lat="44.120255" lon="12.0394833"><ele>96.0</ele><time>2026-04-06T16:17:20.008Z</time></trkpt><trkpt lat="44.1203417" lon="12.0392533"><ele>98.0</ele><time>2026-04-06T16:17:21.009Z</time></trkpt><trkpt lat="44.12044" lon="12.0390067"><ele>100.0</ele><time>2026-04-06T16:17:22.009Z</time></trkpt><trkpt lat="44.1205417" lon="12.03875"><ele>101.0</ele><time>2026-04-06T16:17:23.01Z</time></trkpt><trkpt lat="44.120645" lon="12.0385033"><ele>102.0</ele><time>2026-04-06T16:17:24.008Z</time></trkpt><trkpt lat="44.120745" lon="12.038275"><ele>103.0</ele><time>2026-04-06T16:17:25.013Z</time></trkpt><trkpt lat="44.1208417" lon="12.0380583"><ele>103.0</ele><time>2026-04-06T16:17:26.009Z</time></trkpt><trkpt lat="44.1209383" lon="12.0378533"><ele>103.0</ele><time>2026-04-06T16:17:27.011Z</time></trkpt><trkpt lat="44.1210367" lon="12.03765"><ele>103.0</ele><time>2026-04-06T16:17:28.01Z</time></trkpt><trkpt lat="44.1211425" lon="12.0374569"><ele>105.75</ele><time>2026-04-06T16:17:29.008Z</time></trkpt><trkpt lat="44.1212497" lon="12.037288"><ele>108.5</ele><time>2026-04-06T16:17:30.013Z</time></trkpt><trkpt lat="44.1213448" lon="12.0371357"><ele>111.25</ele><time>2026-04-06T16:17:31.012Z</time></trkpt><trkpt lat="44.1214192" lon="12.036978"><ele>114.0</ele><time>2026-04-06T16:17:32.01Z</time></trkpt><trkpt lat="44.1214692" lon="12.0368153"><ele>114.0</ele><time>2026-04-06T16:17:33.011Z</time></trkpt><trkpt lat="44.1215081" lon="12.0366641"><ele>114.0</ele><time>2026-04-06T16:17:34.008Z</time></trkpt><trkpt lat="44.1215462" lon="12.036542"><ele>114.0</ele><time>2026-04-06T16:17:35.008Z</time></trkpt><trkpt lat="44.1215963" lon="12.0364563"><ele>114.0</ele><time>2026-04-06T16:17:36.008Z</time></trkpt><trkpt lat="44.1216553" lon="12.0364024"><ele>114.0</ele><time>2026-04-06T16:17:37.009Z</time></trkpt><trkpt lat="44.1217239" lon="12.0363728"><ele>114.0</ele><time>2026-04-06T16:17:38.01Z</time></trkpt><trkpt lat="44.1218079" lon="12.0363656"><ele>114.0</ele><time>2026-04-06T16:17:39.01Z</time></trkpt><trkpt lat="44.1218986" lon="12.036345"><ele>114.0</ele><time>2026-04-06T16:17:40.011Z</time></trkpt><trkpt lat="44.121985" lon="12.0362836"><ele>114.0</ele><time>2026-04-06T16:17:41.009Z</time></trkpt><trkpt lat="44.1220718" lon="12.0361635"><ele>114.0</ele><time>2026-04-06T16:17:42.009Z</time></trkpt><trkpt lat="44.1221587" lon="12.0359973"><ele>114.0</ele><time>2026-04-06T16:17:43.009Z</time></trkpt><trkpt lat="44.1222583" lon="12.0358145"><ele>114.0</ele><time>2026-04-06T16:17:44.014Z</time></trkpt><trkpt lat="44.1223577" lon="12.0356391"><ele>114.0</ele><time>2026-04-06T16:17:45.008Z</time></trkpt><trkpt lat="44.1224415" lon="12.0354907"><ele>115.4</ele><time>2026-04-06T16:17:46.01Z</time></trkpt><trkpt lat="44.1224952" lon="12.0353593"><ele>116.80000000000001</ele><time>2026-04-06T16:17:47.01Z</time></trkpt><trkpt lat="44.1225102" lon="12.0352223"><ele>118.19999999999999</ele><time>2026-04-06T16:17:48.009Z</time></trkpt><trkpt lat="44.1224955" lon="12.0350716"><ele>119.6</ele><time>2026-04-06T16:17:49.012Z</time></trkpt><trkpt lat="44.1224642" lon="12.0349025"><ele>121.0</ele><time>2026-04-06T16:17:50.01Z</time></trkpt><trkpt lat="44.1224215" lon="12.0347145"><ele>123.0</ele><time>2026-04-06T16:17:51.009Z</time></trkpt><trkpt lat="44.1223744" lon="12.034521"><ele>125.0</ele><time>2026-04-06T16:17:52.011Z</time></trkpt><trkpt lat="44.122319" lon="12.0343399"><ele>127.0</ele><time>2026-04-06T16:17:53.009Z</time></trkpt><trkpt lat="44.1222569" lon="12.0341856"><ele>129.0</ele><time>2026-04-06T16:17:54.015Z</time></trkpt><trkpt lat="44.1221864" lon="12.0340681"><ele>131.0</ele><time>2026-04-06T16:17:55.011Z</time></trkpt><trkpt lat="44.1220892" lon="12.0339895"><ele>133.0</ele><time>2026-04-06T16:17:56.01Z</time></trkpt><trkpt lat="44.1219745" lon="12.0339395"><ele>135.0</ele><time>2026-04-06T16:17:57.011Z</time></trkpt><trkpt lat="44.1218581" lon="12.0339225"><ele>137.0</ele><time>2026-04-06T16:17:58.01Z</time></trkpt><trkpt lat="44.1217509" lon="12.0339505"><ele>137.0</ele><time>2026-04-06T16:17:59.012Z</time></trkpt><trkpt lat="44.1216598" lon="12.0340187"><ele>137.0</ele><time>2026-04-06T16:18:00.008Z</time></trkpt><trkpt lat="44.1215813" lon="12.0341"><ele>137.0</ele><time>2026-04-06T16:18:01.01Z</time></trkpt><trkpt lat="44.1215093" lon="12.0341302"><ele>137.0</ele><time>2026-04-06T16:18:02.01Z</time></trkpt><trkpt lat="44.1214294" lon="12.0341292"><ele>137.0</ele><time>2026-04-06T16:18:03.011Z</time></trkpt><trkpt lat="44.1213918" lon="12.0339742"><ele>137.0</ele><time>2026-04-06T16:18:05.01Z</time></trkpt><trkpt lat="44.1214354" lon="12.0338431"><ele>137.0</ele><time>2026-04-06T16:18:06.008Z</time></trkpt><trkpt lat="44.1215191" lon="12.0337024"><ele>137.0</ele><time>2026-04-06T16:18:07.014Z</time></trkpt><trkpt lat="44.1216138" lon="12.0335577"><ele>137.0</ele><time>2026-04-06T16:18:08.009Z</time></trkpt><trkpt lat="44.1217195" lon="12.0334213"><ele>137.0</ele><time>2026-04-06T16:18:09.011Z</time></trkpt><trkpt lat="44.121813" lon="12.0333109"><ele>137.0</ele><time>2026-04-06T16:18:10.009Z</time></trkpt><trkpt lat="44.1218559" lon="12.0332031"><ele>137.0</ele><time>2026-04-06T16:18:11.01Z</time></trkpt><trkpt lat="44.1218628" lon="12.0330893"><ele>137.0</ele><time>2026-04-06T16:18:12.014Z</time></trkpt><trkpt lat="44.1218448" lon="12.0329775"><ele>137.0</ele><time>2026-04-06T16:18:13.009Z</time></trkpt><trkpt lat="44.1217985" lon="12.0328648"><ele>138.75</ele><time>2026-04-06T16:18:14.009Z</time></trkpt><trkpt lat="44.1217103" lon="12.0327449"><ele>140.5</ele><time>2026-04-06T16:18:15.01Z</time></trkpt><trkpt lat="44.1215918" lon="12.0326066"><ele>142.25</ele><time>2026-04-06T16:18:16.01Z</time></trkpt><trkpt lat="44.1214722" lon="12.0324528"><ele>144.0</ele><time>2026-04-06T16:18:17.009Z</time></trkpt><trkpt lat="44.1213501" lon="12.0323105"><ele>146.25</ele><time>2026-04-06T16:18:18.01Z</time></trkpt><trkpt lat="44.1212341" lon="12.0321924"><ele>148.5</ele><time>2026-04-06T16:18:19.014Z</time></trkpt><trkpt lat="44.1211225" lon="12.0321274"><ele>150.75</ele><time>2026-04-06T16:18:20.011Z</time></trkpt><trkpt lat="44.1210122" lon="12.0321173"><ele>153.0</ele><time>2026-04-06T16:18:21.01Z</time></trkpt><trkpt lat="44.1209081" lon="12.0321491"><ele>153.0</ele><time>2026-04-06T16:18:22.01Z</time></trkpt><trkpt lat="44.1208155" lon="12.0322063"><ele>153.0</ele><time>2026-04-06T16:18:23.008Z</time></trkpt><trkpt lat="44.1207315" lon="12.0322217"><ele>153.0</ele><time>2026-04-06T16:18:24.009Z</time></trkpt><trkpt lat="44.1206565" lon="12.0322039"><ele>153.0</ele><time>2026-04-06T16:18:25.011Z</time></trkpt><trkpt lat="44.1205916" lon="12.0321788"><ele>153.0</ele><time>2026-04-06T16:18:26.011Z</time></trkpt><trkpt lat="44.1205434" lon="12.0320682"><ele>153.0</ele><time>2026-04-06T16:18:28.01Z</time></trkpt><trkpt lat="44.1205928" lon="12.0319117"><ele>156.0</ele><time>2026-04-06T16:18:29.008Z</time></trkpt><trkpt lat="44.1206451" lon="12.0317251"><ele>159.0</ele><time>2026-04-06T16:18:30.01Z</time></trkpt><trkpt lat="44.1206928" lon="12.0315079"><ele>162.0</ele><time>2026-04-06T16:18:31.013Z</time></trkpt><trkpt lat="44.1207627" lon="12.0312787"><ele>162.0</ele><time>2026-04-06T16:18:32.008Z</time></trkpt><trkpt lat="44.1208168" lon="12.0310414"><ele>162.0</ele><time>2026-04-06T16:18:33.01Z</time></trkpt><trkpt lat="44.1208569" lon="12.0308013"><ele>162.0</ele><time>2026-04-06T16:18:34.008Z</time></trkpt><trkpt lat="44.1208801" lon="12.0305528"><ele>164.33333333333334</ele><time>2026-04-06T16:18:35.01Z</time></trkpt><trkpt lat="44.1208888" lon="12.030287"><ele>166.66666666666669</ele><time>2026-04-06T16:18:36.015Z</time></trkpt><trkpt lat="44.1208863" lon="12.030029"><ele>169.0</ele><time>2026-04-06T16:18:37.011Z</time></trkpt><trkpt lat="44.1208781" lon="12.029797"><ele>171.33333333333334</ele><time>2026-04-06T16:18:38.009Z</time></trkpt><trkpt lat="44.1208523" lon="12.0295787"><ele>173.66666666666666</ele><time>2026-04-06T16:18:39.012Z</time></trkpt><trkpt lat="44.1207941" lon="12.0293651"><ele>176.0</ele><time>2026-04-06T16:18:40.009Z</time></trkpt><trkpt lat="44.1207224" lon="12.0291574"><ele>177.5</ele><time>2026-04-06T16:18:41.01Z</time></trkpt><trkpt lat="44.1206517" lon="12.0289752"><ele>179.0</ele><time>2026-04-06T16:18:42.01Z</time></trkpt><trkpt lat="44.12058" lon="12.0288307"><ele>180.5</ele><time>2026-04-06T16:18:43.01Z</time></trkpt><trkpt lat="44.1205012" lon="12.0287358"><ele>182.0</ele><time>2026-04-06T16:18:44.01Z</time></trkpt><trkpt lat="44.1204143" lon="12.0286922"><ele>182.0</ele><time>2026-04-06T16:18:45.008Z</time></trkpt><trkpt lat="44.1203103" lon="12.0287175"><ele>182.0</ele><time>2026-04-06T16:18:46.008Z</time></trkpt><trkpt lat="44.1201878" lon="12.0288053"><ele>182.0</ele><time>2026-04-06T16:18:47.009Z</time></trkpt><trkpt lat="44.1200394" lon="12.0289248"><ele>182.0</ele><time>2026-04-06T16:18:48.009Z</time></trkpt><trkpt lat="44.1198722" lon="12.0290535"><ele>183.0</ele><time>2026-04-06T16:18:49.012Z</time></trkpt><trkpt lat="44.1197104" lon="12.0291666"><ele>184.0</ele><time>2026-04-06T16:18:50.01Z</time></trkpt><trkpt lat="44.1195705" lon="12.0292514"><ele>185.0</ele><time>2026-04-06T16:18:51.012Z</time></trkpt><trkpt lat="44.1194554" lon="12.0292912"><ele>185.0</ele><time>2026-04-06T16:18:52.009Z</time></trkpt><trkpt lat="44.1193624" lon="12.0292746"><ele>185.0</ele><time>2026-04-06T16:18:53.009Z</time></trkpt><trkpt lat="44.1192834" lon="12.0292117"><ele>185.0</ele><time>2026-04-06T16:18:54.012Z</time></trkpt><trkpt lat="44.1192267" lon="12.0291072"><ele>185.0</ele><time>2026-04-06T16:18:55.01Z</time></trkpt><trkpt lat="44.1191935" lon="12.0289488"><ele>185.0</ele><time>2026-04-06T16:18:56.008Z</time></trkpt><trkpt lat="44.1191703" lon="12.0287533"><ele>185.66666666666666</ele><time>2026-04-06T16:18:57.011Z</time></trkpt><trkpt lat="44.1191314" lon="12.0285277"><ele>186.33333333333334</ele><time>2026-04-06T16:18:58.009Z</time></trkpt><trkpt lat="44.1190661" lon="12.0282752"><ele>187.0</ele><time>2026-04-06T16:18:59.009Z</time></trkpt><trkpt lat="44.1189735" lon="12.0279993"><ele>193.0</ele><time>2026-04-06T16:19:00.009Z</time></trkpt><trkpt lat="44.1188537" lon="12.0277093"><ele>199.0</ele><time>2026-04-06T16:19:01.009Z</time></trkpt><trkpt lat="44.1187191" lon="12.0274017"><ele>199.0</ele><time>2026-04-06T16:19:02.01Z</time></trkpt><trkpt lat="44.1185915" lon="12.0270812"><ele>199.0</ele><time>2026-04-06T16:19:03.011Z</time></trkpt><trkpt lat="44.1184679" lon="12.0267685"><ele>201.5</ele><time>2026-04-06T16:19:04.013Z</time></trkpt><trkpt lat="44.1183525" lon="12.026476"><ele>204.0</ele><time>2026-04-06T16:19:05.009Z</time></trkpt><trkpt lat="44.1182516" lon="12.0262076"><ele>207.66666666666669</ele><time>2026-04-06T16:19:06.01Z</time></trkpt><trkpt lat="44.1181595" lon="12.0259738"><ele>211.33333333333334</ele><time>2026-04-06T16:19:07.012Z</time></trkpt><trkpt lat="44.1180818" lon="12.0257687"><ele>215.0</ele><time>2026-04-06T16:19:08.01Z</time></trkpt><trkpt lat="44.1180216" lon="12.025585"><ele>215.0</ele><time>2026-04-06T16:19:09.013Z</time></trkpt><trkpt lat="44.1179655" lon="12.0254281"><ele>215.0</ele><time>2026-04-06T16:19:10.009Z</time></trkpt><trkpt lat="44.1179075" lon="12.0253055"><ele>215.0</ele><time>2026-04-06T16:19:11.009Z</time></trkpt><trkpt lat="44.1178374" lon="12.0252358"><ele>215.0</ele><time>2026-04-06T16:19:12.009Z</time></trkpt><trkpt lat="44.1177568" lon="12.0251968"><ele>215.0</ele><time>2026-04-06T16:19:13.012Z</time></trkpt><trkpt lat="44.1176856" lon="12.0252198"><ele>215.0</ele><time>2026-04-06T16:19:14.008Z</time></trkpt><trkpt lat="44.1176189" lon="12.0252834"><ele>215.0</ele><time>2026-04-06T16:19:15.011Z</time></trkpt><trkpt lat="44.1175777" lon="12.0254257"><ele>215.0</ele><time>2026-04-06T16:19:16.009Z</time></trkpt><trkpt lat="44.117549" lon="12.0256185"><ele>215.0</ele><time>2026-04-06T16:19:17.011Z</time></trkpt><trkpt lat="44.1175205" lon="12.0258441"><ele>215.66666666666669</ele><time>2026-04-06T16:19:18.01Z</time></trkpt><trkpt lat="44.1174849" lon="12.026101"><ele>216.33333333333331</ele><time>2026-04-06T16:19:19.011Z</time></trkpt><trkpt lat="44.1174457" lon="12.0263899"><ele>217.0</ele><time>2026-04-06T16:19:20.01Z</time></trkpt><trkpt lat="44.1174038" lon="12.0267053"><ele>228.0</ele><time>2026-04-06T16:19:21.01Z</time></trkpt><trkpt lat="44.1173623" lon="12.0270248"><ele>239.0</ele><time>2026-04-06T16:19:22.008Z</time></trkpt><trkpt lat="44.1173351" lon="12.02733"><ele>239.0</ele><time>2026-04-06T16:19:23.009Z</time></trkpt><trkpt lat="44.1173156" lon="12.0275961"><ele>239.0</ele><time>2026-04-06T16:19:24.008Z</time></trkpt><trkpt lat="44.1173106" lon="12.0278134"><ele>239.0</ele><time>2026-04-06T16:19:25.013Z</time></trkpt><trkpt lat="44.117309" lon="12.0279777"><ele>239.00000000000003</ele><time>2026-04-06T16:19:26.009Z</time></trkpt><trkpt lat="44.1172887" lon="12.0280902"><ele>239.0</ele><time>2026-04-06T16:19:27.009Z</time></trkpt><trkpt lat="44.1172484" lon="12.0281589"><ele>239.0</ele><time>2026-04-06T16:19:28.008Z</time></trkpt><trkpt lat="44.1171506" lon="12.0281216"><ele>239.0</ele><time>2026-04-06T16:19:30.007Z</time></trkpt><trkpt lat="44.1171125" lon="12.0280457"><ele>239.00000000000003</ele><time>2026-04-06T16:19:31.011Z</time></trkpt><trkpt lat="44.1170772" lon="12.0278965"><ele>239.0</ele><time>2026-04-06T16:19:32.01Z</time></trkpt><trkpt lat="44.1170463" lon="12.0277025"><ele>239.0</ele><time>2026-04-06T16:19:33.008Z</time></trkpt><trkpt lat="44.1170076" lon="12.027483"><ele>239.0</ele><time>2026-04-06T16:19:34.008Z</time></trkpt><trkpt lat="44.1169482" lon="12.0272421"><ele>239.0</ele><time>2026-04-06T16:19:35.008Z</time></trkpt><trkpt lat="44.116873" lon="12.0269855"><ele>239.0</ele><time>2026-04-06T16:19:36.011Z</time></trkpt><trkpt lat="44.1167961" lon="12.0267301"><ele>239.0</ele><time>2026-04-06T16:19:37.01Z</time></trkpt><trkpt lat="44.1167355" lon="12.0264898"><ele>239.0</ele><time>2026-04-06T16:19:38.017Z</time></trkpt><trkpt lat="44.1166995" lon="12.0262705"><ele>238.79999999999998</ele><time>2026-04-06T16:19:39.008Z</time></trkpt><trkpt lat="44.1166863" lon="12.0260693"><ele>238.59999999999997</ele><time>2026-04-06T16:19:40.007Z</time></trkpt><trkpt lat="44.1166715" lon="12.0259049"><ele>238.4</ele><time>2026-04-06T16:19:41.008Z</time></trkpt><trkpt lat="44.1166432" lon="12.0257876"><ele>238.2</ele><time>2026-04-06T16:19:42.009Z</time></trkpt><trkpt lat="44.1166017" lon="12.0257094"><ele>238.0</ele><time>2026-04-06T16:19:43.01Z</time></trkpt><trkpt lat="44.1164959" lon="12.025696"><ele>242.0</ele><time>2026-04-06T16:19:45.011Z</time></trkpt><trkpt lat="44.1164392" lon="12.0258164"><ele>246.0</ele><time>2026-04-06T16:19:46.009Z</time></trkpt><trkpt lat="44.1163915" lon="12.026008"><ele>250.0</ele><time>2026-04-06T16:19:47.01Z</time></trkpt><trkpt lat="44.1163552" lon="12.026242"><ele>254.0</ele><time>2026-04-06T16:19:48.009Z</time></trkpt><trkpt lat="44.116321" lon="12.0265186"><ele>254.66666666666669</ele><time>2026-04-06T16:19:49.015Z</time></trkpt><trkpt lat="44.1162869" lon="12.0268173"><ele>255.33333333333331</ele><time>2026-04-06T16:19:50.009Z</time></trkpt><trkpt lat="44.1162563" lon="12.0271093"><ele>256.0</ele><time>2026-04-06T16:19:51.011Z</time></trkpt><trkpt lat="44.1162333" lon="12.0273713"><ele>255.4</ele><time>2026-04-06T16:19:52.008Z</time></trkpt><trkpt lat="44.1162173" lon="12.0275775"><ele>254.8</ele><time>2026-04-06T16:19:53.007Z</time></trkpt><trkpt lat="44.1161946" lon="12.0277194"><ele>254.20000000000002</ele><time>2026-04-06T16:19:54.014Z</time></trkpt><trkpt lat="44.116167" lon="12.0278186"><ele>253.60000000000002</ele><time>2026-04-06T16:19:55.009Z</time></trkpt><trkpt lat="44.1160734" lon="12.0278754"><ele>253.0</ele><time>2026-04-06T16:19:57.008Z</time></trkpt><trkpt lat="44.1160257" lon="12.0277855"><ele>253.0</ele><time>2026-04-06T16:19:58.008Z</time></trkpt><trkpt lat="44.1159855" lon="12.0276586"><ele>253.0</ele><time>2026-04-06T16:19:59.007Z</time></trkpt><trkpt lat="44.1159552" lon="12.0275152"><ele>253.0</ele><time>2026-04-06T16:20:00.086Z</time></trkpt><trkpt lat="44.1159205" lon="12.0273289"><ele>253.0</ele><time>2026-04-06T16:20:01.007Z</time></trkpt><trkpt lat="44.1158788" lon="12.0271053"><ele>253.33333333333331</ele><time>2026-04-06T16:20:02.008Z</time></trkpt><trkpt lat="44.1158304" lon="12.0268642"><ele>253.66666666666669</ele><time>2026-04-06T16:20:03.012Z</time></trkpt><trkpt lat="44.1157686" lon="12.0265984"><ele>254.0</ele><time>2026-04-06T16:20:04.008Z</time></trkpt><trkpt lat="44.1156911" lon="12.0263195"><ele>257.0</ele><time>2026-04-06T16:20:05.007Z</time></trkpt><trkpt lat="44.1156008" lon="12.0260464"><ele>260.0</ele><time>2026-04-06T16:20:06.006Z</time></trkpt><trkpt lat="44.1155002" lon="12.0257999"><ele>263.0</ele><time>2026-04-06T16:20:07.008Z</time></trkpt><trkpt lat="44.1154102" lon="12.0255694"><ele>264.6666666666667</ele><time>2026-04-06T16:20:08.006Z</time></trkpt><trkpt lat="44.1153235" lon="12.0253521"><ele>266.3333333333333</ele><time>2026-04-06T16:20:09.007Z</time></trkpt><trkpt lat="44.1152334" lon="12.0251409"><ele>268.0</ele><time>2026-04-06T16:20:10.008Z</time></trkpt><trkpt lat="44.115152" lon="12.0249189"><ele>269.0</ele><time>2026-04-06T16:20:11.011Z</time></trkpt><trkpt lat="44.1150715" lon="12.0246849"><ele>270.0</ele><time>2026-04-06T16:20:12.008Z</time></trkpt><trkpt lat="44.1150002" lon="12.024431"><ele>271.0</ele><time>2026-04-06T16:20:13.013Z</time></trkpt><trkpt lat="44.1149333" lon="12.024165"><ele>267.0</ele><time>2026-04-06T16:20:14.009Z</time></trkpt><trkpt lat="44.1148644" lon="12.0238928"><ele>263.0</ele><time>2026-04-06T16:20:15.007Z</time></trkpt><trkpt lat="44.1147914" lon="12.023619"><ele>259.0</ele><time>2026-04-06T16:20:16.01Z</time></trkpt><trkpt lat="44.1147232" lon="12.0233467"><ele>261.66666666666663</ele><time>2026-04-06T16:20:17.008Z</time></trkpt><trkpt lat="44.1146542" lon="12.0230783"><ele>264.3333333333333</ele><time>2026-04-06T16:20:18.014Z</time></trkpt><trkpt lat="44.1145911" lon="12.022807"><ele>267.0</ele><time>2026-04-06T16:20:19.008Z</time></trkpt><trkpt lat="44.1145407" lon="12.0225299"><ele>270.0</ele><time>2026-04-06T16:20:20.008Z</time></trkpt><trkpt lat="44.1144951" lon="12.0222532"><ele>273.0</ele><time>2026-04-06T16:20:21.009Z</time></trkpt><trkpt lat="44.1144494" lon="12.021975"><ele>276.0</ele><time>2026-04-06T16:20:22.007Z</time></trkpt><trkpt lat="44.1144022" lon="12.0216964"><ele>278.6666666666667</ele><time>2026-04-06T16:20:23.008Z</time></trkpt><trkpt lat="44.1143578" lon="12.0214251"><ele>281.33333333333337</ele><time>2026-04-06T16:20:24.009Z</time></trkpt><trkpt lat="44.1143125" lon="12.0211772"><ele>284.0</ele><time>2026-04-06T16:20:25.01Z</time></trkpt><trkpt lat="44.1142778" lon="12.0209502"><ele>286.0</ele><time>2026-04-06T16:20:26.008Z</time></trkpt><trkpt lat="44.1142694" lon="12.0207296"><ele>288.0</ele><time>2026-04-06T16:20:27.014Z</time></trkpt><trkpt lat="44.1142787" lon="12.0205217"><ele>290.0</ele><time>2026-04-06T16:20:28.007Z</time></trkpt><trkpt lat="44.1142947" lon="12.0203356"><ele>292.0</ele><time>2026-04-06T16:20:29.007Z</time></trkpt><trkpt lat="44.1143031" lon="12.0201847"><ele>292.0</ele><time>2026-04-06T16:20:30.009Z</time></trkpt><trkpt lat="44.1142976" lon="12.0200629"><ele>292.0</ele><time>2026-04-06T16:20:31.007Z</time></trkpt><trkpt lat="44.1142706" lon="12.0199588"><ele>292.0</ele><time>2026-04-06T16:20:32.088Z</time></trkpt><trkpt lat="44.1142326" lon="12.0198773"><ele>292.0</ele><time>2026-04-06T16:20:33.01Z</time></trkpt><trkpt lat="44.1141802" lon="12.0198153"><ele>292.0</ele><time>2026-04-06T16:20:34.008Z</time></trkpt><trkpt lat="44.1141157" lon="12.0197808"><ele>292.0</ele><time>2026-04-06T16:20:35.008Z</time></trkpt><trkpt lat="44.1140341" lon="12.0197704"><ele>293.8</ele><time>2026-04-06T16:20:36.008Z</time></trkpt><trkpt lat="44.1139467" lon="12.0197591"><ele>295.6</ele><time>2026-04-06T16:20:37.01Z</time></trkpt><trkpt lat="44.1138667" lon="12.0197253"><ele>297.40000000000003</ele><time>2026-04-06T16:20:38.008Z</time></trkpt><trkpt lat="44.1137903" lon="12.0196637"><ele>299.2</ele><time>2026-04-06T16:20:39.009Z</time></trkpt><trkpt lat="44.1137269" lon="12.0195645"><ele>301.0</ele><time>2026-04-06T16:20:40.008Z</time></trkpt><trkpt lat="44.1136778" lon="12.0194235"><ele>301.0</ele><time>2026-04-06T16:20:41.008Z</time></trkpt><trkpt lat="44.1136264" lon="12.0192569"><ele>301.0</ele><time>2026-04-06T16:20:42.013Z</time></trkpt><trkpt lat="44.1135716" lon="12.0190708"><ele>301.0</ele><time>2026-04-06T16:20:43.009Z</time></trkpt><trkpt lat="44.1135104" lon="12.0188791"><ele>301.0</ele><time>2026-04-06T16:20:44.009Z</time></trkpt><trkpt lat="44.1134457" lon="12.0186853"><ele>305.0</ele><time>2026-04-06T16:20:45.009Z</time></trkpt><trkpt lat="44.1133651" lon="12.0184929"><ele>309.0</ele><time>2026-04-06T16:20:46.008Z</time></trkpt><trkpt lat="44.1132718" lon="12.0183032"><ele>313.0</ele><time>2026-04-06T16:20:47.009Z</time></trkpt><trkpt lat="44.1131653" lon="12.0181219"><ele>315.0</ele><time>2026-04-06T16:20:48.01Z</time></trkpt><trkpt lat="44.113052" lon="12.0179451"><ele>317.0</ele><time>2026-04-06T16:20:49.01Z</time></trkpt><trkpt lat="44.112911" lon="12.0178027"><ele>319.0</ele><time>2026-04-06T16:20:50.009Z</time></trkpt><trkpt lat="44.1127589" lon="12.017686"><ele>319.0</ele><time>2026-04-06T16:20:51.009Z</time></trkpt><trkpt lat="44.1126209" lon="12.017569"><ele>319.0</ele><time>2026-04-06T16:20:52.009Z</time></trkpt><trkpt lat="44.1124997" lon="12.0174427"><ele>319.0</ele><time>2026-04-06T16:20:53.008Z</time></trkpt><trkpt lat="44.1123966" lon="12.0172847"><ele>321.3333333333333</ele><time>2026-04-06T16:20:54.012Z</time></trkpt><trkpt lat="44.1123111" lon="12.0170921"><ele>323.6666666666667</ele><time>2026-04-06T16:20:55.009Z</time></trkpt><trkpt lat="44.112228" lon="12.0168709"><ele>326.0</ele><time>2026-04-06T16:20:56.009Z</time></trkpt><trkpt lat="44.1121405" lon="12.0166365"><ele>329.33333333333337</ele><time>2026-04-06T16:20:57.009Z</time></trkpt><trkpt lat="44.1120547" lon="12.0164186"><ele>332.6666666666667</ele><time>2026-04-06T16:20:58.007Z</time></trkpt><trkpt lat="44.1119746" lon="12.0162362"><ele>336.0</ele><time>2026-04-06T16:20:59.01Z</time></trkpt><trkpt lat="44.1118939" lon="12.0160833"><ele>336.0</ele><time>2026-04-06T16:21:00.016Z</time></trkpt><trkpt lat="44.1118141" lon="12.0159589"><ele>336.0</ele><time>2026-04-06T16:21:01.009Z</time></trkpt><trkpt lat="44.1117518" lon="12.015856"><ele>336.0</ele><time>2026-04-06T16:21:02.01Z</time></trkpt><trkpt lat="44.1117216" lon="12.0157548"><ele>336.0</ele><time>2026-04-06T16:21:03.009Z</time></trkpt><trkpt lat="44.1117534" lon="12.0156127"><ele>336.0</ele><time>2026-04-06T16:21:05.009Z</time></trkpt><trkpt lat="44.1118794" lon="12.0155857"><ele>339.6666666666667</ele><time>2026-04-06T16:21:07.009Z</time></trkpt><trkpt lat="44.1120091" lon="12.0156401"><ele>343.33333333333337</ele><time>2026-04-06T16:21:08.009Z</time></trkpt><trkpt lat="44.1121739" lon="12.0157172"><ele>347.0</ele><time>2026-04-06T16:21:09.012Z</time></trkpt><trkpt lat="44.1123584" lon="12.0158026"><ele>345.33333333333337</ele><time>2026-04-06T16:21:10.008Z</time></trkpt><trkpt lat="44.112525" lon="12.0158667"><ele>343.6666666666667</ele><time>2026-04-06T16:21:11.009Z</time></trkpt><trkpt lat="44.1126757" lon="12.015878"><ele>342.0</ele><time>2026-04-06T16:21:12.007Z</time></trkpt><trkpt lat="44.1128221" lon="12.0158489"><ele>344.5</ele><time>2026-04-06T16:21:13.009Z</time></trkpt><trkpt lat="44.1129633" lon="12.0158075"><ele>347.0</ele><time>2026-04-06T16:21:14.009Z</time></trkpt><trkpt lat="44.1131002" lon="12.0157533"><ele>349.5</ele><time>2026-04-06T16:21:15.013Z</time></trkpt><trkpt lat="44.1132287" lon="12.015675"><ele>352.0</ele><time>2026-04-06T16:21:16.009Z</time></trkpt><trkpt lat="44.113344" lon="12.015579"><ele>352.0</ele><time>2026-04-06T16:21:17.006Z</time></trkpt><trkpt lat="44.1134431" lon="12.0154594"><ele>352.0</ele><time>2026-04-06T16:21:18.007Z</time></trkpt><trkpt lat="44.1135334" lon="12.0153089"><ele>352.0</ele><time>2026-04-06T16:21:19.007Z</time></trkpt><trkpt lat="44.113621" lon="12.0151261"><ele>352.0</ele><time>2026-04-06T16:21:20.014Z</time></trkpt><trkpt lat="44.1137215" lon="12.0149341"><ele>354.3333333333333</ele><time>2026-04-06T16:21:21.01Z</time></trkpt><trkpt lat="44.1138321" lon="12.0147493"><ele>356.6666666666667</ele><time>2026-04-06T16:21:22.01Z</time></trkpt><trkpt lat="44.1139481" lon="12.0145769"><ele>359.0</ele><time>2026-04-06T16:21:23.009Z</time></trkpt><trkpt lat="44.1140775" lon="12.0144252"><ele>356.0</ele><time>2026-04-06T16:21:24.007Z</time></trkpt><trkpt lat="44.1142192" lon="12.0142883"><ele>353.0</ele><time>2026-04-06T16:21:25.01Z</time></trkpt><trkpt lat="44.1143621" lon="12.0141673"><ele>350.0</ele><time>2026-04-06T16:21:26.011Z</time></trkpt><trkpt lat="44.1144946" lon="12.0140632"><ele>350.0</ele><time>2026-04-06T16:21:27.011Z</time></trkpt><trkpt lat="44.1146047" lon="12.013974"><ele>350.0</ele><time>2026-04-06T16:21:28.014Z</time></trkpt><trkpt lat="44.1146893" lon="12.0138987"><ele>350.0</ele><time>2026-04-06T16:21:29.007Z</time></trkpt><trkpt lat="44.1147491" lon="12.013832"><ele>350.0</ele><time>2026-04-06T16:21:30.009Z</time></trkpt><trkpt lat="44.1148019" lon="12.0136774"><ele>350.0</ele><time>2026-04-06T16:21:32.009Z</time></trkpt><trkpt lat="44.1147988" lon="12.0135688"><ele>350.0</ele><time>2026-04-06T16:21:33.009Z</time></trkpt><trkpt lat="44.1147782" lon="12.0134342"><ele>350.0</ele><time>2026-04-06T16:21:34.008Z</time></trkpt><trkpt lat="44.1147312" lon="12.0132642"><ele>350.0</ele><time>2026-04-06T16:21:35.012Z</time></trkpt><trkpt lat="44.1146853" lon="12.013079"><ele>350.0</ele><time>2026-04-06T16:21:36.008Z</time></trkpt><trkpt lat="44.1146473" lon="12.0128785"><ele>350.0</ele><time>2026-04-06T16:21:37.013Z</time></trkpt><trkpt lat="44.1146138" lon="12.0126704"><ele>350.0</ele><time>2026-04-06T16:21:38.012Z</time></trkpt><trkpt lat="44.1145839" lon="12.012472"><ele>350.0</ele><time>2026-04-06T16:21:39.009Z</time></trkpt><trkpt lat="44.1145545" lon="12.0122917"><ele>350.0</ele><time>2026-04-06T16:21:40.01Z</time></trkpt><trkpt lat="44.1145278" lon="12.0121218"><ele>348.75</ele><time>2026-04-06T16:21:41.011Z</time></trkpt><trkpt lat="44.1145043" lon="12.0119469"><ele>347.5</ele><time>2026-04-06T16:21:42.013Z</time></trkpt><trkpt lat="44.1144791" lon="12.0117766"><ele>346.25</ele><time>2026-04-06T16:21:43.008Z</time></trkpt><trkpt lat="44.1144401" lon="12.0116291"><ele>345.0</ele><time>2026-04-06T16:21:44.008Z</time></trkpt><trkpt lat="44.1143788" lon="12.0115185"><ele>343.8</ele><time>2026-04-06T16:21:45.009Z</time></trkpt><trkpt lat="44.1142995" lon="12.0114589"><ele>342.6</ele><time>2026-04-06T16:21:46.009Z</time></trkpt><trkpt lat="44.1142037" lon="12.0114595"><ele>341.4</ele><time>2026-04-06T16:21:47.014Z</time></trkpt><trkpt lat="44.1141033" lon="12.0114885"><ele>340.2</ele><time>2026-04-06T16:21:48.008Z</time></trkpt><trkpt lat="44.1139973" lon="12.0114948"><ele>339.0</ele><time>2026-04-06T16:21:49.01Z</time></trkpt><trkpt lat="44.1138924" lon="12.0114675"><ele>341.5</ele><time>2026-04-06T16:21:50.008Z</time></trkpt><trkpt lat="44.113802" lon="12.0114072"><ele>344.0</ele><time>2026-04-06T16:21:51.011Z</time></trkpt><trkpt lat="44.1137392" lon="12.0113241"><ele>346.5</ele><time>2026-04-06T16:21:52.011Z</time></trkpt><trkpt lat="44.1137063" lon="12.011226"><ele>349.0</ele><time>2026-04-06T16:21:53.007Z</time></trkpt><trkpt lat="44.1136961" lon="12.0111176"><ele>351.5</ele><time>2026-04-06T16:21:54.015Z</time></trkpt><trkpt lat="44.11371" lon="12.0109984"><ele>354.0</ele><time>2026-04-06T16:21:55.008Z</time></trkpt><trkpt lat="44.1137319" lon="12.0108691"><ele>353.4</ele><time>2026-04-06T16:21:56.009Z</time></trkpt><trkpt lat="44.1137535" lon="12.0107254"><ele>352.79999999999995</ele><time>2026-04-06T16:21:57.01Z</time></trkpt><trkpt lat="44.1137642" lon="12.0105798"><ele>352.20000000000005</ele><time>2026-04-06T16:21:58.009Z</time></trkpt><trkpt lat="44.1137274" lon="12.0104429"><ele>351.6</ele><time>2026-04-06T16:21:59.012Z</time></trkpt><trkpt lat="44.1136564" lon="12.0103181"><ele>351.0</ele><time>2026-04-06T16:22:00.009Z</time></trkpt><trkpt lat="44.113567" lon="12.0101984"><ele>351.0</ele><time>2026-04-06T16:22:01.011Z</time></trkpt><trkpt lat="44.1134855" lon="12.0100856"><ele>351.0</ele><time>2026-04-06T16:22:02.008Z</time></trkpt><trkpt lat="44.1134354" lon="12.0099649"><ele>351.0</ele><time>2026-04-06T16:22:03.01Z</time></trkpt><trkpt lat="44.1134228" lon="12.0098284"><ele>351.0</ele><time>2026-04-06T16:22:04.011Z</time></trkpt><trkpt lat="44.1134491" lon="12.0096781"><ele>351.0</ele><time>2026-04-06T16:22:05.008Z</time></trkpt><trkpt lat="44.1134924" lon="12.0095108"><ele>352.3333333333333</ele><time>2026-04-06T16:22:06.009Z</time></trkpt><trkpt lat="44.1135506" lon="12.0093156"><ele>353.66666666666663</ele><time>2026-04-06T16:22:07.007Z</time></trkpt><trkpt lat="44.1136207" lon="12.0090987"><ele>355.0</ele><time>2026-04-06T16:22:08.009Z</time></trkpt><trkpt lat="44.1137072" lon="12.0088809"><ele>357.66666666666663</ele><time>2026-04-06T16:22:09.007Z</time></trkpt><trkpt lat="44.1138036" lon="12.0086643"><ele>360.3333333333333</ele><time>2026-04-06T16:22:10.008Z</time></trkpt><trkpt lat="44.1139089" lon="12.0084595"><ele>363.0</ele><time>2026-04-06T16:22:11.009Z</time></trkpt><trkpt lat="44.1140176" lon="12.0082791"><ele>361.6666666666667</ele><time>2026-04-06T16:22:12.007Z</time></trkpt><trkpt lat="44.1141234" lon="12.0081215"><ele>360.33333333333337</ele><time>2026-04-06T16:22:13.009Z</time></trkpt><trkpt lat="44.1142434" lon="12.0079856"><ele>359.0</ele><time>2026-04-06T16:22:14.008Z</time></trkpt><trkpt lat="44.114372" lon="12.0078829"><ele>359.0</ele><time>2026-04-06T16:22:15.01Z</time></trkpt><trkpt lat="44.1144929" lon="12.0078135"><ele>359.0</ele><time>2026-04-06T16:22:16.01Z</time></trkpt><trkpt lat="44.1145964" lon="12.007755"><ele>359.0</ele><time>2026-04-06T16:22:17.007Z</time></trkpt><trkpt lat="44.114678" lon="12.0076744"><ele>359.0</ele><time>2026-04-06T16:22:18.01Z</time></trkpt><trkpt lat="44.114736" lon="12.0075499"><ele>359.0</ele><time>2026-04-06T16:22:19.01Z</time></trkpt><trkpt lat="44.1147791" lon="12.0074008"><ele>361.5</ele><time>2026-04-06T16:22:20.009Z</time></trkpt><trkpt lat="44.1147954" lon="12.0072208"><ele>364.0</ele><time>2026-04-06T16:22:21.015Z</time></trkpt><trkpt lat="44.1147816" lon="12.007012"><ele>366.5</ele><time>2026-04-06T16:22:22.011Z</time></trkpt><trkpt lat="44.114769" lon="12.0067925"><ele>369.0</ele><time>2026-04-06T16:22:23.008Z</time></trkpt><trkpt lat="44.1147611" lon="12.0065669"><ele>369.0</ele><time>2026-04-06T16:22:24.007Z</time></trkpt><trkpt lat="44.1147487" lon="12.0063359"><ele>369.0</ele><time>2026-04-06T16:22:25.009Z</time></trkpt><trkpt lat="44.1147468" lon="12.0061077"><ele>369.0</ele><time>2026-04-06T16:22:26.012Z</time></trkpt><trkpt lat="44.1147443" lon="12.0058817"><ele>366.3333333333333</ele><time>2026-04-06T16:22:27.009Z</time></trkpt><trkpt lat="44.1147428" lon="12.0056555"><ele>363.66666666666663</ele><time>2026-04-06T16:22:28.01Z</time></trkpt><trkpt lat="44.1147485" lon="12.0054302"><ele>361.0</ele><time>2026-04-06T16:22:29.008Z</time></trkpt><trkpt lat="44.1147499" lon="12.005202"><ele>360.0</ele><time>2026-04-06T16:22:30.009Z</time></trkpt><trkpt lat="44.1147503" lon="12.0049704"><ele>359.0</ele><time>2026-04-06T16:22:31.012Z</time></trkpt><trkpt lat="44.1147502" lon="12.0047358"><ele>358.0</ele><time>2026-04-06T16:22:32.009Z</time></trkpt><trkpt lat="44.1147474" lon="12.0045"><ele>358.0</ele><time>2026-04-06T16:22:33.012Z</time></trkpt><trkpt lat="44.1147424" lon="12.0042651"><ele>358.0</ele><time>2026-04-06T16:22:34.007Z</time></trkpt><trkpt lat="44.1147442" lon="12.0040279"><ele>358.0</ele><time>2026-04-06T16:22:35.009Z</time></trkpt><trkpt lat="44.1147393" lon="12.0037982"><ele>356.25</ele><time>2026-04-06T16:22:36.008Z</time></trkpt><trkpt lat="44.114735" lon="12.0035813"><ele>354.5</ele><time>2026-04-06T16:22:37.012Z</time></trkpt><trkpt lat="44.114732" lon="12.0033839"><ele>352.75</ele><time>2026-04-06T16:22:38.008Z</time></trkpt><trkpt lat="44.114729" lon="12.0031902"><ele>351.0</ele><time>2026-04-06T16:22:39.016Z</time></trkpt><trkpt lat="44.1147246" lon="12.0029958"><ele>348.0</ele><time>2026-04-06T16:22:40.006Z</time></trkpt><trkpt lat="44.1147216" lon="12.0027921"><ele>345.0</ele><time>2026-04-06T16:22:41.007Z</time></trkpt><trkpt lat="44.1147186" lon="12.0025765"><ele>342.0</ele><time>2026-04-06T16:22:42.008Z</time></trkpt><trkpt lat="44.1147163" lon="12.0023607"><ele>341.5</ele><time>2026-04-06T16:22:43.008Z</time></trkpt><trkpt lat="44.1147204" lon="12.0021526"><ele>341.0</ele><time>2026-04-06T16:22:44.01Z</time></trkpt><trkpt lat="44.1147444" lon="12.0019553"><ele>340.5</ele><time>2026-04-06T16:22:45.013Z</time></trkpt><trkpt lat="44.1147839" lon="12.0017723"><ele>340.0</ele><time>2026-04-06T16:22:46.009Z</time></trkpt><trkpt lat="44.1148196" lon="12.0015989"><ele>340.0</ele><time>2026-04-06T16:22:47.008Z</time></trkpt><trkpt lat="44.114836" lon="12.0014219"><ele>340.0</ele><time>2026-04-06T16:22:48.008Z</time></trkpt><trkpt lat="44.1148274" lon="12.0012378"><ele>340.0</ele><time>2026-04-06T16:22:49.01Z</time></trkpt><trkpt lat="44.1147897" lon="12.0010441"><ele>340.0</ele><time>2026-04-06T16:22:50.01Z</time></trkpt><trkpt lat="44.1147414" lon="12.0008457"><ele>341.5</ele><time>2026-04-06T16:22:51.009Z</time></trkpt><trkpt lat="44.1147048" lon="12.0006518"><ele>343.0</ele><time>2026-04-06T16:22:52.014Z</time></trkpt><trkpt lat="44.1146877" lon="12.0004643"><ele>344.5</ele><time>2026-04-06T16:22:53.008Z</time></trkpt><trkpt lat="44.1146832" lon="12.0002967"><ele>346.0</ele><time>2026-04-06T16:22:54.011Z</time></trkpt><trkpt lat="44.1146863" lon="12.0001441"><ele>346.0</ele><time>2026-04-06T16:22:55.009Z</time></trkpt><trkpt lat="44.1147063" lon="12.0000048"><ele>346.0</ele><time>2026-04-06T16:22:56.009Z</time></trkpt><trkpt lat="44.1147633" lon="11.9998872"><ele>346.0</ele><time>2026-04-06T16:22:57.009Z</time></trkpt><trkpt lat="44.1148473" lon="11.9997864"><ele>346.0</ele><time>2026-04-06T16:22:58.013Z</time></trkpt><trkpt lat="44.1149533" lon="11.9996914"><ele>346.0</ele><time>2026-04-06T16:22:59.008Z</time></trkpt><trkpt lat="44.1150838" lon="11.9996026"><ele>349.0</ele><time>2026-04-06T16:23:00.009Z</time></trkpt><trkpt lat="44.1152367" lon="11.9995159"><ele>352.0</ele><time>2026-04-06T16:23:01.01Z</time></trkpt><trkpt lat="44.1154022" lon="11.99943"><ele>355.0</ele><time>2026-04-06T16:23:02.008Z</time></trkpt><trkpt lat="44.1155666" lon="11.9993482"><ele>355.0</ele><time>2026-04-06T16:23:03.014Z</time></trkpt><trkpt lat="44.1157157" lon="11.9992703"><ele>355.0</ele><time>2026-04-06T16:23:04.01Z</time></trkpt><trkpt lat="44.1158534" lon="11.9991757"><ele>355.0</ele><time>2026-04-06T16:23:05.009Z</time></trkpt><trkpt lat="44.1159851" lon="11.9990579"><ele>354.75</ele><time>2026-04-06T16:23:06.012Z</time></trkpt><trkpt lat="44.1161064" lon="11.9989265"><ele>354.5</ele><time>2026-04-06T16:23:07.008Z</time></trkpt><trkpt lat="44.1162101" lon="11.9987957"><ele>354.25</ele><time>2026-04-06T16:23:08.014Z</time></trkpt><trkpt lat="44.1163016" lon="11.9986735"><ele>354.0</ele><time>2026-04-06T16:23:09.009Z</time></trkpt><trkpt lat="44.1163906" lon="11.9985613"><ele>354.0</ele><time>2026-04-06T16:23:10.01Z</time></trkpt><trkpt lat="44.1164901" lon="11.9984676"><ele>354.0</ele><time>2026-04-06T16:23:11.009Z</time></trkpt><trkpt lat="44.1166037" lon="11.9983996"><ele>354.0</ele><time>2026-04-06T16:23:12.011Z</time></trkpt><trkpt lat="44.1167378" lon="11.9983694"><ele>354.0</ele><time>2026-04-06T16:23:13.011Z</time></trkpt><trkpt lat="44.1168827" lon="11.998354"><ele>354.0</ele><time>2026-04-06T16:23:14.01Z</time></trkpt><trkpt lat="44.1170352" lon="11.998343"><ele>354.0</ele><time>2026-04-06T16:23:15.01Z</time></trkpt><trkpt lat="44.1171912" lon="11.9983282"><ele>354.0</ele><time>2026-04-06T16:23:16.008Z</time></trkpt><trkpt lat="44.117349" lon="11.9983154"><ele>355.0</ele><time>2026-04-06T16:23:17.01Z</time></trkpt><trkpt lat="44.1175088" lon="11.9983016"><ele>356.0</ele><time>2026-04-06T16:23:18.007Z</time></trkpt><trkpt lat="44.1176672" lon="11.9982984"><ele>357.0</ele><time>2026-04-06T16:23:19.014Z</time></trkpt><trkpt lat="44.1178227" lon="11.9982918"><ele>357.0</ele><time>2026-04-06T16:23:20.01Z</time></trkpt><trkpt lat="44.1179825" lon="11.9982621"><ele>357.0</ele><time>2026-04-06T16:23:21.009Z</time></trkpt><trkpt lat="44.1181398" lon="11.9981934"><ele>357.0</ele><time>2026-04-06T16:23:22.009Z</time></trkpt><trkpt lat="44.1182891" lon="11.9980872"><ele>356.3333333333333</ele><time>2026-04-06T16:23:23.01Z</time></trkpt><trkpt lat="44.118431" lon="11.9979555"><ele>355.66666666666663</ele><time>2026-04-06T16:23:24.012Z</time></trkpt><trkpt lat="44.1185688" lon="11.9978141"><ele>355.0</ele><time>2026-04-06T16:23:25.011Z</time></trkpt><trkpt lat="44.1187055" lon="11.9976676"><ele>355.0</ele><time>2026-04-06T16:23:26.013Z</time></trkpt><trkpt lat="44.1188407" lon="11.9975221"><ele>355.0</ele><time>2026-04-06T16:23:27.011Z</time></trkpt><trkpt lat="44.1189792" lon="11.9973943"><ele>355.0</ele><time>2026-04-06T16:23:28.009Z</time></trkpt><trkpt lat="44.119115" lon="11.997289"><ele>354.75</ele><time>2026-04-06T16:23:29.011Z</time></trkpt><trkpt lat="44.1192497" lon="11.9972261"><ele>354.5</ele><time>2026-04-06T16:23:30.009Z</time></trkpt><trkpt lat="44.119378" lon="11.9972038"><ele>354.25</ele><time>2026-04-06T16:23:31.009Z</time></trkpt><trkpt lat="44.1195073" lon="11.9972133"><ele>354.0</ele><time>2026-04-06T16:23:32.009Z</time></trkpt><trkpt lat="44.1196446" lon="11.9972401"><ele>354.0</ele><time>2026-04-06T16:23:33.017Z</time></trkpt><trkpt lat="44.1197883" lon="11.9972778"><ele>354.0</ele><time>2026-04-06T16:23:34.01Z</time></trkpt><trkpt lat="44.1199423" lon="11.9973134"><ele>354.0</ele><time>2026-04-06T16:23:35.009Z</time></trkpt><trkpt lat="44.1200986" lon="11.9973455"><ele>352.3333333333333</ele><time>2026-04-06T16:23:36.009Z</time></trkpt><trkpt lat="44.1202513" lon="11.9973685"><ele>350.66666666666663</ele><time>2026-04-06T16:23:37.009Z</time></trkpt><trkpt lat="44.1204058" lon="11.99739"><ele>349.0</ele><time>2026-04-06T16:23:38.014Z</time></trkpt><trkpt lat="44.1205689" lon="11.9974072"><ele>346.66666666666663</ele><time>2026-04-06T16:23:39.009Z</time></trkpt><trkpt lat="44.1207542" lon="11.9974147"><ele>344.3333333333333</ele><time>2026-04-06T16:23:40.009Z</time></trkpt><trkpt lat="44.1209573" lon="11.9973857"><ele>342.0</ele><time>2026-04-06T16:23:41.009Z</time></trkpt><trkpt lat="44.1211617" lon="11.9973478"><ele>342.0</ele><time>2026-04-06T16:23:42.008Z</time></trkpt><trkpt lat="44.1213551" lon="11.9973"><ele>342.0</ele><time>2026-04-06T16:23:43.01Z</time></trkpt><trkpt lat="44.1215364" lon="11.9972516"><ele>342.0</ele><time>2026-04-06T16:23:44.01Z</time></trkpt><trkpt lat="44.1216991" lon="11.9972065"><ele>338.75</ele><time>2026-04-06T16:23:45.009Z</time></trkpt><trkpt lat="44.121842" lon="11.9971675"><ele>335.5</ele><time>2026-04-06T16:23:46.008Z</time></trkpt><trkpt lat="44.1219724" lon="11.9971336"><ele>332.25</ele><time>2026-04-06T16:23:47.008Z</time></trkpt><trkpt lat="44.1220866" lon="11.9971156"><ele>329.0</ele><time>2026-04-06T16:23:48.011Z</time></trkpt><trkpt lat="44.1221885" lon="11.9971424"><ele>329.0</ele><time>2026-04-06T16:23:49.009Z</time></trkpt><trkpt lat="44.1222681" lon="11.9972326"><ele>329.0</ele><time>2026-04-06T16:23:50.008Z</time></trkpt><trkpt lat="44.1223219" lon="11.9973645"><ele>329.0</ele><time>2026-04-06T16:23:51.009Z</time></trkpt><trkpt lat="44.122344" lon="11.997539"><ele>329.0</ele><time>2026-04-06T16:23:52.009Z</time></trkpt><trkpt lat="44.122347" lon="11.997741"><ele>327.5</ele><time>2026-04-06T16:23:53.009Z</time></trkpt><trkpt lat="44.1223522" lon="11.9979451"><ele>326.0</ele><time>2026-04-06T16:23:54.008Z</time></trkpt><trkpt lat="44.1223806" lon="11.9981394"><ele>324.5</ele><time>2026-04-06T16:23:55.009Z</time></trkpt><trkpt lat="44.1224483" lon="11.998316"><ele>323.0</ele><time>2026-04-06T16:23:56.009Z</time></trkpt><trkpt lat="44.1225566" lon="11.9984654"><ele>316.0</ele><time>2026-04-06T16:23:57.016Z</time></trkpt><trkpt lat="44.1226913" lon="11.9985696"><ele>309.0</ele><time>2026-04-06T16:23:58.006Z</time></trkpt><trkpt lat="44.1228432" lon="11.9986197"><ele>302.0</ele><time>2026-04-06T16:23:59.008Z</time></trkpt><trkpt lat="44.123007" lon="11.9986287"><ele>302.0</ele><time>2026-04-06T16:24:00.008Z</time></trkpt><trkpt lat="44.1231739" lon="11.9986261"><ele>302.0</ele><time>2026-04-06T16:24:01.008Z</time></trkpt><trkpt lat="44.1233388" lon="11.9986341"><ele>302.0</ele><time>2026-04-06T16:24:02.012Z</time></trkpt><trkpt lat="44.1234968" lon="11.9986584"><ele>300.0</ele><time>2026-04-06T16:24:03.008Z</time></trkpt><trkpt lat="44.1236493" lon="11.9987091"><ele>298.0</ele><time>2026-04-06T16:24:04.01Z</time></trkpt><trkpt lat="44.1237955" lon="11.9987902"><ele>296.0</ele><time>2026-04-06T16:24:05.012Z</time></trkpt><trkpt lat="44.1239357" lon="11.9988917"><ele>294.75</ele><time>2026-04-06T16:24:06.009Z</time></trkpt><trkpt lat="44.1240687" lon="11.9990013"><ele>293.5</ele><time>2026-04-06T16:24:07.01Z</time></trkpt><trkpt lat="44.1241966" lon="11.9991043"><ele>292.25</ele><time>2026-04-06T16:24:08.009Z</time></trkpt><trkpt lat="44.1243204" lon="11.9991969"><ele>291.0</ele><time>2026-04-06T16:24:09.009Z</time></trkpt><trkpt lat="44.1244392" lon="11.9992814"><ele>287.75</ele><time>2026-04-06T16:24:10.018Z</time></trkpt><trkpt lat="44.1245607" lon="11.9993687"><ele>284.5</ele><time>2026-04-06T16:24:11.008Z</time></trkpt><trkpt lat="44.1246796" lon="11.9994603"><ele>281.25</ele><time>2026-04-06T16:24:12.009Z</time></trkpt><trkpt lat="44.1247854" lon="11.9995361"><ele>278.0</ele><time>2026-04-06T16:24:13.008Z</time></trkpt><trkpt lat="44.124869" lon="11.9995926"><ele>280.8</ele><time>2026-04-06T16:24:14.007Z</time></trkpt><trkpt lat="44.1249387" lon="11.9996362"><ele>283.6</ele><time>2026-04-06T16:24:15.008Z</time></trkpt><trkpt lat="44.1250529" lon="11.9996496"><ele>286.4</ele><time>2026-04-06T16:24:17.014Z</time></trkpt><trkpt lat="44.1251536" lon="11.9995658"><ele>289.2</ele><time>2026-04-06T16:24:19.009Z</time></trkpt><trkpt lat="44.125193" lon="11.9994969"><ele>292.0</ele><time>2026-04-06T16:24:20.009Z</time></trkpt><trkpt lat="44.1252416" lon="11.9993473"><ele>292.0</ele><time>2026-04-06T16:24:22.01Z</time></trkpt><trkpt lat="44.1252477" lon="11.9992584"><ele>292.0</ele><time>2026-04-06T16:24:23.008Z</time></trkpt><trkpt lat="44.1252248" lon="11.9991594"><ele>292.0</ele><time>2026-04-06T16:24:24.008Z</time></trkpt><trkpt lat="44.1252018" lon="11.9990545"><ele>292.0</ele><time>2026-04-06T16:24:25.009Z</time></trkpt><trkpt lat="44.1251678" lon="11.9989314"><ele>292.0</ele><time>2026-04-06T16:24:26.008Z</time></trkpt><trkpt lat="44.1251289" lon="11.9987953"><ele>292.0</ele><time>2026-04-06T16:24:27.01Z</time></trkpt><trkpt lat="44.125077" lon="11.9986697"><ele>292.0</ele><time>2026-04-06T16:24:28.012Z</time></trkpt><trkpt lat="44.1250164" lon="11.998563"><ele>292.0</ele><time>2026-04-06T16:24:29.007Z</time></trkpt><trkpt lat="44.1249286" lon="11.998469"><ele>292.0</ele><time>2026-04-06T16:24:30.008Z</time></trkpt><trkpt lat="44.1248248" lon="11.9983652"><ele>292.0</ele><time>2026-04-06T16:24:31.006Z</time></trkpt><trkpt lat="44.1247265" lon="11.99825"><ele>291.4</ele><time>2026-04-06T16:24:32.009Z</time></trkpt><trkpt lat="44.1246393" lon="11.9981447"><ele>290.79999999999995</ele><time>2026-04-06T16:24:33.009Z</time></trkpt><trkpt lat="44.1245645" lon="11.9980384"><ele>290.2</ele><time>2026-04-06T16:24:34.008Z</time></trkpt><trkpt lat="44.1244986" lon="11.9979322"><ele>289.59999999999997</ele><time>2026-04-06T16:24:35.013Z</time></trkpt><trkpt lat="44.1244411" lon="11.9978357"><ele>289.0</ele><time>2026-04-06T16:24:36.011Z</time></trkpt><trkpt lat="44.1244158" lon="11.997717"><ele>289.0</ele><time>2026-04-06T16:24:37.011Z</time></trkpt><trkpt lat="44.124402" lon="11.9975969"><ele>289.0</ele><time>2026-04-06T16:24:38.01Z</time></trkpt><trkpt lat="44.1243972" lon="11.9974659"><ele>289.0</ele><time>2026-04-06T16:24:39.01Z</time></trkpt><trkpt lat="44.1244304" lon="11.9973155"><ele>289.0</ele><time>2026-04-06T16:24:40.015Z</time></trkpt><trkpt lat="44.1244687" lon="11.9971723"><ele>289.0</ele><time>2026-04-06T16:24:41.008Z</time></trkpt><trkpt lat="44.1245282" lon="11.9970352"><ele>287.5</ele><time>2026-04-06T16:24:42.01Z</time></trkpt><trkpt lat="44.1246102" lon="11.9969018"><ele>286.0</ele><time>2026-04-06T16:24:43.01Z</time></trkpt><trkpt lat="44.1246893" lon="11.9967568"><ele>284.5</ele><time>2026-04-06T16:24:44.009Z</time></trkpt><trkpt lat="44.124764" lon="11.9966063"><ele>283.0</ele><time>2026-04-06T16:24:45.015Z</time></trkpt><trkpt lat="44.1248261" lon="11.9964406"><ele>283.0</ele><time>2026-04-06T16:24:46.009Z</time></trkpt><trkpt lat="44.1248885" lon="11.9962714"><ele>283.0</ele><time>2026-04-06T16:24:47.009Z</time></trkpt><trkpt lat="44.1249454" lon="11.9960981"><ele>283.0</ele><time>2026-04-06T16:24:48.01Z</time></trkpt><trkpt lat="44.1250078" lon="11.9959336"><ele>283.0</ele><time>2026-04-06T16:24:49.009Z</time></trkpt><trkpt lat="44.1250667" lon="11.9957641"><ele>279.25</ele><time>2026-04-06T16:24:50.013Z</time></trkpt><trkpt lat="44.1251177" lon="11.9955941"><ele>275.5</ele><time>2026-04-06T16:24:51.01Z</time></trkpt><trkpt lat="44.1251559" lon="11.9954298"><ele>271.75</ele><time>2026-04-06T16:24:52.007Z</time></trkpt><trkpt lat="44.1251951" lon="11.995285"><ele>268.0</ele><time>2026-04-06T16:24:53.012Z</time></trkpt><trkpt lat="44.1252273" lon="11.9951581"><ele>268.0</ele><time>2026-04-06T16:24:54.009Z</time></trkpt><trkpt lat="44.1252483" lon="11.9950372"><ele>268.0</ele><time>2026-04-06T16:24:55.009Z</time></trkpt><trkpt lat="44.1252536" lon="11.9949274"><ele>268.0</ele><time>2026-04-06T16:24:56.009Z</time></trkpt><trkpt lat="44.1252467" lon="11.9948237"><ele>268.0</ele><time>2026-04-06T16:24:57.009Z</time></trkpt><trkpt lat="44.125232" lon="11.994716"><ele>268.0</ele><time>2026-04-06T16:24:58.011Z</time></trkpt><trkpt lat="44.1251936" lon="11.9945951"><ele>268.0</ele><time>2026-04-06T16:24:59.008Z</time></trkpt><trkpt lat="44.1251251" lon="11.9944637"><ele>268.5</ele><time>2026-04-06T16:25:00.009Z</time></trkpt><trkpt lat="44.1250554" lon="11.9943227"><ele>269.0</ele><time>2026-04-06T16:25:01.014Z</time></trkpt><trkpt lat="44.1249936" lon="11.9941834"><ele>269.5</ele><time>2026-04-06T16:25:02.01Z</time></trkpt><trkpt lat="44.1249342" lon="11.9940505"><ele>270.0</ele><time>2026-04-06T16:25:03.009Z</time></trkpt><trkpt lat="44.1248791" lon="11.9939258"><ele>270.3333333333333</ele><time>2026-04-06T16:25:04.009Z</time></trkpt><trkpt lat="44.124832" lon="11.9938007"><ele>270.6666666666667</ele><time>2026-04-06T16:25:05.009Z</time></trkpt><trkpt lat="44.1247891" lon="11.9936807"><ele>271.0</ele><time>2026-04-06T16:25:06.017Z</time></trkpt><trkpt lat="44.1247669" lon="11.9935634"><ele>271.33333333333337</ele><time>2026-04-06T16:25:07.01Z</time></trkpt><trkpt lat="44.1247615" lon="11.9934606"><ele>271.6666666666667</ele><time>2026-04-06T16:25:08.01Z</time></trkpt><trkpt lat="44.124768" lon="11.9933653"><ele>272.0</ele><time>2026-04-06T16:25:09.01Z</time></trkpt><trkpt lat="44.1247947" lon="11.9932726"><ele>273.0</ele><time>2026-04-06T16:25:10.009Z</time></trkpt><trkpt lat="44.1248414" lon="11.9931842"><ele>274.0</ele><time>2026-04-06T16:25:11.01Z</time></trkpt><trkpt lat="44.1248941" lon="11.9931068"><ele>275.0</ele><time>2026-04-06T16:25:12.009Z</time></trkpt><trkpt lat="44.1249506" lon="11.993042"><ele>276.0</ele><time>2026-04-06T16:25:13.008Z</time></trkpt><trkpt lat="44.1250272" lon="11.9929917"><ele>277.0</ele><time>2026-04-06T16:25:14.009Z</time></trkpt><trkpt lat="44.1251349" lon="11.9929483"><ele>278.0</ele><time>2026-04-06T16:25:15.009Z</time></trkpt><trkpt lat="44.1252543" lon="11.9929056"><ele>274.5</ele><time>2026-04-06T16:25:16.013Z</time></trkpt><trkpt lat="44.1253668" lon="11.99284"><ele>271.0</ele><time>2026-04-06T16:25:17.009Z</time></trkpt><trkpt lat="44.1254704" lon="11.9927387"><ele>267.5</ele><time>2026-04-06T16:25:18.009Z</time></trkpt><trkpt lat="44.1255574" lon="11.9926113"><ele>264.0</ele><time>2026-04-06T16:25:19.009Z</time></trkpt><trkpt lat="44.1256564" lon="11.99249"><ele>260.0</ele><time>2026-04-06T16:25:20.01Z</time></trkpt><trkpt lat="44.1257383" lon="11.9923577"><ele>256.0</ele><time>2026-04-06T16:25:21.014Z</time></trkpt><trkpt lat="44.1258246" lon="11.9922149"><ele>252.0</ele><time>2026-04-06T16:25:22.008Z</time></trkpt><trkpt lat="44.125901" lon="11.992066"><ele>248.0</ele><time>2026-04-06T16:25:23.007Z</time></trkpt><trkpt lat="44.1259667" lon="11.9919042"><ele>248.0</ele><time>2026-04-06T16:25:24.008Z</time></trkpt><trkpt lat="44.1260338" lon="11.9917343"><ele>248.0</ele><time>2026-04-06T16:25:25.009Z</time></trkpt><trkpt lat="44.1261058" lon="11.9915602"><ele>248.0</ele><time>2026-04-06T16:25:26.008Z</time></trkpt><trkpt lat="44.126179" lon="11.9913849"><ele>248.0</ele><time>2026-04-06T16:25:27.01Z</time></trkpt><trkpt lat="44.1262532" lon="11.9912243"><ele>248.4</ele><time>2026-04-06T16:25:28.01Z</time></trkpt><trkpt lat="44.1263284" lon="11.9910788"><ele>248.8</ele><time>2026-04-06T16:25:29.01Z</time></trkpt><trkpt lat="44.1263975" lon="11.9909567"><ele>249.2</ele><time>2026-04-06T16:25:30.016Z</time></trkpt><trkpt lat="44.1264522" lon="11.9908547"><ele>249.6</ele><time>2026-04-06T16:25:31.01Z</time></trkpt><trkpt lat="44.126498" lon="11.990766"><ele>250.0</ele><time>2026-04-06T16:25:32.01Z</time></trkpt><trkpt lat="44.1265408" lon="11.9906798"><ele>248.8</ele><time>2026-04-06T16:25:33.008Z</time></trkpt><trkpt lat="44.1265927" lon="11.9905971"><ele>247.6</ele><time>2026-04-06T16:25:34.009Z</time></trkpt><trkpt lat="44.1266601" lon="11.9905313"><ele>246.39999999999998</ele><time>2026-04-06T16:25:35.008Z</time></trkpt><trkpt lat="44.1267362" lon="11.9904615"><ele>245.2</ele><time>2026-04-06T16:25:36.01Z</time></trkpt><trkpt lat="44.1268183" lon="11.9903938"><ele>244.0</ele><time>2026-04-06T16:25:37.012Z</time></trkpt><trkpt lat="44.1269078" lon="11.9903161"><ele>244.0</ele><time>2026-04-06T16:25:38.009Z</time></trkpt><trkpt lat="44.1270118" lon="11.9902523"><ele>244.0</ele><time>2026-04-06T16:25:39.009Z</time></trkpt><trkpt lat="44.1271176" lon="11.9901806"><ele>244.0</ele><time>2026-04-06T16:25:40.009Z</time></trkpt><trkpt lat="44.1272183" lon="11.9900967"><ele>244.0</ele><time>2026-04-06T16:25:41.011Z</time></trkpt><trkpt lat="44.1273216" lon="11.9900071"><ele>242.39999999999998</ele><time>2026-04-06T16:25:42.009Z</time></trkpt><trkpt lat="44.1274153" lon="11.9899093"><ele>240.79999999999998</ele><time>2026-04-06T16:25:43.01Z</time></trkpt><trkpt lat="44.127507" lon="11.9898247"><ele>239.20000000000002</ele><time>2026-04-06T16:25:44.009Z</time></trkpt><trkpt lat="44.1275894" lon="11.9897323"><ele>237.60000000000002</ele><time>2026-04-06T16:25:45.01Z</time></trkpt><trkpt lat="44.1276748" lon="11.9896519"><ele>236.0</ele><time>2026-04-06T16:25:46.011Z</time></trkpt><trkpt lat="44.1277653" lon="11.9895862"><ele>236.0</ele><time>2026-04-06T16:25:47.008Z</time></trkpt><trkpt lat="44.1278642" lon="11.9895395"><ele>236.00000000000003</ele><time>2026-04-06T16:25:48.009Z</time></trkpt><trkpt lat="44.1279669" lon="11.9895077"><ele>236.00000000000003</ele><time>2026-04-06T16:25:49.009Z</time></trkpt><trkpt lat="44.1280631" lon="11.9894558"><ele>236.0</ele><time>2026-04-06T16:25:50.014Z</time></trkpt><trkpt lat="44.1281524" lon="11.9893942"><ele>236.0</ele><time>2026-04-06T16:25:51.008Z</time></trkpt><trkpt lat="44.1282374" lon="11.9893239"><ele>233.25</ele><time>2026-04-06T16:25:52.009Z</time></trkpt><trkpt lat="44.1283228" lon="11.9892389"><ele>230.5</ele><time>2026-04-06T16:25:53.01Z</time></trkpt><trkpt lat="44.1284157" lon="11.9891496"><ele>227.75</ele><time>2026-04-06T16:25:54.008Z</time></trkpt><trkpt lat="44.1285217" lon="11.98905"><ele>225.0</ele><time>2026-04-06T16:25:55.009Z</time></trkpt><trkpt lat="44.1286333" lon="11.9889567"><ele>225.0</ele><time>2026-04-06T16:25:56.008Z</time></trkpt><trkpt lat="44.12875" lon="11.9888683"><ele>225.0</ele><time>2026-04-06T16:25:57.01Z</time></trkpt><trkpt lat="44.1288683" lon="11.9888033"><ele>225.0</ele><time>2026-04-06T16:25:58.008Z</time></trkpt><trkpt lat="44.1289867" lon="11.9887517"><ele>225.0</ele><time>2026-04-06T16:25:59.009Z</time></trkpt><trkpt lat="44.1291" lon="11.9887033"><ele>223.2</ele><time>2026-04-06T16:26:00.01Z</time></trkpt><trkpt lat="44.12921" lon="11.9886517"><ele>221.4</ele><time>2026-04-06T16:26:01.015Z</time></trkpt><trkpt lat="44.12931" lon="11.988615"><ele>219.60000000000002</ele><time>2026-04-06T16:26:02.01Z</time></trkpt><trkpt lat="44.1293933" lon="11.9885817"><ele>217.8</ele><time>2026-04-06T16:26:03.008Z</time></trkpt><trkpt lat="44.1294617" lon="11.988555"><ele>216.0</ele><time>2026-04-06T16:26:04.008Z</time></trkpt><trkpt lat="44.129535" lon="11.9886133"><ele>216.0</ele><time>2026-04-06T16:26:06.014Z</time></trkpt><trkpt lat="44.1295233" lon="11.9887567"><ele>216.00000000000003</ele><time>2026-04-06T16:26:08.007Z</time></trkpt><trkpt lat="44.1294933" lon="11.98884"><ele>216.00000000000003</ele><time>2026-04-06T16:26:09.01Z</time></trkpt><trkpt lat="44.1294583" lon="11.9889183"><ele>216.0</ele><time>2026-04-06T16:26:10.009Z</time></trkpt><trkpt lat="44.12945" lon="11.9890683"><ele>216.0</ele><time>2026-04-06T16:26:12.013Z</time></trkpt><trkpt lat="44.129575" lon="11.9890983"><ele>216.0</ele><time>2026-04-06T16:26:14.009Z</time></trkpt><trkpt lat="44.1296733" lon="11.989045"><ele>216.0</ele><time>2026-04-06T16:26:15.009Z</time></trkpt><trkpt lat="44.1297717" lon="11.989005"><ele>216.0</ele><time>2026-04-06T16:26:16.007Z</time></trkpt><trkpt lat="44.1298717" lon="11.988975"><ele>216.0</ele><time>2026-04-06T16:26:17.01Z</time></trkpt><trkpt lat="44.1300117" lon="11.9888967"><ele>211.0</ele><time>2026-04-06T16:26:18.007Z</time></trkpt><trkpt lat="44.13018" lon="11.98881"><ele>206.0</ele><time>2026-04-06T16:26:19.009Z</time></trkpt><trkpt lat="44.1303717" lon="11.98872"><ele>201.0</ele><time>2026-04-06T16:26:20.008Z</time></trkpt><trkpt lat="44.130575" lon="11.98863"><ele>196.0</ele><time>2026-04-06T16:26:21.01Z</time></trkpt><trkpt lat="44.1307783" lon="11.9885367"><ele>191.0</ele><time>2026-04-06T16:26:22.009Z</time></trkpt><trkpt lat="44.130985" lon="11.9884483"><ele>186.0</ele><time>2026-04-06T16:26:23.014Z</time></trkpt><trkpt lat="44.1311783" lon="11.9883617"><ele>187.33333333333334</ele><time>2026-04-06T16:26:24.009Z</time></trkpt><trkpt lat="44.1313533" lon="11.9882717"><ele>188.66666666666669</ele><time>2026-04-06T16:26:25.009Z</time></trkpt><trkpt lat="44.1315117" lon="11.9882"><ele>190.0</ele><time>2026-04-06T16:26:26.01Z</time></trkpt><trkpt lat="44.13166" lon="11.98814"><ele>185.0</ele><time>2026-04-06T16:26:27.009Z</time></trkpt><trkpt lat="44.131805" lon="11.9880883"><ele>180.0</ele><time>2026-04-06T16:26:28.014Z</time></trkpt><trkpt lat="44.1319383" lon="11.9880083"><ele>175.0</ele><time>2026-04-06T16:26:29.009Z</time></trkpt><trkpt lat="44.1320612" lon="11.9879056"><ele>170.0</ele><time>2026-04-06T16:26:30.006Z</time></trkpt><trkpt lat="44.1321782" lon="11.9877858"><ele>170.0</ele><time>2026-04-06T16:26:31.006Z</time></trkpt><trkpt lat="44.1322899" lon="11.9876684"><ele>170.0</ele><time>2026-04-06T16:26:32.008Z</time></trkpt><trkpt lat="44.1324046" lon="11.9875554"><ele>170.0</ele><time>2026-04-06T16:26:33.01Z</time></trkpt><trkpt lat="44.1325144" lon="11.98744"><ele>170.0</ele><time>2026-04-06T16:26:34.007Z</time></trkpt><trkpt lat="44.1326155" lon="11.9873289"><ele>167.66666666666666</ele><time>2026-04-06T16:26:35.008Z</time></trkpt><trkpt lat="44.1327024" lon="11.9872298"><ele>165.33333333333331</ele><time>2026-04-06T16:26:36.011Z</time></trkpt><trkpt lat="44.1327792" lon="11.9871519"><ele>163.0</ele><time>2026-04-06T16:26:37.013Z</time></trkpt><trkpt lat="44.1328508" lon="11.9870922"><ele>160.66666666666666</ele><time>2026-04-06T16:26:38.012Z</time></trkpt><trkpt lat="44.132929" lon="11.9870763"><ele>158.33333333333334</ele><time>2026-04-06T16:26:39.01Z</time></trkpt><trkpt lat="44.1330063" lon="11.9870998"><ele>156.0</ele><time>2026-04-06T16:26:40.011Z</time></trkpt><trkpt lat="44.1330774" lon="11.9871614"><ele>156.0</ele><time>2026-04-06T16:26:41.009Z</time></trkpt><trkpt lat="44.133145" lon="11.9872598"><ele>156.0</ele><time>2026-04-06T16:26:42.011Z</time></trkpt><trkpt lat="44.1332134" lon="11.9873623"><ele>156.0</ele><time>2026-04-06T16:26:43.009Z</time></trkpt><trkpt lat="44.133281" lon="11.9874447"><ele>156.0</ele><time>2026-04-06T16:26:44.011Z</time></trkpt><trkpt lat="44.1333598" lon="11.9874858"><ele>156.0</ele><time>2026-04-06T16:26:45.007Z</time></trkpt><trkpt lat="44.1334372" lon="11.9875176"><ele>153.25</ele><time>2026-04-06T16:26:46.01Z</time></trkpt><trkpt lat="44.1335161" lon="11.9875618"><ele>150.5</ele><time>2026-04-06T16:26:47.006Z</time></trkpt><trkpt lat="44.1336064" lon="11.9876231"><ele>147.75</ele><time>2026-04-06T16:26:48.009Z</time></trkpt><trkpt lat="44.1337039" lon="11.9877269"><ele>145.0</ele><time>2026-04-06T16:26:49.007Z</time></trkpt><trkpt lat="44.1338107" lon="11.9878601"><ele>145.0</ele><time>2026-04-06T16:26:50.008Z</time></trkpt><trkpt lat="44.1339176" lon="11.9880003"><ele>145.0</ele><time>2026-04-06T16:26:51.01Z</time></trkpt><trkpt lat="44.1340193" lon="11.9881383"><ele>145.0</ele><time>2026-04-06T16:26:52.012Z</time></trkpt><trkpt lat="44.1341083" lon="11.9882523"><ele>145.0</ele><time>2026-04-06T16:26:53.014Z</time></trkpt><trkpt lat="44.134199" lon="11.9883243"><ele>145.25</ele><time>2026-04-06T16:26:54.009Z</time></trkpt><trkpt lat="44.134307" lon="11.9883446"><ele>145.5</ele><time>2026-04-06T16:26:55.011Z</time></trkpt><trkpt lat="44.1344386" lon="11.9883196"><ele>145.75</ele><time>2026-04-06T16:26:56.01Z</time></trkpt><trkpt lat="44.1345843" lon="11.9882904"><ele>146.0</ele><time>2026-04-06T16:26:57.009Z</time></trkpt><trkpt lat="44.1347463" lon="11.9882665"><ele>139.66666666666666</ele><time>2026-04-06T16:26:58.014Z</time></trkpt><trkpt lat="44.1349089" lon="11.9882366"><ele>133.33333333333334</ele><time>2026-04-06T16:26:59.007Z</time></trkpt><trkpt lat="44.1350657" lon="11.9882106"><ele>127.0</ele><time>2026-04-06T16:27:00.01Z</time></trkpt><trkpt lat="44.1352131" lon="11.9881987"><ele>127.0</ele><time>2026-04-06T16:27:01.009Z</time></trkpt><trkpt lat="44.1353549" lon="11.988186"><ele>127.0</ele><time>2026-04-06T16:27:02.01Z</time></trkpt><trkpt lat="44.1354996" lon="11.9881682"><ele>127.0</ele><time>2026-04-06T16:27:03.012Z</time></trkpt><trkpt lat="44.1356517" lon="11.9881397"><ele>127.0</ele><time>2026-04-06T16:27:04.008Z</time></trkpt><trkpt lat="44.1358081" lon="11.9881101"><ele>123.0</ele><time>2026-04-06T16:27:05.015Z</time></trkpt><trkpt lat="44.1359579" lon="11.9880736"><ele>119.0</ele><time>2026-04-06T16:27:06.009Z</time></trkpt><trkpt lat="44.1360926" lon="11.9879916"><ele>115.0</ele><time>2026-04-06T16:27:07.01Z</time></trkpt><trkpt lat="44.1362108" lon="11.9878775"><ele>111.0</ele><time>2026-04-06T16:27:08.008Z</time></trkpt><trkpt lat="44.1363155" lon="11.9877774"><ele>111.0</ele><time>2026-04-06T16:27:09.01Z</time></trkpt><trkpt lat="44.1364118" lon="11.987697"><ele>111.0</ele><time>2026-04-06T16:27:10.009Z</time></trkpt><trkpt lat="44.1365103" lon="11.9876456"><ele>111.0</ele><time>2026-04-06T16:27:11.014Z</time></trkpt><trkpt lat="44.1366124" lon="11.987634"><ele>111.0</ele><time>2026-04-06T16:27:12.01Z</time></trkpt><trkpt lat="44.1367226" lon="11.9876519"><ele>111.0</ele><time>2026-04-06T16:27:13.009Z</time></trkpt><trkpt lat="44.1368415" lon="11.9876895"><ele>107.25</ele><time>2026-04-06T16:27:14.011Z</time></trkpt><trkpt lat="44.1369691" lon="11.9877285"><ele>103.5</ele><time>2026-04-06T16:27:15.009Z</time></trkpt><trkpt lat="44.137108" lon="11.9877499"><ele>99.75</ele><time>2026-04-06T16:27:16.013Z</time></trkpt><trkpt lat="44.1372572" lon="11.9877382"><ele>96.0</ele><time>2026-04-06T16:27:17.01Z</time></trkpt><trkpt lat="44.1374084" lon="11.9877032"><ele>92.75</ele><time>2026-04-06T16:27:18.012Z</time></trkpt><trkpt lat="44.137556" lon="11.9876555"><ele>89.5</ele><time>2026-04-06T16:27:19.01Z</time></trkpt><trkpt lat="44.1376957" lon="11.9876076"><ele>86.25</ele><time>2026-04-06T16:27:20.008Z</time></trkpt><trkpt lat="44.1378286" lon="11.9875622"><ele>83.0</ele><time>2026-04-06T16:27:21.009Z</time></trkpt><trkpt lat="44.1379493" lon="11.9875135"><ele>83.0</ele><time>2026-04-06T16:27:22.01Z</time></trkpt><trkpt lat="44.1380603" lon="11.9874737"><ele>83.0</ele><time>2026-04-06T16:27:23.009Z</time></trkpt><trkpt lat="44.138164" lon="11.9874448"><ele>83.0</ele><time>2026-04-06T16:27:24.008Z</time></trkpt><trkpt lat="44.1382687" lon="11.9874307"><ele>83.0</ele><time>2026-04-06T16:27:25.009Z</time></trkpt><trkpt lat="44.1383702" lon="11.9874173"><ele>83.0</ele><time>2026-04-06T16:27:26.015Z</time></trkpt><trkpt lat="44.1384682" lon="11.9874009"><ele>82.80000000000001</ele><time>2026-04-06T16:27:27.009Z</time></trkpt><trkpt lat="44.1385673" lon="11.9873862"><ele>82.6</ele><time>2026-04-06T16:27:28.01Z</time></trkpt><trkpt lat="44.1386669" lon="11.9873811"><ele>82.4</ele><time>2026-04-06T16:27:29.011Z</time></trkpt><trkpt lat="44.1387681" lon="11.9873827"><ele>82.19999999999999</ele><time>2026-04-06T16:27:30.009Z</time></trkpt><trkpt lat="44.138881" lon="11.9873903"><ele>82.0</ele><time>2026-04-06T16:27:31.009Z</time></trkpt><trkpt lat="44.1390077" lon="11.9873959"><ele>80.75</ele><time>2026-04-06T16:27:32.01Z</time></trkpt><trkpt lat="44.1391489" lon="11.987408"><ele>79.5</ele><time>2026-04-06T16:27:33.011Z</time></trkpt><trkpt lat="44.1392961" lon="11.9874144"><ele>78.25</ele><time>2026-04-06T16:27:34.008Z</time></trkpt><trkpt lat="44.1394497" lon="11.9874057"><ele>77.0</ele><time>2026-04-06T16:27:35.013Z</time></trkpt><trkpt lat="44.1396041" lon="11.9873875"><ele>77.0</ele><time>2026-04-06T16:27:36.01Z</time></trkpt><trkpt lat="44.1397593" lon="11.987365"><ele>77.0</ele><time>2026-04-06T16:27:37.008Z</time></trkpt><trkpt lat="44.1399099" lon="11.9873291"><ele>77.0</ele><time>2026-04-06T16:27:38.009Z</time></trkpt><trkpt lat="44.1400525" lon="11.9873045"><ele>76.5</ele><time>2026-04-06T16:27:39.008Z</time></trkpt><trkpt lat="44.1401954" lon="11.9872741"><ele>76.0</ele><time>2026-04-06T16:27:40.005Z</time></trkpt><trkpt lat="44.1403358" lon="11.987219"><ele>75.5</ele><time>2026-04-06T16:27:41.009Z</time></trkpt><trkpt lat="44.1404642" lon="11.9871556"><ele>75.0</ele><time>2026-04-06T16:27:42.009Z</time></trkpt><trkpt lat="44.1405782" lon="11.9871142"><ele>75.0</ele><time>2026-04-06T16:27:43.009Z</time></trkpt><trkpt lat="44.1406713" lon="11.987102"><ele>75.0</ele><time>2026-04-06T16:27:44.008Z</time></trkpt><trkpt lat="44.1407503" lon="11.9871168"><ele>75.0</ele><time>2026-04-06T16:27:45.011Z</time></trkpt><trkpt lat="44.1408111" lon="11.9871555"><ele>75.0</ele><time>2026-04-06T16:27:46.01Z</time></trkpt><trkpt lat="44.1408508" lon="11.9872335"><ele>75.0</ele><time>2026-04-06T16:27:47.008Z</time></trkpt><trkpt lat="44.1408812" lon="11.9873421"><ele>75.0</ele><time>2026-04-06T16:27:48.01Z</time></trkpt><trkpt lat="44.1408979" lon="11.9874609"><ele>75.5</ele><time>2026-04-06T16:27:49.01Z</time></trkpt><trkpt lat="44.1409092" lon="11.9876188"><ele>76.0</ele><time>2026-04-06T16:27:50.009Z</time></trkpt><trkpt lat="44.1409195" lon="11.9877928"><ele>76.5</ele><time>2026-04-06T16:27:51.01Z</time></trkpt><trkpt lat="44.1409377" lon="11.9879546"><ele>77.0</ele><time>2026-04-06T16:27:52.01Z</time></trkpt><trkpt lat="44.1409577" lon="11.9880921"><ele>77.0</ele><time>2026-04-06T16:27:53.014Z</time></trkpt><trkpt lat="44.140977" lon="11.9881975"><ele>77.0</ele><time>2026-04-06T16:27:54.009Z</time></trkpt><trkpt lat="44.1410112" lon="11.9883365"><ele>77.0</ele><time>2026-04-06T16:27:56.011Z</time></trkpt><trkpt lat="44.1410088" lon="11.9884909"><ele>77.0</ele><time>2026-04-06T16:27:58.012Z</time></trkpt><trkpt lat="44.1410073" lon="11.9885928"><ele>77.0</ele><time>2026-04-06T16:27:59.009Z</time></trkpt><trkpt lat="44.1410173" lon="11.9887233"><ele>76.75</ele><time>2026-04-06T16:28:00.01Z</time></trkpt><trkpt lat="44.1410156" lon="11.9889316"><ele>76.5</ele><time>2026-04-06T16:28:01.011Z</time></trkpt><trkpt lat="44.1410071" lon="11.9891358"><ele>76.25</ele><time>2026-04-06T16:28:02.01Z</time></trkpt><trkpt lat="44.1409983" lon="11.9893136"><ele>76.0</ele><time>2026-04-06T16:28:03.008Z</time></trkpt><trkpt lat="44.1409924" lon="11.9894634"><ele>75.33333333333333</ele><time>2026-04-06T16:28:04.009Z</time></trkpt><trkpt lat="44.1410081" lon="11.9895976"><ele>74.66666666666666</ele><time>2026-04-06T16:28:05.013Z</time></trkpt><trkpt lat="44.1410394" lon="11.9897108"><ele>74.0</ele><time>2026-04-06T16:28:06.009Z</time></trkpt><trkpt lat="44.1410808" lon="11.989799"><ele>73.33333333333333</ele><time>2026-04-06T16:28:07.009Z</time></trkpt><trkpt lat="44.1411337" lon="11.9898665"><ele>72.66666666666667</ele><time>2026-04-06T16:28:08.009Z</time></trkpt><trkpt lat="44.1412053" lon="11.9899328"><ele>72.0</ele><time>2026-04-06T16:28:09.008Z</time></trkpt><trkpt lat="44.1413015" lon="11.9899963"><ele>71.75</ele><time>2026-04-06T16:28:10.011Z</time></trkpt><trkpt lat="44.1414159" lon="11.990051"><ele>71.5</ele><time>2026-04-06T16:28:11.01Z</time></trkpt><trkpt lat="44.1415371" lon="11.9900774"><ele>71.25</ele><time>2026-04-06T16:28:12.008Z</time></trkpt><trkpt lat="44.1416589" lon="11.9900771"><ele>71.0</ele><time>2026-04-06T16:28:13.009Z</time></trkpt><trkpt lat="44.1417749" lon="11.9900637"><ele>71.0</ele><time>2026-04-06T16:28:14.011Z</time></trkpt><trkpt lat="44.1418861" lon="11.9900438"><ele>71.0</ele><time>2026-04-06T16:28:15.009Z</time></trkpt><trkpt lat="44.141991" lon="11.9900167"><ele>71.0</ele><time>2026-04-06T16:28:16.013Z</time></trkpt><trkpt lat="44.1420894" lon="11.9899901"><ele>71.0</ele><time>2026-04-06T16:28:17.008Z</time></trkpt><trkpt lat="44.1421808" lon="11.9899615"><ele>71.0</ele><time>2026-04-06T16:28:18.008Z</time></trkpt><trkpt lat="44.1422722" lon="11.9899219"><ele>70.8</ele><time>2026-04-06T16:28:19.009Z</time></trkpt><trkpt lat="44.142368" lon="11.9898679"><ele>70.6</ele><time>2026-04-06T16:28:20.009Z</time></trkpt><trkpt lat="44.1424703" lon="11.9898119"><ele>70.4</ele><time>2026-04-06T16:28:21.008Z</time></trkpt><trkpt lat="44.1425752" lon="11.9897541"><ele>70.2</ele><time>2026-04-06T16:28:22.008Z</time></trkpt><trkpt lat="44.1426794" lon="11.9896942"><ele>70.0</ele><time>2026-04-06T16:28:23.01Z</time></trkpt><trkpt lat="44.1427872" lon="11.9896328"><ele>70.0</ele><time>2026-04-06T16:28:24.008Z</time></trkpt><trkpt lat="44.1428972" lon="11.9895711"><ele>70.0</ele><time>2026-04-06T16:28:25.009Z</time></trkpt><trkpt lat="44.1430063" lon="11.9895051"><ele>70.0</ele><time>2026-04-06T16:28:26.01Z</time></trkpt><trkpt lat="44.1431147" lon="11.9894389"><ele>70.0</ele><time>2026-04-06T16:28:27.01Z</time></trkpt><trkpt lat="44.1432218" lon="11.9893754"><ele>70.0</ele><time>2026-04-06T16:28:28.014Z</time></trkpt><trkpt lat="44.1433254" lon="11.9893121"><ele>70.0</ele><time>2026-04-06T16:28:29.008Z</time></trkpt><trkpt lat="44.1434285" lon="11.9892474"><ele>70.0</ele><time>2026-04-06T16:28:30.01Z</time></trkpt><trkpt lat="44.1435287" lon="11.9891749"><ele>70.0</ele><time>2026-04-06T16:28:31.009Z</time></trkpt><trkpt lat="44.143623" lon="11.9890943"><ele>70.6</ele><time>2026-04-06T16:28:32.008Z</time></trkpt><trkpt lat="44.1437074" lon="11.9889966"><ele>71.2</ele><time>2026-04-06T16:28:33.009Z</time></trkpt><trkpt lat="44.1437838" lon="11.9888868"><ele>71.8</ele><time>2026-04-06T16:28:34.008Z</time></trkpt><trkpt lat="44.1438526" lon="11.9887682"><ele>72.4</ele><time>2026-04-06T16:28:35.01Z</time></trkpt><trkpt lat="44.1439158" lon="11.9886526"><ele>73.0</ele><time>2026-04-06T16:28:36.009Z</time></trkpt><trkpt lat="44.1439713" lon="11.9885444"><ele>73.0</ele><time>2026-04-06T16:28:37.008Z</time></trkpt><trkpt lat="44.1440274" lon="11.9884511"><ele>73.0</ele><time>2026-04-06T16:28:38.009Z</time></trkpt><trkpt lat="44.1440752" lon="11.9883615"><ele>73.0</ele><time>2026-04-06T16:28:39.009Z</time></trkpt><trkpt lat="44.1441265" lon="11.9882747"><ele>73.0</ele><time>2026-04-06T16:28:40.01Z</time></trkpt><trkpt lat="44.1441797" lon="11.9881859"><ele>73.0</ele><time>2026-04-06T16:28:41.009Z</time></trkpt><trkpt lat="44.1442417" lon="11.9880914"><ele>73.0</ele><time>2026-04-06T16:28:42.009Z</time></trkpt><trkpt lat="44.144314" lon="11.9879819"><ele>73.0</ele><time>2026-04-06T16:28:43.009Z</time></trkpt><trkpt lat="44.1443904" lon="11.987857"><ele>73.0</ele><time>2026-04-06T16:28:44.009Z</time></trkpt><trkpt lat="44.1444757" lon="11.9877126"><ele>73.0</ele><time>2026-04-06T16:28:45.011Z</time></trkpt><trkpt lat="44.1445625" lon="11.9875621"><ele>73.0</ele><time>2026-04-06T16:28:46.009Z</time></trkpt><trkpt lat="44.1446393" lon="11.9874255"><ele>73.0</ele><time>2026-04-06T16:28:47.009Z</time></trkpt><trkpt lat="44.1447066" lon="11.9873133"><ele>73.0</ele><time>2026-04-06T16:28:48.009Z</time></trkpt><trkpt lat="44.1447671" lon="11.9872379"><ele>73.0</ele><time>2026-04-06T16:28:49.012Z</time></trkpt><trkpt lat="44.1448274" lon="11.9871951"><ele>73.0</ele><time>2026-04-06T16:28:50.009Z</time></trkpt><trkpt lat="44.1448914" lon="11.9871759"><ele>73.0</ele><time>2026-04-06T16:28:51.014Z</time></trkpt><trkpt lat="44.1449586" lon="11.9871802"><ele>73.0</ele><time>2026-04-06T16:28:52.009Z</time></trkpt><trkpt lat="44.1450385" lon="11.9872177"><ele>73.4</ele><time>2026-04-06T16:28:53.01Z</time></trkpt><trkpt lat="44.145139" lon="11.9873093"><ele>73.8</ele><time>2026-04-06T16:28:54.012Z</time></trkpt><trkpt lat="44.1452348" lon="11.9874114"><ele>74.2</ele><time>2026-04-06T16:28:55.011Z</time></trkpt><trkpt lat="44.145314" lon="11.9874994"><ele>74.6</ele><time>2026-04-06T16:28:56.008Z</time></trkpt><trkpt lat="44.1453781" lon="11.9875668"><ele>75.0</ele><time>2026-04-06T16:28:57.009Z</time></trkpt><trkpt lat="44.1454669" lon="11.9876555"><ele>75.0</ele><time>2026-04-06T16:28:59.011Z</time></trkpt><trkpt lat="44.1455752" lon="11.9877475"><ele>75.0</ele><time>2026-04-06T16:29:01.01Z</time></trkpt><trkpt lat="44.1456438" lon="11.9878404"><ele>75.0</ele><time>2026-04-06T16:29:02.009Z</time></trkpt><trkpt lat="44.1457189" lon="11.9879636"><ele>75.0</ele><time>2026-04-06T16:29:03.009Z</time></trkpt><trkpt lat="44.1457954" lon="11.9881063"><ele>75.75</ele><time>2026-04-06T16:29:04.01Z</time></trkpt><trkpt lat="44.1458661" lon="11.9882728"><ele>76.5</ele><time>2026-04-06T16:29:05.009Z</time></trkpt><trkpt lat="44.1459285" lon="11.9884578"><ele>77.25</ele><time>2026-04-06T16:29:06.009Z</time></trkpt><trkpt lat="44.1459813" lon="11.9886587"><ele>78.0</ele><time>2026-04-06T16:29:07.013Z</time></trkpt><trkpt lat="44.1460233" lon="11.9888699"><ele>78.0</ele><time>2026-04-06T16:29:08.01Z</time></trkpt><trkpt lat="44.1460595" lon="11.9890952"><ele>78.0</ele><time>2026-04-06T16:29:09.01Z</time></trkpt><trkpt lat="44.1460932" lon="11.9893264"><ele>78.0</ele><time>2026-04-06T16:29:10.009Z</time></trkpt><trkpt lat="44.1461304" lon="11.9895488"><ele>76.75</ele><time>2026-04-06T16:29:11.009Z</time></trkpt><trkpt lat="44.1461701" lon="11.989754"><ele>75.5</ele><time>2026-04-06T16:29:12.012Z</time></trkpt><trkpt lat="44.1462145" lon="11.9899476"><ele>74.25</ele><time>2026-04-06T16:29:13.01Z</time></trkpt><trkpt lat="44.1462629" lon="11.990146"><ele>73.0</ele><time>2026-04-06T16:29:14.008Z</time></trkpt><trkpt lat="44.1463261" lon="11.9903421"><ele>73.0</ele><time>2026-04-06T16:29:15.008Z</time></trkpt><trkpt lat="44.1464076" lon="11.9905276"><ele>73.0</ele><time>2026-04-06T16:29:16.006Z</time></trkpt><trkpt lat="44.1465072" lon="11.9906999"><ele>73.0</ele><time>2026-04-06T16:29:17.009Z</time></trkpt><trkpt lat="44.1466202" lon="11.9908517"><ele>74.5</ele><time>2026-04-06T16:29:18.01Z</time></trkpt><trkpt lat="44.146733" lon="11.9909814"><ele>76.0</ele><time>2026-04-06T16:29:19.013Z</time></trkpt><trkpt lat="44.1468475" lon="11.9910965"><ele>77.5</ele><time>2026-04-06T16:29:20.009Z</time></trkpt><trkpt lat="44.146963" lon="11.9912105"><ele>79.0</ele><time>2026-04-06T16:29:21.009Z</time></trkpt><trkpt lat="44.1470783" lon="11.9913236"><ele>79.0</ele><time>2026-04-06T16:29:22.009Z</time></trkpt><trkpt lat="44.1471908" lon="11.991435"><ele>79.0</ele><time>2026-04-06T16:29:23.01Z</time></trkpt><trkpt lat="44.1472986" lon="11.9915446"><ele>79.0</ele><time>2026-04-06T16:29:24.008Z</time></trkpt><trkpt lat="44.1474041" lon="11.9916515"><ele>79.0</ele><time>2026-04-06T16:29:25.009Z</time></trkpt><trkpt lat="44.1475123" lon="11.9917582"><ele>78.5</ele><time>2026-04-06T16:29:26.015Z</time></trkpt><trkpt lat="44.1476273" lon="11.9918659"><ele>78.0</ele><time>2026-04-06T16:29:27.009Z</time></trkpt><trkpt lat="44.1477486" lon="11.9919781"><ele>77.5</ele><time>2026-04-06T16:29:28.009Z</time></trkpt><trkpt lat="44.1478762" lon="11.9920905"><ele>77.0</ele><time>2026-04-06T16:29:29.01Z</time></trkpt><trkpt lat="44.1480051" lon="11.9922011"><ele>77.0</ele><time>2026-04-06T16:29:30.009Z</time></trkpt><trkpt lat="44.1481309" lon="11.9923044"><ele>77.0</ele><time>2026-04-06T16:29:31.008Z</time></trkpt><trkpt lat="44.1482452" lon="11.9923999"><ele>77.0</ele><time>2026-04-06T16:29:32.009Z</time></trkpt><trkpt lat="44.1483553" lon="11.9924874"><ele>77.0</ele><time>2026-04-06T16:29:33.015Z</time></trkpt><trkpt lat="44.1484602" lon="11.992571"><ele>75.75</ele><time>2026-04-06T16:29:34.01Z</time></trkpt><trkpt lat="44.1485623" lon="11.9926546"><ele>74.5</ele><time>2026-04-06T16:29:35.01Z</time></trkpt><trkpt lat="44.1486681" lon="11.9927403"><ele>73.25</ele><time>2026-04-06T16:29:36.009Z</time></trkpt><trkpt lat="44.1487799" lon="11.9928347"><ele>72.0</ele><time>2026-04-06T16:29:37.011Z</time></trkpt><trkpt lat="44.1488966" lon="11.9929338"><ele>72.0</ele><time>2026-04-06T16:29:38.014Z</time></trkpt><trkpt lat="44.1490184" lon="11.9930397"><ele>72.0</ele><time>2026-04-06T16:29:39.012Z</time></trkpt><trkpt lat="44.1491308" lon="11.9931317"><ele>72.0</ele><time>2026-04-06T16:29:40.009Z</time></trkpt><trkpt lat="44.1492328" lon="11.9932145"><ele>72.0</ele><time>2026-04-06T16:29:41.007Z</time></trkpt><trkpt lat="44.1493292" lon="11.9932934"><ele>71.5</ele><time>2026-04-06T16:29:42.012Z</time></trkpt><trkpt lat="44.1494324" lon="11.993376"><ele>71.0</ele><time>2026-04-06T16:29:43.009Z</time></trkpt><trkpt lat="44.1495416" lon="11.9934642"><ele>70.5</ele><time>2026-04-06T16:29:44.008Z</time></trkpt><trkpt lat="44.1496631" lon="11.9935632"><ele>70.0</ele><time>2026-04-06T16:29:45.011Z</time></trkpt><trkpt lat="44.1497939" lon="11.9936693"><ele>72.0</ele><time>2026-04-06T16:29:46.009Z</time></trkpt><trkpt lat="44.1499338" lon="11.9937781"><ele>74.0</ele><time>2026-04-06T16:29:47.015Z</time></trkpt><trkpt lat="44.1500927" lon="11.9938966"><ele>76.0</ele><time>2026-04-06T16:29:48.009Z</time></trkpt><trkpt lat="44.1502738" lon="11.9940217"><ele>76.0</ele><time>2026-04-06T16:29:49.01Z</time></trkpt><trkpt lat="44.1504656" lon="11.9941512"><ele>76.0</ele><time>2026-04-06T16:29:50.01Z</time></trkpt><trkpt lat="44.150674" lon="11.9942837"><ele>76.0</ele><time>2026-04-06T16:29:51.01Z</time></trkpt><trkpt lat="44.1508653" lon="11.9944025"><ele>76.66666666666666</ele><time>2026-04-06T16:29:52.01Z</time></trkpt><trkpt lat="44.151029" lon="11.9945216"><ele>77.33333333333333</ele><time>2026-04-06T16:29:53.008Z</time></trkpt><trkpt lat="44.15118" lon="11.9946318"><ele>78.0</ele><time>2026-04-06T16:29:54.013Z</time></trkpt><trkpt lat="44.1513166" lon="11.9947303"><ele>78.0</ele><time>2026-04-06T16:29:55.009Z</time></trkpt><trkpt lat="44.1514419" lon="11.9948137"><ele>78.0</ele><time>2026-04-06T16:29:56.007Z</time></trkpt><trkpt lat="44.1515548" lon="11.9948855"><ele>78.0</ele><time>2026-04-06T16:29:57.01Z</time></trkpt><trkpt lat="44.1516548" lon="11.9949528"><ele>78.0</ele><time>2026-04-06T16:29:58.009Z</time></trkpt><trkpt lat="44.1517385" lon="11.9950118"><ele>78.0</ele><time>2026-04-06T16:29:59.009Z</time></trkpt><trkpt lat="44.1518198" lon="11.9950428"><ele>78.0</ele><time>2026-04-06T16:30:00.017Z</time></trkpt><trkpt lat="44.1518974" lon="11.9950499"><ele>78.0</ele><time>2026-04-06T16:30:01.011Z</time></trkpt><trkpt lat="44.1519773" lon="11.9950162"><ele>78.0</ele><time>2026-04-06T16:30:02.011Z</time></trkpt><trkpt lat="44.1520258" lon="11.9949128"><ele>78.0</ele><time>2026-04-06T16:30:03.011Z</time></trkpt><trkpt lat="44.1520641" lon="11.9948092"><ele>78.0</ele><time>2026-04-06T16:30:04.008Z</time></trkpt><trkpt lat="44.1521032" lon="11.9947159"><ele>78.0</ele><time>2026-04-06T16:30:05.009Z</time></trkpt><trkpt lat="44.1520996" lon="11.9945913"><ele>78.0</ele><time>2026-04-06T16:30:07.009Z</time></trkpt><trkpt lat="44.1520359" lon="11.9946137"><ele>78.0</ele><time>2026-04-06T16:30:09.014Z</time></trkpt><trkpt lat="44.1519705" lon="11.9946654"><ele>78.0</ele><time>2026-04-06T16:30:10.008Z</time></trkpt><trkpt lat="44.1518748" lon="11.994734"><ele>78.0</ele><time>2026-04-06T16:30:11.009Z</time></trkpt><trkpt lat="44.151753" lon="11.9947788"><ele>78.0</ele><time>2026-04-06T16:30:12.009Z</time></trkpt><trkpt lat="44.1515859" lon="11.9947642"><ele>78.0</ele><time>2026-04-06T16:30:13.01Z</time></trkpt><trkpt lat="44.1513992" lon="11.994701"><ele>78.0</ele><time>2026-04-06T16:30:14.008Z</time></trkpt><trkpt lat="44.1511957" lon="11.9945844"><ele>78.0</ele><time>2026-04-06T16:30:15.015Z</time></trkpt><trkpt lat="44.1509833" lon="11.9944374"><ele>78.0</ele><time>2026-04-06T16:30:16.01Z</time></trkpt><trkpt lat="44.150765" lon="11.994279"><ele>77.0</ele><time>2026-04-06T16:30:17.008Z</time></trkpt><trkpt lat="44.1505355" lon="11.994113"><ele>76.0</ele><time>2026-04-06T16:30:18.011Z</time></trkpt><trkpt lat="44.1503142" lon="11.9939331"><ele>76.0</ele><time>2026-04-06T16:30:19.011Z</time></trkpt><trkpt lat="44.1501093" lon="11.9937746"><ele>76.0</ele><time>2026-04-06T16:30:20.01Z</time></trkpt><trkpt lat="44.1499409" lon="11.9936436"><ele>76.0</ele><time>2026-04-06T16:30:21.009Z</time></trkpt><trkpt lat="44.1498141" lon="11.9935434"><ele>76.0</ele><time>2026-04-06T16:30:22.009Z</time></trkpt><trkpt lat="44.1497078" lon="11.9934568"><ele>76.0</ele><time>2026-04-06T16:30:23.008Z</time></trkpt><trkpt lat="44.1496117" lon="11.9933673"><ele>76.0</ele><time>2026-04-06T16:30:24.008Z</time></trkpt><trkpt lat="44.1495086" lon="11.9932819"><ele>76.0</ele><time>2026-04-06T16:30:25.011Z</time></trkpt><trkpt lat="44.1494043" lon="11.9932002"><ele>76.0</ele><time>2026-04-06T16:30:26.01Z</time></trkpt><trkpt lat="44.1492964" lon="11.9931228"><ele>76.0</ele><time>2026-04-06T16:30:27.008Z</time></trkpt><trkpt lat="44.149186" lon="11.9930428"><ele>76.0</ele><time>2026-04-06T16:30:28.009Z</time></trkpt><trkpt lat="44.1490751" lon="11.9929601"><ele>76.0</ele><time>2026-04-06T16:30:29.008Z</time></trkpt><trkpt lat="44.1489773" lon="11.9928698"><ele>76.2</ele><time>2026-04-06T16:30:30.014Z</time></trkpt><trkpt lat="44.1489005" lon="11.9927697"><ele>76.39999999999999</ele><time>2026-04-06T16:30:31.01Z</time></trkpt><trkpt lat="44.1488522" lon="11.9926593"><ele>76.6</ele><time>2026-04-06T16:30:32.01Z</time></trkpt><trkpt lat="44.1488287" lon="11.9925466"><ele>76.8</ele><time>2026-04-06T16:30:33.009Z</time></trkpt><trkpt lat="44.1488341" lon="11.9924222"><ele>77.0</ele><time>2026-04-06T16:30:34.01Z</time></trkpt><trkpt lat="44.1488697" lon="11.9922808"><ele>77.0</ele><time>2026-04-06T16:30:35.014Z</time></trkpt><trkpt lat="44.1489323" lon="11.9921302"><ele>77.0</ele><time>2026-04-06T16:30:36.01Z</time></trkpt><trkpt lat="44.1490162" lon="11.9919855"><ele>77.0</ele><time>2026-04-06T16:30:37.01Z</time></trkpt><trkpt lat="44.1491062" lon="11.9918619"><ele>77.0</ele><time>2026-04-06T16:30:38.01Z</time></trkpt><trkpt lat="44.1491997" lon="11.9917793"><ele>77.6</ele><time>2026-04-06T16:30:39.01Z</time></trkpt><trkpt lat="44.1492937" lon="11.9917479"><ele>78.2</ele><time>2026-04-06T16:30:40.009Z</time></trkpt><trkpt lat="44.1493909" lon="11.9917689"><ele>78.8</ele><time>2026-04-06T16:30:41.009Z</time></trkpt><trkpt lat="44.1494859" lon="11.9918359"><ele>79.4</ele><time>2026-04-06T16:30:42.013Z</time></trkpt><trkpt lat="44.1495714" lon="11.9919498"><ele>80.0</ele><time>2026-04-06T16:30:43.009Z</time></trkpt><trkpt lat="44.1496436" lon="11.9921148"><ele>80.0</ele><time>2026-04-06T16:30:44.009Z</time></trkpt><trkpt lat="44.1497076" lon="11.9923282"><ele>80.0</ele><time>2026-04-06T16:30:45.011Z</time></trkpt><trkpt lat="44.1497786" lon="11.9925693"><ele>80.0</ele><time>2026-04-06T16:30:46.009Z</time></trkpt><trkpt lat="44.149866" lon="11.9928251"><ele>80.0</ele><time>2026-04-06T16:30:47.011Z</time></trkpt><trkpt lat="44.1499736" lon="11.9930984"><ele>80.0</ele><time>2026-04-06T16:30:48.01Z</time></trkpt><trkpt lat="44.1500943" lon="11.9933912"><ele>78.0</ele><time>2026-04-06T16:30:49.01Z</time></trkpt><trkpt lat="44.1502293" lon="11.9936888"><ele>76.0</ele><time>2026-04-06T16:30:50.009Z</time></trkpt><trkpt lat="44.1503817" lon="11.9939832"><ele>75.5</ele><time>2026-04-06T16:30:51.01Z</time></trkpt><trkpt lat="44.1505467" lon="11.9942701"><ele>75.0</ele><time>2026-04-06T16:30:52.009Z</time></trkpt><trkpt lat="44.1507247" lon="11.9945425"><ele>76.5</ele><time>2026-04-06T16:30:53.008Z</time></trkpt><trkpt lat="44.1509184" lon="11.9947898"><ele>78.0</ele><time>2026-04-06T16:30:54.01Z</time></trkpt><trkpt lat="44.1511237" lon="11.9949998"><ele>77.0</ele><time>2026-04-06T16:30:55.009Z</time></trkpt><trkpt lat="44.1513447" lon="11.9951717"><ele>76.0</ele><time>2026-04-06T16:30:56.008Z</time></trkpt><trkpt lat="44.1515764" lon="11.9953186"><ele>76.0</ele><time>2026-04-06T16:30:57.009Z</time></trkpt><trkpt lat="44.1518151" lon="11.9954568"><ele>76.0</ele><time>2026-04-06T16:30:58.015Z</time></trkpt><trkpt lat="44.1520571" lon="11.9955913"><ele>76.0</ele><time>2026-04-06T16:30:59.01Z</time></trkpt><trkpt lat="44.1522981" lon="11.9957174"><ele>76.0</ele><time>2026-04-06T16:31:00.009Z</time></trkpt><trkpt lat="44.1525261" lon="11.9958335"><ele>74.66666666666666</ele><time>2026-04-06T16:31:01.008Z</time></trkpt><trkpt lat="44.1527328" lon="11.9959377"><ele>73.33333333333333</ele><time>2026-04-06T16:31:02.009Z</time></trkpt><trkpt lat="44.1529227" lon="11.9960433"><ele>72.0</ele><time>2026-04-06T16:31:03.012Z</time></trkpt><trkpt lat="44.1531019" lon="11.996159"><ele>73.33333333333333</ele><time>2026-04-06T16:31:04.01Z</time></trkpt><trkpt lat="44.1532688" lon="11.996297"><ele>74.66666666666666</ele><time>2026-04-06T16:31:05.008Z</time></trkpt><trkpt lat="44.1534238" lon="11.9964543"><ele>76.0</ele><time>2026-04-06T16:31:06.008Z</time></trkpt><trkpt lat="44.1535705" lon="11.996623"><ele>74.66666666666666</ele><time>2026-04-06T16:31:07.01Z</time></trkpt><trkpt lat="44.1537142" lon="11.9967932"><ele>73.33333333333333</ele><time>2026-04-06T16:31:08.011Z</time></trkpt><trkpt lat="44.1538582" lon="11.9969697"><ele>72.0</ele><time>2026-04-06T16:31:09.01Z</time></trkpt><trkpt lat="44.1540046" lon="11.9971527"><ele>73.33333333333333</ele><time>2026-04-06T16:31:10.011Z</time></trkpt><trkpt lat="44.1541589" lon="11.9973412"><ele>74.66666666666666</ele><time>2026-04-06T16:31:11.008Z</time></trkpt><trkpt lat="44.1543176" lon="11.9975351"><ele>76.0</ele><time>2026-04-06T16:31:12.011Z</time></trkpt><trkpt lat="44.1544821" lon="11.9977338"><ele>74.33333333333333</ele><time>2026-04-06T16:31:13.015Z</time></trkpt><trkpt lat="44.154649" lon="11.9979368"><ele>72.66666666666667</ele><time>2026-04-06T16:31:14.008Z</time></trkpt><trkpt lat="44.1548196" lon="11.9981454"><ele>71.0</ele><time>2026-04-06T16:31:15.009Z</time></trkpt><trkpt lat="44.1549917" lon="11.9983577"><ele>71.0</ele><time>2026-04-06T16:31:16.01Z</time></trkpt><trkpt lat="44.1551655" lon="11.9985684"><ele>71.0</ele><time>2026-04-06T16:31:17.009Z</time></trkpt><trkpt lat="44.155336" lon="11.9987753"><ele>71.0</ele><time>2026-04-06T16:31:18.01Z</time></trkpt><trkpt lat="44.1555006" lon="11.9989764"><ele>71.0</ele><time>2026-04-06T16:31:19.008Z</time></trkpt><trkpt lat="44.1556618" lon="11.9991751"><ele>71.0</ele><time>2026-04-06T16:31:20.01Z</time></trkpt><trkpt lat="44.1558213" lon="11.9993728"><ele>71.0</ele><time>2026-04-06T16:31:21.009Z</time></trkpt><trkpt lat="44.1559809" lon="11.9995668"><ele>71.0</ele><time>2026-04-06T16:31:22.01Z</time></trkpt><trkpt lat="44.156141" lon="11.9997597"><ele>71.0</ele><time>2026-04-06T16:31:23.009Z</time></trkpt><trkpt lat="44.1562982" lon="11.9999544"><ele>71.0</ele><time>2026-04-06T16:31:24.012Z</time></trkpt><trkpt lat="44.1564574" lon="12.0001508"><ele>71.0</ele><time>2026-04-06T16:31:25.009Z</time></trkpt><trkpt lat="44.1566176" lon="12.0003504"><ele>71.0</ele><time>2026-04-06T16:31:26.009Z</time></trkpt><trkpt lat="44.1567747" lon="12.0005426"><ele>70.33333333333334</ele><time>2026-04-06T16:31:27.009Z</time></trkpt><trkpt lat="44.15692" lon="12.0007247"><ele>69.66666666666667</ele><time>2026-04-06T16:31:28.009Z</time></trkpt><trkpt lat="44.1570554" lon="12.0008987"><ele>69.0</ele><time>2026-04-06T16:31:29.009Z</time></trkpt><trkpt lat="44.1571835" lon="12.0010701"><ele>68.66666666666667</ele><time>2026-04-06T16:31:30.014Z</time></trkpt><trkpt lat="44.1573028" lon="12.0012419"><ele>68.33333333333334</ele><time>2026-04-06T16:31:31.009Z</time></trkpt><trkpt lat="44.1574077" lon="12.001426"><ele>68.0</ele><time>2026-04-06T16:31:32.008Z</time></trkpt><trkpt lat="44.1574999" lon="12.0016156"><ele>68.33333333333334</ele><time>2026-04-06T16:31:33.01Z</time></trkpt><trkpt lat="44.1575936" lon="12.0018044"><ele>68.66666666666667</ele><time>2026-04-06T16:31:34.011Z</time></trkpt><trkpt lat="44.1576948" lon="12.0019879"><ele>69.0</ele><time>2026-04-06T16:31:35.009Z</time></trkpt><trkpt lat="44.1577999" lon="12.0021713"><ele>69.0</ele><time>2026-04-06T16:31:36.008Z</time></trkpt><trkpt lat="44.1579066" lon="12.0023496"><ele>69.0</ele><time>2026-04-06T16:31:37.009Z</time></trkpt><trkpt lat="44.1580091" lon="12.0025274"><ele>69.0</ele><time>2026-04-06T16:31:38.008Z</time></trkpt><trkpt lat="44.1581067" lon="12.0027043"><ele>69.0</ele><time>2026-04-06T16:31:39.009Z</time></trkpt><trkpt lat="44.1582014" lon="12.0028835"><ele>69.0</ele><time>2026-04-06T16:31:40.014Z</time></trkpt><trkpt lat="44.1582956" lon="12.0030617"><ele>69.0</ele><time>2026-04-06T16:31:41.008Z</time></trkpt><trkpt lat="44.1583892" lon="12.0032399"><ele>68.0</ele><time>2026-04-06T16:31:42.01Z</time></trkpt><trkpt lat="44.1584851" lon="12.0034153"><ele>67.0</ele><time>2026-04-06T16:31:43.009Z</time></trkpt><trkpt lat="44.1585818" lon="12.0035914"><ele>66.0</ele><time>2026-04-06T16:31:44.008Z</time></trkpt><trkpt lat="44.1586802" lon="12.0037637"><ele>66.0</ele><time>2026-04-06T16:31:45.012Z</time></trkpt><trkpt lat="44.1587799" lon="12.0039333"><ele>66.0</ele><time>2026-04-06T16:31:46.008Z</time></trkpt><trkpt lat="44.1588801" lon="12.0041069"><ele>66.0</ele><time>2026-04-06T16:31:47.009Z</time></trkpt><trkpt lat="44.1589787" lon="12.0042822"><ele>67.0</ele><time>2026-04-06T16:31:48.009Z</time></trkpt><trkpt lat="44.159077" lon="12.0044603"><ele>68.0</ele><time>2026-04-06T16:31:49.008Z</time></trkpt><trkpt lat="44.1591741" lon="12.0046414"><ele>69.0</ele><time>2026-04-06T16:31:50.011Z</time></trkpt><trkpt lat="44.1592746" lon="12.0048179"><ele>69.0</ele><time>2026-04-06T16:31:51.008Z</time></trkpt><trkpt lat="44.1593751" lon="12.0049926"><ele>69.0</ele><time>2026-04-06T16:31:52.008Z</time></trkpt><trkpt lat="44.1594725" lon="12.0051714"><ele>69.0</ele><time>2026-04-06T16:31:53.007Z</time></trkpt><trkpt lat="44.1595691" lon="12.0053498"><ele>68.66666666666667</ele><time>2026-04-06T16:31:54.009Z</time></trkpt><trkpt lat="44.1596671" lon="12.0055252"><ele>68.33333333333334</ele><time>2026-04-06T16:31:55.009Z</time></trkpt><trkpt lat="44.1597657" lon="12.0057001"><ele>68.0</ele><time>2026-04-06T16:31:56.014Z</time></trkpt><trkpt lat="44.1598624" lon="12.005873"><ele>67.66666666666667</ele><time>2026-04-06T16:31:57.008Z</time></trkpt><trkpt lat="44.1599589" lon="12.006049"><ele>67.33333333333333</ele><time>2026-04-06T16:31:58.008Z</time></trkpt><trkpt lat="44.1600515" lon="12.0062291"><ele>67.0</ele><time>2026-04-06T16:31:59.007Z</time></trkpt><trkpt lat="44.1601445" lon="12.006402"><ele>67.0</ele><time>2026-04-06T16:32:00.007Z</time></trkpt><trkpt lat="44.1602378" lon="12.0065731"><ele>67.0</ele><time>2026-04-06T16:32:01.007Z</time></trkpt><trkpt lat="44.1603335" lon="12.0067358"><ele>67.0</ele><time>2026-04-06T16:32:02.006Z</time></trkpt><trkpt lat="44.1604291" lon="12.0068907"><ele>66.25</ele><time>2026-04-06T16:32:03.009Z</time></trkpt><trkpt lat="44.1605323" lon="12.0070299"><ele>65.5</ele><time>2026-04-06T16:32:04.013Z</time></trkpt><trkpt lat="44.1606427" lon="12.0071604"><ele>64.75</ele><time>2026-04-06T16:32:05.008Z</time></trkpt><trkpt lat="44.1607582" lon="12.0072701"><ele>64.0</ele><time>2026-04-06T16:32:06.008Z</time></trkpt><trkpt lat="44.1608725" lon="12.007362"><ele>63.75</ele><time>2026-04-06T16:32:07.007Z</time></trkpt><trkpt lat="44.1609835" lon="12.007437"><ele>63.5</ele><time>2026-04-06T16:32:08.009Z</time></trkpt><trkpt lat="44.1610947" lon="12.0075131"><ele>63.25</ele><time>2026-04-06T16:32:09.014Z</time></trkpt><trkpt lat="44.1612085" lon="12.0075908"><ele>63.0</ele><time>2026-04-06T16:32:10.009Z</time></trkpt><trkpt lat="44.161327" lon="12.0076789"><ele>62.66666666666667</ele><time>2026-04-06T16:32:11.009Z</time></trkpt><trkpt lat="44.1614531" lon="12.007772"><ele>62.333333333333336</ele><time>2026-04-06T16:32:12.009Z</time></trkpt><trkpt lat="44.1615849" lon="12.0078768"><ele>62.0</ele><time>2026-04-06T16:32:13.009Z</time></trkpt><trkpt lat="44.1617387" lon="12.0079856"><ele>60.66666666666667</ele><time>2026-04-06T16:32:14.087Z</time></trkpt><trkpt lat="44.1619012" lon="12.0080882"><ele>59.33333333333333</ele><time>2026-04-06T16:32:15.009Z</time></trkpt><trkpt lat="44.1620828" lon="12.0082072"><ele>58.0</ele><time>2026-04-06T16:32:16.011Z</time></trkpt><trkpt lat="44.1622738" lon="12.0083389"><ele>57.0</ele><time>2026-04-06T16:32:17.014Z</time></trkpt><trkpt lat="44.1624647" lon="12.0084893"><ele>56.0</ele><time>2026-04-06T16:32:18.008Z</time></trkpt><trkpt lat="44.162656" lon="12.0086435"><ele>55.0</ele><time>2026-04-06T16:32:19.009Z</time></trkpt><trkpt lat="44.1628409" lon="12.0087942"><ele>55.0</ele><time>2026-04-06T16:32:20.009Z</time></trkpt><trkpt lat="44.1630319" lon="12.0089317"><ele>55.0</ele><time>2026-04-06T16:32:21.012Z</time></trkpt><trkpt lat="44.163218" lon="12.0090706"><ele>55.0</ele><time>2026-04-06T16:32:22.01Z</time></trkpt><trkpt lat="44.1633972" lon="12.0091997"><ele>54.0</ele><time>2026-04-06T16:32:23.012Z</time></trkpt><trkpt lat="44.1635663" lon="12.0093228"><ele>53.0</ele><time>2026-04-06T16:32:24.008Z</time></trkpt><trkpt lat="44.1637335" lon="12.009446"><ele>52.0</ele><time>2026-04-06T16:32:25.01Z</time></trkpt><trkpt lat="44.1638983" lon="12.0095714"><ele>50.666666666666664</ele><time>2026-04-06T16:32:26.01Z</time></trkpt><trkpt lat="44.1640624" lon="12.0096956"><ele>49.33333333333333</ele><time>2026-04-06T16:32:27.01Z</time></trkpt><trkpt lat="44.1642257" lon="12.0098166"><ele>48.0</ele><time>2026-04-06T16:32:28.012Z</time></trkpt><trkpt lat="44.164393" lon="12.0099409"><ele>49.33333333333333</ele><time>2026-04-06T16:32:29.011Z</time></trkpt><trkpt lat="44.1645619" lon="12.0100744"><ele>50.666666666666664</ele><time>2026-04-06T16:32:30.01Z</time></trkpt><trkpt lat="44.164734" lon="12.0102024"><ele>52.0</ele><time>2026-04-06T16:32:31.009Z</time></trkpt><trkpt lat="44.1649062" lon="12.010334"><ele>53.666666666666664</ele><time>2026-04-06T16:32:32.012Z</time></trkpt><trkpt lat="44.1650808" lon="12.0104581"><ele>55.33333333333333</ele><time>2026-04-06T16:32:33.011Z</time></trkpt><trkpt lat="44.1652602" lon="12.0105826"><ele>57.0</ele><time>2026-04-06T16:32:34.008Z</time></trkpt><trkpt lat="44.1654406" lon="12.0107123"><ele>57.66666666666667</ele><time>2026-04-06T16:32:35.01Z</time></trkpt><trkpt lat="44.1656221" lon="12.0108495"><ele>58.333333333333336</ele><time>2026-04-06T16:32:36.008Z</time></trkpt><trkpt lat="44.1658099" lon="12.0109855"><ele>59.0</ele><time>2026-04-06T16:32:37.01Z</time></trkpt><trkpt lat="44.1660069" lon="12.0111277"><ele>56.5</ele><time>2026-04-06T16:32:38.008Z</time></trkpt><trkpt lat="44.1662139" lon="12.0112822"><ele>54.0</ele><time>2026-04-06T16:32:39.011Z</time></trkpt><trkpt lat="44.1664291" lon="12.0114339"><ele>54.5</ele><time>2026-04-06T16:32:40.009Z</time></trkpt><trkpt lat="44.1666465" lon="12.0115999"><ele>55.0</ele><time>2026-04-06T16:32:41.009Z</time></trkpt><trkpt lat="44.1668578" lon="12.0117855"><ele>55.0</ele><time>2026-04-06T16:32:42.01Z</time></trkpt><trkpt lat="44.1670611" lon="12.0119834"><ele>55.0</ele><time>2026-04-06T16:32:43.014Z</time></trkpt><trkpt lat="44.1672544" lon="12.012189"><ele>55.0</ele><time>2026-04-06T16:32:44.01Z</time></trkpt><trkpt lat="44.1674408" lon="12.0124029"><ele>55.0</ele><time>2026-04-06T16:32:45.01Z</time></trkpt><trkpt lat="44.167619" lon="12.0126154"><ele>55.0</ele><time>2026-04-06T16:32:46.01Z</time></trkpt><trkpt lat="44.1677754" lon="12.0128241"><ele>55.0</ele><time>2026-04-06T16:32:47.008Z</time></trkpt><trkpt lat="44.1679102" lon="12.0130306"><ele>55.0</ele><time>2026-04-06T16:32:48.013Z</time></trkpt><trkpt lat="44.1680335" lon="12.0132308"><ele>54.666666666666664</ele><time>2026-04-06T16:32:49.01Z</time></trkpt><trkpt lat="44.1681483" lon="12.0134302"><ele>54.33333333333333</ele><time>2026-04-06T16:32:50.009Z</time></trkpt><trkpt lat="44.168262" lon="12.0136253"><ele>54.0</ele><time>2026-04-06T16:32:51.011Z</time></trkpt><trkpt lat="44.1683751" lon="12.0138174"><ele>54.0</ele><time>2026-04-06T16:32:52.01Z</time></trkpt><trkpt lat="44.1684886" lon="12.0140077"><ele>54.0</ele><time>2026-04-06T16:32:53.008Z</time></trkpt><trkpt lat="44.1686095" lon="12.0141914"><ele>54.0</ele><time>2026-04-06T16:32:54.008Z</time></trkpt><trkpt lat="44.1687313" lon="12.014377"><ele>54.66666666666667</ele><time>2026-04-06T16:32:55.012Z</time></trkpt><trkpt lat="44.1688495" lon="12.014562"><ele>55.333333333333336</ele><time>2026-04-06T16:32:56.007Z</time></trkpt><trkpt lat="44.1689642" lon="12.0147441"><ele>56.0</ele><time>2026-04-06T16:32:57.008Z</time></trkpt><trkpt lat="44.169076" lon="12.0149232"><ele>55.0</ele><time>2026-04-06T16:32:58.008Z</time></trkpt><trkpt lat="44.1691879" lon="12.0150936"><ele>54.0</ele><time>2026-04-06T16:32:59.008Z</time></trkpt><trkpt lat="44.1692996" lon="12.0152481"><ele>53.0</ele><time>2026-04-06T16:33:00.01Z</time></trkpt><trkpt lat="44.1694041" lon="12.0153903"><ele>53.0</ele><time>2026-04-06T16:33:01.008Z</time></trkpt><trkpt lat="44.1695035" lon="12.0155289"><ele>53.0</ele><time>2026-04-06T16:33:02.013Z</time></trkpt><trkpt lat="44.1696052" lon="12.0156712"><ele>53.0</ele><time>2026-04-06T16:33:03.007Z</time></trkpt><trkpt lat="44.1697129" lon="12.0158162"><ele>53.0</ele><time>2026-04-06T16:33:04.01Z</time></trkpt><trkpt lat="44.1698234" lon="12.015964"><ele>52.66666666666667</ele><time>2026-04-06T16:33:05.008Z</time></trkpt><trkpt lat="44.1699389" lon="12.0161175"><ele>52.33333333333333</ele><time>2026-04-06T16:33:06.01Z</time></trkpt><trkpt lat="44.1700613" lon="12.0162795"><ele>52.0</ele><time>2026-04-06T16:33:07.007Z</time></trkpt><trkpt lat="44.1701989" lon="12.016451"><ele>52.0</ele><time>2026-04-06T16:33:08.008Z</time></trkpt><trkpt lat="44.1703513" lon="12.0166358"><ele>52.0</ele><time>2026-04-06T16:33:09.012Z</time></trkpt><trkpt lat="44.1705043" lon="12.0168418"><ele>52.0</ele><time>2026-04-06T16:33:10.011Z</time></trkpt><trkpt lat="44.1706641" lon="12.0170552"><ele>51.5</ele><time>2026-04-06T16:33:11.01Z</time></trkpt><trkpt lat="44.1708301" lon="12.0172811"><ele>51.0</ele><time>2026-04-06T16:33:12.01Z</time></trkpt><trkpt lat="44.1710092" lon="12.0175252"><ele>52.0</ele><time>2026-04-06T16:33:13.008Z</time></trkpt><trkpt lat="44.1711947" lon="12.0177862"><ele>53.0</ele><time>2026-04-06T16:33:14.012Z</time></trkpt><trkpt lat="44.1713848" lon="12.0180544"><ele>52.5</ele><time>2026-04-06T16:33:15.008Z</time></trkpt><trkpt lat="44.1715756" lon="12.0183253"><ele>52.0</ele><time>2026-04-06T16:33:16.013Z</time></trkpt><trkpt lat="44.1717629" lon="12.0185807"><ele>52.0</ele><time>2026-04-06T16:33:17.01Z</time></trkpt><trkpt lat="44.1719357" lon="12.0188204"><ele>52.0</ele><time>2026-04-06T16:33:18.008Z</time></trkpt><trkpt lat="44.1721042" lon="12.0190519"><ele>52.0</ele><time>2026-04-06T16:33:19.009Z</time></trkpt><trkpt lat="44.1722627" lon="12.0192758"><ele>52.0</ele><time>2026-04-06T16:33:20.011Z</time></trkpt><trkpt lat="44.1724078" lon="12.0194899"><ele>52.0</ele><time>2026-04-06T16:33:21.008Z</time></trkpt><trkpt lat="44.1725298" lon="12.0197019"><ele>52.0</ele><time>2026-04-06T16:33:22.009Z</time></trkpt><trkpt lat="44.1726183" lon="12.0199001"><ele>52.0</ele><time>2026-04-06T16:33:23.008Z</time></trkpt><trkpt lat="44.1726657" lon="12.0200762"><ele>52.0</ele><time>2026-04-06T16:33:24.01Z</time></trkpt><trkpt lat="44.172681" lon="12.0202347"><ele>52.0</ele><time>2026-04-06T16:33:25.01Z</time></trkpt><trkpt lat="44.1726658" lon="12.0203853"><ele>52.0</ele><time>2026-04-06T16:33:26.008Z</time></trkpt><trkpt lat="44.1726281" lon="12.0205246"><ele>52.0</ele><time>2026-04-06T16:33:27.017Z</time></trkpt><trkpt lat="44.1725855" lon="12.0206552"><ele>52.0</ele><time>2026-04-06T16:33:28.009Z</time></trkpt><trkpt lat="44.1725592" lon="12.0207795"><ele>52.0</ele><time>2026-04-06T16:33:29.007Z</time></trkpt><trkpt lat="44.1725578" lon="12.0208963"><ele>52.0</ele><time>2026-04-06T16:33:30.01Z</time></trkpt><trkpt lat="44.1725742" lon="12.0210013"><ele>52.0</ele><time>2026-04-06T16:33:31.009Z</time></trkpt><trkpt lat="44.1726387" lon="12.0210709"><ele>52.0</ele><time>2026-04-06T16:33:32.008Z</time></trkpt><trkpt lat="44.1727276" lon="12.021112"><ele>52.0</ele><time>2026-04-06T16:33:33.012Z</time></trkpt><trkpt lat="44.1728312" lon="12.0211359"><ele>52.0</ele><time>2026-04-06T16:33:34.009Z</time></trkpt><trkpt lat="44.172919" lon="12.0212019"><ele>52.0</ele><time>2026-04-06T16:33:35.009Z</time></trkpt><trkpt lat="44.1729965" lon="12.0212996"><ele>52.0</ele><time>2026-04-06T16:33:36.008Z</time></trkpt><trkpt lat="44.1730452" lon="12.0214431"><ele>52.0</ele><time>2026-04-06T16:33:37.01Z</time></trkpt><trkpt lat="44.1730716" lon="12.0216371"><ele>52.0</ele><time>2026-04-06T16:33:38.014Z</time></trkpt><trkpt lat="44.1731109" lon="12.0218604"><ele>52.0</ele><time>2026-04-06T16:33:39.011Z</time></trkpt><trkpt lat="44.1731716" lon="12.0221087"><ele>52.0</ele><time>2026-04-06T16:33:40.01Z</time></trkpt><trkpt lat="44.1732392" lon="12.0223661"><ele>52.0</ele><time>2026-04-06T16:33:41.01Z</time></trkpt><trkpt lat="44.173301" lon="12.0226169"><ele>52.0</ele><time>2026-04-06T16:33:42.01Z</time></trkpt><trkpt lat="44.1733556" lon="12.0228552"><ele>52.0</ele><time>2026-04-06T16:33:43.011Z</time></trkpt><trkpt lat="44.1734039" lon="12.0230753"><ele>52.0</ele><time>2026-04-06T16:33:44.011Z</time></trkpt><trkpt lat="44.1734511" lon="12.0232793"><ele>52.0</ele><time>2026-04-06T16:33:45.015Z</time></trkpt><trkpt lat="44.1734937" lon="12.0234673"><ele>52.25</ele><time>2026-04-06T16:33:46.009Z</time></trkpt><trkpt lat="44.1735318" lon="12.0236514"><ele>52.5</ele><time>2026-04-06T16:33:47.01Z</time></trkpt><trkpt lat="44.1735711" lon="12.02384"><ele>52.75</ele><time>2026-04-06T16:33:48.009Z</time></trkpt><trkpt lat="44.1736164" lon="12.0240395"><ele>53.0</ele><time>2026-04-06T16:33:49.01Z</time></trkpt><trkpt lat="44.1736616" lon="12.024247"><ele>53.0</ele><time>2026-04-06T16:33:50.009Z</time></trkpt><trkpt lat="44.1737076" lon="12.0244674"><ele>53.0</ele><time>2026-04-06T16:33:51.011Z</time></trkpt><trkpt lat="44.1737754" lon="12.0246817"><ele>53.0</ele><time>2026-04-06T16:33:52.01Z</time></trkpt><trkpt lat="44.1738639" lon="12.0248883"><ele>52.66666666666667</ele><time>2026-04-06T16:33:53.012Z</time></trkpt><trkpt lat="44.1739775" lon="12.0250795"><ele>52.33333333333333</ele><time>2026-04-06T16:33:54.01Z</time></trkpt><trkpt lat="44.1741097" lon="12.0252521"><ele>52.0</ele><time>2026-04-06T16:33:55.01Z</time></trkpt><trkpt lat="44.174248" lon="12.0254239"><ele>52.0</ele><time>2026-04-06T16:33:56.009Z</time></trkpt><trkpt lat="44.1743923" lon="12.0255988"><ele>52.0</ele><time>2026-04-06T16:33:57.01Z</time></trkpt><trkpt lat="44.1745383" lon="12.0257778"><ele>52.0</ele><time>2026-04-06T16:33:58.013Z</time></trkpt><trkpt lat="44.1746844" lon="12.025962"><ele>52.0</ele><time>2026-04-06T16:33:59.008Z</time></trkpt><trkpt lat="44.1748372" lon="12.0261611"><ele>52.0</ele><time>2026-04-06T16:34:00.008Z</time></trkpt><trkpt lat="44.1750086" lon="12.0263704"><ele>52.0</ele><time>2026-04-06T16:34:01.01Z</time></trkpt><trkpt lat="44.1751856" lon="12.0265863"><ele>51.5</ele><time>2026-04-06T16:34:02.01Z</time></trkpt><trkpt lat="44.1753564" lon="12.0268034"><ele>51.0</ele><time>2026-04-06T16:34:03.01Z</time></trkpt><trkpt lat="44.1755293" lon="12.0270209"><ele>51.0</ele><time>2026-04-06T16:34:04.014Z</time></trkpt><trkpt lat="44.1757" lon="12.0272388"><ele>51.0</ele><time>2026-04-06T16:34:05.009Z</time></trkpt><trkpt lat="44.175869" lon="12.0274535"><ele>51.0</ele><time>2026-04-06T16:34:06.009Z</time></trkpt><trkpt lat="44.1760361" lon="12.0276651"><ele>51.0</ele><time>2026-04-06T16:34:07.01Z</time></trkpt><trkpt lat="44.1762004" lon="12.0278732"><ele>51.0</ele><time>2026-04-06T16:34:08.009Z</time></trkpt><trkpt lat="44.1763657" lon="12.0280758"><ele>50.33333333333333</ele><time>2026-04-06T16:34:09.01Z</time></trkpt><trkpt lat="44.1765359" lon="12.0282744"><ele>49.666666666666664</ele><time>2026-04-06T16:34:10.01Z</time></trkpt><trkpt lat="44.1767032" lon="12.0284774"><ele>49.0</ele><time>2026-04-06T16:34:11.009Z</time></trkpt><trkpt lat="44.1768693" lon="12.0286872"><ele>48.666666666666664</ele><time>2026-04-06T16:34:12.01Z</time></trkpt><trkpt lat="44.1770315" lon="12.0288979"><ele>48.33333333333333</ele><time>2026-04-06T16:34:13.01Z</time></trkpt><trkpt lat="44.177191" lon="12.0290944"><ele>48.0</ele><time>2026-04-06T16:34:14.017Z</time></trkpt><trkpt lat="44.1773376" lon="12.0292866"><ele>48.66666666666667</ele><time>2026-04-06T16:34:15.011Z</time></trkpt><trkpt lat="44.1774934" lon="12.0294759"><ele>49.333333333333336</ele><time>2026-04-06T16:34:16.01Z</time></trkpt><trkpt lat="44.1776474" lon="12.0296722"><ele>50.0</ele><time>2026-04-06T16:34:17.01Z</time></trkpt><trkpt lat="44.1777997" lon="12.0298722"><ele>49.66666666666667</ele><time>2026-04-06T16:34:18.01Z</time></trkpt><trkpt lat="44.1779503" lon="12.0300628"><ele>49.33333333333333</ele><time>2026-04-06T16:34:19.009Z</time></trkpt><trkpt lat="44.1780938" lon="12.0302435"><ele>49.0</ele><time>2026-04-06T16:34:20.009Z</time></trkpt><trkpt lat="44.1782279" lon="12.0304028"><ele>49.0</ele><time>2026-04-06T16:34:21.009Z</time></trkpt><trkpt lat="44.1783467" lon="12.0305533"><ele>49.0</ele><time>2026-04-06T16:34:22.009Z</time></trkpt><trkpt lat="44.178465" lon="12.0306817"><ele>49.0</ele><time>2026-04-06T16:34:23.009Z</time></trkpt><trkpt lat="44.1785817" lon="12.0308017"><ele>48.666666666666664</ele><time>2026-04-06T16:34:24.01Z</time></trkpt><trkpt lat="44.1787017" lon="12.03091"><ele>48.33333333333333</ele><time>2026-04-06T16:34:25.01Z</time></trkpt><trkpt lat="44.178835" lon="12.0310267"><ele>48.0</ele><time>2026-04-06T16:34:26.009Z</time></trkpt><trkpt lat="44.1789767" lon="12.03114"><ele>47.666666666666664</ele><time>2026-04-06T16:34:27.014Z</time></trkpt><trkpt lat="44.1791267" lon="12.0312433"><ele>47.33333333333333</ele><time>2026-04-06T16:34:28.009Z</time></trkpt><trkpt lat="44.1792883" lon="12.03135"><ele>47.0</ele><time>2026-04-06T16:34:29.014Z</time></trkpt><trkpt lat="44.17946" lon="12.0314583"><ele>47.0</ele><time>2026-04-06T16:34:30.013Z</time></trkpt><trkpt lat="44.1796333" lon="12.0315767"><ele>47.0</ele><time>2026-04-06T16:34:31.01Z</time></trkpt><trkpt lat="44.1798183" lon="12.0316917"><ele>47.0</ele><time>2026-04-06T16:34:32.012Z</time></trkpt><trkpt lat="44.1800033" lon="12.0318133"><ele>47.666666666666664</ele><time>2026-04-06T16:34:33.009Z</time></trkpt><trkpt lat="44.1801917" lon="12.03193"><ele>48.33333333333333</ele><time>2026-04-06T16:34:34.009Z</time></trkpt><trkpt lat="44.1803767" lon="12.032045"><ele>49.0</ele><time>2026-04-06T16:34:35.008Z</time></trkpt><trkpt lat="44.180555" lon="12.0321567"><ele>48.666666666666664</ele><time>2026-04-06T16:34:36.009Z</time></trkpt><trkpt lat="44.180725" lon="12.0322583"><ele>48.33333333333333</ele><time>2026-04-06T16:34:37.008Z</time></trkpt><trkpt lat="44.1808867" lon="12.03236"><ele>48.0</ele><time>2026-04-06T16:34:38.009Z</time></trkpt><trkpt lat="44.1810483" lon="12.03246"><ele>48.0</ele><time>2026-04-06T16:34:39.008Z</time></trkpt><trkpt lat="44.1812117" lon="12.0325617"><ele>48.0</ele><time>2026-04-06T16:34:40.008Z</time></trkpt><trkpt lat="44.18137" lon="12.03266"><ele>48.0</ele><time>2026-04-06T16:34:41.009Z</time></trkpt><trkpt lat="44.18153" lon="12.0327483"><ele>48.0</ele><time>2026-04-06T16:34:42.008Z</time></trkpt><trkpt lat="44.1816833" lon="12.0328433"><ele>48.0</ele><time>2026-04-06T16:34:43.01Z</time></trkpt><trkpt lat="44.1818333" lon="12.03294"><ele>48.0</ele><time>2026-04-06T16:34:44.01Z</time></trkpt><trkpt lat="44.1819817" lon="12.0330167"><ele>48.0</ele><time>2026-04-06T16:34:45.009Z</time></trkpt><trkpt lat="44.18211" lon="12.0331"><ele>48.0</ele><time>2026-04-06T16:34:46.01Z</time></trkpt><trkpt lat="44.1822467" lon="12.0331883"><ele>48.0</ele><time>2026-04-06T16:34:47.009Z</time></trkpt><trkpt lat="44.18238" lon="12.0332817"><ele>48.0</ele><time>2026-04-06T16:34:48.011Z</time></trkpt><trkpt lat="44.1825067" lon="12.0333683"><ele>47.75</ele><time>2026-04-06T16:34:49.008Z</time></trkpt><trkpt lat="44.18263" lon="12.0334417"><ele>47.5</ele><time>2026-04-06T16:34:50.008Z</time></trkpt><trkpt lat="44.1827517" lon="12.03351"><ele>47.25</ele><time>2026-04-06T16:34:51.009Z</time></trkpt><trkpt lat="44.182885" lon="12.0335917"><ele>47.0</ele><time>2026-04-06T16:34:52.009Z</time></trkpt><trkpt lat="44.18304" lon="12.033685"><ele>47.33333333333333</ele><time>2026-04-06T16:34:53.009Z</time></trkpt><trkpt lat="44.1832183" lon="12.033785"><ele>47.666666666666664</ele><time>2026-04-06T16:34:54.013Z</time></trkpt><trkpt lat="44.18338" lon="12.033905"><ele>48.0</ele><time>2026-04-06T16:34:55.01Z</time></trkpt><trkpt lat="44.18353" lon="12.034"><ele>48.0</ele><time>2026-04-06T16:34:56.011Z</time></trkpt><trkpt lat="44.1836567" lon="12.0340883"><ele>48.0</ele><time>2026-04-06T16:34:57.009Z</time></trkpt><trkpt lat="44.1837717" lon="12.0341617"><ele>48.0</ele><time>2026-04-06T16:34:58.011Z</time></trkpt><trkpt lat="44.1838817" lon="12.03423"><ele>48.0</ele><time>2026-04-06T16:34:59.008Z</time></trkpt><trkpt lat="44.1840067" lon="12.0342917"><ele>47.666666666666664</ele><time>2026-04-06T16:35:00.011Z</time></trkpt><trkpt lat="44.18416" lon="12.034355"><ele>47.33333333333333</ele><time>2026-04-06T16:35:01.008Z</time></trkpt><trkpt lat="44.1843017" lon="12.0344833"><ele>47.0</ele><time>2026-04-06T16:35:02.011Z</time></trkpt><trkpt lat="44.1844417" lon="12.03459"><ele>47.0</ele><time>2026-04-06T16:35:03.012Z</time></trkpt><trkpt lat="44.1845833" lon="12.0346933"><ele>47.0</ele><time>2026-04-06T16:35:04.016Z</time></trkpt><trkpt lat="44.18473" lon="12.034805"><ele>47.0</ele><time>2026-04-06T16:35:05.01Z</time></trkpt><trkpt lat="44.1848817" lon="12.03491"><ele>46.666666666666664</ele><time>2026-04-06T16:35:06.009Z</time></trkpt><trkpt lat="44.18503" lon="12.0350083"><ele>46.333333333333336</ele><time>2026-04-06T16:35:07.011Z</time></trkpt><trkpt lat="44.18518" lon="12.0350983"><ele>46.0</ele><time>2026-04-06T16:35:08.009Z</time></trkpt><trkpt lat="44.1853167" lon="12.0351817"><ele>46.0</ele><time>2026-04-06T16:35:09.012Z</time></trkpt><trkpt lat="44.185445" lon="12.0352683"><ele>46.0</ele><time>2026-04-06T16:35:10.009Z</time></trkpt><trkpt lat="44.1855833" lon="12.0353483"><ele>46.0</ele><time>2026-04-06T16:35:11.009Z</time></trkpt><trkpt lat="44.1857383" lon="12.0354083"><ele>45.5</ele><time>2026-04-06T16:35:12.009Z</time></trkpt><trkpt lat="44.1858917" lon="12.0354617"><ele>45.0</ele><time>2026-04-06T16:35:13.01Z</time></trkpt><trkpt lat="44.1860317" lon="12.0354983"><ele>44.5</ele><time>2026-04-06T16:35:14.01Z</time></trkpt><trkpt lat="44.18616" lon="12.035515"><ele>44.0</ele><time>2026-04-06T16:35:15.011Z</time></trkpt><trkpt lat="44.186275" lon="12.0355167"><ele>44.0</ele><time>2026-04-06T16:35:16.01Z</time></trkpt><trkpt lat="44.186375" lon="12.0355117"><ele>44.0</ele><time>2026-04-06T16:35:17.01Z</time></trkpt><trkpt lat="44.186455" lon="12.0355033"><ele>44.0</ele><time>2026-04-06T16:35:18.015Z</time></trkpt><trkpt lat="44.1865533" lon="12.035505"><ele>44.0</ele><time>2026-04-06T16:35:20.01Z</time></trkpt><trkpt lat="44.18662" lon="12.0354917"><ele>44.0</ele><time>2026-04-06T16:35:23.011Z</time></trkpt><trkpt lat="44.1868131" lon="12.0354305"><ele>45.0</ele><time>2026-04-06T16:35:43.01Z</time></trkpt><trkpt lat="44.1870864" lon="12.0353425"><ele>46.0</ele><time>2026-04-06T16:35:44.012Z</time></trkpt><trkpt lat="44.1873794" lon="12.0352261"><ele>46.0</ele><time>2026-04-06T16:35:45.011Z</time></trkpt><trkpt lat="44.1876285" lon="12.0351165"><ele>46.0</ele><time>2026-04-06T16:35:46.01Z</time></trkpt><trkpt lat="44.187828" lon="12.0350201"><ele>45.333333333333336</ele><time>2026-04-06T16:35:47.009Z</time></trkpt><trkpt lat="44.1880124" lon="12.0349129"><ele>44.666666666666664</ele><time>2026-04-06T16:35:48.013Z</time></trkpt><trkpt lat="44.1882126" lon="12.0347636"><ele>44.0</ele><time>2026-04-06T16:35:49.012Z</time></trkpt><trkpt lat="44.1884276" lon="12.0345899"><ele>44.0</ele><time>2026-04-06T16:35:50.012Z</time></trkpt><trkpt lat="44.1886371" lon="12.0343937"><ele>44.0</ele><time>2026-04-06T16:35:51.011Z</time></trkpt><trkpt lat="44.1888371" lon="12.0342046"><ele>44.0</ele><time>2026-04-06T16:35:52.012Z</time></trkpt><trkpt lat="44.1890227" lon="12.0340438"><ele>44.0</ele><time>2026-04-06T16:35:53.009Z</time></trkpt><trkpt lat="44.1891872" lon="12.0339018"><ele>44.0</ele><time>2026-04-06T16:35:54.01Z</time></trkpt><trkpt lat="44.189339" lon="12.0337681"><ele>44.0</ele><time>2026-04-06T16:35:55.011Z</time></trkpt><trkpt lat="44.1894877" lon="12.0336353"><ele>44.0</ele><time>2026-04-06T16:35:56.011Z</time></trkpt><trkpt lat="44.1896315" lon="12.0334993"><ele>44.0</ele><time>2026-04-06T16:35:57.011Z</time></trkpt><trkpt lat="44.1897718" lon="12.0333672"><ele>44.0</ele><time>2026-04-06T16:35:58.011Z</time></trkpt><trkpt lat="44.1899122" lon="12.0332371"><ele>44.0</ele><time>2026-04-06T16:35:59.012Z</time></trkpt><trkpt lat="44.1900471" lon="12.0331135"><ele>44.0</ele><time>2026-04-06T16:36:00.01Z</time></trkpt><trkpt lat="44.1901714" lon="12.0330003"><ele>44.0</ele><time>2026-04-06T16:36:01.01Z</time></trkpt><trkpt lat="44.1902833" lon="12.0328986"><ele>44.0</ele><time>2026-04-06T16:36:02.008Z</time></trkpt><trkpt lat="44.1903885" lon="12.0328032"><ele>44.0</ele><time>2026-04-06T16:36:03.01Z</time></trkpt><trkpt lat="44.1904937" lon="12.0327075"><ele>44.0</ele><time>2026-04-06T16:36:04.01Z</time></trkpt><trkpt lat="44.1905989" lon="12.0326093"><ele>43.75</ele><time>2026-04-06T16:36:05.009Z</time></trkpt><trkpt lat="44.1907118" lon="12.032509"><ele>43.5</ele><time>2026-04-06T16:36:06.015Z</time></trkpt><trkpt lat="44.1908303" lon="12.0324063"><ele>43.25</ele><time>2026-04-06T16:36:07.008Z</time></trkpt><trkpt lat="44.1909694" lon="12.0323084"><ele>43.0</ele><time>2026-04-06T16:36:08.009Z</time></trkpt><trkpt lat="44.1911501" lon="12.0322179"><ele>41.5</ele><time>2026-04-06T16:36:09.01Z</time></trkpt><trkpt lat="44.1913699" lon="12.0321382"><ele>40.0</ele><time>2026-04-06T16:36:10.01Z</time></trkpt><trkpt lat="44.1916125" lon="12.0320549"><ele>40.0</ele><time>2026-04-06T16:36:11.012Z</time></trkpt><trkpt lat="44.1918536" lon="12.031977"><ele>40.0</ele><time>2026-04-06T16:36:12.01Z</time></trkpt><trkpt lat="44.1920766" lon="12.0319036"><ele>40.0</ele><time>2026-04-06T16:36:13.01Z</time></trkpt><trkpt lat="44.1922792" lon="12.0318334"><ele>40.0</ele><time>2026-04-06T16:36:14.009Z</time></trkpt><trkpt lat="44.1924709" lon="12.0317635"><ele>40.0</ele><time>2026-04-06T16:36:15.009Z</time></trkpt><trkpt lat="44.1926688" lon="12.0316912"><ele>40.5</ele><time>2026-04-06T16:36:16.009Z</time></trkpt><trkpt lat="44.192883" lon="12.0316121"><ele>41.0</ele><time>2026-04-06T16:36:17.009Z</time></trkpt><trkpt lat="44.1931082" lon="12.0315289"><ele>40.666666666666664</ele><time>2026-04-06T16:36:18.011Z</time></trkpt><trkpt lat="44.1933254" lon="12.0314507"><ele>40.333333333333336</ele><time>2026-04-06T16:36:19.011Z</time></trkpt><trkpt lat="44.1935253" lon="12.0313771"><ele>40.0</ele><time>2026-04-06T16:36:20.009Z</time></trkpt><trkpt lat="44.1937148" lon="12.0313072"><ele>40.0</ele><time>2026-04-06T16:36:21.01Z</time></trkpt><trkpt lat="44.1939109" lon="12.0312348"><ele>40.0</ele><time>2026-04-06T16:36:22.009Z</time></trkpt><trkpt lat="44.1941256" lon="12.0311569"><ele>40.0</ele><time>2026-04-06T16:36:23.012Z</time></trkpt><trkpt lat="44.194351" lon="12.0310818"><ele>40.333333333333336</ele><time>2026-04-06T16:36:24.009Z</time></trkpt><trkpt lat="44.1945733" lon="12.0310142"><ele>40.666666666666664</ele><time>2026-04-06T16:36:25.013Z</time></trkpt><trkpt lat="44.1947826" lon="12.0309635"><ele>41.0</ele><time>2026-04-06T16:36:26.012Z</time></trkpt><trkpt lat="44.1949811" lon="12.0309333"><ele>41.33333333333333</ele><time>2026-04-06T16:36:27.011Z</time></trkpt><trkpt lat="44.1951717" lon="12.0309105"><ele>41.666666666666664</ele><time>2026-04-06T16:36:28.008Z</time></trkpt><trkpt lat="44.1953518" lon="12.0308921"><ele>42.0</ele><time>2026-04-06T16:36:29.008Z</time></trkpt><trkpt lat="44.1955179" lon="12.030877"><ele>42.0</ele><time>2026-04-06T16:36:30.013Z</time></trkpt><trkpt lat="44.195668" lon="12.030866"><ele>42.0</ele><time>2026-04-06T16:36:31.01Z</time></trkpt><trkpt lat="44.1958042" lon="12.0308805"><ele>42.0</ele><time>2026-04-06T16:36:32.007Z</time></trkpt><trkpt lat="44.1959249" lon="12.030924"><ele>42.0</ele><time>2026-04-06T16:36:33.009Z</time></trkpt><trkpt lat="44.1960258" lon="12.0309902"><ele>41.833333333333336</ele><time>2026-04-06T16:36:34.007Z</time></trkpt><trkpt lat="44.196111" lon="12.0310662"><ele>41.666666666666664</ele><time>2026-04-06T16:36:35.007Z</time></trkpt><trkpt lat="44.1961878" lon="12.0311279"><ele>41.5</ele><time>2026-04-06T16:36:36.012Z</time></trkpt><trkpt lat="44.1962677" lon="12.0311562"><ele>41.33333333333333</ele><time>2026-04-06T16:36:37.009Z</time></trkpt><trkpt lat="44.1963405" lon="12.0311627"><ele>41.166666666666664</ele><time>2026-04-06T16:36:38.009Z</time></trkpt><trkpt lat="44.1964013" lon="12.0311259"><ele>41.0</ele><time>2026-04-06T16:36:39.009Z</time></trkpt><trkpt lat="44.1964628" lon="12.0310509"><ele>41.0</ele><time>2026-04-06T16:36:40.009Z</time></trkpt><trkpt lat="44.196525" lon="12.0309287"><ele>41.0</ele><time>2026-04-06T16:36:41.009Z</time></trkpt><trkpt lat="44.1966153" lon="12.0308097"><ele>41.0</ele><time>2026-04-06T16:36:42.008Z</time></trkpt><trkpt lat="44.1967445" lon="12.0307051"><ele>41.0</ele><time>2026-04-06T16:36:43.009Z</time></trkpt><trkpt lat="44.1969018" lon="12.0306004"><ele>40.0</ele><time>2026-04-06T16:36:44.008Z</time></trkpt><trkpt lat="44.1970745" lon="12.0305079"><ele>39.0</ele><time>2026-04-06T16:36:45.009Z</time></trkpt><trkpt lat="44.1972419" lon="12.0304266"><ele>38.0</ele><time>2026-04-06T16:36:46.007Z</time></trkpt><trkpt lat="44.1973977" lon="12.030362"><ele>38.0</ele><time>2026-04-06T16:36:47.012Z</time></trkpt><trkpt lat="44.1975456" lon="12.0303072"><ele>38.0</ele><time>2026-04-06T16:36:48.008Z</time></trkpt><trkpt lat="44.1976952" lon="12.0302587"><ele>38.0</ele><time>2026-04-06T16:36:49.009Z</time></trkpt><trkpt lat="44.1978628" lon="12.0302024"><ele>38.0</ele><time>2026-04-06T16:36:50.007Z</time></trkpt><trkpt lat="44.1980539" lon="12.0301484"><ele>38.0</ele><time>2026-04-06T16:36:51.009Z</time></trkpt><trkpt lat="44.1982763" lon="12.0300918"><ele>38.0</ele><time>2026-04-06T16:36:52.01Z</time></trkpt><trkpt lat="44.1985165" lon="12.0300315"><ele>36.0</ele><time>2026-04-06T16:36:53.009Z</time></trkpt><trkpt lat="44.198773" lon="12.0299692"><ele>34.0</ele><time>2026-04-06T16:36:54.007Z</time></trkpt><trkpt lat="44.199026" lon="12.0299119"><ele>34.0</ele><time>2026-04-06T16:36:55.009Z</time></trkpt><trkpt lat="44.1992561" lon="12.0298666"><ele>34.0</ele><time>2026-04-06T16:36:56.009Z</time></trkpt><trkpt lat="44.1994609" lon="12.0298235"><ele>34.0</ele><time>2026-04-06T16:36:57.01Z</time></trkpt><trkpt lat="44.1996513" lon="12.0297773"><ele>34.0</ele><time>2026-04-06T16:36:58.008Z</time></trkpt><trkpt lat="44.1998315" lon="12.0297266"><ele>34.0</ele><time>2026-04-06T16:36:59.007Z</time></trkpt><trkpt lat="44.1999997" lon="12.0296654"><ele>34.0</ele><time>2026-04-06T16:37:00.01Z</time></trkpt><trkpt lat="44.2001517" lon="12.0296009"><ele>34.0</ele><time>2026-04-06T16:37:01.008Z</time></trkpt><trkpt lat="44.200287" lon="12.0295366"><ele>34.0</ele><time>2026-04-06T16:37:02.008Z</time></trkpt><trkpt lat="44.2004025" lon="12.0294828"><ele>34.0</ele><time>2026-04-06T16:37:03.01Z</time></trkpt><trkpt lat="44.2005063" lon="12.0294424"><ele>34.0</ele><time>2026-04-06T16:37:04.008Z</time></trkpt><trkpt lat="44.200616" lon="12.0294213"><ele>33.6</ele><time>2026-04-06T16:37:05.019Z</time></trkpt><trkpt lat="44.2007202" lon="12.0294143"><ele>33.2</ele><time>2026-04-06T16:37:06.008Z</time></trkpt><trkpt lat="44.2008063" lon="12.029395"><ele>32.800000000000004</ele><time>2026-04-06T16:37:07.009Z</time></trkpt><trkpt lat="44.2008727" lon="12.0293588"><ele>32.4</ele><time>2026-04-06T16:37:08.009Z</time></trkpt><trkpt lat="44.2009445" lon="12.0292252"><ele>32.0</ele><time>2026-04-06T16:37:10.012Z</time></trkpt><trkpt lat="44.2008981" lon="12.0290552"><ele>32.0</ele><time>2026-04-06T16:37:11.008Z</time></trkpt><trkpt lat="44.2008274" lon="12.0288565"><ele>32.0</ele><time>2026-04-06T16:37:12.007Z</time></trkpt><trkpt lat="44.2007556" lon="12.0286399"><ele>32.0</ele><time>2026-04-06T16:37:13.009Z</time></trkpt><trkpt lat="44.2007036" lon="12.0284064"><ele>30.666666666666664</ele><time>2026-04-06T16:37:14.011Z</time></trkpt><trkpt lat="44.2006706" lon="12.028179"><ele>29.333333333333336</ele><time>2026-04-06T16:37:15.01Z</time></trkpt><trkpt lat="44.2006442" lon="12.0279608"><ele>28.0</ele><time>2026-04-06T16:37:16.012Z</time></trkpt><trkpt lat="44.2006204" lon="12.0277472"><ele>27.666666666666668</ele><time>2026-04-06T16:37:17.009Z</time></trkpt><trkpt lat="44.2005952" lon="12.0275312"><ele>27.333333333333336</ele><time>2026-04-06T16:37:18.009Z</time></trkpt><trkpt lat="44.2005683" lon="12.0273149"><ele>27.0</ele><time>2026-04-06T16:37:19.009Z</time></trkpt><trkpt lat="44.2005399" lon="12.0270931"><ele>27.0</ele><time>2026-04-06T16:37:20.008Z</time></trkpt><trkpt lat="44.2005182" lon="12.0268692"><ele>27.0</ele><time>2026-04-06T16:37:21.009Z</time></trkpt><trkpt lat="44.2005007" lon="12.0266531"><ele>27.0</ele><time>2026-04-06T16:37:22.008Z</time></trkpt><trkpt lat="44.2004864" lon="12.0264358"><ele>27.333333333333336</ele><time>2026-04-06T16:37:23.007Z</time></trkpt><trkpt lat="44.2004765" lon="12.0262156"><ele>27.666666666666668</ele><time>2026-04-06T16:37:24.014Z</time></trkpt><trkpt lat="44.2004675" lon="12.0259999"><ele>28.0</ele><time>2026-04-06T16:37:25.008Z</time></trkpt><trkpt lat="44.2004653" lon="12.0257846"><ele>28.0</ele><time>2026-04-06T16:37:26.009Z</time></trkpt><trkpt lat="44.2004685" lon="12.0255689"><ele>28.0</ele><time>2026-04-06T16:37:27.008Z</time></trkpt><trkpt lat="44.2004779" lon="12.0253566"><ele>28.0</ele><time>2026-04-06T16:37:28.009Z</time></trkpt><trkpt lat="44.2004902" lon="12.025145"><ele>29.666666666666668</ele><time>2026-04-06T16:37:29.011Z</time></trkpt><trkpt lat="44.2005071" lon="12.024938"><ele>31.333333333333336</ele><time>2026-04-06T16:37:30.008Z</time></trkpt><trkpt lat="44.2005265" lon="12.0247229"><ele>33.0</ele><time>2026-04-06T16:37:31.01Z</time></trkpt><trkpt lat="44.2005465" lon="12.0244989"><ele>33.0</ele><time>2026-04-06T16:37:32.009Z</time></trkpt><trkpt lat="44.2005675" lon="12.0242783"><ele>33.0</ele><time>2026-04-06T16:37:33.009Z</time></trkpt><trkpt lat="44.2005883" lon="12.0240773"><ele>33.0</ele><time>2026-04-06T16:37:34.008Z</time></trkpt><trkpt lat="44.2006068" lon="12.0238974"><ele>33.0</ele><time>2026-04-06T16:37:35.013Z</time></trkpt><trkpt lat="44.2006221" lon="12.0237357"><ele>33.199999999999996</ele><time>2026-04-06T16:37:36.009Z</time></trkpt><trkpt lat="44.2006362" lon="12.0235877"><ele>33.4</ele><time>2026-04-06T16:37:37.01Z</time></trkpt><trkpt lat="44.2006495" lon="12.0234474"><ele>33.599999999999994</ele><time>2026-04-06T16:37:38.009Z</time></trkpt><trkpt lat="44.2006614" lon="12.0233101"><ele>33.8</ele><time>2026-04-06T16:37:39.009Z</time></trkpt><trkpt lat="44.2006746" lon="12.0231707"><ele>34.0</ele><time>2026-04-06T16:37:40.015Z</time></trkpt><trkpt lat="44.2006898" lon="12.0230295"><ele>34.0</ele><time>2026-04-06T16:37:41.006Z</time></trkpt><trkpt lat="44.2007093" lon="12.0228965"><ele>34.0</ele><time>2026-04-06T16:37:42.01Z</time></trkpt><trkpt lat="44.200727" lon="12.0227872"><ele>34.0</ele><time>2026-04-06T16:37:43.008Z</time></trkpt><trkpt lat="44.2007578" lon="12.0226447"><ele>34.0</ele><time>2026-04-06T16:37:45.008Z</time></trkpt><trkpt lat="44.2008247" lon="12.0224969"><ele>34.0</ele><time>2026-04-06T16:37:47.013Z</time></trkpt><trkpt lat="44.2008817" lon="12.0224177"><ele>34.66666666666667</ele><time>2026-04-06T16:37:48.009Z</time></trkpt><trkpt lat="44.2009354" lon="12.0223311"><ele>35.333333333333336</ele><time>2026-04-06T16:37:49.008Z</time></trkpt><trkpt lat="44.2009668" lon="12.0222306"><ele>36.0</ele><time>2026-04-06T16:37:50.007Z</time></trkpt><trkpt lat="44.2009676" lon="12.0221186"><ele>36.666666666666664</ele><time>2026-04-06T16:37:51.01Z</time></trkpt><trkpt lat="44.2009387" lon="12.0220023"><ele>37.33333333333333</ele><time>2026-04-06T16:37:52.008Z</time></trkpt><trkpt lat="44.2008999" lon="12.0218787"><ele>38.0</ele><time>2026-04-06T16:37:53.01Z</time></trkpt><trkpt lat="44.2008727" lon="12.0217385"><ele>37.75</ele><time>2026-04-06T16:37:54.005Z</time></trkpt><trkpt lat="44.200865" lon="12.0215764"><ele>37.5</ele><time>2026-04-06T16:37:55.008Z</time></trkpt><trkpt lat="44.2008724" lon="12.0213904"><ele>37.25</ele><time>2026-04-06T16:37:56.008Z</time></trkpt><trkpt lat="44.2008912" lon="12.0211885"><ele>37.0</ele><time>2026-04-06T16:37:57.009Z</time></trkpt><trkpt lat="44.200912" lon="12.0209687"><ele>37.25</ele><time>2026-04-06T16:37:58.011Z</time></trkpt><trkpt lat="44.2009299" lon="12.0207568"><ele>37.5</ele><time>2026-04-06T16:37:59.008Z</time></trkpt><trkpt lat="44.2009508" lon="12.0205519"><ele>37.75</ele><time>2026-04-06T16:38:00.009Z</time></trkpt><trkpt lat="44.200976" lon="12.0203566"><ele>38.0</ele><time>2026-04-06T16:38:01.007Z</time></trkpt><trkpt lat="44.2009951" lon="12.0201624"><ele>37.75</ele><time>2026-04-06T16:38:02.006Z</time></trkpt><trkpt lat="44.2010135" lon="12.0199677"><ele>37.5</ele><time>2026-04-06T16:38:03.014Z</time></trkpt><trkpt lat="44.2010304" lon="12.0197838"><ele>37.25</ele><time>2026-04-06T16:38:04.008Z</time></trkpt><trkpt lat="44.2010471" lon="12.0196108"><ele>37.0</ele><time>2026-04-06T16:38:05.007Z</time></trkpt><trkpt lat="44.201061" lon="12.0194473"><ele>37.0</ele><time>2026-04-06T16:38:06.008Z</time></trkpt><trkpt lat="44.201074" lon="12.0192978"><ele>37.0</ele><time>2026-04-06T16:38:07.007Z</time></trkpt><trkpt lat="44.201087" lon="12.0191622"><ele>37.0</ele><time>2026-04-06T16:38:08.014Z</time></trkpt><trkpt lat="44.2010988" lon="12.019041"><ele>37.0</ele><time>2026-04-06T16:38:09.008Z</time></trkpt><trkpt lat="44.2011119" lon="12.0189307"><ele>37.0</ele><time>2026-04-06T16:38:10.01Z</time></trkpt><trkpt lat="44.2011226" lon="12.0188336"><ele>37.0</ele><time>2026-04-06T16:38:11.007Z</time></trkpt><trkpt lat="44.2011422" lon="12.0186858"><ele>36.800000000000004</ele><time>2026-04-06T16:38:13.008Z</time></trkpt><trkpt lat="44.2012078" lon="12.0185483"><ele>36.6</ele><time>2026-04-06T16:38:15.008Z</time></trkpt><trkpt lat="44.2012657" lon="12.0184639"><ele>36.400000000000006</ele><time>2026-04-06T16:38:16.015Z</time></trkpt><trkpt lat="44.2013218" lon="12.0183707"><ele>36.2</ele><time>2026-04-06T16:38:17.007Z</time></trkpt><trkpt lat="44.2013619" lon="12.0182638"><ele>36.0</ele><time>2026-04-06T16:38:18.009Z</time></trkpt><trkpt lat="44.2013733" lon="12.0181331"><ele>36.0</ele><time>2026-04-06T16:38:19.009Z</time></trkpt><trkpt lat="44.2013383" lon="12.0179881"><ele>36.0</ele><time>2026-04-06T16:38:20.008Z</time></trkpt><trkpt lat="44.2012842" lon="12.0178288"><ele>36.0</ele><time>2026-04-06T16:38:21.013Z</time></trkpt><trkpt lat="44.2012397" lon="12.0176515"><ele>36.0</ele><time>2026-04-06T16:38:22.007Z</time></trkpt><trkpt lat="44.2012219" lon="12.0174684"><ele>36.0</ele><time>2026-04-06T16:38:23.007Z</time></trkpt><trkpt lat="44.2012191" lon="12.0172948"><ele>36.0</ele><time>2026-04-06T16:38:24.008Z</time></trkpt><trkpt lat="44.2012288" lon="12.0171155"><ele>36.0</ele><time>2026-04-06T16:38:25.01Z</time></trkpt><trkpt lat="44.201241" lon="12.01694"><ele>36.0</ele><time>2026-04-06T16:38:26.009Z</time></trkpt><trkpt lat="44.2012578" lon="12.0167769"><ele>36.2</ele><time>2026-04-06T16:38:27.009Z</time></trkpt><trkpt lat="44.201274" lon="12.0166278"><ele>36.400000000000006</ele><time>2026-04-06T16:38:28.01Z</time></trkpt><trkpt lat="44.2012908" lon="12.0164917"><ele>36.6</ele><time>2026-04-06T16:38:29.009Z</time></trkpt><trkpt lat="44.2013077" lon="12.016366"><ele>36.800000000000004</ele><time>2026-04-06T16:38:30.014Z</time></trkpt><trkpt lat="44.201328" lon="12.0162358"><ele>37.0</ele><time>2026-04-06T16:38:31.009Z</time></trkpt><trkpt lat="44.2013547" lon="12.0161028"><ele>37.0</ele><time>2026-04-06T16:38:32.008Z</time></trkpt><trkpt lat="44.201392" lon="12.015966"><ele>37.0</ele><time>2026-04-06T16:38:33.011Z</time></trkpt><trkpt lat="44.2014344" lon="12.0158235"><ele>37.0</ele><time>2026-04-06T16:38:34.01Z</time></trkpt><trkpt lat="44.201479" lon="12.0156692"><ele>37.0</ele><time>2026-04-06T16:38:35.012Z</time></trkpt><trkpt lat="44.20153" lon="12.0155006"><ele>37.0</ele><time>2026-04-06T16:38:36.009Z</time></trkpt><trkpt lat="44.2015946" lon="12.0153233"><ele>37.0</ele><time>2026-04-06T16:38:37.009Z</time></trkpt><trkpt lat="44.201691" lon="12.0151399"><ele>37.0</ele><time>2026-04-06T16:38:38.008Z</time></trkpt><trkpt lat="44.2018168" lon="12.0149717"><ele>37.0</ele><time>2026-04-06T16:38:39.01Z</time></trkpt><trkpt lat="44.2019618" lon="12.0148355"><ele>37.0</ele><time>2026-04-06T16:38:40.01Z</time></trkpt><trkpt lat="44.2021205" lon="12.0147302"><ele>37.0</ele><time>2026-04-06T16:38:41.009Z</time></trkpt><trkpt lat="44.2022903" lon="12.0146494"><ele>36.66666666666667</ele><time>2026-04-06T16:38:42.01Z</time></trkpt><trkpt lat="44.2024628" lon="12.014588"><ele>36.333333333333336</ele><time>2026-04-06T16:38:43.009Z</time></trkpt><trkpt lat="44.2026321" lon="12.0145197"><ele>36.0</ele><time>2026-04-06T16:38:44.009Z</time></trkpt><trkpt lat="44.2027924" lon="12.0144184"><ele>36.0</ele><time>2026-04-06T16:38:45.008Z</time></trkpt><trkpt lat="44.2029457" lon="12.0143068"><ele>36.0</ele><time>2026-04-06T16:38:46.006Z</time></trkpt><trkpt lat="44.2031002" lon="12.0142182"><ele>36.0</ele><time>2026-04-06T16:38:47.007Z</time></trkpt><trkpt lat="44.2032546" lon="12.0141734"><ele>36.333333333333336</ele><time>2026-04-06T16:38:48.007Z</time></trkpt><trkpt lat="44.2034074" lon="12.0141709"><ele>36.66666666666667</ele><time>2026-04-06T16:38:49.007Z</time></trkpt><trkpt lat="44.2035601" lon="12.014225"><ele>37.0</ele><time>2026-04-06T16:38:50.01Z</time></trkpt><trkpt lat="44.2037051" lon="12.0143275"><ele>37.0</ele><time>2026-04-06T16:38:51.012Z</time></trkpt><trkpt lat="44.2038339" lon="12.0144537"><ele>37.0</ele><time>2026-04-06T16:38:52.009Z</time></trkpt><trkpt lat="44.2039486" lon="12.0145726"><ele>37.0</ele><time>2026-04-06T16:38:53.008Z</time></trkpt><trkpt lat="44.2040571" lon="12.0146691"><ele>37.0</ele><time>2026-04-06T16:38:54.009Z</time></trkpt><trkpt lat="44.2041692" lon="12.0147561"><ele>36.66666666666667</ele><time>2026-04-06T16:38:55.01Z</time></trkpt><trkpt lat="44.2042957" lon="12.014839"><ele>36.333333333333336</ele><time>2026-04-06T16:38:56.01Z</time></trkpt><trkpt lat="44.2044379" lon="12.0149389"><ele>36.0</ele><time>2026-04-06T16:38:57.009Z</time></trkpt><trkpt lat="44.2045865" lon="12.0150547"><ele>36.0</ele><time>2026-04-06T16:38:58.009Z</time></trkpt><trkpt lat="44.2047394" lon="12.0151858"><ele>36.0</ele><time>2026-04-06T16:38:59.008Z</time></trkpt><trkpt lat="44.2048896" lon="12.0153203"><ele>36.0</ele><time>2026-04-06T16:39:00.009Z</time></trkpt><trkpt lat="44.2050338" lon="12.0154482"><ele>36.0</ele><time>2026-04-06T16:39:01.012Z</time></trkpt><trkpt lat="44.2051666" lon="12.0155628"><ele>36.0</ele><time>2026-04-06T16:39:02.009Z</time></trkpt><trkpt lat="44.2052874" lon="12.0156649"><ele>36.0</ele><time>2026-04-06T16:39:03.01Z</time></trkpt><trkpt lat="44.2053877" lon="12.0157523"><ele>36.0</ele><time>2026-04-06T16:39:04.009Z</time></trkpt><trkpt lat="44.2054696" lon="12.0158313"><ele>36.0</ele><time>2026-04-06T16:39:05.007Z</time></trkpt><trkpt lat="44.2055388" lon="12.0159114"><ele>36.0</ele><time>2026-04-06T16:39:06.01Z</time></trkpt><trkpt lat="44.2056029" lon="12.015977"><ele>36.0</ele><time>2026-04-06T16:39:07.007Z</time></trkpt><trkpt lat="44.2056631" lon="12.0160263"><ele>36.0</ele><time>2026-04-06T16:39:08.009Z</time></trkpt><trkpt lat="44.2057764" lon="12.0160215"><ele>36.0</ele><time>2026-04-06T16:39:10.009Z</time></trkpt><trkpt lat="44.2058156" lon="12.0159376"><ele>36.0</ele><time>2026-04-06T16:39:11.014Z</time></trkpt><trkpt lat="44.2058654" lon="12.0157992"><ele>35.75</ele><time>2026-04-06T16:39:12.008Z</time></trkpt><trkpt lat="44.2059228" lon="12.0156364"><ele>35.5</ele><time>2026-04-06T16:39:13.009Z</time></trkpt><trkpt lat="44.2059838" lon="12.0154848"><ele>35.25</ele><time>2026-04-06T16:39:14.008Z</time></trkpt><trkpt lat="44.2060371" lon="12.0153457"><ele>35.0</ele><time>2026-04-06T16:39:15.011Z</time></trkpt><trkpt lat="44.2060901" lon="12.0152101"><ele>35.0</ele><time>2026-04-06T16:39:16.007Z</time></trkpt><trkpt lat="44.206142" lon="12.0150663"><ele>35.0</ele><time>2026-04-06T16:39:17.013Z</time></trkpt><trkpt lat="44.2061919" lon="12.0149186"><ele>35.0</ele><time>2026-04-06T16:39:18.009Z</time></trkpt><trkpt lat="44.2062265" lon="12.0147463"><ele>35.0</ele><time>2026-04-06T16:39:19.009Z</time></trkpt><trkpt lat="44.20624" lon="12.0145723"><ele>34.2</ele><time>2026-04-06T16:39:20.008Z</time></trkpt><trkpt lat="44.2062302" lon="12.0144113"><ele>33.4</ele><time>2026-04-06T16:39:21.008Z</time></trkpt><trkpt lat="44.2062069" lon="12.0142756"><ele>32.6</ele><time>2026-04-06T16:39:22.008Z</time></trkpt><trkpt lat="44.2061781" lon="12.0141434"><ele>31.8</ele><time>2026-04-06T16:39:23.007Z</time></trkpt><trkpt lat="44.2061405" lon="12.0140123"><ele>31.0</ele><time>2026-04-06T16:39:24.008Z</time></trkpt><trkpt lat="44.2060827" lon="12.0138761"><ele>30.25</ele><time>2026-04-06T16:39:25.008Z</time></trkpt><trkpt lat="44.2060152" lon="12.0137343"><ele>29.5</ele><time>2026-04-06T16:39:26.014Z</time></trkpt><trkpt lat="44.2059502" lon="12.0135858"><ele>28.75</ele><time>2026-04-06T16:39:27.008Z</time></trkpt><trkpt lat="44.205879" lon="12.0134255"><ele>28.0</ele><time>2026-04-06T16:39:28.008Z</time></trkpt><trkpt lat="44.2058027" lon="12.0132501"><ele>28.0</ele><time>2026-04-06T16:39:29.007Z</time></trkpt><trkpt lat="44.2057342" lon="12.0130677"><ele>28.0</ele><time>2026-04-06T16:39:30.008Z</time></trkpt><trkpt lat="44.2056879" lon="12.0128802"><ele>28.0</ele><time>2026-04-06T16:39:31.011Z</time></trkpt><trkpt lat="44.2056677" lon="12.0127014"><ele>28.0</ele><time>2026-04-06T16:39:32.009Z</time></trkpt><trkpt lat="44.2056722" lon="12.0125404"><ele>28.0</ele><time>2026-04-06T16:39:33.008Z</time></trkpt><trkpt lat="44.2057075" lon="12.0123951"><ele>28.0</ele><time>2026-04-06T16:39:34.008Z</time></trkpt><trkpt lat="44.2057759" lon="12.0122746"><ele>28.0</ele><time>2026-04-06T16:39:35.008Z</time></trkpt><trkpt lat="44.2058689" lon="12.0121765"><ele>28.0</ele><time>2026-04-06T16:39:36.009Z</time></trkpt><trkpt lat="44.2059826" lon="12.0120956"><ele>28.0</ele><time>2026-04-06T16:39:37.009Z</time></trkpt><trkpt lat="44.2061152" lon="12.0120169"><ele>28.0</ele><time>2026-04-06T16:39:38.01Z</time></trkpt><trkpt lat="44.20626" lon="12.0119323"><ele>28.0</ele><time>2026-04-06T16:39:39.009Z</time></trkpt><trkpt lat="44.2064222" lon="12.0118368"><ele>28.0</ele><time>2026-04-06T16:39:40.006Z</time></trkpt><trkpt lat="44.2066068" lon="12.0117293"><ele>28.0</ele><time>2026-04-06T16:39:41.008Z</time></trkpt><trkpt lat="44.2068189" lon="12.0116124"><ele>28.0</ele><time>2026-04-06T16:39:42.008Z</time></trkpt><trkpt lat="44.2070518" lon="12.0114833"><ele>28.0</ele><time>2026-04-06T16:39:43.007Z</time></trkpt><trkpt lat="44.2072998" lon="12.0113396"><ele>28.0</ele><time>2026-04-06T16:39:44.011Z</time></trkpt><trkpt lat="44.207556" lon="12.0111853"><ele>28.0</ele><time>2026-04-06T16:39:45.008Z</time></trkpt><trkpt lat="44.2078064" lon="12.0110355"><ele>28.0</ele><time>2026-04-06T16:39:46.014Z</time></trkpt><trkpt lat="44.2080352" lon="12.0109008"><ele>28.666666666666668</ele><time>2026-04-06T16:39:47.007Z</time></trkpt><trkpt lat="44.2082479" lon="12.0107793"><ele>29.333333333333336</ele><time>2026-04-06T16:39:48.008Z</time></trkpt><trkpt lat="44.2084436" lon="12.0106665"><ele>30.0</ele><time>2026-04-06T16:39:49.007Z</time></trkpt><trkpt lat="44.2086252" lon="12.0105618"><ele>30.0</ele><time>2026-04-06T16:39:50.008Z</time></trkpt><trkpt lat="44.2087936" lon="12.0104664"><ele>30.0</ele><time>2026-04-06T16:39:51.008Z</time></trkpt><trkpt lat="44.2089583" lon="12.0103771"><ele>30.0</ele><time>2026-04-06T16:39:52.009Z</time></trkpt><trkpt lat="44.2091249" lon="12.0102855"><ele>31.333333333333336</ele><time>2026-04-06T16:39:53.007Z</time></trkpt><trkpt lat="44.2092873" lon="12.0101929"><ele>32.66666666666667</ele><time>2026-04-06T16:39:54.007Z</time></trkpt><trkpt lat="44.2094387" lon="12.0101049"><ele>34.0</ele><time>2026-04-06T16:39:55.008Z</time></trkpt><trkpt lat="44.2095801" lon="12.0100243"><ele>34.4</ele><time>2026-04-06T16:39:56.006Z</time></trkpt><trkpt lat="44.209706" lon="12.009953"><ele>34.8</ele><time>2026-04-06T16:39:57.013Z</time></trkpt><trkpt lat="44.2098078" lon="12.0099011"><ele>35.2</ele><time>2026-04-06T16:39:58.007Z</time></trkpt><trkpt lat="44.2098786" lon="12.0098721"><ele>35.6</ele><time>2026-04-06T16:39:59.01Z</time></trkpt><trkpt lat="44.209946" lon="12.0098519"><ele>36.0</ele><time>2026-04-06T16:40:01.006Z</time></trkpt><trkpt lat="44.210006" lon="12.0098884"><ele>36.0</ele><time>2026-04-06T16:40:19.044Z</time></trkpt><trkpt lat="44.2100787" lon="12.0099367"><ele>36.0</ele><time>2026-04-06T16:40:20.007Z</time></trkpt><trkpt lat="44.2101616" lon="12.0100128"><ele>36.0</ele><time>2026-04-06T16:40:21.008Z</time></trkpt><trkpt lat="44.2102273" lon="12.010115"><ele>36.0</ele><time>2026-04-06T16:40:22.007Z</time></trkpt><trkpt lat="44.210287" lon="12.0103066"><ele>36.0</ele><time>2026-04-06T16:40:23.007Z</time></trkpt><trkpt lat="44.2103394" lon="12.0105535"><ele>35.666666666666664</ele><time>2026-04-06T16:40:24.008Z</time></trkpt><trkpt lat="44.2103962" lon="12.0108327"><ele>35.33333333333333</ele><time>2026-04-06T16:40:25.008Z</time></trkpt><trkpt lat="44.2104724" lon="12.0111488"><ele>35.0</ele><time>2026-04-06T16:40:26.007Z</time></trkpt><trkpt lat="44.2105642" lon="12.011487"><ele>35.0</ele><time>2026-04-06T16:40:27.008Z</time></trkpt><trkpt lat="44.2106638" lon="12.0118446"><ele>35.0</ele><time>2026-04-06T16:40:28.009Z</time></trkpt><trkpt lat="44.2107644" lon="12.0122316"><ele>34.0</ele><time>2026-04-06T16:40:29.006Z</time></trkpt><trkpt lat="44.2108678" lon="12.0126389"><ele>33.0</ele><time>2026-04-06T16:40:30.008Z</time></trkpt><trkpt lat="44.2109729" lon="12.0130412"><ele>33.0</ele><time>2026-04-06T16:40:31.007Z</time></trkpt><trkpt lat="44.2110833" lon="12.0134047"><ele>33.0</ele><time>2026-04-06T16:40:32.008Z</time></trkpt><trkpt lat="44.2111982" lon="12.013723"><ele>33.0</ele><time>2026-04-06T16:40:33.012Z</time></trkpt><trkpt lat="44.2113162" lon="12.0140038"><ele>33.0</ele><time>2026-04-06T16:40:34.007Z</time></trkpt><trkpt lat="44.2114269" lon="12.0142518"><ele>33.0</ele><time>2026-04-06T16:40:35.007Z</time></trkpt><trkpt lat="44.2115185" lon="12.0144685"><ele>33.5</ele><time>2026-04-06T16:40:36.006Z</time></trkpt><trkpt lat="44.2115927" lon="12.0146509"><ele>34.0</ele><time>2026-04-06T16:40:37.016Z</time></trkpt><trkpt lat="44.2116509" lon="12.0148012"><ele>34.5</ele><time>2026-04-06T16:40:38.008Z</time></trkpt><trkpt lat="44.2117016" lon="12.0149198"><ele>35.0</ele><time>2026-04-06T16:40:39.008Z</time></trkpt><trkpt lat="44.2117813" lon="12.0149708"><ele>35.0</ele><time>2026-04-06T16:40:41.007Z</time></trkpt><trkpt lat="44.2118032" lon="12.0148765"><ele>35.0</ele><time>2026-04-06T16:40:45.007Z</time></trkpt></trkseg></trk></gpx>